<?xml version='1.0' encoding='UTF-8'?><gpx version="1.1" creator="JPX - https://github.com/jenetics/jpx" xmlns="http://www.topografix.com/GPX/1/1"><trk><trkseg><trkpt lat="42.58848047169926" lon="2.838216458661113"><ele>94.0</ele><time>2026-04-08T11:25:02.999Z</time></trkpt><trkpt lat="42.58853034198925" lon="2.838144384723763"><ele>94.0</ele><time>2026-04-08T11:26:03Z</time></trkpt><trkpt lat="42.588514014393034" lon="2.838050259377636"><ele>94.0</ele><time>2026-04-08T11:26:05Z</time></trkpt><trkpt lat="42.58845239165883" lon="2.837977619547145"><ele>94.0</ele><time>2026-04-08T11:26:07Z</time></trkpt><trkpt lat="42.588391548768406" lon="2.8379035734615807"><ele>94.0</ele><time>2026-04-08T11:26:09Z</time></trkpt><trkpt lat="42.588302850050674" lon="2.837927604499951"><ele>94.0</ele><time>2026-04-08T11:26:11.999Z</time></trkpt><trkpt lat="42.5882414696224" lon="2.837991280413079"><ele>94.0</ele><time>2026-04-08T11:26:13.999Z</time></trkpt><trkpt lat="42.58817632946283" lon="2.838094041327966"><ele>94.0</ele><time>2026-04-08T11:26:15.999Z</time></trkpt><trkpt lat="42.58814208513473" lon="2.838200692618397"><ele>94.0</ele><time>2026-04-08T11:26:17.999Z</time></trkpt><trkpt lat="42.58811898925938" lon="2.8382875887165744"><ele>94.0</ele><time>2026-04-08T11:26:19.999Z</time></trkpt><trkpt lat="42.58806407262322" lon="2.8383414272881584"><ele>94.0</ele><time>2026-04-08T11:26:21.999Z</time></trkpt><trkpt lat="42.58797470631278" lon="2.8383746109697015"><ele>94.0</ele><time>2026-04-08T11:26:23.999Z</time></trkpt><trkpt lat="42.587897963708116" lon="2.838419796152878"><ele>93.83333333333333</ele><time>2026-04-08T11:26:25.999Z</time></trkpt><trkpt lat="42.58782476913342" lon="2.8384821287733635"><ele>93.66666666666666</ele><time>2026-04-08T11:27:39Z</time></trkpt><trkpt lat="42.587847346928186" lon="2.838610696699374"><ele>93.5</ele><time>2026-04-08T11:27:41Z</time></trkpt><trkpt lat="42.58788377007085" lon="2.838720992992767"><ele>93.33333333333333</ele><time>2026-04-08T11:27:43Z</time></trkpt><trkpt lat="42.58792218320708" lon="2.838833280569023"><ele>93.16666666666667</ele><time>2026-04-08T11:27:45Z</time></trkpt><trkpt lat="42.58797862525266" lon="2.8389169943255226"><ele>93.0</ele><time>2026-04-08T11:27:47Z</time></trkpt><trkpt lat="42.588047729879676" lon="2.8389699834440694"><ele>92.83333333333333</ele><time>2026-04-08T11:27:49Z</time></trkpt><trkpt lat="42.58814091863409" lon="2.838980072701607"><ele>92.66666666666667</ele><time>2026-04-08T11:27:51Z</time></trkpt><trkpt lat="42.58823085088153" lon="2.8389838936311365"><ele>92.5</ele><time>2026-04-08T11:27:53Z</time></trkpt><trkpt lat="42.58830405048616" lon="2.839021697000024"><ele>92.33333333333334</ele><time>2026-04-08T11:27:55Z</time></trkpt><trkpt lat="42.58834524000614" lon="2.839115090423447"><ele>92.16666666666667</ele><time>2026-04-08T11:27:57Z</time></trkpt><trkpt lat="42.58836502642865" lon="2.8392083598139197"><ele>92.0</ele><time>2026-04-08T11:27:59Z</time></trkpt><trkpt lat="42.58839283384301" lon="2.8393024841745205"><ele>92.0</ele><time>2026-04-08T11:28:02Z</time></trkpt><trkpt lat="42.588461741797715" lon="2.8393441016772445"><ele>92.0</ele><time>2026-04-08T11:28:06Z</time></trkpt><trkpt lat="42.58855016960001" lon="2.8392718835149138"><ele>92.0</ele><time>2026-04-08T11:28:08Z</time></trkpt><trkpt lat="42.58864579031395" lon="2.839219932928123"><ele>92.0</ele><time>2026-04-08T11:28:10Z</time></trkpt><trkpt lat="42.58876913319712" lon="2.8391909170144602"><ele>92.0</ele><time>2026-04-08T11:28:12Z</time></trkpt><trkpt lat="42.58883225410595" lon="2.8391642191402697"><ele>91.0</ele><time>2026-04-08T11:28:13Z</time></trkpt><trkpt lat="42.588893828902044" lon="2.8391364345565253"><ele>90.0</ele><time>2026-04-08T11:28:14Z</time></trkpt><trkpt lat="42.589003572130466" lon="2.8390707394551966"><ele>89.0</ele><time>2026-04-08T11:28:16Z</time></trkpt><trkpt lat="42.58909720330072" lon="2.8390137949040426"><ele>88.0</ele><time>2026-04-08T11:28:18Z</time></trkpt><trkpt lat="42.58918174828904" lon="2.838968056551566"><ele>87.0</ele><time>2026-04-08T11:28:24Z</time></trkpt><trkpt lat="42.58927251605873" lon="2.838878384692229"><ele>87.0</ele><time>2026-04-08T11:28:26Z</time></trkpt><trkpt lat="42.58935440395502" lon="2.8387757127232542"><ele>87.0</ele><time>2026-04-08T11:28:28Z</time></trkpt><trkpt lat="42.589403588195886" lon="2.838633556094528"><ele>87.0</ele><time>2026-04-08T11:28:30Z</time></trkpt><trkpt lat="42.58939209825598" lon="2.838547371484994"><ele>87.0</ele><time>2026-04-08T11:28:31Z</time></trkpt><trkpt lat="42.589365023624225" lon="2.8384445870289037"><ele>87.0</ele><time>2026-04-08T11:28:32Z</time></trkpt><trkpt lat="42.58934955735838" lon="2.838352387230056"><ele>87.0</ele><time>2026-04-08T11:28:33Z</time></trkpt><trkpt lat="42.58933618907409" lon="2.8382561257942323"><ele>87.19999999999999</ele><time>2026-04-08T11:28:34Z</time></trkpt><trkpt lat="42.58933295372792" lon="2.8381001063412716"><ele>87.4</ele><time>2026-04-08T11:28:36Z</time></trkpt><trkpt lat="42.58935556254383" lon="2.837939935024645"><ele>87.6</ele><time>2026-04-08T11:28:38Z</time></trkpt><trkpt lat="42.58936740242474" lon="2.837851293726162"><ele>87.80000000000001</ele><time>2026-04-08T11:28:39Z</time></trkpt><trkpt lat="42.58943282821148" lon="2.8378007958908955"><ele>88.0</ele><time>2026-04-08T11:28:40Z</time></trkpt><trkpt lat="42.5894713468415" lon="2.8377101679033814"><ele>86.83333333333333</ele><time>2026-04-08T11:28:41Z</time></trkpt><trkpt lat="42.58952117217189" lon="2.8376409012312975"><ele>85.66666666666666</ele><time>2026-04-08T11:28:42Z</time></trkpt><trkpt lat="42.589570562372714" lon="2.8375718071168903"><ele>84.5</ele><time>2026-04-08T11:28:43Z</time></trkpt><trkpt lat="42.589618926045254" lon="2.837500514576885"><ele>83.33333333333333</ele><time>2026-04-08T11:28:44Z</time></trkpt><trkpt lat="42.58968193657891" lon="2.8374433973143707"><ele>82.16666666666667</ele><time>2026-04-08T11:28:45Z</time></trkpt><trkpt lat="42.58972673604319" lon="2.837379681121382"><ele>81.0</ele><time>2026-04-08T11:28:46Z</time></trkpt><trkpt lat="42.589801776440815" lon="2.8372659516075966"><ele>81.0</ele><time>2026-04-08T11:28:47.999Z</time></trkpt><trkpt lat="42.58989660441998" lon="2.8372032694796165"><ele>81.0</ele><time>2026-04-08T11:28:49.999Z</time></trkpt><trkpt lat="42.589967683586096" lon="2.8371339080494167"><ele>81.0</ele><time>2026-04-08T11:28:51.999Z</time></trkpt><trkpt lat="42.58995450927332" lon="2.836991426236342"><ele>81.0</ele><time>2026-04-08T11:28:52.999Z</time></trkpt><trkpt lat="42.58999440982287" lon="2.8369246486117303"><ele>81.0</ele><time>2026-04-08T11:28:53.999Z</time></trkpt><trkpt lat="42.590035924840585" lon="2.8368042996954577"><ele>80.8</ele><time>2026-04-08T11:28:55.999Z</time></trkpt><trkpt lat="42.59014354917554" lon="2.8366972070249488"><ele>80.6</ele><time>2026-04-08T11:28:57.999Z</time></trkpt><trkpt lat="42.59019103231474" lon="2.836618810812792"><ele>80.4</ele><time>2026-04-08T11:28:58.999Z</time></trkpt><trkpt lat="42.5902969845268" lon="2.836545040910801"><ele>80.2</ele><time>2026-04-08T11:28:59.999Z</time></trkpt><trkpt lat="42.59035165137955" lon="2.8364933751894963"><ele>80.0</ele><time>2026-04-08T11:29:00.999Z</time></trkpt><trkpt lat="42.59041440197616" lon="2.836415957120942"><ele>79.8</ele><time>2026-04-08T11:29:01.999Z</time></trkpt><trkpt lat="42.59048299257945" lon="2.8363268847917693"><ele>79.6</ele><time>2026-04-08T11:29:02.999Z</time></trkpt><trkpt lat="42.59057714951095" lon="2.83627219580718"><ele>79.4</ele><time>2026-04-08T11:29:03.999Z</time></trkpt><trkpt lat="42.59068450354778" lon="2.8362063126531707"><ele>79.2</ele><time>2026-04-08T11:29:04.999Z</time></trkpt><trkpt lat="42.590798103575025" lon="2.8361278374392414"><ele>79.0</ele><time>2026-04-08T11:29:05.999Z</time></trkpt><trkpt lat="42.59091866056381" lon="2.83604455679188"><ele>79.25</ele><time>2026-04-08T11:29:06.999Z</time></trkpt><trkpt lat="42.591031636234526" lon="2.8359418458386543"><ele>79.5</ele><time>2026-04-08T11:29:07.999Z</time></trkpt><trkpt lat="42.591141287034155" lon="2.835874572502312"><ele>79.75</ele><time>2026-04-08T11:29:08.999Z</time></trkpt><trkpt lat="42.591253216727644" lon="2.8358298552292647"><ele>80.0</ele><time>2026-04-08T11:29:09.999Z</time></trkpt><trkpt lat="42.59136715237845" lon="2.835794027224566"><ele>80.0</ele><time>2026-04-08T11:29:10.999Z</time></trkpt><trkpt lat="42.59149482346672" lon="2.83576358387746"><ele>80.0</ele><time>2026-04-08T11:29:11.999Z</time></trkpt><trkpt lat="42.59162751616759" lon="2.835735977354018"><ele>80.0</ele><time>2026-04-08T11:29:12.999Z</time></trkpt><trkpt lat="42.591763785672875" lon="2.8357078233466626"><ele>80.0</ele><time>2026-04-08T11:29:13.999Z</time></trkpt><trkpt lat="42.591903820297595" lon="2.8356610666400957"><ele>80.75</ele><time>2026-04-08T11:29:14.999Z</time></trkpt><trkpt lat="42.59204756227934" lon="2.83562973338585"><ele>81.5</ele><time>2026-04-08T11:29:15.999Z</time></trkpt><trkpt lat="42.592183544551666" lon="2.8356004109861486"><ele>82.25</ele><time>2026-04-08T11:29:16.999Z</time></trkpt><trkpt lat="42.59231580536631" lon="2.8355741738090208"><ele>83.0</ele><time>2026-04-08T11:29:17.999Z</time></trkpt><trkpt lat="42.59244058793361" lon="2.835548072234054"><ele>83.0</ele><time>2026-04-08T11:29:18.999Z</time></trkpt><trkpt lat="42.59256263328054" lon="2.835504693224881"><ele>83.0</ele><time>2026-04-08T11:29:19.999Z</time></trkpt><trkpt lat="42.592688004217926" lon="2.8354278194614286"><ele>83.0</ele><time>2026-04-08T11:29:20.999Z</time></trkpt><trkpt lat="42.59280960753596" lon="2.835319721302229"><ele>83.0</ele><time>2026-04-08T11:29:21.999Z</time></trkpt><trkpt lat="42.59293750047662" lon="2.8351908399585013"><ele>83.66666666666667</ele><time>2026-04-08T11:29:22.999Z</time></trkpt><trkpt lat="42.59307012152888" lon="2.835041858793574"><ele>84.33333333333333</ele><time>2026-04-08T11:29:23.999Z</time></trkpt><trkpt lat="42.59321307184637" lon="2.8349127713102735"><ele>85.0</ele><time>2026-04-08T11:29:24.999Z</time></trkpt><trkpt lat="42.59335599919461" lon="2.8347843879300956"><ele>85.0</ele><time>2026-04-08T11:29:25.999Z</time></trkpt><trkpt lat="42.59349074756982" lon="2.834660683823264"><ele>85.0</ele><time>2026-04-08T11:29:26.999Z</time></trkpt><trkpt lat="42.59361236911895" lon="2.8345497896250578"><ele>85.0</ele><time>2026-04-08T11:29:27.999Z</time></trkpt><trkpt lat="42.59372707135478" lon="2.8344441759954093"><ele>85.0</ele><time>2026-04-08T11:29:28.999Z</time></trkpt><trkpt lat="42.593839413790036" lon="2.834333627955954"><ele>84.0</ele><time>2026-04-08T11:29:29.999Z</time></trkpt><trkpt lat="42.59394006858371" lon="2.8341993327107877"><ele>83.0</ele><time>2026-04-08T11:29:31Z</time></trkpt><trkpt lat="42.59403368085877" lon="2.8340248626846183"><ele>82.0</ele><time>2026-04-08T11:29:32Z</time></trkpt><trkpt lat="42.59413109141964" lon="2.8338433263780543"><ele>82.0</ele><time>2026-04-08T11:29:33Z</time></trkpt><trkpt lat="42.594231019358965" lon="2.833666270661033"><ele>82.0</ele><time>2026-04-08T11:29:34Z</time></trkpt><trkpt lat="42.59433109879255" lon="2.8334927544287125"><ele>82.0</ele><time>2026-04-08T11:29:35Z</time></trkpt><trkpt lat="42.594437618229854" lon="2.8333129217958617"><ele>82.0</ele><time>2026-04-08T11:29:36Z</time></trkpt><trkpt lat="42.594547543642825" lon="2.8331265707329027"><ele>82.0</ele><time>2026-04-08T11:29:37Z</time></trkpt><trkpt lat="42.59465746327268" lon="2.832943436300618"><ele>82.0</ele><time>2026-04-08T11:29:38Z</time></trkpt><trkpt lat="42.59476723463618" lon="2.8327644876761626"><ele>82.0</ele><time>2026-04-08T11:29:39Z</time></trkpt><trkpt lat="42.59487370207287" lon="2.8325855264913646"><ele>82.0</ele><time>2026-04-08T11:29:40Z</time></trkpt><trkpt lat="42.59497440177618" lon="2.8324087522555996"><ele>82.0</ele><time>2026-04-08T11:29:41Z</time></trkpt><trkpt lat="42.5950772824333" lon="2.832229071047748"><ele>82.0</ele><time>2026-04-08T11:29:42Z</time></trkpt><trkpt lat="42.59517334378858" lon="2.8320474210646016"><ele>82.0</ele><time>2026-04-08T11:29:43Z</time></trkpt><trkpt lat="42.59526113584158" lon="2.8318503378019364"><ele>82.0</ele><time>2026-04-08T11:29:44Z</time></trkpt><trkpt lat="42.59533045092217" lon="2.8316510545137827"><ele>81.66666666666666</ele><time>2026-04-08T11:29:45Z</time></trkpt><trkpt lat="42.595389266678424" lon="2.8314452354527395"><ele>81.33333333333333</ele><time>2026-04-08T11:29:46Z</time></trkpt><trkpt lat="42.595450492223776" lon="2.831235022073669"><ele>81.0</ele><time>2026-04-08T11:29:47Z</time></trkpt><trkpt lat="42.59551415541247" lon="2.8310081627261865"><ele>81.0</ele><time>2026-04-08T11:29:48Z</time></trkpt><trkpt lat="42.595582807258694" lon="2.8307816124338707"><ele>81.0</ele><time>2026-04-08T11:29:49Z</time></trkpt><trkpt lat="42.59565723755318" lon="2.8305874381309986"><ele>81.0</ele><time>2026-04-08T11:29:50Z</time></trkpt><trkpt lat="42.59570088558918" lon="2.830394408449116"><ele>81.0</ele><time>2026-04-08T11:29:51Z</time></trkpt><trkpt lat="42.59576906313511" lon="2.830222809186147"><ele>81.0</ele><time>2026-04-08T11:29:52Z</time></trkpt><trkpt lat="42.59586108853697" lon="2.8300862749404296"><ele>81.0</ele><time>2026-04-08T11:29:53Z</time></trkpt><trkpt lat="42.595962739001045" lon="2.8299706186183524"><ele>81.0</ele><time>2026-04-08T11:29:54Z</time></trkpt><trkpt lat="42.59607512011823" lon="2.829863950279118"><ele>80.75</ele><time>2026-04-08T11:29:55Z</time></trkpt><trkpt lat="42.59618467970913" lon="2.829763092058265"><ele>80.5</ele><time>2026-04-08T11:29:56Z</time></trkpt><trkpt lat="42.59630049542262" lon="2.8296620212175583"><ele>80.25</ele><time>2026-04-08T11:29:57Z</time></trkpt><trkpt lat="42.59640253910333" lon="2.8295310486204177"><ele>80.0</ele><time>2026-04-08T11:29:58Z</time></trkpt><trkpt lat="42.59649945217461" lon="2.8293998424312"><ele>80.5</ele><time>2026-04-08T11:29:59Z</time></trkpt><trkpt lat="42.59659019765747" lon="2.829259882836231"><ele>81.0</ele><time>2026-04-08T11:30:00Z</time></trkpt><trkpt lat="42.59668579478057" lon="2.8290967340976123"><ele>81.5</ele><time>2026-04-08T11:30:01Z</time></trkpt><trkpt lat="42.5967843649872" lon="2.8289283751646477"><ele>82.0</ele><time>2026-04-08T11:30:02Z</time></trkpt><trkpt lat="42.59688665780701" lon="2.8287576529885166"><ele>82.0</ele><time>2026-04-08T11:30:03Z</time></trkpt><trkpt lat="42.59699051743281" lon="2.8285855122979626"><ele>82.0</ele><time>2026-04-08T11:30:04Z</time></trkpt><trkpt lat="42.597094653186566" lon="2.8284189035597445"><ele>82.0</ele><time>2026-04-08T11:30:05Z</time></trkpt><trkpt lat="42.597200090883334" lon="2.8282524231214925"><ele>82.0</ele><time>2026-04-08T11:30:06Z</time></trkpt><trkpt lat="42.59730535169183" lon="2.8280805824927904"><ele>82.0</ele><time>2026-04-08T11:30:07Z</time></trkpt><trkpt lat="42.597403855733795" lon="2.8279193548379693"><ele>82.0</ele><time>2026-04-08T11:30:08Z</time></trkpt><trkpt lat="42.597499473295564" lon="2.8277619129910962"><ele>82.0</ele><time>2026-04-08T11:30:09Z</time></trkpt><trkpt lat="42.5975955515012" lon="2.8276100349300406"><ele>82.0</ele><time>2026-04-08T11:30:10Z</time></trkpt><trkpt lat="42.59769031831309" lon="2.827462981702535"><ele>82.0</ele><time>2026-04-08T11:30:11Z</time></trkpt><trkpt lat="42.59778469789397" lon="2.8273276276150163"><ele>82.0</ele><time>2026-04-08T11:30:12Z</time></trkpt><trkpt lat="42.59789580156752" lon="2.8272097358740016"><ele>82.25</ele><time>2026-04-08T11:30:13Z</time></trkpt><trkpt lat="42.59802674942344" lon="2.827140391461676"><ele>82.5</ele><time>2026-04-08T11:30:14Z</time></trkpt><trkpt lat="42.598167176352085" lon="2.827053847074096"><ele>82.75</ele><time>2026-04-08T11:30:15Z</time></trkpt><trkpt lat="42.598304233551154" lon="2.826961892460152"><ele>83.0</ele><time>2026-04-08T11:30:16Z</time></trkpt><trkpt lat="42.598453631515305" lon="2.8268839710226366"><ele>84.0</ele><time>2026-04-08T11:30:17Z</time></trkpt><trkpt lat="42.59860435148872" lon="2.826804747947202"><ele>85.0</ele><time>2026-04-08T11:30:18Z</time></trkpt><trkpt lat="42.598757618768225" lon="2.8267193855446076"><ele>86.0</ele><time>2026-04-08T11:30:19Z</time></trkpt><trkpt lat="42.59891137506459" lon="2.8266378682611695"><ele>87.66666666666667</ele><time>2026-04-08T11:30:20Z</time></trkpt><trkpt lat="42.59906456049385" lon="2.8265670044138345"><ele>89.33333333333333</ele><time>2026-04-08T11:30:21Z</time></trkpt><trkpt lat="42.599219220794964" lon="2.8265033574615104"><ele>91.0</ele><time>2026-04-08T11:30:22Z</time></trkpt><trkpt lat="42.59937559448771" lon="2.826440449436611"><ele>93.33333333333333</ele><time>2026-04-08T11:30:23Z</time></trkpt><trkpt lat="42.599532938300655" lon="2.8263800788250433"><ele>95.66666666666666</ele><time>2026-04-08T11:30:24Z</time></trkpt><trkpt lat="42.59969138842448" lon="2.826319715387948"><ele>98.0</ele><time>2026-04-08T11:30:25Z</time></trkpt><trkpt lat="42.59984864464033" lon="2.8262572361724914"><ele>98.0</ele><time>2026-04-08T11:30:26Z</time></trkpt><trkpt lat="42.60001036580784" lon="2.8261882468066735"><ele>98.0</ele><time>2026-04-08T11:30:27Z</time></trkpt><trkpt lat="42.6001715261534" lon="2.826129642182557"><ele>98.0</ele><time>2026-04-08T11:30:28Z</time></trkpt><trkpt lat="42.60032616352059" lon="2.8260695456869684"><ele>98.0</ele><time>2026-04-08T11:30:29Z</time></trkpt><trkpt lat="42.60047008055143" lon="2.826000063026828"><ele>98.0</ele><time>2026-04-08T11:30:30Z</time></trkpt><trkpt lat="42.600624537851395" lon="2.825923448332068"><ele>98.0</ele><time>2026-04-08T11:30:31Z</time></trkpt><trkpt lat="42.600766529265876" lon="2.8258294661274017"><ele>97.75</ele><time>2026-04-08T11:30:32Z</time></trkpt><trkpt lat="42.60089740033842" lon="2.8257504013403065"><ele>97.5</ele><time>2026-04-08T11:30:33Z</time></trkpt><trkpt lat="42.601021705107954" lon="2.8256735880189403"><ele>97.25</ele><time>2026-04-08T11:30:34Z</time></trkpt><trkpt lat="42.60113831448998" lon="2.8255916860861885"><ele>97.0</ele><time>2026-04-08T11:30:35Z</time></trkpt><trkpt lat="42.60124723479907" lon="2.8255132329273387"><ele>97.0</ele><time>2026-04-08T11:30:36Z</time></trkpt><trkpt lat="42.60135678149416" lon="2.8254204900016933"><ele>97.0</ele><time>2026-04-08T11:30:37Z</time></trkpt><trkpt lat="42.60145157523512" lon="2.825304236951433"><ele>97.0</ele><time>2026-04-08T11:30:38Z</time></trkpt><trkpt lat="42.601543381927364" lon="2.825168068721256"><ele>97.0</ele><time>2026-04-08T11:30:39Z</time></trkpt><trkpt lat="42.601652406964305" lon="2.8250057839005396"><ele>97.25</ele><time>2026-04-08T11:30:40Z</time></trkpt><trkpt lat="42.601774033610084" lon="2.824876673746386"><ele>97.5</ele><time>2026-04-08T11:30:41Z</time></trkpt><trkpt lat="42.601890683119024" lon="2.824750218707584"><ele>97.75</ele><time>2026-04-08T11:30:41.999Z</time></trkpt><trkpt lat="42.602011022336065" lon="2.82464511172459"><ele>98.0</ele><time>2026-04-08T11:30:42.999Z</time></trkpt><trkpt lat="42.602137888627915" lon="2.824568228579365"><ele>98.0</ele><time>2026-04-08T11:30:43.999Z</time></trkpt><trkpt lat="42.60227790288591" lon="2.824521871545204"><ele>98.0</ele><time>2026-04-08T11:30:44.999Z</time></trkpt><trkpt lat="42.60242725096118" lon="2.8244906672770447"><ele>98.0</ele><time>2026-04-08T11:30:45.999Z</time></trkpt><trkpt lat="42.60256763214015" lon="2.8244525796327924"><ele>98.0</ele><time>2026-04-08T11:30:46.999Z</time></trkpt><trkpt lat="42.60270210918671" lon="2.8244344694956354"><ele>98.0</ele><time>2026-04-08T11:30:47.999Z</time></trkpt><trkpt lat="42.60282819041372" lon="2.8243888368110337"><ele>98.0</ele><time>2026-04-08T11:30:48.999Z</time></trkpt><trkpt lat="42.60295365790315" lon="2.824319367981047"><ele>98.0</ele><time>2026-04-08T11:30:49.999Z</time></trkpt><trkpt lat="42.60305063374399" lon="2.824243197446684"><ele>98.0</ele><time>2026-04-08T11:30:50.999Z</time></trkpt><trkpt lat="42.603109138716775" lon="2.8241971877247956"><ele>98.0</ele><time>2026-04-08T11:30:51.999Z</time></trkpt><trkpt lat="42.60328832742794" lon="2.824039566678196"><ele>99.0</ele><time>2026-04-08T11:30:52.999Z</time></trkpt><trkpt lat="42.60337930209513" lon="2.823902789698909"><ele>100.0</ele><time>2026-04-08T11:30:53.999Z</time></trkpt><trkpt lat="42.60346092710358" lon="2.8237500423952513"><ele>101.0</ele><time>2026-04-08T11:30:54.999Z</time></trkpt><trkpt lat="42.60353482221114" lon="2.8235862788860526"><ele>102.0</ele><time>2026-04-08T11:30:55.999Z</time></trkpt><trkpt lat="42.60359829547994" lon="2.823408598433696"><ele>102.0</ele><time>2026-04-08T11:30:56.999Z</time></trkpt><trkpt lat="42.60365202175269" lon="2.8232141284586008"><ele>102.0</ele><time>2026-04-08T11:30:57.999Z</time></trkpt><trkpt lat="42.603711439921526" lon="2.823024053455489"><ele>102.0</ele><time>2026-04-08T11:30:58.999Z</time></trkpt><trkpt lat="42.60377036559771" lon="2.8228351654056065"><ele>102.0</ele><time>2026-04-08T11:30:59.999Z</time></trkpt><trkpt lat="42.60382488039968" lon="2.8226588195131637"><ele>102.0</ele><time>2026-04-08T11:31:00.999Z</time></trkpt><trkpt lat="42.603901333431956" lon="2.8225179537199425"><ele>102.0</ele><time>2026-04-08T11:31:01.999Z</time></trkpt><trkpt lat="42.60399067588716" lon="2.822396077745796"><ele>102.0</ele><time>2026-04-08T11:31:02.999Z</time></trkpt><trkpt lat="42.604099159283386" lon="2.8223073409122432"><ele>102.66666666666666</ele><time>2026-04-08T11:31:03.999Z</time></trkpt><trkpt lat="42.60422756095057" lon="2.822207826525248"><ele>103.33333333333333</ele><time>2026-04-08T11:31:04.999Z</time></trkpt><trkpt lat="42.60435970436579" lon="2.8221058928383544"><ele>104.0</ele><time>2026-04-08T11:31:05.999Z</time></trkpt><trkpt lat="42.60449301993332" lon="2.8220023855115515"><ele>104.33333333333333</ele><time>2026-04-08T11:31:06.999Z</time></trkpt><trkpt lat="42.604615790661775" lon="2.8218820526092414"><ele>104.66666666666666</ele><time>2026-04-08T11:31:07.999Z</time></trkpt><trkpt lat="42.60475284678947" lon="2.8217901449875065"><ele>105.0</ele><time>2026-04-08T11:31:08.999Z</time></trkpt><trkpt lat="42.60488511134071" lon="2.821683716140781"><ele>105.5</ele><time>2026-04-08T11:31:09.999Z</time></trkpt><trkpt lat="42.605015320592294" lon="2.8215798120985998"><ele>106.0</ele><time>2026-04-08T11:31:10.999Z</time></trkpt><trkpt lat="42.60514210606357" lon="2.8214797665443725"><ele>106.5</ele><time>2026-04-08T11:31:11.999Z</time></trkpt><trkpt lat="42.605254320383416" lon="2.8213938131347707"><ele>107.0</ele><time>2026-04-08T11:31:12.999Z</time></trkpt><trkpt lat="42.6053683312109" lon="2.82131289861311"><ele>107.0</ele><time>2026-04-08T11:31:13.999Z</time></trkpt><trkpt lat="42.60548231956972" lon="2.821225454678896"><ele>107.0</ele><time>2026-04-08T11:31:14.999Z</time></trkpt><trkpt lat="42.605596124500885" lon="2.8211291083161316"><ele>107.0</ele><time>2026-04-08T11:31:15.999Z</time></trkpt><trkpt lat="42.60570229176208" lon="2.8210343975004046"><ele>107.0</ele><time>2026-04-08T11:31:16.999Z</time></trkpt><trkpt lat="42.6058149274701" lon="2.82090999499226"><ele>107.25</ele><time>2026-04-08T11:31:17.999Z</time></trkpt><trkpt lat="42.60590965768504" lon="2.820781453883096"><ele>107.5</ele><time>2026-04-08T11:31:18.999Z</time></trkpt><trkpt lat="42.60600231436604" lon="2.8206517910033186"><ele>107.75</ele><time>2026-04-08T11:31:19.999Z</time></trkpt><trkpt lat="42.60610278783235" lon="2.8205200137474975"><ele>108.0</ele><time>2026-04-08T11:31:20.999Z</time></trkpt><trkpt lat="42.606188077616395" lon="2.820378914867457"><ele>107.0</ele><time>2026-04-08T11:31:21.999Z</time></trkpt><trkpt lat="42.606263216807896" lon="2.820245498376198"><ele>106.00000000000001</ele><time>2026-04-08T11:31:22.999Z</time></trkpt><trkpt lat="42.60633272994346" lon="2.8201212875607307"><ele>105.0</ele><time>2026-04-08T11:31:23.999Z</time></trkpt><trkpt lat="42.60639782916343" lon="2.820020168490619"><ele>104.0</ele><time>2026-04-08T11:31:24.999Z</time></trkpt><trkpt lat="42.606449404751814" lon="2.819959725414731"><ele>103.0</ele><time>2026-04-08T11:31:25.999Z</time></trkpt><trkpt lat="42.60650903040641" lon="2.8199059654493808"><ele>102.60000000000001</ele><time>2026-04-08T11:31:26.999Z</time></trkpt><trkpt lat="42.60659241840747" lon="2.8198085591883406"><ele>102.2</ele><time>2026-04-08T11:31:28.999Z</time></trkpt><trkpt lat="42.60661502686739" lon="2.819648677497719"><ele>101.8</ele><time>2026-04-08T11:31:30.999Z</time></trkpt><trkpt lat="42.60656641048512" lon="2.8195569131355627"><ele>101.4</ele><time>2026-04-08T11:31:31.999Z</time></trkpt><trkpt lat="42.60648496843825" lon="2.8195027496772664"><ele>101.0</ele><time>2026-04-08T11:31:32.999Z</time></trkpt><trkpt lat="42.60647442004643" lon="2.819396154453685"><ele>101.25</ele><time>2026-04-08T11:31:33.999Z</time></trkpt><trkpt lat="42.606457579929014" lon="2.8192759965230416"><ele>101.5</ele><time>2026-04-08T11:31:34.999Z</time></trkpt><trkpt lat="42.606449353637245" lon="2.8191182749199433"><ele>101.75</ele><time>2026-04-08T11:31:35.999Z</time></trkpt><trkpt lat="42.606460674980546" lon="2.8189476146942525"><ele>102.0</ele><time>2026-04-08T11:31:37Z</time></trkpt><trkpt lat="42.606494144829085" lon="2.818782706839797"><ele>102.0</ele><time>2026-04-08T11:31:38Z</time></trkpt><trkpt lat="42.60655064235746" lon="2.818604067790851"><ele>102.0</ele><time>2026-04-08T11:31:39Z</time></trkpt><trkpt lat="42.60662679661839" lon="2.8184313307140387"><ele>102.0</ele><time>2026-04-08T11:31:40Z</time></trkpt><trkpt lat="42.60671793093916" lon="2.81826615542117"><ele>102.0</ele><time>2026-04-08T11:31:41Z</time></trkpt><trkpt lat="42.606817940333926" lon="2.818095409945953"><ele>102.33333333333334</ele><time>2026-04-08T11:31:42Z</time></trkpt><trkpt lat="42.60691624443067" lon="2.817909888229054"><ele>102.66666666666667</ele><time>2026-04-08T11:31:43Z</time></trkpt><trkpt lat="42.607008768913104" lon="2.8177134677473625"><ele>103.0</ele><time>2026-04-08T11:31:44Z</time></trkpt><trkpt lat="42.60709426781697" lon="2.8175070924522623"><ele>101.0</ele><time>2026-04-08T11:31:45Z</time></trkpt><trkpt lat="42.60717419677205" lon="2.8172952424907356"><ele>99.0</ele><time>2026-04-08T11:31:46Z</time></trkpt><trkpt lat="42.60725639196611" lon="2.8170741926645495"><ele>97.0</ele><time>2026-04-08T11:31:47Z</time></trkpt><trkpt lat="42.607339720419816" lon="2.8168591145809647"><ele>98.66666666666667</ele><time>2026-04-08T11:31:48Z</time></trkpt><trkpt lat="42.60742550877013" lon="2.8166527077540167"><ele>100.33333333333334</ele><time>2026-04-08T11:31:49Z</time></trkpt><trkpt lat="42.607512677168806" lon="2.816448380406867"><ele>102.0</ele><time>2026-04-08T11:31:50Z</time></trkpt><trkpt lat="42.60759841179429" lon="2.8162450013158975"><ele>102.0</ele><time>2026-04-08T11:31:51Z</time></trkpt><trkpt lat="42.607683615278404" lon="2.8160417023510442"><ele>102.0</ele><time>2026-04-08T11:31:52Z</time></trkpt><trkpt lat="42.607771070021236" lon="2.8158401459847715"><ele>102.0</ele><time>2026-04-08T11:31:53Z</time></trkpt><trkpt lat="42.60784126177843" lon="2.8156442692357744"><ele>101.0</ele><time>2026-04-08T11:31:54Z</time></trkpt><trkpt lat="42.60792376352054" lon="2.8154787409578037"><ele>100.0</ele><time>2026-04-08T11:31:55Z</time></trkpt><trkpt lat="42.60800018443476" lon="2.8153264320831934"><ele>99.0</ele><time>2026-04-08T11:31:56Z</time></trkpt><trkpt lat="42.60807787835799" lon="2.8151841550055314"><ele>98.0</ele><time>2026-04-08T11:31:57Z</time></trkpt><trkpt lat="42.60815539419607" lon="2.815039971308172"><ele>98.0</ele><time>2026-04-08T11:31:58Z</time></trkpt><trkpt lat="42.60822736812252" lon="2.8148998440636546"><ele>98.0</ele><time>2026-04-08T11:31:59Z</time></trkpt><trkpt lat="42.60829351098389" lon="2.814777997469575"><ele>98.0</ele><time>2026-04-08T11:32:00Z</time></trkpt><trkpt lat="42.60834933785807" lon="2.8146715110833354"><ele>98.0</ele><time>2026-04-08T11:32:01Z</time></trkpt><trkpt lat="42.608406925589875" lon="2.8145589297807043"><ele>98.0</ele><time>2026-04-08T11:32:02Z</time></trkpt><trkpt lat="42.60846065764424" lon="2.814456691894403"><ele>97.99999999999999</ele><time>2026-04-08T11:32:03Z</time></trkpt><trkpt lat="42.60850479971847" lon="2.814362921302094"><ele>98.0</ele><time>2026-04-08T11:32:04Z</time></trkpt><trkpt lat="42.60854686257809" lon="2.81426869092377"><ele>98.0</ele><time>2026-04-08T11:32:05Z</time></trkpt><trkpt lat="42.60860311485101" lon="2.814199353617763"><ele>98.0</ele><time>2026-04-08T11:32:06Z</time></trkpt><trkpt lat="42.608644849581985" lon="2.8141303207867043"><ele>97.99999999999999</ele><time>2026-04-08T11:32:07Z</time></trkpt><trkpt lat="42.60871441635401" lon="2.8140310890297635"><ele>98.0</ele><time>2026-04-08T11:32:09Z</time></trkpt><trkpt lat="42.60880437142701" lon="2.8139752755324454"><ele>98.2</ele><time>2026-04-08T11:32:11Z</time></trkpt><trkpt lat="42.60885121866217" lon="2.81388223471982"><ele>98.4</ele><time>2026-04-08T11:32:13Z</time></trkpt><trkpt lat="42.60883596693871" lon="2.8137362384917757"><ele>98.60000000000001</ele><time>2026-04-08T11:32:15Z</time></trkpt><trkpt lat="42.60876624879491" lon="2.8137036733169216"><ele>98.80000000000001</ele><time>2026-04-08T11:32:16Z</time></trkpt><trkpt lat="42.608722819890566" lon="2.8135748168904122"><ele>99.0</ele><time>2026-04-08T11:32:18Z</time></trkpt><trkpt lat="42.608728134866844" lon="2.8133897583446377"><ele>99.16666666666667</ele><time>2026-04-08T11:32:20Z</time></trkpt><trkpt lat="42.60871947929508" lon="2.8132778056145087"><ele>99.33333333333334</ele><time>2026-04-08T11:32:21Z</time></trkpt><trkpt lat="42.608731310742364" lon="2.8131643119761085"><ele>99.5</ele><time>2026-04-08T11:32:22Z</time></trkpt><trkpt lat="42.608738933202034" lon="2.813046572164092"><ele>99.66666666666667</ele><time>2026-04-08T11:32:23Z</time></trkpt><trkpt lat="42.60874548871077" lon="2.81292977350026"><ele>99.83333333333334</ele><time>2026-04-08T11:32:24Z</time></trkpt><trkpt lat="42.60875024950284" lon="2.8128155534773627"><ele>100.0</ele><time>2026-04-08T11:32:25Z</time></trkpt><trkpt lat="42.60875572338628" lon="2.8126943987536035"><ele>100.2</ele><time>2026-04-08T11:32:26Z</time></trkpt><trkpt lat="42.60876096007023" lon="2.812566971312289"><ele>100.4</ele><time>2026-04-08T11:32:27Z</time></trkpt><trkpt lat="42.608769479464485" lon="2.81244553395609"><ele>100.6</ele><time>2026-04-08T11:32:28Z</time></trkpt><trkpt lat="42.6087766849042" lon="2.8123259253435084"><ele>100.8</ele><time>2026-04-08T11:32:29Z</time></trkpt><trkpt lat="42.60879444159171" lon="2.812209305426977"><ele>101.0</ele><time>2026-04-08T11:32:30Z</time></trkpt><trkpt lat="42.60881006971591" lon="2.812084094570938"><ele>100.99999999999999</ele><time>2026-04-08T11:32:31Z</time></trkpt><trkpt lat="42.60883603115362" lon="2.811959150937626"><ele>101.0</ele><time>2026-04-08T11:32:32Z</time></trkpt><trkpt lat="42.608861474067" lon="2.81183813834842"><ele>101.0</ele><time>2026-04-08T11:32:33Z</time></trkpt><trkpt lat="42.608886850010535" lon="2.8117268360813554"><ele>101.0</ele><time>2026-04-08T11:32:34Z</time></trkpt><trkpt lat="42.60891189192077" lon="2.8116289066657645"><ele>100.99999999999999</ele><time>2026-04-08T11:32:35Z</time></trkpt><trkpt lat="42.60893355314588" lon="2.8115308628973104"><ele>101.0</ele><time>2026-04-08T11:32:36Z</time></trkpt><trkpt lat="42.60896038987265" lon="2.8114285400512613"><ele>100.83333333333333</ele><time>2026-04-08T11:32:37Z</time></trkpt><trkpt lat="42.60898001088358" lon="2.8113242842033084"><ele>100.66666666666666</ele><time>2026-04-08T11:32:38Z</time></trkpt><trkpt lat="42.60899766608332" lon="2.81123432868327"><ele>100.5</ele><time>2026-04-08T11:32:39Z</time></trkpt><trkpt lat="42.609014202817676" lon="2.8111507661139683"><ele>100.33333333333334</ele><time>2026-04-08T11:32:40Z</time></trkpt><trkpt lat="42.60904481287121" lon="2.810983437854795"><ele>100.16666666666667</ele><time>2026-04-08T11:32:42Z</time></trkpt><trkpt lat="42.60906564532697" lon="2.8108778014199527"><ele>100.0</ele><time>2026-04-08T11:32:43Z</time></trkpt><trkpt lat="42.60909079965485" lon="2.810759956301992"><ele>99.50000000000001</ele><time>2026-04-08T11:32:44Z</time></trkpt><trkpt lat="42.60911018590694" lon="2.810657978511244"><ele>99.0</ele><time>2026-04-08T11:32:45Z</time></trkpt><trkpt lat="42.60913123237951" lon="2.810567613804182"><ele>98.5</ele><time>2026-04-08T11:32:46Z</time></trkpt><trkpt lat="42.60915122369421" lon="2.8104703583286725"><ele>98.0</ele><time>2026-04-08T11:32:47Z</time></trkpt><trkpt lat="42.609181921536454" lon="2.8103695832952997"><ele>97.50000000000001</ele><time>2026-04-08T11:32:48Z</time></trkpt><trkpt lat="42.60922198190166" lon="2.8102661652496743"><ele>97.0</ele><time>2026-04-08T11:32:49Z</time></trkpt><trkpt lat="42.609285076342864" lon="2.810184360015477"><ele>97.00000000000001</ele><time>2026-04-08T11:32:50Z</time></trkpt><trkpt lat="42.609347643183156" lon="2.8101057444379176"><ele>97.0</ele><time>2026-04-08T11:32:51Z</time></trkpt><trkpt lat="42.60941672180208" lon="2.8100321938885715"><ele>97.0</ele><time>2026-04-08T11:32:52Z</time></trkpt><trkpt lat="42.609473192187124" lon="2.8099503488369404"><ele>97.0</ele><time>2026-04-08T11:32:53Z</time></trkpt><trkpt lat="42.60953203003399" lon="2.8098906414389537"><ele>97.00000000000001</ele><time>2026-04-08T11:32:54Z</time></trkpt><trkpt lat="42.60959127635737" lon="2.809838428054793"><ele>97.0</ele><time>2026-04-08T11:32:54.999Z</time></trkpt><trkpt lat="42.60964080064764" lon="2.809784361421159"><ele>96.6</ele><time>2026-04-08T11:32:55.999Z</time></trkpt><trkpt lat="42.60973422149084" lon="2.8096970126619385"><ele>96.19999999999999</ele><time>2026-04-08T11:32:57.999Z</time></trkpt><trkpt lat="42.609808169737484" lon="2.8096244803695782"><ele>95.8</ele><time>2026-04-08T11:32:59.999Z</time></trkpt><trkpt lat="42.60986945652813" lon="2.8095580680250714"><ele>95.4</ele><time>2026-04-08T11:33:02.999Z</time></trkpt><trkpt lat="42.609948471358315" lon="2.809476949331596"><ele>95.0</ele><time>2026-04-08T11:33:06.999Z</time></trkpt><trkpt lat="42.61002553902385" lon="2.8094098647708865"><ele>95.25</ele><time>2026-04-08T11:33:08.999Z</time></trkpt><trkpt lat="42.610104066852784" lon="2.8093072527735727"><ele>95.5</ele><time>2026-04-08T11:33:10.999Z</time></trkpt><trkpt lat="42.61016173217715" lon="2.809157579018244"><ele>95.75</ele><time>2026-04-08T11:33:12.999Z</time></trkpt><trkpt lat="42.610179382851136" lon="2.8090063446002014"><ele>96.0</ele><time>2026-04-08T11:33:14.999Z</time></trkpt><trkpt lat="42.61016499497776" lon="2.808848585881504"><ele>96.0</ele><time>2026-04-08T11:33:16.999Z</time></trkpt><trkpt lat="42.61016712786436" lon="2.8087009232510542"><ele>96.0</ele><time>2026-04-08T11:33:18.999Z</time></trkpt><trkpt lat="42.610159182359666" lon="2.808559116314034"><ele>96.0</ele><time>2026-04-08T11:33:20.999Z</time></trkpt><trkpt lat="42.610157023534924" lon="2.808415883640623"><ele>96.0</ele><time>2026-04-08T11:33:22.999Z</time></trkpt><trkpt lat="42.61019201161085" lon="2.808263313942919"><ele>96.0</ele><time>2026-04-08T11:33:24.999Z</time></trkpt><trkpt lat="42.61023424840682" lon="2.80813502958914"><ele>96.19999999999999</ele><time>2026-04-08T11:33:26.999Z</time></trkpt><trkpt lat="42.61030038369028" lon="2.808044344643362"><ele>96.39999999999999</ele><time>2026-04-08T11:33:28.999Z</time></trkpt><trkpt lat="42.61034123415201" lon="2.8079591094054437"><ele>96.6</ele><time>2026-04-08T11:33:30.999Z</time></trkpt><trkpt lat="42.610418455553635" lon="2.8078822204604457"><ele>96.8</ele><time>2026-04-08T11:33:32.999Z</time></trkpt><trkpt lat="42.61052866716532" lon="2.8078154058281446"><ele>97.0</ele><time>2026-04-08T11:33:34.999Z</time></trkpt><trkpt lat="42.610602782272174" lon="2.80775398202609"><ele>97.39999999999999</ele><time>2026-04-08T11:33:36.999Z</time></trkpt><trkpt lat="42.610670040786815" lon="2.8077817713199162"><ele>97.8</ele><time>2026-04-08T11:33:38.999Z</time></trkpt><trkpt lat="42.610768584335624" lon="2.8078324917367823"><ele>98.2</ele><time>2026-04-08T11:33:40.999Z</time></trkpt><trkpt lat="42.61089070271525" lon="2.8078459124777075"><ele>98.6</ele><time>2026-04-08T11:33:43Z</time></trkpt><trkpt lat="42.61099665870995" lon="2.8078749495549062"><ele>99.0</ele><time>2026-04-08T11:33:45Z</time></trkpt><trkpt lat="42.61108850527483" lon="2.807966316689751"><ele>98.80000000000001</ele><time>2026-04-08T11:33:47Z</time></trkpt><trkpt lat="42.6111891257868" lon="2.8080568384059625"><ele>98.60000000000001</ele><time>2026-04-08T11:33:49Z</time></trkpt><trkpt lat="42.61130772043073" lon="2.8081089793366507"><ele>98.4</ele><time>2026-04-08T11:33:51Z</time></trkpt><trkpt lat="42.61136568406883" lon="2.8081522173317692"><ele>98.2</ele><time>2026-04-08T11:33:52Z</time></trkpt><trkpt lat="42.61143151958145" lon="2.8081552782135755"><ele>98.0</ele><time>2026-04-08T11:33:53Z</time></trkpt><trkpt lat="42.611534539990444" lon="2.8082043854716985"><ele>98.0</ele><time>2026-04-08T11:33:55Z</time></trkpt><trkpt lat="42.61160887548413" lon="2.8082424907662746"><ele>98.0</ele><time>2026-04-08T11:33:56Z</time></trkpt><trkpt lat="42.611667273142984" lon="2.8083152769754114"><ele>98.0</ele><time>2026-04-08T11:33:57Z</time></trkpt><trkpt lat="42.61173645895781" lon="2.808367423074421"><ele>98.0</ele><time>2026-04-08T11:33:58Z</time></trkpt><trkpt lat="42.6117991361994" lon="2.8084104182183998"><ele>98.0</ele><time>2026-04-08T11:33:59Z</time></trkpt><trkpt lat="42.611863889523875" lon="2.808430613594438"><ele>98.0</ele><time>2026-04-08T11:34:00Z</time></trkpt><trkpt lat="42.61191013493312" lon="2.8085051568236734"><ele>98.0</ele><time>2026-04-08T11:34:01Z</time></trkpt><trkpt lat="42.61196687661423" lon="2.8085573115041673"><ele>96.71428571428571</ele><time>2026-04-08T11:34:02Z</time></trkpt><trkpt lat="42.61202922744561" lon="2.808615802310934"><ele>95.42857142857143</ele><time>2026-04-08T11:34:03Z</time></trkpt><trkpt lat="42.61208727831532" lon="2.808670259386257"><ele>94.14285714285714</ele><time>2026-04-08T11:34:04Z</time></trkpt><trkpt lat="42.61215000471853" lon="2.808722075990382"><ele>92.85714285714286</ele><time>2026-04-08T11:34:05Z</time></trkpt><trkpt lat="42.612209058150285" lon="2.808768596488317"><ele>91.57142857142857</ele><time>2026-04-08T11:34:06Z</time></trkpt><trkpt lat="42.61226741545705" lon="2.808819474297625"><ele>90.28571428571428</ele><time>2026-04-08T11:34:07Z</time></trkpt><trkpt lat="42.612342223304644" lon="2.8088368298873996"><ele>89.0</ele><time>2026-04-08T11:34:08Z</time></trkpt><trkpt lat="42.6124042655397" lon="2.8088867667108293"><ele>89.0</ele><time>2026-04-08T11:34:09Z</time></trkpt><trkpt lat="42.61246136377804" lon="2.808939590362445"><ele>89.0</ele><time>2026-04-08T11:34:10Z</time></trkpt><trkpt lat="42.612514885838465" lon="2.808986503054674"><ele>89.0</ele><time>2026-04-08T11:34:11Z</time></trkpt><trkpt lat="42.61255611471497" lon="2.809058078445455"><ele>89.0</ele><time>2026-04-08T11:34:12Z</time></trkpt><trkpt lat="42.61264096703148" lon="2.809130879483503"><ele>89.0</ele><time>2026-04-08T11:34:14Z</time></trkpt><trkpt lat="42.61270137168215" lon="2.809180947019399"><ele>89.0</ele><time>2026-04-08T11:34:16Z</time></trkpt><trkpt lat="42.61278314454617" lon="2.8092500932529463"><ele>88.66666666666667</ele><time>2026-04-08T11:34:18Z</time></trkpt><trkpt lat="42.61284172530309" lon="2.8093002901343507"><ele>88.33333333333334</ele><time>2026-04-08T11:34:19Z</time></trkpt><trkpt lat="42.61290837088874" lon="2.8093460280188554"><ele>88.0</ele><time>2026-04-08T11:34:20Z</time></trkpt><trkpt lat="42.61297455296693" lon="2.8094121674504238"><ele>87.66666666666667</ele><time>2026-04-08T11:34:21Z</time></trkpt><trkpt lat="42.613024470846646" lon="2.809491646791956"><ele>87.33333333333333</ele><time>2026-04-08T11:34:22Z</time></trkpt><trkpt lat="42.61306690707245" lon="2.8095853273904"><ele>87.0</ele><time>2026-04-08T11:34:23Z</time></trkpt><trkpt lat="42.61309312406386" lon="2.8096952212183046"><ele>87.0</ele><time>2026-04-08T11:34:24Z</time></trkpt><trkpt lat="42.613102202347584" lon="2.809819178684981"><ele>87.0</ele><time>2026-04-08T11:34:25Z</time></trkpt><trkpt lat="42.613093558563484" lon="2.8099459155772895"><ele>87.0</ele><time>2026-04-08T11:34:26Z</time></trkpt><trkpt lat="42.61307057168345" lon="2.8100676919344396"><ele>87.0</ele><time>2026-04-08T11:34:27Z</time></trkpt><trkpt lat="42.61304605451528" lon="2.810182052844041"><ele>87.0</ele><time>2026-04-08T11:34:28Z</time></trkpt><trkpt lat="42.61303265610261" lon="2.810285177337516"><ele>87.0</ele><time>2026-04-08T11:34:29Z</time></trkpt><trkpt lat="42.61303340737279" lon="2.810387186134665"><ele>87.33333333333333</ele><time>2026-04-08T11:34:30Z</time></trkpt><trkpt lat="42.61305792013094" lon="2.8104869065160623"><ele>87.66666666666667</ele><time>2026-04-08T11:34:31Z</time></trkpt><trkpt lat="42.613096982817936" lon="2.810584140952557"><ele>88.0</ele><time>2026-04-08T11:34:32Z</time></trkpt><trkpt lat="42.61314465643862" lon="2.8106719522030104"><ele>88.33333333333334</ele><time>2026-04-08T11:34:33Z</time></trkpt><trkpt lat="42.61320733235536" lon="2.810748348611777"><ele>88.66666666666667</ele><time>2026-04-08T11:34:34Z</time></trkpt><trkpt lat="42.61325890628889" lon="2.8108377100149475"><ele>89.0</ele><time>2026-04-08T11:34:35Z</time></trkpt><trkpt lat="42.6133131699133" lon="2.8109286637013957"><ele>89.0</ele><time>2026-04-08T11:34:36Z</time></trkpt><trkpt lat="42.613369078568816" lon="2.8110186736193024"><ele>89.0</ele><time>2026-04-08T11:34:37Z</time></trkpt><trkpt lat="42.61342362178659" lon="2.811108116525526"><ele>89.0</ele><time>2026-04-08T11:34:38Z</time></trkpt><trkpt lat="42.61347834673888" lon="2.8112007501993395"><ele>89.0</ele><time>2026-04-08T11:34:39Z</time></trkpt><trkpt lat="42.61352410233529" lon="2.811305164600769"><ele>89.0</ele><time>2026-04-08T11:34:40Z</time></trkpt><trkpt lat="42.613585894728764" lon="2.811384806708269"><ele>89.0</ele><time>2026-04-08T11:34:41Z</time></trkpt><trkpt lat="42.613638213886674" lon="2.8114703942822477"><ele>88.66666666666667</ele><time>2026-04-08T11:34:42Z</time></trkpt><trkpt lat="42.61369304312234" lon="2.8115618324281506"><ele>88.33333333333334</ele><time>2026-04-08T11:34:43Z</time></trkpt><trkpt lat="42.613747863575036" lon="2.811656085465945"><ele>88.0</ele><time>2026-04-08T11:34:44Z</time></trkpt><trkpt lat="42.61380330328534" lon="2.8117485235454693"><ele>87.66666666666667</ele><time>2026-04-08T11:34:45Z</time></trkpt><trkpt lat="42.613847052856315" lon="2.811856406649269"><ele>87.33333333333333</ele><time>2026-04-08T11:34:46Z</time></trkpt><trkpt lat="42.61391147903313" lon="2.8119355781190283"><ele>87.0</ele><time>2026-04-08T11:34:47Z</time></trkpt><trkpt lat="42.6139639487636" lon="2.812027901093113"><ele>87.0</ele><time>2026-04-08T11:34:48Z</time></trkpt><trkpt lat="42.6140127391334" lon="2.8121088105936596"><ele>87.0</ele><time>2026-04-08T11:34:49Z</time></trkpt><trkpt lat="42.61404788838331" lon="2.8121941497301304"><ele>87.0</ele><time>2026-04-08T11:34:50Z</time></trkpt><trkpt lat="42.61408648561543" lon="2.8122634223396887"><ele>87.0</ele><time>2026-04-08T11:34:51Z</time></trkpt><trkpt lat="42.614140572208484" lon="2.812350012018113"><ele>87.0</ele><time>2026-04-08T11:34:53Z</time></trkpt><trkpt lat="42.61417583514745" lon="2.812439816470358"><ele>87.0</ele><time>2026-04-08T11:34:58Z</time></trkpt><trkpt lat="42.61423833388335" lon="2.8125248449185163"><ele>87.0</ele><time>2026-04-08T11:35:02.999Z</time></trkpt><trkpt lat="42.61432551937676" lon="2.8124513404504703"><ele>87.0</ele><time>2026-04-08T11:35:03.999Z</time></trkpt><trkpt lat="42.61437700234028" lon="2.81239318398897"><ele>87.0</ele><time>2026-04-08T11:35:04.999Z</time></trkpt><trkpt lat="42.6144384851733" lon="2.8123171952347907"><ele>87.0</ele><time>2026-04-08T11:35:05.999Z</time></trkpt><trkpt lat="42.61451348298765" lon="2.812227052689022"><ele>87.0</ele><time>2026-04-08T11:35:06.999Z</time></trkpt><trkpt lat="42.61459909963501" lon="2.812123540840537"><ele>87.0</ele><time>2026-04-08T11:35:07.999Z</time></trkpt><trkpt lat="42.614682578452005" lon="2.81201790533983"><ele>87.0</ele><time>2026-04-08T11:35:08.999Z</time></trkpt><trkpt lat="42.61477267025167" lon="2.811894259883492"><ele>87.0</ele><time>2026-04-08T11:35:09.999Z</time></trkpt><trkpt lat="42.61486301480468" lon="2.81176460108379"><ele>87.0</ele><time>2026-04-08T11:35:10.999Z</time></trkpt><trkpt lat="42.61495748841577" lon="2.811634995718588"><ele>88.75</ele><time>2026-04-08T11:35:11.999Z</time></trkpt><trkpt lat="42.615054436999614" lon="2.811511217162622"><ele>90.5</ele><time>2026-04-08T11:35:12.999Z</time></trkpt><trkpt lat="42.61515321505571" lon="2.811401130808345"><ele>92.25</ele><time>2026-04-08T11:35:13.999Z</time></trkpt><trkpt lat="42.615244047080914" lon="2.811303551728452"><ele>94.0</ele><time>2026-04-08T11:35:14.999Z</time></trkpt><trkpt lat="42.61533358111341" lon="2.811206656702962"><ele>94.4</ele><time>2026-04-08T11:35:15.999Z</time></trkpt><trkpt lat="42.61541227692753" lon="2.81112187687475"><ele>94.80000000000001</ele><time>2026-04-08T11:35:16.999Z</time></trkpt><trkpt lat="42.61547712754024" lon="2.8110464917152886"><ele>95.19999999999999</ele><time>2026-04-08T11:35:17.999Z</time></trkpt><trkpt lat="42.61556946217531" lon="2.8109607443248787"><ele>95.6</ele><time>2026-04-08T11:35:18.999Z</time></trkpt><trkpt lat="42.61564689547486" lon="2.810916244745746"><ele>96.0</ele><time>2026-04-08T11:35:19.999Z</time></trkpt><trkpt lat="42.61581549722526" lon="2.8109291331728126"><ele>96.0</ele><time>2026-04-08T11:35:21.999Z</time></trkpt><trkpt lat="42.615915384037976" lon="2.81096624024569"><ele>96.0</ele><time>2026-04-08T11:35:22.999Z</time></trkpt><trkpt lat="42.61603384034367" lon="2.811018986884299"><ele>96.0</ele><time>2026-04-08T11:35:23.999Z</time></trkpt><trkpt lat="42.61619387953704" lon="2.811107913948857"><ele>96.0</ele><time>2026-04-08T11:35:24.999Z</time></trkpt><trkpt lat="42.61637593717601" lon="2.811210212983875"><ele>96.71428571428571</ele><time>2026-04-08T11:35:25.999Z</time></trkpt><trkpt lat="42.61643783147918" lon="2.811193854542644"><ele>97.42857142857143</ele><time>2026-04-08T11:35:27.999Z</time></trkpt><trkpt lat="42.61651425255256" lon="2.8112385127607866"><ele>98.14285714285714</ele><time>2026-04-08T11:35:28.999Z</time></trkpt><trkpt lat="42.61657040457466" lon="2.811285651995197"><ele>98.85714285714286</ele><time>2026-04-08T11:35:29.999Z</time></trkpt><trkpt lat="42.616624438051616" lon="2.8113424116926833"><ele>99.57142857142857</ele><time>2026-04-08T11:35:30.999Z</time></trkpt><trkpt lat="42.61668471070517" lon="2.8113893986455394"><ele>100.28571428571428</ele><time>2026-04-08T11:35:31.999Z</time></trkpt><trkpt lat="42.61675532318038" lon="2.8113937457967935"><ele>101.0</ele><time>2026-04-08T11:35:32.999Z</time></trkpt><trkpt lat="42.61684473683289" lon="2.811377657010682"><ele>101.0</ele><time>2026-04-08T11:35:33.999Z</time></trkpt><trkpt lat="42.6169507707068" lon="2.8113820583512354"><ele>101.0</ele><time>2026-04-08T11:35:34.999Z</time></trkpt><trkpt lat="42.617065950093874" lon="2.8114180563193965"><ele>101.0</ele><time>2026-04-08T11:35:35.999Z</time></trkpt><trkpt lat="42.617182589357675" lon="2.811466529344723"><ele>101.0</ele><time>2026-04-08T11:35:36.999Z</time></trkpt><trkpt lat="42.61731278971067" lon="2.8115171671193875"><ele>101.5</ele><time>2026-04-08T11:35:37.999Z</time></trkpt><trkpt lat="42.617446386095985" lon="2.811568545037379"><ele>102.0</ele><time>2026-04-08T11:35:38.999Z</time></trkpt><trkpt lat="42.61758112467444" lon="2.8116084132622863"><ele>102.5</ele><time>2026-04-08T11:35:39.999Z</time></trkpt><trkpt lat="42.61772291305943" lon="2.8116108707424208"><ele>103.0</ele><time>2026-04-08T11:35:40.999Z</time></trkpt><trkpt lat="42.61786612829345" lon="2.8115935524681386"><ele>103.0</ele><time>2026-04-08T11:35:41.999Z</time></trkpt><trkpt lat="42.61800509760753" lon="2.8115500309856696"><ele>103.0</ele><time>2026-04-08T11:35:42.999Z</time></trkpt><trkpt lat="42.61814709154926" lon="2.8114767504655407"><ele>103.0</ele><time>2026-04-08T11:35:43.999Z</time></trkpt><trkpt lat="42.618302585045846" lon="2.811377978206021"><ele>103.0</ele><time>2026-04-08T11:35:44.999Z</time></trkpt><trkpt lat="42.61846538901483" lon="2.8112744403124608"><ele>103.0</ele><time>2026-04-08T11:35:45.999Z</time></trkpt><trkpt lat="42.61864329311676" lon="2.8111741901955396"><ele>103.0</ele><time>2026-04-08T11:35:46.999Z</time></trkpt><trkpt lat="42.61883089518893" lon="2.811109358844264"><ele>102.33333333333334</ele><time>2026-04-08T11:35:47.999Z</time></trkpt><trkpt lat="42.61902028772026" lon="2.8110560595053657"><ele>101.66666666666666</ele><time>2026-04-08T11:35:49Z</time></trkpt><trkpt lat="42.61921337148281" lon="2.811028359154277"><ele>101.0</ele><time>2026-04-08T11:35:50Z</time></trkpt><trkpt lat="42.61941192236445" lon="2.8110129249752562"><ele>101.0</ele><time>2026-04-08T11:35:51Z</time></trkpt><trkpt lat="42.619600293369984" lon="2.8110213706127447"><ele>101.0</ele><time>2026-04-08T11:35:52Z</time></trkpt><trkpt lat="42.61979216368091" lon="2.811039390774175"><ele>101.0</ele><time>2026-04-08T11:35:53Z</time></trkpt><trkpt lat="42.619982853518955" lon="2.811060850466099"><ele>101.0</ele><time>2026-04-08T11:35:54Z</time></trkpt><trkpt lat="42.62017078271322" lon="2.8110810296531556"><ele>101.0</ele><time>2026-04-08T11:35:55Z</time></trkpt><trkpt lat="42.62035598740925" lon="2.8111094755198085"><ele>101.0</ele><time>2026-04-08T11:35:56Z</time></trkpt><trkpt lat="42.6205365721594" lon="2.8111452098418894"><ele>101.66666666666666</ele><time>2026-04-08T11:35:57Z</time></trkpt><trkpt lat="42.620721081467934" lon="2.811185030133963"><ele>102.33333333333334</ele><time>2026-04-08T11:35:58Z</time></trkpt><trkpt lat="42.620908266327895" lon="2.8112297547426794"><ele>103.0</ele><time>2026-04-08T11:35:59Z</time></trkpt><trkpt lat="42.62109898904248" lon="2.8112791854477317"><ele>101.66666666666667</ele><time>2026-04-08T11:36:00Z</time></trkpt><trkpt lat="42.62128903709326" lon="2.8113359101938786"><ele>100.33333333333334</ele><time>2026-04-08T11:36:01Z</time></trkpt><trkpt lat="42.621478644125496" lon="2.8114001312629364"><ele>99.0</ele><time>2026-04-08T11:36:02Z</time></trkpt><trkpt lat="42.621672465787" lon="2.811469419857678"><ele>99.0</ele><time>2026-04-08T11:36:03Z</time></trkpt><trkpt lat="42.621865977323075" lon="2.811541454397079"><ele>99.0</ele><time>2026-04-08T11:36:04Z</time></trkpt><trkpt lat="42.622058252408166" lon="2.811612643170918"><ele>99.0</ele><time>2026-04-08T11:36:05Z</time></trkpt><trkpt lat="42.62223523979694" lon="2.811678711381256"><ele>99.33333333333334</ele><time>2026-04-08T11:36:06Z</time></trkpt><trkpt lat="42.622398487322776" lon="2.811749370548538"><ele>99.66666666666667</ele><time>2026-04-08T11:36:07Z</time></trkpt><trkpt lat="42.622549013194046" lon="2.8118234023479336"><ele>100.0</ele><time>2026-04-08T11:36:08Z</time></trkpt><trkpt lat="42.62268807171307" lon="2.8119003458906464"><ele>99.5</ele><time>2026-04-08T11:36:09Z</time></trkpt><trkpt lat="42.622815132629164" lon="2.811980292677469"><ele>99.0</ele><time>2026-04-08T11:36:10Z</time></trkpt><trkpt lat="42.622930506655266" lon="2.81205785786348"><ele>98.5</ele><time>2026-04-08T11:36:11Z</time></trkpt><trkpt lat="42.62303658616773" lon="2.8121305773701764"><ele>98.0</ele><time>2026-04-08T11:36:12Z</time></trkpt><trkpt lat="42.623131107886245" lon="2.8121929920639666"><ele>97.99999999999999</ele><time>2026-04-08T11:36:13Z</time></trkpt><trkpt lat="42.623210951806" lon="2.8122446004046346"><ele>98.0</ele><time>2026-04-08T11:36:14Z</time></trkpt><trkpt lat="42.623267783211524" lon="2.812302499205814"><ele>98.0</ele><time>2026-04-08T11:36:15Z</time></trkpt><trkpt lat="42.623306875056834" lon="2.8123748646464923"><ele>98.0</ele><time>2026-04-08T11:36:16Z</time></trkpt><trkpt lat="42.62333468466477" lon="2.8124535917029116"><ele>97.99999999999999</ele><time>2026-04-08T11:36:17Z</time></trkpt><trkpt lat="42.6234392947298" lon="2.8125481377076254"><ele>98.0</ele><time>2026-04-08T11:36:19Z</time></trkpt><trkpt lat="42.62351655647738" lon="2.8125519165813486"><ele>97.99999999999999</ele><time>2026-04-08T11:36:20Z</time></trkpt><trkpt lat="42.62359770326374" lon="2.812548140954072"><ele>98.0</ele><time>2026-04-08T11:36:21Z</time></trkpt><trkpt lat="42.623681742287054" lon="2.8125633939209544"><ele>98.0</ele><time>2026-04-08T11:36:22Z</time></trkpt><trkpt lat="42.6237708143538" lon="2.812598282934272"><ele>98.0</ele><time>2026-04-08T11:36:23Z</time></trkpt><trkpt lat="42.623848200694084" lon="2.8126378891673993"><ele>97.99999999999999</ele><time>2026-04-08T11:36:24Z</time></trkpt><trkpt lat="42.623918980026865" lon="2.8126728117007005"><ele>98.0</ele><time>2026-04-08T11:36:25Z</time></trkpt><trkpt lat="42.62397864136206" lon="2.812701834503971"><ele>97.83333333333333</ele><time>2026-04-08T11:36:26Z</time></trkpt><trkpt lat="42.62404197035107" lon="2.812727207228363"><ele>97.66666666666666</ele><time>2026-04-08T11:36:27Z</time></trkpt><trkpt lat="42.62410738494743" lon="2.812752803486462"><ele>97.5</ele><time>2026-04-08T11:36:28Z</time></trkpt><trkpt lat="42.624181043848424" lon="2.812785734275877"><ele>97.33333333333334</ele><time>2026-04-08T11:36:29Z</time></trkpt><trkpt lat="42.62426474323639" lon="2.8128256229451387"><ele>97.16666666666667</ele><time>2026-04-08T11:36:30Z</time></trkpt><trkpt lat="42.62435285470981" lon="2.812868575970574"><ele>97.0</ele><time>2026-04-08T11:36:31Z</time></trkpt><trkpt lat="42.6244394563069" lon="2.8129207906358173"><ele>98.16666666666667</ele><time>2026-04-08T11:36:32Z</time></trkpt><trkpt lat="42.62451703822368" lon="2.812983270844127"><ele>99.33333333333334</ele><time>2026-04-08T11:36:33Z</time></trkpt><trkpt lat="42.624586834487395" lon="2.8130506835605114"><ele>100.5</ele><time>2026-04-08T11:36:34Z</time></trkpt><trkpt lat="42.62465604796623" lon="2.8131211589304743"><ele>101.66666666666666</ele><time>2026-04-08T11:36:35Z</time></trkpt><trkpt lat="42.62472522353229" lon="2.8132041982020075"><ele>102.83333333333333</ele><time>2026-04-08T11:36:36Z</time></trkpt><trkpt lat="42.62479251118324" lon="2.8132910616489344"><ele>104.0</ele><time>2026-04-08T11:36:37Z</time></trkpt><trkpt lat="42.624861780901355" lon="2.8133696970740827"><ele>103.99999999999999</ele><time>2026-04-08T11:36:38Z</time></trkpt><trkpt lat="42.62493758170932" lon="2.813442297524556"><ele>104.0</ele><time>2026-04-08T11:36:39Z</time></trkpt><trkpt lat="42.62500310392569" lon="2.8135140680646544"><ele>104.0</ele><time>2026-04-08T11:36:40Z</time></trkpt><trkpt lat="42.62507003945779" lon="2.8135860641234305"><ele>104.0</ele><time>2026-04-08T11:36:41Z</time></trkpt><trkpt lat="42.625129002264636" lon="2.8136466318739775"><ele>103.99999999999999</ele><time>2026-04-08T11:36:42Z</time></trkpt><trkpt lat="42.62519748684008" lon="2.8137122861894324"><ele>104.0</ele><time>2026-04-08T11:36:43Z</time></trkpt><trkpt lat="42.62528767769667" lon="2.8137668152884867"><ele>104.0</ele><time>2026-04-08T11:36:44Z</time></trkpt><trkpt lat="42.62541874048868" lon="2.8138070863236844"><ele>104.0</ele><time>2026-04-08T11:36:45Z</time></trkpt><trkpt lat="42.625538825357914" lon="2.813808213380352"><ele>104.0</ele><time>2026-04-08T11:36:46Z</time></trkpt><trkpt lat="42.62560904728925" lon="2.8138877038528745"><ele>104.0</ele><time>2026-04-08T11:36:49Z</time></trkpt><trkpt lat="42.625685583710485" lon="2.813906199848454"><ele>104.0</ele><time>2026-04-08T11:36:50Z</time></trkpt><trkpt lat="42.62578026099122" lon="2.8139434951650397"><ele>103.99999999999999</ele><time>2026-04-08T11:36:51Z</time></trkpt><trkpt lat="42.625871066730916" lon="2.813980860195252"><ele>104.0</ele><time>2026-04-08T11:36:52Z</time></trkpt><trkpt lat="42.62594980278104" lon="2.8140210060325006"><ele>104.0</ele><time>2026-04-08T11:36:53Z</time></trkpt><trkpt lat="42.626025924436455" lon="2.8140403032265193"><ele>104.0</ele><time>2026-04-08T11:36:54Z</time></trkpt><trkpt lat="42.62609726855388" lon="2.814071089183475"><ele>103.99999999999999</ele><time>2026-04-08T11:36:55Z</time></trkpt><trkpt lat="42.62616923312924" lon="2.8141066713605674"><ele>104.0</ele><time>2026-04-08T11:36:55.999Z</time></trkpt><trkpt lat="42.62625146659107" lon="2.8141411051308123"><ele>103.99999999999999</ele><time>2026-04-08T11:36:56.999Z</time></trkpt><trkpt lat="42.626325240900115" lon="2.8141829712005126"><ele>104.0</ele><time>2026-04-08T11:36:57.999Z</time></trkpt><trkpt lat="42.626389655864834" lon="2.8142171210022253"><ele>104.0</ele><time>2026-04-08T11:36:58.999Z</time></trkpt><trkpt lat="42.6264624022405" lon="2.8142439173191476"><ele>104.0</ele><time>2026-04-08T11:36:59.999Z</time></trkpt><trkpt lat="42.62652442262313" lon="2.8143119811468007"><ele>103.99999999999999</ele><time>2026-04-08T11:37:00.999Z</time></trkpt><trkpt lat="42.62659121070461" lon="2.8143709582761547"><ele>104.0</ele><time>2026-04-08T11:37:01.999Z</time></trkpt><trkpt lat="42.62666337245904" lon="2.8144305855260034"><ele>103.2</ele><time>2026-04-08T11:37:02.999Z</time></trkpt><trkpt lat="42.6267127770274" lon="2.814526474023151"><ele>102.4</ele><time>2026-04-08T11:37:03.999Z</time></trkpt><trkpt lat="42.626749873424934" lon="2.8146159629507275"><ele>101.6</ele><time>2026-04-08T11:37:04.999Z</time></trkpt><trkpt lat="42.62679235158358" lon="2.814740011603574"><ele>100.8</ele><time>2026-04-08T11:37:06.999Z</time></trkpt><trkpt lat="42.62687074315045" lon="2.8148672585532797"><ele>100.0</ele><time>2026-04-08T11:37:07.999Z</time></trkpt><trkpt lat="42.62690500482839" lon="2.814961129860655"><ele>100.00000000000001</ele><time>2026-04-08T11:37:08.999Z</time></trkpt><trkpt lat="42.6269429238463" lon="2.8150324726652207"><ele>100.0</ele><time>2026-04-08T11:37:09.999Z</time></trkpt><trkpt lat="42.626986248537946" lon="2.8151139851218363"><ele>100.0</ele><time>2026-04-08T11:37:10.999Z</time></trkpt><trkpt lat="42.62703023928783" lon="2.8151967205048036"><ele>100.0</ele><time>2026-04-08T11:37:11.999Z</time></trkpt><trkpt lat="42.62707570413453" lon="2.815282237139455"><ele>100.00000000000001</ele><time>2026-04-08T11:37:12.999Z</time></trkpt><trkpt lat="42.62712717449143" lon="2.815379049746597"><ele>100.0</ele><time>2026-04-08T11:37:13.999Z</time></trkpt><trkpt lat="42.62717418228539" lon="2.8154674675383102"><ele>99.66666666666667</ele><time>2026-04-08T11:37:14.999Z</time></trkpt><trkpt lat="42.62724035273038" lon="2.8155497915099708"><ele>99.33333333333334</ele><time>2026-04-08T11:37:15.999Z</time></trkpt><trkpt lat="42.627295236325004" lon="2.8156501635181916"><ele>99.0</ele><time>2026-04-08T11:37:16.999Z</time></trkpt><trkpt lat="42.62735119858581" lon="2.815742045622673"><ele>98.66666666666666</ele><time>2026-04-08T11:37:17.999Z</time></trkpt><trkpt lat="42.62740987978664" lon="2.815829392173769"><ele>98.33333333333333</ele><time>2026-04-08T11:37:18.999Z</time></trkpt><trkpt lat="42.627458894860254" lon="2.8159292591567304"><ele>98.0</ele><time>2026-04-08T11:37:19.999Z</time></trkpt><trkpt lat="42.62759669440866" lon="2.8160993470988105"><ele>97.4</ele><time>2026-04-08T11:37:21.999Z</time></trkpt><trkpt lat="42.627682336152525" lon="2.816163114103665"><ele>96.80000000000001</ele><time>2026-04-08T11:37:22.999Z</time></trkpt><trkpt lat="42.62777287975193" lon="2.8162672311740256"><ele>96.2</ele><time>2026-04-08T11:37:23.999Z</time></trkpt><trkpt lat="42.627837311445354" lon="2.816319185244557"><ele>95.6</ele><time>2026-04-08T11:37:24.999Z</time></trkpt><trkpt lat="42.62791112412777" lon="2.8163946058223712"><ele>95.0</ele><time>2026-04-08T11:37:25.999Z</time></trkpt><trkpt lat="42.62799928387419" lon="2.816456353483604"><ele>94.2</ele><time>2026-04-08T11:37:26.999Z</time></trkpt><trkpt lat="42.62808121216572" lon="2.8165216896820477"><ele>93.4</ele><time>2026-04-08T11:37:27.999Z</time></trkpt><trkpt lat="42.628169377435654" lon="2.816571279573318"><ele>92.6</ele><time>2026-04-08T11:37:28.999Z</time></trkpt><trkpt lat="42.62825639804361" lon="2.816613635770817"><ele>91.8</ele><time>2026-04-08T11:37:29.999Z</time></trkpt><trkpt lat="42.62834796654895" lon="2.8166556209483535"><ele>91.0</ele><time>2026-04-08T11:37:30.999Z</time></trkpt><trkpt lat="42.62844157606556" lon="2.8166936980061337"><ele>91.0</ele><time>2026-04-08T11:37:31.999Z</time></trkpt><trkpt lat="42.62853522398718" lon="2.8167258376634363"><ele>91.0</ele><time>2026-04-08T11:37:32.999Z</time></trkpt><trkpt lat="42.62862631777787" lon="2.81676711325529"><ele>91.0</ele><time>2026-04-08T11:37:33.999Z</time></trkpt><trkpt lat="42.628709748145575" lon="2.8168015353288776"><ele>91.0</ele><time>2026-04-08T11:37:34.999Z</time></trkpt><trkpt lat="42.62878383029521" lon="2.8168356934477554"><ele>91.0</ele><time>2026-04-08T11:37:35.999Z</time></trkpt><trkpt lat="42.62884543709538" lon="2.8168714001526536"><ele>91.0</ele><time>2026-04-08T11:37:36.999Z</time></trkpt><trkpt lat="42.62892491667082" lon="2.8169045194118647"><ele>89.66666666666666</ele><time>2026-04-08T11:37:37.999Z</time></trkpt><trkpt lat="42.62900401164517" lon="2.8169364438294373"><ele>88.33333333333333</ele><time>2026-04-08T11:37:38.999Z</time></trkpt><trkpt lat="42.62908270938918" lon="2.8169706109201123"><ele>87.0</ele><time>2026-04-08T11:37:39.999Z</time></trkpt><trkpt lat="42.62915696423645" lon="2.8170028080837626"><ele>85.66666666666667</ele><time>2026-04-08T11:37:40.999Z</time></trkpt><trkpt lat="42.62921871747517" lon="2.8170324996469156"><ele>84.33333333333334</ele><time>2026-04-08T11:37:41.999Z</time></trkpt><trkpt lat="42.629312575537746" lon="2.8171168207389474"><ele>83.0</ele><time>2026-04-08T11:37:43.999Z</time></trkpt><trkpt lat="42.62939326058829" lon="2.817221818839842"><ele>83.0</ele><time>2026-04-08T11:37:45.999Z</time></trkpt><trkpt lat="42.629463127896436" lon="2.8172269974877047"><ele>83.0</ele><time>2026-04-08T11:37:46.999Z</time></trkpt><trkpt lat="42.62954552903963" lon="2.8172087720456243"><ele>83.0</ele><time>2026-04-08T11:37:47.999Z</time></trkpt><trkpt lat="42.62963963741549" lon="2.817222935184096"><ele>83.0</ele><time>2026-04-08T11:37:48.999Z</time></trkpt><trkpt lat="42.629742273339325" lon="2.817268740993645"><ele>83.0</ele><time>2026-04-08T11:37:49.999Z</time></trkpt><trkpt lat="42.62984002067461" lon="2.8173209820010743"><ele>82.4</ele><time>2026-04-08T11:37:50.999Z</time></trkpt><trkpt lat="42.629938290256696" lon="2.8173649921562713"><ele>81.80000000000001</ele><time>2026-04-08T11:37:51.999Z</time></trkpt><trkpt lat="42.63003329188903" lon="2.817407389087069"><ele>81.2</ele><time>2026-04-08T11:37:52.999Z</time></trkpt><trkpt lat="42.630128809388296" lon="2.817445541692236"><ele>80.6</ele><time>2026-04-08T11:37:53.999Z</time></trkpt><trkpt lat="42.63022154674888" lon="2.817474913811391"><ele>80.0</ele><time>2026-04-08T11:37:55Z</time></trkpt><trkpt lat="42.63030795207884" lon="2.817491873642997"><ele>79.83333333333334</ele><time>2026-04-08T11:37:56Z</time></trkpt><trkpt lat="42.63038274333311" lon="2.817499759418327"><ele>79.66666666666667</ele><time>2026-04-08T11:37:57Z</time></trkpt><trkpt lat="42.630452041209296" lon="2.817525855396825"><ele>79.5</ele><time>2026-04-08T11:37:58Z</time></trkpt><trkpt lat="42.63052790635093" lon="2.817565317323885"><ele>79.33333333333333</ele><time>2026-04-08T11:37:59Z</time></trkpt><trkpt lat="42.63058692084038" lon="2.817629200913263"><ele>79.16666666666666</ele><time>2026-04-08T11:38:00Z</time></trkpt><trkpt lat="42.630649159940795" lon="2.8176766954286516"><ele>79.0</ele><time>2026-04-08T11:38:01Z</time></trkpt><trkpt lat="42.630732554778504" lon="2.817683615014493"><ele>78.5</ele><time>2026-04-08T11:38:02Z</time></trkpt><trkpt lat="42.63082393226326" lon="2.8176562314918687"><ele>78.0</ele><time>2026-04-08T11:38:03Z</time></trkpt><trkpt lat="42.630928624477164" lon="2.817688982987267"><ele>77.5</ele><time>2026-04-08T11:38:04Z</time></trkpt><trkpt lat="42.63105665394818" lon="2.8177172600921137"><ele>77.0</ele><time>2026-04-08T11:38:05Z</time></trkpt><trkpt lat="42.63120500841731" lon="2.817735096253894"><ele>77.0</ele><time>2026-04-08T11:38:06Z</time></trkpt><trkpt lat="42.631357712930914" lon="2.8177885012134447"><ele>77.0</ele><time>2026-04-08T11:38:07Z</time></trkpt><trkpt lat="42.63152339653422" lon="2.8178424651358296"><ele>77.0</ele><time>2026-04-08T11:38:08Z</time></trkpt><trkpt lat="42.63170161639129" lon="2.8178989392730096"><ele>77.0</ele><time>2026-04-08T11:38:09Z</time></trkpt><trkpt lat="42.63188911109962" lon="2.817953593394022"><ele>77.0</ele><time>2026-04-08T11:38:10Z</time></trkpt><trkpt lat="42.63207808188572" lon="2.818014071034976"><ele>77.0</ele><time>2026-04-08T11:38:11Z</time></trkpt><trkpt lat="42.6322714819974" lon="2.818065248230363"><ele>77.33333333333334</ele><time>2026-04-08T11:38:12Z</time></trkpt><trkpt lat="42.63247094865999" lon="2.8180960776626476"><ele>77.66666666666667</ele><time>2026-04-08T11:38:13Z</time></trkpt><trkpt lat="42.63267444026952" lon="2.8181105676896037"><ele>78.0</ele><time>2026-04-08T11:38:14Z</time></trkpt><trkpt lat="42.632876626111205" lon="2.8180991124677215"><ele>78.0</ele><time>2026-04-08T11:38:15Z</time></trkpt><trkpt lat="42.63307991391468" lon="2.818066350903539"><ele>78.0</ele><time>2026-04-08T11:38:16Z</time></trkpt><trkpt lat="42.63327922784164" lon="2.8180162768534127"><ele>78.0</ele><time>2026-04-08T11:38:17Z</time></trkpt><trkpt lat="42.63347343858293" lon="2.8179744501209534"><ele>78.33333333333333</ele><time>2026-04-08T11:38:18Z</time></trkpt><trkpt lat="42.63366471395732" lon="2.8179626347409767"><ele>78.66666666666666</ele><time>2026-04-08T11:38:19Z</time></trkpt><trkpt lat="42.63385223949257" lon="2.8180211664792503"><ele>79.0</ele><time>2026-04-08T11:38:20Z</time></trkpt><trkpt lat="42.634035191952584" lon="2.818103564282011"><ele>79.0</ele><time>2026-04-08T11:38:21Z</time></trkpt><trkpt lat="42.63422184279604" lon="2.8182084947528385"><ele>79.0</ele><time>2026-04-08T11:38:22Z</time></trkpt><trkpt lat="42.634412772752675" lon="2.818297415755038"><ele>79.0</ele><time>2026-04-08T11:38:23Z</time></trkpt><trkpt lat="42.63459172290359" lon="2.818403311712106"><ele>79.33333333333333</ele><time>2026-04-08T11:38:24Z</time></trkpt><trkpt lat="42.634781583568994" lon="2.8185055691923058"><ele>79.66666666666667</ele><time>2026-04-08T11:38:25Z</time></trkpt><trkpt lat="42.63497920126499" lon="2.81857505938159"><ele>80.0</ele><time>2026-04-08T11:38:26Z</time></trkpt><trkpt lat="42.63518027361063" lon="2.8186335745077393"><ele>81.33333333333334</ele><time>2026-04-08T11:38:27Z</time></trkpt><trkpt lat="42.63538867888386" lon="2.8186860941288576"><ele>82.66666666666667</ele><time>2026-04-08T11:38:28Z</time></trkpt><trkpt lat="42.635597261885046" lon="2.8187364743660916"><ele>84.0</ele><time>2026-04-08T11:38:29Z</time></trkpt><trkpt lat="42.63579970780374" lon="2.8187938697321617"><ele>84.0</ele><time>2026-04-08T11:38:30Z</time></trkpt><trkpt lat="42.63600503006053" lon="2.8188466826993848"><ele>84.0</ele><time>2026-04-08T11:38:31Z</time></trkpt><trkpt lat="42.63620890995171" lon="2.818896671069192"><ele>84.0</ele><time>2026-04-08T11:38:32Z</time></trkpt><trkpt lat="42.63641294022187" lon="2.8189488638233575"><ele>83.66666666666667</ele><time>2026-04-08T11:38:33Z</time></trkpt><trkpt lat="42.6366127839574" lon="2.81901734770934"><ele>83.33333333333334</ele><time>2026-04-08T11:38:34Z</time></trkpt><trkpt lat="42.636809499939496" lon="2.81909338115595"><ele>83.0</ele><time>2026-04-08T11:38:35Z</time></trkpt><trkpt lat="42.63700590239724" lon="2.8191759032658203"><ele>82.66666666666667</ele><time>2026-04-08T11:38:36Z</time></trkpt><trkpt lat="42.63720254055743" lon="2.8192679877528706"><ele>82.33333333333333</ele><time>2026-04-08T11:38:37Z</time></trkpt><trkpt lat="42.6373907016746" lon="2.819371694379838"><ele>82.0</ele><time>2026-04-08T11:38:38Z</time></trkpt><trkpt lat="42.63757455174651" lon="2.8194843962688925"><ele>82.0</ele><time>2026-04-08T11:38:39Z</time></trkpt><trkpt lat="42.637752778530505" lon="2.8196072949720907"><ele>82.0</ele><time>2026-04-08T11:38:40Z</time></trkpt><trkpt lat="42.63792768822432" lon="2.8197418001237375"><ele>82.0</ele><time>2026-04-08T11:38:41Z</time></trkpt><trkpt lat="42.63810498647312" lon="2.8198874399635856"><ele>81.33333333333333</ele><time>2026-04-08T11:38:42Z</time></trkpt><trkpt lat="42.63827683067917" lon="2.820053318719668"><ele>80.66666666666667</ele><time>2026-04-08T11:38:43Z</time></trkpt><trkpt lat="42.638444327496984" lon="2.820238577362059"><ele>80.0</ele><time>2026-04-08T11:38:44Z</time></trkpt><trkpt lat="42.63860491377189" lon="2.8204384819300774"><ele>79.33333333333334</ele><time>2026-04-08T11:38:45Z</time></trkpt><trkpt lat="42.63875837225039" lon="2.820642268208409"><ele>78.66666666666667</ele><time>2026-04-08T11:38:46Z</time></trkpt><trkpt lat="42.63890932209086" lon="2.8208442235088733"><ele>78.0</ele><time>2026-04-08T11:38:47Z</time></trkpt><trkpt lat="42.6390572241861" lon="2.8210411050069233"><ele>77.66666666666667</ele><time>2026-04-08T11:38:48Z</time></trkpt><trkpt lat="42.639206621092576" lon="2.821232101313939"><ele>77.33333333333334</ele><time>2026-04-08T11:38:49Z</time></trkpt><trkpt lat="42.639356532511385" lon="2.8214168972664035"><ele>77.0</ele><time>2026-04-08T11:38:50Z</time></trkpt><trkpt lat="42.63950799556398" lon="2.821589863159661"><ele>77.33333333333334</ele><time>2026-04-08T11:38:51Z</time></trkpt><trkpt lat="42.63966447508466" lon="2.821752689146152"><ele>77.66666666666667</ele><time>2026-04-08T11:38:52Z</time></trkpt><trkpt lat="42.63982446405818" lon="2.821906954594833"><ele>78.0</ele><time>2026-04-08T11:38:53Z</time></trkpt><trkpt lat="42.63998295783343" lon="2.8220521832981613"><ele>78.0</ele><time>2026-04-08T11:38:54Z</time></trkpt><trkpt lat="42.64014276293773" lon="2.8222002422089005"><ele>78.0</ele><time>2026-04-08T11:38:55Z</time></trkpt><trkpt lat="42.64029992043727" lon="2.822352025664798"><ele>78.0</ele><time>2026-04-08T11:38:56Z</time></trkpt><trkpt lat="42.640454692029046" lon="2.8225029212452384"><ele>78.0</ele><time>2026-04-08T11:38:56.999Z</time></trkpt><trkpt lat="42.640598945707275" lon="2.822624303049843"><ele>78.0</ele><time>2026-04-08T11:38:57.999Z</time></trkpt><trkpt lat="42.64076882710332" lon="2.8227985122406163"><ele>78.0</ele><time>2026-04-08T11:38:58.999Z</time></trkpt><trkpt lat="42.640931410340954" lon="2.8229564363034108"><ele>78.0</ele><time>2026-04-08T11:38:59.999Z</time></trkpt><trkpt lat="42.64110274309117" lon="2.8231070705636343"><ele>78.0</ele><time>2026-04-08T11:39:00.999Z</time></trkpt><trkpt lat="42.64128137905494" lon="2.8232489820469486"><ele>78.0</ele><time>2026-04-08T11:39:01.999Z</time></trkpt><trkpt lat="42.64146399754533" lon="2.8233828877548834"><ele>78.0</ele><time>2026-04-08T11:39:02.999Z</time></trkpt><trkpt lat="42.6416561028435" lon="2.823498306081353"><ele>78.0</ele><time>2026-04-08T11:39:03.999Z</time></trkpt><trkpt lat="42.64185253629984" lon="2.8236015686359064"><ele>78.0</ele><time>2026-04-08T11:39:04.999Z</time></trkpt><trkpt lat="42.6420496017039" lon="2.823696631004104"><ele>77.66666666666667</ele><time>2026-04-08T11:39:05.999Z</time></trkpt><trkpt lat="42.64225268227558" lon="2.8237822863436834"><ele>77.33333333333334</ele><time>2026-04-08T11:39:06.999Z</time></trkpt><trkpt lat="42.642450862872494" lon="2.823859590706748"><ele>77.0</ele><time>2026-04-08T11:39:07.999Z</time></trkpt><trkpt lat="42.64264798936501" lon="2.8239291262704618"><ele>77.0</ele><time>2026-04-08T11:39:08.999Z</time></trkpt><trkpt lat="42.642844272146625" lon="2.8240017175307286"><ele>77.0</ele><time>2026-04-08T11:39:09.999Z</time></trkpt><trkpt lat="42.64303519473751" lon="2.8240866333443924"><ele>77.0</ele><time>2026-04-08T11:39:10.999Z</time></trkpt><trkpt lat="42.64322215606765" lon="2.8241801374402966"><ele>77.0</ele><time>2026-04-08T11:39:11.999Z</time></trkpt><trkpt lat="42.6434001025121" lon="2.824279747221173"><ele>77.0</ele><time>2026-04-08T11:39:12.999Z</time></trkpt><trkpt lat="42.643572001235384" lon="2.824374892187361"><ele>77.0</ele><time>2026-04-08T11:39:13.999Z</time></trkpt><trkpt lat="42.64373326049251" lon="2.824463894775942"><ele>77.33333333333334</ele><time>2026-04-08T11:39:14.999Z</time></trkpt><trkpt lat="42.64388136731825" lon="2.8245495082348957"><ele>77.66666666666667</ele><time>2026-04-08T11:39:15.999Z</time></trkpt><trkpt lat="42.64402289901655" lon="2.824630003079491"><ele>78.0</ele><time>2026-04-08T11:39:16.999Z</time></trkpt><trkpt lat="42.64415636826958" lon="2.8247009544510915"><ele>78.0</ele><time>2026-04-08T11:39:17.999Z</time></trkpt><trkpt lat="42.644276417069" lon="2.8247656419477076"><ele>78.0</ele><time>2026-04-08T11:39:18.999Z</time></trkpt><trkpt lat="42.64437693552876" lon="2.824825205677276"><ele>78.0</ele><time>2026-04-08T11:39:19.999Z</time></trkpt><trkpt lat="42.64448008104995" lon="2.824884995334423"><ele>78.0</ele><time>2026-04-08T11:39:20.999Z</time></trkpt><trkpt lat="42.6445919566181" lon="2.8249377775254194"><ele>78.0</ele><time>2026-04-08T11:39:21.999Z</time></trkpt><trkpt lat="42.644697853280356" lon="2.8250020556076283"><ele>78.0</ele><time>2026-04-08T11:39:22.999Z</time></trkpt><trkpt lat="42.64483259133039" lon="2.825115490166289"><ele>78.0</ele><time>2026-04-08T11:39:24.999Z</time></trkpt><trkpt lat="42.6449289159585" lon="2.8251907389761755"><ele>78.0</ele><time>2026-04-08T11:39:25.999Z</time></trkpt><trkpt lat="42.64504429435943" lon="2.825278553125393"><ele>78.0</ele><time>2026-04-08T11:39:26.999Z</time></trkpt><trkpt lat="42.645163263688005" lon="2.8253693580018746"><ele>78.0</ele><time>2026-04-08T11:39:27.999Z</time></trkpt><trkpt lat="42.645276292914694" lon="2.8254530389525443"><ele>78.0</ele><time>2026-04-08T11:39:28.999Z</time></trkpt><trkpt lat="42.64538744146565" lon="2.825528521452274"><ele>78.0</ele><time>2026-04-08T11:39:29.999Z</time></trkpt><trkpt lat="42.64549820749853" lon="2.825608538806088"><ele>78.0</ele><time>2026-04-08T11:39:30.999Z</time></trkpt><trkpt lat="42.645606404759874" lon="2.8256956434784763"><ele>78.0</ele><time>2026-04-08T11:39:31.999Z</time></trkpt><trkpt lat="42.645715933852124" lon="2.8257769048655996"><ele>78.0</ele><time>2026-04-08T11:39:32.999Z</time></trkpt><trkpt lat="42.64582603101318" lon="2.82585448988844"><ele>78.0</ele><time>2026-04-08T11:39:33.999Z</time></trkpt><trkpt lat="42.64593345623737" lon="2.825926412096759"><ele>78.0</ele><time>2026-04-08T11:39:34.999Z</time></trkpt><trkpt lat="42.646039407249695" lon="2.825995262039133"><ele>78.0</ele><time>2026-04-08T11:39:35.999Z</time></trkpt><trkpt lat="42.646142155474664" lon="2.8260564867089877"><ele>78.0</ele><time>2026-04-08T11:39:36.999Z</time></trkpt><trkpt lat="42.64624162499044" lon="2.82611680454238"><ele>78.0</ele><time>2026-04-08T11:39:37.999Z</time></trkpt><trkpt lat="42.64632556978738" lon="2.8261625837684194"><ele>78.0</ele><time>2026-04-08T11:39:38.999Z</time></trkpt><trkpt lat="42.64639668986174" lon="2.8261994259354877"><ele>78.0</ele><time>2026-04-08T11:39:39.999Z</time></trkpt><trkpt lat="42.64646113849312" lon="2.8262299911909627"><ele>78.0</ele><time>2026-04-08T11:39:40.999Z</time></trkpt><trkpt lat="42.64654847599826" lon="2.8262737552602997"><ele>78.0</ele><time>2026-04-08T11:39:41.999Z</time></trkpt><trkpt lat="42.64664469376193" lon="2.8263226271403328"><ele>78.0</ele><time>2026-04-08T11:39:42.999Z</time></trkpt><trkpt lat="42.64675506786182" lon="2.826362919001662"><ele>78.0</ele><time>2026-04-08T11:39:43.999Z</time></trkpt><trkpt lat="42.646850534599004" lon="2.826387634628739"><ele>78.0</ele><time>2026-04-08T11:39:44.999Z</time></trkpt><trkpt lat="42.646941219200464" lon="2.8263956482577433"><ele>78.0</ele><time>2026-04-08T11:39:45.999Z</time></trkpt><trkpt lat="42.64707619437278" lon="2.826411995734694"><ele>78.0</ele><time>2026-04-08T11:39:46.999Z</time></trkpt><trkpt lat="42.64720570070035" lon="2.8264324078851453"><ele>78.0</ele><time>2026-04-08T11:39:47.999Z</time></trkpt><trkpt lat="42.647326505355664" lon="2.8264694946407256"><ele>78.75</ele><time>2026-04-08T11:39:48.999Z</time></trkpt><trkpt lat="42.647441240846156" lon="2.826511394688838"><ele>79.5</ele><time>2026-04-08T11:39:49.999Z</time></trkpt><trkpt lat="42.64755381646691" lon="2.8265699200214582"><ele>80.25</ele><time>2026-04-08T11:39:50.999Z</time></trkpt><trkpt lat="42.647673181931076" lon="2.826642300833886"><ele>81.0</ele><time>2026-04-08T11:39:51.999Z</time></trkpt><trkpt lat="42.64778922856663" lon="2.826713212721322"><ele>80.25</ele><time>2026-04-08T11:39:52.999Z</time></trkpt><trkpt lat="42.647905446601015" lon="2.8267749867142533"><ele>79.5</ele><time>2026-04-08T11:39:53.999Z</time></trkpt><trkpt lat="42.6480268146899" lon="2.826844517810757"><ele>78.75</ele><time>2026-04-08T11:39:54.999Z</time></trkpt><trkpt lat="42.648132292577046" lon="2.8269162674885604"><ele>78.0</ele><time>2026-04-08T11:39:55.999Z</time></trkpt><trkpt lat="42.64825331489444" lon="2.826976413502385"><ele>76.5</ele><time>2026-04-08T11:39:56.999Z</time></trkpt><trkpt lat="42.648370290477175" lon="2.8270422492922407"><ele>75.0</ele><time>2026-04-08T11:39:57.999Z</time></trkpt><trkpt lat="42.6484828884581" lon="2.8271160577663212"><ele>73.5</ele><time>2026-04-08T11:39:58.999Z</time></trkpt><trkpt lat="42.64859606927201" lon="2.827179309997469"><ele>72.0</ele><time>2026-04-08T11:39:59.999Z</time></trkpt><trkpt lat="42.64870566167785" lon="2.827234103022145"><ele>71.8</ele><time>2026-04-08T11:40:01Z</time></trkpt><trkpt lat="42.648803960576004" lon="2.827297301625244"><ele>71.6</ele><time>2026-04-08T11:40:02Z</time></trkpt><trkpt lat="42.648895830144035" lon="2.8273788652044276"><ele>71.39999999999999</ele><time>2026-04-08T11:40:03Z</time></trkpt><trkpt lat="42.64897506613495" lon="2.8274762284700876"><ele>71.2</ele><time>2026-04-08T11:40:04Z</time></trkpt><trkpt lat="42.649020279484375" lon="2.827572053741781"><ele>71.0</ele><time>2026-04-08T11:40:05Z</time></trkpt><trkpt lat="42.649057176203996" lon="2.8276700005894466"><ele>70.39999999999999</ele><time>2026-04-08T11:40:06Z</time></trkpt><trkpt lat="42.64908098854983" lon="2.8277708027267163"><ele>69.8</ele><time>2026-04-08T11:40:07Z</time></trkpt><trkpt lat="42.649090989003795" lon="2.827863028754499"><ele>69.19999999999999</ele><time>2026-04-08T11:40:08Z</time></trkpt><trkpt lat="42.64912717771071" lon="2.828006662608283"><ele>68.6</ele><time>2026-04-08T11:40:10Z</time></trkpt><trkpt lat="42.64925617067647" lon="2.828018889467517"><ele>68.0</ele><time>2026-04-08T11:40:12Z</time></trkpt><trkpt lat="42.64932336307651" lon="2.827981876426062"><ele>68.0</ele><time>2026-04-08T11:40:13Z</time></trkpt><trkpt lat="42.64939675114369" lon="2.8279760230262063"><ele>68.0</ele><time>2026-04-08T11:40:14Z</time></trkpt><trkpt lat="42.649474042539644" lon="2.8280260492526983"><ele>68.0</ele><time>2026-04-08T11:40:15Z</time></trkpt><trkpt lat="42.649525156443495" lon="2.8281210894833007"><ele>68.0</ele><time>2026-04-08T11:40:16Z</time></trkpt><trkpt lat="42.64961835703884" lon="2.8282275805772787"><ele>68.0</ele><time>2026-04-08T11:40:17Z</time></trkpt><trkpt lat="42.649691958122126" lon="2.828336543448937"><ele>68.25</ele><time>2026-04-08T11:40:18Z</time></trkpt><trkpt lat="42.64978272321887" lon="2.828453978174871"><ele>68.5</ele><time>2026-04-08T11:40:19Z</time></trkpt><trkpt lat="42.649870787932606" lon="2.8285627418855728"><ele>68.75</ele><time>2026-04-08T11:40:20Z</time></trkpt><trkpt lat="42.64995743357022" lon="2.8286738137420793"><ele>69.0</ele><time>2026-04-08T11:40:21Z</time></trkpt><trkpt lat="42.65004404174549" lon="2.828791215851503"><ele>69.0</ele><time>2026-04-08T11:40:22Z</time></trkpt><trkpt lat="42.650130682153566" lon="2.828907112140688"><ele>69.0</ele><time>2026-04-08T11:40:23Z</time></trkpt><trkpt lat="42.65021580417384" lon="2.8290182766280902"><ele>69.0</ele><time>2026-04-08T11:40:24Z</time></trkpt><trkpt lat="42.650297662749615" lon="2.829130326882582"><ele>69.0</ele><time>2026-04-08T11:40:25Z</time></trkpt><trkpt lat="42.65037662280359" lon="2.8292342644589445"><ele>68.75</ele><time>2026-04-08T11:40:26Z</time></trkpt><trkpt lat="42.65045283676995" lon="2.8293325367306954"><ele>68.5</ele><time>2026-04-08T11:40:27Z</time></trkpt><trkpt lat="42.65055319503011" lon="2.829472349033239"><ele>68.25</ele><time>2026-04-08T11:40:28Z</time></trkpt><trkpt lat="42.65063192220671" lon="2.8295952898986223"><ele>68.0</ele><time>2026-04-08T11:40:29Z</time></trkpt><trkpt lat="42.650767971597304" lon="2.8297350720521877"><ele>68.0</ele><time>2026-04-08T11:40:31Z</time></trkpt><trkpt lat="42.650846580364956" lon="2.8298379250456525"><ele>68.0</ele><time>2026-04-08T11:40:32Z</time></trkpt><trkpt lat="42.65091583268313" lon="2.829920973886627"><ele>68.0</ele><time>2026-04-08T11:40:33Z</time></trkpt><trkpt lat="42.651047079638616" lon="2.8300483108463896"><ele>68.0</ele><time>2026-04-08T11:40:35Z</time></trkpt><trkpt lat="42.65114864903499" lon="2.830206846196598"><ele>68.6</ele><time>2026-04-08T11:40:36Z</time></trkpt><trkpt lat="42.651216891719464" lon="2.830297217661467"><ele>69.19999999999999</ele><time>2026-04-08T11:40:37Z</time></trkpt><trkpt lat="42.65129019347236" lon="2.830386356030928"><ele>69.8</ele><time>2026-04-08T11:40:38Z</time></trkpt><trkpt lat="42.65136227770431" lon="2.8304684591516325"><ele>70.39999999999999</ele><time>2026-04-08T11:40:39Z</time></trkpt><trkpt lat="42.65143914160438" lon="2.8305419964010436"><ele>71.0</ele><time>2026-04-08T11:40:40Z</time></trkpt><trkpt lat="42.6515170160169" lon="2.8306000638454045"><ele>71.0</ele><time>2026-04-08T11:40:41Z</time></trkpt><trkpt lat="42.6516079714926" lon="2.8306418598362426"><ele>71.0</ele><time>2026-04-08T11:40:42Z</time></trkpt><trkpt lat="42.651698875493885" lon="2.8306847543513993"><ele>71.0</ele><time>2026-04-08T11:40:43Z</time></trkpt><trkpt lat="42.6517899117858" lon="2.8307388569201586"><ele>71.0</ele><time>2026-04-08T11:40:44Z</time></trkpt><trkpt lat="42.65187078013242" lon="2.8307932640606936"><ele>71.0</ele><time>2026-04-08T11:40:45Z</time></trkpt><trkpt lat="42.65196017729543" lon="2.8308449435937506"><ele>70.8</ele><time>2026-04-08T11:40:46Z</time></trkpt><trkpt lat="42.652046999984734" lon="2.8308977529612704"><ele>70.6</ele><time>2026-04-08T11:40:47Z</time></trkpt><trkpt lat="42.65214252866488" lon="2.830953782442528"><ele>70.4</ele><time>2026-04-08T11:40:48Z</time></trkpt><trkpt lat="42.65222896234767" lon="2.8310092369393263"><ele>70.2</ele><time>2026-04-08T11:40:49Z</time></trkpt><trkpt lat="42.65231044411811" lon="2.831082095695437"><ele>70.0</ele><time>2026-04-08T11:40:50Z</time></trkpt><trkpt lat="42.65238415070236" lon="2.831172598829368"><ele>70.0</ele><time>2026-04-08T11:40:51Z</time></trkpt><trkpt lat="42.65244500148848" lon="2.8312886509916404"><ele>70.0</ele><time>2026-04-08T11:40:52Z</time></trkpt><trkpt lat="42.652502903670346" lon="2.8314096337316363"><ele>70.0</ele><time>2026-04-08T11:40:53Z</time></trkpt><trkpt lat="42.652581263787354" lon="2.8315108862800074"><ele>70.0</ele><time>2026-04-08T11:40:54Z</time></trkpt><trkpt lat="42.65267031597527" lon="2.8315883914081446"><ele>70.0</ele><time>2026-04-08T11:40:54.999Z</time></trkpt><trkpt lat="42.65276582219166" lon="2.8316558759549793"><ele>69.6</ele><time>2026-04-08T11:40:55.999Z</time></trkpt><trkpt lat="42.65286539287862" lon="2.83171246620739"><ele>69.2</ele><time>2026-04-08T11:40:56.999Z</time></trkpt><trkpt lat="42.652978372015546" lon="2.831763500592045"><ele>68.8</ele><time>2026-04-08T11:40:57.999Z</time></trkpt><trkpt lat="42.653079847908224" lon="2.831821781404727"><ele>68.4</ele><time>2026-04-08T11:40:58.999Z</time></trkpt><trkpt lat="42.65316687536236" lon="2.8318794747594764"><ele>68.0</ele><time>2026-04-08T11:40:59.999Z</time></trkpt><trkpt lat="42.653255548023644" lon="2.8319291291440614"><ele>68.0</ele><time>2026-04-08T11:41:00.999Z</time></trkpt><trkpt lat="42.65333233212978" lon="2.8319722738613486"><ele>68.0</ele><time>2026-04-08T11:41:01.999Z</time></trkpt><trkpt lat="42.65341177788908" lon="2.83201404768921"><ele>68.0</ele><time>2026-04-08T11:41:02.999Z</time></trkpt><trkpt lat="42.65348797300635" lon="2.8320562064553383"><ele>68.0</ele><time>2026-04-08T11:41:03.999Z</time></trkpt><trkpt lat="42.65355730247511" lon="2.832093850633332"><ele>68.0</ele><time>2026-04-08T11:41:04.999Z</time></trkpt><trkpt lat="42.65361741505771" lon="2.8321268860145676"><ele>68.0</ele><time>2026-04-08T11:41:05.999Z</time></trkpt><trkpt lat="42.653678059920615" lon="2.8321575292336956"><ele>67.99999999999999</ele><time>2026-04-08T11:41:06.999Z</time></trkpt><trkpt lat="42.65374003237517" lon="2.832191294085343"><ele>68.0</ele><time>2026-04-08T11:41:07.999Z</time></trkpt><trkpt lat="42.65380866602211" lon="2.832226643738833"><ele>68.0</ele><time>2026-04-08T11:41:08.999Z</time></trkpt><trkpt lat="42.653879068541656" lon="2.8322676765330015"><ele>68.0</ele><time>2026-04-08T11:41:09.999Z</time></trkpt><trkpt lat="42.653943203859875" lon="2.832302595422809"><ele>68.0</ele><time>2026-04-08T11:41:10.999Z</time></trkpt><trkpt lat="42.65400597223552" lon="2.832339375906713"><ele>67.99999999999999</ele><time>2026-04-08T11:41:11.999Z</time></trkpt><trkpt lat="42.65407695210254" lon="2.832385975578459"><ele>68.0</ele><time>2026-04-08T11:41:12.999Z</time></trkpt><trkpt lat="42.65414994964935" lon="2.8324303781488216"><ele>68.0</ele><time>2026-04-08T11:41:13.999Z</time></trkpt><trkpt lat="42.654225131932876" lon="2.8324753213293388"><ele>68.0</ele><time>2026-04-08T11:41:14.999Z</time></trkpt><trkpt lat="42.654294509761236" lon="2.83251809135714"><ele>68.0</ele><time>2026-04-08T11:41:15.999Z</time></trkpt><trkpt lat="42.65436863547207" lon="2.832561551758414"><ele>68.0</ele><time>2026-04-08T11:41:16.999Z</time></trkpt><trkpt lat="42.65444354736561" lon="2.8326107091212114"><ele>68.0</ele><time>2026-04-08T11:41:17.999Z</time></trkpt><trkpt lat="42.65451844158837" lon="2.8326584218927726"><ele>68.0</ele><time>2026-04-08T11:41:18.999Z</time></trkpt><trkpt lat="42.65459941166645" lon="2.8327164877277355"><ele>67.4</ele><time>2026-04-08T11:41:19.999Z</time></trkpt><trkpt lat="42.65468986798105" lon="2.832780262112151"><ele>66.8</ele><time>2026-04-08T11:41:20.999Z</time></trkpt><trkpt lat="42.65479516178377" lon="2.8328636397366207"><ele>66.2</ele><time>2026-04-08T11:41:21.999Z</time></trkpt><trkpt lat="42.65489737685585" lon="2.832934997206101"><ele>65.6</ele><time>2026-04-08T11:41:22.999Z</time></trkpt><trkpt lat="42.65499185623882" lon="2.8329946178275547"><ele>65.0</ele><time>2026-04-08T11:41:23.999Z</time></trkpt><trkpt lat="42.65509221756732" lon="2.8330552357888936"><ele>65.0</ele><time>2026-04-08T11:41:24.999Z</time></trkpt><trkpt lat="42.65519219562672" lon="2.8331195260249022"><ele>65.0</ele><time>2026-04-08T11:41:25.999Z</time></trkpt><trkpt lat="42.655299257203744" lon="2.8331872541547964"><ele>65.0</ele><time>2026-04-08T11:41:26.999Z</time></trkpt><trkpt lat="42.65541235435668" lon="2.8332549072760744"><ele>65.0</ele><time>2026-04-08T11:41:27.999Z</time></trkpt><trkpt lat="42.6555268515452" lon="2.8333204088826363"><ele>65.0</ele><time>2026-04-08T11:41:28.999Z</time></trkpt><trkpt lat="42.65563947830144" lon="2.833391364050116"><ele>65.0</ele><time>2026-04-08T11:41:29.999Z</time></trkpt><trkpt lat="42.65575167956025" lon="2.833460359802241"><ele>65.0</ele><time>2026-04-08T11:41:30.999Z</time></trkpt><trkpt lat="42.655867248752266" lon="2.833525594448423"><ele>65.0</ele><time>2026-04-08T11:41:31.999Z</time></trkpt><trkpt lat="42.65598182713222" lon="2.8335847035588175"><ele>65.0</ele><time>2026-04-08T11:41:32.999Z</time></trkpt><trkpt lat="42.656096130800364" lon="2.833644325416547"><ele>65.0</ele><time>2026-04-08T11:41:33.999Z</time></trkpt><trkpt lat="42.656209887225295" lon="2.8337126369168564"><ele>65.0</ele><time>2026-04-08T11:41:34.999Z</time></trkpt><trkpt lat="42.65631943545945" lon="2.8337807245115383"><ele>65.0</ele><time>2026-04-08T11:41:35.999Z</time></trkpt><trkpt lat="42.65642623501939" lon="2.8338589374325434"><ele>65.0</ele><time>2026-04-08T11:41:36.999Z</time></trkpt><trkpt lat="42.65653396578438" lon="2.8339377484165618"><ele>65.0</ele><time>2026-04-08T11:41:37.999Z</time></trkpt><trkpt lat="42.656635653061876" lon="2.834017175968048"><ele>65.0</ele><time>2026-04-08T11:41:38.999Z</time></trkpt><trkpt lat="42.65673975768906" lon="2.834098652440577"><ele>65.0</ele><time>2026-04-08T11:41:39.999Z</time></trkpt><trkpt lat="42.6568406426935" lon="2.83417167168988"><ele>65.0</ele><time>2026-04-08T11:41:40.999Z</time></trkpt><trkpt lat="42.65694087208709" lon="2.8342385829062122"><ele>65.0</ele><time>2026-04-08T11:41:41.999Z</time></trkpt><trkpt lat="42.65703197153627" lon="2.8342942085188287"><ele>65.0</ele><time>2026-04-08T11:41:42.999Z</time></trkpt><trkpt lat="42.657117680612906" lon="2.8343505082422467"><ele>65.0</ele><time>2026-04-08T11:41:43.999Z</time></trkpt><trkpt lat="42.65719959021074" lon="2.8344184943010764"><ele>65.0</ele><time>2026-04-08T11:41:44.999Z</time></trkpt><trkpt lat="42.657274158856715" lon="2.834489789030948"><ele>65.0</ele><time>2026-04-08T11:41:45.999Z</time></trkpt><trkpt lat="42.65733507223618" lon="2.83455854203897"><ele>65.0</ele><time>2026-04-08T11:41:46.999Z</time></trkpt><trkpt lat="42.65737378435714" lon="2.8346319011089287"><ele>65.0</ele><time>2026-04-08T11:41:47.999Z</time></trkpt><trkpt lat="42.6574077352029" lon="2.8347727284877604"><ele>65.0</ele><time>2026-04-08T11:41:49.999Z</time></trkpt><trkpt lat="42.65752616476449" lon="2.8347915767003267"><ele>65.0</ele><time>2026-04-08T11:41:51.999Z</time></trkpt><trkpt lat="42.657585151121424" lon="2.8347420218657575"><ele>65.0</ele><time>2026-04-08T11:41:52.999Z</time></trkpt><trkpt lat="42.657640070475324" lon="2.8346842573279876"><ele>65.0</ele><time>2026-04-08T11:41:53.999Z</time></trkpt><trkpt lat="42.657721248382025" lon="2.834652010601731"><ele>65.0</ele><time>2026-04-08T11:41:54.999Z</time></trkpt><trkpt lat="42.65782588548552" lon="2.8346460438409493"><ele>65.0</ele><time>2026-04-08T11:41:55.999Z</time></trkpt><trkpt lat="42.65792919082194" lon="2.834641632962748"><ele>65.0</ele><time>2026-04-08T11:41:56.999Z</time></trkpt><trkpt lat="42.65802524051324" lon="2.8346269441210317"><ele>65.0</ele><time>2026-04-08T11:41:57.999Z</time></trkpt><trkpt lat="42.6581076818054" lon="2.8346140751499367"><ele>65.16666666666667</ele><time>2026-04-08T11:41:58.999Z</time></trkpt><trkpt lat="42.658184625260304" lon="2.8346148013625285"><ele>65.33333333333334</ele><time>2026-04-08T11:41:59.999Z</time></trkpt><trkpt lat="42.658262309049235" lon="2.8346245037804585"><ele>65.5</ele><time>2026-04-08T11:42:00.999Z</time></trkpt><trkpt lat="42.658349187228445" lon="2.834640568136439"><ele>65.66666666666667</ele><time>2026-04-08T11:42:01.999Z</time></trkpt><trkpt lat="42.65843478351187" lon="2.8346633524506832"><ele>65.83333333333333</ele><time>2026-04-08T11:42:02.999Z</time></trkpt><trkpt lat="42.658525163010566" lon="2.8346799181661417"><ele>66.0</ele><time>2026-04-08T11:42:03.999Z</time></trkpt><trkpt lat="42.65862588220265" lon="2.834694871047517"><ele>65.5</ele><time>2026-04-08T11:42:04.999Z</time></trkpt><trkpt lat="42.658745893340416" lon="2.834712954936775"><ele>65.0</ele><time>2026-04-08T11:42:05.999Z</time></trkpt><trkpt lat="42.65887382292779" lon="2.8347241731768715"><ele>64.5</ele><time>2026-04-08T11:42:07Z</time></trkpt><trkpt lat="42.659006925328164" lon="2.8347210148058606"><ele>64.0</ele><time>2026-04-08T11:42:08Z</time></trkpt><trkpt lat="42.659138510495346" lon="2.8347063764934486"><ele>64.0</ele><time>2026-04-08T11:42:09Z</time></trkpt><trkpt lat="42.65926633180376" lon="2.834680002610179"><ele>64.0</ele><time>2026-04-08T11:42:10Z</time></trkpt><trkpt lat="42.659392953398175" lon="2.8346411478209697"><ele>64.0</ele><time>2026-04-08T11:42:11Z</time></trkpt><trkpt lat="42.659517674791395" lon="2.834593524979483"><ele>64.0</ele><time>2026-04-08T11:42:12Z</time></trkpt><trkpt lat="42.65964176350765" lon="2.834541662345257"><ele>64.5</ele><time>2026-04-08T11:42:13Z</time></trkpt><trkpt lat="42.659766888597865" lon="2.8344874986134387"><ele>65.0</ele><time>2026-04-08T11:42:14Z</time></trkpt><trkpt lat="42.65989455986532" lon="2.834429772964616"><ele>65.5</ele><time>2026-04-08T11:42:15Z</time></trkpt><trkpt lat="42.66002496855808" lon="2.8343735622800534"><ele>66.0</ele><time>2026-04-08T11:42:16Z</time></trkpt><trkpt lat="42.66015422706075" lon="2.834314923917537"><ele>65.5</ele><time>2026-04-08T11:42:17Z</time></trkpt><trkpt lat="42.66028369156233" lon="2.8342634464621983"><ele>65.0</ele><time>2026-04-08T11:42:18Z</time></trkpt><trkpt lat="42.660406025622436" lon="2.834209561753849"><ele>64.5</ele><time>2026-04-08T11:42:19Z</time></trkpt><trkpt lat="42.660516027586084" lon="2.8341666770491196"><ele>64.0</ele><time>2026-04-08T11:42:20Z</time></trkpt><trkpt lat="42.66061753374639" lon="2.834122437735775"><ele>64.0</ele><time>2026-04-08T11:42:21Z</time></trkpt><trkpt lat="42.66070488703401" lon="2.8340802648464165"><ele>64.0</ele><time>2026-04-08T11:42:22Z</time></trkpt><trkpt lat="42.66077701887252" lon="2.834051748572515"><ele>64.0</ele><time>2026-04-08T11:42:23Z</time></trkpt><trkpt lat="42.66084114465376" lon="2.8340492768962995"><ele>64.0</ele><time>2026-04-08T11:42:24Z</time></trkpt><trkpt lat="42.6609470521551" lon="2.834123558370618"><ele>64.0</ele><time>2026-04-08T11:42:26Z</time></trkpt><trkpt lat="42.661075458584634" lon="2.8341283904929275"><ele>63.99999999999999</ele><time>2026-04-08T11:42:28Z</time></trkpt><trkpt lat="42.66113543643152" lon="2.8340683739165775"><ele>64.0</ele><time>2026-04-08T11:42:29Z</time></trkpt><trkpt lat="42.66117974337896" lon="2.833982050568101"><ele>64.0</ele><time>2026-04-08T11:42:30Z</time></trkpt><trkpt lat="42.661226160867194" lon="2.833898337342008"><ele>64.0</ele><time>2026-04-08T11:42:31Z</time></trkpt><trkpt lat="42.66129396195864" lon="2.8338365555108878"><ele>63.99999999999999</ele><time>2026-04-08T11:42:32Z</time></trkpt><trkpt lat="42.66137524884351" lon="2.833800826902238"><ele>64.0</ele><time>2026-04-08T11:42:33Z</time></trkpt><trkpt lat="42.661539844055945" lon="2.8337305527946803"><ele>64.0</ele><time>2026-04-08T11:42:37Z</time></trkpt><trkpt lat="42.66184628149849" lon="2.8336882727712274"><ele>64.0</ele><time>2026-04-08T11:42:39Z</time></trkpt><trkpt lat="42.66191414027584" lon="2.8336073853221793"><ele>64.0</ele><time>2026-04-08T11:42:40Z</time></trkpt><trkpt lat="42.66198944735338" lon="2.8335381768871706"><ele>64.2</ele><time>2026-04-08T11:42:41Z</time></trkpt><trkpt lat="42.66208266557962" lon="2.833493152932609"><ele>64.4</ele><time>2026-04-08T11:42:42Z</time></trkpt><trkpt lat="42.6621782657601" lon="2.833452692635389"><ele>64.6</ele><time>2026-04-08T11:42:43Z</time></trkpt><trkpt lat="42.66227805769354" lon="2.8334095244293915"><ele>64.8</ele><time>2026-04-08T11:42:44Z</time></trkpt><trkpt lat="42.66238022425845" lon="2.8333649099813534"><ele>65.0</ele><time>2026-04-08T11:42:45Z</time></trkpt><trkpt lat="42.66248478756388" lon="2.8333183142325518"><ele>64.6</ele><time>2026-04-08T11:42:46Z</time></trkpt><trkpt lat="42.66258122359595" lon="2.833279129739962"><ele>64.2</ele><time>2026-04-08T11:42:47Z</time></trkpt><trkpt lat="42.66266966556213" lon="2.833238998392524"><ele>63.8</ele><time>2026-04-08T11:42:48Z</time></trkpt><trkpt lat="42.66274429777171" lon="2.8332124120406132"><ele>63.4</ele><time>2026-04-08T11:42:49Z</time></trkpt><trkpt lat="42.66283111597013" lon="2.833190699978237"><ele>63.0</ele><time>2026-04-08T11:42:51Z</time></trkpt><trkpt lat="42.662936854436055" lon="2.8332501683801787"><ele>62.833333333333336</ele><time>2026-04-08T11:42:53Z</time></trkpt><trkpt lat="42.662994452145156" lon="2.8333133109303716"><ele>62.66666666666667</ele><time>2026-04-08T11:42:54Z</time></trkpt><trkpt lat="42.66306278710859" lon="2.833349694605124"><ele>62.5</ele><time>2026-04-08T11:42:55Z</time></trkpt><trkpt lat="42.66313148480538" lon="2.8333407639226236"><ele>62.333333333333336</ele><time>2026-04-08T11:42:56Z</time></trkpt><trkpt lat="42.66319946677583" lon="2.8332999593153114"><ele>62.16666666666667</ele><time>2026-04-08T11:42:57Z</time></trkpt><trkpt lat="42.66325776433099" lon="2.833225280198067"><ele>62.0</ele><time>2026-04-08T11:42:58Z</time></trkpt><trkpt lat="42.66330130547297" lon="2.833123885102416"><ele>62.0</ele><time>2026-04-08T11:42:59Z</time></trkpt><trkpt lat="42.663338053395314" lon="2.8330176753415053"><ele>62.0</ele><time>2026-04-08T11:43:00Z</time></trkpt><trkpt lat="42.66335378091552" lon="2.832903400254739"><ele>62.0</ele><time>2026-04-08T11:43:01Z</time></trkpt><trkpt lat="42.66348027150004" lon="2.832895269245432"><ele>62.0</ele><time>2026-04-08T11:43:01.999Z</time></trkpt><trkpt lat="42.66357257477595" lon="2.832852669633709"><ele>62.0</ele><time>2026-04-08T11:43:02.999Z</time></trkpt><trkpt lat="42.66366272472307" lon="2.8328115807727916"><ele>61.8</ele><time>2026-04-08T11:43:03.999Z</time></trkpt><trkpt lat="42.66375901256808" lon="2.83274834304569"><ele>61.6</ele><time>2026-04-08T11:43:04.999Z</time></trkpt><trkpt lat="42.663872328936186" lon="2.8327052602017413"><ele>61.39999999999999</ele><time>2026-04-08T11:43:05.999Z</time></trkpt><trkpt lat="42.663975815021104" lon="2.8326600643079956"><ele>61.199999999999996</ele><time>2026-04-08T11:43:06.999Z</time></trkpt><trkpt lat="42.66407154443899" lon="2.8326201451020507"><ele>61.0</ele><time>2026-04-08T11:43:07.999Z</time></trkpt><trkpt lat="42.664167748052364" lon="2.832581086566875"><ele>61.4</ele><time>2026-04-08T11:43:08.999Z</time></trkpt><trkpt lat="42.664263249046144" lon="2.8325476500567754"><ele>61.8</ele><time>2026-04-08T11:43:09.999Z</time></trkpt><trkpt lat="42.66435440403838" lon="2.832497593619572"><ele>62.199999999999996</ele><time>2026-04-08T11:43:10.999Z</time></trkpt><trkpt lat="42.66443940618173" lon="2.8324656167371427"><ele>62.599999999999994</ele><time>2026-04-08T11:43:11.999Z</time></trkpt><trkpt lat="42.66453297708169" lon="2.8324304540350425"><ele>63.0</ele><time>2026-04-08T11:43:12.999Z</time></trkpt><trkpt lat="42.66462382139716" lon="2.8323952516758615"><ele>63.0</ele><time>2026-04-08T11:43:13.999Z</time></trkpt><trkpt lat="42.66471475414352" lon="2.8323677886063754"><ele>63.0</ele><time>2026-04-08T11:43:14.999Z</time></trkpt><trkpt lat="42.664803682792986" lon="2.832349908889319"><ele>63.0</ele><time>2026-04-08T11:43:15.999Z</time></trkpt><trkpt lat="42.66488119017989" lon="2.832327730935283"><ele>63.0</ele><time>2026-04-08T11:43:16.999Z</time></trkpt><trkpt lat="42.6649494444266" lon="2.832314716501521"><ele>63.0</ele><time>2026-04-08T11:43:17.999Z</time></trkpt><trkpt lat="42.66506878790733" lon="2.832301770378593"><ele>63.0</ele><time>2026-04-08T11:43:19.999Z</time></trkpt><trkpt lat="42.66514021798702" lon="2.8323033781634313"><ele>63.0</ele><time>2026-04-08T11:43:20.999Z</time></trkpt><trkpt lat="42.66521642381288" lon="2.832304935993811"><ele>63.0</ele><time>2026-04-08T11:43:21.999Z</time></trkpt><trkpt lat="42.66530138599458" lon="2.832311368344645"><ele>63.0</ele><time>2026-04-08T11:43:22.999Z</time></trkpt><trkpt lat="42.66539578711331" lon="2.832318909239825"><ele>63.0</ele><time>2026-04-08T11:43:23.999Z</time></trkpt><trkpt lat="42.665490066178435" lon="2.8323216964137337"><ele>63.0</ele><time>2026-04-08T11:43:24.999Z</time></trkpt><trkpt lat="42.66557652029278" lon="2.8323218881837118"><ele>63.0</ele><time>2026-04-08T11:43:25.999Z</time></trkpt><trkpt lat="42.665656702799666" lon="2.8323204271863545"><ele>63.0</ele><time>2026-04-08T11:43:26.999Z</time></trkpt><trkpt lat="42.66571997814502" lon="2.832320301228261"><ele>63.0</ele><time>2026-04-08T11:43:27.999Z</time></trkpt><trkpt lat="42.66578661270152" lon="2.8323251895339845"><ele>63.0</ele><time>2026-04-08T11:43:28.999Z</time></trkpt><trkpt lat="42.66586070049565" lon="2.8323347298172172"><ele>63.0</ele><time>2026-04-08T11:43:29.999Z</time></trkpt><trkpt lat="42.66594041657676" lon="2.832342760834909"><ele>63.0</ele><time>2026-04-08T11:43:30.999Z</time></trkpt><trkpt lat="42.66603178023059" lon="2.8323497773143202"><ele>63.0</ele><time>2026-04-08T11:43:31.999Z</time></trkpt><trkpt lat="42.66612702780732" lon="2.8323535913896642"><ele>63.0</ele><time>2026-04-08T11:43:32.999Z</time></trkpt><trkpt lat="42.66621141841759" lon="2.8323546499217604"><ele>63.0</ele><time>2026-04-08T11:43:33.999Z</time></trkpt><trkpt lat="42.66629939187232" lon="2.8323572524716654"><ele>63.0</ele><time>2026-04-08T11:43:34.999Z</time></trkpt><trkpt lat="42.6663825361656" lon="2.832360992798857"><ele>63.0</ele><time>2026-04-08T11:43:35.999Z</time></trkpt><trkpt lat="42.66645585461271" lon="2.832367334306396"><ele>63.0</ele><time>2026-04-08T11:43:36.999Z</time></trkpt><trkpt lat="42.66652033660205" lon="2.8323647208999025"><ele>63.0</ele><time>2026-04-08T11:43:37.999Z</time></trkpt><trkpt lat="42.666584940771536" lon="2.8323586361490802"><ele>63.0</ele><time>2026-04-08T11:43:38.999Z</time></trkpt><trkpt lat="42.66665480274865" lon="2.8323450026051877"><ele>63.0</ele><time>2026-04-08T11:43:39.999Z</time></trkpt><trkpt lat="42.666729581245384" lon="2.8323310925804077"><ele>63.0</ele><time>2026-04-08T11:43:40.999Z</time></trkpt><trkpt lat="42.66680851569765" lon="2.8323126523113316"><ele>63.0</ele><time>2026-04-08T11:43:41.999Z</time></trkpt><trkpt lat="42.66688286244123" lon="2.832300809118204"><ele>63.0</ele><time>2026-04-08T11:43:42.999Z</time></trkpt><trkpt lat="42.666956403433566" lon="2.832289323882593"><ele>63.0</ele><time>2026-04-08T11:43:43.999Z</time></trkpt><trkpt lat="42.667030376557214" lon="2.8322735187458985"><ele>62.8</ele><time>2026-04-08T11:43:44.999Z</time></trkpt><trkpt lat="42.66710247767696" lon="2.8322564307160865"><ele>62.599999999999994</ele><time>2026-04-08T11:43:45.999Z</time></trkpt><trkpt lat="42.66717309277221" lon="2.832239773717783"><ele>62.400000000000006</ele><time>2026-04-08T11:43:46.999Z</time></trkpt><trkpt lat="42.66729430869411" lon="2.832216293504641"><ele>62.2</ele><time>2026-04-08T11:43:48.999Z</time></trkpt><trkpt lat="42.66742114562202" lon="2.8321916671270086"><ele>62.0</ele><time>2026-04-08T11:43:50.999Z</time></trkpt><trkpt lat="42.66749309532805" lon="2.832175929910646"><ele>62.00000000000001</ele><time>2026-04-08T11:43:51.999Z</time></trkpt><trkpt lat="42.66756334771533" lon="2.8321585601111448"><ele>62.0</ele><time>2026-04-08T11:43:52.999Z</time></trkpt><trkpt lat="42.66763579634835" lon="2.832142733566877"><ele>62.0</ele><time>2026-04-08T11:43:53.999Z</time></trkpt><trkpt lat="42.66771352506336" lon="2.832125806544602"><ele>62.0</ele><time>2026-04-08T11:43:54.999Z</time></trkpt><trkpt lat="42.667796601156155" lon="2.8321139294511712"><ele>62.00000000000001</ele><time>2026-04-08T11:43:55.999Z</time></trkpt><trkpt lat="42.66787498218637" lon="2.8320960329634026"><ele>62.0</ele><time>2026-04-08T11:43:56.999Z</time></trkpt><trkpt lat="42.66795688073735" lon="2.8320801591925644"><ele>62.00000000000001</ele><time>2026-04-08T11:43:57.999Z</time></trkpt><trkpt lat="42.66803804861052" lon="2.8320628424851297"><ele>62.0</ele><time>2026-04-08T11:43:58.999Z</time></trkpt><trkpt lat="42.66811492988076" lon="2.8320421484588456"><ele>62.0</ele><time>2026-04-08T11:43:59.999Z</time></trkpt><trkpt lat="42.668185291088285" lon="2.832019915492779"><ele>62.0</ele><time>2026-04-08T11:44:00.999Z</time></trkpt><trkpt lat="42.66826118046846" lon="2.8319924080423173"><ele>62.00000000000001</ele><time>2026-04-08T11:44:01.999Z</time></trkpt><trkpt lat="42.66835235526233" lon="2.8319524396907156"><ele>62.0</ele><time>2026-04-08T11:44:02.999Z</time></trkpt><trkpt lat="42.66842142005032" lon="2.831923483076097"><ele>62.00000000000001</ele><time>2026-04-08T11:44:03.999Z</time></trkpt><trkpt lat="42.66848671398455" lon="2.831897205711749"><ele>62.0</ele><time>2026-04-08T11:44:04.999Z</time></trkpt><trkpt lat="42.66855610820903" lon="2.8318661325339756"><ele>62.0</ele><time>2026-04-08T11:44:05.999Z</time></trkpt><trkpt lat="42.668673491975824" lon="2.8318097703830056"><ele>62.0</ele><time>2026-04-08T11:44:07.999Z</time></trkpt><trkpt lat="42.66873633550139" lon="2.831784153397003"><ele>62.00000000000001</ele><time>2026-04-08T11:44:08.999Z</time></trkpt><trkpt lat="42.66879996061735" lon="2.8317593989976184"><ele>62.0</ele><time>2026-04-08T11:44:09.999Z</time></trkpt><trkpt lat="42.668866145363346" lon="2.831731441916287"><ele>61.833333333333336</ele><time>2026-04-08T11:44:10.999Z</time></trkpt><trkpt lat="42.66893658141056" lon="2.8316996917183275"><ele>61.66666666666667</ele><time>2026-04-08T11:44:11.999Z</time></trkpt><trkpt lat="42.6690048971281" lon="2.8316844486633386"><ele>61.5</ele><time>2026-04-08T11:44:13Z</time></trkpt><trkpt lat="42.669068695923286" lon="2.8316379432307524"><ele>61.33333333333333</ele><time>2026-04-08T11:44:14Z</time></trkpt><trkpt lat="42.66913261926938" lon="2.831575637896216"><ele>61.166666666666664</ele><time>2026-04-08T11:44:15Z</time></trkpt><trkpt lat="42.669184705406344" lon="2.8314993844390104"><ele>61.0</ele><time>2026-04-08T11:44:16Z</time></trkpt><trkpt lat="42.66925091657346" lon="2.8314297850264714"><ele>60.99999999999999</ele><time>2026-04-08T11:44:17Z</time></trkpt><trkpt lat="42.66931689796906" lon="2.831362410332184"><ele>61.0</ele><time>2026-04-08T11:44:18Z</time></trkpt><trkpt lat="42.66938535860176" lon="2.8313041256993716"><ele>61.0</ele><time>2026-04-08T11:44:19Z</time></trkpt><trkpt lat="42.669452263582556" lon="2.831255354023713"><ele>61.0</ele><time>2026-04-08T11:44:20Z</time></trkpt><trkpt lat="42.66952339244556" lon="2.831195566406739"><ele>60.99999999999999</ele><time>2026-04-08T11:44:21Z</time></trkpt><trkpt lat="42.66959301082622" lon="2.831135334832273"><ele>61.0</ele><time>2026-04-08T11:44:22Z</time></trkpt><trkpt lat="42.669662228941206" lon="2.831074633202764"><ele>60.666666666666664</ele><time>2026-04-08T11:44:23Z</time></trkpt><trkpt lat="42.66972932401158" lon="2.8310200055025483"><ele>60.33333333333333</ele><time>2026-04-08T11:44:24Z</time></trkpt><trkpt lat="42.6697945281536" lon="2.8309658979443864"><ele>60.0</ele><time>2026-04-08T11:44:25Z</time></trkpt><trkpt lat="42.66986930637678" lon="2.8309282780030207"><ele>59.66666666666667</ele><time>2026-04-08T11:44:26Z</time></trkpt><trkpt lat="42.66992312680239" lon="2.8308609234760107"><ele>59.333333333333336</ele><time>2026-04-08T11:44:27Z</time></trkpt><trkpt lat="42.66998053012516" lon="2.8308133584227435"><ele>59.0</ele><time>2026-04-08T11:44:28Z</time></trkpt><trkpt lat="42.67008285871904" lon="2.8307471409778775"><ele>59.00000000000001</ele><time>2026-04-08T11:44:30Z</time></trkpt><trkpt lat="42.670188539226054" lon="2.8308154417725873"><ele>59.0</ele><time>2026-04-08T11:44:32Z</time></trkpt><trkpt lat="42.6702335654182" lon="2.830879499081151"><ele>59.0</ele><time>2026-04-08T11:44:33Z</time></trkpt><trkpt lat="42.67027199216244" lon="2.8309648344818035"><ele>59.0</ele><time>2026-04-08T11:44:34Z</time></trkpt><trkpt lat="42.67031681693701" lon="2.831050717094638"><ele>59.00000000000001</ele><time>2026-04-08T11:44:35Z</time></trkpt><trkpt lat="42.67036839900157" lon="2.8311331842136185"><ele>59.0</ele><time>2026-04-08T11:44:36Z</time></trkpt><trkpt lat="42.670418659250515" lon="2.8312177052465106"><ele>58.800000000000004</ele><time>2026-04-08T11:44:37Z</time></trkpt><trkpt lat="42.67047187362869" lon="2.8313019460269078"><ele>58.60000000000001</ele><time>2026-04-08T11:44:38Z</time></trkpt><trkpt lat="42.670540230245585" lon="2.8314163909950714"><ele>58.4</ele><time>2026-04-08T11:44:40Z</time></trkpt><trkpt lat="42.670621670698765" lon="2.83149937742735"><ele>58.2</ele><time>2026-04-08T11:44:41Z</time></trkpt><trkpt lat="42.67068634504456" lon="2.8315665378364168"><ele>58.0</ele><time>2026-04-08T11:44:42Z</time></trkpt><trkpt lat="42.67075418343976" lon="2.831631124947504"><ele>57.99999999999999</ele><time>2026-04-08T11:44:43Z</time></trkpt><trkpt lat="42.67082503758791" lon="2.831708205618769"><ele>58.0</ele><time>2026-04-08T11:44:44Z</time></trkpt><trkpt lat="42.67088940715873" lon="2.8317759891116885"><ele>58.0</ele><time>2026-04-08T11:44:45Z</time></trkpt><trkpt lat="42.670964140219375" lon="2.8318568162431235"><ele>58.0</ele><time>2026-04-08T11:44:46Z</time></trkpt><trkpt lat="42.671030738384694" lon="2.831930662966472"><ele>57.99999999999999</ele><time>2026-04-08T11:44:47Z</time></trkpt><trkpt lat="42.671103440523474" lon="2.8319993761214115"><ele>58.0</ele><time>2026-04-08T11:44:48Z</time></trkpt><trkpt lat="42.671170489118225" lon="2.8320778846716634"><ele>57.8</ele><time>2026-04-08T11:44:49Z</time></trkpt><trkpt lat="42.67124066864893" lon="2.8321433607343556"><ele>57.599999999999994</ele><time>2026-04-08T11:44:50Z</time></trkpt><trkpt lat="42.67131612475486" lon="2.8322096781272346"><ele>57.400000000000006</ele><time>2026-04-08T11:44:51Z</time></trkpt><trkpt lat="42.67138915549436" lon="2.832281532409476"><ele>57.2</ele><time>2026-04-08T11:44:52Z</time></trkpt><trkpt lat="42.671465380735455" lon="2.83235725277614"><ele>57.0</ele><time>2026-04-08T11:44:53Z</time></trkpt><trkpt lat="42.67155162073422" lon="2.8324280596973246"><ele>57.0</ele><time>2026-04-08T11:44:54Z</time></trkpt><trkpt lat="42.67162682637084" lon="2.832501172212737"><ele>57.0</ele><time>2026-04-08T11:44:55Z</time></trkpt><trkpt lat="42.67169616978365" lon="2.8325734666540616"><ele>57.0</ele><time>2026-04-08T11:44:56Z</time></trkpt><trkpt lat="42.671769175023" lon="2.8326416634931353"><ele>57.0</ele><time>2026-04-08T11:44:57Z</time></trkpt><trkpt lat="42.671834627120916" lon="2.8327077699363103"><ele>57.0</ele><time>2026-04-08T11:44:58Z</time></trkpt><trkpt lat="42.67188975144795" lon="2.832785957124277"><ele>57.0</ele><time>2026-04-08T11:44:59Z</time></trkpt><trkpt lat="42.67196976244843" lon="2.832851335812572"><ele>57.0</ele><time>2026-04-08T11:45:00Z</time></trkpt><trkpt lat="42.67201940137193" lon="2.8329279247476338"><ele>56.99999999999999</ele><time>2026-04-08T11:45:01Z</time></trkpt><trkpt lat="42.67201991924345" lon="2.833032361733367"><ele>57.0</ele><time>2026-04-08T11:45:02Z</time></trkpt><trkpt lat="42.6720175655505" lon="2.833127737114732"><ele>57.0</ele><time>2026-04-08T11:45:03Z</time></trkpt><trkpt lat="42.67199970628113" lon="2.8332211678584853"><ele>56.99999999999999</ele><time>2026-04-08T11:45:04Z</time></trkpt><trkpt lat="42.67200739019196" lon="2.833322275322777"><ele>57.0</ele><time>2026-04-08T11:45:05Z</time></trkpt><trkpt lat="42.67204250237404" lon="2.8334103251565415"><ele>57.0</ele><time>2026-04-08T11:45:06Z</time></trkpt><trkpt lat="42.67209959119024" lon="2.8334734903332377"><ele>56.833333333333336</ele><time>2026-04-08T11:45:07Z</time></trkpt><trkpt lat="42.67217476635509" lon="2.8335039289296557"><ele>56.66666666666667</ele><time>2026-04-08T11:45:08Z</time></trkpt><trkpt lat="42.6722563652882" lon="2.833519947767569"><ele>56.5</ele><time>2026-04-08T11:45:09Z</time></trkpt><trkpt lat="42.67233005881274" lon="2.8335545488382086"><ele>56.333333333333336</ele><time>2026-04-08T11:45:10Z</time></trkpt><trkpt lat="42.67238895317147" lon="2.8336261434425323"><ele>56.16666666666667</ele><time>2026-04-08T11:45:11Z</time></trkpt><trkpt lat="42.67244134561073" lon="2.833745802320151"><ele>56.0</ele><time>2026-04-08T11:45:12Z</time></trkpt><trkpt lat="42.6724772427937" lon="2.8338785216354503"><ele>56.0</ele><time>2026-04-08T11:45:13Z</time></trkpt><trkpt lat="42.67251998692726" lon="2.834033851876406"><ele>56.0</ele><time>2026-04-08T11:45:14Z</time></trkpt><trkpt lat="42.67256500289703" lon="2.834186277842564"><ele>56.0</ele><time>2026-04-08T11:45:15Z</time></trkpt><trkpt lat="42.67260791508631" lon="2.8343261162528997"><ele>56.0</ele><time>2026-04-08T11:45:16Z</time></trkpt><trkpt lat="42.67265130113172" lon="2.834468099969812"><ele>56.0</ele><time>2026-04-08T11:45:17Z</time></trkpt><trkpt lat="42.67269639683095" lon="2.8346032306314557"><ele>55.99999999999999</ele><time>2026-04-08T11:45:18Z</time></trkpt><trkpt lat="42.67274005905166" lon="2.8347338402207143"><ele>55.99999999999999</ele><time>2026-04-08T11:45:19Z</time></trkpt><trkpt lat="42.67279244328217" lon="2.8348603577806446"><ele>56.0</ele><time>2026-04-08T11:45:20Z</time></trkpt><trkpt lat="42.67284630378903" lon="2.834990169303606"><ele>56.0</ele><time>2026-04-08T11:45:21Z</time></trkpt><trkpt lat="42.67291201072647" lon="2.835104669979207"><ele>56.00000000000001</ele><time>2026-04-08T11:45:22Z</time></trkpt><trkpt lat="42.67297829494849" lon="2.8352078988183136"><ele>56.0</ele><time>2026-04-08T11:45:23Z</time></trkpt><trkpt lat="42.673040677495024" lon="2.835303168844749"><ele>56.0</ele><time>2026-04-08T11:45:24Z</time></trkpt><trkpt lat="42.67310066899865" lon="2.8353936825596477"><ele>56.0</ele><time>2026-04-08T11:45:25Z</time></trkpt><trkpt lat="42.67315677908586" lon="2.8354797923006636"><ele>56.00000000000001</ele><time>2026-04-08T11:45:26Z</time></trkpt><trkpt lat="42.67320420696336" lon="2.835560312382862"><ele>56.0</ele><time>2026-04-08T11:45:27Z</time></trkpt><trkpt lat="42.67324516005914" lon="2.8356278126453063"><ele>56.0</ele><time>2026-04-08T11:45:28Z</time></trkpt><trkpt lat="42.67330837171954" lon="2.83571783556384"><ele>55.99999999999999</ele><time>2026-04-08T11:45:30Z</time></trkpt><trkpt lat="42.67337904395352" lon="2.8358303132012983"><ele>55.99999999999999</ele><time>2026-04-08T11:45:31.999Z</time></trkpt><trkpt lat="42.67342965074625" lon="2.835908128985712"><ele>56.0</ele><time>2026-04-08T11:45:32.999Z</time></trkpt><trkpt lat="42.673488836616364" lon="2.835991476550288"><ele>56.0</ele><time>2026-04-08T11:45:33.999Z</time></trkpt><trkpt lat="42.67356843871047" lon="2.8360938787395638"><ele>55.8</ele><time>2026-04-08T11:45:34.999Z</time></trkpt><trkpt lat="42.67363443228679" lon="2.836193389850857"><ele>55.599999999999994</ele><time>2026-04-08T11:45:35.999Z</time></trkpt><trkpt lat="42.67371043884903" lon="2.836308717453835"><ele>55.4</ele><time>2026-04-08T11:45:36.999Z</time></trkpt><trkpt lat="42.673775613928235" lon="2.836414801604335"><ele>55.2</ele><time>2026-04-08T11:45:37.999Z</time></trkpt><trkpt lat="42.67384436401817" lon="2.8365242064941403"><ele>55.0</ele><time>2026-04-08T11:45:38.999Z</time></trkpt><trkpt lat="42.67390398065335" lon="2.836624025445385"><ele>55.0</ele><time>2026-04-08T11:45:39.999Z</time></trkpt><trkpt lat="42.67397400858465" lon="2.836727391940543"><ele>55.0</ele><time>2026-04-08T11:45:40.999Z</time></trkpt><trkpt lat="42.67403496068035" lon="2.8368299799903074"><ele>55.0</ele><time>2026-04-08T11:45:41.999Z</time></trkpt><trkpt lat="42.674069051917854" lon="2.8369377094679633"><ele>55.0</ele><time>2026-04-08T11:45:42.999Z</time></trkpt><trkpt lat="42.67413015703305" lon="2.8370665668491353"><ele>55.0</ele><time>2026-04-08T11:45:44.999Z</time></trkpt><trkpt lat="42.674158991900015" lon="2.8371455330338984"><ele>54.8</ele><time>2026-04-08T11:45:45.999Z</time></trkpt><trkpt lat="42.67419828809663" lon="2.8372392200298315"><ele>54.6</ele><time>2026-04-08T11:45:46.999Z</time></trkpt><trkpt lat="42.67425788091605" lon="2.8373624339157884"><ele>54.400000000000006</ele><time>2026-04-08T11:45:47.999Z</time></trkpt><trkpt lat="42.674318966138095" lon="2.8374849710884305"><ele>54.2</ele><time>2026-04-08T11:45:48.999Z</time></trkpt><trkpt lat="42.67438003642489" lon="2.83761044816778"><ele>54.0</ele><time>2026-04-08T11:45:49.999Z</time></trkpt><trkpt lat="42.67444368139004" lon="2.8377542374452815"><ele>54.0</ele><time>2026-04-08T11:45:50.999Z</time></trkpt><trkpt lat="42.674505285059965" lon="2.8378950004649703"><ele>54.0</ele><time>2026-04-08T11:45:51.999Z</time></trkpt><trkpt lat="42.6745730693546" lon="2.8380343092401863"><ele>54.0</ele><time>2026-04-08T11:45:52.999Z</time></trkpt><trkpt lat="42.67464849071759" lon="2.8381637059989195"><ele>54.0</ele><time>2026-04-08T11:45:53.999Z</time></trkpt><trkpt lat="42.674723808964735" lon="2.8382915310285903"><ele>54.0</ele><time>2026-04-08T11:45:54.999Z</time></trkpt><trkpt lat="42.674789594366445" lon="2.838425104839013"><ele>54.0</ele><time>2026-04-08T11:45:55.999Z</time></trkpt><trkpt lat="42.674841456762756" lon="2.83855603802627"><ele>54.0</ele><time>2026-04-08T11:45:56.999Z</time></trkpt><trkpt lat="42.67489821470479" lon="2.8386850297911983"><ele>54.0</ele><time>2026-04-08T11:45:57.999Z</time></trkpt><trkpt lat="42.67495875652125" lon="2.8388133080628855"><ele>54.0</ele><time>2026-04-08T11:45:58.999Z</time></trkpt><trkpt lat="42.67503619089335" lon="2.83900520460843"><ele>54.0</ele><time>2026-04-08T11:45:59.999Z</time></trkpt><trkpt lat="42.675125932227196" lon="2.8391749042825496"><ele>54.0</ele><time>2026-04-08T11:46:00.999Z</time></trkpt><trkpt lat="42.67517909914642" lon="2.8392650599186084"><ele>54.0</ele><time>2026-04-08T11:46:01.999Z</time></trkpt><trkpt lat="42.67519502689564" lon="2.8393552231564656"><ele>54.0</ele><time>2026-04-08T11:46:03.999Z</time></trkpt><trkpt lat="42.67525012434196" lon="2.839501048906828"><ele>54.00000000000001</ele><time>2026-04-08T11:46:04.999Z</time></trkpt><trkpt lat="42.67527815424127" lon="2.8395987076025118"><ele>54.00000000000001</ele><time>2026-04-08T11:46:05.999Z</time></trkpt><trkpt lat="42.675294695097065" lon="2.8396842160006783"><ele>54.0</ele><time>2026-04-08T11:46:06.999Z</time></trkpt><trkpt lat="42.67528914244622" lon="2.839854517548578"><ele>54.0</ele><time>2026-04-08T11:46:08.999Z</time></trkpt><trkpt lat="42.675256019072386" lon="2.839938047217672"><ele>54.0</ele><time>2026-04-08T11:46:09.999Z</time></trkpt><trkpt lat="42.67520714095911" lon="2.840002794849282"><ele>54.00000000000001</ele><time>2026-04-08T11:46:10.999Z</time></trkpt><trkpt lat="42.6751843228142" lon="2.840140566240739"><ele>54.00000000000001</ele><time>2026-04-08T11:46:12.999Z</time></trkpt><trkpt lat="42.67527998532517" lon="2.8402729905857313"><ele>54.0</ele><time>2026-04-08T11:46:14.999Z</time></trkpt><trkpt lat="42.67535925372207" lon="2.8402940634862066"><ele>54.0</ele><time>2026-04-08T11:46:15.999Z</time></trkpt><trkpt lat="42.675407613650755" lon="2.8403991906247628"><ele>53.75</ele><time>2026-04-08T11:46:16.999Z</time></trkpt><trkpt lat="42.675450468497225" lon="2.8405208466040777"><ele>53.5</ele><time>2026-04-08T11:46:17.999Z</time></trkpt><trkpt lat="42.6754852058267" lon="2.840668813409625"><ele>53.25</ele><time>2026-04-08T11:46:19Z</time></trkpt><trkpt lat="42.67551519262146" lon="2.840834790908756"><ele>53.0</ele><time>2026-04-08T11:46:20Z</time></trkpt><trkpt lat="42.67554569946755" lon="2.8410084635942003"><ele>52.75</ele><time>2026-04-08T11:46:21Z</time></trkpt><trkpt lat="42.675578034969554" lon="2.841188205130421"><ele>52.5</ele><time>2026-04-08T11:46:22Z</time></trkpt><trkpt lat="42.67561413740103" lon="2.8413611817260365"><ele>52.25</ele><time>2026-04-08T11:46:23Z</time></trkpt><trkpt lat="42.67564482232983" lon="2.8415273033855692"><ele>52.0</ele><time>2026-04-08T11:46:24Z</time></trkpt><trkpt lat="42.67567871194898" lon="2.8416852570825615"><ele>52.25</ele><time>2026-04-08T11:46:25Z</time></trkpt><trkpt lat="42.675708528787666" lon="2.841845629848479"><ele>52.5</ele><time>2026-04-08T11:46:26Z</time></trkpt><trkpt lat="42.67574175617539" lon="2.842008436467867"><ele>52.75</ele><time>2026-04-08T11:46:27Z</time></trkpt><trkpt lat="42.67577361617139" lon="2.8421686437184093"><ele>53.0</ele><time>2026-04-08T11:46:28Z</time></trkpt><trkpt lat="42.67581300951208" lon="2.8423300984800766"><ele>53.0</ele><time>2026-04-08T11:46:29Z</time></trkpt><trkpt lat="42.67584295571297" lon="2.842479277504527"><ele>53.0</ele><time>2026-04-08T11:46:30Z</time></trkpt><trkpt lat="42.67587107176494" lon="2.842644119700764"><ele>53.0</ele><time>2026-04-08T11:46:31Z</time></trkpt><trkpt lat="42.67590463887088" lon="2.8427942577024674"><ele>53.0</ele><time>2026-04-08T11:46:32Z</time></trkpt><trkpt lat="42.675944564451534" lon="2.8429504506370877"><ele>53.0</ele><time>2026-04-08T11:46:33Z</time></trkpt><trkpt lat="42.67597927368618" lon="2.8430967569005"><ele>53.0</ele><time>2026-04-08T11:46:34Z</time></trkpt><trkpt lat="42.676005246523225" lon="2.843252574796581"><ele>53.0</ele><time>2026-04-08T11:46:35Z</time></trkpt><trkpt lat="42.67603025005663" lon="2.8434051008202283"><ele>53.0</ele><time>2026-04-08T11:46:36Z</time></trkpt><trkpt lat="42.676067736817465" lon="2.8435599843477286"><ele>52.599999999999994</ele><time>2026-04-08T11:46:37Z</time></trkpt><trkpt lat="42.676106013245146" lon="2.843711369230272"><ele>52.199999999999996</ele><time>2026-04-08T11:46:38Z</time></trkpt><trkpt lat="42.67613703156082" lon="2.8438626857548717"><ele>51.8</ele><time>2026-04-08T11:46:39Z</time></trkpt><trkpt lat="42.67614757474955" lon="2.8440057376468455"><ele>51.4</ele><time>2026-04-08T11:46:40Z</time></trkpt><trkpt lat="42.67618686925156" lon="2.8441420123455785"><ele>51.0</ele><time>2026-04-08T11:46:41Z</time></trkpt><trkpt lat="42.6762137261315" lon="2.8442755490281924"><ele>51.25</ele><time>2026-04-08T11:46:42Z</time></trkpt><trkpt lat="42.67627964393867" lon="2.8445573298302373"><ele>51.5</ele><time>2026-04-08T11:46:44Z</time></trkpt><trkpt lat="42.67630348981917" lon="2.844680866613283"><ele>51.75</ele><time>2026-04-08T11:46:45Z</time></trkpt><trkpt lat="42.676327482833095" lon="2.8448053931950374"><ele>52.0</ele><time>2026-04-08T11:46:46Z</time></trkpt><trkpt lat="42.67635720475036" lon="2.8449403102200637"><ele>52.0</ele><time>2026-04-08T11:46:47Z</time></trkpt><trkpt lat="42.67638139771725" lon="2.845072735458802"><ele>52.0</ele><time>2026-04-08T11:46:48Z</time></trkpt><trkpt lat="42.67640483486209" lon="2.8451968931465856"><ele>52.0</ele><time>2026-04-08T11:46:49Z</time></trkpt><trkpt lat="42.67642779188731" lon="2.845317587000942"><ele>52.0</ele><time>2026-04-08T11:46:50Z</time></trkpt><trkpt lat="42.67645066651538" lon="2.845441658331788"><ele>52.0</ele><time>2026-04-08T11:46:51Z</time></trkpt><trkpt lat="42.676478121152655" lon="2.8455644752148985"><ele>51.83333333333333</ele><time>2026-04-08T11:46:52Z</time></trkpt><trkpt lat="42.676503641587004" lon="2.8456944256911627"><ele>51.666666666666664</ele><time>2026-04-08T11:46:53Z</time></trkpt><trkpt lat="42.676526013584905" lon="2.8458184942107567"><ele>51.5</ele><time>2026-04-08T11:46:54Z</time></trkpt><trkpt lat="42.67654962379884" lon="2.845931822099172"><ele>51.33333333333333</ele><time>2026-04-08T11:46:55Z</time></trkpt><trkpt lat="42.67657137194526" lon="2.846037314996815"><ele>51.166666666666664</ele><time>2026-04-08T11:46:56Z</time></trkpt><trkpt lat="42.67658837028771" lon="2.846136185291503"><ele>51.0</ele><time>2026-04-08T11:46:57Z</time></trkpt><trkpt lat="42.67660700492188" lon="2.846224228201127"><ele>51.0</ele><time>2026-04-08T11:46:58Z</time></trkpt><trkpt lat="42.67663513468093" lon="2.8463372103704567"><ele>51.0</ele><time>2026-04-08T11:47:00Z</time></trkpt><trkpt lat="42.67666426417823" lon="2.8464637311662417"><ele>51.0</ele><time>2026-04-08T11:47:03Z</time></trkpt><trkpt lat="42.67669308187748" lon="2.8465890948037638"><ele>51.0</ele><time>2026-04-08T11:47:05Z</time></trkpt><trkpt lat="42.67672327756799" lon="2.8467556281279216"><ele>51.0</ele><time>2026-04-08T11:47:07Z</time></trkpt><trkpt lat="42.67674790772474" lon="2.846847664390004"><ele>51.333333333333336</ele><time>2026-04-08T11:47:08Z</time></trkpt><trkpt lat="42.676772569769156" lon="2.8469446807495733"><ele>51.66666666666667</ele><time>2026-04-08T11:47:09Z</time></trkpt><trkpt lat="42.676799908587036" lon="2.847050118361238"><ele>52.0</ele><time>2026-04-08T11:47:10Z</time></trkpt><trkpt lat="42.676830642991376" lon="2.8471549415400683"><ele>52.333333333333336</ele><time>2026-04-08T11:47:11Z</time></trkpt><trkpt lat="42.67685922894481" lon="2.847252957664365"><ele>52.66666666666667</ele><time>2026-04-08T11:47:12Z</time></trkpt><trkpt lat="42.67689823760492" lon="2.8473693590650697"><ele>53.0</ele><time>2026-04-08T11:47:13Z</time></trkpt><trkpt lat="42.67694049655543" lon="2.847492366094512"><ele>53.00000000000001</ele><time>2026-04-08T11:47:14Z</time></trkpt><trkpt lat="42.6769818514692" lon="2.8476073417200256"><ele>53.0</ele><time>2026-04-08T11:47:15Z</time></trkpt><trkpt lat="42.677022559568684" lon="2.8477253460767646"><ele>53.0</ele><time>2026-04-08T11:47:16Z</time></trkpt><trkpt lat="42.677058634552985" lon="2.8478291860036062"><ele>53.0</ele><time>2026-04-08T11:47:17Z</time></trkpt><trkpt lat="42.67709200538578" lon="2.847922978150693"><ele>53.00000000000001</ele><time>2026-04-08T11:47:18Z</time></trkpt><trkpt lat="42.67712813835947" lon="2.84802070099139"><ele>53.0</ele><time>2026-04-08T11:47:18.999Z</time></trkpt><trkpt lat="42.6771657491261" lon="2.8481148369992595"><ele>52.833333333333336</ele><time>2026-04-08T11:47:19.999Z</time></trkpt><trkpt lat="42.6772060182684" lon="2.8482047913876007"><ele>52.66666666666667</ele><time>2026-04-08T11:47:20.999Z</time></trkpt><trkpt lat="42.677247055195835" lon="2.8483029431641302"><ele>52.5</ele><time>2026-04-08T11:47:21.999Z</time></trkpt><trkpt lat="42.67728683510382" lon="2.848404042844133"><ele>52.33333333333333</ele><time>2026-04-08T11:47:22.999Z</time></trkpt><trkpt lat="42.67732647270916" lon="2.8485015100900757"><ele>52.166666666666664</ele><time>2026-04-08T11:47:23.999Z</time></trkpt><trkpt lat="42.67736409326324" lon="2.8485977054592855"><ele>52.0</ele><time>2026-04-08T11:47:24.999Z</time></trkpt><trkpt lat="42.67740434125079" lon="2.8486969737467813"><ele>51.49999999999999</ele><time>2026-04-08T11:47:25.999Z</time></trkpt><trkpt lat="42.677439677353924" lon="2.8487882456368485"><ele>51.0</ele><time>2026-04-08T11:47:26.999Z</time></trkpt><trkpt lat="42.677471801037306" lon="2.8488727759310857"><ele>50.5</ele><time>2026-04-08T11:47:27.999Z</time></trkpt><trkpt lat="42.67750262738872" lon="2.8489491533112505"><ele>50.0</ele><time>2026-04-08T11:47:28.999Z</time></trkpt><trkpt lat="42.6775597229762" lon="2.8491025603460876"><ele>49.49999999999999</ele><time>2026-04-08T11:47:30.999Z</time></trkpt><trkpt lat="42.67759090079372" lon="2.84918799482366"><ele>49.0</ele><time>2026-04-08T11:47:31.999Z</time></trkpt><trkpt lat="42.67762237765295" lon="2.8492739247250256"><ele>49.0</ele><time>2026-04-08T11:47:32.999Z</time></trkpt><trkpt lat="42.67765203237864" lon="2.8493569107616095"><ele>49.0</ele><time>2026-04-08T11:47:33.999Z</time></trkpt><trkpt lat="42.67770104210453" lon="2.8495017569276566"><ele>49.0</ele><time>2026-04-08T11:47:35.999Z</time></trkpt><trkpt lat="42.677756217436915" lon="2.849653649356163"><ele>49.0</ele><time>2026-04-08T11:47:37.999Z</time></trkpt><trkpt lat="42.677799355145076" lon="2.8497669160205428"><ele>49.0</ele><time>2026-04-08T11:47:39.999Z</time></trkpt><trkpt lat="42.677833035751824" lon="2.849860163881281"><ele>48.99999999999999</ele><time>2026-04-08T11:47:41.999Z</time></trkpt><trkpt lat="42.67786115796411" lon="2.849941521844444"><ele>49.0</ele><time>2026-04-08T11:47:43.999Z</time></trkpt><trkpt lat="42.67789178340174" lon="2.850024054205213"><ele>49.0</ele><time>2026-04-08T11:47:45.999Z</time></trkpt><trkpt lat="42.67794253749806" lon="2.850151748453418"><ele>49.0</ele><time>2026-04-08T11:47:47.999Z</time></trkpt><trkpt lat="42.677968935789494" lon="2.8502357779982517"><ele>48.99999999999999</ele><time>2026-04-08T11:47:48.999Z</time></trkpt><trkpt lat="42.67799441829469" lon="2.850323557162141"><ele>49.0</ele><time>2026-04-08T11:47:49.999Z</time></trkpt><trkpt lat="42.6780204380421" lon="2.850448040114402"><ele>48.83333333333333</ele><time>2026-04-08T11:47:51.999Z</time></trkpt><trkpt lat="42.67802870983646" lon="2.8505411660949567"><ele>48.666666666666664</ele><time>2026-04-08T11:47:54.999Z</time></trkpt><trkpt lat="42.67800761707145" lon="2.850659416967701"><ele>48.5</ele><time>2026-04-08T11:47:56.999Z</time></trkpt><trkpt lat="42.677973336470664" lon="2.8507317318475947"><ele>48.33333333333333</ele><time>2026-04-08T11:47:57.999Z</time></trkpt><trkpt lat="42.6779213603297" lon="2.850785760587971"><ele>48.166666666666664</ele><time>2026-04-08T11:47:58.999Z</time></trkpt><trkpt lat="42.67789823714563" lon="2.850887899297752"><ele>48.0</ele><time>2026-04-08T11:47:59.999Z</time></trkpt><trkpt lat="42.677915324322306" lon="2.851093417637688"><ele>48.0</ele><time>2026-04-08T11:48:01.999Z</time></trkpt><trkpt lat="42.67795334241729" lon="2.8511818192038874"><ele>48.0</ele><time>2026-04-08T11:48:02.999Z</time></trkpt><trkpt lat="42.67801787500925" lon="2.851248023615942"><ele>48.0</ele><time>2026-04-08T11:48:03.999Z</time></trkpt><trkpt lat="42.67808952182021" lon="2.8512876828953195"><ele>48.0</ele><time>2026-04-08T11:48:04.999Z</time></trkpt><trkpt lat="42.678167421043355" lon="2.8512994375855056"><ele>48.0</ele><time>2026-04-08T11:48:05.999Z</time></trkpt><trkpt lat="42.678248617125206" lon="2.8512719134820483"><ele>48.0</ele><time>2026-04-08T11:48:06.999Z</time></trkpt><trkpt lat="42.67832402222309" lon="2.85120683699816"><ele>48.0</ele><time>2026-04-08T11:48:07.999Z</time></trkpt><trkpt lat="42.6783743781856" lon="2.85110967089891"><ele>48.0</ele><time>2026-04-08T11:48:08.999Z</time></trkpt><trkpt lat="42.678422576677725" lon="2.85103494877872"><ele>48.0</ele><time>2026-04-08T11:48:09.999Z</time></trkpt><trkpt lat="42.67849629899092" lon="2.850978787951574"><ele>48.0</ele><time>2026-04-08T11:48:10.999Z</time></trkpt><trkpt lat="42.67858621953057" lon="2.85092367445427"><ele>48.0</ele><time>2026-04-08T11:48:11.999Z</time></trkpt><trkpt lat="42.678677800216164" lon="2.8508925021366944"><ele>48.0</ele><time>2026-04-08T11:48:12.999Z</time></trkpt><trkpt lat="42.67878197804294" lon="2.8508796271837045"><ele>47.8</ele><time>2026-04-08T11:48:13.999Z</time></trkpt><trkpt lat="42.678883341901845" lon="2.8508785726426527"><ele>47.599999999999994</ele><time>2026-04-08T11:48:14.999Z</time></trkpt><trkpt lat="42.67899221700874" lon="2.8508903737743854"><ele>47.400000000000006</ele><time>2026-04-08T11:48:15.999Z</time></trkpt><trkpt lat="42.6791051472708" lon="2.850916938669225"><ele>47.2</ele><time>2026-04-08T11:48:16.999Z</time></trkpt><trkpt lat="42.679222154767785" lon="2.850961368597125"><ele>47.0</ele><time>2026-04-08T11:48:17.999Z</time></trkpt><trkpt lat="42.679337158816175" lon="2.8510105703194166"><ele>47.0</ele><time>2026-04-08T11:48:18.999Z</time></trkpt><trkpt lat="42.67945553379831" lon="2.851065572150429"><ele>47.0</ele><time>2026-04-08T11:48:19.999Z</time></trkpt><trkpt lat="42.679583657165594" lon="2.851122605286985"><ele>47.0</ele><time>2026-04-08T11:48:20.999Z</time></trkpt><trkpt lat="42.67971921956015" lon="2.8511834606672655"><ele>47.0</ele><time>2026-04-08T11:48:21.999Z</time></trkpt><trkpt lat="42.67985936162148" lon="2.85124755066724"><ele>47.0</ele><time>2026-04-08T11:48:22.999Z</time></trkpt><trkpt lat="42.67999934480016" lon="2.8513072904640864"><ele>47.0</ele><time>2026-04-08T11:48:23.999Z</time></trkpt><trkpt lat="42.680127980249" lon="2.851365155917901"><ele>47.0</ele><time>2026-04-08T11:48:25Z</time></trkpt><trkpt lat="42.68024629255754" lon="2.8514348140420256"><ele>47.0</ele><time>2026-04-08T11:48:26Z</time></trkpt><trkpt lat="42.68035891204078" lon="2.851526643410368"><ele>47.2</ele><time>2026-04-08T11:48:27Z</time></trkpt><trkpt lat="42.68046341623298" lon="2.851624002263354"><ele>47.400000000000006</ele><time>2026-04-08T11:48:28Z</time></trkpt><trkpt lat="42.68055785743744" lon="2.851713243592026"><ele>47.599999999999994</ele><time>2026-04-08T11:48:29Z</time></trkpt><trkpt lat="42.68064524191734" lon="2.8517922303396057"><ele>47.8</ele><time>2026-04-08T11:48:30Z</time></trkpt><trkpt lat="42.68072990655799" lon="2.851862595210369"><ele>48.0</ele><time>2026-04-08T11:48:31Z</time></trkpt><trkpt lat="42.68080163608172" lon="2.851903034635836"><ele>48.0</ele><time>2026-04-08T11:48:32Z</time></trkpt><trkpt lat="42.68090470775537" lon="2.8519473465640943"><ele>48.0</ele><time>2026-04-08T11:48:34Z</time></trkpt><trkpt lat="42.680969284405776" lon="2.8519576317490483"><ele>48.0</ele><time>2026-04-08T11:48:36Z</time></trkpt><trkpt lat="42.68103261779412" lon="2.8519913226839133"><ele>48.0</ele><time>2026-04-08T11:48:40Z</time></trkpt><trkpt lat="42.681106780810715" lon="2.8520309052237227"><ele>48.0</ele><time>2026-04-08T11:48:44Z</time></trkpt><trkpt lat="42.681136272044085" lon="2.852114494665575"><ele>48.0</ele><time>2026-04-08T11:48:45Z</time></trkpt><trkpt lat="42.68117593808532" lon="2.8522740921325047"><ele>48.0</ele><time>2026-04-08T11:48:47Z</time></trkpt><trkpt lat="42.68116870751331" lon="2.852370642193076"><ele>48.0</ele><time>2026-04-08T11:48:48Z</time></trkpt><trkpt lat="42.68113769176559" lon="2.8524658774150007"><ele>48.0</ele><time>2026-04-08T11:48:49Z</time></trkpt><trkpt lat="42.68109004415643" lon="2.8525542993679425"><ele>48.0</ele><time>2026-04-08T11:48:50Z</time></trkpt><trkpt lat="42.68103389741586" lon="2.852638565516159"><ele>48.0</ele><time>2026-04-08T11:48:51Z</time></trkpt><trkpt lat="42.680970810061574" lon="2.8527237414494153"><ele>48.0</ele><time>2026-04-08T11:48:52Z</time></trkpt><trkpt lat="42.68091856526939" lon="2.8528182006513116"><ele>47.833333333333336</ele><time>2026-04-08T11:48:53Z</time></trkpt><trkpt lat="42.68087943441601" lon="2.8529226028853403"><ele>47.666666666666664</ele><time>2026-04-08T11:48:54Z</time></trkpt><trkpt lat="42.680859604331395" lon="2.8530356317771686"><ele>47.5</ele><time>2026-04-08T11:48:55Z</time></trkpt><trkpt lat="42.68085535340846" lon="2.8531525648762477"><ele>47.33333333333333</ele><time>2026-04-08T11:48:56Z</time></trkpt><trkpt lat="42.680862480345574" lon="2.853266535957388"><ele>47.166666666666664</ele><time>2026-04-08T11:48:57Z</time></trkpt><trkpt lat="42.680881134882014" lon="2.8533874995899446"><ele>47.0</ele><time>2026-04-08T11:48:58Z</time></trkpt><trkpt lat="42.68090242517985" lon="2.853517943491869"><ele>47.0</ele><time>2026-04-08T11:48:59Z</time></trkpt><trkpt lat="42.68092492334463" lon="2.853674474656987"><ele>47.0</ele><time>2026-04-08T11:49:00Z</time></trkpt><trkpt lat="42.68095488640958" lon="2.8538388526744654"><ele>47.0</ele><time>2026-04-08T11:49:01Z</time></trkpt><trkpt lat="42.68097726068941" lon="2.8539844559448513"><ele>47.0</ele><time>2026-04-08T11:49:02Z</time></trkpt><trkpt lat="42.68100099630464" lon="2.854130444167623"><ele>47.0</ele><time>2026-04-08T11:49:03Z</time></trkpt><trkpt lat="42.681022695706346" lon="2.8542450251194724"><ele>47.0</ele><time>2026-04-08T11:49:04Z</time></trkpt><trkpt lat="42.681081576787314" lon="2.854470420159313"><ele>47.0</ele><time>2026-04-08T11:49:06Z</time></trkpt><trkpt lat="42.68111637862475" lon="2.854637823314601"><ele>47.0</ele><time>2026-04-08T11:49:07Z</time></trkpt><trkpt lat="42.68115965153878" lon="2.854768167371671"><ele>47.0</ele><time>2026-04-08T11:49:08Z</time></trkpt><trkpt lat="42.681207988083095" lon="2.854892768591334"><ele>47.0</ele><time>2026-04-08T11:49:09Z</time></trkpt><trkpt lat="42.68126394995735" lon="2.8550124978543123"><ele>47.0</ele><time>2026-04-08T11:49:10Z</time></trkpt><trkpt lat="42.68132000039767" lon="2.855135461524854"><ele>47.0</ele><time>2026-04-08T11:49:11Z</time></trkpt><trkpt lat="42.68138107501435" lon="2.8552562676632007"><ele>47.0</ele><time>2026-04-08T11:49:12Z</time></trkpt><trkpt lat="42.68144181378171" lon="2.8553751978266115"><ele>47.25</ele><time>2026-04-08T11:49:13Z</time></trkpt><trkpt lat="42.68150539787973" lon="2.8554952793264983"><ele>47.5</ele><time>2026-04-08T11:49:14Z</time></trkpt><trkpt lat="42.68160687634125" lon="2.8556430257380887"><ele>47.75</ele><time>2026-04-08T11:49:15Z</time></trkpt><trkpt lat="42.68170998584572" lon="2.855853910340125"><ele>48.0</ele><time>2026-04-08T11:49:16Z</time></trkpt><trkpt lat="42.68176469917172" lon="2.8559256408360345"><ele>47.599999999999994</ele><time>2026-04-08T11:49:17Z</time></trkpt><trkpt lat="42.68182843613769" lon="2.856044844367711"><ele>47.199999999999996</ele><time>2026-04-08T11:49:19Z</time></trkpt><trkpt lat="42.68190492562819" lon="2.8561329812413225"><ele>46.8</ele><time>2026-04-08T11:49:20Z</time></trkpt><trkpt lat="42.68198097223867" lon="2.856225252101813"><ele>46.4</ele><time>2026-04-08T11:49:21Z</time></trkpt><trkpt lat="42.68206110973742" lon="2.856310624757149"><ele>46.0</ele><time>2026-04-08T11:49:22Z</time></trkpt><trkpt lat="42.682145509668985" lon="2.8563971914868556"><ele>45.8</ele><time>2026-04-08T11:49:23Z</time></trkpt><trkpt lat="42.68222759663356" lon="2.8564667633440273"><ele>45.599999999999994</ele><time>2026-04-08T11:49:24Z</time></trkpt><trkpt lat="42.68230561150337" lon="2.856528048209921"><ele>45.4</ele><time>2026-04-08T11:49:25Z</time></trkpt><trkpt lat="42.68238755589689" lon="2.856572698391328"><ele>45.2</ele><time>2026-04-08T11:49:26Z</time></trkpt><trkpt lat="42.68247320579733" lon="2.856646054613576"><ele>45.0</ele><time>2026-04-08T11:49:27Z</time></trkpt><trkpt lat="42.68254242513903" lon="2.8567160727399292"><ele>45.0</ele><time>2026-04-08T11:49:28Z</time></trkpt><trkpt lat="42.68263228575049" lon="2.856758420377845"><ele>45.0</ele><time>2026-04-08T11:49:30Z</time></trkpt><trkpt lat="42.68259078135756" lon="2.857004297361959"><ele>45.0</ele><time>2026-04-08T11:49:31Z</time></trkpt><trkpt lat="42.68256479599754" lon="2.8571120572311597"><ele>45.0</ele><time>2026-04-08T11:49:32Z</time></trkpt><trkpt lat="42.68252616040607" lon="2.85722632939703"><ele>44.6</ele><time>2026-04-08T11:49:33Z</time></trkpt><trkpt lat="42.682478295560095" lon="2.8573289963495583"><ele>44.2</ele><time>2026-04-08T11:49:34Z</time></trkpt><trkpt lat="42.68241974591904" lon="2.857425491399672"><ele>43.8</ele><time>2026-04-08T11:49:35Z</time></trkpt><trkpt lat="42.68235031342334" lon="2.857502098019539"><ele>43.4</ele><time>2026-04-08T11:49:36Z</time></trkpt><trkpt lat="42.68226731555723" lon="2.857544897339309"><ele>43.0</ele><time>2026-04-08T11:49:36.999Z</time></trkpt><trkpt lat="42.682173882615196" lon="2.857562287437265"><ele>43.0</ele><time>2026-04-08T11:49:37.999Z</time></trkpt><trkpt lat="42.682083963189406" lon="2.8575397642825386"><ele>43.0</ele><time>2026-04-08T11:49:38.999Z</time></trkpt><trkpt lat="42.68199712553167" lon="2.857484246565036"><ele>43.0</ele><time>2026-04-08T11:49:39.999Z</time></trkpt><trkpt lat="42.68192672591904" lon="2.8574011713553396"><ele>43.0</ele><time>2026-04-08T11:49:40.999Z</time></trkpt><trkpt lat="42.6818756674667" lon="2.8572926822453124"><ele>43.0</ele><time>2026-04-08T11:49:41.999Z</time></trkpt><trkpt lat="42.681845501935925" lon="2.857171203739977"><ele>43.0</ele><time>2026-04-08T11:49:42.999Z</time></trkpt><trkpt lat="42.681842965779005" lon="2.8570394990360732"><ele>43.0</ele><time>2026-04-08T11:49:43.999Z</time></trkpt><trkpt lat="42.68186008915005" lon="2.856904718984737"><ele>43.0</ele><time>2026-04-08T11:49:44.999Z</time></trkpt><trkpt lat="42.68190730770885" lon="2.856779320924458"><ele>43.0</ele><time>2026-04-08T11:49:45.999Z</time></trkpt><trkpt lat="42.68198069024185" lon="2.8566786009121095"><ele>43.0</ele><time>2026-04-08T11:49:46.999Z</time></trkpt><trkpt lat="42.68206806167295" lon="2.856598177336877"><ele>43.5</ele><time>2026-04-08T11:49:47.999Z</time></trkpt><trkpt lat="42.68217882601641" lon="2.856527010615896"><ele>44.0</ele><time>2026-04-08T11:49:48.999Z</time></trkpt><trkpt lat="42.6823044801368" lon="2.8564529250434276"><ele>44.5</ele><time>2026-04-08T11:49:49.999Z</time></trkpt><trkpt lat="42.68243783615535" lon="2.8563651594135786"><ele>45.0</ele><time>2026-04-08T11:49:50.999Z</time></trkpt><trkpt lat="42.68258144811117" lon="2.856263424087931"><ele>45.0</ele><time>2026-04-08T11:49:51.999Z</time></trkpt><trkpt lat="42.68273262471552" lon="2.8561525455428014"><ele>45.0</ele><time>2026-04-08T11:49:52.999Z</time></trkpt><trkpt lat="42.682892255073796" lon="2.8560419731344195"><ele>45.0</ele><time>2026-04-08T11:49:53.999Z</time></trkpt><trkpt lat="42.68305602173651" lon="2.8559368240545755"><ele>46.0</ele><time>2026-04-08T11:49:54.999Z</time></trkpt><trkpt lat="42.6832241584461" lon="2.855835793544447"><ele>47.0</ele><time>2026-04-08T11:49:55.999Z</time></trkpt><trkpt lat="42.683392563834246" lon="2.855733039255755"><ele>48.0</ele><time>2026-04-08T11:49:56.999Z</time></trkpt><trkpt lat="42.683557379221824" lon="2.85563962477554"><ele>48.0</ele><time>2026-04-08T11:49:57.999Z</time></trkpt><trkpt lat="42.683718187850126" lon="2.855552695195006"><ele>48.0</ele><time>2026-04-08T11:49:58.999Z</time></trkpt><trkpt lat="42.68387578609439" lon="2.855472962623573"><ele>48.0</ele><time>2026-04-08T11:49:59.999Z</time></trkpt><trkpt lat="42.68404143557185" lon="2.855396516687355"><ele>48.0</ele><time>2026-04-08T11:50:00.999Z</time></trkpt><trkpt lat="42.68420480350673" lon="2.855315416801296"><ele>48.0</ele><time>2026-04-08T11:50:01.999Z</time></trkpt><trkpt lat="42.684369908614556" lon="2.8552324179007362"><ele>48.0</ele><time>2026-04-08T11:50:02.999Z</time></trkpt><trkpt lat="42.684532437892884" lon="2.8551567627415175"><ele>47.666666666666664</ele><time>2026-04-08T11:50:03.999Z</time></trkpt><trkpt lat="42.684699571378765" lon="2.8550709218909636"><ele>47.33333333333333</ele><time>2026-04-08T11:50:04.999Z</time></trkpt><trkpt lat="42.68486251348307" lon="2.8549882989266844"><ele>47.0</ele><time>2026-04-08T11:50:05.999Z</time></trkpt><trkpt lat="42.6850295677024" lon="2.854905370831684"><ele>47.0</ele><time>2026-04-08T11:50:06.999Z</time></trkpt><trkpt lat="42.68520624760049" lon="2.8548160567605185"><ele>47.0</ele><time>2026-04-08T11:50:07.999Z</time></trkpt><trkpt lat="42.685381876135175" lon="2.8547218430211716"><ele>47.0</ele><time>2026-04-08T11:50:08.999Z</time></trkpt><trkpt lat="42.68555510285867" lon="2.854629417592636"><ele>46.666666666666664</ele><time>2026-04-08T11:50:09.999Z</time></trkpt><trkpt lat="42.68572588557172" lon="2.8545444593396705"><ele>46.333333333333336</ele><time>2026-04-08T11:50:10.999Z</time></trkpt><trkpt lat="42.685894716294165" lon="2.8544611910143933"><ele>46.0</ele><time>2026-04-08T11:50:11.999Z</time></trkpt><trkpt lat="42.68606205722613" lon="2.8543783666907183"><ele>46.0</ele><time>2026-04-08T11:50:12.999Z</time></trkpt><trkpt lat="42.686227839993904" lon="2.8542927927418"><ele>46.0</ele><time>2026-04-08T11:50:13.999Z</time></trkpt><trkpt lat="42.68639232456987" lon="2.8542100612548187"><ele>46.0</ele><time>2026-04-08T11:50:14.999Z</time></trkpt><trkpt lat="42.68655798514354" lon="2.854127953294679"><ele>46.0</ele><time>2026-04-08T11:50:15.999Z</time></trkpt><trkpt lat="42.68672774774467" lon="2.854045810744684"><ele>46.0</ele><time>2026-04-08T11:50:16.999Z</time></trkpt><trkpt lat="42.686900087396154" lon="2.8539604591147887"><ele>46.0</ele><time>2026-04-08T11:50:17.999Z</time></trkpt><trkpt lat="42.68707401068487" lon="2.8538756267640535"><ele>46.333333333333336</ele><time>2026-04-08T11:50:18.999Z</time></trkpt><trkpt lat="42.687249026202835" lon="2.8537853384259373"><ele>46.666666666666664</ele><time>2026-04-08T11:50:19.999Z</time></trkpt><trkpt lat="42.68742107979241" lon="2.8536912070233074"><ele>47.0</ele><time>2026-04-08T11:50:20.999Z</time></trkpt><trkpt lat="42.68759281372799" lon="2.8536020079230555"><ele>47.0</ele><time>2026-04-08T11:50:21.999Z</time></trkpt><trkpt lat="42.68776580518417" lon="2.8535181143351016"><ele>47.0</ele><time>2026-04-08T11:50:22.999Z</time></trkpt><trkpt lat="42.687940374578616" lon="2.8534325091716077"><ele>47.0</ele><time>2026-04-08T11:50:23.999Z</time></trkpt><trkpt lat="42.68811172546756" lon="2.853345932026383"><ele>48.0</ele><time>2026-04-08T11:50:24.999Z</time></trkpt><trkpt lat="42.68827969000957" lon="2.8532545966076333"><ele>49.0</ele><time>2026-04-08T11:50:25.999Z</time></trkpt><trkpt lat="42.688443258885165" lon="2.853173492890329"><ele>50.0</ele><time>2026-04-08T11:50:26.999Z</time></trkpt><trkpt lat="42.68859938320893" lon="2.8530913583712807"><ele>50.0</ele><time>2026-04-08T11:50:27.999Z</time></trkpt><trkpt lat="42.6887448964945" lon="2.8530198163893647"><ele>50.0</ele><time>2026-04-08T11:50:28.999Z</time></trkpt><trkpt lat="42.68888057915496" lon="2.8529528946987246"><ele>50.0</ele><time>2026-04-08T11:50:29.999Z</time></trkpt><trkpt lat="42.68899664579123" lon="2.852893399404578"><ele>50.0</ele><time>2026-04-08T11:50:31Z</time></trkpt><trkpt lat="42.689100454273884" lon="2.852838388063147"><ele>50.0</ele><time>2026-04-08T11:50:32Z</time></trkpt><trkpt lat="42.689201068881246" lon="2.852787773432901"><ele>50.0</ele><time>2026-04-08T11:50:33Z</time></trkpt><trkpt lat="42.689296480577056" lon="2.8527367854401624"><ele>50.0</ele><time>2026-04-08T11:50:34Z</time></trkpt><trkpt lat="42.689375874290846" lon="2.852689803127806"><ele>50.0</ele><time>2026-04-08T11:50:35Z</time></trkpt><trkpt lat="42.689462680275604" lon="2.8526677741570476"><ele>50.0</ele><time>2026-04-08T11:50:36Z</time></trkpt><trkpt lat="42.68952766710062" lon="2.852611751411775"><ele>49.833333333333336</ele><time>2026-04-08T11:50:37Z</time></trkpt><trkpt lat="42.68959840293581" lon="2.8525774148763143"><ele>49.66666666666667</ele><time>2026-04-08T11:50:38Z</time></trkpt><trkpt lat="42.68966887794521" lon="2.852564001520439"><ele>49.5</ele><time>2026-04-08T11:50:39Z</time></trkpt><trkpt lat="42.68973321355625" lon="2.85250936507812"><ele>49.33333333333333</ele><time>2026-04-08T11:50:40Z</time></trkpt><trkpt lat="42.68979947379901" lon="2.8524800429922172"><ele>49.166666666666664</ele><time>2026-04-08T11:50:41Z</time></trkpt><trkpt lat="42.689893534923115" lon="2.8524336923150684"><ele>49.0</ele><time>2026-04-08T11:50:43Z</time></trkpt><trkpt lat="42.68996653074713" lon="2.8523986862849746"><ele>49.0</ele><time>2026-04-08T11:50:46Z</time></trkpt><trkpt lat="42.690045123108945" lon="2.8523658851993874"><ele>49.0</ele><time>2026-04-08T11:50:48Z</time></trkpt><trkpt lat="42.69014681340703" lon="2.8523212965488405"><ele>49.0</ele><time>2026-04-08T11:50:50Z</time></trkpt><trkpt lat="42.690268071358155" lon="2.852267822539291"><ele>49.0</ele><time>2026-04-08T11:50:52Z</time></trkpt><trkpt lat="42.69038102279645" lon="2.852221815919678"><ele>49.0</ele><time>2026-04-08T11:50:54Z</time></trkpt><trkpt lat="42.69048359233395" lon="2.852185717639367"><ele>49.33333333333333</ele><time>2026-04-08T11:50:56Z</time></trkpt><trkpt lat="42.69059205839477" lon="2.852189130114158"><ele>49.666666666666664</ele><time>2026-04-08T11:50:58Z</time></trkpt><trkpt lat="42.690649343612385" lon="2.8522271270898214"><ele>50.0</ele><time>2026-04-08T11:50:59Z</time></trkpt><trkpt lat="42.690705590448445" lon="2.8522847792046155"><ele>50.33333333333333</ele><time>2026-04-08T11:51:00Z</time></trkpt><trkpt lat="42.69076338447943" lon="2.8523492135967508"><ele>50.666666666666664</ele><time>2026-04-08T11:51:01Z</time></trkpt><trkpt lat="42.690827143462464" lon="2.852411400240834"><ele>51.0</ele><time>2026-04-08T11:51:02Z</time></trkpt><trkpt lat="42.690896463219445" lon="2.852428919593703"><ele>51.0</ele><time>2026-04-08T11:51:03Z</time></trkpt><trkpt lat="42.690968778980185" lon="2.852424551627984"><ele>51.0</ele><time>2026-04-08T11:51:04Z</time></trkpt><trkpt lat="42.691039353980706" lon="2.8523883065898"><ele>51.0</ele><time>2026-04-08T11:51:05Z</time></trkpt><trkpt lat="42.69110451841075" lon="2.8523357350703202"><ele>51.0</ele><time>2026-04-08T11:51:06Z</time></trkpt><trkpt lat="42.69115946147207" lon="2.8522589913486787"><ele>51.0</ele><time>2026-04-08T11:51:07Z</time></trkpt><trkpt lat="42.69120278688277" lon="2.8521689096540475"><ele>51.0</ele><time>2026-04-08T11:51:08Z</time></trkpt><trkpt lat="42.69124178943368" lon="2.852073883027139"><ele>50.199999999999996</ele><time>2026-04-08T11:51:09Z</time></trkpt><trkpt lat="42.6912917442142" lon="2.851976226958276"><ele>49.4</ele><time>2026-04-08T11:51:10Z</time></trkpt><trkpt lat="42.69135845235336" lon="2.851887641177535"><ele>48.6</ele><time>2026-04-08T11:51:11Z</time></trkpt><trkpt lat="42.691443539967544" lon="2.851817445025557"><ele>47.8</ele><time>2026-04-08T11:51:12Z</time></trkpt><trkpt lat="42.69154469890536" lon="2.8517613404027"><ele>47.0</ele><time>2026-04-08T11:51:13Z</time></trkpt><trkpt lat="42.69165119512196" lon="2.8517240147102334"><ele>46.75</ele><time>2026-04-08T11:51:14Z</time></trkpt><trkpt lat="42.691760292614205" lon="2.8516870787955724"><ele>46.5</ele><time>2026-04-08T11:51:15Z</time></trkpt><trkpt lat="42.69188407243942" lon="2.8516417944170236"><ele>46.25</ele><time>2026-04-08T11:51:16Z</time></trkpt><trkpt lat="42.69203718432813" lon="2.851581031768083"><ele>46.0</ele><time>2026-04-08T11:51:17Z</time></trkpt><trkpt lat="42.69215149319514" lon="2.8515330834856885"><ele>45.66666666666667</ele><time>2026-04-08T11:51:18Z</time></trkpt><trkpt lat="42.69231000430459" lon="2.851466150002745"><ele>45.333333333333336</ele><time>2026-04-08T11:51:19Z</time></trkpt><trkpt lat="42.69246778939759" lon="2.851403851673203"><ele>45.0</ele><time>2026-04-08T11:51:20Z</time></trkpt><trkpt lat="42.69263120447146" lon="2.851342501750434"><ele>44.666666666666664</ele><time>2026-04-08T11:51:21Z</time></trkpt><trkpt lat="42.69280039932017" lon="2.8512814844591587"><ele>44.33333333333333</ele><time>2026-04-08T11:51:22Z</time></trkpt><trkpt lat="42.69296920273695" lon="2.851219921452068"><ele>44.0</ele><time>2026-04-08T11:51:23Z</time></trkpt><trkpt lat="42.69313501306906" lon="2.851156820332566"><ele>44.0</ele><time>2026-04-08T11:51:24Z</time></trkpt><trkpt lat="42.69330075267216" lon="2.851092461213855"><ele>44.0</ele><time>2026-04-08T11:51:25Z</time></trkpt><trkpt lat="42.693469260250225" lon="2.8510269065379275"><ele>44.0</ele><time>2026-04-08T11:51:26Z</time></trkpt><trkpt lat="42.69361674332911" lon="2.850959109837101"><ele>44.25</ele><time>2026-04-08T11:51:27Z</time></trkpt><trkpt lat="42.69376316774513" lon="2.850903974576418"><ele>44.5</ele><time>2026-04-08T11:51:28Z</time></trkpt><trkpt lat="42.69389935697368" lon="2.850851741144782"><ele>44.75</ele><time>2026-04-08T11:51:29Z</time></trkpt><trkpt lat="42.69403008943555" lon="2.850814548736366"><ele>45.0</ele><time>2026-04-08T11:51:30Z</time></trkpt><trkpt lat="42.694156980176494" lon="2.8507921969452577"><ele>45.0</ele><time>2026-04-08T11:51:31Z</time></trkpt><trkpt lat="42.69437113775076" lon="2.8507787934263256"><ele>45.0</ele><time>2026-04-08T11:51:32Z</time></trkpt><trkpt lat="42.6945508166844" lon="2.8507947048206246"><ele>45.0</ele><time>2026-04-08T11:51:34Z</time></trkpt><trkpt lat="42.694679948076995" lon="2.8508353269491984"><ele>45.0</ele><time>2026-04-08T11:51:35Z</time></trkpt><trkpt lat="42.69481899740538" lon="2.850896658456658"><ele>45.0</ele><time>2026-04-08T11:51:36Z</time></trkpt><trkpt lat="42.694947321745694" lon="2.8509982552272293"><ele>45.0</ele><time>2026-04-08T11:51:37Z</time></trkpt><trkpt lat="42.69506910056741" lon="2.8510947844898884"><ele>45.0</ele><time>2026-04-08T11:51:38Z</time></trkpt><trkpt lat="42.6951854539746" lon="2.8512055713528337"><ele>44.666666666666664</ele><time>2026-04-08T11:51:39Z</time></trkpt><trkpt lat="42.69531176387114" lon="2.8513200630230795"><ele>44.33333333333333</ele><time>2026-04-08T11:51:39.999Z</time></trkpt><trkpt lat="42.69542438188825" lon="2.8514826547742813"><ele>44.0</ele><time>2026-04-08T11:51:40.999Z</time></trkpt><trkpt lat="42.69553989072014" lon="2.851663061508304"><ele>43.0</ele><time>2026-04-08T11:51:41.999Z</time></trkpt><trkpt lat="42.69565542435828" lon="2.85185211799264"><ele>42.0</ele><time>2026-04-08T11:51:42.999Z</time></trkpt><trkpt lat="42.6957746319763" lon="2.852049406980773"><ele>41.0</ele><time>2026-04-08T11:51:43.999Z</time></trkpt><trkpt lat="42.69589869888539" lon="2.8522573465200485"><ele>41.0</ele><time>2026-04-08T11:51:44.999Z</time></trkpt><trkpt lat="42.6960300173989" lon="2.852469346700526"><ele>41.0</ele><time>2026-04-08T11:51:45.999Z</time></trkpt><trkpt lat="42.69616076341445" lon="2.8526880072976377"><ele>41.0</ele><time>2026-04-08T11:51:46.999Z</time></trkpt><trkpt lat="42.696296823188796" lon="2.8529119771390423"><ele>41.33333333333333</ele><time>2026-04-08T11:51:47.999Z</time></trkpt><trkpt lat="42.69643552529848" lon="2.853133618505033"><ele>41.666666666666664</ele><time>2026-04-08T11:51:48.999Z</time></trkpt><trkpt lat="42.69656804646404" lon="2.8533523499129876"><ele>42.0</ele><time>2026-04-08T11:51:49.999Z</time></trkpt><trkpt lat="42.69669838103734" lon="2.8535824179026026"><ele>42.0</ele><time>2026-04-08T11:51:50.999Z</time></trkpt><trkpt lat="42.69681425700067" lon="2.8538207048626747"><ele>42.0</ele><time>2026-04-08T11:51:51.999Z</time></trkpt><trkpt lat="42.696914970539694" lon="2.854076106866188"><ele>42.0</ele><time>2026-04-08T11:51:52.999Z</time></trkpt><trkpt lat="42.69699497901875" lon="2.85433935473503"><ele>40.333333333333336</ele><time>2026-04-08T11:51:53.999Z</time></trkpt><trkpt lat="42.69706065400771" lon="2.854611353651199"><ele>38.66666666666667</ele><time>2026-04-08T11:51:54.999Z</time></trkpt><trkpt lat="42.69710349667773" lon="2.8549001847274926"><ele>37.0</ele><time>2026-04-08T11:51:55.999Z</time></trkpt><trkpt lat="42.697112180762694" lon="2.8552020285735766"><ele>37.0</ele><time>2026-04-08T11:51:56.999Z</time></trkpt><trkpt lat="42.697131712596445" lon="2.8554990592998353"><ele>37.0</ele><time>2026-04-08T11:51:57.999Z</time></trkpt><trkpt lat="42.697146163199925" lon="2.8558039826968176"><ele>37.0</ele><time>2026-04-08T11:51:58.999Z</time></trkpt><trkpt lat="42.6971574562505" lon="2.8561069141085444"><ele>36.333333333333336</ele><time>2026-04-08T11:51:59.999Z</time></trkpt><trkpt lat="42.69716854370261" lon="2.8564030919578145"><ele>35.666666666666664</ele><time>2026-04-08T11:52:00.999Z</time></trkpt><trkpt lat="42.69717591388976" lon="2.856685762350769"><ele>35.0</ele><time>2026-04-08T11:52:01.999Z</time></trkpt><trkpt lat="42.69717901046758" lon="2.856965624568472"><ele>35.0</ele><time>2026-04-08T11:52:02.999Z</time></trkpt><trkpt lat="42.69718284992532" lon="2.857237506127474"><ele>35.0</ele><time>2026-04-08T11:52:03.999Z</time></trkpt><trkpt lat="42.6971911651562" lon="2.857502214255979"><ele>35.0</ele><time>2026-04-08T11:52:04.999Z</time></trkpt><trkpt lat="42.697203400450334" lon="2.8577617636237584"><ele>35.0</ele><time>2026-04-08T11:52:05.999Z</time></trkpt><trkpt lat="42.69721789012439" lon="2.858023547251716"><ele>35.0</ele><time>2026-04-08T11:52:06.999Z</time></trkpt><trkpt lat="42.697230487018444" lon="2.8582839149850616"><ele>35.0</ele><time>2026-04-08T11:52:07.999Z</time></trkpt><trkpt lat="42.697243025865255" lon="2.8585452051280758"><ele>35.666666666666664</ele><time>2026-04-08T11:52:08.999Z</time></trkpt><trkpt lat="42.697253199088834" lon="2.8588029055760864"><ele>36.333333333333336</ele><time>2026-04-08T11:52:09.999Z</time></trkpt><trkpt lat="42.69726502137574" lon="2.859057324073079"><ele>37.0</ele><time>2026-04-08T11:52:10.999Z</time></trkpt><trkpt lat="42.69727990553417" lon="2.859308984798876"><ele>37.66666666666667</ele><time>2026-04-08T11:52:11.999Z</time></trkpt><trkpt lat="42.69729326695851" lon="2.8595623243849713"><ele>38.333333333333336</ele><time>2026-04-08T11:52:12.999Z</time></trkpt><trkpt lat="42.69730441021475" lon="2.8598157713720713"><ele>39.0</ele><time>2026-04-08T11:52:13.999Z</time></trkpt><trkpt lat="42.69731434234835" lon="2.8600739617095923"><ele>39.0</ele><time>2026-04-08T11:52:14.999Z</time></trkpt><trkpt lat="42.69732010960011" lon="2.860336846312256"><ele>39.0</ele><time>2026-04-08T11:52:15.999Z</time></trkpt><trkpt lat="42.69732545277527" lon="2.860602475048174"><ele>39.0</ele><time>2026-04-08T11:52:16.999Z</time></trkpt><trkpt lat="42.69733294228322" lon="2.8608588296247315"><ele>39.333333333333336</ele><time>2026-04-08T11:52:17.999Z</time></trkpt><trkpt lat="42.69734126906884" lon="2.8611171845720946"><ele>39.66666666666667</ele><time>2026-04-08T11:52:18.999Z</time></trkpt><trkpt lat="42.69734758201929" lon="2.861371326769658"><ele>40.0</ele><time>2026-04-08T11:52:19.999Z</time></trkpt><trkpt lat="42.69735423797885" lon="2.861603647375429"><ele>39.25</ele><time>2026-04-08T11:52:20.999Z</time></trkpt><trkpt lat="42.69736322073899" lon="2.861805741629827"><ele>38.5</ele><time>2026-04-08T11:52:21.999Z</time></trkpt><trkpt lat="42.69737259584569" lon="2.8620093070834796"><ele>37.75</ele><time>2026-04-08T11:52:22.999Z</time></trkpt><trkpt lat="42.69738199676966" lon="2.862198175119639"><ele>37.0</ele><time>2026-04-08T11:52:23.999Z</time></trkpt><trkpt lat="42.697391955001535" lon="2.8623918518579172"><ele>37.0</ele><time>2026-04-08T11:52:24.999Z</time></trkpt><trkpt lat="42.69740162568678" lon="2.862566221380695"><ele>37.0</ele><time>2026-04-08T11:52:25.999Z</time></trkpt><trkpt lat="42.69740956758971" lon="2.862753151569403"><ele>37.0</ele><time>2026-04-08T11:52:26.999Z</time></trkpt><trkpt lat="42.6974407100542" lon="2.8629746099263653"><ele>37.0</ele><time>2026-04-08T11:52:27.999Z</time></trkpt><trkpt lat="42.697445673163976" lon="2.863112066785336"><ele>37.0</ele><time>2026-04-08T11:52:28.999Z</time></trkpt><trkpt lat="42.697451914501" lon="2.8632610438313684"><ele>37.0</ele><time>2026-04-08T11:52:29.999Z</time></trkpt><trkpt lat="42.69746040437356" lon="2.863393622376734"><ele>37.0</ele><time>2026-04-08T11:52:30.999Z</time></trkpt><trkpt lat="42.697463518331766" lon="2.863485783870631"><ele>37.0</ele><time>2026-04-08T11:52:31.999Z</time></trkpt><trkpt lat="42.697478299750216" lon="2.8636525486985205"><ele>37.0</ele><time>2026-04-08T11:52:33.999Z</time></trkpt><trkpt lat="42.69748586368503" lon="2.8637411606869523"><ele>37.2</ele><time>2026-04-08T11:52:34.999Z</time></trkpt><trkpt lat="42.697497765491924" lon="2.8638962294006736"><ele>37.400000000000006</ele><time>2026-04-08T11:52:37Z</time></trkpt><trkpt lat="42.69750926020085" lon="2.8640570318405865"><ele>37.599999999999994</ele><time>2026-04-08T11:52:39Z</time></trkpt><trkpt lat="42.69751951159857" lon="2.864151671519057"><ele>37.8</ele><time>2026-04-08T11:52:40Z</time></trkpt><trkpt lat="42.69752862004398" lon="2.864241445553085"><ele>38.0</ele><time>2026-04-08T11:52:41Z</time></trkpt><trkpt lat="42.69754748506508" lon="2.8643977766343154"><ele>38.0</ele><time>2026-04-08T11:52:43Z</time></trkpt><trkpt lat="42.69756313776182" lon="2.864493261207474"><ele>38.0</ele><time>2026-04-08T11:52:45Z</time></trkpt><trkpt lat="42.697577895877394" lon="2.864591126149286"><ele>38.0</ele><time>2026-04-08T11:52:50Z</time></trkpt><trkpt lat="42.697595692399" lon="2.864699251924397"><ele>38.0</ele><time>2026-04-08T11:52:53Z</time></trkpt><trkpt lat="42.697629234937544" lon="2.864831961280687"><ele>38.0</ele><time>2026-04-08T11:52:55Z</time></trkpt><trkpt lat="42.697663417433795" lon="2.8649688768972"><ele>38.0</ele><time>2026-04-08T11:52:57Z</time></trkpt><trkpt lat="42.69768386631883" lon="2.865067813475571"><ele>38.0</ele><time>2026-04-08T11:52:59Z</time></trkpt><trkpt lat="42.69769403343027" lon="2.8651559553545405"><ele>38.0</ele><time>2026-04-08T11:53:01Z</time></trkpt><trkpt lat="42.697693944241124" lon="2.8652516512771133"><ele>38.0</ele><time>2026-04-08T11:53:13Z</time></trkpt><trkpt lat="42.697657262969074" lon="2.865375218488279"><ele>38.0</ele><time>2026-04-08T11:53:15Z</time></trkpt><trkpt lat="42.69758363434546" lon="2.8655293969465285"><ele>38.0</ele><time>2026-04-08T11:53:17Z</time></trkpt><trkpt lat="42.69753795720666" lon="2.865613943670228"><ele>38.0</ele><time>2026-04-08T11:53:18Z</time></trkpt><trkpt lat="42.69753198362902" lon="2.865722955451577"><ele>38.0</ele><time>2026-04-08T11:53:19Z</time></trkpt><trkpt lat="42.69754280054419" lon="2.865830243327409"><ele>38.0</ele><time>2026-04-08T11:53:20Z</time></trkpt><trkpt lat="42.69758620036929" lon="2.865924165255582"><ele>38.0</ele><time>2026-04-08T11:53:21Z</time></trkpt><trkpt lat="42.69762968811902" lon="2.8660107565785844"><ele>38.0</ele><time>2026-04-08T11:53:22Z</time></trkpt><trkpt lat="42.697683816927224" lon="2.8660813435025054"><ele>38.0</ele><time>2026-04-08T11:53:23Z</time></trkpt><trkpt lat="42.69775006829814" lon="2.8661379158652855"><ele>38.0</ele><time>2026-04-08T11:53:24Z</time></trkpt><trkpt lat="42.697819845667105" lon="2.8661888837361538"><ele>37.166666666666664</ele><time>2026-04-08T11:53:25Z</time></trkpt><trkpt lat="42.697901985174866" lon="2.8661960631994727"><ele>36.33333333333333</ele><time>2026-04-08T11:53:26Z</time></trkpt><trkpt lat="42.69798705099759" lon="2.8661786067509856"><ele>35.5</ele><time>2026-04-08T11:53:27Z</time></trkpt><trkpt lat="42.69806596157047" lon="2.8661367092997225"><ele>34.666666666666664</ele><time>2026-04-08T11:53:28Z</time></trkpt><trkpt lat="42.6981345375766" lon="2.866069442015089"><ele>33.833333333333336</ele><time>2026-04-08T11:53:29Z</time></trkpt><trkpt lat="42.698187897511495" lon="2.8659876838894665"><ele>33.0</ele><time>2026-04-08T11:53:29.999Z</time></trkpt><trkpt lat="42.698225416601105" lon="2.865892310863995"><ele>32.666666666666664</ele><time>2026-04-08T11:53:30.999Z</time></trkpt><trkpt lat="42.6982577681428" lon="2.8658008913526913"><ele>32.333333333333336</ele><time>2026-04-08T11:53:31.999Z</time></trkpt><trkpt lat="42.69824160704362" lon="2.8656788866542207"><ele>32.0</ele><time>2026-04-08T11:53:32.999Z</time></trkpt><trkpt lat="42.69823603122951" lon="2.8655917960485815"><ele>31.666666666666668</ele><time>2026-04-08T11:53:33.999Z</time></trkpt><trkpt lat="42.69819024331776" lon="2.865432628281812"><ele>31.333333333333336</ele><time>2026-04-08T11:53:35.999Z</time></trkpt><trkpt lat="42.69815055667312" lon="2.865355591981112"><ele>31.0</ele><time>2026-04-08T11:53:36.999Z</time></trkpt><trkpt lat="42.698098257438694" lon="2.8652879635488935"><ele>31.000000000000004</ele><time>2026-04-08T11:53:37.999Z</time></trkpt><trkpt lat="42.69803849171606" lon="2.86523961331471"><ele>31.0</ele><time>2026-04-08T11:53:38.999Z</time></trkpt><trkpt lat="42.6979756296506" lon="2.8651867681793273"><ele>31.0</ele><time>2026-04-08T11:53:39.999Z</time></trkpt><trkpt lat="42.69791878478244" lon="2.8651126783988965"><ele>31.0</ele><time>2026-04-08T11:53:40.999Z</time></trkpt><trkpt lat="42.69787459023566" lon="2.86501975756971"><ele>31.000000000000004</ele><time>2026-04-08T11:53:41.999Z</time></trkpt><trkpt lat="42.69784002554172" lon="2.864903695269075"><ele>31.0</ele><time>2026-04-08T11:53:42.999Z</time></trkpt><trkpt lat="42.6978059934302" lon="2.8647336553709524"><ele>30.75</ele><time>2026-04-08T11:53:43.999Z</time></trkpt><trkpt lat="42.69777790706405" lon="2.8645538226362826"><ele>30.5</ele><time>2026-04-08T11:53:44.999Z</time></trkpt><trkpt lat="42.69775076525603" lon="2.8643727827135343"><ele>30.25</ele><time>2026-04-08T11:53:45.999Z</time></trkpt><trkpt lat="42.69772508143098" lon="2.864188905651851"><ele>30.0</ele><time>2026-04-08T11:53:46.999Z</time></trkpt><trkpt lat="42.69769714915077" lon="2.8639980307431787"><ele>31.75</ele><time>2026-04-08T11:53:47.999Z</time></trkpt><trkpt lat="42.69766782595862" lon="2.8638053909636114"><ele>33.5</ele><time>2026-04-08T11:53:48.999Z</time></trkpt><trkpt lat="42.697650206525054" lon="2.8636091077311012"><ele>35.25</ele><time>2026-04-08T11:53:49.999Z</time></trkpt><trkpt lat="42.69762613478616" lon="2.8633954865157456"><ele>37.0</ele><time>2026-04-08T11:53:50.999Z</time></trkpt><trkpt lat="42.697610230183116" lon="2.8631920715528345"><ele>37.0</ele><time>2026-04-08T11:53:51.999Z</time></trkpt><trkpt lat="42.69758879568444" lon="2.8629719878124074"><ele>37.0</ele><time>2026-04-08T11:53:52.999Z</time></trkpt><trkpt lat="42.697588708826736" lon="2.8627830255508346"><ele>37.0</ele><time>2026-04-08T11:53:53.999Z</time></trkpt><trkpt lat="42.697584065413466" lon="2.8625560909803003"><ele>37.0</ele><time>2026-04-08T11:53:54.999Z</time></trkpt><trkpt lat="42.69756156070201" lon="2.862304944237713"><ele>37.0</ele><time>2026-04-08T11:53:55.999Z</time></trkpt><trkpt lat="42.69754837987117" lon="2.8620706071076043"><ele>37.0</ele><time>2026-04-08T11:53:56.999Z</time></trkpt><trkpt lat="42.6975351357219" lon="2.8618356140812904"><ele>38.0</ele><time>2026-04-08T11:53:57.999Z</time></trkpt><trkpt lat="42.69751979994234" lon="2.8615916701064545"><ele>39.0</ele><time>2026-04-08T11:53:58.999Z</time></trkpt><trkpt lat="42.69750628861001" lon="2.8613425589594184"><ele>40.0</ele><time>2026-04-08T11:53:59.999Z</time></trkpt><trkpt lat="42.69749412827185" lon="2.8610876835907773"><ele>39.66666666666667</ele><time>2026-04-08T11:54:00.999Z</time></trkpt><trkpt lat="42.69748108357025" lon="2.8608272272236186"><ele>39.333333333333336</ele><time>2026-04-08T11:54:01.999Z</time></trkpt><trkpt lat="42.69746805426837" lon="2.8605568760949276"><ele>39.0</ele><time>2026-04-08T11:54:02.999Z</time></trkpt><trkpt lat="42.69745739926369" lon="2.8602848257882982"><ele>39.0</ele><time>2026-04-08T11:54:03.999Z</time></trkpt><trkpt lat="42.69744241623324" lon="2.860003078567665"><ele>39.0</ele><time>2026-04-08T11:54:04.999Z</time></trkpt><trkpt lat="42.697427909493136" lon="2.859710951488485"><ele>39.0</ele><time>2026-04-08T11:54:05.999Z</time></trkpt><trkpt lat="42.697412337134985" lon="2.8594014695216057"><ele>38.333333333333336</ele><time>2026-04-08T11:54:06.999Z</time></trkpt><trkpt lat="42.697397931647004" lon="2.859099719191917"><ele>37.66666666666667</ele><time>2026-04-08T11:54:07.999Z</time></trkpt><trkpt lat="42.69738085933724" lon="2.858797999667782"><ele>37.0</ele><time>2026-04-08T11:54:08.999Z</time></trkpt><trkpt lat="42.69736858768466" lon="2.858495190460502"><ele>36.0</ele><time>2026-04-08T11:54:09.999Z</time></trkpt><trkpt lat="42.697351545329795" lon="2.8581871217284682"><ele>35.0</ele><time>2026-04-08T11:54:10.999Z</time></trkpt><trkpt lat="42.69733512830238" lon="2.857877153127336"><ele>34.666666666666664</ele><time>2026-04-08T11:54:11.999Z</time></trkpt><trkpt lat="42.69731993847237" lon="2.8575694968934306"><ele>34.333333333333336</ele><time>2026-04-08T11:54:12.999Z</time></trkpt><trkpt lat="42.69730685340041" lon="2.8572680840423015"><ele>34.0</ele><time>2026-04-08T11:54:13.999Z</time></trkpt><trkpt lat="42.69729155186885" lon="2.856966238920973"><ele>34.333333333333336</ele><time>2026-04-08T11:54:14.999Z</time></trkpt><trkpt lat="42.697276628215874" lon="2.8566675637983896"><ele>34.666666666666664</ele><time>2026-04-08T11:54:15.999Z</time></trkpt><trkpt lat="42.697264248046764" lon="2.856373330992185"><ele>35.0</ele><time>2026-04-08T11:54:16.999Z</time></trkpt><trkpt lat="42.69724964595748" lon="2.8560809568976206"><ele>35.666666666666664</ele><time>2026-04-08T11:54:17.999Z</time></trkpt><trkpt lat="42.69723522140935" lon="2.8557926862279257"><ele>36.333333333333336</ele><time>2026-04-08T11:54:18.999Z</time></trkpt><trkpt lat="42.69721911215968" lon="2.8555077293080657"><ele>37.0</ele><time>2026-04-08T11:54:19.999Z</time></trkpt><trkpt lat="42.69720016668021" lon="2.8552299776577277"><ele>36.333333333333336</ele><time>2026-04-08T11:54:20.999Z</time></trkpt><trkpt lat="42.69717552777499" lon="2.8549512202135814"><ele>35.666666666666664</ele><time>2026-04-08T11:54:21.999Z</time></trkpt><trkpt lat="42.69714232390676" lon="2.8546713574003353"><ele>35.0</ele><time>2026-04-08T11:54:22.999Z</time></trkpt><trkpt lat="42.69708888766649" lon="2.8544050950534765"><ele>34.666666666666664</ele><time>2026-04-08T11:54:23.999Z</time></trkpt><trkpt lat="42.69702476069948" lon="2.854149639121103"><ele>34.333333333333336</ele><time>2026-04-08T11:54:24.999Z</time></trkpt><trkpt lat="42.696949338287304" lon="2.8538973908966647"><ele>34.0</ele><time>2026-04-08T11:54:25.999Z</time></trkpt><trkpt lat="42.69685737560175" lon="2.8536567879090287"><ele>35.66666666666667</ele><time>2026-04-08T11:54:26.999Z</time></trkpt><trkpt lat="42.6967731813325" lon="2.853403218484926"><ele>37.333333333333336</ele><time>2026-04-08T11:54:27.999Z</time></trkpt><trkpt lat="42.69664867685632" lon="2.853181896646583"><ele>39.0</ele><time>2026-04-08T11:54:28.999Z</time></trkpt><trkpt lat="42.6965252583956" lon="2.8529738461965586"><ele>39.0</ele><time>2026-04-08T11:54:29.999Z</time></trkpt><trkpt lat="42.696391123651765" lon="2.852778476612568"><ele>39.0</ele><time>2026-04-08T11:54:30.999Z</time></trkpt><trkpt lat="42.696259709414186" lon="2.85258547913324"><ele>39.0</ele><time>2026-04-08T11:54:31.999Z</time></trkpt><trkpt lat="42.69613329779636" lon="2.8523938230275387"><ele>39.666666666666664</ele><time>2026-04-08T11:54:32.999Z</time></trkpt><trkpt lat="42.696013381912906" lon="2.852205729013386"><ele>40.33333333333333</ele><time>2026-04-08T11:54:33.999Z</time></trkpt><trkpt lat="42.69589760614039" lon="2.852017960802935"><ele>41.0</ele><time>2026-04-08T11:54:34.999Z</time></trkpt><trkpt lat="42.69578489762793" lon="2.851826978150578"><ele>42.0</ele><time>2026-04-08T11:54:35.999Z</time></trkpt><trkpt lat="42.69565883098265" lon="2.851675734734613"><ele>43.0</ele><time>2026-04-08T11:54:36.999Z</time></trkpt><trkpt lat="42.69558212943299" lon="2.8514805897651385"><ele>44.0</ele><time>2026-04-08T11:54:37.999Z</time></trkpt><trkpt lat="42.695492020950866" lon="2.8513103156217054"><ele>44.0</ele><time>2026-04-08T11:54:38.999Z</time></trkpt><trkpt lat="42.695407645818996" lon="2.8511435999442707"><ele>44.0</ele><time>2026-04-08T11:54:39.999Z</time></trkpt><trkpt lat="42.695347565799544" lon="2.85096131673122"><ele>44.0</ele><time>2026-04-08T11:54:40.999Z</time></trkpt><trkpt lat="42.69524387413667" lon="2.8508358786560106"><ele>44.0</ele><time>2026-04-08T11:54:41.999Z</time></trkpt><trkpt lat="42.695136407919854" lon="2.8507112492467295"><ele>43.75</ele><time>2026-04-08T11:54:42.999Z</time></trkpt><trkpt lat="42.695029906289626" lon="2.8506032126671035"><ele>43.5</ele><time>2026-04-08T11:54:43.999Z</time></trkpt><trkpt lat="42.69491241243943" lon="2.850517563165507"><ele>43.25</ele><time>2026-04-08T11:54:44.999Z</time></trkpt><trkpt lat="42.694799300520806" lon="2.8504194090888118"><ele>43.0</ele><time>2026-04-08T11:54:45.999Z</time></trkpt><trkpt lat="42.69469399880007" lon="2.8503013633497427"><ele>43.0</ele><time>2026-04-08T11:54:46.999Z</time></trkpt><trkpt lat="42.69459697555221" lon="2.8501580240923214"><ele>43.0</ele><time>2026-04-08T11:54:47.999Z</time></trkpt><trkpt lat="42.694515061107275" lon="2.8499876758586637"><ele>43.0</ele><time>2026-04-08T11:54:48.999Z</time></trkpt><trkpt lat="42.69444571996062" lon="2.849796185073617"><ele>43.0</ele><time>2026-04-08T11:54:49.999Z</time></trkpt><trkpt lat="42.6944166151717" lon="2.8495631587256587"><ele>43.0</ele><time>2026-04-08T11:54:50.999Z</time></trkpt><trkpt lat="42.69439487021669" lon="2.849335437261659"><ele>43.0</ele><time>2026-04-08T11:54:52Z</time></trkpt><trkpt lat="42.69438806970627" lon="2.849090771878598"><ele>43.333333333333336</ele><time>2026-04-08T11:54:53Z</time></trkpt><trkpt lat="42.69438773887458" lon="2.848831968705395"><ele>43.666666666666664</ele><time>2026-04-08T11:54:54Z</time></trkpt><trkpt lat="42.694381842186736" lon="2.8485680476828783"><ele>44.0</ele><time>2026-04-08T11:54:55Z</time></trkpt><trkpt lat="42.69437407884835" lon="2.848300827006523"><ele>45.33333333333333</ele><time>2026-04-08T11:54:56Z</time></trkpt><trkpt lat="42.69437275087291" lon="2.84803381220846"><ele>46.666666666666664</ele><time>2026-04-08T11:54:57Z</time></trkpt><trkpt lat="42.69438308956108" lon="2.847755928634756"><ele>48.0</ele><time>2026-04-08T11:54:58Z</time></trkpt><trkpt lat="42.69441055433503" lon="2.8474707130340184"><ele>47.0</ele><time>2026-04-08T11:54:59Z</time></trkpt><trkpt lat="42.6944491716541" lon="2.8471803918232927"><ele>46.0</ele><time>2026-04-08T11:55:00Z</time></trkpt><trkpt lat="42.694482656179176" lon="2.846889966027854"><ele>45.0</ele><time>2026-04-08T11:55:01Z</time></trkpt><trkpt lat="42.69451352470878" lon="2.8466030665818343"><ele>45.0</ele><time>2026-04-08T11:55:02Z</time></trkpt><trkpt lat="42.69454093436027" lon="2.8463177252261587"><ele>45.0</ele><time>2026-04-08T11:55:03Z</time></trkpt><trkpt lat="42.694562375818585" lon="2.846026824714807"><ele>45.0</ele><time>2026-04-08T11:55:04Z</time></trkpt><trkpt lat="42.69457287677448" lon="2.845731525591932"><ele>42.666666666666664</ele><time>2026-04-08T11:55:05Z</time></trkpt><trkpt lat="42.6945692914675" lon="2.8454305315824753"><ele>40.33333333333333</ele><time>2026-04-08T11:55:06Z</time></trkpt><trkpt lat="42.69455016414779" lon="2.845129761251093"><ele>38.0</ele><time>2026-04-08T11:55:07Z</time></trkpt><trkpt lat="42.69452293470408" lon="2.844826213289191"><ele>36.5</ele><time>2026-04-08T11:55:08Z</time></trkpt><trkpt lat="42.69447938872905" lon="2.844522045051461"><ele>35.0</ele><time>2026-04-08T11:55:09Z</time></trkpt><trkpt lat="42.69442672498876" lon="2.844214215049126"><ele>39.0</ele><time>2026-04-08T11:55:10Z</time></trkpt><trkpt lat="42.69436987594616" lon="2.8439049058534596"><ele>43.0</ele><time>2026-04-08T11:55:11Z</time></trkpt><trkpt lat="42.69431252768793" lon="2.843595716508594"><ele>43.0</ele><time>2026-04-08T11:55:12Z</time></trkpt><trkpt lat="42.69425233080464" lon="2.8432919806015535"><ele>43.0</ele><time>2026-04-08T11:55:13Z</time></trkpt><trkpt lat="42.694197438341995" lon="2.8429912048191346"><ele>43.0</ele><time>2026-04-08T11:55:14Z</time></trkpt><trkpt lat="42.6941402258893" lon="2.8426895823303333"><ele>43.0</ele><time>2026-04-08T11:55:15Z</time></trkpt><trkpt lat="42.694082061514095" lon="2.8423853029445856"><ele>42.5</ele><time>2026-04-08T11:55:16Z</time></trkpt><trkpt lat="42.6940255230988" lon="2.8420833931601783"><ele>42.0</ele><time>2026-04-08T11:55:17Z</time></trkpt><trkpt lat="42.69396832150234" lon="2.841779864057808"><ele>40.5</ele><time>2026-04-08T11:55:18Z</time></trkpt><trkpt lat="42.693909748763794" lon="2.8414751096692923"><ele>39.0</ele><time>2026-04-08T11:55:19Z</time></trkpt><trkpt lat="42.69385215442271" lon="2.8411711411883402"><ele>37.5</ele><time>2026-04-08T11:55:20Z</time></trkpt><trkpt lat="42.69379639774999" lon="2.840868887592976"><ele>36.0</ele><time>2026-04-08T11:55:21Z</time></trkpt><trkpt lat="42.69374111735538" lon="2.840565791688733"><ele>36.0</ele><time>2026-04-08T11:55:22Z</time></trkpt><trkpt lat="42.69368323814713" lon="2.840266510226794"><ele>36.0</ele><time>2026-04-08T11:55:23Z</time></trkpt><trkpt lat="42.69362075640539" lon="2.839967338773047"><ele>37.333333333333336</ele><time>2026-04-08T11:55:24Z</time></trkpt><trkpt lat="42.69355605663304" lon="2.839679031640188"><ele>38.66666666666667</ele><time>2026-04-08T11:55:25Z</time></trkpt><trkpt lat="42.693489592117956" lon="2.8393877758506236"><ele>40.0</ele><time>2026-04-08T11:55:26Z</time></trkpt><trkpt lat="42.69343196155862" lon="2.8390922099393783"><ele>40.0</ele><time>2026-04-08T11:55:27Z</time></trkpt><trkpt lat="42.69338905094662" lon="2.8387909776638343"><ele>40.0</ele><time>2026-04-08T11:55:28Z</time></trkpt><trkpt lat="42.693347454123355" lon="2.8384930434667157"><ele>40.0</ele><time>2026-04-08T11:55:29Z</time></trkpt><trkpt lat="42.69330989878106" lon="2.8381898396542122"><ele>39.66666666666667</ele><time>2026-04-08T11:55:30Z</time></trkpt><trkpt lat="42.69327904104299" lon="2.837887289754631"><ele>39.333333333333336</ele><time>2026-04-08T11:55:31Z</time></trkpt><trkpt lat="42.69325084387027" lon="2.8375894919362983"><ele>39.0</ele><time>2026-04-08T11:55:32Z</time></trkpt><trkpt lat="42.69321745502126" lon="2.8372952193693655"><ele>39.0</ele><time>2026-04-08T11:55:33Z</time></trkpt><trkpt lat="42.69318008719765" lon="2.837012052482803"><ele>39.0</ele><time>2026-04-08T11:55:34Z</time></trkpt><trkpt lat="42.69312829203501" lon="2.836735592810555"><ele>39.0</ele><time>2026-04-08T11:55:35Z</time></trkpt><trkpt lat="42.69306191737679" lon="2.836463995578619"><ele>38.666666666666664</ele><time>2026-04-08T11:55:36Z</time></trkpt><trkpt lat="42.692976761952785" lon="2.8362034899869486"><ele>38.33333333333333</ele><time>2026-04-08T11:55:37Z</time></trkpt><trkpt lat="42.69287590492686" lon="2.8359529413284843"><ele>38.0</ele><time>2026-04-08T11:55:38Z</time></trkpt><trkpt lat="42.692764059587816" lon="2.8357150827027424"><ele>38.33333333333333</ele><time>2026-04-08T11:55:39Z</time></trkpt><trkpt lat="42.69263904483973" lon="2.835484460623512"><ele>38.666666666666664</ele><time>2026-04-08T11:55:40Z</time></trkpt><trkpt lat="42.692496832965794" lon="2.8352694598826007"><ele>39.0</ele><time>2026-04-08T11:55:41Z</time></trkpt><trkpt lat="42.69234674387819" lon="2.8350694811276114"><ele>39.0</ele><time>2026-04-08T11:55:42Z</time></trkpt><trkpt lat="42.69218583295055" lon="2.8348858912052854"><ele>39.0</ele><time>2026-04-08T11:55:43Z</time></trkpt><trkpt lat="42.692019237195076" lon="2.8347130447509605"><ele>39.0</ele><time>2026-04-08T11:55:44Z</time></trkpt><trkpt lat="42.691849959795256" lon="2.8345421495604013"><ele>39.666666666666664</ele><time>2026-04-08T11:55:44.999Z</time></trkpt><trkpt lat="42.69168888707484" lon="2.8343542703837494"><ele>40.33333333333333</ele><time>2026-04-08T11:55:45.999Z</time></trkpt><trkpt lat="42.69153751198094" lon="2.834156713552953"><ele>41.0</ele><time>2026-04-08T11:55:46.999Z</time></trkpt><trkpt lat="42.69139581424746" lon="2.833945669687886"><ele>41.0</ele><time>2026-04-08T11:55:47.999Z</time></trkpt><trkpt lat="42.69126597239728" lon="2.8337192657551733"><ele>41.0</ele><time>2026-04-08T11:55:48.999Z</time></trkpt><trkpt lat="42.69114579598872" lon="2.833481203637092"><ele>41.0</ele><time>2026-04-08T11:55:49.999Z</time></trkpt><trkpt lat="42.69103465984071" lon="2.8332319406583335"><ele>42.33333333333333</ele><time>2026-04-08T11:55:50.999Z</time></trkpt><trkpt lat="42.69093017524081" lon="2.8329704840136545"><ele>43.666666666666664</ele><time>2026-04-08T11:55:51.999Z</time></trkpt><trkpt lat="42.690842981461" lon="2.832709921712309"><ele>45.0</ele><time>2026-04-08T11:55:52.999Z</time></trkpt><trkpt lat="42.69076355099194" lon="2.8324301151794202"><ele>45.0</ele><time>2026-04-08T11:55:53.999Z</time></trkpt><trkpt lat="42.69070256336384" lon="2.832154072162584"><ele>45.0</ele><time>2026-04-08T11:55:54.999Z</time></trkpt><trkpt lat="42.69065425937025" lon="2.8318714032005303"><ele>45.0</ele><time>2026-04-08T11:55:55.999Z</time></trkpt><trkpt lat="42.690617136722786" lon="2.8315827618663523"><ele>44.0</ele><time>2026-04-08T11:55:56.999Z</time></trkpt><trkpt lat="42.69058379536066" lon="2.8312872491065098"><ele>43.0</ele><time>2026-04-08T11:55:57.999Z</time></trkpt><trkpt lat="42.69054889189811" lon="2.8309841404346385"><ele>42.0</ele><time>2026-04-08T11:55:58.999Z</time></trkpt><trkpt lat="42.69050661906195" lon="2.8306819753074857"><ele>41.5</ele><time>2026-04-08T11:55:59.999Z</time></trkpt><trkpt lat="42.6904614165159" lon="2.8303811482237786"><ele>41.0</ele><time>2026-04-08T11:56:00.999Z</time></trkpt><trkpt lat="42.69041961249462" lon="2.8300763105851536"><ele>41.0</ele><time>2026-04-08T11:56:01.999Z</time></trkpt><trkpt lat="42.69037705917736" lon="2.8297675833613116"><ele>41.0</ele><time>2026-04-08T11:56:02.999Z</time></trkpt><trkpt lat="42.690333534705886" lon="2.829459910600736"><ele>41.5</ele><time>2026-04-08T11:56:03.999Z</time></trkpt><trkpt lat="42.690289325301485" lon="2.829147190387743"><ele>42.0</ele><time>2026-04-08T11:56:04.999Z</time></trkpt><trkpt lat="42.69024545069146" lon="2.8288300116023604"><ele>45.5</ele><time>2026-04-08T11:56:05.999Z</time></trkpt><trkpt lat="42.69019106902916" lon="2.8285063056253814"><ele>49.0</ele><time>2026-04-08T11:56:06.999Z</time></trkpt><trkpt lat="42.690136123378785" lon="2.828187635442459"><ele>49.0</ele><time>2026-04-08T11:56:07.999Z</time></trkpt><trkpt lat="42.6900880968104" lon="2.827863982474401"><ele>49.0</ele><time>2026-04-08T11:56:08.999Z</time></trkpt><trkpt lat="42.690047408163586" lon="2.8275406701439647"><ele>47.5</ele><time>2026-04-08T11:56:09.999Z</time></trkpt><trkpt lat="42.69000241095004" lon="2.8272174517198962"><ele>46.0</ele><time>2026-04-08T11:56:10.999Z</time></trkpt><trkpt lat="42.68996399457864" lon="2.826898954484769"><ele>45.5</ele><time>2026-04-08T11:56:11.999Z</time></trkpt><trkpt lat="42.689920180219545" lon="2.8265829846091473"><ele>45.0</ele><time>2026-04-08T11:56:12.999Z</time></trkpt><trkpt lat="42.689877131044476" lon="2.8262626496210794"><ele>45.5</ele><time>2026-04-08T11:56:13.999Z</time></trkpt><trkpt lat="42.68983180797402" lon="2.825936448260242"><ele>46.0</ele><time>2026-04-08T11:56:14.999Z</time></trkpt><trkpt lat="42.68978584485402" lon="2.8256092116327576"><ele>46.0</ele><time>2026-04-08T11:56:15.999Z</time></trkpt><trkpt lat="42.689734330920814" lon="2.8252821334386753"><ele>46.0</ele><time>2026-04-08T11:56:16.999Z</time></trkpt><trkpt lat="42.68967965311953" lon="2.8249490348739936"><ele>45.5</ele><time>2026-04-08T11:56:17.999Z</time></trkpt><trkpt lat="42.689624553300746" lon="2.8246179884084976"><ele>45.0</ele><time>2026-04-08T11:56:18.999Z</time></trkpt><trkpt lat="42.68956972933342" lon="2.8242817815358907"><ele>44.5</ele><time>2026-04-08T11:56:19.999Z</time></trkpt><trkpt lat="42.689516886445986" lon="2.8239497609968356"><ele>44.0</ele><time>2026-04-08T11:56:20.999Z</time></trkpt><trkpt lat="42.68946611313545" lon="2.823624529986927"><ele>47.5</ele><time>2026-04-08T11:56:21.999Z</time></trkpt><trkpt lat="42.689412666488195" lon="2.823293689045832"><ele>51.0</ele><time>2026-04-08T11:56:22.999Z</time></trkpt><trkpt lat="42.68935990727576" lon="2.822969804204564"><ele>50.0</ele><time>2026-04-08T11:56:23.999Z</time></trkpt><trkpt lat="42.68930885654932" lon="2.822645873006673"><ele>49.0</ele><time>2026-04-08T11:56:24.999Z</time></trkpt><trkpt lat="42.6892601307892" lon="2.8223218560474543"><ele>49.0</ele><time>2026-04-08T11:56:25.999Z</time></trkpt><trkpt lat="42.689210203763174" lon="2.8220004685749105"><ele>49.0</ele><time>2026-04-08T11:56:26.999Z</time></trkpt><trkpt lat="42.689166038814264" lon="2.8216761530141996"><ele>48.5</ele><time>2026-04-08T11:56:27.999Z</time></trkpt><trkpt lat="42.6891142428468" lon="2.8213576123486606"><ele>48.0</ele><time>2026-04-08T11:56:28.999Z</time></trkpt><trkpt lat="42.68904775998827" lon="2.8210409210554137"><ele>47.0</ele><time>2026-04-08T11:56:29.999Z</time></trkpt><trkpt lat="42.68897177175496" lon="2.8207247857028843"><ele>46.0</ele><time>2026-04-08T11:56:30.999Z</time></trkpt><trkpt lat="42.68889142808214" lon="2.8204106600222936"><ele>45.0</ele><time>2026-04-08T11:56:31.999Z</time></trkpt><trkpt lat="42.68881234389682" lon="2.820095918952841"><ele>44.0</ele><time>2026-04-08T11:56:32.999Z</time></trkpt><trkpt lat="42.68873779966671" lon="2.819780906284337"><ele>44.0</ele><time>2026-04-08T11:56:33.999Z</time></trkpt><trkpt lat="42.68866671887583" lon="2.8194673025956036"><ele>44.0</ele><time>2026-04-08T11:56:34.999Z</time></trkpt><trkpt lat="42.688598621703754" lon="2.8191553240080878"><ele>46.5</ele><time>2026-04-08T11:56:35.999Z</time></trkpt><trkpt lat="42.68853689964726" lon="2.8188422858451827"><ele>49.0</ele><time>2026-04-08T11:56:36.999Z</time></trkpt><trkpt lat="42.688483210583854" lon="2.8185271021079634"><ele>48.5</ele><time>2026-04-08T11:56:37.999Z</time></trkpt><trkpt lat="42.68843958503042" lon="2.8182108905316094"><ele>48.0</ele><time>2026-04-08T11:56:38.999Z</time></trkpt><trkpt lat="42.68840414106734" lon="2.817891424718996"><ele>48.0</ele><time>2026-04-08T11:56:39.999Z</time></trkpt><trkpt lat="42.68837438648379" lon="2.817568554447191"><ele>48.0</ele><time>2026-04-08T11:56:40.999Z</time></trkpt><trkpt lat="42.68834253230908" lon="2.8172459231769027"><ele>48.0</ele><time>2026-04-08T11:56:41.999Z</time></trkpt><trkpt lat="42.68831219421303" lon="2.816926832363403"><ele>48.0</ele><time>2026-04-08T11:56:42.999Z</time></trkpt><trkpt lat="42.68827838374436" lon="2.8166076612108424"><ele>47.5</ele><time>2026-04-08T11:56:43.999Z</time></trkpt><trkpt lat="42.68824556883953" lon="2.816289555450612"><ele>47.0</ele><time>2026-04-08T11:56:44.999Z</time></trkpt><trkpt lat="42.68821308593619" lon="2.8159685626382154"><ele>47.0</ele><time>2026-04-08T11:56:45.999Z</time></trkpt><trkpt lat="42.68818132114514" lon="2.81564988865683"><ele>47.0</ele><time>2026-04-08T11:56:46.999Z</time></trkpt><trkpt lat="42.688148851021005" lon="2.8153301525510086"><ele>47.0</ele><time>2026-04-08T11:56:47.999Z</time></trkpt><trkpt lat="42.68811620244409" lon="2.815006611056014"><ele>47.0</ele><time>2026-04-08T11:56:49Z</time></trkpt><trkpt lat="42.68807945646992" lon="2.8146791545941108"><ele>47.0</ele><time>2026-04-08T11:56:50Z</time></trkpt><trkpt lat="42.688043159664204" lon="2.814349874620155"><ele>47.0</ele><time>2026-04-08T11:56:51Z</time></trkpt><trkpt lat="42.68800450866512" lon="2.814022524414005"><ele>47.0</ele><time>2026-04-08T11:56:52Z</time></trkpt><trkpt lat="42.68795652712537" lon="2.813696245509207"><ele>47.0</ele><time>2026-04-08T11:56:53Z</time></trkpt><trkpt lat="42.687900419576955" lon="2.813368681398189"><ele>47.0</ele><time>2026-04-08T11:56:54Z</time></trkpt><trkpt lat="42.687836369340765" lon="2.8130390819604507"><ele>47.0</ele><time>2026-04-08T11:56:55Z</time></trkpt><trkpt lat="42.68777113036498" lon="2.812712883085455"><ele>52.0</ele><time>2026-04-08T11:56:56Z</time></trkpt><trkpt lat="42.68770698707257" lon="2.8123850589204027"><ele>57.0</ele><time>2026-04-08T11:56:57Z</time></trkpt><trkpt lat="42.687647551279106" lon="2.8120586590726813"><ele>55.5</ele><time>2026-04-08T11:56:58Z</time></trkpt><trkpt lat="42.68758934812298" lon="2.8117319735201485"><ele>54.0</ele><time>2026-04-08T11:56:59Z</time></trkpt><trkpt lat="42.687537713372016" lon="2.8113992715330407"><ele>54.0</ele><time>2026-04-08T11:57:00Z</time></trkpt><trkpt lat="42.68749249650267" lon="2.811066663314244"><ele>54.0</ele><time>2026-04-08T11:57:01Z</time></trkpt><trkpt lat="42.68745339263512" lon="2.810729285408124"><ele>54.0</ele><time>2026-04-08T11:57:02Z</time></trkpt><trkpt lat="42.687416136788116" lon="2.8104040405842183"><ele>54.0</ele><time>2026-04-08T11:57:03Z</time></trkpt><trkpt lat="42.68737537312037" lon="2.810070159841924"><ele>53.5</ele><time>2026-04-08T11:57:04Z</time></trkpt><trkpt lat="42.68734177116631" lon="2.8097320054753436"><ele>53.0</ele><time>2026-04-08T11:57:05Z</time></trkpt><trkpt lat="42.68730620070728" lon="2.8093978849003163"><ele>50.5</ele><time>2026-04-08T11:57:06Z</time></trkpt><trkpt lat="42.68727051280251" lon="2.8090653905280534"><ele>48.0</ele><time>2026-04-08T11:57:07Z</time></trkpt><trkpt lat="42.687232434814966" lon="2.8087322928001024"><ele>48.5</ele><time>2026-04-08T11:57:08Z</time></trkpt><trkpt lat="42.687183963041086" lon="2.808406041471354"><ele>49.0</ele><time>2026-04-08T11:57:09Z</time></trkpt><trkpt lat="42.68712824113985" lon="2.808096410454037"><ele>49.0</ele><time>2026-04-08T11:57:10Z</time></trkpt><trkpt lat="42.68706662303763" lon="2.807787960812521"><ele>49.0</ele><time>2026-04-08T11:57:11Z</time></trkpt><trkpt lat="42.6870026019865" lon="2.8074791568074184"><ele>49.0</ele><time>2026-04-08T11:57:12Z</time></trkpt><trkpt lat="42.686930777488975" lon="2.8071741860891195"><ele>49.0</ele><time>2026-04-08T11:57:13Z</time></trkpt><trkpt lat="42.68685575528783" lon="2.8068688664530668"><ele>51.0</ele><time>2026-04-08T11:57:14Z</time></trkpt><trkpt lat="42.68678193468506" lon="2.806558967601843"><ele>53.0</ele><time>2026-04-08T11:57:15Z</time></trkpt><trkpt lat="42.686708252139" lon="2.8062522419921017"><ele>50.5</ele><time>2026-04-08T11:57:16Z</time></trkpt><trkpt lat="42.686636295964995" lon="2.805945016199059"><ele>48.0</ele><time>2026-04-08T11:57:17Z</time></trkpt><trkpt lat="42.68656585190541" lon="2.8056324132171673"><ele>48.0</ele><time>2026-04-08T11:57:18Z</time></trkpt><trkpt lat="42.68649719340351" lon="2.8053211728405203"><ele>48.0</ele><time>2026-04-08T11:57:19Z</time></trkpt><trkpt lat="42.68642575739742" lon="2.8050109770388656"><ele>48.5</ele><time>2026-04-08T11:57:20Z</time></trkpt><trkpt lat="42.68635550877157" lon="2.804698565764939"><ele>49.0</ele><time>2026-04-08T11:57:21Z</time></trkpt><trkpt lat="42.68629264759289" lon="2.804382935695276"><ele>49.0</ele><time>2026-04-08T11:57:22Z</time></trkpt><trkpt lat="42.68623730505254" lon="2.804065056579051"><ele>49.0</ele><time>2026-04-08T11:57:23Z</time></trkpt><trkpt lat="42.6861968416908" lon="2.8037435875632366"><ele>49.5</ele><time>2026-04-08T11:57:24Z</time></trkpt><trkpt lat="42.68617008179464" lon="2.8034181428436145"><ele>50.0</ele><time>2026-04-08T11:57:25Z</time></trkpt><trkpt lat="42.68615619396427" lon="2.803090677319904"><ele>50.0</ele><time>2026-04-08T11:57:26Z</time></trkpt><trkpt lat="42.68614930979874" lon="2.8027603467067714"><ele>50.0</ele><time>2026-04-08T11:57:27Z</time></trkpt><trkpt lat="42.686147900725516" lon="2.8024273154292607"><ele>49.5</ele><time>2026-04-08T11:57:28Z</time></trkpt><trkpt lat="42.68615079431902" lon="2.8020910198315354"><ele>49.0</ele><time>2026-04-08T11:57:29Z</time></trkpt><trkpt lat="42.686151916520664" lon="2.8017526768047505"><ele>49.0</ele><time>2026-04-08T11:57:30Z</time></trkpt><trkpt lat="42.68614439553537" lon="2.801416044301619"><ele>49.0</ele><time>2026-04-08T11:57:31Z</time></trkpt><trkpt lat="42.68612850034827" lon="2.801074102106445"><ele>49.0</ele><time>2026-04-08T11:57:32Z</time></trkpt><trkpt lat="42.68611111349733" lon="2.800733466258519"><ele>49.0</ele><time>2026-04-08T11:57:33Z</time></trkpt><trkpt lat="42.68608552214666" lon="2.800393104263127"><ele>53.0</ele><time>2026-04-08T11:57:34Z</time></trkpt><trkpt lat="42.68605777972187" lon="2.80005857328892"><ele>57.0</ele><time>2026-04-08T11:57:35Z</time></trkpt><trkpt lat="42.686023684080304" lon="2.7997277323545298"><ele>57.0</ele><time>2026-04-08T11:57:36Z</time></trkpt><trkpt lat="42.6859773442178" lon="2.7993976919522288"><ele>57.0</ele><time>2026-04-08T11:57:37Z</time></trkpt><trkpt lat="42.68594655894568" lon="2.7990638997678094"><ele>57.0</ele><time>2026-04-08T11:57:38Z</time></trkpt><trkpt lat="42.68587771258191" lon="2.7987458252990227"><ele>57.0</ele><time>2026-04-08T11:57:39Z</time></trkpt><trkpt lat="42.68581900337918" lon="2.7984188663027285"><ele>56.0</ele><time>2026-04-08T11:57:40Z</time></trkpt><trkpt lat="42.68575651500823" lon="2.798099191038737"><ele>55.0</ele><time>2026-04-08T11:57:41Z</time></trkpt><trkpt lat="42.6856939277832" lon="2.797785041019452"><ele>55.0</ele><time>2026-04-08T11:57:42Z</time></trkpt><trkpt lat="42.68561908622492" lon="2.7974602984769223"><ele>55.0</ele><time>2026-04-08T11:57:43Z</time></trkpt><trkpt lat="42.68553693937129" lon="2.797145591738425"><ele>54.0</ele><time>2026-04-08T11:57:44Z</time></trkpt><trkpt lat="42.685454188770734" lon="2.7968341488326156"><ele>53.0</ele><time>2026-04-08T11:57:45Z</time></trkpt><trkpt lat="42.68537300073666" lon="2.7965258170543064"><ele>53.0</ele><time>2026-04-08T11:57:46Z</time></trkpt><trkpt lat="42.68529177252798" lon="2.7962180618834767"><ele>53.0</ele><time>2026-04-08T11:57:47Z</time></trkpt><trkpt lat="42.68520401917679" lon="2.795906611139461"><ele>56.0</ele><time>2026-04-08T11:57:48Z</time></trkpt><trkpt lat="42.68511540739141" lon="2.7955959557524896"><ele>59.0</ele><time>2026-04-08T11:57:49Z</time></trkpt><trkpt lat="42.6850360545365" lon="2.7952874796451725"><ele>57.5</ele><time>2026-04-08T11:57:50Z</time></trkpt><trkpt lat="42.68495335835328" lon="2.794977802880545"><ele>56.0</ele><time>2026-04-08T11:57:51Z</time></trkpt><trkpt lat="42.68487055905721" lon="2.7946679933668093"><ele>56.0</ele><time>2026-04-08T11:57:52Z</time></trkpt><trkpt lat="42.684783755120435" lon="2.7943567036296706"><ele>56.0</ele><time>2026-04-08T11:57:53Z</time></trkpt><trkpt lat="42.684696866276035" lon="2.794038311127693"><ele>55.0</ele><time>2026-04-08T11:57:54Z</time></trkpt><trkpt lat="42.68461092102777" lon="2.7937182521408572"><ele>54.0</ele><time>2026-04-08T11:57:55Z</time></trkpt><trkpt lat="42.68452628846185" lon="2.7933925330289417"><ele>53.5</ele><time>2026-04-08T11:57:56Z</time></trkpt><trkpt lat="42.68445123556357" lon="2.793063502277553"><ele>53.0</ele><time>2026-04-08T11:57:57Z</time></trkpt><trkpt lat="42.68438966884358" lon="2.7927324077628297"><ele>55.5</ele><time>2026-04-08T11:57:58Z</time></trkpt><trkpt lat="42.68433782982355" lon="2.792405741869245"><ele>58.0</ele><time>2026-04-08T11:57:59Z</time></trkpt><trkpt lat="42.68428961295884" lon="2.79208018853096"><ele>57.5</ele><time>2026-04-08T11:58:00Z</time></trkpt><trkpt lat="42.68424853514657" lon="2.791749706371511"><ele>57.0</ele><time>2026-04-08T11:58:01Z</time></trkpt><trkpt lat="42.68421488253984" lon="2.7914199984387027"><ele>57.0</ele><time>2026-04-08T11:58:02Z</time></trkpt><trkpt lat="42.68417740533351" lon="2.7910878893287325"><ele>57.0</ele><time>2026-04-08T11:58:03Z</time></trkpt><trkpt lat="42.684136548315365" lon="2.7907522333560446"><ele>56.5</ele><time>2026-04-08T11:58:04Z</time></trkpt><trkpt lat="42.68410869913771" lon="2.7904186554169237"><ele>56.0</ele><time>2026-04-08T11:58:05Z</time></trkpt><trkpt lat="42.68409085399288" lon="2.790076917660628"><ele>56.0</ele><time>2026-04-08T11:58:06Z</time></trkpt><trkpt lat="42.68408518778806" lon="2.78973875489355"><ele>56.0</ele><time>2026-04-08T11:58:07Z</time></trkpt><trkpt lat="42.68409499194335" lon="2.789403046189601"><ele>56.5</ele><time>2026-04-08T11:58:08Z</time></trkpt><trkpt lat="42.684110964650706" lon="2.7890707143487603"><ele>57.0</ele><time>2026-04-08T11:58:09Z</time></trkpt><trkpt lat="42.684131634120426" lon="2.788742879609847"><ele>57.0</ele><time>2026-04-08T11:58:10Z</time></trkpt><trkpt lat="42.68414978008816" lon="2.7884172920222006"><ele>57.0</ele><time>2026-04-08T11:58:11Z</time></trkpt><trkpt lat="42.68416738806329" lon="2.7880910800912795"><ele>57.0</ele><time>2026-04-08T11:58:12Z</time></trkpt><trkpt lat="42.68418006415384" lon="2.78776161707719"><ele>57.0</ele><time>2026-04-08T11:58:13Z</time></trkpt><trkpt lat="42.684182596078344" lon="2.787441320634086"><ele>57.5</ele><time>2026-04-08T11:58:14Z</time></trkpt><trkpt lat="42.68417076872901" lon="2.787124712468658"><ele>58.0</ele><time>2026-04-08T11:58:14.999Z</time></trkpt><trkpt lat="42.68414636248317" lon="2.7868073545916645"><ele>58.0</ele><time>2026-04-08T11:58:15.999Z</time></trkpt><trkpt lat="42.68411294123533" lon="2.7864979095083022"><ele>58.0</ele><time>2026-04-08T11:58:16.999Z</time></trkpt><trkpt lat="42.68406302511905" lon="2.7861874997187934"><ele>57.5</ele><time>2026-04-08T11:58:17.999Z</time></trkpt><trkpt lat="42.68400210327579" lon="2.7858820064687317"><ele>57.0</ele><time>2026-04-08T11:58:18.999Z</time></trkpt><trkpt lat="42.68392607136432" lon="2.785576439307989"><ele>57.0</ele><time>2026-04-08T11:58:19.999Z</time></trkpt><trkpt lat="42.68383899688745" lon="2.785281278900172"><ele>57.0</ele><time>2026-04-08T11:58:20.999Z</time></trkpt><trkpt lat="42.6837430700809" lon="2.784990218052551"><ele>56.5</ele><time>2026-04-08T11:58:21.999Z</time></trkpt><trkpt lat="42.68363884882895" lon="2.7846964225432873"><ele>56.0</ele><time>2026-04-08T11:58:22.999Z</time></trkpt><trkpt lat="42.683532866048886" lon="2.784398511364865"><ele>58.0</ele><time>2026-04-08T11:58:23.999Z</time></trkpt><trkpt lat="42.683427543863104" lon="2.784098095205467"><ele>60.0</ele><time>2026-04-08T11:58:24.999Z</time></trkpt><trkpt lat="42.68332263335455" lon="2.783797320387496"><ele>59.0</ele><time>2026-04-08T11:58:25.999Z</time></trkpt><trkpt lat="42.68321673268782" lon="2.783493126173754"><ele>58.0</ele><time>2026-04-08T11:58:26.999Z</time></trkpt><trkpt lat="42.683113872748905" lon="2.783192110844959"><ele>58.0</ele><time>2026-04-08T11:58:27.999Z</time></trkpt><trkpt lat="42.68301061018421" lon="2.7828914729540846"><ele>58.0</ele><time>2026-04-08T11:58:28.999Z</time></trkpt><trkpt lat="42.682906004842806" lon="2.7825868823361475"><ele>57.5</ele><time>2026-04-08T11:58:29.999Z</time></trkpt><trkpt lat="42.68279855109265" lon="2.782278217210206"><ele>57.0</ele><time>2026-04-08T11:58:30.999Z</time></trkpt><trkpt lat="42.68269191093156" lon="2.781972915109534"><ele>61.0</ele><time>2026-04-08T11:58:31.999Z</time></trkpt><trkpt lat="42.68258653211881" lon="2.7816675540559084"><ele>65.0</ele><time>2026-04-08T11:58:32.999Z</time></trkpt><trkpt lat="42.68248079013456" lon="2.7813633702096316"><ele>65.0</ele><time>2026-04-08T11:58:33.999Z</time></trkpt><trkpt lat="42.68237372163125" lon="2.7810627186296673"><ele>65.0</ele><time>2026-04-08T11:58:34.999Z</time></trkpt><trkpt lat="42.682264121678095" lon="2.7807628256385883"><ele>63.0</ele><time>2026-04-08T11:58:35.999Z</time></trkpt><trkpt lat="42.682155272752155" lon="2.7804652595531087"><ele>61.0</ele><time>2026-04-08T11:58:36.999Z</time></trkpt><trkpt lat="42.68204752300984" lon="2.780171543632939"><ele>58.5</ele><time>2026-04-08T11:58:37.999Z</time></trkpt><trkpt lat="42.68194344062136" lon="2.77988138343459"><ele>56.0</ele><time>2026-04-08T11:58:38.999Z</time></trkpt><trkpt lat="42.68184225892722" lon="2.779590477585473"><ele>61.5</ele><time>2026-04-08T11:58:39.999Z</time></trkpt><trkpt lat="42.68175000825761" lon="2.7792998756178586"><ele>67.0</ele><time>2026-04-08T11:58:40.999Z</time></trkpt><trkpt lat="42.6816722274187" lon="2.7790122578704888"><ele>67.0</ele><time>2026-04-08T11:58:41.999Z</time></trkpt><trkpt lat="42.681613438233775" lon="2.7787215111972254"><ele>67.0</ele><time>2026-04-08T11:58:42.999Z</time></trkpt><trkpt lat="42.68156780745244" lon="2.7784269075872783"><ele>67.0</ele><time>2026-04-08T11:58:43.999Z</time></trkpt><trkpt lat="42.68153862543957" lon="2.778128209367774"><ele>67.0</ele><time>2026-04-08T11:58:44.999Z</time></trkpt><trkpt lat="42.68151828849564" lon="2.777829668258188"><ele>67.0</ele><time>2026-04-08T11:58:45.999Z</time></trkpt><trkpt lat="42.68151209020864" lon="2.7775338050011245"><ele>67.0</ele><time>2026-04-08T11:58:46.999Z</time></trkpt><trkpt lat="42.681519304966436" lon="2.777237327725393"><ele>67.0</ele><time>2026-04-08T11:58:47.999Z</time></trkpt><trkpt lat="42.681538675914275" lon="2.776941463201788"><ele>67.0</ele><time>2026-04-08T11:58:48.999Z</time></trkpt><trkpt lat="42.68156671701892" lon="2.7766485422623686"><ele>67.0</ele><time>2026-04-08T11:58:49.999Z</time></trkpt><trkpt lat="42.6816084578387" lon="2.7763625728081145"><ele>67.33333333333333</ele><time>2026-04-08T11:58:50.999Z</time></trkpt><trkpt lat="42.68166716739453" lon="2.7760787359906756"><ele>67.66666666666667</ele><time>2026-04-08T11:58:51.999Z</time></trkpt><trkpt lat="42.68173802910572" lon="2.775791992086049"><ele>68.0</ele><time>2026-04-08T11:58:52.999Z</time></trkpt><trkpt lat="42.681823309887115" lon="2.775504652857817"><ele>66.0</ele><time>2026-04-08T11:58:53.999Z</time></trkpt><trkpt lat="42.68192033724211" lon="2.775220544925208"><ele>64.0</ele><time>2026-04-08T11:58:55Z</time></trkpt><trkpt lat="42.68202582687595" lon="2.7749394103955667"><ele>64.0</ele><time>2026-04-08T11:58:56Z</time></trkpt><trkpt lat="42.682135334627525" lon="2.774655974653787"><ele>64.0</ele><time>2026-04-08T11:58:57Z</time></trkpt><trkpt lat="42.68224554175421" lon="2.774365130345455"><ele>66.0</ele><time>2026-04-08T11:58:58Z</time></trkpt><trkpt lat="42.68235141286613" lon="2.7740627329626477"><ele>68.0</ele><time>2026-04-08T11:58:59Z</time></trkpt><trkpt lat="42.682450208494174" lon="2.773758073257397"><ele>70.0</ele><time>2026-04-08T11:59:00Z</time></trkpt><trkpt lat="42.68254925701251" lon="2.773449199386214"><ele>72.0</ele><time>2026-04-08T11:59:01Z</time></trkpt><trkpt lat="42.68264973620688" lon="2.773136179446805"><ele>72.0</ele><time>2026-04-08T11:59:02Z</time></trkpt><trkpt lat="42.68274719940617" lon="2.772821467890834"><ele>72.0</ele><time>2026-04-08T11:59:03Z</time></trkpt><trkpt lat="42.682836102061984" lon="2.7725047497069406"><ele>67.0</ele><time>2026-04-08T11:59:04Z</time></trkpt><trkpt lat="42.68291928016916" lon="2.772188168663964"><ele>62.0</ele><time>2026-04-08T11:59:05Z</time></trkpt><trkpt lat="42.68299516978536" lon="2.771870576953828"><ele>62.5</ele><time>2026-04-08T11:59:06Z</time></trkpt><trkpt lat="42.68307115213083" lon="2.7715523715722936"><ele>63.0</ele><time>2026-04-08T11:59:07Z</time></trkpt><trkpt lat="42.68314362623935" lon="2.771235505236444"><ele>65.0</ele><time>2026-04-08T11:59:08Z</time></trkpt><trkpt lat="42.68321125561593" lon="2.770915656021252"><ele>67.0</ele><time>2026-04-08T11:59:09Z</time></trkpt><trkpt lat="42.68327609909774" lon="2.770597067759936"><ele>67.0</ele><time>2026-04-08T11:59:10Z</time></trkpt><trkpt lat="42.683340982163" lon="2.7702796947732513"><ele>67.0</ele><time>2026-04-08T11:59:11Z</time></trkpt><trkpt lat="42.683403293279376" lon="2.7699584195853295"><ele>67.0</ele><time>2026-04-08T11:59:12Z</time></trkpt><trkpt lat="42.68345968462883" lon="2.7696366355009228"><ele>67.0</ele><time>2026-04-08T11:59:13Z</time></trkpt><trkpt lat="42.683514786052484" lon="2.769319434686159"><ele>67.0</ele><time>2026-04-08T11:59:14Z</time></trkpt><trkpt lat="42.683570003054264" lon="2.76900210671882"><ele>67.0</ele><time>2026-04-08T11:59:15Z</time></trkpt><trkpt lat="42.68363003530209" lon="2.7686870872039173"><ele>65.0</ele><time>2026-04-08T11:59:16Z</time></trkpt><trkpt lat="42.68369060772331" lon="2.768371642545128"><ele>63.0</ele><time>2026-04-08T11:59:17Z</time></trkpt><trkpt lat="42.68374837538151" lon="2.7680553295334986"><ele>63.0</ele><time>2026-04-08T11:59:18Z</time></trkpt><trkpt lat="42.68380624331757" lon="2.7677388835215555"><ele>63.0</ele><time>2026-04-08T11:59:19Z</time></trkpt><trkpt lat="42.6838569669253" lon="2.7674197466481445"><ele>63.5</ele><time>2026-04-08T11:59:20Z</time></trkpt><trkpt lat="42.683894598467226" lon="2.7671056131848086"><ele>64.0</ele><time>2026-04-08T11:59:21Z</time></trkpt><trkpt lat="42.6839232829319" lon="2.766792398630635"><ele>64.0</ele><time>2026-04-08T11:59:22Z</time></trkpt><trkpt lat="42.6839472812744" lon="2.7664778964184205"><ele>64.0</ele><time>2026-04-08T11:59:23Z</time></trkpt><trkpt lat="42.68396493653998" lon="2.766160162302381"><ele>65.5</ele><time>2026-04-08T11:59:24Z</time></trkpt><trkpt lat="42.68397641502905" lon="2.765852262670333"><ele>67.0</ele><time>2026-04-08T11:59:25Z</time></trkpt><trkpt lat="42.68398298916688" lon="2.7655490284046897"><ele>67.0</ele><time>2026-04-08T11:59:26Z</time></trkpt><trkpt lat="42.683974926583474" lon="2.765254653724136"><ele>67.0</ele><time>2026-04-08T11:59:27Z</time></trkpt><trkpt lat="42.68395368878434" lon="2.76496648397123"><ele>67.0</ele><time>2026-04-08T11:59:28Z</time></trkpt><trkpt lat="42.68392367800265" lon="2.7646801800836713"><ele>66.33333333333333</ele><time>2026-04-08T11:59:29Z</time></trkpt><trkpt lat="42.68389334828031" lon="2.7643890407435667"><ele>65.66666666666667</ele><time>2026-04-08T11:59:30Z</time></trkpt><trkpt lat="42.68386577657217" lon="2.7640896662287395"><ele>65.0</ele><time>2026-04-08T11:59:31Z</time></trkpt><trkpt lat="42.68381806576552" lon="2.7638134375752523"><ele>65.0</ele><time>2026-04-08T11:59:32Z</time></trkpt><trkpt lat="42.683878315130926" lon="2.763381279599023"><ele>65.0</ele><time>2026-04-08T11:59:33Z</time></trkpt><trkpt lat="42.683838090369996" lon="2.763073400019769"><ele>65.0</ele><time>2026-04-08T11:59:34Z</time></trkpt><trkpt lat="42.68379190805689" lon="2.7627636481782325"><ele>65.0</ele><time>2026-04-08T11:59:35Z</time></trkpt><trkpt lat="42.6837459129485" lon="2.762456032072035"><ele>65.0</ele><time>2026-04-08T11:59:36Z</time></trkpt><trkpt lat="42.68370507067441" lon="2.7621475111914853"><ele>65.0</ele><time>2026-04-08T11:59:37Z</time></trkpt><trkpt lat="42.68366685815633" lon="2.7618374552823846"><ele>65.0</ele><time>2026-04-08T11:59:38Z</time></trkpt><trkpt lat="42.68362566986043" lon="2.7615271418481124"><ele>65.0</ele><time>2026-04-08T11:59:39Z</time></trkpt><trkpt lat="42.68358471327442" lon="2.7612160792179585"><ele>66.5</ele><time>2026-04-08T11:59:40Z</time></trkpt><trkpt lat="42.683541981680904" lon="2.760896948557874"><ele>68.0</ele><time>2026-04-08T11:59:41Z</time></trkpt><trkpt lat="42.68349641279944" lon="2.760583700370421"><ele>68.0</ele><time>2026-04-08T11:59:42Z</time></trkpt><trkpt lat="42.68345117103558" lon="2.7602669045817936"><ele>68.0</ele><time>2026-04-08T11:59:43Z</time></trkpt><trkpt lat="42.683411161193824" lon="2.7599462641816923"><ele>68.0</ele><time>2026-04-08T11:59:44Z</time></trkpt><trkpt lat="42.68336688768936" lon="2.759623299874062"><ele>68.0</ele><time>2026-04-08T11:59:45Z</time></trkpt><trkpt lat="42.683323644427524" lon="2.75930349528576"><ele>68.0</ele><time>2026-04-08T11:59:46Z</time></trkpt><trkpt lat="42.683277935332164" lon="2.758978994376285"><ele>68.0</ele><time>2026-04-08T11:59:47Z</time></trkpt><trkpt lat="42.68323373083856" lon="2.7586542171720843"><ele>68.0</ele><time>2026-04-08T11:59:48Z</time></trkpt><trkpt lat="42.68319291953577" lon="2.7583306900337146"><ele>68.0</ele><time>2026-04-08T11:59:49Z</time></trkpt><trkpt lat="42.683150781389664" lon="2.758007756713258"><ele>68.0</ele><time>2026-04-08T11:59:50Z</time></trkpt><trkpt lat="42.683106267876255" lon="2.757682000959827"><ele>68.0</ele><time>2026-04-08T11:59:51Z</time></trkpt><trkpt lat="42.683065715685274" lon="2.757361746333078"><ele>68.0</ele><time>2026-04-08T11:59:52Z</time></trkpt><trkpt lat="42.68302147761549" lon="2.757034234649168"><ele>68.0</ele><time>2026-04-08T11:59:53Z</time></trkpt><trkpt lat="42.682979140584145" lon="2.756712231669238"><ele>67.5</ele><time>2026-04-08T11:59:54Z</time></trkpt><trkpt lat="42.682936742809886" lon="2.7563913096080443"><ele>67.0</ele><time>2026-04-08T11:59:55Z</time></trkpt><trkpt lat="42.682893078938335" lon="2.7560682790147553"><ele>68.0</ele><time>2026-04-08T11:59:56Z</time></trkpt><trkpt lat="42.68285577321029" lon="2.755744403846181"><ele>69.0</ele><time>2026-04-08T11:59:57Z</time></trkpt><trkpt lat="42.682812026195116" lon="2.755423926066405"><ele>69.0</ele><time>2026-04-08T11:59:58Z</time></trkpt><trkpt lat="42.682765259545356" lon="2.7551006584122835"><ele>69.0</ele><time>2026-04-08T11:59:59Z</time></trkpt><trkpt lat="42.6827205229918" lon="2.754779675944359"><ele>69.0</ele><time>2026-04-08T12:00:00Z</time></trkpt><trkpt lat="42.68267866582921" lon="2.7544522600530583"><ele>69.0</ele><time>2026-04-08T12:00:01Z</time></trkpt><trkpt lat="42.68263734212937" lon="2.7541226541445467"><ele>69.5</ele><time>2026-04-08T12:00:02Z</time></trkpt><trkpt lat="42.682599935753345" lon="2.7537955945002146"><ele>70.0</ele><time>2026-04-08T12:00:03Z</time></trkpt><trkpt lat="42.68256642579192" lon="2.753468581094677"><ele>71.0</ele><time>2026-04-08T12:00:04Z</time></trkpt><trkpt lat="42.68254502607722" lon="2.753141046101668"><ele>72.0</ele><time>2026-04-08T12:00:05Z</time></trkpt><trkpt lat="42.68253569457375" lon="2.7528167029224186"><ele>72.5</ele><time>2026-04-08T12:00:06Z</time></trkpt><trkpt lat="42.682529114908675" lon="2.7524881010290647"><ele>73.0</ele><time>2026-04-08T12:00:07Z</time></trkpt><trkpt lat="42.682524752392396" lon="2.7521612728891616"><ele>73.5</ele><time>2026-04-08T12:00:08Z</time></trkpt><trkpt lat="42.6825338495771" lon="2.7518358091299593"><ele>74.0</ele><time>2026-04-08T12:00:09Z</time></trkpt><trkpt lat="42.68254854315228" lon="2.7515182301713685"><ele>74.0</ele><time>2026-04-08T12:00:10Z</time></trkpt><trkpt lat="42.68256728707715" lon="2.7512052127719504"><ele>74.0</ele><time>2026-04-08T12:00:11Z</time></trkpt><trkpt lat="42.682591796141914" lon="2.750893577701145"><ele>74.5</ele><time>2026-04-08T12:00:12Z</time></trkpt><trkpt lat="42.68262639162072" lon="2.7505872293904496"><ele>75.0</ele><time>2026-04-08T12:00:13Z</time></trkpt><trkpt lat="42.68266648083004" lon="2.750281211307052"><ele>76.0</ele><time>2026-04-08T12:00:14Z</time></trkpt><trkpt lat="42.682713836681074" lon="2.7499859837365013"><ele>77.0</ele><time>2026-04-08T12:00:15Z</time></trkpt><trkpt lat="42.68276417631343" lon="2.7496929607247407"><ele>78.0</ele><time>2026-04-08T12:00:16Z</time></trkpt><trkpt lat="42.682818511262425" lon="2.74940190684296"><ele>77.5</ele><time>2026-04-08T12:00:17Z</time></trkpt><trkpt lat="42.68287714933165" lon="2.749111445171485"><ele>77.0</ele><time>2026-04-08T12:00:18Z</time></trkpt><trkpt lat="42.68294385582091" lon="2.7488062045977113"><ele>77.5</ele><time>2026-04-08T12:00:19Z</time></trkpt><trkpt lat="42.68302807527225" lon="2.748507249834205"><ele>78.0</ele><time>2026-04-08T12:00:20Z</time></trkpt><trkpt lat="42.6831200262354" lon="2.7482156175502945"><ele>78.0</ele><time>2026-04-08T12:00:21Z</time></trkpt><trkpt lat="42.683202305656565" lon="2.747922381056724"><ele>78.0</ele><time>2026-04-08T12:00:22Z</time></trkpt><trkpt lat="42.68328129801953" lon="2.7476269049968822"><ele>77.5</ele><time>2026-04-08T12:00:23Z</time></trkpt><trkpt lat="42.68336184799789" lon="2.747324449947957"><ele>77.0</ele><time>2026-04-08T12:00:24Z</time></trkpt><trkpt lat="42.683434664140414" lon="2.747025591111803"><ele>77.0</ele><time>2026-04-08T12:00:25Z</time></trkpt><trkpt lat="42.683519042651916" lon="2.7467311179513043"><ele>77.0</ele><time>2026-04-08T12:00:26Z</time></trkpt><trkpt lat="42.6835974592925" lon="2.746435379830967"><ele>77.0</ele><time>2026-04-08T12:00:27Z</time></trkpt><trkpt lat="42.683681180999436" lon="2.746140185938398"><ele>77.0</ele><time>2026-04-08T12:00:28Z</time></trkpt><trkpt lat="42.68376482992881" lon="2.745840418261733"><ele>76.5</ele><time>2026-04-08T12:00:29Z</time></trkpt><trkpt lat="42.683845658713864" lon="2.7455460122682105"><ele>76.0</ele><time>2026-04-08T12:00:30Z</time></trkpt><trkpt lat="42.68392359400407" lon="2.7452508506234086"><ele>76.5</ele><time>2026-04-08T12:00:31Z</time></trkpt><trkpt lat="42.68400546296148" lon="2.744954039301377"><ele>77.0</ele><time>2026-04-08T12:00:32Z</time></trkpt><trkpt lat="42.68408086829285" lon="2.744656866630665"><ele>78.0</ele><time>2026-04-08T12:00:33Z</time></trkpt><trkpt lat="42.684155112513004" lon="2.744361928720877"><ele>79.0</ele><time>2026-04-08T12:00:34Z</time></trkpt><trkpt lat="42.68423463881562" lon="2.7440626798308285"><ele>79.0</ele><time>2026-04-08T12:00:35Z</time></trkpt><trkpt lat="42.68431594156102" lon="2.7437650787389565"><ele>79.0</ele><time>2026-04-08T12:00:36Z</time></trkpt><trkpt lat="42.684398850038164" lon="2.7434702138970284"><ele>77.5</ele><time>2026-04-08T12:00:37Z</time></trkpt><trkpt lat="42.68447884312634" lon="2.7431734050335166"><ele>76.0</ele><time>2026-04-08T12:00:38Z</time></trkpt><trkpt lat="42.684558699646225" lon="2.742870306445482"><ele>76.0</ele><time>2026-04-08T12:00:39Z</time></trkpt><trkpt lat="42.684641139466486" lon="2.742565363264513"><ele>76.0</ele><time>2026-04-08T12:00:40Z</time></trkpt><trkpt lat="42.68472383431343" lon="2.742257631439196"><ele>76.0</ele><time>2026-04-08T12:00:41Z</time></trkpt><trkpt lat="42.68480785527317" lon="2.7419487107886837"><ele>76.0</ele><time>2026-04-08T12:00:42Z</time></trkpt><trkpt lat="42.68489268168033" lon="2.7416395070258717"><ele>76.5</ele><time>2026-04-08T12:00:43Z</time></trkpt><trkpt lat="42.68497436129521" lon="2.741329103895328"><ele>77.0</ele><time>2026-04-08T12:00:44Z</time></trkpt><trkpt lat="42.685054783770035" lon="2.741020498885353"><ele>77.0</ele><time>2026-04-08T12:00:45Z</time></trkpt><trkpt lat="42.6851402081042" lon="2.74071176955597"><ele>77.0</ele><time>2026-04-08T12:00:46Z</time></trkpt><trkpt lat="42.68522186870954" lon="2.7404003017724134"><ele>76.5</ele><time>2026-04-08T12:00:47Z</time></trkpt><trkpt lat="42.68530661280015" lon="2.7400843486645847"><ele>76.0</ele><time>2026-04-08T12:00:48Z</time></trkpt><trkpt lat="42.68539062069168" lon="2.7397761718706817"><ele>76.0</ele><time>2026-04-08T12:00:48.999Z</time></trkpt><trkpt lat="42.68547610576265" lon="2.7394699967139107"><ele>76.0</ele><time>2026-04-08T12:00:49.999Z</time></trkpt><trkpt lat="42.68556301411368" lon="2.739165070936374"><ele>76.0</ele><time>2026-04-08T12:00:50.999Z</time></trkpt><trkpt lat="42.685643472189525" lon="2.738859993737459"><ele>76.0</ele><time>2026-04-08T12:00:51.999Z</time></trkpt><trkpt lat="42.68572313293092" lon="2.738561159835949"><ele>78.0</ele><time>2026-04-08T12:00:52.999Z</time></trkpt><trkpt lat="42.68580272144147" lon="2.738273436459226"><ele>80.0</ele><time>2026-04-08T12:00:53.999Z</time></trkpt><trkpt lat="42.68587814866666" lon="2.7379870959313473"><ele>79.66666666666667</ele><time>2026-04-08T12:00:54.999Z</time></trkpt><trkpt lat="42.685954331989365" lon="2.737698905166907"><ele>79.33333333333333</ele><time>2026-04-08T12:00:55.999Z</time></trkpt><trkpt lat="42.68603185930547" lon="2.737416616221146"><ele>79.0</ele><time>2026-04-08T12:00:56.999Z</time></trkpt><trkpt lat="42.686112516098376" lon="2.7371326264865488"><ele>78.0</ele><time>2026-04-08T12:00:57.999Z</time></trkpt><trkpt lat="42.68618789496769" lon="2.73685075725216"><ele>77.0</ele><time>2026-04-08T12:00:58.999Z</time></trkpt><trkpt lat="42.68626231139956" lon="2.7365727392352284"><ele>76.0</ele><time>2026-04-08T12:00:59.999Z</time></trkpt><trkpt lat="42.686333747931755" lon="2.736298414261583"><ele>76.33333333333333</ele><time>2026-04-08T12:01:01Z</time></trkpt><trkpt lat="42.686405095881284" lon="2.736022189091463"><ele>76.66666666666667</ele><time>2026-04-08T12:01:02Z</time></trkpt><trkpt lat="42.68647864461679" lon="2.7357493362294503"><ele>77.0</ele><time>2026-04-08T12:01:03Z</time></trkpt><trkpt lat="42.68656076410845" lon="2.7354691814210876"><ele>77.5</ele><time>2026-04-08T12:01:04Z</time></trkpt><trkpt lat="42.686646987236244" lon="2.735190876235802"><ele>78.0</ele><time>2026-04-08T12:01:05Z</time></trkpt><trkpt lat="42.68673219073603" lon="2.734901384307519"><ele>78.0</ele><time>2026-04-08T12:01:06Z</time></trkpt><trkpt lat="42.68680967723701" lon="2.7345976488184447"><ele>78.0</ele><time>2026-04-08T12:01:07Z</time></trkpt><trkpt lat="42.68689470610049" lon="2.734292241186655"><ele>78.5</ele><time>2026-04-08T12:01:08.001Z</time></trkpt><trkpt lat="42.68699563785618" lon="2.733995187636774"><ele>79.0</ele><time>2026-04-08T12:01:09.001Z</time></trkpt><trkpt lat="42.68710451668343" lon="2.7337000367779694"><ele>79.5</ele><time>2026-04-08T12:01:10Z</time></trkpt><trkpt lat="42.6872193362626" lon="2.7333992194098067"><ele>80.0</ele><time>2026-04-08T12:01:11Z</time></trkpt><trkpt lat="42.68733582923569" lon="2.7330960763358645"><ele>80.0</ele><time>2026-04-08T12:01:12Z</time></trkpt><trkpt lat="42.68745310150181" lon="2.7327982995448608"><ele>80.0</ele><time>2026-04-08T12:01:13Z</time></trkpt><trkpt lat="42.68756955844269" lon="2.732502832826006"><ele>81.0</ele><time>2026-04-08T12:01:14Z</time></trkpt><trkpt lat="42.687696447499484" lon="2.732210006243448"><ele>82.0</ele><time>2026-04-08T12:01:15Z</time></trkpt><trkpt lat="42.687823006878965" lon="2.7319187566770973"><ele>80.5</ele><time>2026-04-08T12:01:16Z</time></trkpt><trkpt lat="42.68794362112755" lon="2.7316219516673987"><ele>79.0</ele><time>2026-04-08T12:01:17Z</time></trkpt><trkpt lat="42.68806632342564" lon="2.7313274490904043"><ele>79.5</ele><time>2026-04-08T12:01:18Z</time></trkpt><trkpt lat="42.68818439674768" lon="2.731034264869453"><ele>80.0</ele><time>2026-04-08T12:01:19Z</time></trkpt><trkpt lat="42.68829982284603" lon="2.730734705145264"><ele>80.0</ele><time>2026-04-08T12:01:20Z</time></trkpt><trkpt lat="42.68840417652406" lon="2.7304265516245105"><ele>80.0</ele><time>2026-04-08T12:01:21Z</time></trkpt><trkpt lat="42.68850907605455" lon="2.730122827239758"><ele>79.0</ele><time>2026-04-08T12:01:22Z</time></trkpt><trkpt lat="42.68860875930536" lon="2.7298185869629723"><ele>78.0</ele><time>2026-04-08T12:01:23Z</time></trkpt><trkpt lat="42.68870355348216" lon="2.7295113998966745"><ele>80.0</ele><time>2026-04-08T12:01:24Z</time></trkpt><trkpt lat="42.68879824272801" lon="2.7291996786836585"><ele>82.0</ele><time>2026-04-08T12:01:25Z</time></trkpt><trkpt lat="42.68888838292841" lon="2.728886609503428"><ele>82.0</ele><time>2026-04-08T12:01:26Z</time></trkpt><trkpt lat="42.688971752728406" lon="2.7285724897000425"><ele>82.0</ele><time>2026-04-08T12:01:27Z</time></trkpt><trkpt lat="42.68905057930483" lon="2.7282517411807223"><ele>82.5</ele><time>2026-04-08T12:01:28Z</time></trkpt><trkpt lat="42.68913139706382" lon="2.7279362356920287"><ele>83.0</ele><time>2026-04-08T12:01:29Z</time></trkpt><trkpt lat="42.68920724303682" lon="2.7276136868443377"><ele>83.5</ele><time>2026-04-08T12:01:30Z</time></trkpt><trkpt lat="42.6892818096611" lon="2.7272916710561117"><ele>84.0</ele><time>2026-04-08T12:01:31Z</time></trkpt><trkpt lat="42.689355216704385" lon="2.726970234823322"><ele>85.0</ele><time>2026-04-08T12:01:32Z</time></trkpt><trkpt lat="42.68942236850743" lon="2.7266446382880445"><ele>86.0</ele><time>2026-04-08T12:01:33Z</time></trkpt><trkpt lat="42.689481533513806" lon="2.7263160644093665"><ele>83.5</ele><time>2026-04-08T12:01:34Z</time></trkpt><trkpt lat="42.68954453379502" lon="2.7259953211791537"><ele>81.0</ele><time>2026-04-08T12:01:35Z</time></trkpt><trkpt lat="42.68959780695563" lon="2.725663184369973"><ele>81.0</ele><time>2026-04-08T12:01:36Z</time></trkpt><trkpt lat="42.689650424466876" lon="2.7253325796758654"><ele>81.0</ele><time>2026-04-08T12:01:37Z</time></trkpt><trkpt lat="42.68970031796384" lon="2.7250028192624094"><ele>82.5</ele><time>2026-04-08T12:01:38Z</time></trkpt><trkpt lat="42.68975088940191" lon="2.724675032284258"><ele>84.0</ele><time>2026-04-08T12:01:39Z</time></trkpt><trkpt lat="42.68980423147234" lon="2.7243500884095897"><ele>84.5</ele><time>2026-04-08T12:01:40Z</time></trkpt><trkpt lat="42.68986106116606" lon="2.724028179590238"><ele>85.0</ele><time>2026-04-08T12:01:41Z</time></trkpt><trkpt lat="42.68991359533949" lon="2.7236970204871156"><ele>84.0</ele><time>2026-04-08T12:01:42Z</time></trkpt><trkpt lat="42.68997029794712" lon="2.723375733636514"><ele>83.0</ele><time>2026-04-08T12:01:43Z</time></trkpt><trkpt lat="42.690020957774934" lon="2.723046890684938"><ele>83.0</ele><time>2026-04-08T12:01:44Z</time></trkpt><trkpt lat="42.690073418478164" lon="2.7227232215054404"><ele>83.0</ele><time>2026-04-08T12:01:45Z</time></trkpt><trkpt lat="42.690126077206585" lon="2.722400657569609"><ele>83.0</ele><time>2026-04-08T12:01:46Z</time></trkpt><trkpt lat="42.6901769732856" lon="2.722071487391462"><ele>83.0</ele><time>2026-04-08T12:01:47Z</time></trkpt><trkpt lat="42.69023114170267" lon="2.7217487022532705"><ele>82.5</ele><time>2026-04-08T12:01:48Z</time></trkpt><trkpt lat="42.69028553000076" lon="2.7214236453638705"><ele>82.0</ele><time>2026-04-08T12:01:49Z</time></trkpt><trkpt lat="42.690336789564356" lon="2.7210942795469757"><ele>82.0</ele><time>2026-04-08T12:01:50Z</time></trkpt><trkpt lat="42.69038643365564" lon="2.7207686631787085"><ele>82.0</ele><time>2026-04-08T12:01:51Z</time></trkpt><trkpt lat="42.690438255597485" lon="2.7204454490101404"><ele>82.5</ele><time>2026-04-08T12:01:52Z</time></trkpt><trkpt lat="42.69048886488641" lon="2.720126626446326"><ele>83.0</ele><time>2026-04-08T12:01:53Z</time></trkpt><trkpt lat="42.690538593106965" lon="2.7198050849404916"><ele>83.0</ele><time>2026-04-08T12:01:54Z</time></trkpt><trkpt lat="42.69059132387916" lon="2.719485911775642"><ele>83.0</ele><time>2026-04-08T12:01:55Z</time></trkpt><trkpt lat="42.690644556607865" lon="2.7191679479379895"><ele>84.5</ele><time>2026-04-08T12:01:56Z</time></trkpt><trkpt lat="42.6906958981008" lon="2.7188496157540096"><ele>86.0</ele><time>2026-04-08T12:01:57Z</time></trkpt><trkpt lat="42.69074847996822" lon="2.7185274384123357"><ele>87.0</ele><time>2026-04-08T12:01:58Z</time></trkpt><trkpt lat="42.69080396760728" lon="2.7182050975831853"><ele>88.0</ele><time>2026-04-08T12:01:59Z</time></trkpt><trkpt lat="42.690858860134895" lon="2.7178833348672127"><ele>88.5</ele><time>2026-04-08T12:02:00Z</time></trkpt><trkpt lat="42.690909538582765" lon="2.7175544607263924"><ele>89.0</ele><time>2026-04-08T12:02:01Z</time></trkpt><trkpt lat="42.690961362114926" lon="2.7172312115353003"><ele>89.0</ele><time>2026-04-08T12:02:02Z</time></trkpt><trkpt lat="42.69101543579719" lon="2.7169093634803554"><ele>89.0</ele><time>2026-04-08T12:02:03Z</time></trkpt><trkpt lat="42.69106649001891" lon="2.716582732428098"><ele>88.0</ele><time>2026-04-08T12:02:04Z</time></trkpt><trkpt lat="42.6911185023365" lon="2.7162569492894484"><ele>87.0</ele><time>2026-04-08T12:02:05Z</time></trkpt><trkpt lat="42.69117015134378" lon="2.715931043028866"><ele>87.0</ele><time>2026-04-08T12:02:06Z</time></trkpt><trkpt lat="42.69122424109496" lon="2.715606268225737"><ele>87.0</ele><time>2026-04-08T12:02:07Z</time></trkpt><trkpt lat="42.69127795882884" lon="2.7152816583361576"><ele>87.5</ele><time>2026-04-08T12:02:08Z</time></trkpt><trkpt lat="42.6913299941107" lon="2.714956070503543"><ele>88.0</ele><time>2026-04-08T12:02:09Z</time></trkpt><trkpt lat="42.691380172443004" lon="2.714628073661326"><ele>88.0</ele><time>2026-04-08T12:02:10Z</time></trkpt><trkpt lat="42.69143011924192" lon="2.714300021115451"><ele>88.0</ele><time>2026-04-08T12:02:11Z</time></trkpt><trkpt lat="42.69148157993988" lon="2.71397197059529"><ele>88.0</ele><time>2026-04-08T12:02:12Z</time></trkpt><trkpt lat="42.69153547375794" lon="2.7136441772394804"><ele>88.0</ele><time>2026-04-08T12:02:13Z</time></trkpt><trkpt lat="42.69158912936999" lon="2.7133180343988363"><ele>88.5</ele><time>2026-04-08T12:02:14Z</time></trkpt><trkpt lat="42.691640154285935" lon="2.712987075679345"><ele>89.0</ele><time>2026-04-08T12:02:15Z</time></trkpt><trkpt lat="42.69169397084679" lon="2.7126623339993157"><ele>89.0</ele><time>2026-04-08T12:02:16Z</time></trkpt><trkpt lat="42.691745774996356" lon="2.7123401911616405"><ele>89.0</ele><time>2026-04-08T12:02:17Z</time></trkpt><trkpt lat="42.69180120341048" lon="2.7120242449497223"><ele>90.0</ele><time>2026-04-08T12:02:18Z</time></trkpt><trkpt lat="42.69185672164724" lon="2.711707278754128"><ele>91.0</ele><time>2026-04-08T12:02:19Z</time></trkpt><trkpt lat="42.69191297687904" lon="2.7113902596672723"><ele>91.0</ele><time>2026-04-08T12:02:20Z</time></trkpt><trkpt lat="42.69197707391547" lon="2.7110745937882346"><ele>91.0</ele><time>2026-04-08T12:02:21Z</time></trkpt><trkpt lat="42.692052779194945" lon="2.710764745929871"><ele>91.0</ele><time>2026-04-08T12:02:22Z</time></trkpt><trkpt lat="42.69213316039094" lon="2.710458932744266"><ele>91.0</ele><time>2026-04-08T12:02:23Z</time></trkpt><trkpt lat="42.69221134755048" lon="2.71015458049212"><ele>91.5</ele><time>2026-04-08T12:02:24Z</time></trkpt><trkpt lat="42.69229102913419" lon="2.709857824518715"><ele>92.0</ele><time>2026-04-08T12:02:25Z</time></trkpt><trkpt lat="42.69237614888146" lon="2.7095644749807963"><ele>92.5</ele><time>2026-04-08T12:02:26Z</time></trkpt><trkpt lat="42.69246765133868" lon="2.7092725697836957"><ele>93.0</ele><time>2026-04-08T12:02:27Z</time></trkpt><trkpt lat="42.69256172547488" lon="2.7089835553158523"><ele>93.0</ele><time>2026-04-08T12:02:28Z</time></trkpt><trkpt lat="42.692654805368264" lon="2.708689953601551"><ele>93.0</ele><time>2026-04-08T12:02:29Z</time></trkpt><trkpt lat="42.69274689345957" lon="2.7083933487842025"><ele>91.0</ele><time>2026-04-08T12:02:30Z</time></trkpt><trkpt lat="42.6928361922506" lon="2.7080946448502807"><ele>89.0</ele><time>2026-04-08T12:02:31Z</time></trkpt><trkpt lat="42.692926467110716" lon="2.7077933463595887"><ele>90.0</ele><time>2026-04-08T12:02:32Z</time></trkpt><trkpt lat="42.69302005857575" lon="2.7074929282252027"><ele>91.0</ele><time>2026-04-08T12:02:33Z</time></trkpt><trkpt lat="42.6931137520751" lon="2.70719687782025"><ele>91.0</ele><time>2026-04-08T12:02:34Z</time></trkpt><trkpt lat="42.69320611739299" lon="2.7068967938243857"><ele>91.0</ele><time>2026-04-08T12:02:35Z</time></trkpt><trkpt lat="42.69329805214311" lon="2.706597232156776"><ele>91.0</ele><time>2026-04-08T12:02:36Z</time></trkpt><trkpt lat="42.69338907195344" lon="2.706295374105238"><ele>91.0</ele><time>2026-04-08T12:02:37Z</time></trkpt><trkpt lat="42.69348186970054" lon="2.7059956073917206"><ele>90.5</ele><time>2026-04-08T12:02:38Z</time></trkpt><trkpt lat="42.693575843767526" lon="2.7056915567939153"><ele>90.0</ele><time>2026-04-08T12:02:38.999Z</time></trkpt><trkpt lat="42.69367284355861" lon="2.7053903110378"><ele>91.5</ele><time>2026-04-08T12:02:39.999Z</time></trkpt><trkpt lat="42.693768347287445" lon="2.705086849518223"><ele>93.0</ele><time>2026-04-08T12:02:40.999Z</time></trkpt><trkpt lat="42.69386308651939" lon="2.7047747176082595"><ele>93.0</ele><time>2026-04-08T12:02:41.999Z</time></trkpt><trkpt lat="42.69395683654064" lon="2.704466045783441"><ele>93.0</ele><time>2026-04-08T12:02:42.999Z</time></trkpt><trkpt lat="42.694047845154664" lon="2.704159404528052"><ele>93.0</ele><time>2026-04-08T12:02:43.999Z</time></trkpt><trkpt lat="42.694142663215615" lon="2.7038511431486913"><ele>93.0</ele><time>2026-04-08T12:02:44.999Z</time></trkpt><trkpt lat="42.694239613279215" lon="2.703548449159022"><ele>93.0</ele><time>2026-04-08T12:02:45.999Z</time></trkpt><trkpt lat="42.694332601496846" lon="2.7032446549022033"><ele>93.0</ele><time>2026-04-08T12:02:46.999Z</time></trkpt><trkpt lat="42.69441893064847" lon="2.7029373523189464"><ele>92.5</ele><time>2026-04-08T12:02:47.999Z</time></trkpt><trkpt lat="42.69449845268636" lon="2.7026287831021087"><ele>92.0</ele><time>2026-04-08T12:02:48.999Z</time></trkpt><trkpt lat="42.6945733660447" lon="2.7023180179421167"><ele>92.0</ele><time>2026-04-08T12:02:49.999Z</time></trkpt><trkpt lat="42.69464462864713" lon="2.702004731151977"><ele>92.0</ele><time>2026-04-08T12:02:50.999Z</time></trkpt><trkpt lat="42.6947119073887" lon="2.7016910742284614"><ele>92.0</ele><time>2026-04-08T12:02:51.999Z</time></trkpt><trkpt lat="42.694772985085024" lon="2.701375372693415"><ele>92.0</ele><time>2026-04-08T12:02:52.999Z</time></trkpt><trkpt lat="42.694826817597836" lon="2.701057589386347"><ele>91.5</ele><time>2026-04-08T12:02:53.999Z</time></trkpt><trkpt lat="42.69487809997486" lon="2.70073718775903"><ele>91.0</ele><time>2026-04-08T12:02:54.999Z</time></trkpt><trkpt lat="42.694930654730214" lon="2.700422196709997"><ele>92.5</ele><time>2026-04-08T12:02:55.999Z</time></trkpt><trkpt lat="42.69498076029946" lon="2.7001052665645044"><ele>94.0</ele><time>2026-04-08T12:02:56.999Z</time></trkpt><trkpt lat="42.695038480607636" lon="2.6997927775160533"><ele>94.0</ele><time>2026-04-08T12:02:57.999Z</time></trkpt><trkpt lat="42.695095962953786" lon="2.6994802511149834"><ele>94.0</ele><time>2026-04-08T12:02:58.999Z</time></trkpt><trkpt lat="42.695153007802524" lon="2.699159824895324"><ele>94.5</ele><time>2026-04-08T12:02:59.999Z</time></trkpt><trkpt lat="42.695211872393884" lon="2.698843325175741"><ele>95.0</ele><time>2026-04-08T12:03:00.999Z</time></trkpt><trkpt lat="42.69527437349481" lon="2.6985261636924647"><ele>94.0</ele><time>2026-04-08T12:03:01.999Z</time></trkpt><trkpt lat="42.69534474945513" lon="2.698209039067846"><ele>93.0</ele><time>2026-04-08T12:03:02.999Z</time></trkpt><trkpt lat="42.69541415988075" lon="2.6978919185312202"><ele>94.0</ele><time>2026-04-08T12:03:03.999Z</time></trkpt><trkpt lat="42.69548307049333" lon="2.69757305991613"><ele>95.0</ele><time>2026-04-08T12:03:04.999Z</time></trkpt><trkpt lat="42.695552586858796" lon="2.697256779202719"><ele>95.0</ele><time>2026-04-08T12:03:05.999Z</time></trkpt><trkpt lat="42.695622357605714" lon="2.6969416788138756"><ele>95.0</ele><time>2026-04-08T12:03:07.001Z</time></trkpt><trkpt lat="42.695693482699554" lon="2.696635274770563"><ele>95.5</ele><time>2026-04-08T12:03:08.001Z</time></trkpt><trkpt lat="42.69577380279237" lon="2.696331911659731"><ele>96.0</ele><time>2026-04-08T12:03:09.001Z</time></trkpt><trkpt lat="42.695838012125165" lon="2.696018307154481"><ele>96.0</ele><time>2026-04-08T12:03:10.001Z</time></trkpt><trkpt lat="42.69591120920944" lon="2.6957137370486755"><ele>96.0</ele><time>2026-04-08T12:03:11.001Z</time></trkpt><trkpt lat="42.69598906505654" lon="2.695413230403304"><ele>96.5</ele><time>2026-04-08T12:03:12Z</time></trkpt><trkpt lat="42.69606813485924" lon="2.6951086762571888"><ele>97.0</ele><time>2026-04-08T12:03:13Z</time></trkpt><trkpt lat="42.69614905283953" lon="2.6948004126499256"><ele>95.5</ele><time>2026-04-08T12:03:14Z</time></trkpt><trkpt lat="42.69623125629818" lon="2.694489683994342"><ele>94.0</ele><time>2026-04-08T12:03:15Z</time></trkpt><trkpt lat="42.696315931809686" lon="2.6941800644915075"><ele>94.0</ele><time>2026-04-08T12:03:16Z</time></trkpt><trkpt lat="42.696400889562725" lon="2.693869250468167"><ele>94.0</ele><time>2026-04-08T12:03:17Z</time></trkpt><trkpt lat="42.69649060817932" lon="2.6935594613069602"><ele>95.0</ele><time>2026-04-08T12:03:18Z</time></trkpt><trkpt lat="42.69657979109999" lon="2.69325202547645"><ele>96.0</ele><time>2026-04-08T12:03:19Z</time></trkpt><trkpt lat="42.696671735151504" lon="2.6929472706940767"><ele>96.5</ele><time>2026-04-08T12:03:20Z</time></trkpt><trkpt lat="42.696765077389095" lon="2.692642415750873"><ele>97.0</ele><time>2026-04-08T12:03:21Z</time></trkpt><trkpt lat="42.69686009080553" lon="2.692332512601009"><ele>95.0</ele><time>2026-04-08T12:03:22Z</time></trkpt><trkpt lat="42.69695481866686" lon="2.692021995891907"><ele>93.0</ele><time>2026-04-08T12:03:23Z</time></trkpt><trkpt lat="42.697052463513735" lon="2.6917032488334764"><ele>93.0</ele><time>2026-04-08T12:03:24Z</time></trkpt><trkpt lat="42.69715071629486" lon="2.6913889240880597"><ele>93.0</ele><time>2026-04-08T12:03:25Z</time></trkpt><trkpt lat="42.69724555833805" lon="2.691077448432211"><ele>94.0</ele><time>2026-04-08T12:03:26Z</time></trkpt><trkpt lat="42.6973412658592" lon="2.690762451555419"><ele>95.0</ele><time>2026-04-08T12:03:27Z</time></trkpt><trkpt lat="42.697437166471666" lon="2.690445440608963"><ele>96.5</ele><time>2026-04-08T12:03:28Z</time></trkpt><trkpt lat="42.69753311243769" lon="2.690126662875073"><ele>98.0</ele><time>2026-04-08T12:03:29Z</time></trkpt><trkpt lat="42.69762701456158" lon="2.689807106840092"><ele>98.0</ele><time>2026-04-08T12:03:30Z</time></trkpt><trkpt lat="42.69772034191446" lon="2.6894839182884747"><ele>98.0</ele><time>2026-04-08T12:03:31Z</time></trkpt><trkpt lat="42.69780887407124" lon="2.689158831357242"><ele>97.0</ele><time>2026-04-08T12:03:32Z</time></trkpt><trkpt lat="42.697881983795" lon="2.688830427348923"><ele>96.0</ele><time>2026-04-08T12:03:33Z</time></trkpt><trkpt lat="42.697957123747" lon="2.6884921682312024"><ele>96.0</ele><time>2026-04-08T12:03:34Z</time></trkpt><trkpt lat="42.69802877722694" lon="2.688152330380665"><ele>96.0</ele><time>2026-04-08T12:03:35Z</time></trkpt><trkpt lat="42.6980928659425" lon="2.6878135676990307"><ele>96.5</ele><time>2026-04-08T12:03:36Z</time></trkpt><trkpt lat="42.698151333668584" lon="2.6874683434126747"><ele>97.0</ele><time>2026-04-08T12:03:37Z</time></trkpt><trkpt lat="42.69820331455848" lon="2.6871269807638676"><ele>97.5</ele><time>2026-04-08T12:03:38Z</time></trkpt><trkpt lat="42.69824954931307" lon="2.6867819935085615"><ele>98.0</ele><time>2026-04-08T12:03:39Z</time></trkpt><trkpt lat="42.69829328758378" lon="2.6864420504979143"><ele>98.0</ele><time>2026-04-08T12:03:40Z</time></trkpt><trkpt lat="42.69833114333043" lon="2.6861004703507154"><ele>98.0</ele><time>2026-04-08T12:03:41Z</time></trkpt><trkpt lat="42.69837034533462" lon="2.685763669908467"><ele>98.0</ele><time>2026-04-08T12:03:42Z</time></trkpt><trkpt lat="42.698408561282385" lon="2.6854242481273856"><ele>98.0</ele><time>2026-04-08T12:03:43Z</time></trkpt><trkpt lat="42.698448857334014" lon="2.6850883642819663"><ele>98.0</ele><time>2026-04-08T12:03:44Z</time></trkpt><trkpt lat="42.69848674273728" lon="2.6847532702257615"><ele>98.0</ele><time>2026-04-08T12:03:45Z</time></trkpt><trkpt lat="42.69852543552252" lon="2.6844213059307456"><ele>97.5</ele><time>2026-04-08T12:03:46Z</time></trkpt><trkpt lat="42.69856250547848" lon="2.684088874449462"><ele>97.0</ele><time>2026-04-08T12:03:47Z</time></trkpt><trkpt lat="42.698598960453054" lon="2.6837553538282815"><ele>97.5</ele><time>2026-04-08T12:03:48Z</time></trkpt><trkpt lat="42.69863180282516" lon="2.6834175630768704"><ele>98.0</ele><time>2026-04-08T12:03:49Z</time></trkpt><trkpt lat="42.6986680892842" lon="2.683078606602398"><ele>97.5</ele><time>2026-04-08T12:03:50Z</time></trkpt><trkpt lat="42.698703894730635" lon="2.682748480103058"><ele>97.0</ele><time>2026-04-08T12:03:51Z</time></trkpt><trkpt lat="42.69874210144873" lon="2.6824211772336914"><ele>97.0</ele><time>2026-04-08T12:03:52Z</time></trkpt><trkpt lat="42.69878053760259" lon="2.682089696468144"><ele>97.0</ele><time>2026-04-08T12:03:53Z</time></trkpt><trkpt lat="42.698816560292386" lon="2.681759663934213"><ele>97.5</ele><time>2026-04-08T12:03:54Z</time></trkpt><trkpt lat="42.69885223157852" lon="2.6814273313829813"><ele>98.0</ele><time>2026-04-08T12:03:55Z</time></trkpt><trkpt lat="42.698886610161786" lon="2.681091141109852"><ele>98.5</ele><time>2026-04-08T12:03:56Z</time></trkpt><trkpt lat="42.6989245632735" lon="2.6807532261784273"><ele>99.0</ele><time>2026-04-08T12:03:57Z</time></trkpt><trkpt lat="42.698963505560066" lon="2.6804123498131927"><ele>98.5</ele><time>2026-04-08T12:03:58Z</time></trkpt><trkpt lat="42.69900508617037" lon="2.680071345348176"><ele>98.0</ele><time>2026-04-08T12:03:59Z</time></trkpt><trkpt lat="42.69904458246812" lon="2.6797280871479603"><ele>99.0</ele><time>2026-04-08T12:04:00Z</time></trkpt><trkpt lat="42.69908385441502" lon="2.6793843195840474"><ele>100.0</ele><time>2026-04-08T12:04:01Z</time></trkpt><trkpt lat="42.699120725552056" lon="2.6790353187840856"><ele>100.0</ele><time>2026-04-08T12:04:02Z</time></trkpt><trkpt lat="42.699150649408686" lon="2.678682446512752"><ele>100.0</ele><time>2026-04-08T12:04:03Z</time></trkpt><trkpt lat="42.69917456246497" lon="2.6783278417122376"><ele>100.5</ele><time>2026-04-08T12:04:04Z</time></trkpt><trkpt lat="42.69919187400786" lon="2.6779706506899874"><ele>101.0</ele><time>2026-04-08T12:04:05Z</time></trkpt><trkpt lat="42.699201240256976" lon="2.6776121508955986"><ele>102.5</ele><time>2026-04-08T12:04:06Z</time></trkpt><trkpt lat="42.69920580790596" lon="2.6772516247041405"><ele>104.0</ele><time>2026-04-08T12:04:07Z</time></trkpt><trkpt lat="42.699206445406666" lon="2.6768896643919513"><ele>104.5</ele><time>2026-04-08T12:04:08Z</time></trkpt><trkpt lat="42.699199698094155" lon="2.6765289813046396"><ele>105.0</ele><time>2026-04-08T12:04:09Z</time></trkpt><trkpt lat="42.69918759273455" lon="2.6761674046137682"><ele>104.5</ele><time>2026-04-08T12:04:10Z</time></trkpt><trkpt lat="42.699169687233294" lon="2.6758023632732617"><ele>104.0</ele><time>2026-04-08T12:04:11Z</time></trkpt><trkpt lat="42.69914864457742" lon="2.6754201958946875"><ele>103.0</ele><time>2026-04-08T12:04:12Z</time></trkpt><trkpt lat="42.69912321366409" lon="2.6750298115693494"><ele>102.0</ele><time>2026-04-08T12:04:13Z</time></trkpt><trkpt lat="42.69908093615554" lon="2.6747445899149835"><ele>102.5</ele><time>2026-04-08T12:04:14Z</time></trkpt><trkpt lat="42.69903861221714" lon="2.6743900358066632"><ele>103.0</ele><time>2026-04-08T12:04:15Z</time></trkpt><trkpt lat="42.698991220664304" lon="2.674038346915102"><ele>103.0</ele><time>2026-04-08T12:04:16Z</time></trkpt><trkpt lat="42.69894006004765" lon="2.673692472642583"><ele>103.0</ele><time>2026-04-08T12:04:17Z</time></trkpt><trkpt lat="42.698885746977616" lon="2.6733493900194283"><ele>103.5</ele><time>2026-04-08T12:04:18Z</time></trkpt><trkpt lat="42.698825036910215" lon="2.6730058734471616"><ele>104.0</ele><time>2026-04-08T12:04:19Z</time></trkpt><trkpt lat="42.698748836659384" lon="2.672665678029312"><ele>104.0</ele><time>2026-04-08T12:04:20Z</time></trkpt><trkpt lat="42.69867177399804" lon="2.6723296245951844"><ele>104.0</ele><time>2026-04-08T12:04:21Z</time></trkpt><trkpt lat="42.69859596028683" lon="2.671996030716331"><ele>105.0</ele><time>2026-04-08T12:04:22Z</time></trkpt><trkpt lat="42.69851328441437" lon="2.6716673397447015"><ele>106.0</ele><time>2026-04-08T12:04:23Z</time></trkpt><trkpt lat="42.69842390382935" lon="2.671347036344056"><ele>105.0</ele><time>2026-04-08T12:04:24Z</time></trkpt><trkpt lat="42.698334132616345" lon="2.6710263573513666"><ele>104.0</ele><time>2026-04-08T12:04:25Z</time></trkpt><trkpt lat="42.69823209445516" lon="2.67071360922647"><ele>104.0</ele><time>2026-04-08T12:04:26Z</time></trkpt><trkpt lat="42.69812526770877" lon="2.6703979162772593"><ele>104.0</ele><time>2026-04-08T12:04:27Z</time></trkpt><trkpt lat="42.698014672672016" lon="2.6700891101042066"><ele>103.5</ele><time>2026-04-08T12:04:28Z</time></trkpt><trkpt lat="42.697898278782944" lon="2.6697877057329715"><ele>103.0</ele><time>2026-04-08T12:04:29Z</time></trkpt><trkpt lat="42.69777674548202" lon="2.669488969518901"><ele>105.5</ele><time>2026-04-08T12:04:30Z</time></trkpt><trkpt lat="42.69765720059782" lon="2.669194973642749"><ele>108.0</ele><time>2026-04-08T12:04:31Z</time></trkpt><trkpt lat="42.69752939426071" lon="2.6689038726191265"><ele>108.0</ele><time>2026-04-08T12:04:32Z</time></trkpt><trkpt lat="42.69739994314592" lon="2.6686144728758077"><ele>108.0</ele><time>2026-04-08T12:04:32.999Z</time></trkpt><trkpt lat="42.6972666537019" lon="2.6683301094688927"><ele>107.0</ele><time>2026-04-08T12:04:33.999Z</time></trkpt><trkpt lat="42.697132805000955" lon="2.668049329395995"><ele>106.0</ele><time>2026-04-08T12:04:34.999Z</time></trkpt><trkpt lat="42.69699013182485" lon="2.6677717877225455"><ele>107.5</ele><time>2026-04-08T12:04:35.999Z</time></trkpt><trkpt lat="42.696850992610045" lon="2.6674965081957036"><ele>109.0</ele><time>2026-04-08T12:04:36.999Z</time></trkpt><trkpt lat="42.696717350721215" lon="2.667211747373158"><ele>108.0</ele><time>2026-04-08T12:04:37.999Z</time></trkpt><trkpt lat="42.69658325557249" lon="2.666928370171087"><ele>107.0</ele><time>2026-04-08T12:04:38.999Z</time></trkpt><trkpt lat="42.69644777040141" lon="2.6666478337626875"><ele>107.0</ele><time>2026-04-08T12:04:39.999Z</time></trkpt><trkpt lat="42.696311390963196" lon="2.6663691072192406"><ele>107.0</ele><time>2026-04-08T12:04:40.999Z</time></trkpt><trkpt lat="42.69617625163415" lon="2.6660878867510402"><ele>108.0</ele><time>2026-04-08T12:04:41.999Z</time></trkpt><trkpt lat="42.69604220401644" lon="2.6658037736728732"><ele>109.0</ele><time>2026-04-08T12:04:42.999Z</time></trkpt><trkpt lat="42.69590786165631" lon="2.6655221223536945"><ele>108.5</ele><time>2026-04-08T12:04:43.999Z</time></trkpt><trkpt lat="42.69577131858951" lon="2.6652431634830296"><ele>108.0</ele><time>2026-04-08T12:04:44.999Z</time></trkpt><trkpt lat="42.69563447747558" lon="2.664963546935996"><ele>108.0</ele><time>2026-04-08T12:04:45.999Z</time></trkpt><trkpt lat="42.695496137465405" lon="2.664681087897508"><ele>108.0</ele><time>2026-04-08T12:04:46.999Z</time></trkpt><trkpt lat="42.69535922590267" lon="2.664398910841043"><ele>108.5</ele><time>2026-04-08T12:04:47.999Z</time></trkpt><trkpt lat="42.695224848353334" lon="2.664115635727724"><ele>109.0</ele><time>2026-04-08T12:04:48.999Z</time></trkpt><trkpt lat="42.69509113451613" lon="2.6638338059689053"><ele>108.5</ele><time>2026-04-08T12:04:49.999Z</time></trkpt><trkpt lat="42.694957745873516" lon="2.663560170243744"><ele>108.0</ele><time>2026-04-08T12:04:50.999Z</time></trkpt><trkpt lat="42.69482691557694" lon="2.6632911386543836"><ele>108.0</ele><time>2026-04-08T12:04:51.999Z</time></trkpt><trkpt lat="42.69470212710558" lon="2.663015126839149"><ele>108.0</ele><time>2026-04-08T12:04:52.999Z</time></trkpt><trkpt lat="42.69457571231694" lon="2.662739271310011"><ele>108.0</ele><time>2026-04-08T12:04:53.999Z</time></trkpt><trkpt lat="42.69444753687189" lon="2.6624627722359753"><ele>108.0</ele><time>2026-04-08T12:04:54.999Z</time></trkpt><trkpt lat="42.69432367033066" lon="2.662181265489238"><ele>108.5</ele><time>2026-04-08T12:04:55.999Z</time></trkpt><trkpt lat="42.694210367546184" lon="2.6618919947001256"><ele>109.0</ele><time>2026-04-08T12:04:56.999Z</time></trkpt><trkpt lat="42.69410365544158" lon="2.6615985127559294"><ele>109.0</ele><time>2026-04-08T12:04:57.999Z</time></trkpt><trkpt lat="42.69400514268248" lon="2.661300623583975"><ele>109.0</ele><time>2026-04-08T12:04:58.999Z</time></trkpt><trkpt lat="42.69391429711124" lon="2.6609993064714845"><ele>109.5</ele><time>2026-04-08T12:04:59.999Z</time></trkpt><trkpt lat="42.693829301017445" lon="2.6606942426866445"><ele>110.0</ele><time>2026-04-08T12:05:00.999Z</time></trkpt><trkpt lat="42.69374900443254" lon="2.6603910719542023"><ele>110.0</ele><time>2026-04-08T12:05:01.999Z</time></trkpt><trkpt lat="42.69367282724509" lon="2.660085585068507"><ele>110.0</ele><time>2026-04-08T12:05:02.999Z</time></trkpt><trkpt lat="42.69360600778978" lon="2.659779872998941"><ele>111.5</ele><time>2026-04-08T12:05:03.999Z</time></trkpt><trkpt lat="42.69355134915016" lon="2.6594682624332413"><ele>113.0</ele><time>2026-04-08T12:05:04.999Z</time></trkpt><trkpt lat="42.69350113922756" lon="2.6591558659319134"><ele>113.0</ele><time>2026-04-08T12:05:05.999Z</time></trkpt><trkpt lat="42.69345653843104" lon="2.658849730334081"><ele>113.0</ele><time>2026-04-08T12:05:06.999Z</time></trkpt><trkpt lat="42.69342401976616" lon="2.6585136680182617"><ele>113.5</ele><time>2026-04-08T12:05:07.999Z</time></trkpt><trkpt lat="42.69340074121897" lon="2.6581854624039996"><ele>114.0</ele><time>2026-04-08T12:05:08.999Z</time></trkpt><trkpt lat="42.69338605739707" lon="2.657857463169862"><ele>113.5</ele><time>2026-04-08T12:05:09.999Z</time></trkpt><trkpt lat="42.69337670968294" lon="2.657528187630002"><ele>113.0</ele><time>2026-04-08T12:05:10.999Z</time></trkpt><trkpt lat="42.69337997256587" lon="2.657199004200869"><ele>114.0</ele><time>2026-04-08T12:05:11.999Z</time></trkpt><trkpt lat="42.693386056521575" lon="2.6568689935526466"><ele>115.0</ele><time>2026-04-08T12:05:13Z</time></trkpt><trkpt lat="42.69339953867209" lon="2.6565396744657424"><ele>115.0</ele><time>2026-04-08T12:05:14Z</time></trkpt><trkpt lat="42.69342527763604" lon="2.656212596071043"><ele>115.0</ele><time>2026-04-08T12:05:15Z</time></trkpt><trkpt lat="42.693450687539574" lon="2.655885285732164"><ele>115.0</ele><time>2026-04-08T12:05:16Z</time></trkpt><trkpt lat="42.693482308227544" lon="2.6555600588686694"><ele>115.0</ele><time>2026-04-08T12:05:17Z</time></trkpt><trkpt lat="42.6935077348671" lon="2.6552327436578773"><ele>115.5</ele><time>2026-04-08T12:05:18Z</time></trkpt><trkpt lat="42.69353372999154" lon="2.65490539026023"><ele>116.0</ele><time>2026-04-08T12:05:19Z</time></trkpt><trkpt lat="42.69356194980555" lon="2.6545766329551648"><ele>115.0</ele><time>2026-04-08T12:05:20Z</time></trkpt><trkpt lat="42.69359181245318" lon="2.654249193354996"><ele>114.0</ele><time>2026-04-08T12:05:21Z</time></trkpt><trkpt lat="42.69362277538694" lon="2.653919353623823"><ele>114.5</ele><time>2026-04-08T12:05:22Z</time></trkpt><trkpt lat="42.69365052673799" lon="2.653587131746886"><ele>115.0</ele><time>2026-04-08T12:05:23Z</time></trkpt><trkpt lat="42.693674070015724" lon="2.653254116125666"><ele>115.0</ele><time>2026-04-08T12:05:24Z</time></trkpt><trkpt lat="42.69370262583587" lon="2.6529227704323923"><ele>115.0</ele><time>2026-04-08T12:05:25Z</time></trkpt><trkpt lat="42.69373346831008" lon="2.6525950262513813"><ele>114.5</ele><time>2026-04-08T12:05:26Z</time></trkpt><trkpt lat="42.69376267976352" lon="2.6522641630696766"><ele>114.0</ele><time>2026-04-08T12:05:27Z</time></trkpt><trkpt lat="42.69379288761173" lon="2.651932230545737"><ele>114.0</ele><time>2026-04-08T12:05:28Z</time></trkpt><trkpt lat="42.6938202611264" lon="2.651598948585045"><ele>114.0</ele><time>2026-04-08T12:05:29Z</time></trkpt><trkpt lat="42.69384640211797" lon="2.651264685959233"><ele>113.5</ele><time>2026-04-08T12:05:30Z</time></trkpt><trkpt lat="42.693875764879145" lon="2.650932835469731"><ele>113.0</ele><time>2026-04-08T12:05:31Z</time></trkpt><trkpt lat="42.69390354688647" lon="2.6506020650764093"><ele>113.0</ele><time>2026-04-08T12:05:32Z</time></trkpt><trkpt lat="42.693931314909356" lon="2.65027247130932"><ele>113.0</ele><time>2026-04-08T12:05:33Z</time></trkpt><trkpt lat="42.69395800213197" lon="2.649942624580871"><ele>113.0</ele><time>2026-04-08T12:05:34Z</time></trkpt><trkpt lat="42.693981434211345" lon="2.649611228893297"><ele>113.0</ele><time>2026-04-08T12:05:35Z</time></trkpt><trkpt lat="42.69399920891311" lon="2.649284000440221"><ele>114.0</ele><time>2026-04-08T12:05:36Z</time></trkpt><trkpt lat="42.69400243166533" lon="2.6489526131008567"><ele>115.0</ele><time>2026-04-08T12:05:37Z</time></trkpt><trkpt lat="42.693993481109295" lon="2.6486224598729704"><ele>116.0</ele><time>2026-04-08T12:05:38Z</time></trkpt><trkpt lat="42.69398167342933" lon="2.6482953543125696"><ele>117.0</ele><time>2026-04-08T12:05:39Z</time></trkpt><trkpt lat="42.69396053705575" lon="2.647966972789442"><ele>117.0</ele><time>2026-04-08T12:05:40Z</time></trkpt><trkpt lat="42.69393468818248" lon="2.647640176035775"><ele>117.0</ele><time>2026-04-08T12:05:41Z</time></trkpt><trkpt lat="42.6939024351212" lon="2.6473106195243545"><ele>117.0</ele><time>2026-04-08T12:05:42Z</time></trkpt><trkpt lat="42.693864369992916" lon="2.6469840790847567"><ele>117.0</ele><time>2026-04-08T12:05:43Z</time></trkpt><trkpt lat="42.69382138529951" lon="2.646659312126267"><ele>117.0</ele><time>2026-04-08T12:05:44Z</time></trkpt><trkpt lat="42.69377105340602" lon="2.646335395762198"><ele>117.0</ele><time>2026-04-08T12:05:45Z</time></trkpt><trkpt lat="42.69371071386999" lon="2.6460083007308195"><ele>117.0</ele><time>2026-04-08T12:05:46Z</time></trkpt><trkpt lat="42.693641292231085" lon="2.645682883717885"><ele>117.0</ele><time>2026-04-08T12:05:47Z</time></trkpt><trkpt lat="42.69356136118834" lon="2.6453636051242326"><ele>118.0</ele><time>2026-04-08T12:05:48Z</time></trkpt><trkpt lat="42.693476601654936" lon="2.645050840042698"><ele>119.0</ele><time>2026-04-08T12:05:49Z</time></trkpt><trkpt lat="42.69338463813134" lon="2.6447376506804905"><ele>118.0</ele><time>2026-04-08T12:05:50Z</time></trkpt><trkpt lat="42.69328758022511" lon="2.6444264546259664"><ele>117.0</ele><time>2026-04-08T12:05:51Z</time></trkpt><trkpt lat="42.69318233416526" lon="2.6441189420110955"><ele>117.0</ele><time>2026-04-08T12:05:52Z</time></trkpt><trkpt lat="42.69307034067402" lon="2.643816036982697"><ele>117.0</ele><time>2026-04-08T12:05:53Z</time></trkpt><trkpt lat="42.692947745925856" lon="2.643517493352483"><ele>118.0</ele><time>2026-04-08T12:05:54Z</time></trkpt><trkpt lat="42.692820387778006" lon="2.6432242120370084"><ele>119.0</ele><time>2026-04-08T12:05:55Z</time></trkpt><trkpt lat="42.69268638040029" lon="2.6429356648201714"><ele>120.5</ele><time>2026-04-08T12:05:56Z</time></trkpt><trkpt lat="42.69254751126798" lon="2.6426554388643493"><ele>122.0</ele><time>2026-04-08T12:05:57Z</time></trkpt><trkpt lat="42.69240961634689" lon="2.642384377394126"><ele>122.0</ele><time>2026-04-08T12:05:58Z</time></trkpt><trkpt lat="42.69225559917372" lon="2.6421058106131126"><ele>122.0</ele><time>2026-04-08T12:05:59Z</time></trkpt><trkpt lat="42.692101969447684" lon="2.641841820597603"><ele>121.5</ele><time>2026-04-08T12:06:00Z</time></trkpt><trkpt lat="42.691932681888" lon="2.6415862846558924"><ele>121.0</ele><time>2026-04-08T12:06:01Z</time></trkpt><trkpt lat="42.69176061012261" lon="2.6413378783449537"><ele>121.0</ele><time>2026-04-08T12:06:02Z</time></trkpt><trkpt lat="42.69158432290473" lon="2.6410970959054834"><ele>121.0</ele><time>2026-04-08T12:06:03Z</time></trkpt><trkpt lat="42.691403624378715" lon="2.640858949321533"><ele>121.0</ele><time>2026-04-08T12:06:04Z</time></trkpt><trkpt lat="42.69122026335537" lon="2.640623550078152"><ele>121.0</ele><time>2026-04-08T12:06:05Z</time></trkpt><trkpt lat="42.691036590362756" lon="2.640392692053944"><ele>121.0</ele><time>2026-04-08T12:06:06Z</time></trkpt><trkpt lat="42.690850997812014" lon="2.6401602374222097"><ele>121.0</ele><time>2026-04-08T12:06:07Z</time></trkpt><trkpt lat="42.690666373206696" lon="2.639922694445101"><ele>121.0</ele><time>2026-04-08T12:06:08Z</time></trkpt><trkpt lat="42.690485904293446" lon="2.639686382947883"><ele>121.0</ele><time>2026-04-08T12:06:09Z</time></trkpt><trkpt lat="42.6903005240884" lon="2.639448490077806"><ele>121.0</ele><time>2026-04-08T12:06:10Z</time></trkpt><trkpt lat="42.69011549652058" lon="2.6392115241898466"><ele>121.0</ele><time>2026-04-08T12:06:11Z</time></trkpt><trkpt lat="42.68993296194278" lon="2.638979781849668"><ele>121.0</ele><time>2026-04-08T12:06:12Z</time></trkpt><trkpt lat="42.689747103631255" lon="2.6387447233124677"><ele>121.0</ele><time>2026-04-08T12:06:13Z</time></trkpt><trkpt lat="42.68956353431885" lon="2.638510180918079"><ele>122.5</ele><time>2026-04-08T12:06:14Z</time></trkpt><trkpt lat="42.68938134694079" lon="2.638276539141885"><ele>124.0</ele><time>2026-04-08T12:06:15Z</time></trkpt><trkpt lat="42.689201397909315" lon="2.638046005062845"><ele>124.0</ele><time>2026-04-08T12:06:16Z</time></trkpt><trkpt lat="42.68902168513028" lon="2.6378203589981295"><ele>124.0</ele><time>2026-04-08T12:06:17Z</time></trkpt><trkpt lat="42.688841392744145" lon="2.637594281239846"><ele>124.5</ele><time>2026-04-08T12:06:18Z</time></trkpt><trkpt lat="42.68865929410545" lon="2.637371962968123"><ele>125.0</ele><time>2026-04-08T12:06:19Z</time></trkpt><trkpt lat="42.688482819965415" lon="2.6371498426513913"><ele>123.5</ele><time>2026-04-08T12:06:20Z</time></trkpt><trkpt lat="42.68831107093563" lon="2.636919844587139"><ele>122.0</ele><time>2026-04-08T12:06:21Z</time></trkpt><trkpt lat="42.68814124194639" lon="2.636680279773359"><ele>122.0</ele><time>2026-04-08T12:06:22Z</time></trkpt><trkpt lat="42.68797387847805" lon="2.636437646564797"><ele>122.0</ele><time>2026-04-08T12:06:23Z</time></trkpt><trkpt lat="42.687816207698525" lon="2.6361900582284736"><ele>122.0</ele><time>2026-04-08T12:06:24Z</time></trkpt><trkpt lat="42.68765909703834" lon="2.6359356407250583"><ele>122.0</ele><time>2026-04-08T12:06:25Z</time></trkpt><trkpt lat="42.68751163816786" lon="2.635681987051222"><ele>122.0</ele><time>2026-04-08T12:06:26Z</time></trkpt><trkpt lat="42.68736045276876" lon="2.6354254931651515"><ele>122.0</ele><time>2026-04-08T12:06:27Z</time></trkpt><trkpt lat="42.68721577754312" lon="2.6351614043212463"><ele>122.0</ele><time>2026-04-08T12:06:28Z</time></trkpt><trkpt lat="42.68707678783524" lon="2.6348974031338597"><ele>122.0</ele><time>2026-04-08T12:06:29Z</time></trkpt><trkpt lat="42.68693460873067" lon="2.634636127087404"><ele>122.5</ele><time>2026-04-08T12:06:29.999Z</time></trkpt><trkpt lat="42.68679650888303" lon="2.6343746927410048"><ele>123.0</ele><time>2026-04-08T12:06:30.999Z</time></trkpt><trkpt lat="42.686655520403484" lon="2.6341141293114942"><ele>123.0</ele><time>2026-04-08T12:06:31.999Z</time></trkpt><trkpt lat="42.68651530542044" lon="2.63385801710126"><ele>123.0</ele><time>2026-04-08T12:06:32.999Z</time></trkpt><trkpt lat="42.686373681962095" lon="2.6335982718488173"><ele>123.0</ele><time>2026-04-08T12:06:33.999Z</time></trkpt><trkpt lat="42.68623269845461" lon="2.6333409780098114"><ele>123.0</ele><time>2026-04-08T12:06:34.999Z</time></trkpt><trkpt lat="42.68608914452188" lon="2.6330852957085167"><ele>123.0</ele><time>2026-04-08T12:06:35.999Z</time></trkpt><trkpt lat="42.685942778808915" lon="2.632833872940223"><ele>123.0</ele><time>2026-04-08T12:06:36.999Z</time></trkpt><trkpt lat="42.68578612673941" lon="2.63259018510848"><ele>124.5</ele><time>2026-04-08T12:06:37.999Z</time></trkpt><trkpt lat="42.685618854384195" lon="2.6323627109939793"><ele>126.0</ele><time>2026-04-08T12:06:38.999Z</time></trkpt><trkpt lat="42.68544080114598" lon="2.6321388362605345"><ele>126.0</ele><time>2026-04-08T12:06:39.999Z</time></trkpt><trkpt lat="42.6852544056525" lon="2.6319332716800035"><ele>126.0</ele><time>2026-04-08T12:06:40.999Z</time></trkpt><trkpt lat="42.6850587228574" lon="2.6317374966692237"><ele>126.0</ele><time>2026-04-08T12:06:41.999Z</time></trkpt><trkpt lat="42.68485974064337" lon="2.6315551063055493"><ele>126.0</ele><time>2026-04-08T12:06:42.999Z</time></trkpt><trkpt lat="42.68465158805022" lon="2.631384000510543"><ele>126.0</ele><time>2026-04-08T12:06:43.999Z</time></trkpt><trkpt lat="42.68443695620675" lon="2.6312282280437285"><ele>126.0</ele><time>2026-04-08T12:06:44.999Z</time></trkpt><trkpt lat="42.68421503206144" lon="2.6310888094150355"><ele>125.5</ele><time>2026-04-08T12:06:45.999Z</time></trkpt><trkpt lat="42.68398341230175" lon="2.6309670740289812"><ele>125.0</ele><time>2026-04-08T12:06:46.999Z</time></trkpt><trkpt lat="42.68374891262688" lon="2.630861719158645"><ele>127.0</ele><time>2026-04-08T12:06:47.999Z</time></trkpt><trkpt lat="42.68351028947883" lon="2.630776053706983"><ele>129.0</ele><time>2026-04-08T12:06:48.999Z</time></trkpt><trkpt lat="42.68327133991135" lon="2.6306988207117765"><ele>129.0</ele><time>2026-04-08T12:06:49.999Z</time></trkpt><trkpt lat="42.68302992531716" lon="2.6306304940203855"><ele>129.0</ele><time>2026-04-08T12:06:50.999Z</time></trkpt><trkpt lat="42.68279005399814" lon="2.630566021368619"><ele>129.0</ele><time>2026-04-08T12:06:51.999Z</time></trkpt><trkpt lat="42.682564996664716" lon="2.630505671899256"><ele>129.0</ele><time>2026-04-08T12:06:52.999Z</time></trkpt><trkpt lat="42.68235171468007" lon="2.6304464790556636"><ele>129.0</ele><time>2026-04-08T12:06:53.999Z</time></trkpt><trkpt lat="42.68215300382547" lon="2.6303720887278845"><ele>129.33333333333334</ele><time>2026-04-08T12:06:54.999Z</time></trkpt><trkpt lat="42.681964473139935" lon="2.630293215883997"><ele>129.66666666666669</ele><time>2026-04-08T12:06:55.999Z</time></trkpt><trkpt lat="42.68179695665897" lon="2.6302221671884265"><ele>130.0</ele><time>2026-04-08T12:06:56.999Z</time></trkpt><trkpt lat="42.68163047143829" lon="2.6301449488244546"><ele>130.0</ele><time>2026-04-08T12:06:57.999Z</time></trkpt><trkpt lat="42.68146619600282" lon="2.630052482250748"><ele>130.0</ele><time>2026-04-08T12:06:58.999Z</time></trkpt><trkpt lat="42.6812919942889" lon="2.6299664997668435"><ele>130.0</ele><time>2026-04-08T12:06:59.999Z</time></trkpt><trkpt lat="42.68115155744417" lon="2.629872885964105"><ele>130.25</ele><time>2026-04-08T12:07:00.999Z</time></trkpt><trkpt lat="42.68101807980035" lon="2.629778535792596"><ele>130.5</ele><time>2026-04-08T12:07:01.999Z</time></trkpt><trkpt lat="42.680909355802775" lon="2.629689909988704"><ele>130.75</ele><time>2026-04-08T12:07:02.999Z</time></trkpt><trkpt lat="42.68081617735009" lon="2.6296092608244708"><ele>131.0</ele><time>2026-04-08T12:07:03.999Z</time></trkpt><trkpt lat="42.68073742454986" lon="2.6295394905485625"><ele>131.0</ele><time>2026-04-08T12:07:04.999Z</time></trkpt><trkpt lat="42.680666656042526" lon="2.629477604943039"><ele>131.0</ele><time>2026-04-08T12:07:05.999Z</time></trkpt><trkpt lat="42.680606170642605" lon="2.6294276661819014"><ele>131.0</ele><time>2026-04-08T12:07:06.999Z</time></trkpt><trkpt lat="42.68052368990759" lon="2.6293696157694137"><ele>131.0</ele><time>2026-04-08T12:07:08.999Z</time></trkpt><trkpt lat="42.68044767152088" lon="2.629412574058808"><ele>131.0</ele><time>2026-04-08T12:07:11.999Z</time></trkpt><trkpt lat="42.680371746102466" lon="2.629568333397336"><ele>131.0</ele><time>2026-04-08T12:07:13.999Z</time></trkpt><trkpt lat="42.6803387458343" lon="2.629678443774497"><ele>131.0</ele><time>2026-04-08T12:07:14.999Z</time></trkpt><trkpt lat="42.68030623080565" lon="2.6298111418109933"><ele>131.0</ele><time>2026-04-08T12:07:15.999Z</time></trkpt><trkpt lat="42.680265057164696" lon="2.6299467773615413"><ele>131.0</ele><time>2026-04-08T12:07:16.999Z</time></trkpt><trkpt lat="42.680219328918895" lon="2.6300806967579313"><ele>131.0</ele><time>2026-04-08T12:07:17.999Z</time></trkpt><trkpt lat="42.68016790292936" lon="2.6302287406487554"><ele>131.25</ele><time>2026-04-08T12:07:19Z</time></trkpt><trkpt lat="42.68011293069843" lon="2.6303894085253545"><ele>131.5</ele><time>2026-04-08T12:07:20Z</time></trkpt><trkpt lat="42.680052528391606" lon="2.6305723878606786"><ele>131.75</ele><time>2026-04-08T12:07:21Z</time></trkpt><trkpt lat="42.679999542507204" lon="2.630757661737802"><ele>132.0</ele><time>2026-04-08T12:07:22Z</time></trkpt><trkpt lat="42.67990604288828" lon="2.630972712296579"><ele>131.0</ele><time>2026-04-08T12:07:23Z</time></trkpt><trkpt lat="42.67981741828803" lon="2.6311753490852245"><ele>130.0</ele><time>2026-04-08T12:07:24Z</time></trkpt><trkpt lat="42.67970785566279" lon="2.6313608772909167"><ele>129.0</ele><time>2026-04-08T12:07:25Z</time></trkpt><trkpt lat="42.67958275817629" lon="2.631535548334778"><ele>129.0</ele><time>2026-04-08T12:07:26Z</time></trkpt><trkpt lat="42.67944232344992" lon="2.631682886455529"><ele>129.0</ele><time>2026-04-08T12:07:27Z</time></trkpt><trkpt lat="42.679287999325545" lon="2.6318143972977994"><ele>129.0</ele><time>2026-04-08T12:07:28Z</time></trkpt><trkpt lat="42.67912185377314" lon="2.6319253261916677"><ele>130.0</ele><time>2026-04-08T12:07:29Z</time></trkpt><trkpt lat="42.67896093519699" lon="2.632025808384551"><ele>131.0</ele><time>2026-04-08T12:07:30Z</time></trkpt><trkpt lat="42.67881962794911" lon="2.6321147269671146"><ele>132.0</ele><time>2026-04-08T12:07:31Z</time></trkpt><trkpt lat="42.67869091169748" lon="2.6321925592835367"><ele>132.25</ele><time>2026-04-08T12:07:32Z</time></trkpt><trkpt lat="42.67856781857831" lon="2.632268125985241"><ele>132.5</ele><time>2026-04-08T12:07:33Z</time></trkpt><trkpt lat="42.67844468689437" lon="2.632347487390922"><ele>132.75</ele><time>2026-04-08T12:07:34Z</time></trkpt><trkpt lat="42.67833831438414" lon="2.632419055604771"><ele>133.0</ele><time>2026-04-08T12:07:35Z</time></trkpt><trkpt lat="42.67824476991646" lon="2.63248330852243"><ele>133.0</ele><time>2026-04-08T12:07:36Z</time></trkpt><trkpt lat="42.67814068981557" lon="2.632544041031073"><ele>133.0</ele><time>2026-04-08T12:07:37Z</time></trkpt><trkpt lat="42.6780551721567" lon="2.632583661462019"><ele>133.0</ele><time>2026-04-08T12:07:38Z</time></trkpt><trkpt lat="42.677981322017466" lon="2.6326098549883676"><ele>133.0</ele><time>2026-04-08T12:07:39Z</time></trkpt><trkpt lat="42.677916796702874" lon="2.632623434717703"><ele>133.0</ele><time>2026-04-08T12:07:40Z</time></trkpt><trkpt lat="42.67779498731416" lon="2.632607624259514"><ele>133.83333333333334</ele><time>2026-04-08T12:07:42Z</time></trkpt><trkpt lat="42.67772397908953" lon="2.632575186550858"><ele>134.66666666666669</ele><time>2026-04-08T12:07:43Z</time></trkpt><trkpt lat="42.677649475869295" lon="2.632543828199765"><ele>135.5</ele><time>2026-04-08T12:07:44Z</time></trkpt><trkpt lat="42.67756780794146" lon="2.632512464546327"><ele>136.33333333333334</ele><time>2026-04-08T12:07:45Z</time></trkpt><trkpt lat="42.677506528704384" lon="2.632460564788905"><ele>137.16666666666666</ele><time>2026-04-08T12:07:46Z</time></trkpt><trkpt lat="42.67745710524903" lon="2.632354859092845"><ele>138.0</ele><time>2026-04-08T12:07:47Z</time></trkpt><trkpt lat="42.677393987951106" lon="2.632249377168744"><ele>138.0</ele><time>2026-04-08T12:07:48Z</time></trkpt><trkpt lat="42.67735004498454" lon="2.6321423423659187"><ele>138.0</ele><time>2026-04-08T12:07:49Z</time></trkpt><trkpt lat="42.67729985093407" lon="2.6320310483602065"><ele>138.0</ele><time>2026-04-08T12:07:50Z</time></trkpt><trkpt lat="42.67725433427331" lon="2.6319276238187563"><ele>138.0</ele><time>2026-04-08T12:07:51Z</time></trkpt><trkpt lat="42.677207247846745" lon="2.6318174091111897"><ele>138.0</ele><time>2026-04-08T12:07:52Z</time></trkpt><trkpt lat="42.6771636251315" lon="2.6316989909408113"><ele>137.8</ele><time>2026-04-08T12:07:53Z</time></trkpt><trkpt lat="42.67711590192823" lon="2.631583226309873"><ele>137.60000000000002</ele><time>2026-04-08T12:07:54Z</time></trkpt><trkpt lat="42.67706941494826" lon="2.6314629518874666"><ele>137.39999999999998</ele><time>2026-04-08T12:07:55Z</time></trkpt><trkpt lat="42.67702082294346" lon="2.6313443965343684"><ele>137.2</ele><time>2026-04-08T12:07:56Z</time></trkpt><trkpt lat="42.67697589683558" lon="2.6312332056392362"><ele>137.0</ele><time>2026-04-08T12:07:57Z</time></trkpt><trkpt lat="42.676925466990625" lon="2.631116985598526"><ele>138.2</ele><time>2026-04-08T12:07:58Z</time></trkpt><trkpt lat="42.67687664917427" lon="2.630996734145169"><ele>139.39999999999998</ele><time>2026-04-08T12:07:59Z</time></trkpt><trkpt lat="42.67682770422989" lon="2.6308744319761104"><ele>140.60000000000002</ele><time>2026-04-08T12:08:00Z</time></trkpt><trkpt lat="42.67677677092066" lon="2.6307483654368835"><ele>141.8</ele><time>2026-04-08T12:08:01Z</time></trkpt><trkpt lat="42.67672485605554" lon="2.6306231933975717"><ele>143.0</ele><time>2026-04-08T12:08:02Z</time></trkpt><trkpt lat="42.67667863884664" lon="2.630495594858403"><ele>143.0</ele><time>2026-04-08T12:08:03Z</time></trkpt><trkpt lat="42.67662703244379" lon="2.630375785800757"><ele>143.0</ele><time>2026-04-08T12:08:04Z</time></trkpt><trkpt lat="42.67657987619429" lon="2.6302592547755235"><ele>143.0</ele><time>2026-04-08T12:08:05Z</time></trkpt><trkpt lat="42.67653608023225" lon="2.6301451454976803"><ele>143.0</ele><time>2026-04-08T12:08:06Z</time></trkpt><trkpt lat="42.67648943253958" lon="2.630033005947237"><ele>143.0</ele><time>2026-04-08T12:08:07Z</time></trkpt><trkpt lat="42.67644165757382" lon="2.629916981359328"><ele>142.20000000000002</ele><time>2026-04-08T12:08:08Z</time></trkpt><trkpt lat="42.676397784052924" lon="2.6297961882899705"><ele>141.4</ele><time>2026-04-08T12:08:09Z</time></trkpt><trkpt lat="42.676351511068695" lon="2.629675280891056"><ele>140.60000000000002</ele><time>2026-04-08T12:08:10Z</time></trkpt><trkpt lat="42.67630156776123" lon="2.6295542883274927"><ele>139.8</ele><time>2026-04-08T12:08:11Z</time></trkpt><trkpt lat="42.67625232764123" lon="2.6294287416318753"><ele>139.0</ele><time>2026-04-08T12:08:12Z</time></trkpt><trkpt lat="42.67620239411047" lon="2.629300849034058"><ele>138.6</ele><time>2026-04-08T12:08:13Z</time></trkpt><trkpt lat="42.676154173722416" lon="2.629181577892553"><ele>138.2</ele><time>2026-04-08T12:08:14Z</time></trkpt><trkpt lat="42.67611615214659" lon="2.629076268409257"><ele>137.79999999999998</ele><time>2026-04-08T12:08:15Z</time></trkpt><trkpt lat="42.67608594467252" lon="2.628979103203024"><ele>137.4</ele><time>2026-04-08T12:08:16Z</time></trkpt><trkpt lat="42.67604393437451" lon="2.6288086210843766"><ele>137.0</ele><time>2026-04-08T12:08:18Z</time></trkpt><trkpt lat="42.676026798443566" lon="2.628725182535003"><ele>138.2</ele><time>2026-04-08T12:08:19Z</time></trkpt><trkpt lat="42.676005547696576" lon="2.62863648844472"><ele>139.39999999999998</ele><time>2026-04-08T12:08:19.999Z</time></trkpt><trkpt lat="42.67596421763026" lon="2.628552837797904"><ele>140.60000000000002</ele><time>2026-04-08T12:08:20.999Z</time></trkpt><trkpt lat="42.67590874510415" lon="2.6284723135157684"><ele>141.8</ele><time>2026-04-08T12:08:21.999Z</time></trkpt><trkpt lat="42.67585236740212" lon="2.628388152144058"><ele>143.0</ele><time>2026-04-08T12:08:22.999Z</time></trkpt><trkpt lat="42.67592846431881" lon="2.6281843498831843"><ele>143.0</ele><time>2026-04-08T12:08:23.999Z</time></trkpt><trkpt lat="42.67575134076673" lon="2.6281699785201824"><ele>143.0</ele><time>2026-04-08T12:08:24.999Z</time></trkpt><trkpt lat="42.67570429641547" lon="2.6280448371651413"><ele>143.0</ele><time>2026-04-08T12:08:25.999Z</time></trkpt><trkpt lat="42.67565771976655" lon="2.627919364637217"><ele>143.0</ele><time>2026-04-08T12:08:26.999Z</time></trkpt><trkpt lat="42.675613032109176" lon="2.627800321975498"><ele>143.20000000000002</ele><time>2026-04-08T12:08:27.999Z</time></trkpt><trkpt lat="42.67556621810307" lon="2.6276822502801362"><ele>143.4</ele><time>2026-04-08T12:08:28.999Z</time></trkpt><trkpt lat="42.675522734606076" lon="2.627567164266706"><ele>143.60000000000002</ele><time>2026-04-08T12:08:29.999Z</time></trkpt><trkpt lat="42.675473454252156" lon="2.6274491212764217"><ele>143.8</ele><time>2026-04-08T12:08:30.999Z</time></trkpt><trkpt lat="42.67542207331608" lon="2.627329976913679"><ele>144.0</ele><time>2026-04-08T12:08:31.999Z</time></trkpt><trkpt lat="42.67537265300692" lon="2.6272066992725414"><ele>144.0</ele><time>2026-04-08T12:08:32.999Z</time></trkpt><trkpt lat="42.67532272289291" lon="2.627081232762771"><ele>144.0</ele><time>2026-04-08T12:08:33.999Z</time></trkpt><trkpt lat="42.67527012496436" lon="2.626955768392847"><ele>144.0</ele><time>2026-04-08T12:08:34.999Z</time></trkpt><trkpt lat="42.67521683424511" lon="2.6268229250587116"><ele>144.0</ele><time>2026-04-08T12:08:35.999Z</time></trkpt><trkpt lat="42.67515984141273" lon="2.6266783541344694"><ele>144.0</ele><time>2026-04-08T12:08:36.999Z</time></trkpt><trkpt lat="42.675112172780295" lon="2.626550461515351"><ele>144.0</ele><time>2026-04-08T12:08:37.999Z</time></trkpt><trkpt lat="42.675070286617704" lon="2.626448066072416"><ele>144.0</ele><time>2026-04-08T12:08:38.999Z</time></trkpt><trkpt lat="42.67502330665391" lon="2.626329451533984"><ele>144.0</ele><time>2026-04-08T12:08:39.999Z</time></trkpt><trkpt lat="42.67496780551933" lon="2.6262142758649056"><ele>144.0</ele><time>2026-04-08T12:08:40.999Z</time></trkpt><trkpt lat="42.67489994188396" lon="2.626106904906399"><ele>144.0</ele><time>2026-04-08T12:08:41.999Z</time></trkpt><trkpt lat="42.67482811217865" lon="2.626004222378729"><ele>144.0</ele><time>2026-04-08T12:08:42.999Z</time></trkpt><trkpt lat="42.674753551098306" lon="2.625903351919219"><ele>144.0</ele><time>2026-04-08T12:08:43.999Z</time></trkpt><trkpt lat="42.674671669553625" lon="2.6258097317737037"><ele>144.0</ele><time>2026-04-08T12:08:44.999Z</time></trkpt><trkpt lat="42.674594567764885" lon="2.625711476960394"><ele>144.0</ele><time>2026-04-08T12:08:45.999Z</time></trkpt><trkpt lat="42.67452680854913" lon="2.6256187096275903"><ele>144.0</ele><time>2026-04-08T12:08:46.999Z</time></trkpt><trkpt lat="42.674462159489664" lon="2.625537860281255"><ele>144.0</ele><time>2026-04-08T12:08:47.999Z</time></trkpt><trkpt lat="42.67440121713725" lon="2.6254601263053905"><ele>144.0</ele><time>2026-04-08T12:08:48.999Z</time></trkpt><trkpt lat="42.674336975443154" lon="2.6253758400025475"><ele>144.0</ele><time>2026-04-08T12:08:49.999Z</time></trkpt><trkpt lat="42.674274076252104" lon="2.6252879615117477"><ele>144.0</ele><time>2026-04-08T12:08:50.999Z</time></trkpt><trkpt lat="42.67421099543575" lon="2.625197178832412"><ele>144.0</ele><time>2026-04-08T12:08:51.999Z</time></trkpt><trkpt lat="42.67414574342818" lon="2.6251076840199006"><ele>144.0</ele><time>2026-04-08T12:08:52.999Z</time></trkpt><trkpt lat="42.67408341730019" lon="2.625015931521615"><ele>144.0</ele><time>2026-04-08T12:08:53.999Z</time></trkpt><trkpt lat="42.674017214597534" lon="2.624924678132178"><ele>144.0</ele><time>2026-04-08T12:08:54.999Z</time></trkpt><trkpt lat="42.673952486936834" lon="2.6248425457823887"><ele>144.0</ele><time>2026-04-08T12:08:55.999Z</time></trkpt><trkpt lat="42.6738925851546" lon="2.6247698947633826"><ele>144.0</ele><time>2026-04-08T12:08:56.999Z</time></trkpt><trkpt lat="42.673833136691236" lon="2.624692069212733"><ele>144.0</ele><time>2026-04-08T12:08:57.999Z</time></trkpt><trkpt lat="42.67377843842537" lon="2.6246075570745697"><ele>144.0</ele><time>2026-04-08T12:08:58.999Z</time></trkpt><trkpt lat="42.67373117860305" lon="2.624525206781047"><ele>144.33333333333334</ele><time>2026-04-08T12:08:59.999Z</time></trkpt><trkpt lat="42.67368166005509" lon="2.6244516500097834"><ele>144.66666666666666</ele><time>2026-04-08T12:09:00.999Z</time></trkpt><trkpt lat="42.673620546486326" lon="2.6243822460678143"><ele>145.0</ele><time>2026-04-08T12:09:01.999Z</time></trkpt><trkpt lat="42.67355692028773" lon="2.624305923782226"><ele>145.33333333333331</ele><time>2026-04-08T12:09:02.999Z</time></trkpt><trkpt lat="42.67349462473207" lon="2.6242212573167283"><ele>145.66666666666666</ele><time>2026-04-08T12:09:03.999Z</time></trkpt><trkpt lat="42.67343135154563" lon="2.624135943247541"><ele>146.0</ele><time>2026-04-08T12:09:04.999Z</time></trkpt><trkpt lat="42.67336786945165" lon="2.6240539491865804"><ele>146.0</ele><time>2026-04-08T12:09:05.999Z</time></trkpt><trkpt lat="42.67330896873019" lon="2.62397550169696"><ele>146.0</ele><time>2026-04-08T12:09:06.999Z</time></trkpt><trkpt lat="42.673255704565655" lon="2.6239000802303067"><ele>146.0</ele><time>2026-04-08T12:09:07.999Z</time></trkpt><trkpt lat="42.67319919726789" lon="2.623821710194013"><ele>146.0</ele><time>2026-04-08T12:09:08.999Z</time></trkpt><trkpt lat="42.67313725763419" lon="2.623743402053671"><ele>146.0</ele><time>2026-04-08T12:09:09.999Z</time></trkpt><trkpt lat="42.673075516953396" lon="2.6236563167329345"><ele>146.0</ele><time>2026-04-08T12:09:10.999Z</time></trkpt><trkpt lat="42.673007659150024" lon="2.6235736147342923"><ele>146.0</ele><time>2026-04-08T12:09:11.999Z</time></trkpt><trkpt lat="42.67294186565998" lon="2.6234895314571567"><ele>146.0</ele><time>2026-04-08T12:09:12.999Z</time></trkpt><trkpt lat="42.67287524142792" lon="2.62340694265177"><ele>146.0</ele><time>2026-04-08T12:09:13.999Z</time></trkpt><trkpt lat="42.672812675584176" lon="2.623327421107215"><ele>146.0</ele><time>2026-04-08T12:09:14.999Z</time></trkpt><trkpt lat="42.67275028727041" lon="2.6232438319454463"><ele>146.0</ele><time>2026-04-08T12:09:15.999Z</time></trkpt><trkpt lat="42.67268573140474" lon="2.6231582613376117"><ele>146.0</ele><time>2026-04-08T12:09:16.999Z</time></trkpt><trkpt lat="42.67262520037038" lon="2.623075309781472"><ele>146.42857142857142</ele><time>2026-04-08T12:09:17.999Z</time></trkpt><trkpt lat="42.6725682499344" lon="2.623002183782538"><ele>146.85714285714286</ele><time>2026-04-08T12:09:18.999Z</time></trkpt><trkpt lat="42.6725157770649" lon="2.622934709064214"><ele>147.28571428571428</ele><time>2026-04-08T12:09:19.999Z</time></trkpt><trkpt lat="42.67246780953625" lon="2.6228683666391626"><ele>147.71428571428572</ele><time>2026-04-08T12:09:20.999Z</time></trkpt><trkpt lat="42.672417036639615" lon="2.6228161358059516"><ele>148.14285714285714</ele><time>2026-04-08T12:09:21.999Z</time></trkpt><trkpt lat="42.67238474983518" lon="2.6227422864032803"><ele>148.57142857142856</ele><time>2026-04-08T12:09:22.999Z</time></trkpt><trkpt lat="42.67233659508535" lon="2.6226769722405554"><ele>149.0</ele><time>2026-04-08T12:09:23.999Z</time></trkpt><trkpt lat="42.67227446854917" lon="2.6226193591207667"><ele>149.16666666666666</ele><time>2026-04-08T12:09:25Z</time></trkpt><trkpt lat="42.67221307013134" lon="2.62256740695642"><ele>149.33333333333331</ele><time>2026-04-08T12:09:26Z</time></trkpt><trkpt lat="42.6721160576756" lon="2.622563838546002"><ele>149.5</ele><time>2026-04-08T12:09:27Z</time></trkpt><trkpt lat="42.67203134463309" lon="2.622576974768513"><ele>149.66666666666666</ele><time>2026-04-08T12:09:28Z</time></trkpt><trkpt lat="42.67195431512685" lon="2.622541625762457"><ele>149.83333333333334</ele><time>2026-04-08T12:09:29Z</time></trkpt><trkpt lat="42.6718742848023" lon="2.622574239473936"><ele>150.0</ele><time>2026-04-08T12:09:32Z</time></trkpt><trkpt lat="42.67181471543788" lon="2.6225010187292965"><ele>150.0</ele><time>2026-04-08T12:09:33Z</time></trkpt><trkpt lat="42.67158072173922" lon="2.622467545450824"><ele>150.0</ele><time>2026-04-08T12:09:34Z</time></trkpt><trkpt lat="42.67151527362288" lon="2.622416375559578"><ele>150.0</ele><time>2026-04-08T12:09:35Z</time></trkpt><trkpt lat="42.67145681767113" lon="2.622349723648827"><ele>150.0</ele><time>2026-04-08T12:09:36Z</time></trkpt><trkpt lat="42.671386051161406" lon="2.622295913618725"><ele>150.0</ele><time>2026-04-08T12:09:37Z</time></trkpt><trkpt lat="42.67131862124263" lon="2.6222480864288746"><ele>150.0</ele><time>2026-04-08T12:09:38Z</time></trkpt><trkpt lat="42.67124937893579" lon="2.622206248515696"><ele>150.0</ele><time>2026-04-08T12:09:39Z</time></trkpt><trkpt lat="42.6711820578635" lon="2.6221675351699636"><ele>150.0</ele><time>2026-04-08T12:09:40Z</time></trkpt><trkpt lat="42.6711173227549" lon="2.622116788746702"><ele>150.0</ele><time>2026-04-08T12:09:41Z</time></trkpt><trkpt lat="42.67106800725598" lon="2.622019895220264"><ele>150.0</ele><time>2026-04-08T12:09:42Z</time></trkpt><trkpt lat="42.67100253988282" lon="2.621954316085723"><ele>150.8</ele><time>2026-04-08T12:09:43Z</time></trkpt><trkpt lat="42.670940362705366" lon="2.6218889553249616"><ele>151.6</ele><time>2026-04-08T12:09:44Z</time></trkpt><trkpt lat="42.67087806782713" lon="2.6218476509670183"><ele>152.4</ele><time>2026-04-08T12:09:45Z</time></trkpt><trkpt lat="42.67080299419043" lon="2.6217263072809867"><ele>153.2</ele><time>2026-04-08T12:09:47Z</time></trkpt><trkpt lat="42.67072752721146" lon="2.6216011119472524"><ele>154.0</ele><time>2026-04-08T12:09:49Z</time></trkpt><trkpt lat="42.67067868760274" lon="2.6215383512732173"><ele>154.0</ele><time>2026-04-08T12:09:50Z</time></trkpt><trkpt lat="42.67063788133988" lon="2.6214661884799333"><ele>154.0</ele><time>2026-04-08T12:09:51Z</time></trkpt><trkpt lat="42.67058577975257" lon="2.6214147188955303"><ele>154.0</ele><time>2026-04-08T12:09:52Z</time></trkpt><trkpt lat="42.67051419902475" lon="2.621397896379301"><ele>154.0</ele><time>2026-04-08T12:09:53Z</time></trkpt><trkpt lat="42.670421683055494" lon="2.6212913778023226"><ele>154.0</ele><time>2026-04-08T12:09:55Z</time></trkpt><trkpt lat="42.6703437914934" lon="2.6211797199182847"><ele>154.0</ele><time>2026-04-08T12:09:57Z</time></trkpt><trkpt lat="42.67028068686708" lon="2.6211121228872463"><ele>154.33333333333334</ele><time>2026-04-08T12:09:59Z</time></trkpt><trkpt lat="42.6702350311262" lon="2.6210528408364433"><ele>154.66666666666669</ele><time>2026-04-08T12:10:05Z</time></trkpt><trkpt lat="42.67018541203181" lon="2.620983373943506"><ele>155.0</ele><time>2026-04-08T12:10:07Z</time></trkpt><trkpt lat="42.67013316934926" lon="2.6208652472604985"><ele>155.33333333333334</ele><time>2026-04-08T12:10:09Z</time></trkpt><trkpt lat="42.67005588000973" lon="2.6208012593265075"><ele>155.66666666666666</ele><time>2026-04-08T12:10:10Z</time></trkpt><trkpt lat="42.67002711231433" lon="2.6207111283028492"><ele>156.0</ele><time>2026-04-08T12:10:11Z</time></trkpt><trkpt lat="42.669981458387916" lon="2.6206231425242916"><ele>156.0</ele><time>2026-04-08T12:10:12Z</time></trkpt><trkpt lat="42.66993968555294" lon="2.6205367611183075"><ele>156.0</ele><time>2026-04-08T12:10:13Z</time></trkpt><trkpt lat="42.669895826230956" lon="2.6204433825237574"><ele>156.0</ele><time>2026-04-08T12:10:14Z</time></trkpt><trkpt lat="42.66985877621176" lon="2.620352153623978"><ele>156.0</ele><time>2026-04-08T12:10:15Z</time></trkpt><trkpt lat="42.66982124198129" lon="2.6202636188606974"><ele>156.0</ele><time>2026-04-08T12:10:16Z</time></trkpt><trkpt lat="42.66979505537904" lon="2.6201653472101505"><ele>156.0</ele><time>2026-04-08T12:10:17Z</time></trkpt><trkpt lat="42.66981939207229" lon="2.620051240311286"><ele>156.0</ele><time>2026-04-08T12:10:18Z</time></trkpt><trkpt lat="42.66981060124287" lon="2.6199423145637333"><ele>156.0</ele><time>2026-04-08T12:10:19Z</time></trkpt><trkpt lat="42.669803178156045" lon="2.619838166540158"><ele>156.0</ele><time>2026-04-08T12:10:19.999Z</time></trkpt><trkpt lat="42.66978165658617" lon="2.619753437390304"><ele>156.0</ele><time>2026-04-08T12:10:20.999Z</time></trkpt><trkpt lat="42.6697836960108" lon="2.6195947609309678"><ele>156.0</ele><time>2026-04-08T12:10:22.999Z</time></trkpt><trkpt lat="42.669852714848254" lon="2.6194697535675564"><ele>156.33333333333334</ele><time>2026-04-08T12:10:24.999Z</time></trkpt><trkpt lat="42.66992776157126" lon="2.619343094985995"><ele>156.66666666666666</ele><time>2026-04-08T12:10:26.999Z</time></trkpt><trkpt lat="42.66996376860141" lon="2.6192589443985037"><ele>157.0</ele><time>2026-04-08T12:10:27.999Z</time></trkpt><trkpt lat="42.67000334078055" lon="2.619170559977325"><ele>157.33333333333331</ele><time>2026-04-08T12:10:28.999Z</time></trkpt><trkpt lat="42.6700424166006" lon="2.6190768950592886"><ele>157.66666666666666</ele><time>2026-04-08T12:10:29.999Z</time></trkpt><trkpt lat="42.670071927222075" lon="2.6189760365326245"><ele>158.0</ele><time>2026-04-08T12:10:30.999Z</time></trkpt><trkpt lat="42.67010629819296" lon="2.618882262182155"><ele>158.0</ele><time>2026-04-08T12:10:31.999Z</time></trkpt><trkpt lat="42.670144303243966" lon="2.6187903218769955"><ele>158.0</ele><time>2026-04-08T12:10:32.999Z</time></trkpt><trkpt lat="42.67016716741852" lon="2.6187070873243976"><ele>158.0</ele><time>2026-04-08T12:10:33.999Z</time></trkpt><trkpt lat="42.670226110452845" lon="2.6185695144675454"><ele>158.0</ele><time>2026-04-08T12:10:35.999Z</time></trkpt><trkpt lat="42.6703190565758" lon="2.6184644317763777"><ele>158.0</ele><time>2026-04-08T12:10:37.999Z</time></trkpt><trkpt lat="42.67039367421388" lon="2.61842837649738"><ele>157.66666666666666</ele><time>2026-04-08T12:10:38.999Z</time></trkpt><trkpt lat="42.67046581625704" lon="2.618388575033764"><ele>157.33333333333331</ele><time>2026-04-08T12:10:39.999Z</time></trkpt><trkpt lat="42.670530533886115" lon="2.618336286658646"><ele>157.0</ele><time>2026-04-08T12:10:40.999Z</time></trkpt><trkpt lat="42.670601900095626" lon="2.6182854265222018"><ele>156.66666666666666</ele><time>2026-04-08T12:10:41.999Z</time></trkpt><trkpt lat="42.67065247303751" lon="2.618227168032919"><ele>156.33333333333334</ele><time>2026-04-08T12:10:42.999Z</time></trkpt><trkpt lat="42.67072155413973" lon="2.6181880134204114"><ele>156.0</ele><time>2026-04-08T12:10:43.999Z</time></trkpt><trkpt lat="42.67079054740342" lon="2.6181425750545624"><ele>156.0</ele><time>2026-04-08T12:10:44.999Z</time></trkpt><trkpt lat="42.67085886594266" lon="2.6180994649825045"><ele>156.0</ele><time>2026-04-08T12:10:45.999Z</time></trkpt><trkpt lat="42.6709255337575" lon="2.6180464867178537"><ele>156.0</ele><time>2026-04-08T12:10:46.999Z</time></trkpt><trkpt lat="42.67099365803917" lon="2.617995016064871"><ele>156.0</ele><time>2026-04-08T12:10:47.999Z</time></trkpt><trkpt lat="42.671058016970264" lon="2.617948010101414"><ele>156.0</ele><time>2026-04-08T12:10:48.999Z</time></trkpt><trkpt lat="42.67119181429557" lon="2.6178821545477624"><ele>156.0</ele><time>2026-04-08T12:10:50.999Z</time></trkpt><trkpt lat="42.67125631585429" lon="2.6178391300012156"><ele>154.33333333333334</ele><time>2026-04-08T12:10:51.999Z</time></trkpt><trkpt lat="42.671321837387865" lon="2.6177924412336386"><ele>152.66666666666666</ele><time>2026-04-08T12:10:52.999Z</time></trkpt><trkpt lat="42.67138024384388" lon="2.6177499812490748"><ele>151.0</ele><time>2026-04-08T12:10:53.999Z</time></trkpt><trkpt lat="42.67146818812607" lon="2.617716747174374"><ele>149.33333333333331</ele><time>2026-04-08T12:10:55.999Z</time></trkpt><trkpt lat="42.67153786584847" lon="2.617700987005631"><ele>147.66666666666666</ele><time>2026-04-08T12:10:57.999Z</time></trkpt><trkpt lat="42.67164077528395" lon="2.617621427005972"><ele>146.0</ele><time>2026-04-08T12:10:59.999Z</time></trkpt><trkpt lat="42.67169108253934" lon="2.6175539977587787"><ele>146.0</ele><time>2026-04-08T12:11:00.999Z</time></trkpt><trkpt lat="42.67175318814151" lon="2.6175070103556366"><ele>146.0</ele><time>2026-04-08T12:11:01.999Z</time></trkpt><trkpt lat="42.67183982759796" lon="2.617428531837336"><ele>146.0</ele><time>2026-04-08T12:11:02.999Z</time></trkpt><trkpt lat="42.67194827675513" lon="2.6173287723401892"><ele>146.0</ele><time>2026-04-08T12:11:03.999Z</time></trkpt><trkpt lat="42.67206275594191" lon="2.6172141203486152"><ele>146.0</ele><time>2026-04-08T12:11:04.999Z</time></trkpt><trkpt lat="42.67218860814789" lon="2.6170912129606356"><ele>144.66666666666666</ele><time>2026-04-08T12:11:05.999Z</time></trkpt><trkpt lat="42.67232921308605" lon="2.6169622609976835"><ele>143.33333333333334</ele><time>2026-04-08T12:11:06.999Z</time></trkpt><trkpt lat="42.67247118251382" lon="2.6168352825681382"><ele>142.0</ele><time>2026-04-08T12:11:07.999Z</time></trkpt><trkpt lat="42.67261271694175" lon="2.616710290468023"><ele>142.0</ele><time>2026-04-08T12:11:08.999Z</time></trkpt><trkpt lat="42.67275243288913" lon="2.6165922660581513"><ele>142.0</ele><time>2026-04-08T12:11:09.999Z</time></trkpt><trkpt lat="42.67288999395747" lon="2.6164742910192222"><ele>142.0</ele><time>2026-04-08T12:11:10.999Z</time></trkpt><trkpt lat="42.673017510164385" lon="2.6163623590193645"><ele>141.5</ele><time>2026-04-08T12:11:11.999Z</time></trkpt><trkpt lat="42.67313537457125" lon="2.6162500549998855"><ele>141.0</ele><time>2026-04-08T12:11:12.999Z</time></trkpt><trkpt lat="42.67325555261547" lon="2.616141433984636"><ele>140.5</ele><time>2026-04-08T12:11:13.999Z</time></trkpt><trkpt lat="42.673384963458105" lon="2.6160443958449253"><ele>140.0</ele><time>2026-04-08T12:11:14.999Z</time></trkpt><trkpt lat="42.673516413203174" lon="2.615952284829058"><ele>139.33333333333331</ele><time>2026-04-08T12:11:15.999Z</time></trkpt><trkpt lat="42.67365803689557" lon="2.615877945947777"><ele>138.66666666666666</ele><time>2026-04-08T12:11:16.999Z</time></trkpt><trkpt lat="42.6738055205085" lon="2.615825897288221"><ele>138.0</ele><time>2026-04-08T12:11:17.999Z</time></trkpt><trkpt lat="42.673958419942636" lon="2.6158238932569153"><ele>138.0</ele><time>2026-04-08T12:11:18.999Z</time></trkpt><trkpt lat="42.67411175893834" lon="2.6158165827995883"><ele>138.0</ele><time>2026-04-08T12:11:19.999Z</time></trkpt><trkpt lat="42.6742651317415" lon="2.6158023402727886"><ele>138.0</ele><time>2026-04-08T12:11:20.999Z</time></trkpt><trkpt lat="42.6744133872711" lon="2.6158035109136653"><ele>137.66666666666666</ele><time>2026-04-08T12:11:21.999Z</time></trkpt><trkpt lat="42.674563721931186" lon="2.6157977010838747"><ele>137.33333333333331</ele><time>2026-04-08T12:11:22.999Z</time></trkpt><trkpt lat="42.67471742600376" lon="2.6157881669636747"><ele>137.0</ele><time>2026-04-08T12:11:23.999Z</time></trkpt><trkpt lat="42.67487316998718" lon="2.615781065347726"><ele>137.0</ele><time>2026-04-08T12:11:24.999Z</time></trkpt><trkpt lat="42.67502804780255" lon="2.615776963638992"><ele>137.0</ele><time>2026-04-08T12:11:25.999Z</time></trkpt><trkpt lat="42.67518186588377" lon="2.6157768866138547"><ele>137.0</ele><time>2026-04-08T12:11:26.999Z</time></trkpt><trkpt lat="42.67533365203448" lon="2.6157751843348542"><ele>137.5</ele><time>2026-04-08T12:11:27.999Z</time></trkpt><trkpt lat="42.67548536250088" lon="2.6157747844491275"><ele>138.0</ele><time>2026-04-08T12:11:28.999Z</time></trkpt><trkpt lat="42.6756320352152" lon="2.6157728082576623"><ele>138.5</ele><time>2026-04-08T12:11:29.999Z</time></trkpt><trkpt lat="42.67576079013546" lon="2.6157682616786526"><ele>139.0</ele><time>2026-04-08T12:11:31Z</time></trkpt><trkpt lat="42.67587334720182" lon="2.6157630537019525"><ele>139.0</ele><time>2026-04-08T12:11:32Z</time></trkpt><trkpt lat="42.67595650220642" lon="2.615758003682483"><ele>139.0</ele><time>2026-04-08T12:11:33Z</time></trkpt><trkpt lat="42.67603049902094" lon="2.615763349745777"><ele>139.0</ele><time>2026-04-08T12:11:34Z</time></trkpt><trkpt lat="42.67614539134166" lon="2.6158095246518998"><ele>139.0</ele><time>2026-04-08T12:11:36Z</time></trkpt><trkpt lat="42.67621861550423" lon="2.61585328847764"><ele>139.0</ele><time>2026-04-08T12:11:37Z</time></trkpt><trkpt lat="42.676298369086346" lon="2.6158923722720306"><ele>139.0</ele><time>2026-04-08T12:11:38Z</time></trkpt><trkpt lat="42.67639112426387" lon="2.6159334968137427"><ele>140.4</ele><time>2026-04-08T12:11:39Z</time></trkpt><trkpt lat="42.676462163573724" lon="2.615992091851146"><ele>141.8</ele><time>2026-04-08T12:11:40Z</time></trkpt><trkpt lat="42.676528171473976" lon="2.616091068596241"><ele>143.2</ele><time>2026-04-08T12:11:41Z</time></trkpt><trkpt lat="42.676580820821286" lon="2.6162124835029728"><ele>144.6</ele><time>2026-04-08T12:11:42Z</time></trkpt><trkpt lat="42.67662315118822" lon="2.616350399276343"><ele>146.0</ele><time>2026-04-08T12:11:43Z</time></trkpt><trkpt lat="42.676656580369226" lon="2.616490920144623"><ele>146.0</ele><time>2026-04-08T12:11:44Z</time></trkpt><trkpt lat="42.67669586611629" lon="2.6166513739271315"><ele>146.0</ele><time>2026-04-08T12:11:45Z</time></trkpt><trkpt lat="42.67674373609737" lon="2.6167980062045118"><ele>146.0</ele><time>2026-04-08T12:11:46Z</time></trkpt><trkpt lat="42.676802491753094" lon="2.616935803844678"><ele>146.0</ele><time>2026-04-08T12:11:47Z</time></trkpt><trkpt lat="42.67686505379007" lon="2.6170598719626637"><ele>146.75</ele><time>2026-04-08T12:11:48Z</time></trkpt><trkpt lat="42.67693898788212" lon="2.6171819647401975"><ele>147.5</ele><time>2026-04-08T12:11:49Z</time></trkpt><trkpt lat="42.677029600844634" lon="2.6172922465597446"><ele>148.25</ele><time>2026-04-08T12:11:50Z</time></trkpt><trkpt lat="42.67713675317278" lon="2.6173885654600837"><ele>149.0</ele><time>2026-04-08T12:11:51Z</time></trkpt><trkpt lat="42.67725743977439" lon="2.617475491242493"><ele>149.0</ele><time>2026-04-08T12:11:52Z</time></trkpt><trkpt lat="42.6773716235256" lon="2.6175503295299376"><ele>149.0</ele><time>2026-04-08T12:11:53Z</time></trkpt><trkpt lat="42.67749365206957" lon="2.6176442138352396"><ele>149.0</ele><time>2026-04-08T12:11:54Z</time></trkpt><trkpt lat="42.677602860620354" lon="2.617718362654333"><ele>149.0</ele><time>2026-04-08T12:11:55Z</time></trkpt><trkpt lat="42.67770740187281" lon="2.617791248371131"><ele>147.0</ele><time>2026-04-08T12:11:56Z</time></trkpt><trkpt lat="42.677791881994054" lon="2.6178655967382496"><ele>145.0</ele><time>2026-04-08T12:11:57Z</time></trkpt><trkpt lat="42.677892806108275" lon="2.617914011337242"><ele>143.0</ele><time>2026-04-08T12:11:58Z</time></trkpt><trkpt lat="42.6780006849332" lon="2.617977262950793"><ele>141.0</ele><time>2026-04-08T12:11:59Z</time></trkpt><trkpt lat="42.678117446645054" lon="2.6180318909523352"><ele>139.0</ele><time>2026-04-08T12:12:00Z</time></trkpt><trkpt lat="42.67824241481721" lon="2.61808473453758"><ele>139.0</ele><time>2026-04-08T12:12:01Z</time></trkpt><trkpt lat="42.678369396457924" lon="2.6181411273730424"><ele>139.0</ele><time>2026-04-08T12:12:02Z</time></trkpt><trkpt lat="42.67849260274751" lon="2.6181976778152087"><ele>139.0</ele><time>2026-04-08T12:12:03Z</time></trkpt><trkpt lat="42.67861785166282" lon="2.6182531695032125"><ele>139.0</ele><time>2026-04-08T12:12:04Z</time></trkpt><trkpt lat="42.678737625903295" lon="2.6183093519115315"><ele>140.0</ele><time>2026-04-08T12:12:05Z</time></trkpt><trkpt lat="42.67885193985141" lon="2.618379403848692"><ele>141.0</ele><time>2026-04-08T12:12:06Z</time></trkpt><trkpt lat="42.678979956732654" lon="2.6184368752803553"><ele>142.0</ele><time>2026-04-08T12:12:07Z</time></trkpt><trkpt lat="42.67909824827645" lon="2.618489231141792"><ele>143.0</ele><time>2026-04-08T12:12:07.999Z</time></trkpt><trkpt lat="42.67920506158664" lon="2.6185388736395727"><ele>143.0</ele><time>2026-04-08T12:12:08.999Z</time></trkpt><trkpt lat="42.679306468204615" lon="2.6185870181219015"><ele>143.0</ele><time>2026-04-08T12:12:09.999Z</time></trkpt><trkpt lat="42.67940403354768" lon="2.618616885174765"><ele>143.0</ele><time>2026-04-08T12:12:10.999Z</time></trkpt><trkpt lat="42.67950274708745" lon="2.6186242448959334"><ele>143.0</ele><time>2026-04-08T12:12:11.999Z</time></trkpt><trkpt lat="42.67960883732444" lon="2.618599622833455"><ele>143.0</ele><time>2026-04-08T12:12:12.999Z</time></trkpt><trkpt lat="42.679744179356824" lon="2.618560624379855"><ele>142.75</ele><time>2026-04-08T12:12:13.999Z</time></trkpt><trkpt lat="42.67994086830715" lon="2.618506559657946"><ele>142.5</ele><time>2026-04-08T12:12:14.999Z</time></trkpt><trkpt lat="42.68004488595013" lon="2.618453378392356"><ele>142.25</ele><time>2026-04-08T12:12:17.999Z</time></trkpt><trkpt lat="42.680116500214275" lon="2.618319348087907"><ele>142.0</ele><time>2026-04-08T12:12:19.999Z</time></trkpt><trkpt lat="42.68013462087329" lon="2.618200719264838"><ele>142.0</ele><time>2026-04-08T12:12:20.999Z</time></trkpt><trkpt lat="42.680101045321585" lon="2.6180644777618043"><ele>142.0</ele><time>2026-04-08T12:12:21.999Z</time></trkpt><trkpt lat="42.680055711040325" lon="2.617909213538462"><ele>142.0</ele><time>2026-04-08T12:12:22.999Z</time></trkpt><trkpt lat="42.68000859775173" lon="2.6177593244972956"><ele>142.0</ele><time>2026-04-08T12:12:23.999Z</time></trkpt><trkpt lat="42.680014220561915" lon="2.617592915201191"><ele>143.5</ele><time>2026-04-08T12:12:24.999Z</time></trkpt><trkpt lat="42.68004552657456" lon="2.6174294569412995"><ele>145.0</ele><time>2026-04-08T12:12:25.999Z</time></trkpt><trkpt lat="42.680105377991346" lon="2.617258672459982"><ele>146.5</ele><time>2026-04-08T12:12:26.999Z</time></trkpt><trkpt lat="42.68013936442361" lon="2.617060446827123"><ele>148.0</ele><time>2026-04-08T12:12:27.999Z</time></trkpt><trkpt lat="42.680182474536856" lon="2.616859923253607"><ele>148.66666666666669</ele><time>2026-04-08T12:12:28.999Z</time></trkpt><trkpt lat="42.680248539941054" lon="2.616660898994808"><ele>149.33333333333334</ele><time>2026-04-08T12:12:29.999Z</time></trkpt><trkpt lat="42.68028304995115" lon="2.61645493798408"><ele>150.0</ele><time>2026-04-08T12:12:30.999Z</time></trkpt><trkpt lat="42.68033036271638" lon="2.6162811401921138"><ele>150.25</ele><time>2026-04-08T12:12:31.999Z</time></trkpt><trkpt lat="42.680373065517166" lon="2.616125859092326"><ele>150.5</ele><time>2026-04-08T12:12:32.999Z</time></trkpt><trkpt lat="42.6804216177454" lon="2.615976496920431"><ele>150.75</ele><time>2026-04-08T12:12:33.999Z</time></trkpt><trkpt lat="42.680512640746045" lon="2.615863186524741"><ele>151.0</ele><time>2026-04-08T12:12:34.999Z</time></trkpt><trkpt lat="42.680574411746825" lon="2.615728944762628"><ele>151.0</ele><time>2026-04-08T12:12:35.999Z</time></trkpt><trkpt lat="42.6806082931613" lon="2.615591647364734"><ele>151.0</ele><time>2026-04-08T12:12:36.999Z</time></trkpt><trkpt lat="42.68062899002447" lon="2.6154495287519097"><ele>151.0</ele><time>2026-04-08T12:12:37.999Z</time></trkpt><trkpt lat="42.680609284181315" lon="2.615308209773844"><ele>151.0</ele><time>2026-04-08T12:12:38.999Z</time></trkpt><trkpt lat="42.68058464747942" lon="2.6150329131027505"><ele>151.75</ele><time>2026-04-08T12:12:39.999Z</time></trkpt><trkpt lat="42.68049362873054" lon="2.6150791491680367"><ele>152.5</ele><time>2026-04-08T12:12:40.999Z</time></trkpt><trkpt lat="42.68040197196699" lon="2.6150138219479735"><ele>153.25</ele><time>2026-04-08T12:12:41.999Z</time></trkpt><trkpt lat="42.680288570494255" lon="2.6148504890522606"><ele>154.0</ele><time>2026-04-08T12:12:42.999Z</time></trkpt><trkpt lat="42.680192351339414" lon="2.6146857638958227"><ele>155.2</ele><time>2026-04-08T12:12:43.999Z</time></trkpt><trkpt lat="42.680139523511095" lon="2.614562573903179"><ele>156.4</ele><time>2026-04-08T12:12:44.999Z</time></trkpt><trkpt lat="42.68011647464716" lon="2.6144536311693276"><ele>157.6</ele><time>2026-04-08T12:12:45.999Z</time></trkpt><trkpt lat="42.68012815416666" lon="2.6143475736097894"><ele>158.8</ele><time>2026-04-08T12:12:46.999Z</time></trkpt><trkpt lat="42.68016537916942" lon="2.6142365552796223"><ele>160.0</ele><time>2026-04-08T12:12:47.999Z</time></trkpt><trkpt lat="42.680254570140534" lon="2.614158106332927"><ele>160.25</ele><time>2026-04-08T12:12:48.999Z</time></trkpt><trkpt lat="42.680305968424555" lon="2.614026962948452"><ele>160.5</ele><time>2026-04-08T12:12:49.999Z</time></trkpt><trkpt lat="42.68035699630392" lon="2.6138814489914197"><ele>160.75</ele><time>2026-04-08T12:12:50.999Z</time></trkpt><trkpt lat="42.68038412317515" lon="2.6137030448812837"><ele>161.0</ele><time>2026-04-08T12:12:51.999Z</time></trkpt><trkpt lat="42.6803936008026" lon="2.61350401276631"><ele>161.0</ele><time>2026-04-08T12:12:52.999Z</time></trkpt><trkpt lat="42.68039686464727" lon="2.6132968297920267"><ele>161.0</ele><time>2026-04-08T12:12:53.999Z</time></trkpt><trkpt lat="42.68040670186671" lon="2.613103421391886"><ele>161.0</ele><time>2026-04-08T12:12:54.999Z</time></trkpt><trkpt lat="42.680413343790114" lon="2.612914247593344"><ele>161.0</ele><time>2026-04-08T12:12:55.999Z</time></trkpt><trkpt lat="42.68040911224807" lon="2.6127285850041924"><ele>162.5</ele><time>2026-04-08T12:12:56.999Z</time></trkpt><trkpt lat="42.680381831567765" lon="2.6125478435798843"><ele>164.0</ele><time>2026-04-08T12:12:57.999Z</time></trkpt><trkpt lat="42.68032806026295" lon="2.612376824167478"><ele>165.5</ele><time>2026-04-08T12:12:58.999Z</time></trkpt><trkpt lat="42.68025862890786" lon="2.6122141272674004"><ele>167.0</ele><time>2026-04-08T12:12:59.999Z</time></trkpt><trkpt lat="42.68018275199929" lon="2.6120580745707063"><ele>166.75</ele><time>2026-04-08T12:13:00.999Z</time></trkpt><trkpt lat="42.68009590772735" lon="2.611915470305445"><ele>166.5</ele><time>2026-04-08T12:13:01.999Z</time></trkpt><trkpt lat="42.68002805233165" lon="2.61176334187054"><ele>166.25</ele><time>2026-04-08T12:13:02.999Z</time></trkpt><trkpt lat="42.679961004778356" lon="2.611623333964405"><ele>166.0</ele><time>2026-04-08T12:13:03.999Z</time></trkpt><trkpt lat="42.67988915842927" lon="2.611499005826928"><ele>166.0</ele><time>2026-04-08T12:13:04.999Z</time></trkpt><trkpt lat="42.67983182078073" lon="2.611373174754699"><ele>166.0</ele><time>2026-04-08T12:13:05.999Z</time></trkpt><trkpt lat="42.67979426163402" lon="2.6112334009136844"><ele>166.0</ele><time>2026-04-08T12:13:06.999Z</time></trkpt><trkpt lat="42.679802266605016" lon="2.6110851135581146"><ele>170.0</ele><time>2026-04-08T12:13:07.999Z</time></trkpt><trkpt lat="42.679810380492455" lon="2.6109601723585416"><ele>170.0</ele><time>2026-04-08T12:13:08.999Z</time></trkpt></trkseg><trkseg><trkpt lat="42.68406513112378" lon="2.6153652631223574"><ele>193.66666666666666</ele><time>2026-04-08T12:16:13.998Z</time></trkpt><trkpt lat="42.684060693166764" lon="2.6152299500595166"><ele>196.33333333333331</ele><time>2026-04-08T12:16:16.998Z</time></trkpt><trkpt lat="42.68401870999457" lon="2.615145067487273"><ele>199.0</ele><time>2026-04-08T12:16:18.998Z</time></trkpt><trkpt lat="42.683956305020914" lon="2.6151035778230045"><ele>201.66666666666666</ele><time>2026-04-08T12:16:20.998Z</time></trkpt><trkpt lat="42.68388995693318" lon="2.6150019646254528"><ele>204.33333333333334</ele><time>2026-04-08T12:16:23.998Z</time></trkpt><trkpt lat="42.683914473641615" lon="2.6148917960184264"><ele>207.0</ele><time>2026-04-08T12:16:24.998Z</time></trkpt><trkpt lat="42.68391360691426" lon="2.6147848201773005"><ele>207.0</ele><time>2026-04-08T12:16:25.998Z</time></trkpt><trkpt lat="42.68389962456918" lon="2.614675431974151"><ele>207.0</ele><time>2026-04-08T12:16:26.998Z</time></trkpt><trkpt lat="42.68385951036757" lon="2.6145590456425047"><ele>207.0</ele><time>2026-04-08T12:16:27.998Z</time></trkpt><trkpt lat="42.68379794698284" lon="2.614451818080625"><ele>207.0</ele><time>2026-04-08T12:16:28.998Z</time></trkpt><trkpt lat="42.68372495149386" lon="2.614336313327366"><ele>207.0</ele><time>2026-04-08T12:16:29.998Z</time></trkpt><trkpt lat="42.68368681287468" lon="2.614200636774793"><ele>208.8</ele><time>2026-04-08T12:16:30.998Z</time></trkpt><trkpt lat="42.683649929828" lon="2.614073902831712"><ele>210.6</ele><time>2026-04-08T12:16:31.998Z</time></trkpt><trkpt lat="42.683628993643794" lon="2.6139591280963272"><ele>212.40000000000003</ele><time>2026-04-08T12:16:32.998Z</time></trkpt><trkpt lat="42.683619451325065" lon="2.6138538044832553"><ele>214.20000000000002</ele><time>2026-04-08T12:16:33.998Z</time></trkpt><trkpt lat="42.683630592745786" lon="2.61376086438892"><ele>216.0</ele><time>2026-04-08T12:16:34.998Z</time></trkpt><trkpt lat="42.683709731613895" lon="2.613618178574191"><ele>216.60000000000002</ele><time>2026-04-08T12:16:36.998Z</time></trkpt><trkpt lat="42.68377106427957" lon="2.613559874779577"><ele>217.20000000000002</ele><time>2026-04-08T12:16:37.998Z</time></trkpt><trkpt lat="42.68387848769119" lon="2.613587372667061"><ele>217.79999999999998</ele><time>2026-04-08T12:16:38.999Z</time></trkpt><trkpt lat="42.68397372784971" lon="2.6135274619272333"><ele>218.39999999999998</ele><time>2026-04-08T12:16:39.999Z</time></trkpt><trkpt lat="42.68405882104052" lon="2.6134757214217728"><ele>219.0</ele><time>2026-04-08T12:16:40.999Z</time></trkpt><trkpt lat="42.68414159097851" lon="2.613349523826081"><ele>219.0</ele><time>2026-04-08T12:16:41.999Z</time></trkpt><trkpt lat="42.6841927494226" lon="2.613207315508881"><ele>219.0</ele><time>2026-04-08T12:16:42.999Z</time></trkpt><trkpt lat="42.68424113989197" lon="2.613038536698587"><ele>219.0</ele><time>2026-04-08T12:16:43.999Z</time></trkpt><trkpt lat="42.68430739975266" lon="2.6128893201437253"><ele>219.0</ele><time>2026-04-08T12:16:44.999Z</time></trkpt><trkpt lat="42.68437729788541" lon="2.612751230017488"><ele>221.0</ele><time>2026-04-08T12:16:45.999Z</time></trkpt><trkpt lat="42.68446354784103" lon="2.6126251268981586"><ele>223.0</ele><time>2026-04-08T12:16:46.999Z</time></trkpt><trkpt lat="42.68456835716781" lon="2.6125242167155873"><ele>225.0</ele><time>2026-04-08T12:16:47.999Z</time></trkpt><trkpt lat="42.68465935029716" lon="2.612410433482363"><ele>227.0</ele><time>2026-04-08T12:16:48.999Z</time></trkpt><trkpt lat="42.684745832404516" lon="2.6122935020008167"><ele>227.0</ele><time>2026-04-08T12:16:49.999Z</time></trkpt><trkpt lat="42.684811026542526" lon="2.6121454453894457"><ele>227.0</ele><time>2026-04-08T12:16:50.999Z</time></trkpt><trkpt lat="42.684859456199476" lon="2.6119759593481464"><ele>227.0</ele><time>2026-04-08T12:16:51.999Z</time></trkpt><trkpt lat="42.684900199650905" lon="2.611794539129711"><ele>227.0</ele><time>2026-04-08T12:16:52.999Z</time></trkpt><trkpt lat="42.68496644681785" lon="2.6116333639819436"><ele>228.0</ele><time>2026-04-08T12:16:53.999Z</time></trkpt><trkpt lat="42.68502938653602" lon="2.611480990759335"><ele>229.0</ele><time>2026-04-08T12:16:54.999Z</time></trkpt><trkpt lat="42.68510413999853" lon="2.6113459326413544"><ele>230.0</ele><time>2026-04-08T12:16:55.999Z</time></trkpt><trkpt lat="42.68517488595023" lon="2.6112138488440464"><ele>231.0</ele><time>2026-04-08T12:16:56.999Z</time></trkpt><trkpt lat="42.6852484922742" lon="2.611104309746636"><ele>231.60000000000002</ele><time>2026-04-08T12:16:57.999Z</time></trkpt><trkpt lat="42.68530169834085" lon="2.6109846060679867"><ele>232.20000000000002</ele><time>2026-04-08T12:16:58.999Z</time></trkpt><trkpt lat="42.6853203907488" lon="2.610858049651219"><ele>232.79999999999998</ele><time>2026-04-08T12:16:59.999Z</time></trkpt><trkpt lat="42.68530480219683" lon="2.6107085080695644"><ele>233.39999999999998</ele><time>2026-04-08T12:17:00.999Z</time></trkpt><trkpt lat="42.6852554405566" lon="2.6105719131567486"><ele>234.0</ele><time>2026-04-08T12:17:01.999Z</time></trkpt><trkpt lat="42.68517488126398" lon="2.610434086150907"><ele>235.5</ele><time>2026-04-08T12:17:02.999Z</time></trkpt><trkpt lat="42.685079730529004" lon="2.6103024783125437"><ele>237.0</ele><time>2026-04-08T12:17:03.999Z</time></trkpt><trkpt lat="42.6849808230131" lon="2.6101699949506916"><ele>238.5</ele><time>2026-04-08T12:17:04.999Z</time></trkpt><trkpt lat="42.68488030718903" lon="2.610028562621815"><ele>240.0</ele><time>2026-04-08T12:17:05.999Z</time></trkpt><trkpt lat="42.684787600713165" lon="2.609884752788217"><ele>240.0</ele><time>2026-04-08T12:17:06.999Z</time></trkpt><trkpt lat="42.68470252908025" lon="2.609742846627062"><ele>240.0</ele><time>2026-04-08T12:17:07.999Z</time></trkpt><trkpt lat="42.684615605461595" lon="2.6096142086043854"><ele>240.0</ele><time>2026-04-08T12:17:08.999Z</time></trkpt><trkpt lat="42.684523404394504" lon="2.609509031281292"><ele>240.0</ele><time>2026-04-08T12:17:09.999Z</time></trkpt><trkpt lat="42.68441070181434" lon="2.609444724859909"><ele>241.75</ele><time>2026-04-08T12:17:10.999Z</time></trkpt><trkpt lat="42.68429378543217" lon="2.609412861063749"><ele>243.5</ele><time>2026-04-08T12:17:11.999Z</time></trkpt><trkpt lat="42.68417482791015" lon="2.609400017411238"><ele>245.25</ele><time>2026-04-08T12:17:12.999Z</time></trkpt><trkpt lat="42.68406556577858" lon="2.609371117463625"><ele>247.0</ele><time>2026-04-08T12:17:13.999Z</time></trkpt><trkpt lat="42.68398288410424" lon="2.609281263630658"><ele>247.0</ele><time>2026-04-08T12:17:14.999Z</time></trkpt><trkpt lat="42.68391178883176" lon="2.609197754273325"><ele>247.0</ele><time>2026-04-08T12:17:15.999Z</time></trkpt><trkpt lat="42.68387937519577" lon="2.6090191268201095"><ele>247.0</ele><time>2026-04-08T12:17:17.999Z</time></trkpt><trkpt lat="42.68374848861582" lon="2.6086108008930355"><ele>248.75</ele><time>2026-04-08T12:17:19.999Z</time></trkpt><trkpt lat="42.68375190293701" lon="2.608447319606126"><ele>250.5</ele><time>2026-04-08T12:17:20.999Z</time></trkpt><trkpt lat="42.683772605672594" lon="2.6082899690948658"><ele>252.25</ele><time>2026-04-08T12:17:21.999Z</time></trkpt><trkpt lat="42.68382392975544" lon="2.6081504287654127"><ele>254.0</ele><time>2026-04-08T12:17:22.999Z</time></trkpt><trkpt lat="42.683902401112746" lon="2.608012673827898"><ele>254.0</ele><time>2026-04-08T12:17:23.999Z</time></trkpt><trkpt lat="42.68400267072026" lon="2.607902485404858"><ele>254.0</ele><time>2026-04-08T12:17:24.999Z</time></trkpt><trkpt lat="42.68411834033144" lon="2.6078307918293695"><ele>254.0</ele><time>2026-04-08T12:17:25.999Z</time></trkpt><trkpt lat="42.68424501649823" lon="2.6077792463467016"><ele>254.0</ele><time>2026-04-08T12:17:26.999Z</time></trkpt><trkpt lat="42.68437777202006" lon="2.6077271600553815"><ele>255.25</ele><time>2026-04-08T12:17:27.999Z</time></trkpt><trkpt lat="42.684507775668905" lon="2.607655852112061"><ele>256.5</ele><time>2026-04-08T12:17:28.999Z</time></trkpt><trkpt lat="42.6846306754476" lon="2.6075643305993146"><ele>257.75</ele><time>2026-04-08T12:17:29.999Z</time></trkpt><trkpt lat="42.68474084432926" lon="2.60743525976158"><ele>259.0</ele><time>2026-04-08T12:17:30.999Z</time></trkpt><trkpt lat="42.68484129339873" lon="2.6072770250139006"><ele>259.0</ele><time>2026-04-08T12:17:31.999Z</time></trkpt><trkpt lat="42.684936015248624" lon="2.607099638343625"><ele>259.0</ele><time>2026-04-08T12:17:32.999Z</time></trkpt><trkpt lat="42.68503164576277" lon="2.6069252994656233"><ele>259.0</ele><time>2026-04-08T12:17:33.999Z</time></trkpt><trkpt lat="42.68512980785556" lon="2.606745903885972"><ele>259.3333333333333</ele><time>2026-04-08T12:17:34.999Z</time></trkpt><trkpt lat="42.685229238718904" lon="2.6065635878751983"><ele>259.6666666666667</ele><time>2026-04-08T12:17:35.999Z</time></trkpt><trkpt lat="42.68533342075948" lon="2.606385541603539"><ele>260.0</ele><time>2026-04-08T12:17:36.999Z</time></trkpt><trkpt lat="42.68543769350485" lon="2.606207273423434"><ele>265.0</ele><time>2026-04-08T12:17:37.999Z</time></trkpt><trkpt lat="42.68554444387356" lon="2.6060243728128243"><ele>270.0</ele><time>2026-04-08T12:17:38.999Z</time></trkpt><trkpt lat="42.6856518828772" lon="2.6058441977138727"><ele>275.0</ele><time>2026-04-08T12:17:39.999Z</time></trkpt><trkpt lat="42.68575484176086" lon="2.605675891336202"><ele>275.0</ele><time>2026-04-08T12:17:40.999Z</time></trkpt><trkpt lat="42.68584381931813" lon="2.605531790707852"><ele>275.0</ele><time>2026-04-08T12:17:41.999Z</time></trkpt><trkpt lat="42.68592431322036" lon="2.6053642926110983"><ele>275.0</ele><time>2026-04-08T12:17:42.999Z</time></trkpt><trkpt lat="42.685985075321675" lon="2.605173144101916"><ele>275.0</ele><time>2026-04-08T12:17:43.999Z</time></trkpt><trkpt lat="42.6860305815938" lon="2.6049955496852326"><ele>274.75</ele><time>2026-04-08T12:17:44.999Z</time></trkpt><trkpt lat="42.68606740311951" lon="2.60481561024464"><ele>274.5</ele><time>2026-04-08T12:17:45.999Z</time></trkpt><trkpt lat="42.68609599259082" lon="2.604647679030668"><ele>274.25</ele><time>2026-04-08T12:17:46.999Z</time></trkpt><trkpt lat="42.686115216687" lon="2.6044896705135403"><ele>274.0</ele><time>2026-04-08T12:17:47.999Z</time></trkpt><trkpt lat="42.68611264472961" lon="2.6043317429045367"><ele>275.59999999999997</ele><time>2026-04-08T12:17:48.999Z</time></trkpt><trkpt lat="42.68608872550748" lon="2.6041745631046975"><ele>277.2</ele><time>2026-04-08T12:17:49.999Z</time></trkpt><trkpt lat="42.68603745279946" lon="2.604045581244161"><ele>278.79999999999995</ele><time>2026-04-08T12:17:50.996Z</time></trkpt><trkpt lat="42.68597279609432" lon="2.6039545923238325"><ele>280.4</ele><time>2026-04-08T12:17:51.996Z</time></trkpt><trkpt lat="42.68589498455317" lon="2.6038422743549408"><ele>282.0</ele><time>2026-04-08T12:17:52.996Z</time></trkpt><trkpt lat="42.68578414989204" lon="2.60380197620823"><ele>282.0</ele><time>2026-04-08T12:17:53.997Z</time></trkpt><trkpt lat="42.68565918173513" lon="2.6037836384604187"><ele>282.0</ele><time>2026-04-08T12:17:54.997Z</time></trkpt><trkpt lat="42.685532053746634" lon="2.603780135760576"><ele>282.0</ele><time>2026-04-08T12:17:55.997Z</time></trkpt><trkpt lat="42.68541812612265" lon="2.603757261384461"><ele>282.0</ele><time>2026-04-08T12:17:56.997Z</time></trkpt><trkpt lat="42.68531242316799" lon="2.6037186000700148"><ele>283.2</ele><time>2026-04-08T12:17:57.997Z</time></trkpt><trkpt lat="42.685223186535964" lon="2.6036381502202453"><ele>284.4</ele><time>2026-04-08T12:17:58.997Z</time></trkpt><trkpt lat="42.68514999015493" lon="2.6035458009767876"><ele>285.6</ele><time>2026-04-08T12:17:59.997Z</time></trkpt><trkpt lat="42.68510543531499" lon="2.6034335115251013"><ele>286.8</ele><time>2026-04-08T12:18:00.997Z</time></trkpt><trkpt lat="42.685073046748194" lon="2.603311717783175"><ele>288.0</ele><time>2026-04-08T12:18:01.997Z</time></trkpt><trkpt lat="42.6850597038588" lon="2.603193184641236"><ele>288.0</ele><time>2026-04-08T12:18:02.997Z</time></trkpt><trkpt lat="42.685055410736254" lon="2.603063392961278"><ele>288.0</ele><time>2026-04-08T12:18:03.997Z</time></trkpt><trkpt lat="42.68506074403488" lon="2.6029231299372664"><ele>288.0</ele><time>2026-04-08T12:18:04.997Z</time></trkpt><trkpt lat="42.685085456832184" lon="2.6027787879293984"><ele>288.0</ele><time>2026-04-08T12:18:05.998Z</time></trkpt><trkpt lat="42.68512332288125" lon="2.602637293275496"><ele>288.0</ele><time>2026-04-08T12:18:06.998Z</time></trkpt><trkpt lat="42.68518735718324" lon="2.6025187285601987"><ele>290.75</ele><time>2026-04-08T12:18:07.998Z</time></trkpt><trkpt lat="42.685264780009284" lon="2.602422541647297"><ele>293.5</ele><time>2026-04-08T12:18:08.998Z</time></trkpt><trkpt lat="42.68535463931117" lon="2.6023630509906615"><ele>296.25</ele><time>2026-04-08T12:18:09.998Z</time></trkpt><trkpt lat="42.68546654112486" lon="2.602323586921202"><ele>299.0</ele><time>2026-04-08T12:18:10.998Z</time></trkpt><trkpt lat="42.68559528908155" lon="2.6022768155446765"><ele>299.0</ele><time>2026-04-08T12:18:11.998Z</time></trkpt><trkpt lat="42.685727732876444" lon="2.6022264584690147"><ele>299.0</ele><time>2026-04-08T12:18:12.998Z</time></trkpt><trkpt lat="42.685854036763104" lon="2.6021903977501673"><ele>299.0</ele><time>2026-04-08T12:18:13.998Z</time></trkpt><trkpt lat="42.6859775807221" lon="2.602151881292034"><ele>299.0</ele><time>2026-04-08T12:18:14.998Z</time></trkpt><trkpt lat="42.68609572074014" lon="2.6020920333936437"><ele>300.75</ele><time>2026-04-08T12:18:15.998Z</time></trkpt><trkpt lat="42.68619803949461" lon="2.602019447955543"><ele>302.5</ele><time>2026-04-08T12:18:16.998Z</time></trkpt><trkpt lat="42.68629195155309" lon="2.6019049860038375"><ele>304.25</ele><time>2026-04-08T12:18:17.998Z</time></trkpt><trkpt lat="42.68636195677711" lon="2.601755213279624"><ele>306.0</ele><time>2026-04-08T12:18:18.998Z</time></trkpt><trkpt lat="42.68642951873464" lon="2.6015845436925944"><ele>306.0</ele><time>2026-04-08T12:18:19.998Z</time></trkpt><trkpt lat="42.68651913643873" lon="2.601442024562523"><ele>306.0</ele><time>2026-04-08T12:18:20.998Z</time></trkpt><trkpt lat="42.68664811795839" lon="2.6013590678158414"><ele>306.0</ele><time>2026-04-08T12:18:21.998Z</time></trkpt><trkpt lat="42.686741388589134" lon="2.601244939313831"><ele>306.0</ele><time>2026-04-08T12:18:22.999Z</time></trkpt><trkpt lat="42.68683967619003" lon="2.6011522509413423"><ele>305.75</ele><time>2026-04-08T12:18:23.999Z</time></trkpt><trkpt lat="42.68691468717394" lon="2.601025899663372"><ele>305.5</ele><time>2026-04-08T12:18:24.999Z</time></trkpt><trkpt lat="42.68697012646655" lon="2.6008767871816283"><ele>305.25</ele><time>2026-04-08T12:18:25.999Z</time></trkpt><trkpt lat="42.687000495136594" lon="2.6006989357869013"><ele>305.0</ele><time>2026-04-08T12:18:26.999Z</time></trkpt><trkpt lat="42.687008656389246" lon="2.6005134218004784"><ele>308.0</ele><time>2026-04-08T12:18:27.999Z</time></trkpt><trkpt lat="42.68701052755256" lon="2.600326761700689"><ele>311.0</ele><time>2026-04-08T12:18:28.999Z</time></trkpt><trkpt lat="42.68700834547288" lon="2.6001425843178314"><ele>314.0</ele><time>2026-04-08T12:18:29.999Z</time></trkpt><trkpt lat="42.687007762462216" lon="2.5999550780757006"><ele>317.0</ele><time>2026-04-08T12:18:30.999Z</time></trkpt><trkpt lat="42.686999365821826" lon="2.5997709068307326"><ele>317.0</ele><time>2026-04-08T12:18:31.999Z</time></trkpt><trkpt lat="42.6869770335943" lon="2.599579146475793"><ele>317.0</ele><time>2026-04-08T12:18:32.999Z</time></trkpt><trkpt lat="42.68693146223045" lon="2.5993755654822177"><ele>317.0</ele><time>2026-04-08T12:18:33.999Z</time></trkpt><trkpt lat="42.68689786637539" lon="2.5991590241980314"><ele>316.6666666666667</ele><time>2026-04-08T12:18:34.999Z</time></trkpt><trkpt lat="42.68686736343102" lon="2.5989436173971527"><ele>316.3333333333333</ele><time>2026-04-08T12:18:35.999Z</time></trkpt><trkpt lat="42.686819787534056" lon="2.5987304600315677"><ele>316.0</ele><time>2026-04-08T12:18:36.999Z</time></trkpt><trkpt lat="42.68679568202588" lon="2.598509834033197"><ele>316.0</ele><time>2026-04-08T12:18:37.999Z</time></trkpt><trkpt lat="42.68676983379034" lon="2.59829126849039"><ele>316.0</ele><time>2026-04-08T12:18:38.999Z</time></trkpt><trkpt lat="42.68674624557767" lon="2.5980854672645974"><ele>316.0</ele><time>2026-04-08T12:18:39.999Z</time></trkpt><trkpt lat="42.68675147037595" lon="2.5979010691128854"><ele>316.75</ele><time>2026-04-08T12:18:40.999Z</time></trkpt><trkpt lat="42.68675790225302" lon="2.5977475639978778"><ele>317.5</ele><time>2026-04-08T12:18:41.999Z</time></trkpt><trkpt lat="42.68679079955288" lon="2.5975841731863665"><ele>318.25</ele><time>2026-04-08T12:18:42.999Z</time></trkpt><trkpt lat="42.68684607036658" lon="2.5974175150254415"><ele>319.0</ele><time>2026-04-08T12:18:43.999Z</time></trkpt><trkpt lat="42.68694134107805" lon="2.5972495214065763"><ele>323.3333333333333</ele><time>2026-04-08T12:18:44.999Z</time></trkpt><trkpt lat="42.68702982578747" lon="2.5970782488307234"><ele>327.6666666666667</ele><time>2026-04-08T12:18:45.999Z</time></trkpt><trkpt lat="42.687119718509635" lon="2.5969042505517788"><ele>332.0</ele><time>2026-04-08T12:18:46.999Z</time></trkpt><trkpt lat="42.68721267253745" lon="2.5967279652930664"><ele>332.0</ele><time>2026-04-08T12:18:47.999Z</time></trkpt><trkpt lat="42.68730898475056" lon="2.59654861095663"><ele>332.0</ele><time>2026-04-08T12:18:48.999Z</time></trkpt><trkpt lat="42.68741754218439" lon="2.5963770542851536"><ele>332.0</ele><time>2026-04-08T12:18:49.999Z</time></trkpt><trkpt lat="42.68754479405739" lon="2.596219179284819"><ele>331.6666666666667</ele><time>2026-04-08T12:18:50.999Z</time></trkpt><trkpt lat="42.687679058173664" lon="2.596053395305886"><ele>331.3333333333333</ele><time>2026-04-08T12:18:51.999Z</time></trkpt><trkpt lat="42.68781661695374" lon="2.595903565124998"><ele>331.0</ele><time>2026-04-08T12:18:52.999Z</time></trkpt><trkpt lat="42.687943428777416" lon="2.5957234919069583"><ele>334.0</ele><time>2026-04-08T12:18:53.999Z</time></trkpt><trkpt lat="42.68805789302609" lon="2.5955297614632657"><ele>337.0</ele><time>2026-04-08T12:18:54.999Z</time></trkpt><trkpt lat="42.68816531983806" lon="2.595319142071448"><ele>340.0</ele><time>2026-04-08T12:18:55.999Z</time></trkpt><trkpt lat="42.68827329876187" lon="2.59510554318087"><ele>340.0</ele><time>2026-04-08T12:18:56.999Z</time></trkpt><trkpt lat="42.68837543251903" lon="2.594887642026788"><ele>340.0</ele><time>2026-04-08T12:18:57.999Z</time></trkpt><trkpt lat="42.688471380909654" lon="2.594674950223281"><ele>340.0</ele><time>2026-04-08T12:18:58.999Z</time></trkpt><trkpt lat="42.6885705790582" lon="2.594502724190601"><ele>342.5</ele><time>2026-04-08T12:18:59.999Z</time></trkpt><trkpt lat="42.68865635650955" lon="2.5943478441229946"><ele>345.0</ele><time>2026-04-08T12:19:00.999Z</time></trkpt><trkpt lat="42.68874830831145" lon="2.5942174186298153"><ele>347.5</ele><time>2026-04-08T12:19:01.999Z</time></trkpt><trkpt lat="42.68886743070414" lon="2.594111501570893"><ele>350.0</ele><time>2026-04-08T12:19:02.999Z</time></trkpt><trkpt lat="42.68900741154449" lon="2.5940536075540637"><ele>350.0</ele><time>2026-04-08T12:19:03.999Z</time></trkpt><trkpt lat="42.68914256792266" lon="2.59397929458975"><ele>350.0</ele><time>2026-04-08T12:19:04.999Z</time></trkpt><trkpt lat="42.68927068744855" lon="2.5939290904046888"><ele>350.0</ele><time>2026-04-08T12:19:05.999Z</time></trkpt><trkpt lat="42.689396313183" lon="2.593836589863944"><ele>350.0</ele><time>2026-04-08T12:19:06.999Z</time></trkpt><trkpt lat="42.689499445702594" lon="2.5937042325288107"><ele>353.33333333333337</ele><time>2026-04-08T12:19:07.999Z</time></trkpt><trkpt lat="42.68958849877457" lon="2.5935358335945216"><ele>356.6666666666667</ele><time>2026-04-08T12:19:08.999Z</time></trkpt><trkpt lat="42.689652919053344" lon="2.593338443538852"><ele>360.0</ele><time>2026-04-08T12:19:09.999Z</time></trkpt><trkpt lat="42.68970889666243" lon="2.5931337685826077"><ele>360.0</ele><time>2026-04-08T12:19:10.999Z</time></trkpt><trkpt lat="42.68976571040758" lon="2.5929256007889467"><ele>360.0</ele><time>2026-04-08T12:19:11.999Z</time></trkpt><trkpt lat="42.689826056296134" lon="2.5927191191980947"><ele>360.0</ele><time>2026-04-08T12:19:12.999Z</time></trkpt><trkpt lat="42.689883804240985" lon="2.592510374416124"><ele>360.0</ele><time>2026-04-08T12:19:13.999Z</time></trkpt><trkpt lat="42.689931481513874" lon="2.5922886199685435"><ele>360.0</ele><time>2026-04-08T12:19:14.999Z</time></trkpt><trkpt lat="42.68996048377594" lon="2.5920573539381184"><ele>360.0</ele><time>2026-04-08T12:19:15.999Z</time></trkpt><trkpt lat="42.68995800285595" lon="2.591823884290975"><ele>360.3333333333333</ele><time>2026-04-08T12:19:16.999Z</time></trkpt><trkpt lat="42.68993544954971" lon="2.591600586225397"><ele>360.66666666666663</ele><time>2026-04-08T12:19:17.999Z</time></trkpt><trkpt lat="42.689930185526926" lon="2.5913859106872326"><ele>361.0</ele><time>2026-04-08T12:19:18.999Z</time></trkpt><trkpt lat="42.68992262168045" lon="2.5911732395094593"><ele>363.0</ele><time>2026-04-08T12:19:19.999Z</time></trkpt><trkpt lat="42.68994326180051" lon="2.5909696813192102"><ele>365.0</ele><time>2026-04-08T12:19:20.999Z</time></trkpt><trkpt lat="42.68999411712322" lon="2.5907600998321203"><ele>367.0</ele><time>2026-04-08T12:19:21.999Z</time></trkpt><trkpt lat="42.69006160713276" lon="2.5905459885143873"><ele>368.66666666666663</ele><time>2026-04-08T12:19:22.999Z</time></trkpt><trkpt lat="42.69011964834925" lon="2.5903220031121186"><ele>370.3333333333333</ele><time>2026-04-08T12:19:23.999Z</time></trkpt><trkpt lat="42.69018949438787" lon="2.5901241463723275"><ele>372.0</ele><time>2026-04-08T12:19:24.999Z</time></trkpt><trkpt lat="42.69024318111202" lon="2.5899438479255728"><ele>375.5</ele><time>2026-04-08T12:19:25.999Z</time></trkpt><trkpt lat="42.69028734460144" lon="2.5897790647481007"><ele>379.0</ele><time>2026-04-08T12:19:26.999Z</time></trkpt><trkpt lat="42.69031346619521" lon="2.589616825109029"><ele>382.5</ele><time>2026-04-08T12:19:27.999Z</time></trkpt><trkpt lat="42.69030871920448" lon="2.589441226831261"><ele>386.0</ele><time>2026-04-08T12:19:28.999Z</time></trkpt><trkpt lat="42.69026789981752" lon="2.58925427941253"><ele>385.0</ele><time>2026-04-08T12:19:29.999Z</time></trkpt><trkpt lat="42.69019646772119" lon="2.5890707784219855"><ele>384.0</ele><time>2026-04-08T12:19:30.999Z</time></trkpt><trkpt lat="42.69014470281457" lon="2.5888837597987395"><ele>383.0</ele><time>2026-04-08T12:19:31.999Z</time></trkpt><trkpt lat="42.690111074246055" lon="2.5886996715536643"><ele>382.0</ele><time>2026-04-08T12:19:32.999Z</time></trkpt><trkpt lat="42.69010480014514" lon="2.5885035029672983"><ele>382.0</ele><time>2026-04-08T12:19:33.999Z</time></trkpt><trkpt lat="42.69008559538261" lon="2.5882995961666806"><ele>382.0</ele><time>2026-04-08T12:19:34.999Z</time></trkpt><trkpt lat="42.69008569928174" lon="2.588103041978074"><ele>382.0</ele><time>2026-04-08T12:19:35.999Z</time></trkpt><trkpt lat="42.690069797160724" lon="2.5879095163589834"><ele>382.0</ele><time>2026-04-08T12:19:36.999Z</time></trkpt><trkpt lat="42.69005179079946" lon="2.587724348361944"><ele>383.25</ele><time>2026-04-08T12:19:37.999Z</time></trkpt><trkpt lat="42.69003449799476" lon="2.5875578596853708"><ele>384.5</ele><time>2026-04-08T12:19:38.999Z</time></trkpt><trkpt lat="42.690007225004145" lon="2.5874046269793793"><ele>385.75</ele><time>2026-04-08T12:19:39.999Z</time></trkpt><trkpt lat="42.68996640607821" lon="2.5872427263672426"><ele>387.0</ele><time>2026-04-08T12:19:41Z</time></trkpt><trkpt lat="42.689921387479444" lon="2.587063583200345"><ele>387.5</ele><time>2026-04-08T12:19:42Z</time></trkpt><trkpt lat="42.689876773299204" lon="2.586868417834294"><ele>388.0</ele><time>2026-04-08T12:19:43Z</time></trkpt><trkpt lat="42.68983540401644" lon="2.586676808352922"><ele>388.5</ele><time>2026-04-08T12:19:44Z</time></trkpt><trkpt lat="42.689796818328404" lon="2.586509405302891"><ele>389.0</ele><time>2026-04-08T12:19:45Z</time></trkpt><trkpt lat="42.68979750729584" lon="2.5863264618486674"><ele>390.0</ele><time>2026-04-08T12:19:46Z</time></trkpt><trkpt lat="42.68980092365114" lon="2.58612166598685"><ele>391.0</ele><time>2026-04-08T12:19:47Z</time></trkpt><trkpt lat="42.689823821992015" lon="2.585901966565969"><ele>392.0</ele><time>2026-04-08T12:19:48Z</time></trkpt><trkpt lat="42.6898529121229" lon="2.5856768523703346"><ele>392.0</ele><time>2026-04-08T12:19:49Z</time></trkpt><trkpt lat="42.689885008063115" lon="2.5854429234476695"><ele>392.0</ele><time>2026-04-08T12:19:50Z</time></trkpt><trkpt lat="42.68991864121209" lon="2.5851977909953043"><ele>392.0</ele><time>2026-04-08T12:19:51Z</time></trkpt><trkpt lat="42.68995322580691" lon="2.5849512365086067"><ele>392.66666666666663</ele><time>2026-04-08T12:19:52Z</time></trkpt><trkpt lat="42.689974010530285" lon="2.5846987857712596"><ele>393.33333333333337</ele><time>2026-04-08T12:19:53Z</time></trkpt><trkpt lat="42.690013362384015" lon="2.5844480576666222"><ele>394.0</ele><time>2026-04-08T12:19:54Z</time></trkpt><trkpt lat="42.690054427866215" lon="2.5841992594801697"><ele>394.33333333333337</ele><time>2026-04-08T12:19:55Z</time></trkpt><trkpt lat="42.69009784582297" lon="2.583949756652989"><ele>394.66666666666663</ele><time>2026-04-08T12:19:56Z</time></trkpt><trkpt lat="42.69014390828239" lon="2.583699751842669"><ele>395.0</ele><time>2026-04-08T12:19:57Z</time></trkpt><trkpt lat="42.69019375159373" lon="2.583447389938768"><ele>395.3333333333333</ele><time>2026-04-08T12:19:58Z</time></trkpt><trkpt lat="42.69024196254023" lon="2.583194547808753"><ele>395.66666666666663</ele><time>2026-04-08T12:19:59Z</time></trkpt><trkpt lat="42.69028651609509" lon="2.5829415545728645"><ele>396.0</ele><time>2026-04-08T12:20:00Z</time></trkpt><trkpt lat="42.690329815794016" lon="2.582679610610891"><ele>396.66666666666663</ele><time>2026-04-08T12:20:01Z</time></trkpt><trkpt lat="42.69036695621219" lon="2.582408881045834"><ele>397.3333333333333</ele><time>2026-04-08T12:20:02Z</time></trkpt><trkpt lat="42.69038990576664" lon="2.5821431982731378"><ele>398.0</ele><time>2026-04-08T12:20:03Z</time></trkpt><trkpt lat="42.69042153547684" lon="2.581894890816373"><ele>398.0</ele><time>2026-04-08T12:20:04Z</time></trkpt><trkpt lat="42.690450378928304" lon="2.5816576964375453"><ele>398.0</ele><time>2026-04-08T12:20:05Z</time></trkpt><trkpt lat="42.69048996162747" lon="2.581424438742943"><ele>398.0</ele><time>2026-04-08T12:20:06Z</time></trkpt><trkpt lat="42.690536273105764" lon="2.581184569601761"><ele>398.3333333333333</ele><time>2026-04-08T12:20:07Z</time></trkpt><trkpt lat="42.69058697958026" lon="2.580943022644054"><ele>398.66666666666663</ele><time>2026-04-08T12:20:08Z</time></trkpt><trkpt lat="42.690664418386575" lon="2.580720697344658"><ele>399.0</ele><time>2026-04-08T12:20:09Z</time></trkpt><trkpt lat="42.69075538122775" lon="2.5805040978858123"><ele>399.66666666666663</ele><time>2026-04-08T12:20:10Z</time></trkpt><trkpt lat="42.69083800654519" lon="2.5802846053608928"><ele>400.3333333333333</ele><time>2026-04-08T12:20:11Z</time></trkpt><trkpt lat="42.69092014997728" lon="2.5800738885645016"><ele>401.0</ele><time>2026-04-08T12:20:12Z</time></trkpt><trkpt lat="42.69099467731369" lon="2.5798475538068617"><ele>401.0</ele><time>2026-04-08T12:20:13Z</time></trkpt><trkpt lat="42.69100149648719" lon="2.579589979727447"><ele>401.0</ele><time>2026-04-08T12:20:14Z</time></trkpt><trkpt lat="42.69101603053625" lon="2.579332473451"><ele>401.0</ele><time>2026-04-08T12:20:15Z</time></trkpt><trkpt lat="42.6910143796023" lon="2.5790769415283386"><ele>402.3333333333333</ele><time>2026-04-08T12:20:16Z</time></trkpt><trkpt lat="42.691031292362055" lon="2.5788248015768627"><ele>403.66666666666663</ele><time>2026-04-08T12:20:17Z</time></trkpt><trkpt lat="42.691037714983466" lon="2.578574444643724"><ele>405.0</ele><time>2026-04-08T12:20:18Z</time></trkpt><trkpt lat="42.69104610157557" lon="2.578328529516427"><ele>406.0</ele><time>2026-04-08T12:20:19Z</time></trkpt><trkpt lat="42.69105462355652" lon="2.578086419165325"><ele>407.0</ele><time>2026-04-08T12:20:20Z</time></trkpt><trkpt lat="42.69106265400215" lon="2.5778514397505727"><ele>408.0</ele><time>2026-04-08T12:20:21Z</time></trkpt><trkpt lat="42.69107043254386" lon="2.5776221704497533"><ele>409.0</ele><time>2026-04-08T12:20:22Z</time></trkpt><trkpt lat="42.69107994449791" lon="2.5774004425553225"><ele>410.0</ele><time>2026-04-08T12:20:23Z</time></trkpt><trkpt lat="42.69109209002305" lon="2.5771796481829585"><ele>411.0</ele><time>2026-04-08T12:20:24Z</time></trkpt><trkpt lat="42.69111734326459" lon="2.576966473204194"><ele>414.0</ele><time>2026-04-08T12:20:25Z</time></trkpt><trkpt lat="42.69117390666524" lon="2.576757340893702"><ele>417.0</ele><time>2026-04-08T12:20:26Z</time></trkpt><trkpt lat="42.691254484383585" lon="2.576546997191949"><ele>420.0</ele><time>2026-04-08T12:20:27Z</time></trkpt><trkpt lat="42.69134191241933" lon="2.5763385725375234"><ele>420.0</ele><time>2026-04-08T12:20:28Z</time></trkpt><trkpt lat="42.69142457376185" lon="2.5761180697078734"><ele>420.0</ele><time>2026-04-08T12:20:29Z</time></trkpt><trkpt lat="42.69151828079163" lon="2.5759032378150466"><ele>420.0</ele><time>2026-04-08T12:20:30Z</time></trkpt><trkpt lat="42.69161158741708" lon="2.575683991231288"><ele>420.0</ele><time>2026-04-08T12:20:31Z</time></trkpt><trkpt lat="42.69170937581166" lon="2.575473035104488"><ele>420.0</ele><time>2026-04-08T12:20:32Z</time></trkpt><trkpt lat="42.691817147877366" lon="2.575291431439976"><ele>420.0</ele><time>2026-04-08T12:20:33Z</time></trkpt><trkpt lat="42.69191587581396" lon="2.5751114092730862"><ele>420.33333333333337</ele><time>2026-04-08T12:20:34Z</time></trkpt><trkpt lat="42.69201343649774" lon="2.5749344722444545"><ele>420.6666666666667</ele><time>2026-04-08T12:20:35Z</time></trkpt><trkpt lat="42.692121754631295" lon="2.5747624454743225"><ele>421.0</ele><time>2026-04-08T12:20:36Z</time></trkpt><trkpt lat="42.69221973131443" lon="2.574587052555653"><ele>421.75</ele><time>2026-04-08T12:20:37Z</time></trkpt><trkpt lat="42.692311264890826" lon="2.574413997912375"><ele>422.5</ele><time>2026-04-08T12:20:38Z</time></trkpt><trkpt lat="42.69238969805725" lon="2.574246116478662"><ele>423.25</ele><time>2026-04-08T12:20:39Z</time></trkpt><trkpt lat="42.692454427498674" lon="2.5740782557553437"><ele>424.0</ele><time>2026-04-08T12:20:40Z</time></trkpt><trkpt lat="42.692501305181594" lon="2.573904393891522"><ele>424.0</ele><time>2026-04-08T12:20:41Z</time></trkpt><trkpt lat="42.69253572376904" lon="2.57372648302673"><ele>424.0</ele><time>2026-04-08T12:20:42Z</time></trkpt><trkpt lat="42.69255597520078" lon="2.5735434933590597"><ele>424.0</ele><time>2026-04-08T12:20:43Z</time></trkpt><trkpt lat="42.692588689521486" lon="2.573365424654314"><ele>424.0</ele><time>2026-04-08T12:20:44Z</time></trkpt><trkpt lat="42.69263773518415" lon="2.5732030220298006"><ele>424.0</ele><time>2026-04-08T12:20:45.001Z</time></trkpt><trkpt lat="42.692690269051816" lon="2.573031953856065"><ele>424.0</ele><time>2026-04-08T12:20:46.001Z</time></trkpt><trkpt lat="42.692746448379395" lon="2.5728504491659225"><ele>424.0</ele><time>2026-04-08T12:20:47.001Z</time></trkpt><trkpt lat="42.692806124486786" lon="2.572661982811853"><ele>424.0</ele><time>2026-04-08T12:20:48.001Z</time></trkpt><trkpt lat="42.69286691317987" lon="2.5724700026647493"><ele>427.6666666666667</ele><time>2026-04-08T12:20:49.001Z</time></trkpt><trkpt lat="42.69291676708847" lon="2.5722650721634213"><ele>431.33333333333337</ele><time>2026-04-08T12:20:50.001Z</time></trkpt><trkpt lat="42.69297108568882" lon="2.5720614152844505"><ele>435.0</ele><time>2026-04-08T12:20:51.001Z</time></trkpt><trkpt lat="42.69301208334762" lon="2.571844106586829"><ele>435.0</ele><time>2026-04-08T12:20:52.001Z</time></trkpt><trkpt lat="42.69304784875441" lon="2.5716214945175646"><ele>435.0</ele><time>2026-04-08T12:20:53.001Z</time></trkpt><trkpt lat="42.693083361318685" lon="2.5713915716947"><ele>435.0</ele><time>2026-04-08T12:20:54.001Z</time></trkpt><trkpt lat="42.6931303389624" lon="2.5711517465291034"><ele>435.0</ele><time>2026-04-08T12:20:55.001Z</time></trkpt><trkpt lat="42.69318774290376" lon="2.5709135343414067"><ele>435.0</ele><time>2026-04-08T12:20:56.001Z</time></trkpt><trkpt lat="42.69323946509018" lon="2.570686383439625"><ele>435.0</ele><time>2026-04-08T12:20:57.001Z</time></trkpt><trkpt lat="42.69329647085762" lon="2.5704667434095496"><ele>435.0</ele><time>2026-04-08T12:20:58.001Z</time></trkpt><trkpt lat="42.69334771283091" lon="2.570256664483377"><ele>435.0</ele><time>2026-04-08T12:20:59.001Z</time></trkpt><trkpt lat="42.693394578475235" lon="2.5700518530483474"><ele>435.0</ele><time>2026-04-08T12:21:00.001Z</time></trkpt><trkpt lat="42.693436612331276" lon="2.5698444868667853"><ele>435.0</ele><time>2026-04-08T12:21:01.001Z</time></trkpt><trkpt lat="42.693472221453284" lon="2.569640905760567"><ele>435.0</ele><time>2026-04-08T12:21:02.001Z</time></trkpt><trkpt lat="42.69350962335279" lon="2.569454153087111"><ele>435.0</ele><time>2026-04-08T12:21:03.001Z</time></trkpt><trkpt lat="42.693570041550764" lon="2.56927247058674"><ele>435.0</ele><time>2026-04-08T12:21:04.001Z</time></trkpt><trkpt lat="42.69364984164198" lon="2.5691082019073335"><ele>437.33333333333337</ele><time>2026-04-08T12:21:05.001Z</time></trkpt><trkpt lat="42.69373261931429" lon="2.56893675867458"><ele>439.6666666666667</ele><time>2026-04-08T12:21:06.001Z</time></trkpt><trkpt lat="42.69379204077825" lon="2.568741709103382"><ele>442.0</ele><time>2026-04-08T12:21:07.001Z</time></trkpt><trkpt lat="42.693824834438296" lon="2.56853824559483"><ele>442.0</ele><time>2026-04-08T12:21:08.001Z</time></trkpt><trkpt lat="42.6938355194925" lon="2.5683256406735886"><ele>442.0</ele><time>2026-04-08T12:21:09.001Z</time></trkpt><trkpt lat="42.693826698184274" lon="2.5681101712211603"><ele>442.0</ele><time>2026-04-08T12:21:10.001Z</time></trkpt><trkpt lat="42.69382829053711" lon="2.5679203935685844"><ele>442.0</ele><time>2026-04-08T12:21:11.001Z</time></trkpt><trkpt lat="42.69387603690274" lon="2.5677501669041534"><ele>442.0</ele><time>2026-04-08T12:21:12.001Z</time></trkpt><trkpt lat="42.69391873137033" lon="2.5675795619592217"><ele>442.0</ele><time>2026-04-08T12:21:13.001Z</time></trkpt><trkpt lat="42.69400236724192" lon="2.567417704908844"><ele>442.0</ele><time>2026-04-08T12:21:14.001Z</time></trkpt><trkpt lat="42.69410791093576" lon="2.5672655101988937"><ele>442.0</ele><time>2026-04-08T12:21:15.001Z</time></trkpt><trkpt lat="42.69422998375065" lon="2.5671418143352027"><ele>442.0</ele><time>2026-04-08T12:21:16.001Z</time></trkpt><trkpt lat="42.694345161475724" lon="2.56699452463231"><ele>442.0</ele><time>2026-04-08T12:21:17.001Z</time></trkpt><trkpt lat="42.69442808213853" lon="2.566845919344181"><ele>442.0</ele><time>2026-04-08T12:21:18.001Z</time></trkpt><trkpt lat="42.69450276196942" lon="2.566692911963806"><ele>442.33333333333337</ele><time>2026-04-08T12:21:19.001Z</time></trkpt><trkpt lat="42.69455787412808" lon="2.5665104437196264"><ele>442.66666666666663</ele><time>2026-04-08T12:21:20.001Z</time></trkpt><trkpt lat="42.69458547178615" lon="2.566306548630767"><ele>443.0</ele><time>2026-04-08T12:21:21.001Z</time></trkpt><trkpt lat="42.69458162673287" lon="2.566085921446239"><ele>443.0</ele><time>2026-04-08T12:21:22.001Z</time></trkpt><trkpt lat="42.69454566467876" lon="2.5658613210485504"><ele>443.0</ele><time>2026-04-08T12:21:23.001Z</time></trkpt><trkpt lat="42.69449060469301" lon="2.5656381294131045"><ele>443.0</ele><time>2026-04-08T12:21:24.001Z</time></trkpt><trkpt lat="42.69449695703598" lon="2.5654074491476226"><ele>442.66666666666663</ele><time>2026-04-08T12:21:25.001Z</time></trkpt><trkpt lat="42.69450965830487" lon="2.565166603328196"><ele>442.33333333333337</ele><time>2026-04-08T12:21:26.001Z</time></trkpt><trkpt lat="42.69453664243966" lon="2.5649336052466274"><ele>442.0</ele><time>2026-04-08T12:21:27.001Z</time></trkpt><trkpt lat="42.69458069877598" lon="2.5647221757367547"><ele>442.75</ele><time>2026-04-08T12:21:28.001Z</time></trkpt><trkpt lat="42.69462658061505" lon="2.564519339554766"><ele>443.5</ele><time>2026-04-08T12:21:29.001Z</time></trkpt><trkpt lat="42.694672051626846" lon="2.5643310386921376"><ele>444.25</ele><time>2026-04-08T12:21:30.001Z</time></trkpt><trkpt lat="42.69471752983337" lon="2.564142607708765"><ele>445.0</ele><time>2026-04-08T12:21:31.001Z</time></trkpt><trkpt lat="42.694761337755835" lon="2.563961097135206"><ele>445.0</ele><time>2026-04-08T12:21:32.001Z</time></trkpt><trkpt lat="42.69480058752935" lon="2.563792005078861"><ele>445.0</ele><time>2026-04-08T12:21:33.001Z</time></trkpt><trkpt lat="42.69483752824429" lon="2.5636237764928387"><ele>445.0</ele><time>2026-04-08T12:21:34.001Z</time></trkpt><trkpt lat="42.69485783269917" lon="2.56345136170325"><ele>445.0</ele><time>2026-04-08T12:21:35.001Z</time></trkpt><trkpt lat="42.69491304142099" lon="2.5632987340675903"><ele>446.5</ele><time>2026-04-08T12:21:36.001Z</time></trkpt><trkpt lat="42.69496292582449" lon="2.5631314150929367"><ele>448.0</ele><time>2026-04-08T12:21:37.001Z</time></trkpt><trkpt lat="42.69501967276508" lon="2.562958232651642"><ele>449.5</ele><time>2026-04-08T12:21:38.001Z</time></trkpt><trkpt lat="42.69507089294738" lon="2.5628063033406594"><ele>451.0</ele><time>2026-04-08T12:21:39.001Z</time></trkpt><trkpt lat="42.695107809614925" lon="2.5626582303324725"><ele>450.20000000000005</ele><time>2026-04-08T12:21:40.001Z</time></trkpt><trkpt lat="42.695156550046256" lon="2.562535098677286"><ele>449.40000000000003</ele><time>2026-04-08T12:21:41.001Z</time></trkpt><trkpt lat="42.69520141510077" lon="2.56241871374608"><ele>448.6</ele><time>2026-04-08T12:21:42.001Z</time></trkpt><trkpt lat="42.695242899184336" lon="2.5623006820770815"><ele>447.8</ele><time>2026-04-08T12:21:43.001Z</time></trkpt><trkpt lat="42.69528343656484" lon="2.5621862206015535"><ele>447.0</ele><time>2026-04-08T12:21:44.001Z</time></trkpt><trkpt lat="42.69534197802031" lon="2.562084156184381"><ele>448.3333333333333</ele><time>2026-04-08T12:21:45.001Z</time></trkpt><trkpt lat="42.695388746092846" lon="2.561971208748555"><ele>449.66666666666663</ele><time>2026-04-08T12:21:46.001Z</time></trkpt><trkpt lat="42.69543394642205" lon="2.561868447612427"><ele>451.0</ele><time>2026-04-08T12:21:47.001Z</time></trkpt><trkpt lat="42.69546155824724" lon="2.5617622249481764"><ele>452.3333333333333</ele><time>2026-04-08T12:21:48.001Z</time></trkpt><trkpt lat="42.6955043968513" lon="2.5616938675962446"><ele>453.66666666666663</ele><time>2026-04-08T12:21:49.001Z</time></trkpt><trkpt lat="42.695570840707944" lon="2.561587940021338"><ele>455.0</ele><time>2026-04-08T12:21:51.001Z</time></trkpt><trkpt lat="42.695667256282434" lon="2.5614767991888474"><ele>455.0</ele><time>2026-04-08T12:21:53.001Z</time></trkpt><trkpt lat="42.695712843976885" lon="2.5614113790174957"><ele>455.0</ele><time>2026-04-08T12:21:54.001Z</time></trkpt><trkpt lat="42.695775682038736" lon="2.5613250741493725"><ele>455.0</ele><time>2026-04-08T12:22:14.002Z</time></trkpt><trkpt lat="42.6958593257014" lon="2.561228974931294"><ele>455.0</ele><time>2026-04-08T12:22:16.002Z</time></trkpt><trkpt lat="42.69593394543094" lon="2.56109798062637"><ele>455.0</ele><time>2026-04-08T12:22:18.002Z</time></trkpt><trkpt lat="42.69598875799564" lon="2.560952088600158"><ele>455.0</ele><time>2026-04-08T12:22:20.002Z</time></trkpt><trkpt lat="42.69599781936324" lon="2.560804155444477"><ele>455.0</ele><time>2026-04-08T12:22:22.002Z</time></trkpt><trkpt lat="42.69605543271363" lon="2.560722328064243"><ele>455.0</ele><time>2026-04-08T12:22:24.001Z</time></trkpt><trkpt lat="42.696144583625745" lon="2.560660521373686"><ele>455.0</ele><time>2026-04-08T12:22:26.001Z</time></trkpt><trkpt lat="42.696267346992016" lon="2.560609956402609"><ele>455.0</ele><time>2026-04-08T12:22:28.001Z</time></trkpt><trkpt lat="42.69633421434512" lon="2.560625673731019"><ele>454.99999999999994</ele><time>2026-04-08T12:22:29.001Z</time></trkpt><trkpt lat="42.696400360965185" lon="2.560611136626669"><ele>455.0</ele><time>2026-04-08T12:22:30.001Z</time></trkpt><trkpt lat="42.696469162758284" lon="2.5605516325297066"><ele>455.0</ele><time>2026-04-08T12:22:31.001Z</time></trkpt><trkpt lat="42.696525367433196" lon="2.56050344458258"><ele>455.0</ele><time>2026-04-08T12:22:32.001Z</time></trkpt><trkpt lat="42.69661570266461" lon="2.5604110167396574"><ele>454.99999999999994</ele><time>2026-04-08T12:22:34.001Z</time></trkpt><trkpt lat="42.696690697538244" lon="2.5602813345088893"><ele>455.0</ele><time>2026-04-08T12:22:36.001Z</time></trkpt><trkpt lat="42.69673376514528" lon="2.5602066840425017"><ele>454.66666666666663</ele><time>2026-04-08T12:22:37.001Z</time></trkpt><trkpt lat="42.69680593884775" lon="2.560090689209974"><ele>454.3333333333333</ele><time>2026-04-08T12:22:39.001Z</time></trkpt><trkpt lat="42.69685117481412" lon="2.5600223878835777"><ele>454.0</ele><time>2026-04-08T12:22:40.001Z</time></trkpt><trkpt lat="42.69691509969062" lon="2.559959587291887"><ele>453.66666666666663</ele><time>2026-04-08T12:22:41.001Z</time></trkpt><trkpt lat="42.69697831723717" lon="2.5598934464380556"><ele>453.3333333333333</ele><time>2026-04-08T12:22:42.001Z</time></trkpt><trkpt lat="42.69704667959364" lon="2.559814146983504"><ele>453.0</ele><time>2026-04-08T12:22:43.001Z</time></trkpt><trkpt lat="42.697098688829605" lon="2.5597506816975217"><ele>453.0</ele><time>2026-04-08T12:22:44.001Z</time></trkpt><trkpt lat="42.69715271810375" lon="2.5596855834860874"><ele>453.0</ele><time>2026-04-08T12:22:45.001Z</time></trkpt><trkpt lat="42.69720312499796" lon="2.559624740642848"><ele>453.0</ele><time>2026-04-08T12:22:46.001Z</time></trkpt><trkpt lat="42.6972936753826" lon="2.559525346364654"><ele>453.0</ele><time>2026-04-08T12:22:48.001Z</time></trkpt><trkpt lat="42.69734529143696" lon="2.5594705584626447"><ele>453.0</ele><time>2026-04-08T12:22:49.001Z</time></trkpt><trkpt lat="42.69740186278195" lon="2.559402444234493"><ele>453.0</ele><time>2026-04-08T12:22:50.001Z</time></trkpt><trkpt lat="42.69747334803746" lon="2.5593165769465966"><ele>452.75</ele><time>2026-04-08T12:22:51.001Z</time></trkpt><trkpt lat="42.6975568728173" lon="2.559216247883237"><ele>452.5</ele><time>2026-04-08T12:22:52.001Z</time></trkpt><trkpt lat="42.69764291827205" lon="2.5591148593927193"><ele>452.25</ele><time>2026-04-08T12:22:53.001Z</time></trkpt><trkpt lat="42.69773176117139" lon="2.5590108201117805"><ele>452.0</ele><time>2026-04-08T12:22:54.001Z</time></trkpt><trkpt lat="42.697831510180634" lon="2.5588939659767935"><ele>452.0</ele><time>2026-04-08T12:22:55.001Z</time></trkpt><trkpt lat="42.69791505853295" lon="2.5587516229495972"><ele>452.0</ele><time>2026-04-08T12:22:56.001Z</time></trkpt><trkpt lat="42.69799623645008" lon="2.55861296553491"><ele>452.0</ele><time>2026-04-08T12:22:57.001Z</time></trkpt><trkpt lat="42.69809093384555" lon="2.558459020345202"><ele>452.0</ele><time>2026-04-08T12:22:58.001Z</time></trkpt><trkpt lat="42.69816940529238" lon="2.5582708761901625"><ele>452.0</ele><time>2026-04-08T12:22:59.001Z</time></trkpt><trkpt lat="42.69823691514881" lon="2.558059076500751"><ele>452.0</ele><time>2026-04-08T12:23:00.001Z</time></trkpt><trkpt lat="42.698277070517946" lon="2.5578254062437895"><ele>452.0</ele><time>2026-04-08T12:23:01.001Z</time></trkpt><trkpt lat="42.698364477442766" lon="2.557604258499019"><ele>451.66666666666663</ele><time>2026-04-08T12:23:02.001Z</time></trkpt><trkpt lat="42.69845729738888" lon="2.5573711948449303"><ele>451.33333333333337</ele><time>2026-04-08T12:23:03.001Z</time></trkpt><trkpt lat="42.6985536438616" lon="2.5571299141030166"><ele>451.0</ele><time>2026-04-08T12:23:04.001Z</time></trkpt><trkpt lat="42.69865131897018" lon="2.556884263407679"><ele>451.0</ele><time>2026-04-08T12:23:05.001Z</time></trkpt><trkpt lat="42.69874625234596" lon="2.5566444096241145"><ele>451.0</ele><time>2026-04-08T12:23:06.001Z</time></trkpt><trkpt lat="42.69884238583457" lon="2.5564015231835016"><ele>451.0</ele><time>2026-04-08T12:23:07.001Z</time></trkpt><trkpt lat="42.69893876584997" lon="2.556158014276819"><ele>453.0</ele><time>2026-04-08T12:23:08.001Z</time></trkpt><trkpt lat="42.69903635726158" lon="2.555911445257717"><ele>455.0</ele><time>2026-04-08T12:23:09.001Z</time></trkpt><trkpt lat="42.69913280489807" lon="2.5556677654876645"><ele>457.0</ele><time>2026-04-08T12:23:10.001Z</time></trkpt><trkpt lat="42.699227520658006" lon="2.555428461882194"><ele>457.33333333333337</ele><time>2026-04-08T12:23:11.001Z</time></trkpt><trkpt lat="42.69932237197056" lon="2.555191630241757"><ele>457.66666666666663</ele><time>2026-04-08T12:23:12.001Z</time></trkpt><trkpt lat="42.69941704543337" lon="2.5549599906198774"><ele>458.0</ele><time>2026-04-08T12:23:13.001Z</time></trkpt><trkpt lat="42.69950755010309" lon="2.5547304017507275"><ele>459.0</ele><time>2026-04-08T12:23:14.001Z</time></trkpt><trkpt lat="42.69959685158009" lon="2.5545030244522944"><ele>460.0</ele><time>2026-04-08T12:23:15.001Z</time></trkpt><trkpt lat="42.69968466956752" lon="2.55427964355911"><ele>461.0</ele><time>2026-04-08T12:23:16.001Z</time></trkpt><trkpt lat="42.69977116016996" lon="2.554059650538201"><ele>461.0</ele><time>2026-04-08T12:23:17.001Z</time></trkpt><trkpt lat="42.6998587338787" lon="2.553844699522839"><ele>461.0</ele><time>2026-04-08T12:23:18.001Z</time></trkpt><trkpt lat="42.69994420996123" lon="2.5536360212212363"><ele>461.0</ele><time>2026-04-08T12:23:19.001Z</time></trkpt><trkpt lat="42.70002819988477" lon="2.5534309710314194"><ele>462.66666666666663</ele><time>2026-04-08T12:23:20.001Z</time></trkpt><trkpt lat="42.700111589679196" lon="2.5532237604863015"><ele>464.33333333333337</ele><time>2026-04-08T12:23:21.001Z</time></trkpt><trkpt lat="42.700191322024374" lon="2.55302029165199"><ele>466.0</ele><time>2026-04-08T12:23:22.001Z</time></trkpt><trkpt lat="42.70025819970164" lon="2.5528172474028503"><ele>468.0</ele><time>2026-04-08T12:23:23.001Z</time></trkpt><trkpt lat="42.70031676799361" lon="2.5526003216691295"><ele>470.0</ele><time>2026-04-08T12:23:24.001Z</time></trkpt><trkpt lat="42.7003654727125" lon="2.5523669022473237"><ele>472.0</ele><time>2026-04-08T12:23:25.001Z</time></trkpt><trkpt lat="42.70040659588496" lon="2.5521461827138663"><ele>471.33333333333337</ele><time>2026-04-08T12:23:26.001Z</time></trkpt><trkpt lat="42.70044850191372" lon="2.5519199658854244"><ele>470.66666666666663</ele><time>2026-04-08T12:23:27.001Z</time></trkpt><trkpt lat="42.70048842916909" lon="2.55170032373372"><ele>470.0</ele><time>2026-04-08T12:23:28.001Z</time></trkpt><trkpt lat="42.70052720017583" lon="2.551487042301969"><ele>470.0</ele><time>2026-04-08T12:23:29.001Z</time></trkpt><trkpt lat="42.70056718881917" lon="2.5512707600050106"><ele>470.0</ele><time>2026-04-08T12:23:30.001Z</time></trkpt><trkpt lat="42.700608755067755" lon="2.551047745682318"><ele>470.0</ele><time>2026-04-08T12:23:31.001Z</time></trkpt><trkpt lat="42.7006616711635" lon="2.550829311831309"><ele>468.3333333333333</ele><time>2026-04-08T12:23:32.001Z</time></trkpt><trkpt lat="42.70072078675523" lon="2.5506202943825147"><ele>466.66666666666663</ele><time>2026-04-08T12:23:33.001Z</time></trkpt><trkpt lat="42.7007783408322" lon="2.550422317020995"><ele>465.0</ele><time>2026-04-08T12:23:34.001Z</time></trkpt><trkpt lat="42.70083711294314" lon="2.5502230575668015"><ele>464.25</ele><time>2026-04-08T12:23:35.001Z</time></trkpt><trkpt lat="42.700878997371866" lon="2.5500236869935633"><ele>463.5</ele><time>2026-04-08T12:23:36.001Z</time></trkpt><trkpt lat="42.70093163696712" lon="2.5498447524962953"><ele>462.75</ele><time>2026-04-08T12:23:37.001Z</time></trkpt><trkpt lat="42.700980786476826" lon="2.5496725212706206"><ele>462.0</ele><time>2026-04-08T12:23:38.001Z</time></trkpt><trkpt lat="42.701020007415856" lon="2.549496945219834"><ele>461.5</ele><time>2026-04-08T12:23:39.001Z</time></trkpt><trkpt lat="42.7010388062791" lon="2.5493113768020828"><ele>461.0</ele><time>2026-04-08T12:23:40.001Z</time></trkpt><trkpt lat="42.70103631176889" lon="2.54912823746236"><ele>460.5</ele><time>2026-04-08T12:23:41.001Z</time></trkpt><trkpt lat="42.70104451978462" lon="2.5489446652954073"><ele>460.0</ele><time>2026-04-08T12:23:42.001Z</time></trkpt><trkpt lat="42.70104755378246" lon="2.5487759033100406"><ele>459.75</ele><time>2026-04-08T12:23:43.001Z</time></trkpt><trkpt lat="42.701076174643184" lon="2.548624585778407"><ele>459.5</ele><time>2026-04-08T12:23:44.001Z</time></trkpt><trkpt lat="42.70115961847354" lon="2.5484635952796255"><ele>459.25</ele><time>2026-04-08T12:23:45.001Z</time></trkpt><trkpt lat="42.70126107205299" lon="2.5483132217203295"><ele>459.0</ele><time>2026-04-08T12:23:46.001Z</time></trkpt><trkpt lat="42.701357569284426" lon="2.5481742328944463"><ele>458.75</ele><time>2026-04-08T12:23:47.001Z</time></trkpt><trkpt lat="42.701452104303584" lon="2.548019781461288"><ele>458.5</ele><time>2026-04-08T12:23:48.001Z</time></trkpt><trkpt lat="42.7015612600841" lon="2.5478927919047094"><ele>458.25</ele><time>2026-04-08T12:23:49.001Z</time></trkpt><trkpt lat="42.70165503507719" lon="2.547766173072557"><ele>458.0</ele><time>2026-04-08T12:23:50.001Z</time></trkpt><trkpt lat="42.70175274840386" lon="2.5476476841910025"><ele>457.99999999999994</ele><time>2026-04-08T12:23:51.001Z</time></trkpt><trkpt lat="42.70183612880878" lon="2.547549919712366"><ele>458.0</ele><time>2026-04-08T12:23:52.001Z</time></trkpt><trkpt lat="42.70191970251457" lon="2.5474705845128063"><ele>458.0</ele><time>2026-04-08T12:23:53.001Z</time></trkpt><trkpt lat="42.70199240983195" lon="2.5474223432737926"><ele>458.0</ele><time>2026-04-08T12:23:54.001Z</time></trkpt><trkpt lat="42.70205996479159" lon="2.547411347797676"><ele>457.99999999999994</ele><time>2026-04-08T12:23:55.001Z</time></trkpt><trkpt lat="42.70212449677268" lon="2.5474123901748675"><ele>458.0</ele><time>2026-04-08T12:23:56.001Z</time></trkpt><trkpt lat="42.70218615232139" lon="2.5474920598196995"><ele>456.99999999999994</ele><time>2026-04-08T12:23:57.001Z</time></trkpt><trkpt lat="42.70226570046768" lon="2.5475412301874716"><ele>456.0</ele><time>2026-04-08T12:23:58.001Z</time></trkpt><trkpt lat="42.7023392784175" lon="2.5475678409483877"><ele>455.0</ele><time>2026-04-08T12:23:59.001Z</time></trkpt><trkpt lat="42.70241352193382" lon="2.547537578315269"><ele>454.0</ele><time>2026-04-08T12:24:00.001Z</time></trkpt><trkpt lat="42.702481426362304" lon="2.547481343464503"><ele>452.99999999999994</ele><time>2026-04-08T12:24:01.001Z</time></trkpt><trkpt lat="42.702541393883266" lon="2.5474056767949014"><ele>452.0</ele><time>2026-04-08T12:24:02.001Z</time></trkpt><trkpt lat="42.70262104221335" lon="2.5473223578625164"><ele>452.0</ele><time>2026-04-08T12:24:03.001Z</time></trkpt><trkpt lat="42.70272199754001" lon="2.5472533397413937"><ele>452.0</ele><time>2026-04-08T12:24:04.001Z</time></trkpt><trkpt lat="42.70283331107386" lon="2.5471914992818303"><ele>452.0</ele><time>2026-04-08T12:24:05.001Z</time></trkpt><trkpt lat="42.70295996660823" lon="2.547136686969394"><ele>452.0</ele><time>2026-04-08T12:24:06.001Z</time></trkpt><trkpt lat="42.70310106289782" lon="2.547085012199141"><ele>452.25</ele><time>2026-04-08T12:24:07.001Z</time></trkpt><trkpt lat="42.70324565659735" lon="2.547018017238056"><ele>452.5</ele><time>2026-04-08T12:24:08.001Z</time></trkpt><trkpt lat="42.70337516244692" lon="2.546929342649048"><ele>452.75</ele><time>2026-04-08T12:24:09.002Z</time></trkpt><trkpt lat="42.703481632224026" lon="2.546828705394483"><ele>453.0</ele><time>2026-04-08T12:24:10.002Z</time></trkpt><trkpt lat="42.703580262131446" lon="2.546704440563477"><ele>454.4</ele><time>2026-04-08T12:24:11.002Z</time></trkpt><trkpt lat="42.70366433726969" lon="2.54659079663346"><ele>455.79999999999995</ele><time>2026-04-08T12:24:12.002Z</time></trkpt><trkpt lat="42.703697695229714" lon="2.546453423474229"><ele>457.2</ele><time>2026-04-08T12:24:13.002Z</time></trkpt><trkpt lat="42.70370258782991" lon="2.5463245310789344"><ele>458.6</ele><time>2026-04-08T12:24:14.002Z</time></trkpt><trkpt lat="42.70370492256277" lon="2.5461724835341024"><ele>460.0</ele><time>2026-04-08T12:24:15.002Z</time></trkpt><trkpt lat="42.70374327213148" lon="2.5460277525789654"><ele>460.0</ele><time>2026-04-08T12:24:16.002Z</time></trkpt><trkpt lat="42.70378173322195" lon="2.5458875463603206"><ele>460.0</ele><time>2026-04-08T12:24:17.002Z</time></trkpt><trkpt lat="42.70383567235946" lon="2.5457618308136176"><ele>460.0</ele><time>2026-04-08T12:24:18.002Z</time></trkpt><trkpt lat="42.70390281087478" lon="2.5456251880337484"><ele>460.0</ele><time>2026-04-08T12:24:19.002Z</time></trkpt><trkpt lat="42.70398331395669" lon="2.5454853749510824"><ele>460.5</ele><time>2026-04-08T12:24:20.002Z</time></trkpt><trkpt lat="42.7040693538171" lon="2.5453633815553167"><ele>461.0</ele><time>2026-04-08T12:24:21.002Z</time></trkpt><trkpt lat="42.70416905153139" lon="2.545267659371751"><ele>461.5</ele><time>2026-04-08T12:24:22.002Z</time></trkpt><trkpt lat="42.704284307683594" lon="2.5452087027645884"><ele>462.0</ele><time>2026-04-08T12:24:23.002Z</time></trkpt><trkpt lat="42.70442004601374" lon="2.545165826944432"><ele>465.0</ele><time>2026-04-08T12:24:24.002Z</time></trkpt><trkpt lat="42.70455749141804" lon="2.5450958261993755"><ele>468.0</ele><time>2026-04-08T12:24:25.002Z</time></trkpt><trkpt lat="42.70468935440677" lon="2.5449862536563437"><ele>471.0</ele><time>2026-04-08T12:24:26.002Z</time></trkpt><trkpt lat="42.704821115986675" lon="2.544859313694864"><ele>471.0</ele><time>2026-04-08T12:24:27.002Z</time></trkpt><trkpt lat="42.70494645525127" lon="2.544735797991232"><ele>471.0</ele><time>2026-04-08T12:24:28.002Z</time></trkpt><trkpt lat="42.705073461653264" lon="2.544604967327397"><ele>471.0</ele><time>2026-04-08T12:24:29.001Z</time></trkpt><trkpt lat="42.705195041780804" lon="2.5444742722245866"><ele>472.0</ele><time>2026-04-08T12:24:30.001Z</time></trkpt><trkpt lat="42.705320514840196" lon="2.5443465537168057"><ele>473.0</ele><time>2026-04-08T12:24:31.001Z</time></trkpt><trkpt lat="42.70544925536726" lon="2.544245801200827"><ele>474.0</ele><time>2026-04-08T12:24:32.001Z</time></trkpt><trkpt lat="42.70556469929132" lon="2.5441671509132497"><ele>475.0</ele><time>2026-04-08T12:24:33.001Z</time></trkpt><trkpt lat="42.70566563847616" lon="2.5441051447459158"><ele>475.0</ele><time>2026-04-08T12:24:34.001Z</time></trkpt><trkpt lat="42.705733448113435" lon="2.544059152148884"><ele>475.0</ele><time>2026-04-08T12:24:35.001Z</time></trkpt><trkpt lat="42.70578193438739" lon="2.543969124109028"><ele>475.0</ele><time>2026-04-08T12:24:36.001Z</time></trkpt><trkpt lat="42.70581099978542" lon="2.5438527987317636"><ele>475.0</ele><time>2026-04-08T12:24:37.001Z</time></trkpt><trkpt lat="42.70581521879791" lon="2.5437164686053633"><ele>475.0</ele><time>2026-04-08T12:24:38.001Z</time></trkpt><trkpt lat="42.70579089608746" lon="2.543565280949209"><ele>474.5</ele><time>2026-04-08T12:24:39.001Z</time></trkpt><trkpt lat="42.70573556825017" lon="2.5434068408671333"><ele>474.0</ele><time>2026-04-08T12:24:40.001Z</time></trkpt><trkpt lat="42.705670466632306" lon="2.5432738404489297"><ele>473.5</ele><time>2026-04-08T12:24:41.001Z</time></trkpt><trkpt lat="42.70563352046084" lon="2.5431317825420665"><ele>473.0</ele><time>2026-04-08T12:24:42.001Z</time></trkpt><trkpt lat="42.70564339926367" lon="2.5429754136773077"><ele>474.75</ele><time>2026-04-08T12:24:43.001Z</time></trkpt><trkpt lat="42.70561429796286" lon="2.542830914176671"><ele>476.5</ele><time>2026-04-08T12:24:44.001Z</time></trkpt><trkpt lat="42.70555947013049" lon="2.5426961897369846"><ele>478.25</ele><time>2026-04-08T12:24:45.001Z</time></trkpt><trkpt lat="42.70546782982717" lon="2.5425885899012894"><ele>480.0</ele><time>2026-04-08T12:24:46.001Z</time></trkpt><trkpt lat="42.705361308987115" lon="2.542494564952736"><ele>480.0</ele><time>2026-04-08T12:24:47.001Z</time></trkpt><trkpt lat="42.70530026828528" lon="2.5423938520693423"><ele>480.0</ele><time>2026-04-08T12:24:48.001Z</time></trkpt><trkpt lat="42.70525003185936" lon="2.5422953738808274"><ele>480.0</ele><time>2026-04-08T12:24:49.001Z</time></trkpt><trkpt lat="42.70523884921061" lon="2.5421777031420922"><ele>480.0</ele><time>2026-04-08T12:24:50.001Z</time></trkpt><trkpt lat="42.70524315237145" lon="2.5420469030910557"><ele>480.0</ele><time>2026-04-08T12:24:51.001Z</time></trkpt><trkpt lat="42.7052995750819" lon="2.541916794218752"><ele>481.25</ele><time>2026-04-08T12:24:52.001Z</time></trkpt><trkpt lat="42.70534987301092" lon="2.541756472031384"><ele>482.5</ele><time>2026-04-08T12:24:53.001Z</time></trkpt><trkpt lat="42.705413340734054" lon="2.5416122146826696"><ele>483.75</ele><time>2026-04-08T12:24:54.001Z</time></trkpt><trkpt lat="42.705439848731416" lon="2.5414535882527716"><ele>485.0</ele><time>2026-04-08T12:24:55.001Z</time></trkpt><trkpt lat="42.70543474604218" lon="2.5412800934529205"><ele>484.75</ele><time>2026-04-08T12:24:56.001Z</time></trkpt><trkpt lat="42.705413344338936" lon="2.5411118378146162"><ele>484.5</ele><time>2026-04-08T12:24:57.001Z</time></trkpt><trkpt lat="42.70541309271142" lon="2.540961357097924"><ele>484.25</ele><time>2026-04-08T12:24:58.001Z</time></trkpt><trkpt lat="42.705446886640395" lon="2.5408133730917033"><ele>484.0</ele><time>2026-04-08T12:24:59.001Z</time></trkpt><trkpt lat="42.70550821934343" lon="2.5406742567137606"><ele>484.0</ele><time>2026-04-08T12:25:00.001Z</time></trkpt><trkpt lat="42.70560835055984" lon="2.5405651603867536"><ele>484.0</ele><time>2026-04-08T12:25:01.001Z</time></trkpt><trkpt lat="42.70571643619427" lon="2.5404606498735363"><ele>484.0</ele><time>2026-04-08T12:25:02.001Z</time></trkpt><trkpt lat="42.705830023095444" lon="2.540345199836359"><ele>484.0</ele><time>2026-04-08T12:25:03.001Z</time></trkpt><trkpt lat="42.705957171147844" lon="2.540252488980324"><ele>484.4</ele><time>2026-04-08T12:25:04.001Z</time></trkpt><trkpt lat="42.70606736242298" lon="2.5401620405436347"><ele>484.79999999999995</ele><time>2026-04-08T12:25:05.001Z</time></trkpt><trkpt lat="42.706165604869824" lon="2.5400813959141355"><ele>485.20000000000005</ele><time>2026-04-08T12:25:06.001Z</time></trkpt><trkpt lat="42.70625426192527" lon="2.5400050985398916"><ele>485.6</ele><time>2026-04-08T12:25:07.001Z</time></trkpt><trkpt lat="42.70633201855897" lon="2.5399390071049397"><ele>486.0</ele><time>2026-04-08T12:25:08.001Z</time></trkpt><trkpt lat="42.706411266869765" lon="2.539858938779109"><ele>486.20000000000005</ele><time>2026-04-08T12:25:09.001Z</time></trkpt><trkpt lat="42.70646717295971" lon="2.5397632656406617"><ele>486.40000000000003</ele><time>2026-04-08T12:25:10.001Z</time></trkpt><trkpt lat="42.70649062373028" lon="2.5396369842904702"><ele>486.6</ele><time>2026-04-08T12:25:11.001Z</time></trkpt><trkpt lat="42.70648623533841" lon="2.53949295676858"><ele>486.8</ele><time>2026-04-08T12:25:12.001Z</time></trkpt><trkpt lat="42.70646354231713" lon="2.53934381418485"><ele>487.0</ele><time>2026-04-08T12:25:13.001Z</time></trkpt><trkpt lat="42.7064252993793" lon="2.539241172441019"><ele>486.5</ele><time>2026-04-08T12:25:14.001Z</time></trkpt><trkpt lat="42.706391871848574" lon="2.539149449645743"><ele>486.0</ele><time>2026-04-08T12:25:15.001Z</time></trkpt><trkpt lat="42.70628556985118" lon="2.5389868646952984"><ele>485.5</ele><time>2026-04-08T12:25:16.001Z</time></trkpt><trkpt lat="42.706169537796164" lon="2.538915154733367"><ele>485.0</ele><time>2026-04-08T12:25:17.001Z</time></trkpt><trkpt lat="42.706042975848156" lon="2.538854490626684"><ele>485.0</ele><time>2026-04-08T12:25:18.001Z</time></trkpt><trkpt lat="42.70593531631338" lon="2.5387499617892404"><ele>485.0</ele><time>2026-04-08T12:25:19.001Z</time></trkpt><trkpt lat="42.70585120715574" lon="2.538639722326537"><ele>485.0</ele><time>2026-04-08T12:25:20.001Z</time></trkpt><trkpt lat="42.70578883339858" lon="2.5385247132238353"><ele>485.0</ele><time>2026-04-08T12:25:21.001Z</time></trkpt><trkpt lat="42.70575561057602" lon="2.538385019389745"><ele>486.0</ele><time>2026-04-08T12:25:22.001Z</time></trkpt><trkpt lat="42.70572669489686" lon="2.5382169546228104"><ele>487.0</ele><time>2026-04-08T12:25:23.001Z</time></trkpt><trkpt lat="42.705711743666825" lon="2.5380379990328024"><ele>488.0</ele><time>2026-04-08T12:25:24.001Z</time></trkpt><trkpt lat="42.70569347348561" lon="2.5378712247201425"><ele>489.0</ele><time>2026-04-08T12:25:25.001Z</time></trkpt><trkpt lat="42.70565923272396" lon="2.537731606057246"><ele>491.0</ele><time>2026-04-08T12:25:26.001Z</time></trkpt><trkpt lat="42.70562282200891" lon="2.5375929772401737"><ele>493.0</ele><time>2026-04-08T12:25:27.001Z</time></trkpt><trkpt lat="42.70555966532985" lon="2.53747296912039"><ele>495.0</ele><time>2026-04-08T12:25:28.001Z</time></trkpt><trkpt lat="42.705468654201205" lon="2.537370509478879"><ele>497.0</ele><time>2026-04-08T12:25:29.001Z</time></trkpt><trkpt lat="42.70535973237447" lon="2.537298513811077"><ele>497.0</ele><time>2026-04-08T12:25:30.001Z</time></trkpt><trkpt lat="42.7052649059731" lon="2.5372210325071585"><ele>497.0</ele><time>2026-04-08T12:25:31.001Z</time></trkpt><trkpt lat="42.70522525796178" lon="2.5370848890879416"><ele>497.0</ele><time>2026-04-08T12:25:32.001Z</time></trkpt><trkpt lat="42.70519880580178" lon="2.536939511254336"><ele>497.0</ele><time>2026-04-08T12:25:33.001Z</time></trkpt><trkpt lat="42.70517411876129" lon="2.536769204483328"><ele>498.0</ele><time>2026-04-08T12:25:34.001Z</time></trkpt><trkpt lat="42.70516740613672" lon="2.5365861779236036"><ele>499.0</ele><time>2026-04-08T12:25:35.001Z</time></trkpt><trkpt lat="42.70518192484279" lon="2.5363962795094657"><ele>500.0</ele><time>2026-04-08T12:25:36.001Z</time></trkpt><trkpt lat="42.70521136779642" lon="2.53620057017966"><ele>501.0</ele><time>2026-04-08T12:25:37.001Z</time></trkpt><trkpt lat="42.70524978909894" lon="2.5360038630851385"><ele>502.5</ele><time>2026-04-08T12:25:38.001Z</time></trkpt><trkpt lat="42.705271527698386" lon="2.5358143234314476"><ele>504.0</ele><time>2026-04-08T12:25:39.001Z</time></trkpt><trkpt lat="42.705294535259306" lon="2.5356388933662055"><ele>505.5</ele><time>2026-04-08T12:25:40.001Z</time></trkpt><trkpt lat="42.70529064738874" lon="2.535453233690972"><ele>507.0</ele><time>2026-04-08T12:25:41.001Z</time></trkpt><trkpt lat="42.70526739762546" lon="2.535277187787125"><ele>508.0</ele><time>2026-04-08T12:25:42.001Z</time></trkpt><trkpt lat="42.70528343596216" lon="2.535106160100991"><ele>509.0</ele><time>2026-04-08T12:25:43.001Z</time></trkpt><trkpt lat="42.70532421590425" lon="2.5349415347773405"><ele>510.0</ele><time>2026-04-08T12:25:44.001Z</time></trkpt><trkpt lat="42.705395748007355" lon="2.534781402327199"><ele>511.0</ele><time>2026-04-08T12:25:45.001Z</time></trkpt><trkpt lat="42.70543605961641" lon="2.534594741685745"><ele>511.75</ele><time>2026-04-08T12:25:46.001Z</time></trkpt><trkpt lat="42.70548486137869" lon="2.5344149825065796"><ele>512.5</ele><time>2026-04-08T12:25:47.001Z</time></trkpt><trkpt lat="42.705503683918586" lon="2.534218049879383"><ele>513.25</ele><time>2026-04-08T12:25:48.001Z</time></trkpt><trkpt lat="42.70554714661835" lon="2.53403065875572"><ele>514.0</ele><time>2026-04-08T12:25:49.001Z</time></trkpt><trkpt lat="42.70560356659786" lon="2.5338497988792663"><ele>514.3333333333334</ele><time>2026-04-08T12:25:50.001Z</time></trkpt><trkpt lat="42.70566884988446" lon="2.533665291498401"><ele>514.6666666666666</ele><time>2026-04-08T12:25:51.001Z</time></trkpt><trkpt lat="42.70573839254752" lon="2.5334749399304948"><ele>515.0</ele><time>2026-04-08T12:25:52.001Z</time></trkpt><trkpt lat="42.705809131310765" lon="2.53329008726088"><ele>515.0</ele><time>2026-04-08T12:25:53.001Z</time></trkpt><trkpt lat="42.70588222126777" lon="2.5331076563945047"><ele>515.0</ele><time>2026-04-08T12:25:54.001Z</time></trkpt><trkpt lat="42.70595379493363" lon="2.5329532895062563"><ele>515.0</ele><time>2026-04-08T12:25:55.001Z</time></trkpt><trkpt lat="42.70602198026158" lon="2.5328196763302295"><ele>515.0</ele><time>2026-04-08T12:25:56.001Z</time></trkpt><trkpt lat="42.70608681924688" lon="2.5327163543485276"><ele>515.8</ele><time>2026-04-08T12:25:57.001Z</time></trkpt><trkpt lat="42.70617140563563" lon="2.5326528313497274"><ele>516.6</ele><time>2026-04-08T12:25:58.001Z</time></trkpt><trkpt lat="42.70627291543036" lon="2.532623649401086"><ele>517.4</ele><time>2026-04-08T12:25:59.001Z</time></trkpt><trkpt lat="42.706388856190976" lon="2.5326101586694723"><ele>518.2</ele><time>2026-04-08T12:26:00.001Z</time></trkpt><trkpt lat="42.706515695079915" lon="2.532604360084478"><ele>519.0</ele><time>2026-04-08T12:26:01.001Z</time></trkpt><trkpt lat="42.70664666376506" lon="2.5326038790119214"><ele>519.0</ele><time>2026-04-08T12:26:02.001Z</time></trkpt><trkpt lat="42.7067817437788" lon="2.532613782141497"><ele>519.0</ele><time>2026-04-08T12:26:03Z</time></trkpt><trkpt lat="42.706918459812535" lon="2.5326516922767763"><ele>519.0</ele><time>2026-04-08T12:26:04Z</time></trkpt><trkpt lat="42.70706160859207" lon="2.5327274391821812"><ele>519.0</ele><time>2026-04-08T12:26:05Z</time></trkpt><trkpt lat="42.70721190690436" lon="2.532789444874626"><ele>520.6666666666666</ele><time>2026-04-08T12:26:06Z</time></trkpt><trkpt lat="42.70736489802762" lon="2.5328527691521976"><ele>522.3333333333333</ele><time>2026-04-08T12:26:07Z</time></trkpt><trkpt lat="42.70752552575077" lon="2.5328657460989623"><ele>524.0</ele><time>2026-04-08T12:26:08Z</time></trkpt><trkpt lat="42.707678087782114" lon="2.532859028779551"><ele>525.5</ele><time>2026-04-08T12:26:09Z</time></trkpt><trkpt lat="42.707821039150964" lon="2.532846005335549"><ele>527.0</ele><time>2026-04-08T12:26:10Z</time></trkpt><trkpt lat="42.707953912590334" lon="2.532829196614094"><ele>528.5</ele><time>2026-04-08T12:26:11Z</time></trkpt><trkpt lat="42.70807022613677" lon="2.5327967675911336"><ele>530.0</ele><time>2026-04-08T12:26:12Z</time></trkpt><trkpt lat="42.708187216496135" lon="2.5327418844984524"><ele>530.0</ele><time>2026-04-08T12:26:13Z</time></trkpt><trkpt lat="42.70830015618203" lon="2.5326701611842957"><ele>530.0</ele><time>2026-04-08T12:26:14Z</time></trkpt><trkpt lat="42.70839807202186" lon="2.5326084434770584"><ele>530.0</ele><time>2026-04-08T12:26:15.002Z</time></trkpt><trkpt lat="42.708479043792835" lon="2.532527902123018"><ele>530.0</ele><time>2026-04-08T12:26:16.002Z</time></trkpt><trkpt lat="42.70854390364666" lon="2.5324382826156677"><ele>530.0</ele><time>2026-04-08T12:26:17.002Z</time></trkpt><trkpt lat="42.70855400559105" lon="2.5322847479901447"><ele>530.0</ele><time>2026-04-08T12:26:18.002Z</time></trkpt><trkpt lat="42.708561821709985" lon="2.5321462681340248"><ele>530.0</ele><time>2026-04-08T12:26:19.002Z</time></trkpt><trkpt lat="42.70857312271899" lon="2.532008945940037"><ele>530.0</ele><time>2026-04-08T12:26:20.002Z</time></trkpt><trkpt lat="42.70859228167011" lon="2.5318722003045147"><ele>530.0</ele><time>2026-04-08T12:26:21.002Z</time></trkpt><trkpt lat="42.70860954200221" lon="2.5317337443008396"><ele>530.0</ele><time>2026-04-08T12:26:22.002Z</time></trkpt><trkpt lat="42.70862372047887" lon="2.5315963817331877"><ele>532.1666666666666</ele><time>2026-04-08T12:26:23.002Z</time></trkpt><trkpt lat="42.708641497370905" lon="2.531464332656142"><ele>534.3333333333333</ele><time>2026-04-08T12:26:24.002Z</time></trkpt><trkpt lat="42.70865655008809" lon="2.531357777543747"><ele>536.5</ele><time>2026-04-08T12:26:25.002Z</time></trkpt><trkpt lat="42.70866868475454" lon="2.531258182479508"><ele>538.6666666666666</ele><time>2026-04-08T12:26:26.002Z</time></trkpt><trkpt lat="42.70867965108983" lon="2.5311697449850334"><ele>540.8333333333334</ele><time>2026-04-08T12:26:27.002Z</time></trkpt><trkpt lat="42.70867531878085" lon="2.5310056915602606"><ele>543.0</ele><time>2026-04-08T12:26:29.002Z</time></trkpt><trkpt lat="42.70868105811053" lon="2.5309112760927652"><ele>543.4</ele><time>2026-04-08T12:26:30.002Z</time></trkpt><trkpt lat="42.7085983338088" lon="2.5308153870019163"><ele>543.8</ele><time>2026-04-08T12:26:31.001Z</time></trkpt><trkpt lat="42.708533238817175" lon="2.5307114477206887"><ele>544.2</ele><time>2026-04-08T12:26:32.001Z</time></trkpt><trkpt lat="42.70848444851417" lon="2.5305935036848988"><ele>544.6</ele><time>2026-04-08T12:26:33.001Z</time></trkpt><trkpt lat="42.70843424949644" lon="2.530500126517224"><ele>545.0</ele><time>2026-04-08T12:26:34.001Z</time></trkpt><trkpt lat="42.708387337590096" lon="2.5304128632620952"><ele>543.0</ele><time>2026-04-08T12:26:35.001Z</time></trkpt><trkpt lat="42.70834320867406" lon="2.530333603268954"><ele>541.0</ele><time>2026-04-08T12:26:36.001Z</time></trkpt><trkpt lat="42.708296107495094" lon="2.5302712132012015"><ele>539.0</ele><time>2026-04-08T12:26:37.001Z</time></trkpt><trkpt lat="42.708274295428296" lon="2.530121437385046"><ele>537.0</ele><time>2026-04-08T12:26:39.001Z</time></trkpt><trkpt lat="42.70828790745083" lon="2.5300282347923626"><ele>535.0</ele><time>2026-04-08T12:26:40.001Z</time></trkpt><trkpt lat="42.70831511219131" lon="2.5299081160507884"><ele>533.0</ele><time>2026-04-08T12:26:41.001Z</time></trkpt><trkpt lat="42.70837162364092" lon="2.529785428850931"><ele>533.0</ele><time>2026-04-08T12:26:42.001Z</time></trkpt><trkpt lat="42.708409774718035" lon="2.5296568616203032"><ele>533.0</ele><time>2026-04-08T12:26:43.001Z</time></trkpt><trkpt lat="42.708448162690075" lon="2.5295288588566267"><ele>533.0</ele><time>2026-04-08T12:26:44.001Z</time></trkpt><trkpt lat="42.70847171722151" lon="2.5293969360459156"><ele>533.0</ele><time>2026-04-08T12:26:45.001Z</time></trkpt><trkpt lat="42.70850898024512" lon="2.5292834943417875"><ele>533.0</ele><time>2026-04-08T12:26:46.001Z</time></trkpt><trkpt lat="42.7085472969593" lon="2.529169330638998"><ele>534.6</ele><time>2026-04-08T12:26:47.001Z</time></trkpt><trkpt lat="42.708588293172724" lon="2.5290564971352785"><ele>536.1999999999999</ele><time>2026-04-08T12:26:48.001Z</time></trkpt><trkpt lat="42.70863274668731" lon="2.5289404539124543"><ele>537.8</ele><time>2026-04-08T12:26:49.001Z</time></trkpt><trkpt lat="42.70867147491126" lon="2.528821220681202"><ele>539.4</ele><time>2026-04-08T12:26:50.001Z</time></trkpt><trkpt lat="42.708726899182906" lon="2.528726669326476"><ele>541.0</ele><time>2026-04-08T12:26:51.001Z</time></trkpt><trkpt lat="42.70875959736827" lon="2.5286283604541246"><ele>541.0</ele><time>2026-04-08T12:26:52.001Z</time></trkpt><trkpt lat="42.70879001613935" lon="2.5285369049481305"><ele>541.0</ele><time>2026-04-08T12:26:53.001Z</time></trkpt><trkpt lat="42.7088580321359" lon="2.5283884110037573"><ele>541.0</ele><time>2026-04-08T12:26:55.001Z</time></trkpt><trkpt lat="42.7088814501016" lon="2.5282849415985496"><ele>541.0</ele><time>2026-04-08T12:26:56.001Z</time></trkpt><trkpt lat="42.70892668389451" lon="2.528173613726279"><ele>541.0</ele><time>2026-04-08T12:26:57.001Z</time></trkpt><trkpt lat="42.70897128922574" lon="2.528055411641027"><ele>541.0</ele><time>2026-04-08T12:26:58.001Z</time></trkpt><trkpt lat="42.709024519989185" lon="2.527913668382384"><ele>541.0</ele><time>2026-04-08T12:26:59.001Z</time></trkpt><trkpt lat="42.70907876249008" lon="2.5277687824912634"><ele>541.0</ele><time>2026-04-08T12:27:00.001Z</time></trkpt><trkpt lat="42.70913845197787" lon="2.527608113729507"><ele>541.0</ele><time>2026-04-08T12:27:01.001Z</time></trkpt><trkpt lat="42.70920563672021" lon="2.5274295300985354"><ele>540.6666666666667</ele><time>2026-04-08T12:27:02.001Z</time></trkpt><trkpt lat="42.709279956231875" lon="2.5272463269452166"><ele>540.3333333333334</ele><time>2026-04-08T12:27:03.001Z</time></trkpt><trkpt lat="42.709349745556246" lon="2.527057583081261"><ele>540.0</ele><time>2026-04-08T12:27:04.001Z</time></trkpt><trkpt lat="42.709430988227815" lon="2.5268739168478924"><ele>542.5</ele><time>2026-04-08T12:27:05.001Z</time></trkpt><trkpt lat="42.70950106643636" lon="2.5267052482837076"><ele>545.0</ele><time>2026-04-08T12:27:06.001Z</time></trkpt><trkpt lat="42.70956571349578" lon="2.5265424371867846"><ele>547.5</ele><time>2026-04-08T12:27:07.001Z</time></trkpt><trkpt lat="42.70962721774571" lon="2.5263784809932868"><ele>550.0</ele><time>2026-04-08T12:27:08.001Z</time></trkpt><trkpt lat="42.70968112600288" lon="2.526216384839439"><ele>550.75</ele><time>2026-04-08T12:27:09Z</time></trkpt><trkpt lat="42.709716502615166" lon="2.526035658538681"><ele>551.5</ele><time>2026-04-08T12:27:10Z</time></trkpt><trkpt lat="42.70972511440359" lon="2.525839945127317"><ele>552.25</ele><time>2026-04-08T12:27:11Z</time></trkpt><trkpt lat="42.70970359696824" lon="2.5256321992311555"><ele>553.0</ele><time>2026-04-08T12:27:12Z</time></trkpt><trkpt lat="42.70967131916942" lon="2.5254250109826235"><ele>554.6666666666667</ele><time>2026-04-08T12:27:13Z</time></trkpt><trkpt lat="42.70966421351684" lon="2.525207117400627"><ele>556.3333333333334</ele><time>2026-04-08T12:27:14Z</time></trkpt><trkpt lat="42.70964509593822" lon="2.5249982545169694"><ele>558.0</ele><time>2026-04-08T12:27:15Z</time></trkpt><trkpt lat="42.70962824864235" lon="2.5248117953260634"><ele>558.0</ele><time>2026-04-08T12:27:16Z</time></trkpt><trkpt lat="42.70961859168431" lon="2.5246416816884247"><ele>558.0</ele><time>2026-04-08T12:27:17Z</time></trkpt><trkpt lat="42.709610814140575" lon="2.5244785577501996"><ele>558.0</ele><time>2026-04-08T12:27:18Z</time></trkpt><trkpt lat="42.70964395751202" lon="2.524318658738171"><ele>558.0</ele><time>2026-04-08T12:27:19Z</time></trkpt><trkpt lat="42.70972428507752" lon="2.524184594388539"><ele>557.25</ele><time>2026-04-08T12:27:20Z</time></trkpt><trkpt lat="42.70981203497318" lon="2.5240375617584014"><ele>556.5</ele><time>2026-04-08T12:27:21Z</time></trkpt><trkpt lat="42.70989050251419" lon="2.5238767502864694"><ele>555.75</ele><time>2026-04-08T12:27:22Z</time></trkpt><trkpt lat="42.709968578622295" lon="2.5237049818452597"><ele>555.0</ele><time>2026-04-08T12:27:23Z</time></trkpt><trkpt lat="42.71002750441592" lon="2.523506030166253"><ele>555.0</ele><time>2026-04-08T12:27:24Z</time></trkpt><trkpt lat="42.71006601344973" lon="2.523287320923797"><ele>555.0</ele><time>2026-04-08T12:27:25Z</time></trkpt><trkpt lat="42.71008687062502" lon="2.523064297227007"><ele>555.0</ele><time>2026-04-08T12:27:26Z</time></trkpt><trkpt lat="42.710105031695726" lon="2.5228324902882378"><ele>555.0</ele><time>2026-04-08T12:27:27Z</time></trkpt><trkpt lat="42.710139394177936" lon="2.522605484133538"><ele>555.0</ele><time>2026-04-08T12:27:28Z</time></trkpt><trkpt lat="42.71019826992446" lon="2.5223860396556237"><ele>555.0</ele><time>2026-04-08T12:27:29Z</time></trkpt><trkpt lat="42.710266428100425" lon="2.522162169942718"><ele>559.3333333333334</ele><time>2026-04-08T12:27:30Z</time></trkpt><trkpt lat="42.71033307257036" lon="2.521927781989897"><ele>563.6666666666667</ele><time>2026-04-08T12:27:31Z</time></trkpt><trkpt lat="42.71039754744571" lon="2.521697301166755"><ele>568.0</ele><time>2026-04-08T12:27:32Z</time></trkpt><trkpt lat="42.71045941938037" lon="2.5214675816961005"><ele>568.0</ele><time>2026-04-08T12:27:33Z</time></trkpt><trkpt lat="42.71051858985988" lon="2.521249927438356"><ele>568.0</ele><time>2026-04-08T12:27:34Z</time></trkpt><trkpt lat="42.71057145355831" lon="2.521049209584291"><ele>568.0</ele><time>2026-04-08T12:27:35Z</time></trkpt><trkpt lat="42.71061501983299" lon="2.5208639714289487"><ele>568.0</ele><time>2026-04-08T12:27:36Z</time></trkpt><trkpt lat="42.710650130595425" lon="2.5206895377191327"><ele>568.0</ele><time>2026-04-08T12:27:37Z</time></trkpt><trkpt lat="42.71070872787078" lon="2.5205276922121573"><ele>568.0</ele><time>2026-04-08T12:27:38Z</time></trkpt><trkpt lat="42.710772728086255" lon="2.5203746206483713"><ele>568.0</ele><time>2026-04-08T12:27:39Z</time></trkpt><trkpt lat="42.7108713185215" lon="2.5202355485099397"><ele>567.5</ele><time>2026-04-08T12:27:40Z</time></trkpt><trkpt lat="42.710969142565766" lon="2.52008350229514"><ele>567.0</ele><time>2026-04-08T12:27:41Z</time></trkpt><trkpt lat="42.71106614575882" lon="2.5199514065049375"><ele>566.5</ele><time>2026-04-08T12:27:42Z</time></trkpt><trkpt lat="42.71114230064914" lon="2.5198057329452626"><ele>566.0</ele><time>2026-04-08T12:27:43Z</time></trkpt><trkpt lat="42.711210640856244" lon="2.5196526040302394"><ele>570.0</ele><time>2026-04-08T12:27:44Z</time></trkpt><trkpt lat="42.71127139646263" lon="2.5195145524597584"><ele>574.0</ele><time>2026-04-08T12:27:45Z</time></trkpt><trkpt lat="42.71131001214495" lon="2.519389286206022"><ele>578.0</ele><time>2026-04-08T12:27:46Z</time></trkpt><trkpt lat="42.71131865509115" lon="2.519256012731436"><ele>582.0</ele><time>2026-04-08T12:27:47Z</time></trkpt><trkpt lat="42.71129732687274" lon="2.51911498094392"><ele>586.0</ele><time>2026-04-08T12:27:48Z</time></trkpt><trkpt lat="42.711245797435694" lon="2.5189938074288123"><ele>586.0</ele><time>2026-04-08T12:27:49Z</time></trkpt><trkpt lat="42.71115845130511" lon="2.5188722616073593"><ele>586.0</ele><time>2026-04-08T12:27:50Z</time></trkpt><trkpt lat="42.711080652185515" lon="2.5187518900465524"><ele>586.0</ele><time>2026-04-08T12:27:51Z</time></trkpt><trkpt lat="42.710983573676074" lon="2.5186638381384534"><ele>586.0</ele><time>2026-04-08T12:27:52Z</time></trkpt><trkpt lat="42.71091308294932" lon="2.518573131856413"><ele>587.2</ele><time>2026-04-08T12:27:53Z</time></trkpt><trkpt lat="42.71089534473012" lon="2.518451114868524"><ele>588.4000000000001</ele><time>2026-04-08T12:27:54Z</time></trkpt><trkpt lat="42.710897622753045" lon="2.5183312128505553"><ele>589.6</ele><time>2026-04-08T12:27:55Z</time></trkpt><trkpt lat="42.71093936528834" lon="2.51822459187169"><ele>590.8000000000001</ele><time>2026-04-08T12:27:56Z</time></trkpt><trkpt lat="42.71101682070689" lon="2.518141619258533"><ele>592.0</ele><time>2026-04-08T12:27:57Z</time></trkpt><trkpt lat="42.71110076257381" lon="2.5180306459016037"><ele>591.75</ele><time>2026-04-08T12:27:58Z</time></trkpt><trkpt lat="42.71116552912135" lon="2.517878008427825"><ele>591.5</ele><time>2026-04-08T12:27:59Z</time></trkpt><trkpt lat="42.71122860865882" lon="2.5177151696873326"><ele>591.25</ele><time>2026-04-08T12:28:00Z</time></trkpt><trkpt lat="42.71127489417088" lon="2.517531716689055"><ele>591.0</ele><time>2026-04-08T12:28:01Z</time></trkpt><trkpt lat="42.711336700783" lon="2.5173412336496823"><ele>591.0</ele><time>2026-04-08T12:28:02Z</time></trkpt><trkpt lat="42.71141004419761" lon="2.517144481247094"><ele>591.0</ele><time>2026-04-08T12:28:03Z</time></trkpt><trkpt lat="42.71148784668151" lon="2.5169580634809985"><ele>591.0</ele><time>2026-04-08T12:28:04Z</time></trkpt><trkpt lat="42.71155950859698" lon="2.5167804313787827"><ele>590.75</ele><time>2026-04-08T12:28:05Z</time></trkpt><trkpt lat="42.71161771040582" lon="2.51660883047005"><ele>590.5</ele><time>2026-04-08T12:28:06Z</time></trkpt><trkpt lat="42.71165896236034" lon="2.516431653837961"><ele>590.25</ele><time>2026-04-08T12:28:07Z</time></trkpt><trkpt lat="42.71166536536423" lon="2.516253678656626"><ele>590.0</ele><time>2026-04-08T12:28:08Z</time></trkpt><trkpt lat="42.71163379616782" lon="2.5160939609788455"><ele>590.5</ele><time>2026-04-08T12:28:09Z</time></trkpt><trkpt lat="42.71157256204459" lon="2.5159240697719523"><ele>591.0</ele><time>2026-04-08T12:28:10Z</time></trkpt><trkpt lat="42.71150317302089" lon="2.515753475516564"><ele>591.5</ele><time>2026-04-08T12:28:11Z</time></trkpt><trkpt lat="42.7114418894102" lon="2.515570573368208"><ele>592.0</ele><time>2026-04-08T12:28:12Z</time></trkpt><trkpt lat="42.711381018353464" lon="2.5153755892436136"><ele>593.3333333333334</ele><time>2026-04-08T12:28:13Z</time></trkpt><trkpt lat="42.71133961231948" lon="2.5151685739631144"><ele>594.6666666666666</ele><time>2026-04-08T12:28:14Z</time></trkpt><trkpt lat="42.71131423802284" lon="2.5149595883998117"><ele>596.0</ele><time>2026-04-08T12:28:15Z</time></trkpt><trkpt lat="42.71131805078796" lon="2.5147488297302627"><ele>596.6666666666666</ele><time>2026-04-08T12:28:16Z</time></trkpt><trkpt lat="42.71131027173251" lon="2.5145323730733304"><ele>597.3333333333334</ele><time>2026-04-08T12:28:17Z</time></trkpt><trkpt lat="42.71126845792375" lon="2.514324450187967"><ele>598.0</ele><time>2026-04-08T12:28:18Z</time></trkpt><trkpt lat="42.71123678153052" lon="2.514121816209383"><ele>598.0</ele><time>2026-04-08T12:28:19Z</time></trkpt><trkpt lat="42.71119135105778" lon="2.5139413701371276"><ele>598.0</ele><time>2026-04-08T12:28:20Z</time></trkpt><trkpt lat="42.711147402398126" lon="2.5137853275616373"><ele>598.0</ele><time>2026-04-08T12:28:21.002Z</time></trkpt><trkpt lat="42.7111022453146" lon="2.513650451564779"><ele>598.0</ele><time>2026-04-08T12:28:22.002Z</time></trkpt><trkpt lat="42.71104023828082" lon="2.513536204588351"><ele>598.0</ele><time>2026-04-08T12:28:23.002Z</time></trkpt><trkpt lat="42.71095165967731" lon="2.513452194382673"><ele>598.0</ele><time>2026-04-08T12:28:24.002Z</time></trkpt><trkpt lat="42.71084334618273" lon="2.513390315362924"><ele>598.0</ele><time>2026-04-08T12:28:25.002Z</time></trkpt><trkpt lat="42.71072168013803" lon="2.5133710765427875"><ele>598.0</ele><time>2026-04-08T12:28:26.002Z</time></trkpt><trkpt lat="42.71059257117349" lon="2.5133911036756795"><ele>598.0</ele><time>2026-04-08T12:28:27.002Z</time></trkpt><trkpt lat="42.71046171531964" lon="2.513441324408302"><ele>598.0</ele><time>2026-04-08T12:28:28.001Z</time></trkpt><trkpt lat="42.71033413163507" lon="2.5135110637859244"><ele>598.0</ele><time>2026-04-08T12:28:29.001Z</time></trkpt><trkpt lat="42.71021683062847" lon="2.513574109729215"><ele>598.0</ele><time>2026-04-08T12:28:30.001Z</time></trkpt><trkpt lat="42.710106616796494" lon="2.513580178278387"><ele>598.5</ele><time>2026-04-08T12:28:31.001Z</time></trkpt><trkpt lat="42.71000623200743" lon="2.513499533557294"><ele>599.0</ele><time>2026-04-08T12:28:32.001Z</time></trkpt><trkpt lat="42.70991154056831" lon="2.513408900814247"><ele>599.5</ele><time>2026-04-08T12:28:33.001Z</time></trkpt><trkpt lat="42.70982541433114" lon="2.5132894242826462"><ele>600.0</ele><time>2026-04-08T12:28:34.001Z</time></trkpt><trkpt lat="42.709754963582135" lon="2.5131806419454605"><ele>600.0</ele><time>2026-04-08T12:28:35.001Z</time></trkpt><trkpt lat="42.70969736378944" lon="2.5130864304354232"><ele>600.0</ele><time>2026-04-08T12:28:36.001Z</time></trkpt><trkpt lat="42.709631107897174" lon="2.5130214707285"><ele>600.0</ele><time>2026-04-08T12:28:37.001Z</time></trkpt><trkpt lat="42.70958982975127" lon="2.5129442588995934"><ele>600.0</ele><time>2026-04-08T12:28:38.001Z</time></trkpt><trkpt lat="42.70954813565226" lon="2.512879964366981"><ele>600.0</ele><time>2026-04-08T12:28:39.001Z</time></trkpt><trkpt lat="42.70948057372039" lon="2.512836958716132"><ele>600.0</ele><time>2026-04-08T12:29:24Z</time></trkpt><trkpt lat="42.70953833198722" lon="2.5129729436765014"><ele>600.0</ele><time>2026-04-08T12:29:30Z</time></trkpt><trkpt lat="42.70963158470137" lon="2.513068470991587"><ele>600.0</ele><time>2026-04-08T12:29:32Z</time></trkpt><trkpt lat="42.70967530147863" lon="2.5131414609957625"><ele>600.0</ele><time>2026-04-08T12:29:33Z</time></trkpt><trkpt lat="42.709720976456275" lon="2.513216440917833"><ele>600.0</ele><time>2026-04-08T12:29:34Z</time></trkpt><trkpt lat="42.70977155978957" lon="2.5132962862400863"><ele>600.0</ele><time>2026-04-08T12:29:35Z</time></trkpt><trkpt lat="42.70982512957186" lon="2.5133778847965407"><ele>600.0</ele><time>2026-04-08T12:29:36Z</time></trkpt><trkpt lat="42.70988766418634" lon="2.5134553938709234"><ele>600.0</ele><time>2026-04-08T12:29:37Z</time></trkpt><trkpt lat="42.70995236580406" lon="2.5135136577736685"><ele>600.0</ele><time>2026-04-08T12:29:38Z</time></trkpt><trkpt lat="42.71003457871974" lon="2.513562573056074"><ele>600.0</ele><time>2026-04-08T12:29:40Z</time></trkpt><trkpt lat="42.71018143960312" lon="2.513639021650811"><ele>600.0</ele><time>2026-04-08T12:29:41Z</time></trkpt><trkpt lat="42.71027608128595" lon="2.5136255947492563"><ele>600.0</ele><time>2026-04-08T12:29:42Z</time></trkpt><trkpt lat="42.710368052184435" lon="2.5135868779532533"><ele>599.6</ele><time>2026-04-08T12:29:43Z</time></trkpt><trkpt lat="42.71044570569375" lon="2.5135338508101066"><ele>599.2</ele><time>2026-04-08T12:29:44Z</time></trkpt><trkpt lat="42.71052915163766" lon="2.513489061765012"><ele>598.8</ele><time>2026-04-08T12:29:45Z</time></trkpt><trkpt lat="42.71062261192181" lon="2.5134486538716616"><ele>598.4</ele><time>2026-04-08T12:29:46Z</time></trkpt><trkpt lat="42.71072457062838" lon="2.5134379216569456"><ele>598.0</ele><time>2026-04-08T12:29:47Z</time></trkpt><trkpt lat="42.71082552335184" lon="2.5134702777028113"><ele>598.0</ele><time>2026-04-08T12:29:48Z</time></trkpt><trkpt lat="42.71092206229467" lon="2.5135118319536867"><ele>598.0</ele><time>2026-04-08T12:29:49Z</time></trkpt><trkpt lat="42.71101565264001" lon="2.5135637932166532"><ele>598.0</ele><time>2026-04-08T12:29:50Z</time></trkpt><trkpt lat="42.711089224077206" lon="2.513672184612388"><ele>598.0</ele><time>2026-04-08T12:29:51Z</time></trkpt><trkpt lat="42.71112877956625" lon="2.5138279885710784"><ele>598.0</ele><time>2026-04-08T12:29:52Z</time></trkpt><trkpt lat="42.71116968040397" lon="2.5139943331035024"><ele>598.0</ele><time>2026-04-08T12:29:52.999Z</time></trkpt><trkpt lat="42.71122568317465" lon="2.5141642208052315"><ele>598.0</ele><time>2026-04-08T12:29:53.999Z</time></trkpt><trkpt lat="42.711251122536545" lon="2.514345567733072"><ele>598.0</ele><time>2026-04-08T12:29:54.999Z</time></trkpt><trkpt lat="42.71127982504156" lon="2.5145084114603"><ele>598.0</ele><time>2026-04-08T12:29:55.999Z</time></trkpt><trkpt lat="42.71129153434399" lon="2.514679118476615"><ele>597.5</ele><time>2026-04-08T12:29:56.999Z</time></trkpt><trkpt lat="42.711286381510014" lon="2.5148606523996295"><ele>597.0</ele><time>2026-04-08T12:29:57.999Z</time></trkpt><trkpt lat="42.71128249687442" lon="2.5150366672893862"><ele>596.5</ele><time>2026-04-08T12:29:58.999Z</time></trkpt><trkpt lat="42.7113046731941" lon="2.515228264246736"><ele>596.0</ele><time>2026-04-08T12:29:59.999Z</time></trkpt><trkpt lat="42.711355300169686" lon="2.5154222481046444"><ele>595.0</ele><time>2026-04-08T12:30:00.999Z</time></trkpt><trkpt lat="42.711412073498565" lon="2.5156050056734323"><ele>594.0</ele><time>2026-04-08T12:30:01.999Z</time></trkpt><trkpt lat="42.71146972806006" lon="2.5157742253306057"><ele>593.0</ele><time>2026-04-08T12:30:02.999Z</time></trkpt><trkpt lat="42.71152397700661" lon="2.515939138445129"><ele>592.0</ele><time>2026-04-08T12:30:03.999Z</time></trkpt><trkpt lat="42.71157031271133" lon="2.516101430027407"><ele>591.5</ele><time>2026-04-08T12:30:04.999Z</time></trkpt><trkpt lat="42.711609945175695" lon="2.5162643463306105"><ele>591.0</ele><time>2026-04-08T12:30:05.999Z</time></trkpt><trkpt lat="42.71162206100166" lon="2.516441581477903"><ele>590.5</ele><time>2026-04-08T12:30:06.999Z</time></trkpt><trkpt lat="42.711596214749655" lon="2.516629711924619"><ele>590.0</ele><time>2026-04-08T12:30:07.999Z</time></trkpt><trkpt lat="42.71153474775039" lon="2.5168153699818903"><ele>590.0</ele><time>2026-04-08T12:30:08.999Z</time></trkpt><trkpt lat="42.71145557152728" lon="2.516992690682277"><ele>590.0</ele><time>2026-04-08T12:30:09.999Z</time></trkpt><trkpt lat="42.71137310433212" lon="2.517172008682806"><ele>590.0</ele><time>2026-04-08T12:30:10.999Z</time></trkpt><trkpt lat="42.71130646195155" lon="2.5173415886482386"><ele>590.0</ele><time>2026-04-08T12:30:11.999Z</time></trkpt><trkpt lat="42.71124966262602" lon="2.5175008212717334"><ele>590.25</ele><time>2026-04-08T12:30:12.999Z</time></trkpt><trkpt lat="42.711205043359776" lon="2.5176558339506228"><ele>590.5</ele><time>2026-04-08T12:30:13.999Z</time></trkpt><trkpt lat="42.711161499716475" lon="2.517804968572651"><ele>590.75</ele><time>2026-04-08T12:30:14.999Z</time></trkpt><trkpt lat="42.71110743848265" lon="2.5179438792091826"><ele>591.0</ele><time>2026-04-08T12:30:15.999Z</time></trkpt><trkpt lat="42.711041727818916" lon="2.5180576687348006"><ele>586.6</ele><time>2026-04-08T12:30:16.999Z</time></trkpt><trkpt lat="42.71096643244123" lon="2.5181551028522025"><ele>582.2</ele><time>2026-04-08T12:30:17.999Z</time></trkpt><trkpt lat="42.710900230670596" lon="2.5182440162231083"><ele>577.8</ele><time>2026-04-08T12:30:18.999Z</time></trkpt><trkpt lat="42.710860178890684" lon="2.518341907215068"><ele>573.4</ele><time>2026-04-08T12:30:19.999Z</time></trkpt><trkpt lat="42.71085315796364" lon="2.5184555608164034"><ele>569.0</ele><time>2026-04-08T12:30:20.999Z</time></trkpt><trkpt lat="42.71087553031856" lon="2.5185732707329813"><ele>569.0</ele><time>2026-04-08T12:30:21.999Z</time></trkpt><trkpt lat="42.710926066583006" lon="2.5186853238508884"><ele>569.0</ele><time>2026-04-08T12:30:22.999Z</time></trkpt><trkpt lat="42.71100933022146" lon="2.5187805981430973"><ele>569.0</ele><time>2026-04-08T12:30:23.999Z</time></trkpt><trkpt lat="42.71111255136457" lon="2.518863553017457"><ele>569.0</ele><time>2026-04-08T12:30:24.999Z</time></trkpt><trkpt lat="42.71118773176949" lon="2.51897076458253"><ele>569.0</ele><time>2026-04-08T12:30:25.999Z</time></trkpt><trkpt lat="42.71125273709855" lon="2.5190650642927404"><ele>573.0</ele><time>2026-04-08T12:30:27.001Z</time></trkpt><trkpt lat="42.711287086372245" lon="2.5192027950002345"><ele>577.0</ele><time>2026-04-08T12:30:28.001Z</time></trkpt><trkpt lat="42.71129172716026" lon="2.519343206393042"><ele>581.0</ele><time>2026-04-08T12:30:29.001Z</time></trkpt><trkpt lat="42.7112595987732" lon="2.51950663918242"><ele>585.0</ele><time>2026-04-08T12:30:30.001Z</time></trkpt><trkpt lat="42.71118091830266" lon="2.5196545004958018"><ele>585.0</ele><time>2026-04-08T12:30:31.001Z</time></trkpt><trkpt lat="42.71111651040463" lon="2.5198160098493965"><ele>585.0</ele><time>2026-04-08T12:30:32.001Z</time></trkpt><trkpt lat="42.711019367640176" lon="2.5199618056906448"><ele>585.0</ele><time>2026-04-08T12:30:33.001Z</time></trkpt><trkpt lat="42.710926832713525" lon="2.5200954347724704"><ele>585.0</ele><time>2026-04-08T12:30:34.001Z</time></trkpt><trkpt lat="42.710839799621006" lon="2.520213237699015"><ele>580.75</ele><time>2026-04-08T12:30:35.001Z</time></trkpt><trkpt lat="42.71075687475795" lon="2.520327042384017"><ele>576.5</ele><time>2026-04-08T12:30:36.001Z</time></trkpt><trkpt lat="42.710681552344596" lon="2.5204763675455895"><ele>572.25</ele><time>2026-04-08T12:30:37.001Z</time></trkpt><trkpt lat="42.71062525607424" lon="2.5206688513452815"><ele>568.0</ele><time>2026-04-08T12:30:38.001Z</time></trkpt><trkpt lat="42.71058425728427" lon="2.520877262769467"><ele>568.0</ele><time>2026-04-08T12:30:39.001Z</time></trkpt><trkpt lat="42.71054275601256" lon="2.5210884291223215"><ele>568.0</ele><time>2026-04-08T12:30:40.001Z</time></trkpt><trkpt lat="42.71048747880666" lon="2.521300998060494"><ele>568.0</ele><time>2026-04-08T12:30:41.001Z</time></trkpt><trkpt lat="42.710427207998784" lon="2.521509775835573"><ele>568.0</ele><time>2026-04-08T12:30:42Z</time></trkpt><trkpt lat="42.71036298623673" lon="2.5217179701300023"><ele>568.0</ele><time>2026-04-08T12:30:43Z</time></trkpt><trkpt lat="42.710301819666995" lon="2.521931313102041"><ele>568.0</ele><time>2026-04-08T12:30:44Z</time></trkpt><trkpt lat="42.7102424112839" lon="2.5221420408678155"><ele>563.6666666666667</ele><time>2026-04-08T12:30:45Z</time></trkpt><trkpt lat="42.710182999105534" lon="2.5223536052312205"><ele>559.3333333333334</ele><time>2026-04-08T12:30:46Z</time></trkpt><trkpt lat="42.71013000656208" lon="2.5225649418614284"><ele>555.0</ele><time>2026-04-08T12:30:47Z</time></trkpt><trkpt lat="42.71008695963368" lon="2.5227725567391364"><ele>553.6666666666666</ele><time>2026-04-08T12:30:48Z</time></trkpt><trkpt lat="42.710054599424055" lon="2.5229772518383866"><ele>552.3333333333333</ele><time>2026-04-08T12:30:49Z</time></trkpt><trkpt lat="42.710041083714046" lon="2.5231886559033807"><ele>551.0</ele><time>2026-04-08T12:30:50Z</time></trkpt><trkpt lat="42.71002727471546" lon="2.523389629075728"><ele>551.0</ele><time>2026-04-08T12:30:51Z</time></trkpt><trkpt lat="42.70998807535145" lon="2.5235911677294984"><ele>551.0</ele><time>2026-04-08T12:30:52Z</time></trkpt><trkpt lat="42.70990545282638" lon="2.5237684642861624"><ele>551.0</ele><time>2026-04-08T12:30:53Z</time></trkpt><trkpt lat="42.70982843232817" lon="2.5239320927113815"><ele>552.0</ele><time>2026-04-08T12:30:54Z</time></trkpt><trkpt lat="42.70975771574236" lon="2.52408833087336"><ele>553.0</ele><time>2026-04-08T12:30:55Z</time></trkpt><trkpt lat="42.70967076847326" lon="2.524216891213946"><ele>554.0</ele><time>2026-04-08T12:30:56Z</time></trkpt><trkpt lat="42.70961362817338" lon="2.52434210265131"><ele>555.0</ele><time>2026-04-08T12:30:57Z</time></trkpt><trkpt lat="42.70957941925227" lon="2.524491453393311"><ele>555.75</ele><time>2026-04-08T12:30:58Z</time></trkpt><trkpt lat="42.709576068233574" lon="2.5246715844549765"><ele>556.5</ele><time>2026-04-08T12:30:59Z</time></trkpt><trkpt lat="42.70959055775246" lon="2.524867146577035"><ele>557.25</ele><time>2026-04-08T12:31:00Z</time></trkpt><trkpt lat="42.70962384648784" lon="2.5250899820268278"><ele>558.0</ele><time>2026-04-08T12:31:01Z</time></trkpt><trkpt lat="42.70964809097706" lon="2.5253064386196096"><ele>556.75</ele><time>2026-04-08T12:31:02Z</time></trkpt><trkpt lat="42.70966564424407" lon="2.5255028954189385"><ele>555.5</ele><time>2026-04-08T12:31:03Z</time></trkpt><trkpt lat="42.709687942753725" lon="2.525687382879448"><ele>554.25</ele><time>2026-04-08T12:31:04Z</time></trkpt><trkpt lat="42.709703447273995" lon="2.5258727524485782"><ele>553.0</ele><time>2026-04-08T12:31:05Z</time></trkpt><trkpt lat="42.70969733507692" lon="2.526050163065657"><ele>553.0</ele><time>2026-04-08T12:31:06Z</time></trkpt><trkpt lat="42.70964799676095" lon="2.5262273787173393"><ele>553.0</ele><time>2026-04-08T12:31:07Z</time></trkpt><trkpt lat="42.70958341574287" lon="2.5264126265774567"><ele>553.0</ele><time>2026-04-08T12:31:08Z</time></trkpt><trkpt lat="42.70951837746868" lon="2.526616163240553"><ele>552.25</ele><time>2026-04-08T12:31:09Z</time></trkpt><trkpt lat="42.709435434255504" lon="2.526802450204239"><ele>551.5</ele><time>2026-04-08T12:31:10Z</time></trkpt><trkpt lat="42.70936272107982" lon="2.5269775862260997"><ele>550.75</ele><time>2026-04-08T12:31:11Z</time></trkpt><trkpt lat="42.70929788163904" lon="2.5271431870394743"><ele>550.0</ele><time>2026-04-08T12:31:12Z</time></trkpt><trkpt lat="42.70923786728224" lon="2.527300485535755"><ele>547.5</ele><time>2026-04-08T12:31:13Z</time></trkpt><trkpt lat="42.709185903645114" lon="2.527444025162232"><ele>545.0</ele><time>2026-04-08T12:31:14Z</time></trkpt><trkpt lat="42.70912660121315" lon="2.52759530417361"><ele>542.5</ele><time>2026-04-08T12:31:15Z</time></trkpt><trkpt lat="42.70907312535851" lon="2.5277365726147933"><ele>540.0</ele><time>2026-04-08T12:31:16Z</time></trkpt><trkpt lat="42.70902343455756" lon="2.5278688821768065"><ele>540.2</ele><time>2026-04-08T12:31:17Z</time></trkpt><trkpt lat="42.70898804660869" lon="2.527981824590218"><ele>540.4</ele><time>2026-04-08T12:31:18Z</time></trkpt><trkpt lat="42.708938241616906" lon="2.5281084768861537"><ele>540.6</ele><time>2026-04-08T12:31:19Z</time></trkpt><trkpt lat="42.70890048461417" lon="2.5282195078801872"><ele>540.8</ele><time>2026-04-08T12:31:20Z</time></trkpt><trkpt lat="42.70886944476522" lon="2.528309266329897"><ele>541.0</ele><time>2026-04-08T12:31:21Z</time></trkpt><trkpt lat="42.70881086245048" lon="2.528441498309118"><ele>541.0</ele><time>2026-04-08T12:31:23Z</time></trkpt><trkpt lat="42.708752497354816" lon="2.5285489012363063"><ele>541.0</ele><time>2026-04-08T12:31:25Z</time></trkpt><trkpt lat="42.708683477896834" lon="2.5287277400877146"><ele>541.0</ele><time>2026-04-08T12:31:27Z</time></trkpt><trkpt lat="42.708638640196234" lon="2.5288488110559615"><ele>541.0</ele><time>2026-04-08T12:31:28Z</time></trkpt><trkpt lat="42.708598279939785" lon="2.5289567155691555"><ele>541.0</ele><time>2026-04-08T12:31:29Z</time></trkpt><trkpt lat="42.708565297338076" lon="2.529052085141543"><ele>539.6666666666667</ele><time>2026-04-08T12:31:30Z</time></trkpt><trkpt lat="42.70852752285134" lon="2.5291521946421702"><ele>538.3333333333334</ele><time>2026-04-08T12:31:30.999Z</time></trkpt><trkpt lat="42.70849244204933" lon="2.5292510893280777"><ele>537.0</ele><time>2026-04-08T12:31:31.999Z</time></trkpt><trkpt lat="42.708464034901255" lon="2.529354533917241"><ele>535.6666666666666</ele><time>2026-04-08T12:31:32.999Z</time></trkpt><trkpt lat="42.70843701820113" lon="2.529446791430713"><ele>534.3333333333333</ele><time>2026-04-08T12:31:33.999Z</time></trkpt><trkpt lat="42.7084029899097" lon="2.529568881972936"><ele>533.0</ele><time>2026-04-08T12:31:34.999Z</time></trkpt><trkpt lat="42.70836978574725" lon="2.529690910961804"><ele>533.0</ele><time>2026-04-08T12:31:35.999Z</time></trkpt><trkpt lat="42.70832749348369" lon="2.5298782290026565"><ele>533.0</ele><time>2026-04-08T12:31:36.999Z</time></trkpt><trkpt lat="42.70829721265117" lon="2.530085512546836"><ele>533.0</ele><time>2026-04-08T12:31:37.999Z</time></trkpt><trkpt lat="42.708300660111384" lon="2.529992477996079"><ele>533.0</ele><time>2026-04-08T12:31:38.999Z</time></trkpt><trkpt lat="42.70828012450326" lon="2.5300992586334776"><ele>533.0</ele><time>2026-04-08T12:31:39.999Z</time></trkpt><trkpt lat="42.708273074850396" lon="2.5301909490012178"><ele>533.0</ele><time>2026-04-08T12:31:40.999Z</time></trkpt><trkpt lat="42.70828771373474" lon="2.530334978545899"><ele>533.0</ele><time>2026-04-08T12:31:42.999Z</time></trkpt><trkpt lat="42.708329117449104" lon="2.5304132611890378"><ele>533.0</ele><time>2026-04-08T12:31:43.999Z</time></trkpt><trkpt lat="42.70838315419282" lon="2.530499615440431"><ele>533.0</ele><time>2026-04-08T12:31:44.999Z</time></trkpt><trkpt lat="42.70844596110816" lon="2.5305971710897186"><ele>533.0</ele><time>2026-04-08T12:31:45.999Z</time></trkpt><trkpt lat="42.708504257215175" lon="2.530702890427313"><ele>533.1999999999999</ele><time>2026-04-08T12:31:46.999Z</time></trkpt><trkpt lat="42.70856162300035" lon="2.530793942298183"><ele>533.4</ele><time>2026-04-08T12:31:47.999Z</time></trkpt><trkpt lat="42.70860241165205" lon="2.530870578850715"><ele>533.5999999999999</ele><time>2026-04-08T12:31:48.999Z</time></trkpt><trkpt lat="42.708643669792636" lon="2.5309416446718016"><ele>533.8</ele><time>2026-04-08T12:31:49.999Z</time></trkpt><trkpt lat="42.708677344095165" lon="2.5310966854186137"><ele>534.0</ele><time>2026-04-08T12:31:51.999Z</time></trkpt><trkpt lat="42.70864654029694" lon="2.5312711043185527"><ele>534.2</ele><time>2026-04-08T12:31:53.999Z</time></trkpt><trkpt lat="42.708627298234696" lon="2.5314023661452363"><ele>534.4</ele><time>2026-04-08T12:31:54.999Z</time></trkpt><trkpt lat="42.70860850294058" lon="2.5315462144599046"><ele>534.6</ele><time>2026-04-08T12:31:55.999Z</time></trkpt><trkpt lat="42.7085919576352" lon="2.5316822191165365"><ele>534.8</ele><time>2026-04-08T12:31:56.999Z</time></trkpt><trkpt lat="42.70858991914395" lon="2.5318108219083877"><ele>535.0</ele><time>2026-04-08T12:31:57.999Z</time></trkpt><trkpt lat="42.708569597472646" lon="2.5319411775644802"><ele>534.1666666666667</ele><time>2026-04-08T12:31:58.999Z</time></trkpt><trkpt lat="42.708554280135544" lon="2.5320651574866737"><ele>533.3333333333334</ele><time>2026-04-08T12:31:59.999Z</time></trkpt><trkpt lat="42.70853831683786" lon="2.5321863643977283"><ele>532.5</ele><time>2026-04-08T12:32:00.999Z</time></trkpt><trkpt lat="42.708522843012204" lon="2.5322941683237983"><ele>531.6666666666666</ele><time>2026-04-08T12:32:01.999Z</time></trkpt><trkpt lat="42.708504292442214" lon="2.532390855900608"><ele>530.8333333333333</ele><time>2026-04-08T12:32:02.999Z</time></trkpt><trkpt lat="42.708467372868355" lon="2.5324834300958075"><ele>530.0</ele><time>2026-04-08T12:32:03.999Z</time></trkpt><trkpt lat="42.70841373230343" lon="2.5325731053640292"><ele>530.0</ele><time>2026-04-08T12:32:04.999Z</time></trkpt><trkpt lat="42.708371130614886" lon="2.5326577677283186"><ele>530.0</ele><time>2026-04-08T12:32:05.999Z</time></trkpt><trkpt lat="42.70823831235577" lon="2.5326563348712274"><ele>530.0</ele><time>2026-04-08T12:32:06.999Z</time></trkpt><trkpt lat="42.708138410477446" lon="2.5327240393917645"><ele>530.0</ele><time>2026-04-08T12:32:07.999Z</time></trkpt><trkpt lat="42.70802175865466" lon="2.5327688980181913"><ele>530.0</ele><time>2026-04-08T12:32:08.999Z</time></trkpt><trkpt lat="42.70790463759006" lon="2.5328065296426283"><ele>530.0</ele><time>2026-04-08T12:32:09.999Z</time></trkpt><trkpt lat="42.70776701304443" lon="2.5327972410741335"><ele>530.0</ele><time>2026-04-08T12:32:10.999Z</time></trkpt><trkpt lat="42.707627372298944" lon="2.5328203228705615"><ele>530.0</ele><time>2026-04-08T12:32:11.999Z</time></trkpt><trkpt lat="42.70748943889949" lon="2.532814732046747"><ele>530.0</ele><time>2026-04-08T12:32:12.999Z</time></trkpt><trkpt lat="42.70735578372735" lon="2.5328055425266625"><ele>528.5</ele><time>2026-04-08T12:32:13.999Z</time></trkpt><trkpt lat="42.707232355936064" lon="2.5327774313420597"><ele>527.0</ele><time>2026-04-08T12:32:14.999Z</time></trkpt><trkpt lat="42.707115831861984" lon="2.532724512918958"><ele>525.5</ele><time>2026-04-08T12:32:15.999Z</time></trkpt><trkpt lat="42.70700196630781" lon="2.532653865675363"><ele>524.0</ele><time>2026-04-08T12:32:16.999Z</time></trkpt><trkpt lat="42.70688899990364" lon="2.532594952738891"><ele>522.75</ele><time>2026-04-08T12:32:17.999Z</time></trkpt><trkpt lat="42.70676776174893" lon="2.5325666370757456"><ele>521.5</ele><time>2026-04-08T12:32:18.999Z</time></trkpt><trkpt lat="42.706642644800844" lon="2.5325582844243453"><ele>520.25</ele><time>2026-04-08T12:32:19.999Z</time></trkpt><trkpt lat="42.706522136229225" lon="2.532561387455067"><ele>519.0</ele><time>2026-04-08T12:32:20.999Z</time></trkpt><trkpt lat="42.70640549027395" lon="2.532563693272887"><ele>519.0</ele><time>2026-04-08T12:32:21.999Z</time></trkpt><trkpt lat="42.70629744330009" lon="2.532573808674444"><ele>519.0</ele><time>2026-04-08T12:32:22.999Z</time></trkpt><trkpt lat="42.70620683650059" lon="2.5326021916194383"><ele>519.0</ele><time>2026-04-08T12:32:23.999Z</time></trkpt><trkpt lat="42.706113440545906" lon="2.5326546189166175"><ele>519.0</ele><time>2026-04-08T12:32:24.999Z</time></trkpt><trkpt lat="42.7060283610617" lon="2.532735836401198"><ele>519.0</ele><time>2026-04-08T12:32:25.999Z</time></trkpt><trkpt lat="42.70595713141501" lon="2.532847830692901"><ele>518.0</ele><time>2026-04-08T12:32:26.999Z</time></trkpt><trkpt lat="42.705885257945276" lon="2.533014776257017"><ele>517.0</ele><time>2026-04-08T12:32:27.999Z</time></trkpt><trkpt lat="42.705810146869" lon="2.5331935594931156"><ele>516.0</ele><time>2026-04-08T12:32:28.999Z</time></trkpt><trkpt lat="42.70574277961407" lon="2.5333684092612243"><ele>515.0</ele><time>2026-04-08T12:32:29.999Z</time></trkpt><trkpt lat="42.705678669411796" lon="2.533537631220666"><ele>515.0</ele><time>2026-04-08T12:32:30.999Z</time></trkpt><trkpt lat="42.70561824912963" lon="2.5336990644786024"><ele>515.0</ele><time>2026-04-08T12:32:31.999Z</time></trkpt><trkpt lat="42.705562868506775" lon="2.533862459335216"><ele>515.0</ele><time>2026-04-08T12:32:33Z</time></trkpt><trkpt lat="42.70550722699593" lon="2.5340337096359806"><ele>515.0</ele><time>2026-04-08T12:32:34Z</time></trkpt><trkpt lat="42.70546891637204" lon="2.5342212983505563"><ele>514.75</ele><time>2026-04-08T12:32:35Z</time></trkpt><trkpt lat="42.705436945180985" lon="2.534404987817398"><ele>514.5</ele><time>2026-04-08T12:32:36Z</time></trkpt><trkpt lat="42.70541476802986" lon="2.534583381175353"><ele>514.25</ele><time>2026-04-08T12:32:37Z</time></trkpt><trkpt lat="42.70537564991281" lon="2.5347450090913117"><ele>514.0</ele><time>2026-04-08T12:32:38Z</time></trkpt><trkpt lat="42.70531572719273" lon="2.5348894375336117"><ele>513.25</ele><time>2026-04-08T12:32:39Z</time></trkpt><trkpt lat="42.705262062252324" lon="2.5350257872184128"><ele>512.5</ele><time>2026-04-08T12:32:40Z</time></trkpt><trkpt lat="42.705240671049054" lon="2.5351851318802785"><ele>511.75</ele><time>2026-04-08T12:32:41Z</time></trkpt><trkpt lat="42.70523849030557" lon="2.5353820453034146"><ele>511.0</ele><time>2026-04-08T12:32:42Z</time></trkpt><trkpt lat="42.705254336692136" lon="2.5355966196762454"><ele>510.0</ele><time>2026-04-08T12:32:43Z</time></trkpt><trkpt lat="42.70525609719891" lon="2.5358070468908567"><ele>509.0</ele><time>2026-04-08T12:32:44Z</time></trkpt><trkpt lat="42.70522700902559" lon="2.5360046129458067"><ele>508.0</ele><time>2026-04-08T12:32:45Z</time></trkpt><trkpt lat="42.70518526374557" lon="2.5361847831922684"><ele>507.0</ele><time>2026-04-08T12:32:46Z</time></trkpt><trkpt lat="42.70515004444795" lon="2.536357675964137"><ele>505.75</ele><time>2026-04-08T12:32:47Z</time></trkpt><trkpt lat="42.70513133900617" lon="2.536540321903086"><ele>504.5</ele><time>2026-04-08T12:32:48Z</time></trkpt><trkpt lat="42.705129718498235" lon="2.536727132986396"><ele>503.25</ele><time>2026-04-08T12:32:49Z</time></trkpt><trkpt lat="42.70514537282598" lon="2.536905584019216"><ele>502.0</ele><time>2026-04-08T12:32:50Z</time></trkpt><trkpt lat="42.70517430668027" lon="2.537067525460464"><ele>502.0</ele><time>2026-04-08T12:32:51Z</time></trkpt><trkpt lat="42.705218249313525" lon="2.537204387075035"><ele>502.0</ele><time>2026-04-08T12:32:52Z</time></trkpt><trkpt lat="42.7052810636725" lon="2.5373239789434185"><ele>502.0</ele><time>2026-04-08T12:32:53Z</time></trkpt><trkpt lat="42.705358008614155" lon="2.5374017164893723"><ele>502.0</ele><time>2026-04-08T12:32:54Z</time></trkpt><trkpt lat="42.70554707843084" lon="2.537557816227563"><ele>500.75</ele><time>2026-04-08T12:32:56Z</time></trkpt><trkpt lat="42.70562612192656" lon="2.5376757975927355"><ele>499.5</ele><time>2026-04-08T12:32:57Z</time></trkpt><trkpt lat="42.70565532789383" lon="2.5378333214041495"><ele>498.25</ele><time>2026-04-08T12:32:58Z</time></trkpt><trkpt lat="42.70567406859278" lon="2.537999132946197"><ele>497.0</ele><time>2026-04-08T12:32:59Z</time></trkpt><trkpt lat="42.70570361103897" lon="2.538175210034141"><ele>495.0</ele><time>2026-04-08T12:33:00Z</time></trkpt><trkpt lat="42.70571330041322" lon="2.5383516876073338"><ele>493.0</ele><time>2026-04-08T12:33:01Z</time></trkpt><trkpt lat="42.705738993860216" lon="2.5385066101330307"><ele>491.0</ele><time>2026-04-08T12:33:02Z</time></trkpt><trkpt lat="42.705781467855836" lon="2.5386483760769707"><ele>489.0</ele><time>2026-04-08T12:33:03Z</time></trkpt><trkpt lat="42.705857848210414" lon="2.5387739812541823"><ele>489.25</ele><time>2026-04-08T12:33:04Z</time></trkpt><trkpt lat="42.70596767380812" lon="2.5388857015031197"><ele>489.5</ele><time>2026-04-08T12:33:05Z</time></trkpt><trkpt lat="42.70609101743705" lon="2.5389685205883814"><ele>489.75</ele><time>2026-04-08T12:33:06Z</time></trkpt><trkpt lat="42.70620629160843" lon="2.539038498023203"><ele>490.0</ele><time>2026-04-08T12:33:07Z</time></trkpt><trkpt lat="42.70631143244617" lon="2.5391101480551224"><ele>490.0</ele><time>2026-04-08T12:33:08Z</time></trkpt><trkpt lat="42.706397026454866" lon="2.5391917957472927"><ele>490.0</ele><time>2026-04-08T12:33:09Z</time></trkpt><trkpt lat="42.70643308153072" lon="2.539320340135026"><ele>490.0</ele><time>2026-04-08T12:33:10Z</time></trkpt><trkpt lat="42.706447165002245" lon="2.5394460536182795"><ele>490.0</ele><time>2026-04-08T12:33:11Z</time></trkpt><trkpt lat="42.706448041834456" lon="2.539580877768258"><ele>490.0</ele><time>2026-04-08T12:33:12Z</time></trkpt><trkpt lat="42.70643917027087" lon="2.539703179774037"><ele>489.4</ele><time>2026-04-08T12:33:13Z</time></trkpt><trkpt lat="42.70641040546509" lon="2.5398013893416866"><ele>488.8</ele><time>2026-04-08T12:33:14Z</time></trkpt><trkpt lat="42.70634877855989" lon="2.5398833247883066"><ele>488.20000000000005</ele><time>2026-04-08T12:33:15Z</time></trkpt><trkpt lat="42.7062602239054" lon="2.539949636060497"><ele>487.6</ele><time>2026-04-08T12:33:16Z</time></trkpt><trkpt lat="42.70615882543503" lon="2.5400363934731547"><ele>487.0</ele><time>2026-04-08T12:33:17Z</time></trkpt><trkpt lat="42.706039643067314" lon="2.540137163587491"><ele>486.75</ele><time>2026-04-08T12:33:18Z</time></trkpt><trkpt lat="42.70590699504361" lon="2.5402451678033002"><ele>486.5</ele><time>2026-04-08T12:33:19Z</time></trkpt><trkpt lat="42.70579361869168" lon="2.540340200462389"><ele>486.25</ele><time>2026-04-08T12:33:20Z</time></trkpt><trkpt lat="42.705688709289014" lon="2.54043145489568"><ele>486.0</ele><time>2026-04-08T12:33:21Z</time></trkpt><trkpt lat="42.705594436721505" lon="2.5405135654334985"><ele>485.8</ele><time>2026-04-08T12:33:22Z</time></trkpt><trkpt lat="42.7055146529782" lon="2.5406138759804824"><ele>485.6</ele><time>2026-04-08T12:33:23Z</time></trkpt><trkpt lat="42.70545496425524" lon="2.5407236534041173"><ele>485.4</ele><time>2026-04-08T12:33:24Z</time></trkpt><trkpt lat="42.70541594354558" lon="2.540845087987402"><ele>485.2</ele><time>2026-04-08T12:33:25Z</time></trkpt><trkpt lat="42.705396558003976" lon="2.540983380668395"><ele>485.0</ele><time>2026-04-08T12:33:26Z</time></trkpt><trkpt lat="42.705384159101655" lon="2.5412193642300323"><ele>485.0</ele><time>2026-04-08T12:33:27Z</time></trkpt><trkpt lat="42.70539559722702" lon="2.5414114904630494"><ele>485.0</ele><time>2026-04-08T12:33:28Z</time></trkpt><trkpt lat="42.705388581400484" lon="2.541587287380558"><ele>485.0</ele><time>2026-04-08T12:33:28.999Z</time></trkpt><trkpt lat="42.705350321907595" lon="2.541736278880537"><ele>485.0</ele><time>2026-04-08T12:33:29.999Z</time></trkpt><trkpt lat="42.70529344724465" lon="2.54187507395415"><ele>484.0</ele><time>2026-04-08T12:33:30.999Z</time></trkpt><trkpt lat="42.705237614154576" lon="2.542001695741118"><ele>483.0</ele><time>2026-04-08T12:33:31.999Z</time></trkpt><trkpt lat="42.70519665649366" lon="2.542121494574709"><ele>482.0</ele><time>2026-04-08T12:33:32.999Z</time></trkpt><trkpt lat="42.7051945950619" lon="2.542244657922787"><ele>481.0</ele><time>2026-04-08T12:33:33.999Z</time></trkpt><trkpt lat="42.70522736309303" lon="2.5423705522406106"><ele>480.0</ele><time>2026-04-08T12:33:34.999Z</time></trkpt><trkpt lat="42.705292681563066" lon="2.5424797121238583"><ele>480.0</ele><time>2026-04-08T12:33:35.999Z</time></trkpt><trkpt lat="42.70538970926643" lon="2.542584831936472"><ele>480.0</ele><time>2026-04-08T12:33:36.999Z</time></trkpt><trkpt lat="42.70549685048992" lon="2.542677719456026"><ele>480.0</ele><time>2026-04-08T12:33:37.999Z</time></trkpt><trkpt lat="42.70557036601538" lon="2.542797796726672"><ele>480.0</ele><time>2026-04-08T12:33:38.999Z</time></trkpt><trkpt lat="42.70561654186361" lon="2.5429513729610576"><ele>478.25</ele><time>2026-04-08T12:33:39.999Z</time></trkpt><trkpt lat="42.705619135783785" lon="2.5431381260359687"><ele>476.5</ele><time>2026-04-08T12:33:40.999Z</time></trkpt><trkpt lat="42.70565323571022" lon="2.5433040723013693"><ele>474.75</ele><time>2026-04-08T12:33:41.999Z</time></trkpt><trkpt lat="42.70569392533612" lon="2.543448363145996"><ele>473.0</ele><time>2026-04-08T12:33:42.999Z</time></trkpt><trkpt lat="42.70575157656286" lon="2.54357986389343"><ele>473.0</ele><time>2026-04-08T12:33:43.999Z</time></trkpt><trkpt lat="42.70578891896298" lon="2.5436884409622174"><ele>473.0</ele><time>2026-04-08T12:33:44.999Z</time></trkpt><trkpt lat="42.70575025051659" lon="2.543951164918726"><ele>473.0</ele><time>2026-04-08T12:33:46.999Z</time></trkpt><trkpt lat="42.70568493165891" lon="2.5440726763202965"><ele>473.0</ele><time>2026-04-08T12:33:47.999Z</time></trkpt><trkpt lat="42.70556669045503" lon="2.544126471444931"><ele>473.5</ele><time>2026-04-08T12:33:48.999Z</time></trkpt><trkpt lat="42.705458750688706" lon="2.544242281030044"><ele>474.0</ele><time>2026-04-08T12:33:49.999Z</time></trkpt><trkpt lat="42.70532945002403" lon="2.5443137582938293"><ele>474.5</ele><time>2026-04-08T12:33:50.999Z</time></trkpt><trkpt lat="42.70519639342984" lon="2.5444258104397446"><ele>475.0</ele><time>2026-04-08T12:33:51.999Z</time></trkpt><trkpt lat="42.70506767843191" lon="2.544569782577099"><ele>473.6666666666667</ele><time>2026-04-08T12:33:52.999Z</time></trkpt><trkpt lat="42.70493582725527" lon="2.5447181008521484"><ele>472.33333333333337</ele><time>2026-04-08T12:33:53.999Z</time></trkpt><trkpt lat="42.70479583559552" lon="2.544856013661047"><ele>471.0</ele><time>2026-04-08T12:33:54.999Z</time></trkpt><trkpt lat="42.70466364457067" lon="2.544983107635709"><ele>471.0</ele><time>2026-04-08T12:33:55.999Z</time></trkpt><trkpt lat="42.70452757695596" lon="2.5450850209074565"><ele>471.0</ele><time>2026-04-08T12:33:56.999Z</time></trkpt><trkpt lat="42.70438922069594" lon="2.5451311153168086"><ele>471.0</ele><time>2026-04-08T12:33:57.999Z</time></trkpt><trkpt lat="42.704267955228474" lon="2.5451923352335135"><ele>471.0</ele><time>2026-04-08T12:33:58.999Z</time></trkpt><trkpt lat="42.704160082486744" lon="2.545221925943676"><ele>468.75</ele><time>2026-04-08T12:33:59.999Z</time></trkpt><trkpt lat="42.70404981439678" lon="2.5453010300773715"><ele>466.5</ele><time>2026-04-08T12:34:00.999Z</time></trkpt><trkpt lat="42.703955809602824" lon="2.5454308740676317"><ele>464.25</ele><time>2026-04-08T12:34:01.999Z</time></trkpt><trkpt lat="42.70386649460741" lon="2.545587004720371"><ele>462.0</ele><time>2026-04-08T12:34:02.999Z</time></trkpt><trkpt lat="42.703788279108586" lon="2.5457631302927965"><ele>462.25</ele><time>2026-04-08T12:34:03.999Z</time></trkpt><trkpt lat="42.70372488547852" lon="2.54594178026665"><ele>462.5</ele><time>2026-04-08T12:34:04.999Z</time></trkpt><trkpt lat="42.70367766539087" lon="2.546122565971293"><ele>462.75</ele><time>2026-04-08T12:34:05.999Z</time></trkpt><trkpt lat="42.70364910578941" lon="2.5463190851644435"><ele>463.0</ele><time>2026-04-08T12:34:06.999Z</time></trkpt><trkpt lat="42.7036290031634" lon="2.546491757862697"><ele>463.0</ele><time>2026-04-08T12:34:07.999Z</time></trkpt><trkpt lat="42.703593261068036" lon="2.546641586753969"><ele>463.0</ele><time>2026-04-08T12:34:08.999Z</time></trkpt><trkpt lat="42.70352979354645" lon="2.546770731007292"><ele>463.0</ele><time>2026-04-08T12:34:09.999Z</time></trkpt><trkpt lat="42.70343449945691" lon="2.546883640500258"><ele>463.0</ele><time>2026-04-08T12:34:10.999Z</time></trkpt><trkpt lat="42.70330759710121" lon="2.5469423913160596"><ele>460.5</ele><time>2026-04-08T12:34:11.999Z</time></trkpt><trkpt lat="42.7032004891841" lon="2.547025021936891"><ele>458.0</ele><time>2026-04-08T12:34:12.999Z</time></trkpt><trkpt lat="42.703086894814895" lon="2.5470733116798514"><ele>455.5</ele><time>2026-04-08T12:34:13.999Z</time></trkpt><trkpt lat="42.70297514381515" lon="2.5471140679357647"><ele>453.0</ele><time>2026-04-08T12:34:14.999Z</time></trkpt><trkpt lat="42.702859827658216" lon="2.5471513184823356"><ele>453.0</ele><time>2026-04-08T12:34:15.999Z</time></trkpt><trkpt lat="42.702752058677966" lon="2.54720321977391"><ele>452.99999999999994</ele><time>2026-04-08T12:34:16.999Z</time></trkpt><trkpt lat="42.702651692293124" lon="2.5472704577710883"><ele>452.99999999999994</ele><time>2026-04-08T12:34:17.999Z</time></trkpt><trkpt lat="42.70255507124733" lon="2.5473523129316678"><ele>453.0</ele><time>2026-04-08T12:34:18.999Z</time></trkpt><trkpt lat="42.70247258323354" lon="2.5474329043477426"><ele>453.0</ele><time>2026-04-08T12:34:19.999Z</time></trkpt><trkpt lat="42.702419453066604" lon="2.547497835450201"><ele>452.8333333333333</ele><time>2026-04-08T12:34:20.999Z</time></trkpt><trkpt lat="42.70235974607749" lon="2.5475431739580765"><ele>452.66666666666663</ele><time>2026-04-08T12:34:21.999Z</time></trkpt><trkpt lat="42.702296398045775" lon="2.5475548115383018"><ele>452.5</ele><time>2026-04-08T12:34:22.999Z</time></trkpt><trkpt lat="42.70222498418071" lon="2.547529313211326"><ele>452.3333333333333</ele><time>2026-04-08T12:34:23.999Z</time></trkpt><trkpt lat="42.702171120265376" lon="2.5474245854222155"><ele>452.16666666666663</ele><time>2026-04-08T12:34:24.999Z</time></trkpt><trkpt lat="42.70209626810268" lon="2.5473785997972307"><ele>452.0</ele><time>2026-04-08T12:34:25.999Z</time></trkpt><trkpt lat="42.702009421782066" lon="2.547364218842825"><ele>452.0</ele><time>2026-04-08T12:34:26.999Z</time></trkpt><trkpt lat="42.7019163245912" lon="2.5474194971766746"><ele>452.00000000000006</ele><time>2026-04-08T12:34:27.999Z</time></trkpt><trkpt lat="42.70183125267455" lon="2.5474883001609334"><ele>452.00000000000006</ele><time>2026-04-08T12:34:28.999Z</time></trkpt><trkpt lat="42.70174817620994" lon="2.5475898285054757"><ele>452.0</ele><time>2026-04-08T12:34:29.998Z</time></trkpt><trkpt lat="42.70166086764844" lon="2.547711355099247"><ele>452.0</ele><time>2026-04-08T12:34:30.998Z</time></trkpt><trkpt lat="42.701567759097955" lon="2.547835405448513"><ele>451.25</ele><time>2026-04-08T12:34:31.998Z</time></trkpt><trkpt lat="42.70146808577891" lon="2.547963635804429"><ele>450.5</ele><time>2026-04-08T12:34:32.998Z</time></trkpt><trkpt lat="42.7013717000285" lon="2.548096118154812"><ele>449.75</ele><time>2026-04-08T12:34:33.998Z</time></trkpt><trkpt lat="42.701278096447794" lon="2.5482315216211844"><ele>449.0</ele><time>2026-04-08T12:34:34.998Z</time></trkpt><trkpt lat="42.701186866067985" lon="2.5483681662161493"><ele>449.0</ele><time>2026-04-08T12:34:35.998Z</time></trkpt><trkpt lat="42.701096049417856" lon="2.5484924560680766"><ele>449.0</ele><time>2026-04-08T12:34:36.998Z</time></trkpt><trkpt lat="42.70103545118787" lon="2.5486258038152285"><ele>449.0</ele><time>2026-04-08T12:34:37.998Z</time></trkpt><trkpt lat="42.701000497928014" lon="2.548771224818607"><ele>449.0</ele><time>2026-04-08T12:34:39Z</time></trkpt><trkpt lat="42.70099457878281" lon="2.548939967580672"><ele>451.75</ele><time>2026-04-08T12:34:40Z</time></trkpt><trkpt lat="42.70101327447996" lon="2.54911823587736"><ele>454.5</ele><time>2026-04-08T12:34:41Z</time></trkpt><trkpt lat="42.70102574645785" lon="2.54929525693019"><ele>457.25</ele><time>2026-04-08T12:34:42Z</time></trkpt><trkpt lat="42.70101447817251" lon="2.5494741684936217"><ele>460.0</ele><time>2026-04-08T12:34:43Z</time></trkpt><trkpt lat="42.700976762713054" lon="2.549650843326895"><ele>460.5</ele><time>2026-04-08T12:34:44Z</time></trkpt><trkpt lat="42.700927162437" lon="2.5498262668492786"><ele>461.0</ele><time>2026-04-08T12:34:45Z</time></trkpt><trkpt lat="42.70087015075163" lon="2.550009401069046"><ele>461.5</ele><time>2026-04-08T12:34:46Z</time></trkpt><trkpt lat="42.70081124694813" lon="2.550203649270431"><ele>462.0</ele><time>2026-04-08T12:34:47Z</time></trkpt><trkpt lat="42.70074978374427" lon="2.550410397040494"><ele>463.0</ele><time>2026-04-08T12:34:48Z</time></trkpt><trkpt lat="42.70068881800728" lon="2.5506167459515887"><ele>464.0</ele><time>2026-04-08T12:34:49Z</time></trkpt><trkpt lat="42.70062930331291" lon="2.5508242802622787"><ele>465.0</ele><time>2026-04-08T12:34:50Z</time></trkpt><trkpt lat="42.70057428515869" lon="2.5510372488366517"><ele>466.66666666666663</ele><time>2026-04-08T12:34:51Z</time></trkpt><trkpt lat="42.70052984198367" lon="2.551254715146318"><ele>468.3333333333333</ele><time>2026-04-08T12:34:52Z</time></trkpt><trkpt lat="42.70048862880346" lon="2.5514803130015693"><ele>470.0</ele><time>2026-04-08T12:34:53Z</time></trkpt><trkpt lat="42.70044800484722" lon="2.551706551960198"><ele>470.0</ele><time>2026-04-08T12:34:54Z</time></trkpt><trkpt lat="42.700409402289345" lon="2.551929458568936"><ele>470.0</ele><time>2026-04-08T12:34:55Z</time></trkpt><trkpt lat="42.70037196126127" lon="2.5521472799973313"><ele>470.0</ele><time>2026-04-08T12:34:56Z</time></trkpt><trkpt lat="42.70033553036544" lon="2.5523603308184755"><ele>470.66666666666663</ele><time>2026-04-08T12:34:57Z</time></trkpt><trkpt lat="42.700292509596196" lon="2.55256296619642"><ele>471.33333333333337</ele><time>2026-04-08T12:34:58Z</time></trkpt><trkpt lat="42.70023874146402" lon="2.5527642913228052"><ele>472.0</ele><time>2026-04-08T12:34:59Z</time></trkpt><trkpt lat="42.70017540375811" lon="2.5529742594506906"><ele>470.0</ele><time>2026-04-08T12:35:00Z</time></trkpt><trkpt lat="42.70009427825086" lon="2.5531859603386398"><ele>468.0</ele><time>2026-04-08T12:35:01Z</time></trkpt><trkpt lat="42.700001343881226" lon="2.5534112151132384"><ele>466.0</ele><time>2026-04-08T12:35:02Z</time></trkpt><trkpt lat="42.69990777709098" lon="2.553641128221262"><ele>464.33333333333337</ele><time>2026-04-08T12:35:03Z</time></trkpt><trkpt lat="42.69981250392354" lon="2.553885221813595"><ele>462.66666666666663</ele><time>2026-04-08T12:35:04Z</time></trkpt><trkpt lat="42.699711050790114" lon="2.5541391161350515"><ele>461.0</ele><time>2026-04-08T12:35:05Z</time></trkpt><trkpt lat="42.69960477379584" lon="2.55439382931323"><ele>461.0</ele><time>2026-04-08T12:35:06Z</time></trkpt><trkpt lat="42.69951362461812" lon="2.554623326296905"><ele>461.0</ele><time>2026-04-08T12:35:07Z</time></trkpt><trkpt lat="42.69943070287762" lon="2.5548399244061577"><ele>461.0</ele><time>2026-04-08T12:35:08Z</time></trkpt><trkpt lat="42.69934534425183" lon="2.5550546730775863"><ele>461.0</ele><time>2026-04-08T12:35:09Z</time></trkpt><trkpt lat="42.699257466642045" lon="2.5552683437287533"><ele>461.0</ele><time>2026-04-08T12:35:10Z</time></trkpt><trkpt lat="42.6991733599985" lon="2.5554836062712964"><ele>461.0</ele><time>2026-04-08T12:35:11Z</time></trkpt><trkpt lat="42.699090393559096" lon="2.5556960694078503"><ele>459.66666666666663</ele><time>2026-04-08T12:35:12Z</time></trkpt><trkpt lat="42.699007692581716" lon="2.5559111189294654"><ele>458.33333333333337</ele><time>2026-04-08T12:35:13Z</time></trkpt><trkpt lat="42.69892122317177" lon="2.5561254295822446"><ele>457.0</ele><time>2026-04-08T12:35:14Z</time></trkpt><trkpt lat="42.69883364935441" lon="2.5563387145707934"><ele>457.33333333333337</ele><time>2026-04-08T12:35:15Z</time></trkpt><trkpt lat="42.69874835330725" lon="2.556552106594386"><ele>457.66666666666663</ele><time>2026-04-08T12:35:16Z</time></trkpt><trkpt lat="42.69866513445588" lon="2.5567647668052427"><ele>458.0</ele><time>2026-04-08T12:35:17Z</time></trkpt><trkpt lat="42.69858200928962" lon="2.5569773658756336"><ele>456.66666666666663</ele><time>2026-04-08T12:35:18Z</time></trkpt><trkpt lat="42.698501586076176" lon="2.557176520348967"><ele>455.33333333333337</ele><time>2026-04-08T12:35:19Z</time></trkpt><trkpt lat="42.698424513750595" lon="2.557361945292991"><ele>454.0</ele><time>2026-04-08T12:35:20Z</time></trkpt><trkpt lat="42.698352075789934" lon="2.557541079655359"><ele>454.0</ele><time>2026-04-08T12:35:21Z</time></trkpt><trkpt lat="42.69828536545825" lon="2.557721144645409"><ele>454.0</ele><time>2026-04-08T12:35:22Z</time></trkpt><trkpt lat="42.69823250566157" lon="2.5579027730110475"><ele>454.0</ele><time>2026-04-08T12:35:23Z</time></trkpt><trkpt lat="42.69819141935798" lon="2.5580801518431957"><ele>454.0</ele><time>2026-04-08T12:35:24Z</time></trkpt><trkpt lat="42.69814541420621" lon="2.558252627248536"><ele>453.5</ele><time>2026-04-08T12:35:25Z</time></trkpt><trkpt lat="42.6980849337667" lon="2.558415931386495"><ele>453.0</ele><time>2026-04-08T12:35:26Z</time></trkpt><trkpt lat="42.69801177069282" lon="2.558567967338096"><ele>452.5</ele><time>2026-04-08T12:35:26.999Z</time></trkpt><trkpt lat="42.69793261491589" lon="2.558709413258968"><ele>452.0</ele><time>2026-04-08T12:35:27.999Z</time></trkpt><trkpt lat="42.69783473434799" lon="2.5588333762932676"><ele>453.0</ele><time>2026-04-08T12:35:28.999Z</time></trkpt><trkpt lat="42.697749668328846" lon="2.558930168394115"><ele>454.00000000000006</ele><time>2026-04-08T12:35:29.999Z</time></trkpt><trkpt lat="42.69767695021647" lon="2.5590310260169153"><ele>455.00000000000006</ele><time>2026-04-08T12:35:30.999Z</time></trkpt><trkpt lat="42.69760743914273" lon="2.5591106368045606"><ele>456.0</ele><time>2026-04-08T12:35:31.999Z</time></trkpt><trkpt lat="42.69754487196708" lon="2.559187049493563"><ele>457.0</ele><time>2026-04-08T12:35:32.999Z</time></trkpt><trkpt lat="42.69748912202917" lon="2.5592559194599147"><ele>457.00000000000006</ele><time>2026-04-08T12:35:33.999Z</time></trkpt><trkpt lat="42.69743233449823" lon="2.559325259608761"><ele>457.0</ele><time>2026-04-08T12:35:34.999Z</time></trkpt><trkpt lat="42.69737973880427" lon="2.5593926378372522"><ele>457.0</ele><time>2026-04-08T12:35:35.999Z</time></trkpt><trkpt lat="42.69732447284971" lon="2.559444996690773"><ele>457.0</ele><time>2026-04-08T12:35:36.999Z</time></trkpt><trkpt lat="42.69724801598155" lon="2.559532267837564"><ele>457.00000000000006</ele><time>2026-04-08T12:35:38.999Z</time></trkpt><trkpt lat="42.69717086118703" lon="2.5596208352687646"><ele>457.0</ele><time>2026-04-08T12:35:40.999Z</time></trkpt><trkpt lat="42.69707548047703" lon="2.559736268962702"><ele>456.20000000000005</ele><time>2026-04-08T12:35:42.999Z</time></trkpt><trkpt lat="42.69698752071964" lon="2.5598396460878585"><ele>455.40000000000003</ele><time>2026-04-08T12:35:44.999Z</time></trkpt><trkpt lat="42.69693163198676" lon="2.5599069284209843"><ele>454.59999999999997</ele><time>2026-04-08T12:35:46.999Z</time></trkpt><trkpt lat="42.69697404372704" lon="2.560023851904042"><ele>453.79999999999995</ele><time>2026-04-08T12:35:49.999Z</time></trkpt><trkpt lat="42.69710424915567" lon="2.560063070588486"><ele>453.0</ele><time>2026-04-08T12:35:51.999Z</time></trkpt><trkpt lat="42.69718342298402" lon="2.560072836787162"><ele>453.0</ele><time>2026-04-08T12:35:52.999Z</time></trkpt><trkpt lat="42.69727232784155" lon="2.5600910484610573"><ele>452.99999999999994</ele><time>2026-04-08T12:35:53.999Z</time></trkpt><trkpt lat="42.69736447955796" lon="2.5601152128521414"><ele>452.99999999999994</ele><time>2026-04-08T12:35:54.999Z</time></trkpt><trkpt lat="42.69746419928611" lon="2.5601459241010294"><ele>453.0</ele><time>2026-04-08T12:35:55.999Z</time></trkpt><trkpt lat="42.697564423198564" lon="2.5601758812163395"><ele>453.0</ele><time>2026-04-08T12:35:56.999Z</time></trkpt><trkpt lat="42.69766055059468" lon="2.560201893840484"><ele>452.2</ele><time>2026-04-08T12:35:57.999Z</time></trkpt><trkpt lat="42.697753444673594" lon="2.560228047897231"><ele>451.4</ele><time>2026-04-08T12:35:58.999Z</time></trkpt><trkpt lat="42.69785071404254" lon="2.560257646518735"><ele>450.59999999999997</ele><time>2026-04-08T12:35:59.999Z</time></trkpt><trkpt lat="42.69794743696569" lon="2.560285734371321"><ele>449.79999999999995</ele><time>2026-04-08T12:36:00.999Z</time></trkpt><trkpt lat="42.698039983930656" lon="2.560309435773306"><ele>449.0</ele><time>2026-04-08T12:36:01.999Z</time></trkpt><trkpt lat="42.69813203697986" lon="2.560333673791886"><ele>449.0</ele><time>2026-04-08T12:36:02.999Z</time></trkpt><trkpt lat="42.69822373062053" lon="2.5603646849606383"><ele>449.0</ele><time>2026-04-08T12:36:03.999Z</time></trkpt><trkpt lat="42.69831835569962" lon="2.5603905305441206"><ele>449.0</ele><time>2026-04-08T12:36:04.999Z</time></trkpt><trkpt lat="42.6984158230292" lon="2.5604073361518016"><ele>449.0</ele><time>2026-04-08T12:36:05.999Z</time></trkpt><trkpt lat="42.69851848432888" lon="2.5604248313092275"><ele>449.0</ele><time>2026-04-08T12:36:06.999Z</time></trkpt><trkpt lat="42.69861847676484" lon="2.5603847779883577"><ele>448.3333333333333</ele><time>2026-04-08T12:36:07.999Z</time></trkpt><trkpt lat="42.698714067553524" lon="2.5603518670862515"><ele>447.66666666666663</ele><time>2026-04-08T12:36:08.999Z</time></trkpt><trkpt lat="42.69880629736035" lon="2.5603188985834504"><ele>447.0</ele><time>2026-04-08T12:36:09.999Z</time></trkpt><trkpt lat="42.6988872896747" lon="2.5602976589791315"><ele>446.33333333333337</ele><time>2026-04-08T12:36:10.999Z</time></trkpt><trkpt lat="42.69896545641459" lon="2.5602736373627755"><ele>445.6666666666667</ele><time>2026-04-08T12:36:11.999Z</time></trkpt><trkpt lat="42.699040708992044" lon="2.560265535566988"><ele>445.0</ele><time>2026-04-08T12:36:12.999Z</time></trkpt><trkpt lat="42.6991114544694" lon="2.560283009953831"><ele>445.0</ele><time>2026-04-08T12:36:13.999Z</time></trkpt><trkpt lat="42.699192223272135" lon="2.5603155800228015"><ele>445.0</ele><time>2026-04-08T12:36:14.999Z</time></trkpt><trkpt lat="42.69928838135104" lon="2.5603196785956372"><ele>445.0</ele><time>2026-04-08T12:36:15.999Z</time></trkpt><trkpt lat="42.69939487608195" lon="2.5603655983102214"><ele>445.0</ele><time>2026-04-08T12:36:16.999Z</time></trkpt><trkpt lat="42.699491722505286" lon="2.5605048871951515"><ele>445.0</ele><time>2026-04-08T12:36:17.999Z</time></trkpt><trkpt lat="42.699577235438" lon="2.5605519743513425"><ele>444.6666666666667</ele><time>2026-04-08T12:36:18.999Z</time></trkpt><trkpt lat="42.699665918034306" lon="2.560593303791131"><ele>444.33333333333337</ele><time>2026-04-08T12:36:19.999Z</time></trkpt><trkpt lat="42.69975000016915" lon="2.5606398133563464"><ele>444.0</ele><time>2026-04-08T12:36:20.999Z</time></trkpt><trkpt lat="42.69983015896294" lon="2.5606922177522318"><ele>443.66666666666663</ele><time>2026-04-08T12:36:21.999Z</time></trkpt><trkpt lat="42.69990276218168" lon="2.5607556175606474"><ele>443.3333333333333</ele><time>2026-04-08T12:36:22.999Z</time></trkpt><trkpt lat="42.69994348042884" lon="2.560852272886008"><ele>443.0</ele><time>2026-04-08T12:36:23.998Z</time></trkpt><trkpt lat="42.699998237604404" lon="2.5609337668246916"><ele>442.99999999999994</ele><time>2026-04-08T12:36:24.998Z</time></trkpt><trkpt lat="42.70003210354464" lon="2.5610300632722933"><ele>443.0</ele><time>2026-04-08T12:36:25.998Z</time></trkpt><trkpt lat="42.70006883410695" lon="2.561115804594372"><ele>443.0</ele><time>2026-04-08T12:36:26.998Z</time></trkpt><trkpt lat="42.70011048280222" lon="2.5611954773487975"><ele>443.0</ele><time>2026-04-08T12:36:27.998Z</time></trkpt><trkpt lat="42.70015536051861" lon="2.561264362236111"><ele>442.99999999999994</ele><time>2026-04-08T12:36:28.998Z</time></trkpt><trkpt lat="42.700242928645075" lon="2.561337131334331"><ele>443.0</ele><time>2026-04-08T12:36:30.998Z</time></trkpt><trkpt lat="42.7003781257994" lon="2.5613173248282113"><ele>442.3333333333333</ele><time>2026-04-08T12:36:32.998Z</time></trkpt><trkpt lat="42.70046135752277" lon="2.561288462103109"><ele>441.66666666666663</ele><time>2026-04-08T12:36:33.998Z</time></trkpt><trkpt lat="42.70053587488409" lon="2.5612583471325863"><ele>441.0</ele><time>2026-04-08T12:36:34.998Z</time></trkpt><trkpt lat="42.70060455578907" lon="2.5612366403951277"><ele>440.33333333333337</ele><time>2026-04-08T12:36:35.998Z</time></trkpt><trkpt lat="42.7006787898265" lon="2.561214250657091"><ele>439.6666666666667</ele><time>2026-04-08T12:36:36.998Z</time></trkpt><trkpt lat="42.70075606033784" lon="2.561193780860847"><ele>439.0</ele><time>2026-04-08T12:36:37.998Z</time></trkpt><trkpt lat="42.70082460063385" lon="2.561185030716696"><ele>439.0</ele><time>2026-04-08T12:36:38.998Z</time></trkpt><trkpt lat="42.70089132556884" lon="2.5611759954135356"><ele>439.0</ele><time>2026-04-08T12:36:40.998Z</time></trkpt><trkpt lat="42.70084500432678" lon="2.561067976507268"><ele>439.0</ele><time>2026-04-08T12:37:03Z</time></trkpt><trkpt lat="42.70070331661744" lon="2.5612040811358723"><ele>439.0</ele><time>2026-04-08T12:37:04Z</time></trkpt><trkpt lat="42.70063064362235" lon="2.5612192630600523"><ele>439.0</ele><time>2026-04-08T12:37:05Z</time></trkpt><trkpt lat="42.70056276459654" lon="2.5612346616515564"><ele>438.50000000000006</ele><time>2026-04-08T12:37:06Z</time></trkpt><trkpt lat="42.70049469099632" lon="2.5612553687082973"><ele>438.0</ele><time>2026-04-08T12:37:07Z</time></trkpt><trkpt lat="42.700428917829996" lon="2.5612722435782014"><ele>437.5</ele><time>2026-04-08T12:37:08Z</time></trkpt><trkpt lat="42.7003171399742" lon="2.561301920880728"><ele>437.0</ele><time>2026-04-08T12:37:10Z</time></trkpt><trkpt lat="42.700223195007176" lon="2.5612932263180395"><ele>436.50000000000006</ele><time>2026-04-08T12:37:12Z</time></trkpt><trkpt lat="42.70015731098573" lon="2.5612440298531856"><ele>436.0</ele><time>2026-04-08T12:37:14Z</time></trkpt><trkpt lat="42.70009533966068" lon="2.561192787202365"><ele>437.1666666666667</ele><time>2026-04-08T12:37:18Z</time></trkpt><trkpt lat="42.70005905417866" lon="2.5610737366788072"><ele>438.33333333333337</ele><time>2026-04-08T12:37:30.999Z</time></trkpt><trkpt lat="42.70004057435447" lon="2.560969642618902"><ele>439.5</ele><time>2026-04-08T12:37:31.999Z</time></trkpt><trkpt lat="42.699998900518594" lon="2.560883938985849"><ele>440.66666666666663</ele><time>2026-04-08T12:37:32.999Z</time></trkpt><trkpt lat="42.699955012826365" lon="2.5607984924574416"><ele>441.8333333333333</ele><time>2026-04-08T12:37:33.999Z</time></trkpt><trkpt lat="42.69990123476136" lon="2.560714321964747"><ele>443.0</ele><time>2026-04-08T12:37:34.999Z</time></trkpt><trkpt lat="42.69980874636884" lon="2.5606341907759864"><ele>443.0</ele><time>2026-04-08T12:37:35.999Z</time></trkpt><trkpt lat="42.699703157502064" lon="2.560576992802059"><ele>442.99999999999994</ele><time>2026-04-08T12:37:36.999Z</time></trkpt><trkpt lat="42.69958780248978" lon="2.5605135621785835"><ele>442.99999999999994</ele><time>2026-04-08T12:37:37.999Z</time></trkpt><trkpt lat="42.69948146491282" lon="2.560455721091792"><ele>443.0</ele><time>2026-04-08T12:37:38.999Z</time></trkpt><trkpt lat="42.69939741527054" lon="2.560410419835897"><ele>443.0</ele><time>2026-04-08T12:37:39.999Z</time></trkpt><trkpt lat="42.699328898264426" lon="2.5603734906729128"><ele>443.3333333333333</ele><time>2026-04-08T12:37:40.999Z</time></trkpt><trkpt lat="42.69926633797056" lon="2.5603385632263533"><ele>443.66666666666663</ele><time>2026-04-08T12:37:41.999Z</time></trkpt><trkpt lat="42.69915928968693" lon="2.560293138888965"><ele>444.0</ele><time>2026-04-08T12:37:43.999Z</time></trkpt><trkpt lat="42.69908290975936" lon="2.560234830984205"><ele>444.33333333333337</ele><time>2026-04-08T12:37:45.999Z</time></trkpt><trkpt lat="42.69897687495344" lon="2.5602329770368035"><ele>444.6666666666667</ele><time>2026-04-08T12:37:47.999Z</time></trkpt><trkpt lat="42.69890321115539" lon="2.560248372422683"><ele>445.0</ele><time>2026-04-08T12:37:48.999Z</time></trkpt><trkpt lat="42.69881993145817" lon="2.5602728778100903"><ele>445.00000000000006</ele><time>2026-04-08T12:37:49.999Z</time></trkpt><trkpt lat="42.698732035154556" lon="2.560301175726225"><ele>445.0</ele><time>2026-04-08T12:37:50.999Z</time></trkpt><trkpt lat="42.698648993352734" lon="2.560328449178532"><ele>445.0</ele><time>2026-04-08T12:37:51.999Z</time></trkpt><trkpt lat="42.6985715001296" lon="2.560354029586082"><ele>445.0</ele><time>2026-04-08T12:37:52.999Z</time></trkpt><trkpt lat="42.69848753634331" lon="2.5603732129068995"><ele>445.00000000000006</ele><time>2026-04-08T12:37:53.999Z</time></trkpt><trkpt lat="42.69838603945343" lon="2.5603792384681205"><ele>445.0</ele><time>2026-04-08T12:37:54.999Z</time></trkpt><trkpt lat="42.69828138477348" lon="2.5603303792278784"><ele>446.0</ele><time>2026-04-08T12:37:55.999Z</time></trkpt><trkpt lat="42.69816062233238" lon="2.5602963602282465"><ele>447.0</ele><time>2026-04-08T12:37:56.999Z</time></trkpt><trkpt lat="42.69803350512478" lon="2.5602605511237537"><ele>448.0</ele><time>2026-04-08T12:37:57.999Z</time></trkpt><trkpt lat="42.69790880190639" lon="2.5602254220205425"><ele>449.0</ele><time>2026-04-08T12:37:58.999Z</time></trkpt><trkpt lat="42.697792984921996" lon="2.5601927961510267"><ele>449.79999999999995</ele><time>2026-04-08T12:37:59.999Z</time></trkpt><trkpt lat="42.69768287918565" lon="2.560161779162184"><ele>450.59999999999997</ele><time>2026-04-08T12:38:00.999Z</time></trkpt><trkpt lat="42.69758028596411" lon="2.5601327433685546"><ele>451.4</ele><time>2026-04-08T12:38:01.999Z</time></trkpt><trkpt lat="42.69747167369394" lon="2.5601015412780805"><ele>452.2</ele><time>2026-04-08T12:38:02.999Z</time></trkpt><trkpt lat="42.69737881629158" lon="2.560074496942637"><ele>453.0</ele><time>2026-04-08T12:38:03.999Z</time></trkpt><trkpt lat="42.69727961702068" lon="2.560043710952184"><ele>453.0</ele><time>2026-04-08T12:38:04.999Z</time></trkpt><trkpt lat="42.69718688282352" lon="2.56001493133496"><ele>453.0</ele><time>2026-04-08T12:38:05.999Z</time></trkpt><trkpt lat="42.69711136408253" lon="2.5600155995957943"><ele>453.0</ele><time>2026-04-08T12:38:06.999Z</time></trkpt><trkpt lat="42.697009641744835" lon="2.559986196139647"><ele>453.0</ele><time>2026-04-08T12:38:08.999Z</time></trkpt><trkpt lat="42.69695315338233" lon="2.559943902479735"><ele>453.0</ele><time>2026-04-08T12:38:10.999Z</time></trkpt><trkpt lat="42.69686606216982" lon="2.559952518654691"><ele>453.0</ele><time>2026-04-08T12:38:15.999Z</time></trkpt><trkpt lat="42.69681481360397" lon="2.560006692805482"><ele>453.2857142857142</ele><time>2026-04-08T12:38:16.999Z</time></trkpt><trkpt lat="42.696772044347085" lon="2.560077654648012"><ele>453.57142857142856</ele><time>2026-04-08T12:38:17.999Z</time></trkpt><trkpt lat="42.696725262925106" lon="2.5601585889493608"><ele>453.85714285714283</ele><time>2026-04-08T12:38:18.999Z</time></trkpt><trkpt lat="42.69668545993783" lon="2.56023912068333"><ele>454.1428571428571</ele><time>2026-04-08T12:38:19.999Z</time></trkpt><trkpt lat="42.696648070802276" lon="2.560311357208829"><ele>454.42857142857144</ele><time>2026-04-08T12:38:20.999Z</time></trkpt><trkpt lat="42.69660127923285" lon="2.560383515427247"><ele>454.7142857142857</ele><time>2026-04-08T12:38:21.999Z</time></trkpt><trkpt lat="42.696541615398004" lon="2.5604471479643744"><ele>455.0</ele><time>2026-04-08T12:38:22.999Z</time></trkpt><trkpt lat="42.69647556107502" lon="2.560503311310331"><ele>454.99999999999994</ele><time>2026-04-08T12:38:23.999Z</time></trkpt><trkpt lat="42.69640655264782" lon="2.5605589101760287"><ele>455.0</ele><time>2026-04-08T12:38:24.999Z</time></trkpt><trkpt lat="42.696332441109575" lon="2.5605955564584306"><ele>455.0</ele><time>2026-04-08T12:38:25.999Z</time></trkpt><trkpt lat="42.69625254278125" lon="2.5605943650037064"><ele>455.0</ele><time>2026-04-08T12:38:26.999Z</time></trkpt><trkpt lat="42.69619237859871" lon="2.5606348967107415"><ele>454.99999999999994</ele><time>2026-04-08T12:38:27.999Z</time></trkpt><trkpt lat="42.69610087522953" lon="2.5606701247687274"><ele>455.0</ele><time>2026-04-08T12:38:29.998Z</time></trkpt><trkpt lat="42.696024604206556" lon="2.5607416844256377"><ele>454.99999999999994</ele><time>2026-04-08T12:38:31.998Z</time></trkpt><trkpt lat="42.69594517928912" lon="2.5608264175476783"><ele>455.0</ele><time>2026-04-08T12:38:33.998Z</time></trkpt><trkpt lat="42.69595524998125" lon="2.5609361163524063"><ele>455.0</ele><time>2026-04-08T12:38:34.998Z</time></trkpt><trkpt lat="42.69593785403889" lon="2.5610299313363702"><ele>455.0</ele><time>2026-04-08T12:38:35.998Z</time></trkpt><trkpt lat="42.69590627813823" lon="2.5611105362766287"><ele>454.99999999999994</ele><time>2026-04-08T12:38:36.998Z</time></trkpt><trkpt lat="42.69584746589589" lon="2.561178706716539"><ele>455.0</ele><time>2026-04-08T12:38:37.998Z</time></trkpt><trkpt lat="42.69579786962479" lon="2.5612584771485665"><ele>455.0</ele><time>2026-04-08T12:38:38.998Z</time></trkpt><trkpt lat="42.69574553525444" lon="2.561333515863368"><ele>455.0</ele><time>2026-04-08T12:38:39.998Z</time></trkpt><trkpt lat="42.69569733012809" lon="2.5614210311695493"><ele>455.0</ele><time>2026-04-08T12:38:40.998Z</time></trkpt><trkpt lat="42.69563957009554" lon="2.561484911429785"><ele>455.0</ele><time>2026-04-08T12:38:41.998Z</time></trkpt><trkpt lat="42.69558695568604" lon="2.5615484518057356"><ele>455.0</ele><time>2026-04-08T12:38:42.998Z</time></trkpt><trkpt lat="42.69553923972537" lon="2.5616114070247864"><ele>455.0</ele><time>2026-04-08T12:38:43.998Z</time></trkpt><trkpt lat="42.695496198891156" lon="2.5616755677562653"><ele>455.0</ele><time>2026-04-08T12:38:44.998Z</time></trkpt><trkpt lat="42.69545039419167" lon="2.561758099364218"><ele>455.0</ele><time>2026-04-08T12:38:45.998Z</time></trkpt><trkpt lat="42.69540874741294" lon="2.5618582694333405"><ele>455.0</ele><time>2026-04-08T12:38:46.998Z</time></trkpt><trkpt lat="42.695372660165745" lon="2.5619462551752297"><ele>455.0</ele><time>2026-04-08T12:38:47.998Z</time></trkpt><trkpt lat="42.69528129429331" lon="2.562131103511987"><ele>455.0</ele><time>2026-04-08T12:38:48.998Z</time></trkpt><trkpt lat="42.695212613926884" lon="2.562285577706249"><ele>455.66666666666663</ele><time>2026-04-08T12:38:49.998Z</time></trkpt><trkpt lat="42.69514679805524" lon="2.562464945169799"><ele>456.33333333333337</ele><time>2026-04-08T12:38:51Z</time></trkpt><trkpt lat="42.69507249595459" lon="2.562664107789709"><ele>457.0</ele><time>2026-04-08T12:38:52Z</time></trkpt><trkpt lat="42.69500030512648" lon="2.56288103771589"><ele>455.0</ele><time>2026-04-08T12:38:53Z</time></trkpt><trkpt lat="42.69493264615391" lon="2.563103095509846"><ele>453.0</ele><time>2026-04-08T12:38:54Z</time></trkpt><trkpt lat="42.694862253784336" lon="2.563335397941159"><ele>451.0</ele><time>2026-04-08T12:38:55Z</time></trkpt><trkpt lat="42.69479328399359" lon="2.563571512007166"><ele>449.0</ele><time>2026-04-08T12:38:56Z</time></trkpt><trkpt lat="42.694750881708536" lon="2.563808277247276"><ele>447.0</ele><time>2026-04-08T12:38:57Z</time></trkpt><trkpt lat="42.69470569275088" lon="2.5640365820706816"><ele>445.0</ele><time>2026-04-08T12:38:58Z</time></trkpt><trkpt lat="42.6946564780455" lon="2.564241613735183"><ele>445.0</ele><time>2026-04-08T12:38:59Z</time></trkpt><trkpt lat="42.6946053520942" lon="2.5644466516432485"><ele>445.0</ele><time>2026-04-08T12:39:00Z</time></trkpt><trkpt lat="42.694560826944546" lon="2.564650875218723"><ele>445.0</ele><time>2026-04-08T12:39:01Z</time></trkpt><trkpt lat="42.694517817001696" lon="2.5648542631890625"><ele>444.33333333333337</ele><time>2026-04-08T12:39:02Z</time></trkpt><trkpt lat="42.69447618790952" lon="2.565059529178274"><ele>443.66666666666663</ele><time>2026-04-08T12:39:03Z</time></trkpt><trkpt lat="42.69445202523861" lon="2.5652691431824692"><ele>443.0</ele><time>2026-04-08T12:39:04Z</time></trkpt><trkpt lat="42.694444890462954" lon="2.5654931990305263"><ele>443.0</ele><time>2026-04-08T12:39:05Z</time></trkpt><trkpt lat="42.69445359989111" lon="2.565718776757213"><ele>443.0</ele><time>2026-04-08T12:39:06Z</time></trkpt><trkpt lat="42.69447238258939" lon="2.565935776420734"><ele>443.0</ele><time>2026-04-08T12:39:07Z</time></trkpt><trkpt lat="42.69450037718618" lon="2.566130169243275"><ele>443.25</ele><time>2026-04-08T12:39:08Z</time></trkpt><trkpt lat="42.694520633847056" lon="2.5663027512101384"><ele>443.5</ele><time>2026-04-08T12:39:09Z</time></trkpt><trkpt lat="42.69453184012282" lon="2.5664625568336965"><ele>443.75</ele><time>2026-04-08T12:39:10Z</time></trkpt><trkpt lat="42.69449204177777" lon="2.5666147812034033"><ele>444.0</ele><time>2026-04-08T12:39:11Z</time></trkpt><trkpt lat="42.694441835651155" lon="2.5667788120935606"><ele>443.33333333333337</ele><time>2026-04-08T12:39:12Z</time></trkpt><trkpt lat="42.694359325236974" lon="2.566943676548301"><ele>442.6666666666667</ele><time>2026-04-08T12:39:13Z</time></trkpt><trkpt lat="42.69424554751107" lon="2.5670890087451532"><ele>442.0</ele><time>2026-04-08T12:39:14Z</time></trkpt><trkpt lat="42.69411755773762" lon="2.56721066133403"><ele>442.0</ele><time>2026-04-08T12:39:15Z</time></trkpt><trkpt lat="42.69395896770731" lon="2.5673557457021294"><ele>442.0</ele><time>2026-04-08T12:39:16Z</time></trkpt><trkpt lat="42.69384523813579" lon="2.5675501284963778"><ele>442.0</ele><time>2026-04-08T12:39:17Z</time></trkpt><trkpt lat="42.693805066440405" lon="2.567789333289142"><ele>442.0</ele><time>2026-04-08T12:39:19Z</time></trkpt><trkpt lat="42.69377337731997" lon="2.567992114994068"><ele>442.0</ele><time>2026-04-08T12:39:20Z</time></trkpt><trkpt lat="42.693773136102664" lon="2.56820702280188"><ele>442.0</ele><time>2026-04-08T12:39:21Z</time></trkpt><trkpt lat="42.69378833837796" lon="2.568416093969641"><ele>442.0</ele><time>2026-04-08T12:39:22Z</time></trkpt><trkpt lat="42.69379348987425" lon="2.5686169572427806"><ele>442.0</ele><time>2026-04-08T12:39:23Z</time></trkpt><trkpt lat="42.693761540477375" lon="2.568819319275418"><ele>442.0</ele><time>2026-04-08T12:39:24Z</time></trkpt><trkpt lat="42.69367334286541" lon="2.569002523326492"><ele>440.0</ele><time>2026-04-08T12:39:25Z</time></trkpt><trkpt lat="42.69358037748935" lon="2.569186257717511"><ele>438.0</ele><time>2026-04-08T12:39:26Z</time></trkpt><trkpt lat="42.69350541334152" lon="2.5693821410635733"><ele>436.0</ele><time>2026-04-08T12:39:27Z</time></trkpt><trkpt lat="42.693443997601996" lon="2.5695970981188454"><ele>435.6666666666667</ele><time>2026-04-08T12:39:28Z</time></trkpt><trkpt lat="42.693401332750966" lon="2.5698320224824"><ele>435.33333333333337</ele><time>2026-04-08T12:39:29Z</time></trkpt><trkpt lat="42.69335800175844" lon="2.57006278948482"><ele>435.0</ele><time>2026-04-08T12:39:30Z</time></trkpt><trkpt lat="42.693309048352276" lon="2.570288700941954"><ele>435.0</ele><time>2026-04-08T12:39:31Z</time></trkpt><trkpt lat="42.693251232873415" lon="2.570512893010389"><ele>435.0</ele><time>2026-04-08T12:39:31.999Z</time></trkpt><trkpt lat="42.6931976930137" lon="2.5707419532080875"><ele>435.0</ele><time>2026-04-08T12:39:32.999Z</time></trkpt><trkpt lat="42.69314170225232" lon="2.5709628395452"><ele>435.0</ele><time>2026-04-08T12:39:33.999Z</time></trkpt><trkpt lat="42.69308957806134" lon="2.5711835162746772"><ele>435.0</ele><time>2026-04-08T12:39:34.999Z</time></trkpt><trkpt lat="42.69304485368413" lon="2.571406220268349"><ele>435.0</ele><time>2026-04-08T12:39:35.999Z</time></trkpt><trkpt lat="42.6930065228018" lon="2.571623558436292"><ele>435.0</ele><time>2026-04-08T12:39:36.999Z</time></trkpt><trkpt lat="42.692974890741596" lon="2.5718213624905815"><ele>435.0</ele><time>2026-04-08T12:39:37.999Z</time></trkpt><trkpt lat="42.69294478918774" lon="2.572010614088937"><ele>435.0</ele><time>2026-04-08T12:39:38.999Z</time></trkpt><trkpt lat="42.69291351559853" lon="2.572190734683255"><ele>435.0</ele><time>2026-04-08T12:39:39.999Z</time></trkpt><trkpt lat="42.69287203699737" lon="2.572358699998995"><ele>435.0</ele><time>2026-04-08T12:39:40.999Z</time></trkpt><trkpt lat="42.69281252508639" lon="2.572532268409672"><ele>435.0</ele><time>2026-04-08T12:39:41.999Z</time></trkpt><trkpt lat="42.692743006008456" lon="2.5727252868473673"><ele>435.0</ele><time>2026-04-08T12:39:42.999Z</time></trkpt><trkpt lat="42.692676064452044" lon="2.5729279817726445"><ele>431.66666666666663</ele><time>2026-04-08T12:39:43.999Z</time></trkpt><trkpt lat="42.692613084243256" lon="2.5731302794352096"><ele>428.3333333333333</ele><time>2026-04-08T12:39:44.999Z</time></trkpt><trkpt lat="42.69255362834149" lon="2.573338712124262"><ele>425.0</ele><time>2026-04-08T12:39:45.999Z</time></trkpt><trkpt lat="42.69251082058754" lon="2.5735651132988115"><ele>424.66666666666663</ele><time>2026-04-08T12:39:46.999Z</time></trkpt><trkpt lat="42.69247963992083" lon="2.5737956410110203"><ele>424.33333333333337</ele><time>2026-04-08T12:39:47.999Z</time></trkpt><trkpt lat="42.692432738199784" lon="2.5740293863845065"><ele>424.0</ele><time>2026-04-08T12:39:48.999Z</time></trkpt><trkpt lat="42.692353098905855" lon="2.574257113319332"><ele>424.0</ele><time>2026-04-08T12:39:49.999Z</time></trkpt><trkpt lat="42.692255117496536" lon="2.574465498789961"><ele>424.0</ele><time>2026-04-08T12:39:50.999Z</time></trkpt><trkpt lat="42.69214066769125" lon="2.5746569901231915"><ele>424.0</ele><time>2026-04-08T12:39:51.999Z</time></trkpt><trkpt lat="42.69202758968634" lon="2.5748372174058316"><ele>422.6666666666667</ele><time>2026-04-08T12:39:52.999Z</time></trkpt><trkpt lat="42.691921757440355" lon="2.5750038495952245"><ele>421.33333333333337</ele><time>2026-04-08T12:39:53.999Z</time></trkpt><trkpt lat="42.69182260257917" lon="2.5751746540270024"><ele>420.0</ele><time>2026-04-08T12:39:54.999Z</time></trkpt><trkpt lat="42.691727440375985" lon="2.5753573551040656"><ele>420.0</ele><time>2026-04-08T12:39:55.999Z</time></trkpt><trkpt lat="42.691635348065105" lon="2.575552590125686"><ele>420.0</ele><time>2026-04-08T12:39:56.999Z</time></trkpt><trkpt lat="42.69154627360129" lon="2.575757281879913"><ele>420.0</ele><time>2026-04-08T12:39:57.999Z</time></trkpt><trkpt lat="42.69146024012729" lon="2.575955253195728"><ele>420.0</ele><time>2026-04-08T12:39:58.999Z</time></trkpt><trkpt lat="42.691376847709805" lon="2.5761373303662616"><ele>420.0</ele><time>2026-04-08T12:39:59.999Z</time></trkpt><trkpt lat="42.69129833721272" lon="2.5763116528305834"><ele>420.0</ele><time>2026-04-08T12:40:00.999Z</time></trkpt><trkpt lat="42.69122678387041" lon="2.5764815531336365"><ele>420.0</ele><time>2026-04-08T12:40:01.999Z</time></trkpt><trkpt lat="42.69116149980932" lon="2.57664393145639"><ele>420.0</ele><time>2026-04-08T12:40:02.999Z</time></trkpt><trkpt lat="42.691104259076816" lon="2.5768173953570086"><ele>420.0</ele><time>2026-04-08T12:40:03.999Z</time></trkpt><trkpt lat="42.69105798836869" lon="2.577018713530538"><ele>420.0</ele><time>2026-04-08T12:40:04.999Z</time></trkpt><trkpt lat="42.69103452270186" lon="2.5772530328600682"><ele>417.0</ele><time>2026-04-08T12:40:05.999Z</time></trkpt><trkpt lat="42.691023407706815" lon="2.5774990297078424"><ele>414.0</ele><time>2026-04-08T12:40:06.999Z</time></trkpt><trkpt lat="42.69101496307566" lon="2.5777409104036892"><ele>411.0</ele><time>2026-04-08T12:40:07.999Z</time></trkpt><trkpt lat="42.69100613856683" lon="2.5779788346268435"><ele>410.0</ele><time>2026-04-08T12:40:08.999Z</time></trkpt><trkpt lat="42.691001315803035" lon="2.578219453835232"><ele>409.0</ele><time>2026-04-08T12:40:09.999Z</time></trkpt><trkpt lat="42.69099855072111" lon="2.57846247565832"><ele>408.0</ele><time>2026-04-08T12:40:10.999Z</time></trkpt><trkpt lat="42.69099431382426" lon="2.578705257675073"><ele>407.0</ele><time>2026-04-08T12:40:11.999Z</time></trkpt><trkpt lat="42.6909891779137" lon="2.5789452580012315"><ele>406.0</ele><time>2026-04-08T12:40:12.999Z</time></trkpt><trkpt lat="42.69098641082277" lon="2.5791627238653847"><ele>405.0</ele><time>2026-04-08T12:40:13.999Z</time></trkpt><trkpt lat="42.69098401878672" lon="2.5793776971111946"><ele>403.66666666666663</ele><time>2026-04-08T12:40:14.999Z</time></trkpt><trkpt lat="42.6909794257428" lon="2.579594620916821"><ele>402.3333333333333</ele><time>2026-04-08T12:40:15.999Z</time></trkpt><trkpt lat="42.690964324651176" lon="2.5798190048489285"><ele>401.0</ele><time>2026-04-08T12:40:16.999Z</time></trkpt><trkpt lat="42.69091805963498" lon="2.580038904579854"><ele>401.0</ele><time>2026-04-08T12:40:17.999Z</time></trkpt><trkpt lat="42.69084345442885" lon="2.5802372638545243"><ele>401.0</ele><time>2026-04-08T12:40:18.999Z</time></trkpt><trkpt lat="42.690747661528405" lon="2.5804292783559246"><ele>401.0</ele><time>2026-04-08T12:40:19.999Z</time></trkpt><trkpt lat="42.6906507342663" lon="2.580627636087412"><ele>400.3333333333333</ele><time>2026-04-08T12:40:20.999Z</time></trkpt><trkpt lat="42.69056636341855" lon="2.5808428757604513"><ele>399.66666666666663</ele><time>2026-04-08T12:40:21.999Z</time></trkpt><trkpt lat="42.69050465850484" lon="2.5810756878347587"><ele>399.0</ele><time>2026-04-08T12:40:22.999Z</time></trkpt><trkpt lat="42.690461961910806" lon="2.581317736296427"><ele>398.66666666666663</ele><time>2026-04-08T12:40:23.999Z</time></trkpt><trkpt lat="42.6904229262132" lon="2.5815621993778795"><ele>398.3333333333333</ele><time>2026-04-08T12:40:24.999Z</time></trkpt><trkpt lat="42.69038783896507" lon="2.5818085108452054"><ele>398.0</ele><time>2026-04-08T12:40:25.999Z</time></trkpt><trkpt lat="42.690361277195144" lon="2.582056714064389"><ele>398.0</ele><time>2026-04-08T12:40:26.999Z</time></trkpt><trkpt lat="42.69034409662199" lon="2.582308883642023"><ele>398.0</ele><time>2026-04-08T12:40:27.999Z</time></trkpt><trkpt lat="42.69031832474588" lon="2.5825590265192826"><ele>398.0</ele><time>2026-04-08T12:40:28.999Z</time></trkpt><trkpt lat="42.690280518526826" lon="2.5828051319757312"><ele>397.3333333333333</ele><time>2026-04-08T12:40:29.999Z</time></trkpt><trkpt lat="42.69024012562453" lon="2.5830476469143244"><ele>396.66666666666663</ele><time>2026-04-08T12:40:30.999Z</time></trkpt><trkpt lat="42.69019862027994" lon="2.583289397348199"><ele>396.0</ele><time>2026-04-08T12:40:31.999Z</time></trkpt><trkpt lat="42.69015744444613" lon="2.5835340346006044"><ele>395.66666666666663</ele><time>2026-04-08T12:40:32.999Z</time></trkpt><trkpt lat="42.69011065190238" lon="2.5837742473593437"><ele>395.3333333333333</ele><time>2026-04-08T12:40:33.999Z</time></trkpt><trkpt lat="42.690062238914166" lon="2.5840085013355"><ele>395.0</ele><time>2026-04-08T12:40:34.998Z</time></trkpt><trkpt lat="42.690016794228995" lon="2.5842424535014885"><ele>395.0</ele><time>2026-04-08T12:40:35.998Z</time></trkpt><trkpt lat="42.68997827058631" lon="2.5844786033341047"><ele>395.0</ele><time>2026-04-08T12:40:36.998Z</time></trkpt><trkpt lat="42.68994398766541" lon="2.5847251158791296"><ele>395.0</ele><time>2026-04-08T12:40:37.998Z</time></trkpt><trkpt lat="42.6899081766543" lon="2.5849800425429126"><ele>394.66666666666663</ele><time>2026-04-08T12:40:38.998Z</time></trkpt><trkpt lat="42.68986947352632" lon="2.5852233587851368"><ele>394.33333333333337</ele><time>2026-04-08T12:40:39.998Z</time></trkpt><trkpt lat="42.68983780615935" lon="2.585445901118607"><ele>394.0</ele><time>2026-04-08T12:40:40.998Z</time></trkpt><trkpt lat="42.68981042944436" lon="2.585654501425627"><ele>393.5</ele><time>2026-04-08T12:40:41.998Z</time></trkpt><trkpt lat="42.6897835011003" lon="2.5858501505281657"><ele>393.0</ele><time>2026-04-08T12:40:42.998Z</time></trkpt><trkpt lat="42.68976087224889" lon="2.58602768564737"><ele>392.5</ele><time>2026-04-08T12:40:43.998Z</time></trkpt><trkpt lat="42.68974747677023" lon="2.5862063156162742"><ele>392.0</ele><time>2026-04-08T12:40:44.998Z</time></trkpt><trkpt lat="42.6897538174225" lon="2.586396304801437"><ele>391.0</ele><time>2026-04-08T12:40:45.998Z</time></trkpt><trkpt lat="42.68978463361691" lon="2.5866026633901287"><ele>390.0</ele><time>2026-04-08T12:40:46.998Z</time></trkpt><trkpt lat="42.68983353777766" lon="2.586817338306963"><ele>389.0</ele><time>2026-04-08T12:40:47.998Z</time></trkpt><trkpt lat="42.689892848497884" lon="2.587033993014343"><ele>388.3333333333333</ele><time>2026-04-08T12:40:48.998Z</time></trkpt><trkpt lat="42.689946180740684" lon="2.5872565663163987"><ele>387.66666666666663</ele><time>2026-04-08T12:40:49.998Z</time></trkpt><trkpt lat="42.68999412469222" lon="2.5874843861784895"><ele>387.0</ele><time>2026-04-08T12:40:50.998Z</time></trkpt><trkpt lat="42.69003029302591" lon="2.587716052465794"><ele>385.3333333333333</ele><time>2026-04-08T12:40:51.998Z</time></trkpt><trkpt lat="42.690049479307305" lon="2.5879484746250334"><ele>383.66666666666663</ele><time>2026-04-08T12:40:52.998Z</time></trkpt><trkpt lat="42.69005367249213" lon="2.5881671495010203"><ele>382.0</ele><time>2026-04-08T12:40:53.998Z</time></trkpt><trkpt lat="42.69005620337842" lon="2.5883728219217024"><ele>382.0</ele><time>2026-04-08T12:40:54.998Z</time></trkpt><trkpt lat="42.69005907746081" lon="2.5885685918927592"><ele>382.0</ele><time>2026-04-08T12:40:55.998Z</time></trkpt><trkpt lat="42.69007791521846" lon="2.5887683272618736"><ele>382.0</ele><time>2026-04-08T12:40:57Z</time></trkpt><trkpt lat="42.69012228655402" lon="2.5889689236992695"><ele>382.0</ele><time>2026-04-08T12:40:58Z</time></trkpt><trkpt lat="42.69018375497425" lon="2.5891511953701665"><ele>383.0</ele><time>2026-04-08T12:40:59Z</time></trkpt><trkpt lat="42.690248557773515" lon="2.589313687973097"><ele>384.0</ele><time>2026-04-08T12:41:00Z</time></trkpt><trkpt lat="42.69029531796917" lon="2.589487233502711"><ele>385.0</ele><time>2026-04-08T12:41:01Z</time></trkpt><trkpt lat="42.69029717157517" lon="2.5896679625669594"><ele>386.0</ele><time>2026-04-08T12:41:02Z</time></trkpt><trkpt lat="42.69024643511871" lon="2.5898565455671485"><ele>382.5</ele><time>2026-04-08T12:41:03Z</time></trkpt><trkpt lat="42.69020093318818" lon="2.5900489341826316"><ele>379.0</ele><time>2026-04-08T12:41:04Z</time></trkpt><trkpt lat="42.69012591652584" lon="2.590222583485905"><ele>375.5</ele><time>2026-04-08T12:41:05Z</time></trkpt><trkpt lat="42.690063301843445" lon="2.5903857165154704"><ele>372.0</ele><time>2026-04-08T12:41:06Z</time></trkpt><trkpt lat="42.69000568597898" lon="2.590555983961624"><ele>370.75</ele><time>2026-04-08T12:41:07Z</time></trkpt><trkpt lat="42.68994952152294" lon="2.590730419067128"><ele>369.5</ele><time>2026-04-08T12:41:08Z</time></trkpt><trkpt lat="42.689905891355025" lon="2.5909138667810363"><ele>368.25</ele><time>2026-04-08T12:41:09Z</time></trkpt><trkpt lat="42.68987822528493" lon="2.591123396670957"><ele>367.0</ele><time>2026-04-08T12:41:10Z</time></trkpt><trkpt lat="42.68988135370324" lon="2.591347564163729"><ele>365.0</ele><time>2026-04-08T12:41:11Z</time></trkpt><trkpt lat="42.689905751738436" lon="2.5915736708630375"><ele>363.0</ele><time>2026-04-08T12:41:12Z</time></trkpt><trkpt lat="42.68992819989423" lon="2.5917869936120748"><ele>361.0</ele><time>2026-04-08T12:41:13Z</time></trkpt><trkpt lat="42.68993574655142" lon="2.592003412971952"><ele>360.66666666666663</ele><time>2026-04-08T12:41:14Z</time></trkpt><trkpt lat="42.68992032973815" lon="2.5922242489300196"><ele>360.3333333333333</ele><time>2026-04-08T12:41:15Z</time></trkpt><trkpt lat="42.68988566899279" lon="2.592441449211294"><ele>360.0</ele><time>2026-04-08T12:41:16Z</time></trkpt><trkpt lat="42.68983792235314" lon="2.5926490972668423"><ele>360.0</ele><time>2026-04-08T12:41:17Z</time></trkpt><trkpt lat="42.68977934030804" lon="2.592844695178073"><ele>360.0</ele><time>2026-04-08T12:41:18Z</time></trkpt><trkpt lat="42.68971682247161" lon="2.5930380209638475"><ele>360.0</ele><time>2026-04-08T12:41:19Z</time></trkpt><trkpt lat="42.68965780977719" lon="2.593221289779351"><ele>360.0</ele><time>2026-04-08T12:41:20Z</time></trkpt><trkpt lat="42.68960697722022" lon="2.5934046027366415"><ele>360.0</ele><time>2026-04-08T12:41:21Z</time></trkpt><trkpt lat="42.689542107466806" lon="2.593579139521977"><ele>360.0</ele><time>2026-04-08T12:41:22Z</time></trkpt><trkpt lat="42.68946017526444" lon="2.5937174016752147"><ele>360.0</ele><time>2026-04-08T12:41:23Z</time></trkpt><trkpt lat="42.689354695971005" lon="2.5938329113396748"><ele>357.5</ele><time>2026-04-08T12:41:24Z</time></trkpt><trkpt lat="42.68923393200618" lon="2.5939213744636898"><ele>355.0</ele><time>2026-04-08T12:41:25Z</time></trkpt><trkpt lat="42.68910472735028" lon="2.593984695204944"><ele>352.5</ele><time>2026-04-08T12:41:26Z</time></trkpt><trkpt lat="42.68896730061998" lon="2.594031724144742"><ele>350.0</ele><time>2026-04-08T12:41:27Z</time></trkpt><trkpt lat="42.68882765088073" lon="2.5940914828806982"><ele>350.0</ele><time>2026-04-08T12:41:28Z</time></trkpt><trkpt lat="42.68870839898906" lon="2.5941847950586077"><ele>350.0</ele><time>2026-04-08T12:41:29Z</time></trkpt><trkpt lat="42.6886069923536" lon="2.5943189735894583"><ele>350.0</ele><time>2026-04-08T12:41:30Z</time></trkpt><trkpt lat="42.68851724879503" lon="2.5944901345603886"><ele>350.0</ele><time>2026-04-08T12:41:31Z</time></trkpt><trkpt lat="42.688438938025875" lon="2.5946820540362148"><ele>346.6666666666667</ele><time>2026-04-08T12:41:32Z</time></trkpt><trkpt lat="42.68836157592511" lon="2.5948745277007172"><ele>343.3333333333333</ele><time>2026-04-08T12:41:33Z</time></trkpt><trkpt lat="42.688270140249415" lon="2.595056751488998"><ele>340.0</ele><time>2026-04-08T12:41:34Z</time></trkpt><trkpt lat="42.688181850914575" lon="2.5952308142063942"><ele>340.3333333333333</ele><time>2026-04-08T12:41:35Z</time></trkpt><trkpt lat="42.68809294532001" lon="2.5954092995633626"><ele>340.6666666666667</ele><time>2026-04-08T12:41:36Z</time></trkpt><trkpt lat="42.68799556017414" lon="2.5955811386012115"><ele>341.0</ele><time>2026-04-08T12:41:36.999Z</time></trkpt><trkpt lat="42.68789197520806" lon="2.5957473107232323"><ele>341.0</ele><time>2026-04-08T12:41:37.999Z</time></trkpt><trkpt lat="42.687779812589206" lon="2.595905083986641"><ele>341.0</ele><time>2026-04-08T12:41:38.999Z</time></trkpt><trkpt lat="42.68766092894466" lon="2.5960472202826916"><ele>341.0</ele><time>2026-04-08T12:41:39.999Z</time></trkpt><trkpt lat="42.68753466172615" lon="2.5961770587176782"><ele>338.0</ele><time>2026-04-08T12:41:40.999Z</time></trkpt><trkpt lat="42.68740942917068" lon="2.596311058174117"><ele>335.0</ele><time>2026-04-08T12:41:41.999Z</time></trkpt><trkpt lat="42.687302458598964" lon="2.5964724686725553"><ele>332.0</ele><time>2026-04-08T12:41:42.999Z</time></trkpt><trkpt lat="42.68720594151297" lon="2.5966457711437294"><ele>332.0</ele><time>2026-04-08T12:41:43.999Z</time></trkpt><trkpt lat="42.68711658554442" lon="2.5968138553248306"><ele>332.0</ele><time>2026-04-08T12:41:44.999Z</time></trkpt><trkpt lat="42.68703333727158" lon="2.59697264157705"><ele>332.0</ele><time>2026-04-08T12:41:45.999Z</time></trkpt><trkpt lat="42.68695339597081" lon="2.5971230092059385"><ele>332.0</ele><time>2026-04-08T12:41:46.999Z</time></trkpt><trkpt lat="42.6868784856185" lon="2.597258124887235"><ele>328.75</ele><time>2026-04-08T12:41:47.999Z</time></trkpt><trkpt lat="42.68680948164033" lon="2.597405408674214"><ele>325.5</ele><time>2026-04-08T12:41:48.999Z</time></trkpt><trkpt lat="42.68675093491455" lon="2.5975466872782187"><ele>322.25</ele><time>2026-04-08T12:41:49.999Z</time></trkpt><trkpt lat="42.686709943807884" lon="2.5977009137349447"><ele>319.0</ele><time>2026-04-08T12:41:50.999Z</time></trkpt><trkpt lat="42.686700295150466" lon="2.5978743934045228"><ele>318.0</ele><time>2026-04-08T12:41:51.999Z</time></trkpt><trkpt lat="42.68671913187149" lon="2.5980823278815386"><ele>317.0</ele><time>2026-04-08T12:41:52.999Z</time></trkpt><trkpt lat="42.68675486326476" lon="2.598279817020641"><ele>316.0</ele><time>2026-04-08T12:41:53.999Z</time></trkpt><trkpt lat="42.686787106241326" lon="2.5984886931058426"><ele>314.66666666666663</ele><time>2026-04-08T12:41:54.999Z</time></trkpt><trkpt lat="42.68680988742319" lon="2.598710615558548"><ele>313.3333333333333</ele><time>2026-04-08T12:41:55.999Z</time></trkpt><trkpt lat="42.68682998911818" lon="2.598932750733804"><ele>312.0</ele><time>2026-04-08T12:41:56.999Z</time></trkpt><trkpt lat="42.686857031806106" lon="2.5991536803188704"><ele>312.0</ele><time>2026-04-08T12:41:57.999Z</time></trkpt><trkpt lat="42.686892378125656" lon="2.599373656038227"><ele>312.0</ele><time>2026-04-08T12:41:58.999Z</time></trkpt><trkpt lat="42.68693249683123" lon="2.5995795366130805"><ele>312.0</ele><time>2026-04-08T12:41:59.999Z</time></trkpt><trkpt lat="42.68696712151224" lon="2.5997808272418803"><ele>312.75</ele><time>2026-04-08T12:42:00.999Z</time></trkpt><trkpt lat="42.68698759045182" lon="2.5999756475150337"><ele>313.5</ele><time>2026-04-08T12:42:01.999Z</time></trkpt><trkpt lat="42.686992936903906" lon="2.6001709796740413"><ele>314.25</ele><time>2026-04-08T12:42:02.999Z</time></trkpt><trkpt lat="42.68698938324647" lon="2.6003511349308934"><ele>315.0</ele><time>2026-04-08T12:42:03.999Z</time></trkpt><trkpt lat="42.6869705877048" lon="2.600541771295056"><ele>315.0</ele><time>2026-04-08T12:42:04.999Z</time></trkpt><trkpt lat="42.68695533972124" lon="2.600701522072063"><ele>315.0</ele><time>2026-04-08T12:42:05.999Z</time></trkpt><trkpt lat="42.68692243916726" lon="2.6008602635251257"><ele>315.0</ele><time>2026-04-08T12:42:06.999Z</time></trkpt><trkpt lat="42.68686870862454" lon="2.6009170286221868"><ele>315.0</ele><time>2026-04-08T12:42:07.999Z</time></trkpt><trkpt lat="42.686770177977145" lon="2.6011711189621587"><ele>312.75</ele><time>2026-04-08T12:42:08.999Z</time></trkpt><trkpt lat="42.68665679590341" lon="2.601293983285862"><ele>310.5</ele><time>2026-04-08T12:42:09.999Z</time></trkpt><trkpt lat="42.68652674058476" lon="2.6014065067428582"><ele>308.25</ele><time>2026-04-08T12:42:10.999Z</time></trkpt><trkpt lat="42.686421725035196" lon="2.6015363933587623"><ele>306.0</ele><time>2026-04-08T12:42:11.999Z</time></trkpt><trkpt lat="42.68632825448088" lon="2.601668433137942"><ele>306.0</ele><time>2026-04-08T12:42:12.999Z</time></trkpt><trkpt lat="42.68625606854183" lon="2.6018294733879825"><ele>306.0</ele><time>2026-04-08T12:42:13.999Z</time></trkpt><trkpt lat="42.686182782682366" lon="2.6019660515701006"><ele>306.0</ele><time>2026-04-08T12:42:14.999Z</time></trkpt><trkpt lat="42.68608434711407" lon="2.6020688045742006"><ele>306.0</ele><time>2026-04-08T12:42:15.999Z</time></trkpt><trkpt lat="42.685946540868336" lon="2.6021113243073524"><ele>304.25</ele><time>2026-04-08T12:42:16.999Z</time></trkpt><trkpt lat="42.68580546168266" lon="2.602163382443818"><ele>302.5</ele><time>2026-04-08T12:42:17.999Z</time></trkpt><trkpt lat="42.6856643122634" lon="2.6022156365416387"><ele>300.75</ele><time>2026-04-08T12:42:18.999Z</time></trkpt><trkpt lat="42.68552552162963" lon="2.6022449450187417"><ele>299.0</ele><time>2026-04-08T12:42:19.999Z</time></trkpt><trkpt lat="42.685392599886185" lon="2.602282821052513"><ele>299.0</ele><time>2026-04-08T12:42:20.999Z</time></trkpt><trkpt lat="42.68527864348928" lon="2.6023351426968855"><ele>299.0</ele><time>2026-04-08T12:42:21.999Z</time></trkpt><trkpt lat="42.68518609135415" lon="2.6024023481455933"><ele>299.0</ele><time>2026-04-08T12:42:22.999Z</time></trkpt><trkpt lat="42.68510846928531" lon="2.6024983920680187"><ele>299.0</ele><time>2026-04-08T12:42:23.999Z</time></trkpt><trkpt lat="42.68504223076087" lon="2.602630627159219"><ele>299.0</ele><time>2026-04-08T12:42:24.999Z</time></trkpt><trkpt lat="42.68499840944523" lon="2.60278839805871"><ele>296.25</ele><time>2026-04-08T12:42:25.999Z</time></trkpt><trkpt lat="42.68498161799126" lon="2.602959082583719"><ele>293.5</ele><time>2026-04-08T12:42:26.999Z</time></trkpt><trkpt lat="42.68498386189284" lon="2.6031364677019266"><ele>290.75</ele><time>2026-04-08T12:42:27.999Z</time></trkpt><trkpt lat="42.6850035504639" lon="2.603302087522941"><ele>288.0</ele><time>2026-04-08T12:42:28.999Z</time></trkpt><trkpt lat="42.68503283210083" lon="2.603440546334383"><ele>288.0</ele><time>2026-04-08T12:42:29.999Z</time></trkpt><trkpt lat="42.68507934218962" lon="2.6035575046630792"><ele>288.0</ele><time>2026-04-08T12:42:30.999Z</time></trkpt><trkpt lat="42.68515191723269" lon="2.60367253314937"><ele>288.0</ele><time>2026-04-08T12:42:31.999Z</time></trkpt><trkpt lat="42.68524726104157" lon="2.6037659473446846"><ele>288.0</ele><time>2026-04-08T12:42:32.999Z</time></trkpt><trkpt lat="42.68536398784077" lon="2.603822111013333"><ele>286.5</ele><time>2026-04-08T12:42:33.999Z</time></trkpt><trkpt lat="42.68549322010712" lon="2.603852399851184"><ele>285.0</ele><time>2026-04-08T12:42:34.999Z</time></trkpt><trkpt lat="42.68562159401537" lon="2.6038650097092115"><ele>283.5</ele><time>2026-04-08T12:42:35.999Z</time></trkpt><trkpt lat="42.685733459440435" lon="2.6038904307760986"><ele>282.0</ele><time>2026-04-08T12:42:36.999Z</time></trkpt><trkpt lat="42.68583218231868" lon="2.6039192521612526"><ele>282.0</ele><time>2026-04-08T12:42:37.999Z</time></trkpt><trkpt lat="42.685926412914306" lon="2.603952165439734"><ele>282.0</ele><time>2026-04-08T12:42:38.999Z</time></trkpt><trkpt lat="42.686006056390234" lon="2.6040209527942726"><ele>282.0</ele><time>2026-04-08T12:42:39.999Z</time></trkpt><trkpt lat="42.68605988472545" lon="2.6041515444294228"><ele>282.0</ele><time>2026-04-08T12:42:40.998Z</time></trkpt><trkpt lat="42.686073979968725" lon="2.6043122427875383"><ele>282.0</ele><time>2026-04-08T12:42:41.998Z</time></trkpt><trkpt lat="42.68609922185495" lon="2.6044774505725385"><ele>280.0</ele><time>2026-04-08T12:42:42.998Z</time></trkpt><trkpt lat="42.686074979445024" lon="2.604651879557596"><ele>278.0</ele><time>2026-04-08T12:42:43.998Z</time></trkpt><trkpt lat="42.68603894084113" lon="2.6048275014947744"><ele>276.0</ele><time>2026-04-08T12:42:44.998Z</time></trkpt><trkpt lat="42.68599734282826" lon="2.6050028679832398"><ele>274.0</ele><time>2026-04-08T12:42:45.998Z</time></trkpt><trkpt lat="42.68595348393539" lon="2.6051804455361296"><ele>274.25</ele><time>2026-04-08T12:42:46.998Z</time></trkpt><trkpt lat="42.685901734695285" lon="2.6053542645860692"><ele>274.5</ele><time>2026-04-08T12:42:47.998Z</time></trkpt><trkpt lat="42.68582717265732" lon="2.605507067052806"><ele>274.75</ele><time>2026-04-08T12:42:48.998Z</time></trkpt><trkpt lat="42.68572963933773" lon="2.6056656262507016"><ele>275.0</ele><time>2026-04-08T12:42:49.998Z</time></trkpt><trkpt lat="42.685627006407316" lon="2.6058373150550453"><ele>275.0</ele><time>2026-04-08T12:42:50.998Z</time></trkpt><trkpt lat="42.68551588068549" lon="2.6060275927185876"><ele>275.0</ele><time>2026-04-08T12:42:51.998Z</time></trkpt><trkpt lat="42.68540742436635" lon="2.6062162526581867"><ele>275.0</ele><time>2026-04-08T12:42:52.998Z</time></trkpt><trkpt lat="42.68530885571933" lon="2.6063941397222217"><ele>270.0</ele><time>2026-04-08T12:42:53.998Z</time></trkpt><trkpt lat="42.68521351836495" lon="2.606563130075836"><ele>265.0</ele><time>2026-04-08T12:42:54.998Z</time></trkpt><trkpt lat="42.685113447922646" lon="2.6067352737201235"><ele>260.0</ele><time>2026-04-08T12:42:55.998Z</time></trkpt><trkpt lat="42.685012682136815" lon="2.6069032198656217"><ele>259.75</ele><time>2026-04-08T12:42:56.998Z</time></trkpt><trkpt lat="42.68491802856828" lon="2.607060739881242"><ele>259.5</ele><time>2026-04-08T12:42:57.998Z</time></trkpt><trkpt lat="42.6848287860443" lon="2.6072177967210775"><ele>259.25</ele><time>2026-04-08T12:42:58.998Z</time></trkpt><trkpt lat="42.68473988668417" lon="2.6073660015077245"><ele>259.0</ele><time>2026-04-08T12:42:59.998Z</time></trkpt><trkpt lat="42.684634153875216" lon="2.6074971876660618"><ele>259.0</ele><time>2026-04-08T12:43:00.998Z</time></trkpt><trkpt lat="42.68450984637772" lon="2.607604729001781"><ele>259.0</ele><time>2026-04-08T12:43:01.998Z</time></trkpt><trkpt lat="42.684384334057995" lon="2.6076826330814957"><ele>259.0</ele><time>2026-04-08T12:43:03Z</time></trkpt><trkpt lat="42.684257025619445" lon="2.607738316797962"><ele>259.0</ele><time>2026-04-08T12:43:04Z</time></trkpt><trkpt lat="42.684143277111396" lon="2.6077721764147226"><ele>257.75</ele><time>2026-04-08T12:43:05Z</time></trkpt><trkpt lat="42.68402760456793" lon="2.6078108852633153"><ele>256.5</ele><time>2026-04-08T12:43:06Z</time></trkpt><trkpt lat="42.68393424607108" lon="2.6078821370378167"><ele>255.25</ele><time>2026-04-08T12:43:07Z</time></trkpt><trkpt lat="42.68386502084264" lon="2.607976395075535"><ele>254.0</ele><time>2026-04-08T12:43:08Z</time></trkpt><trkpt lat="42.68372453833867" lon="2.608221922216533"><ele>254.0</ele><time>2026-04-08T12:43:10Z</time></trkpt><trkpt lat="42.68368815085451" lon="2.608378237597739"><ele>254.0</ele><time>2026-04-08T12:43:11Z</time></trkpt><trkpt lat="42.683671367329" lon="2.608541041666032"><ele>254.0</ele><time>2026-04-08T12:43:12Z</time></trkpt><trkpt lat="42.683679357298836" lon="2.6087111062329815"><ele>254.0</ele><time>2026-04-08T12:43:13Z</time></trkpt><trkpt lat="42.68370545647026" lon="2.6088824888593782"><ele>252.25</ele><time>2026-04-08T12:43:14Z</time></trkpt><trkpt lat="42.68374904855937" lon="2.609038337618296"><ele>250.5</ele><time>2026-04-08T12:43:15Z</time></trkpt><trkpt lat="42.6838093504983" lon="2.6091817175049656"><ele>248.75</ele><time>2026-04-08T12:43:16Z</time></trkpt><trkpt lat="42.68388976404652" lon="2.609308694349115"><ele>247.0</ele><time>2026-04-08T12:43:17Z</time></trkpt><trkpt lat="42.68398620381577" lon="2.609402302202225"><ele>247.0</ele><time>2026-04-08T12:43:18Z</time></trkpt><trkpt lat="42.68410670321014" lon="2.6094675181282776"><ele>247.0</ele><time>2026-04-08T12:43:19Z</time></trkpt><trkpt lat="42.68423713834034" lon="2.6094952980723"><ele>247.0</ele><time>2026-04-08T12:43:20Z</time></trkpt><trkpt lat="42.68436350720009" lon="2.6094999299654718"><ele>247.0</ele><time>2026-04-08T12:43:21Z</time></trkpt><trkpt lat="42.6844747065755" lon="2.6095364472053206"><ele>245.25</ele><time>2026-04-08T12:43:22Z</time></trkpt><trkpt lat="42.684582303145675" lon="2.6096205850771814"><ele>243.5</ele><time>2026-04-08T12:43:23Z</time></trkpt><trkpt lat="42.68468593849351" lon="2.609734153732904"><ele>241.75</ele><time>2026-04-08T12:43:24Z</time></trkpt><trkpt lat="42.68476813590731" lon="2.609896180930537"><ele>240.0</ele><time>2026-04-08T12:43:25Z</time></trkpt><trkpt lat="42.68487065079173" lon="2.610028766167368"><ele>240.0</ele><time>2026-04-08T12:43:26Z</time></trkpt><trkpt lat="42.6849557147802" lon="2.610165083586723"><ele>240.0</ele><time>2026-04-08T12:43:27Z</time></trkpt><trkpt lat="42.685042674198954" lon="2.6102930910927524"><ele>240.0</ele><time>2026-04-08T12:43:28Z</time></trkpt><trkpt lat="42.68512762095034" lon="2.6104177641119857"><ele>240.0</ele><time>2026-04-08T12:43:29Z</time></trkpt><trkpt lat="42.68521120688118" lon="2.6105405986848664"><ele>239.6</ele><time>2026-04-08T12:43:30Z</time></trkpt><trkpt lat="42.68527882213303" lon="2.610662339825386"><ele>239.2</ele><time>2026-04-08T12:43:31Z</time></trkpt><trkpt lat="42.68529577478152" lon="2.610795298709779"><ele>238.8</ele><time>2026-04-08T12:43:32Z</time></trkpt><trkpt lat="42.68529033200315" lon="2.610916023695575"><ele>238.4</ele><time>2026-04-08T12:43:33Z</time></trkpt><trkpt lat="42.685251967045126" lon="2.611050941326538"><ele>238.0</ele><time>2026-04-08T12:43:34Z</time></trkpt><trkpt lat="42.68517145993528" lon="2.611159353249556"><ele>236.25</ele><time>2026-04-08T12:43:35Z</time></trkpt><trkpt lat="42.685094569906376" lon="2.6112957886091857"><ele>234.5</ele><time>2026-04-08T12:43:36Z</time></trkpt><trkpt lat="42.685006805237194" lon="2.611435589375811"><ele>232.75</ele><time>2026-04-08T12:43:37Z</time></trkpt><trkpt lat="42.68493461568926" lon="2.6115921062467335"><ele>231.0</ele><time>2026-04-08T12:43:38Z</time></trkpt><trkpt lat="42.684877804323854" lon="2.611754255971584"><ele>231.0</ele><time>2026-04-08T12:43:39Z</time></trkpt><trkpt lat="42.68483643458245" lon="2.611921064971738"><ele>231.0</ele><time>2026-04-08T12:43:40Z</time></trkpt><trkpt lat="42.684804113311685" lon="2.6120812286541257"><ele>231.0</ele><time>2026-04-08T12:43:41Z</time></trkpt><trkpt lat="42.684752411815225" lon="2.612226896015822"><ele>231.0</ele><time>2026-04-08T12:43:42Z</time></trkpt><trkpt lat="42.68467559628155" lon="2.6123566633835393"><ele>230.0</ele><time>2026-04-08T12:43:43Z</time></trkpt><trkpt lat="42.68457922536563" lon="2.6124693519411735"><ele>229.0</ele><time>2026-04-08T12:43:44Z</time></trkpt><trkpt lat="42.68447284367906" lon="2.61256375639371"><ele>228.0</ele><time>2026-04-08T12:43:45Z</time></trkpt><trkpt lat="42.684373355123235" lon="2.6126691461015756"><ele>227.0</ele><time>2026-04-08T12:43:45.999Z</time></trkpt><trkpt lat="42.684294626680426" lon="2.6128068304991117"><ele>225.0</ele><time>2026-04-08T12:43:46.999Z</time></trkpt><trkpt lat="42.68423292258052" lon="2.612968013864663"><ele>223.0</ele><time>2026-04-08T12:43:47.999Z</time></trkpt><trkpt lat="42.68418423738317" lon="2.613130735821835"><ele>221.0</ele><time>2026-04-08T12:43:48.999Z</time></trkpt><trkpt lat="42.684150232661416" lon="2.613267210139235"><ele>219.0</ele><time>2026-04-08T12:43:49.999Z</time></trkpt><trkpt lat="42.68409942633537" lon="2.6133876135940497"><ele>219.0</ele><time>2026-04-08T12:43:50.999Z</time></trkpt><trkpt lat="42.684027809670745" lon="2.6134702531604392"><ele>218.99999999999997</ele><time>2026-04-08T12:43:51.999Z</time></trkpt><trkpt lat="42.68393214409995" lon="2.613529828292661"><ele>218.99999999999997</ele><time>2026-04-08T12:43:52.999Z</time></trkpt><trkpt lat="42.68383106940243" lon="2.613562766241559"><ele>219.0</ele><time>2026-04-08T12:43:53.999Z</time></trkpt><trkpt lat="42.68373779158962" lon="2.61357936447964"><ele>219.0</ele><time>2026-04-08T12:43:54.999Z</time></trkpt><trkpt lat="42.68366023472897" lon="2.6136191680701315"><ele>218.39999999999998</ele><time>2026-04-08T12:43:55.999Z</time></trkpt><trkpt lat="42.68360222072234" lon="2.6136947019457737"><ele>217.79999999999998</ele><time>2026-04-08T12:43:56.999Z</time></trkpt><trkpt lat="42.68357412440395" lon="2.6137991302525543"><ele>217.20000000000002</ele><time>2026-04-08T12:43:57.999Z</time></trkpt><trkpt lat="42.683575047244034" lon="2.613922684039258"><ele>216.60000000000002</ele><time>2026-04-08T12:43:58.999Z</time></trkpt><trkpt lat="42.683601046290505" lon="2.614060974214093"><ele>216.0</ele><time>2026-04-08T12:43:59.999Z</time></trkpt><trkpt lat="42.68364898951902" lon="2.6142094544678685"><ele>216.0</ele><time>2026-04-08T12:44:00.999Z</time></trkpt><trkpt lat="42.6837139634381" lon="2.6143553070871444"><ele>216.0</ele><time>2026-04-08T12:44:01.999Z</time></trkpt><trkpt lat="42.68380367998449" lon="2.614532276204071"><ele>216.0</ele><time>2026-04-08T12:44:02.999Z</time></trkpt><trkpt lat="42.68385689746238" lon="2.614658685881201"><ele>216.0</ele><time>2026-04-08T12:44:04.999Z</time></trkpt><trkpt lat="42.6839044202768" lon="2.614744812232235"><ele>214.71428571428572</ele><time>2026-04-08T12:44:05.999Z</time></trkpt><trkpt lat="42.68393708398734" lon="2.6148321862889397"><ele>213.42857142857142</ele><time>2026-04-08T12:44:06.999Z</time></trkpt><trkpt lat="42.68393574443068" lon="2.6149197611212447"><ele>212.14285714285717</ele><time>2026-04-08T12:44:07.999Z</time></trkpt><trkpt lat="42.6839049613022" lon="2.615000934499395"><ele>210.85714285714286</ele><time>2026-04-08T12:44:08.999Z</time></trkpt><trkpt lat="42.68384529207635" lon="2.615053166475739"><ele>209.57142857142858</ele><time>2026-04-08T12:44:09.999Z</time></trkpt><trkpt lat="42.683769374198086" lon="2.6150671465166297"><ele>208.2857142857143</ele><time>2026-04-08T12:44:10.999Z</time></trkpt><trkpt lat="42.68369055855413" lon="2.6150134601589476"><ele>207.0</ele><time>2026-04-08T12:44:11.999Z</time></trkpt><trkpt lat="42.68361390154985" lon="2.614942820406218"><ele>203.5</ele><time>2026-04-08T12:44:12.999Z</time></trkpt><trkpt lat="42.68351453041098" lon="2.614861803509114"><ele>200.0</ele><time>2026-04-08T12:44:13.999Z</time></trkpt><trkpt lat="42.683409982769604" lon="2.6147668506773716"><ele>196.5</ele><time>2026-04-08T12:44:14.999Z</time></trkpt><trkpt lat="42.68330035396977" lon="2.614674385065362"><ele>193.0</ele><time>2026-04-08T12:44:15.999Z</time></trkpt><trkpt lat="42.6832332679303" lon="2.61453377668396"><ele>195.75</ele><time>2026-04-08T12:44:16.999Z</time></trkpt><trkpt lat="42.68316149784276" lon="2.614394746976274"><ele>198.5</ele><time>2026-04-08T12:44:17.999Z</time></trkpt><trkpt lat="42.68308247050161" lon="2.61426426242798"><ele>201.25</ele><time>2026-04-08T12:44:18.999Z</time></trkpt><trkpt lat="42.68299734965684" lon="2.614150871816804"><ele>204.0</ele><time>2026-04-08T12:44:19.999Z</time></trkpt><trkpt lat="42.68289711861221" lon="2.614072115578659"><ele>204.0</ele><time>2026-04-08T12:44:20.999Z</time></trkpt><trkpt lat="42.68279464050141" lon="2.614010292842097"><ele>204.0</ele><time>2026-04-08T12:44:21.999Z</time></trkpt><trkpt lat="42.68268318282859" lon="2.6139448094385576"><ele>204.0</ele><time>2026-04-08T12:44:22.999Z</time></trkpt><trkpt lat="42.68258443579145" lon="2.613856350181811"><ele>204.0</ele><time>2026-04-08T12:44:23.999Z</time></trkpt><trkpt lat="42.6825054221583" lon="2.6137159621039165"><ele>202.25</ele><time>2026-04-08T12:44:24.999Z</time></trkpt><trkpt lat="42.68241376603709" lon="2.6135648796531665"><ele>200.5</ele><time>2026-04-08T12:44:25.999Z</time></trkpt><trkpt lat="42.682331717175394" lon="2.6133890285527843"><ele>198.75</ele><time>2026-04-08T12:44:26.999Z</time></trkpt><trkpt lat="42.682257203542946" lon="2.6132105581389373"><ele>197.0</ele><time>2026-04-08T12:44:27.999Z</time></trkpt><trkpt lat="42.68217374715186" lon="2.613048416779108"><ele>197.0</ele><time>2026-04-08T12:44:28.999Z</time></trkpt><trkpt lat="42.68211370484191" lon="2.6128829366354376"><ele>197.0</ele><time>2026-04-08T12:44:29.999Z</time></trkpt><trkpt lat="42.682058932389175" lon="2.612723993302394"><ele>197.0</ele><time>2026-04-08T12:44:30.999Z</time></trkpt><trkpt lat="42.68201801467794" lon="2.6125877647327167"><ele>197.0</ele><time>2026-04-08T12:44:31.999Z</time></trkpt><trkpt lat="42.68198716494849" lon="2.612458755404978"><ele>197.8</ele><time>2026-04-08T12:44:32.999Z</time></trkpt><trkpt lat="42.68195434663244" lon="2.612342446484951"><ele>198.6</ele><time>2026-04-08T12:44:33.999Z</time></trkpt><trkpt lat="42.68189286524439" lon="2.612247425720282"><ele>199.4</ele><time>2026-04-08T12:44:34.999Z</time></trkpt><trkpt lat="42.681796849578724" lon="2.6121820242025864"><ele>200.20000000000002</ele><time>2026-04-08T12:44:35.999Z</time></trkpt><trkpt lat="42.68167032716596" lon="2.6121335857484516"><ele>201.0</ele><time>2026-04-08T12:44:36.999Z</time></trkpt><trkpt lat="42.681554054608235" lon="2.612111380022712"><ele>197.20000000000002</ele><time>2026-04-08T12:44:37.999Z</time></trkpt><trkpt lat="42.68144447026459" lon="2.6120899748885025"><ele>193.4</ele><time>2026-04-08T12:44:38.999Z</time></trkpt><trkpt lat="42.68135437140794" lon="2.612107335690762"><ele>189.6</ele><time>2026-04-08T12:44:39.999Z</time></trkpt><trkpt lat="42.68126172276283" lon="2.612159340857425"><ele>185.8</ele><time>2026-04-08T12:44:40.999Z</time></trkpt><trkpt lat="42.68118198508712" lon="2.612243548035123"><ele>182.0</ele><time>2026-04-08T12:44:41.999Z</time></trkpt><trkpt lat="42.681104919040074" lon="2.6123264267294184"><ele>179.8</ele><time>2026-04-08T12:44:42.999Z</time></trkpt><trkpt lat="42.68101734796732" lon="2.61236671311519"><ele>177.6</ele><time>2026-04-08T12:44:43.999Z</time></trkpt><trkpt lat="42.68092633769755" lon="2.612362170513524"><ele>175.4</ele><time>2026-04-08T12:44:44.999Z</time></trkpt><trkpt lat="42.68083742433199" lon="2.6123184617523463"><ele>173.20000000000002</ele><time>2026-04-08T12:44:45.999Z</time></trkpt><trkpt lat="42.68076779452376" lon="2.612217060951766"><ele>171.0</ele><time>2026-04-08T12:44:46.999Z</time></trkpt><trkpt lat="42.68071408824682" lon="2.612090110014428"><ele>173.5</ele><time>2026-04-08T12:44:47.999Z</time></trkpt><trkpt lat="42.680663603553064" lon="2.611932055704492"><ele>176.0</ele><time>2026-04-08T12:44:48.999Z</time></trkpt><trkpt lat="42.68060784952852" lon="2.611759465755103"><ele>178.5</ele><time>2026-04-08T12:44:49.999Z</time></trkpt><trkpt lat="42.68055288200027" lon="2.6115980404601338"><ele>181.0</ele><time>2026-04-08T12:44:50.999Z</time></trkpt><trkpt lat="42.68050141738306" lon="2.611450484769033"><ele>181.0</ele><time>2026-04-08T12:44:51.999Z</time></trkpt><trkpt lat="42.68044757883858" lon="2.611307141255753"><ele>181.0</ele><time>2026-04-08T12:44:52.999Z</time></trkpt><trkpt lat="42.68038969702381" lon="2.611173646046545"><ele>181.0</ele><time>2026-04-08T12:44:53.998Z</time></trkpt><trkpt lat="42.68033103378874" lon="2.6110485552849547"><ele>181.0</ele><time>2026-04-08T12:44:54.998Z</time></trkpt><trkpt lat="42.6802824157741" lon="2.610947954244334"><ele>181.0</ele><time>2026-04-08T12:44:55.998Z</time></trkpt><trkpt lat="42.68023401287135" lon="2.6108589113897054"><ele>178.8</ele><time>2026-04-08T12:44:56.998Z</time></trkpt><trkpt lat="42.680170088049074" lon="2.610788535553738"><ele>176.60000000000002</ele><time>2026-04-08T12:44:57.998Z</time></trkpt><trkpt lat="42.68008677730505" lon="2.6107401612106647"><ele>174.4</ele><time>2026-04-08T12:44:58.998Z</time></trkpt><trkpt lat="42.67995851425065" lon="2.6107264872201723"><ele>172.2</ele><time>2026-04-08T12:44:59.998Z</time></trkpt><trkpt lat="42.67984059543813" lon="2.610794383386938"><ele>170.0</ele><time>2026-04-08T12:45:01.998Z</time></trkpt><trkpt lat="42.67977130948899" lon="2.6108964585917143"><ele>170.0</ele><time>2026-04-08T12:45:02.998Z</time></trkpt><trkpt lat="42.67972924289916" lon="2.6110275283151854"><ele>170.0</ele><time>2026-04-08T12:45:03.998Z</time></trkpt><trkpt lat="42.679724682862684" lon="2.6111721828398236"><ele>170.0</ele><time>2026-04-08T12:45:04.998Z</time></trkpt><trkpt lat="42.6797536733669" lon="2.611330151877038"><ele>170.0</ele><time>2026-04-08T12:45:05.998Z</time></trkpt><trkpt lat="42.67981837177767" lon="2.611495636848763"><ele>169.0</ele><time>2026-04-08T12:45:06.998Z</time></trkpt><trkpt lat="42.67990394675654" lon="2.611659457211917"><ele>168.0</ele><time>2026-04-08T12:45:07.998Z</time></trkpt><trkpt lat="42.68000889310474" lon="2.6118450504879696"><ele>167.0</ele><time>2026-04-08T12:45:09Z</time></trkpt><trkpt lat="42.680110173360276" lon="2.6120334819749145"><ele>167.0</ele><time>2026-04-08T12:45:10Z</time></trkpt><trkpt lat="42.680199934067" lon="2.6122169504008044"><ele>167.0</ele><time>2026-04-08T12:45:11Z</time></trkpt><trkpt lat="42.680285503090346" lon="2.612391152152885"><ele>167.0</ele><time>2026-04-08T12:45:12Z</time></trkpt><trkpt lat="42.680353570461754" lon="2.612559090044689"><ele>168.33333333333331</ele><time>2026-04-08T12:45:13Z</time></trkpt><trkpt lat="42.6803960266155" lon="2.6127482514107325"><ele>169.66666666666666</ele><time>2026-04-08T12:45:14Z</time></trkpt><trkpt lat="42.68038971949136" lon="2.6129576449035126"><ele>171.0</ele><time>2026-04-08T12:45:15Z</time></trkpt><trkpt lat="42.68038069036708" lon="2.613171874505462"><ele>168.5</ele><time>2026-04-08T12:45:16Z</time></trkpt><trkpt lat="42.68036894202018" lon="2.61338406512454"><ele>166.0</ele><time>2026-04-08T12:45:17Z</time></trkpt><trkpt lat="42.68037257140638" lon="2.6135795296586144"><ele>163.5</ele><time>2026-04-08T12:45:18Z</time></trkpt><trkpt lat="42.68035424491718" lon="2.6137532211921717"><ele>161.0</ele><time>2026-04-08T12:45:19Z</time></trkpt><trkpt lat="42.68032787358686" lon="2.613917686674231"><ele>160.8</ele><time>2026-04-08T12:45:20Z</time></trkpt><trkpt lat="42.680265003729204" lon="2.6140606585218853"><ele>160.60000000000002</ele><time>2026-04-08T12:45:21Z</time></trkpt><trkpt lat="42.68020138212009" lon="2.614182971535801"><ele>160.4</ele><time>2026-04-08T12:45:22Z</time></trkpt><trkpt lat="42.68013367110367" lon="2.6142930338246653"><ele>160.2</ele><time>2026-04-08T12:45:23Z</time></trkpt><trkpt lat="42.680090317418596" lon="2.6143692715084956"><ele>160.0</ele><time>2026-04-08T12:45:24Z</time></trkpt><trkpt lat="42.68003768648409" lon="2.614457451429551"><ele>161.66666666666669</ele><time>2026-04-08T12:45:26Z</time></trkpt><trkpt lat="42.68014139786511" lon="2.6147592044699244"><ele>163.33333333333334</ele><time>2026-04-08T12:45:27Z</time></trkpt><trkpt lat="42.68022622145553" lon="2.6148904943610582"><ele>165.0</ele><time>2026-04-08T12:45:28Z</time></trkpt><trkpt lat="42.680327176481434" lon="2.6150206641859848"><ele>162.8</ele><time>2026-04-08T12:45:29Z</time></trkpt><trkpt lat="42.68041061439018" lon="2.61513620352529"><ele>160.6</ele><time>2026-04-08T12:45:30Z</time></trkpt><trkpt lat="42.68048462434748" lon="2.6152462302401207"><ele>158.4</ele><time>2026-04-08T12:45:31Z</time></trkpt><trkpt lat="42.68055212892862" lon="2.6153369180666988"><ele>156.2</ele><time>2026-04-08T12:45:32Z</time></trkpt><trkpt lat="42.68059317205597" lon="2.615443135930396"><ele>154.0</ele><time>2026-04-08T12:45:33Z</time></trkpt><trkpt lat="42.68057884671321" lon="2.615573762866581"><ele>153.25</ele><time>2026-04-08T12:45:34Z</time></trkpt><trkpt lat="42.6805444917107" lon="2.6157053715344483"><ele>152.5</ele><time>2026-04-08T12:45:35Z</time></trkpt><trkpt lat="42.680482801833946" lon="2.615846642177466"><ele>151.75</ele><time>2026-04-08T12:45:36Z</time></trkpt><trkpt lat="42.680406084461794" lon="2.6160009088707743"><ele>151.0</ele><time>2026-04-08T12:45:37Z</time></trkpt><trkpt lat="42.68035532522994" lon="2.6161869784574714"><ele>150.75</ele><time>2026-04-08T12:45:38Z</time></trkpt><trkpt lat="42.68030053754204" lon="2.6163581151746844"><ele>150.5</ele><time>2026-04-08T12:45:39Z</time></trkpt><trkpt lat="42.68025255173883" lon="2.6165227522786587"><ele>150.25</ele><time>2026-04-08T12:45:40Z</time></trkpt><trkpt lat="42.68021396969228" lon="2.616688732772111"><ele>150.0</ele><time>2026-04-08T12:45:41Z</time></trkpt><trkpt lat="42.68017593907519" lon="2.6168477523871148"><ele>149.5</ele><time>2026-04-08T12:45:42Z</time></trkpt><trkpt lat="42.6801363005438" lon="2.617009301977209"><ele>149.0</ele><time>2026-04-08T12:45:43Z</time></trkpt><trkpt lat="42.68009085607274" lon="2.6171653867944813"><ele>148.5</ele><time>2026-04-08T12:45:44Z</time></trkpt><trkpt lat="42.6800544685271" lon="2.6173247272814133"><ele>148.0</ele><time>2026-04-08T12:45:45Z</time></trkpt><trkpt lat="42.68001512101251" lon="2.61746776805701"><ele>148.0</ele><time>2026-04-08T12:45:46Z</time></trkpt><trkpt lat="42.679976411827724" lon="2.617595761995678"><ele>148.0</ele><time>2026-04-08T12:45:47Z</time></trkpt><trkpt lat="42.67996259003108" lon="2.6177423990223456"><ele>148.0</ele><time>2026-04-08T12:45:48Z</time></trkpt><trkpt lat="42.679979767134704" lon="2.6178873860278964"><ele>148.0</ele><time>2026-04-08T12:45:49Z</time></trkpt><trkpt lat="42.680058604847446" lon="2.618108077181077"><ele>146.8</ele><time>2026-04-08T12:45:50Z</time></trkpt><trkpt lat="42.680079954722906" lon="2.618242826287572"><ele>145.60000000000002</ele><time>2026-04-08T12:45:51.999Z</time></trkpt><trkpt lat="42.68008794268102" lon="2.6183551677886623"><ele>144.39999999999998</ele><time>2026-04-08T12:45:52.999Z</time></trkpt><trkpt lat="42.67999314341916" lon="2.6184657766222217"><ele>143.2</ele><time>2026-04-08T12:45:54.999Z</time></trkpt><trkpt lat="42.67990487339957" lon="2.618460760931986"><ele>142.0</ele><time>2026-04-08T12:45:55.999Z</time></trkpt><trkpt lat="42.67980067869177" lon="2.618496173673505"><ele>142.0</ele><time>2026-04-08T12:45:56.999Z</time></trkpt><trkpt lat="42.67969454552012" lon="2.618532245221677"><ele>142.0</ele><time>2026-04-08T12:45:57.999Z</time></trkpt><trkpt lat="42.67959752743699" lon="2.6185652188656507"><ele>142.0</ele><time>2026-04-08T12:45:58.999Z</time></trkpt><trkpt lat="42.6795123993562" lon="2.6186161757882083"><ele>142.0</ele><time>2026-04-08T12:45:59.999Z</time></trkpt><trkpt lat="42.679420687543605" lon="2.61861919732148"><ele>142.0</ele><time>2026-04-08T12:46:00.999Z</time></trkpt><trkpt lat="42.679331577108925" lon="2.6185980393396755"><ele>142.25</ele><time>2026-04-08T12:46:01.999Z</time></trkpt><trkpt lat="42.679225611640796" lon="2.61855212682699"><ele>142.5</ele><time>2026-04-08T12:46:02.999Z</time></trkpt><trkpt lat="42.679124905556925" lon="2.6184663159776327"><ele>142.75</ele><time>2026-04-08T12:46:03.999Z</time></trkpt><trkpt lat="42.67901494551836" lon="2.6184148159186753"><ele>143.0</ele><time>2026-04-08T12:46:04.999Z</time></trkpt><trkpt lat="42.678900744526544" lon="2.6183594212666006"><ele>143.0</ele><time>2026-04-08T12:46:05.999Z</time></trkpt><trkpt lat="42.678788245042696" lon="2.618304851951114"><ele>143.0</ele><time>2026-04-08T12:46:06.999Z</time></trkpt><trkpt lat="42.678676269953534" lon="2.61825053699897"><ele>143.0</ele><time>2026-04-08T12:46:07.999Z</time></trkpt><trkpt lat="42.67855920258616" lon="2.6182088124481586"><ele>143.0</ele><time>2026-04-08T12:46:08.999Z</time></trkpt><trkpt lat="42.67845106352979" lon="2.618156495812143"><ele>142.0</ele><time>2026-04-08T12:46:09.999Z</time></trkpt><trkpt lat="42.67833951932699" lon="2.6181025933846547"><ele>141.0</ele><time>2026-04-08T12:46:10.999Z</time></trkpt><trkpt lat="42.67822653340999" lon="2.618050790283711"><ele>140.0</ele><time>2026-04-08T12:46:11.999Z</time></trkpt><trkpt lat="42.67811882180902" lon="2.617996741613203"><ele>139.0</ele><time>2026-04-08T12:46:12.999Z</time></trkpt><trkpt lat="42.67800208360657" lon="2.6179430873888823"><ele>139.0</ele><time>2026-04-08T12:46:13.999Z</time></trkpt><trkpt lat="42.67789069518964" lon="2.6178851856052407"><ele>139.0</ele><time>2026-04-08T12:46:14.999Z</time></trkpt><trkpt lat="42.67777861283082" lon="2.617819730067977"><ele>139.0</ele><time>2026-04-08T12:46:15.999Z</time></trkpt><trkpt lat="42.67766963757647" lon="2.6177428671728817"><ele>139.0</ele><time>2026-04-08T12:46:16.999Z</time></trkpt><trkpt lat="42.67756137324923" lon="2.617664291725469"><ele>141.5</ele><time>2026-04-08T12:46:17.999Z</time></trkpt><trkpt lat="42.67745443802172" lon="2.6175863481545876"><ele>144.0</ele><time>2026-04-08T12:46:18.999Z</time></trkpt><trkpt lat="42.67735279172344" lon="2.6175120770009284"><ele>146.5</ele><time>2026-04-08T12:46:19.999Z</time></trkpt><trkpt lat="42.67725637734302" lon="2.61743972110632"><ele>149.0</ele><time>2026-04-08T12:46:20.999Z</time></trkpt><trkpt lat="42.6771602317147" lon="2.6173645373840526"><ele>149.0</ele><time>2026-04-08T12:46:21.999Z</time></trkpt><trkpt lat="42.67707599847043" lon="2.6172632897678314"><ele>149.0</ele><time>2026-04-08T12:46:22.999Z</time></trkpt><trkpt lat="42.67699692191197" lon="2.6171815654327495"><ele>149.0</ele><time>2026-04-08T12:46:23.999Z</time></trkpt><trkpt lat="42.67690919137925" lon="2.6170568975171666"><ele>149.0</ele><time>2026-04-08T12:46:24.999Z</time></trkpt><trkpt lat="42.67684301946439" lon="2.6169195378849084"><ele>148.25</ele><time>2026-04-08T12:46:25.999Z</time></trkpt><trkpt lat="42.67677747520661" lon="2.616756656488288"><ele>147.5</ele><time>2026-04-08T12:46:26.999Z</time></trkpt><trkpt lat="42.67671989806792" lon="2.6165869682124323"><ele>146.75</ele><time>2026-04-08T12:46:27.999Z</time></trkpt><trkpt lat="42.676671644526316" lon="2.61643278000606"><ele>146.0</ele><time>2026-04-08T12:46:28.999Z</time></trkpt><trkpt lat="42.67662948035084" lon="2.616293575521514"><ele>146.0</ele><time>2026-04-08T12:46:29.999Z</time></trkpt><trkpt lat="42.67658683820541" lon="2.616169264855233"><ele>146.0</ele><time>2026-04-08T12:46:30.999Z</time></trkpt><trkpt lat="42.67652830074436" lon="2.616067439615329"><ele>146.0</ele><time>2026-04-08T12:46:31.999Z</time></trkpt><trkpt lat="42.676476947272725" lon="2.615961775520287"><ele>146.0</ele><time>2026-04-08T12:46:32.999Z</time></trkpt><trkpt lat="42.67642645310795" lon="2.615876730985444"><ele>146.0</ele><time>2026-04-08T12:46:33.999Z</time></trkpt><trkpt lat="42.67638082700446" lon="2.615811495673856"><ele>146.0</ele><time>2026-04-08T12:46:34.999Z</time></trkpt><trkpt lat="42.67637003045479" lon="2.615719071037823"><ele>147.2</ele><time>2026-04-08T12:46:35.999Z</time></trkpt><trkpt lat="42.67629383347645" lon="2.6156016842211547"><ele>148.39999999999998</ele><time>2026-04-08T12:46:37.999Z</time></trkpt><trkpt lat="42.676214854047046" lon="2.615585643466162"><ele>149.6</ele><time>2026-04-08T12:46:38.999Z</time></trkpt><trkpt lat="42.676141495086554" lon="2.615634522424884"><ele>150.79999999999998</ele><time>2026-04-08T12:46:39.999Z</time></trkpt><trkpt lat="42.67606694548133" lon="2.6156801479973035"><ele>152.0</ele><time>2026-04-08T12:46:40.999Z</time></trkpt><trkpt lat="42.67597874318735" lon="2.6157295065763106"><ele>148.75</ele><time>2026-04-08T12:46:41.999Z</time></trkpt><trkpt lat="42.67586841859778" lon="2.615757388783859"><ele>145.5</ele><time>2026-04-08T12:46:42.999Z</time></trkpt><trkpt lat="42.675750070533084" lon="2.6157296421879024"><ele>142.25</ele><time>2026-04-08T12:46:43.999Z</time></trkpt><trkpt lat="42.67563638213215" lon="2.6157478240848473"><ele>139.0</ele><time>2026-04-08T12:46:44.999Z</time></trkpt><trkpt lat="42.67551804367043" lon="2.615747882734755"><ele>139.0</ele><time>2026-04-08T12:46:45.999Z</time></trkpt><trkpt lat="42.67539534279922" lon="2.6157494403882042"><ele>139.0</ele><time>2026-04-08T12:46:46.999Z</time></trkpt><trkpt lat="42.67528589266388" lon="2.6157549292723603"><ele>139.0</ele><time>2026-04-08T12:46:47.999Z</time></trkpt><trkpt lat="42.67517878988041" lon="2.6157595132385447"><ele>139.0</ele><time>2026-04-08T12:46:48.999Z</time></trkpt><trkpt lat="42.67508604542264" lon="2.6157625623728817"><ele>139.0</ele><time>2026-04-08T12:46:49.999Z</time></trkpt><trkpt lat="42.67498454407172" lon="2.6157634307864286"><ele>138.8</ele><time>2026-04-08T12:46:50.999Z</time></trkpt><trkpt lat="42.67487851508318" lon="2.615764011167743"><ele>138.60000000000002</ele><time>2026-04-08T12:46:51.999Z</time></trkpt><trkpt lat="42.674771442550295" lon="2.615768127701467"><ele>138.4</ele><time>2026-04-08T12:46:52.999Z</time></trkpt><trkpt lat="42.674657603773824" lon="2.6157722462363755"><ele>138.20000000000002</ele><time>2026-04-08T12:46:53.999Z</time></trkpt><trkpt lat="42.674544578822854" lon="2.61577062837999"><ele>138.0</ele><time>2026-04-08T12:46:54.999Z</time></trkpt><trkpt lat="42.67442710797802" lon="2.6157689858159645"><ele>138.0</ele><time>2026-04-08T12:46:55.999Z</time></trkpt><trkpt lat="42.67430718103326" lon="2.615775864297602"><ele>138.0</ele><time>2026-04-08T12:46:56.999Z</time></trkpt><trkpt lat="42.674184498326966" lon="2.615780651929467"><ele>138.0</ele><time>2026-04-08T12:46:57.999Z</time></trkpt><trkpt lat="42.67406100834296" lon="2.6157836294933063"><ele>138.0</ele><time>2026-04-08T12:46:58.999Z</time></trkpt><trkpt lat="42.67393644356418" lon="2.6157866354450943"><ele>138.0</ele><time>2026-04-08T12:46:59.999Z</time></trkpt><trkpt lat="42.673820114129924" lon="2.615799070556091"><ele>138.0</ele><time>2026-04-08T12:47:00.998Z</time></trkpt><trkpt lat="42.673699988541" lon="2.6158245340644655"><ele>138.0</ele><time>2026-04-08T12:47:01.998Z</time></trkpt><trkpt lat="42.673578590827525" lon="2.615873948492297"><ele>138.0</ele><time>2026-04-08T12:47:02.998Z</time></trkpt><trkpt lat="42.673459121595805" lon="2.6159438834020654"><ele>138.0</ele><time>2026-04-08T12:47:03.998Z</time></trkpt><trkpt lat="42.6733460848934" lon="2.6160318172219466"><ele>138.0</ele><time>2026-04-08T12:47:04.998Z</time></trkpt><trkpt lat="42.67323991635065" lon="2.616120071421668"><ele>138.0</ele><time>2026-04-08T12:47:05.998Z</time></trkpt><trkpt lat="42.673137948031716" lon="2.61621043282519"><ele>138.0</ele><time>2026-04-08T12:47:06.998Z</time></trkpt><trkpt lat="42.67303795818195" lon="2.6163022226932755"><ele>138.0</ele><time>2026-04-08T12:47:07.998Z</time></trkpt><trkpt lat="42.67293710972181" lon="2.61638962738909"><ele>138.0</ele><time>2026-04-08T12:47:08.998Z</time></trkpt><trkpt lat="42.67281497056673" lon="2.61651124645535"><ele>138.0</ele><time>2026-04-08T12:47:09.998Z</time></trkpt><trkpt lat="42.67268624618483" lon="2.6166133383480963"><ele>138.0</ele><time>2026-04-08T12:47:10.998Z</time></trkpt><trkpt lat="42.672560661810394" lon="2.616723403839187"><ele>138.5</ele><time>2026-04-08T12:47:11.998Z</time></trkpt><trkpt lat="42.672454471476236" lon="2.616823530211038"><ele>139.0</ele><time>2026-04-08T12:47:12.998Z</time></trkpt><trkpt lat="42.67235562055776" lon="2.616907620940877"><ele>139.5</ele><time>2026-04-08T12:47:13.998Z</time></trkpt><trkpt lat="42.672272487174865" lon="2.6169838005276977"><ele>140.0</ele><time>2026-04-08T12:47:15Z</time></trkpt><trkpt lat="42.67217755871579" lon="2.617065683452642"><ele>140.0</ele><time>2026-04-08T12:47:16Z</time></trkpt><trkpt lat="42.672070467344675" lon="2.6171703888482707"><ele>140.0</ele><time>2026-04-08T12:47:17Z</time></trkpt><trkpt lat="42.67201205065964" lon="2.617220066689597"><ele>140.0</ele><time>2026-04-08T12:47:18Z</time></trkpt><trkpt lat="42.67193337131695" lon="2.6172915014524976"><ele>140.0</ele><time>2026-04-08T12:47:19Z</time></trkpt><trkpt lat="42.671864697419345" lon="2.6173634030745174"><ele>140.0</ele><time>2026-04-08T12:47:20Z</time></trkpt><trkpt lat="42.671802178846455" lon="2.6174155605641225"><ele>141.2</ele><time>2026-04-08T12:47:21Z</time></trkpt><trkpt lat="42.67174506996801" lon="2.617461632392944"><ele>142.4</ele><time>2026-04-08T12:47:22Z</time></trkpt><trkpt lat="42.67164525557609" lon="2.617547409918027"><ele>143.6</ele><time>2026-04-08T12:47:24Z</time></trkpt><trkpt lat="42.67153728993751" lon="2.617594851024547"><ele>144.8</ele><time>2026-04-08T12:47:26Z</time></trkpt><trkpt lat="42.67145295832954" lon="2.6176924834688373"><ele>146.0</ele><time>2026-04-08T12:47:28Z</time></trkpt><trkpt lat="42.67133197632177" lon="2.617736875701863"><ele>146.0</ele><time>2026-04-08T12:47:30Z</time></trkpt><trkpt lat="42.671265142697074" lon="2.6177844181672127"><ele>146.0</ele><time>2026-04-08T12:47:31Z</time></trkpt><trkpt lat="42.67120839606697" lon="2.617828334455823"><ele>146.0</ele><time>2026-04-08T12:47:32Z</time></trkpt><trkpt lat="42.67112400897924" lon="2.617875194007971"><ele>146.0</ele><time>2026-04-08T12:47:34Z</time></trkpt><trkpt lat="42.67105089297624" lon="2.6179235515822885"><ele>146.0</ele><time>2026-04-08T12:47:36Z</time></trkpt><trkpt lat="42.67099138490497" lon="2.6179608124096245"><ele>146.0</ele><time>2026-04-08T12:47:40Z</time></trkpt><trkpt lat="42.67090953123906" lon="2.6180305452272057"><ele>147.66666666666666</ele><time>2026-04-08T12:47:48Z</time></trkpt><trkpt lat="42.67078059685959" lon="2.6181107197061855"><ele>149.33333333333331</ele><time>2026-04-08T12:47:50Z</time></trkpt><trkpt lat="42.67070814286049" lon="2.618161928596851"><ele>151.0</ele><time>2026-04-08T12:47:51Z</time></trkpt><trkpt lat="42.6706417057462" lon="2.618208884941555"><ele>152.66666666666666</ele><time>2026-04-08T12:47:51.999Z</time></trkpt><trkpt lat="42.670581073599145" lon="2.6182622603716896"><ele>154.33333333333334</ele><time>2026-04-08T12:47:52.999Z</time></trkpt><trkpt lat="42.67051312669919" lon="2.618307413009157"><ele>156.0</ele><time>2026-04-08T12:47:53.999Z</time></trkpt><trkpt lat="42.670451697199205" lon="2.6183532903778843"><ele>156.0</ele><time>2026-04-08T12:47:54.999Z</time></trkpt><trkpt lat="42.67039255369803" lon="2.6183924009263624"><ele>156.0</ele><time>2026-04-08T12:47:55.999Z</time></trkpt><trkpt lat="42.670290117848864" lon="2.618458171201734"><ele>156.0</ele><time>2026-04-08T12:47:57.999Z</time></trkpt><trkpt lat="42.67019366758314" lon="2.618547566805917"><ele>156.0</ele><time>2026-04-08T12:47:59.999Z</time></trkpt><trkpt lat="42.670163051378594" lon="2.618639723699703"><ele>156.0</ele><time>2026-04-08T12:48:00.999Z</time></trkpt><trkpt lat="42.670124100375034" lon="2.6187359426610675"><ele>156.2857142857143</ele><time>2026-04-08T12:48:01.999Z</time></trkpt><trkpt lat="42.67008583824387" lon="2.6188312850412654"><ele>156.57142857142856</ele><time>2026-04-08T12:48:02.999Z</time></trkpt><trkpt lat="42.670045601906125" lon="2.618919774793792"><ele>156.85714285714286</ele><time>2026-04-08T12:48:03.999Z</time></trkpt><trkpt lat="42.67002951518343" lon="2.6190307751081847"><ele>157.14285714285717</ele><time>2026-04-08T12:48:04.999Z</time></trkpt><trkpt lat="42.67000045247566" lon="2.6191088527577366"><ele>157.42857142857144</ele><time>2026-04-08T12:48:05.999Z</time></trkpt><trkpt lat="42.66996333647584" lon="2.619183532361303"><ele>157.71428571428572</ele><time>2026-04-08T12:48:06.999Z</time></trkpt><trkpt lat="42.669922964277006" lon="2.6192584421158505"><ele>158.0</ele><time>2026-04-08T12:48:07.999Z</time></trkpt><trkpt lat="42.66987019125947" lon="2.619374901729362"><ele>158.0</ele><time>2026-04-08T12:48:09.999Z</time></trkpt><trkpt lat="42.66982422892494" lon="2.619479397459873"><ele>158.0</ele><time>2026-04-08T12:48:20.999Z</time></trkpt><trkpt lat="42.669776436462996" lon="2.619541377467132"><ele>158.0</ele><time>2026-04-08T12:48:25.999Z</time></trkpt><trkpt lat="42.66975627765914" lon="2.6196742447123778"><ele>158.0</ele><time>2026-04-08T12:48:27.999Z</time></trkpt><trkpt lat="42.669770583561935" lon="2.6197638439329083"><ele>158.0</ele><time>2026-04-08T12:48:28.999Z</time></trkpt><trkpt lat="42.66978358412304" lon="2.6198605312251657"><ele>158.0</ele><time>2026-04-08T12:48:29.999Z</time></trkpt><trkpt lat="42.6697912560551" lon="2.6199643029874493"><ele>157.71428571428572</ele><time>2026-04-08T12:48:30.999Z</time></trkpt><trkpt lat="42.66980036453669" lon="2.620056650189192"><ele>157.42857142857144</ele><time>2026-04-08T12:48:31.999Z</time></trkpt><trkpt lat="42.66981055741888" lon="2.620152157441568"><ele>157.14285714285717</ele><time>2026-04-08T12:48:32.999Z</time></trkpt><trkpt lat="42.669832411574355" lon="2.6202423958392624"><ele>156.85714285714286</ele><time>2026-04-08T12:48:33.999Z</time></trkpt><trkpt lat="42.66986120666279" lon="2.62032522014021"><ele>156.57142857142856</ele><time>2026-04-08T12:48:34.999Z</time></trkpt><trkpt lat="42.66989298929243" lon="2.620411860190327"><ele>156.2857142857143</ele><time>2026-04-08T12:48:35.999Z</time></trkpt><trkpt lat="42.66992677944434" lon="2.6205106643493328"><ele>156.0</ele><time>2026-04-08T12:48:36.999Z</time></trkpt><trkpt lat="42.66996576099132" lon="2.6205971303920688"><ele>156.0</ele><time>2026-04-08T12:48:37.999Z</time></trkpt><trkpt lat="42.67000742226642" lon="2.6206842292122507"><ele>156.0</ele><time>2026-04-08T12:48:38.999Z</time></trkpt><trkpt lat="42.67005040422619" lon="2.6207679130428176"><ele>156.0</ele><time>2026-04-08T12:48:39.999Z</time></trkpt><trkpt lat="42.67009096090493" lon="2.6208486291769857"><ele>156.0</ele><time>2026-04-08T12:48:40.999Z</time></trkpt><trkpt lat="42.67013557153378" lon="2.6209261285567127"><ele>156.0</ele><time>2026-04-08T12:48:41.999Z</time></trkpt><trkpt lat="42.67000000203752" lon="2.6209541503583904"><ele>156.0</ele><time>2026-04-08T12:48:44.999Z</time></trkpt><trkpt lat="42.669838402050026" lon="2.6209148020304083"><ele>154.0</ele><time>2026-04-08T12:48:45.999Z</time></trkpt><trkpt lat="42.67045605784635" lon="2.621295462062809"><ele>154.0</ele><time>2026-04-08T12:48:46.999Z</time></trkpt><trkpt lat="42.67051186711765" lon="2.621353456857662"><ele>154.0</ele><time>2026-04-08T12:48:47.999Z</time></trkpt><trkpt lat="42.6705962999883" lon="2.6214606765612665"><ele>154.0</ele><time>2026-04-08T12:48:49.999Z</time></trkpt><trkpt lat="42.67068261494815" lon="2.621537135222307"><ele>154.0</ele><time>2026-04-08T12:48:51.999Z</time></trkpt><trkpt lat="42.67074148614796" lon="2.6216652690424986"><ele>154.0</ele><time>2026-04-08T12:48:53.999Z</time></trkpt><trkpt lat="42.670776198448166" lon="2.621741001839817"><ele>154.0</ele><time>2026-04-08T12:48:54.999Z</time></trkpt><trkpt lat="42.670840216934586" lon="2.621772296008398"><ele>154.0</ele><time>2026-04-08T12:48:55.999Z</time></trkpt><trkpt lat="42.67087007205123" lon="2.6218505519214763"><ele>154.0</ele><time>2026-04-08T12:48:56.999Z</time></trkpt><trkpt lat="42.67091968752154" lon="2.6219127606470884"><ele>154.0</ele><time>2026-04-08T12:48:57.999Z</time></trkpt><trkpt lat="42.67096822778224" lon="2.621967837542545"><ele>154.0</ele><time>2026-04-08T12:48:58.999Z</time></trkpt><trkpt lat="42.67102254308442" lon="2.622015303144488"><ele>154.0</ele><time>2026-04-08T12:48:59.999Z</time></trkpt><trkpt lat="42.67112281838548" lon="2.6221062316431674"><ele>154.0</ele><time>2026-04-08T12:49:01.999Z</time></trkpt><trkpt lat="42.67118546660972" lon="2.6221829562602346"><ele>153.42857142857142</ele><time>2026-04-08T12:49:02.999Z</time></trkpt><trkpt lat="42.67125763078224" lon="2.6222347747817234"><ele>152.85714285714286</ele><time>2026-04-08T12:49:03.999Z</time></trkpt><trkpt lat="42.67133479838096" lon="2.6222720907016237"><ele>152.28571428571428</ele><time>2026-04-08T12:49:04.999Z</time></trkpt><trkpt lat="42.671402281355384" lon="2.622305061040583"><ele>151.71428571428572</ele><time>2026-04-08T12:49:05.999Z</time></trkpt><trkpt lat="42.67145996933699" lon="2.622345282021782"><ele>151.14285714285714</ele><time>2026-04-08T12:49:06.999Z</time></trkpt><trkpt lat="42.67151464758792" lon="2.6223966816838273"><ele>150.57142857142856</ele><time>2026-04-08T12:49:07.998Z</time></trkpt><trkpt lat="42.6715758524694" lon="2.6224522133336965"><ele>150.0</ele><time>2026-04-08T12:49:08.998Z</time></trkpt><trkpt lat="42.67165352157452" lon="2.6224924061702968"><ele>149.99999999999997</ele><time>2026-04-08T12:49:09.998Z</time></trkpt><trkpt lat="42.671720386126424" lon="2.6225298993461656"><ele>150.0</ele><time>2026-04-08T12:49:10.998Z</time></trkpt><trkpt lat="42.67179030865009" lon="2.6225531267417352"><ele>150.0</ele><time>2026-04-08T12:49:11.998Z</time></trkpt><trkpt lat="42.67186926251351" lon="2.62257358621157"><ele>150.0</ele><time>2026-04-08T12:49:12.998Z</time></trkpt><trkpt lat="42.671943959425356" lon="2.6225813583799202"><ele>150.0</ele><time>2026-04-08T12:49:13.998Z</time></trkpt><trkpt lat="42.672011661313114" lon="2.6225937578860865"><ele>149.99999999999997</ele><time>2026-04-08T12:49:14.998Z</time></trkpt><trkpt lat="42.67207556466522" lon="2.622611355484607"><ele>150.0</ele><time>2026-04-08T12:49:15.998Z</time></trkpt><trkpt lat="42.67214910528364" lon="2.6226228777723035"><ele>149.83333333333334</ele><time>2026-04-08T12:49:16.998Z</time></trkpt><trkpt lat="42.67221736449092" lon="2.6226299125772843"><ele>149.66666666666666</ele><time>2026-04-08T12:49:17.998Z</time></trkpt><trkpt lat="42.672283758053474" lon="2.6226531250950016"><ele>149.5</ele><time>2026-04-08T12:49:18.998Z</time></trkpt><trkpt lat="42.67235337328834" lon="2.622716227548312"><ele>149.33333333333331</ele><time>2026-04-08T12:49:19.998Z</time></trkpt><trkpt lat="42.67238755046303" lon="2.622812056403465"><ele>149.16666666666666</ele><time>2026-04-08T12:49:21Z</time></trkpt><trkpt lat="42.67244713577775" lon="2.622891632373201"><ele>149.0</ele><time>2026-04-08T12:49:22Z</time></trkpt><trkpt lat="42.67256527143385" lon="2.62304768165315"><ele>149.0</ele><time>2026-04-08T12:49:24Z</time></trkpt><trkpt lat="42.672629016243825" lon="2.6231318842774796"><ele>149.0</ele><time>2026-04-08T12:49:25Z</time></trkpt><trkpt lat="42.672694272997" lon="2.623218085051756"><ele>149.0</ele><time>2026-04-08T12:49:26Z</time></trkpt><trkpt lat="42.672764404737045" lon="2.6233036316183314"><ele>149.0</ele><time>2026-04-08T12:49:27Z</time></trkpt><trkpt lat="42.67284520563988" lon="2.6233758215118304"><ele>149.0</ele><time>2026-04-08T12:49:28Z</time></trkpt><trkpt lat="42.67291248267499" lon="2.6234683465659456"><ele>148.4</ele><time>2026-04-08T12:49:29Z</time></trkpt><trkpt lat="42.67297659420096" lon="2.6235669021920818"><ele>147.8</ele><time>2026-04-08T12:49:30Z</time></trkpt><trkpt lat="42.67303625715394" lon="2.6236532535062014"><ele>147.2</ele><time>2026-04-08T12:49:31Z</time></trkpt><trkpt lat="42.673095658124474" lon="2.623739850076811"><ele>146.6</ele><time>2026-04-08T12:49:32Z</time></trkpt><trkpt lat="42.67316528041073" lon="2.6238299556713263"><ele>146.0</ele><time>2026-04-08T12:49:33Z</time></trkpt><trkpt lat="42.673231919893496" lon="2.6239220201090205"><ele>146.0</ele><time>2026-04-08T12:49:34Z</time></trkpt><trkpt lat="42.67329861084168" lon="2.62401137184598"><ele>146.0</ele><time>2026-04-08T12:49:35Z</time></trkpt><trkpt lat="42.67336164995345" lon="2.624096556135954"><ele>146.0</ele><time>2026-04-08T12:49:36Z</time></trkpt><trkpt lat="42.673420775095444" lon="2.624187947889252"><ele>146.0</ele><time>2026-04-08T12:49:37Z</time></trkpt><trkpt lat="42.67348456511269" lon="2.6242762693724146"><ele>146.0</ele><time>2026-04-08T12:49:38Z</time></trkpt><trkpt lat="42.673547566804395" lon="2.6243639825957943"><ele>145.6</ele><time>2026-04-08T12:49:39Z</time></trkpt><trkpt lat="42.67360936688721" lon="2.624455106153437"><ele>145.2</ele><time>2026-04-08T12:49:40Z</time></trkpt><trkpt lat="42.67368666612227" lon="2.624533361990244"><ele>144.8</ele><time>2026-04-08T12:49:41Z</time></trkpt><trkpt lat="42.67375635118983" lon="2.6246193382664647"><ele>144.4</ele><time>2026-04-08T12:49:42Z</time></trkpt><trkpt lat="42.67381849832116" lon="2.6247070416941725"><ele>144.0</ele><time>2026-04-08T12:49:43Z</time></trkpt><trkpt lat="42.67387839916592" lon="2.624798107454885"><ele>144.0</ele><time>2026-04-08T12:49:44Z</time></trkpt><trkpt lat="42.673945316336294" lon="2.6248795862814105"><ele>144.0</ele><time>2026-04-08T12:49:45Z</time></trkpt><trkpt lat="42.67400854479825" lon="2.62496755902795"><ele>144.0</ele><time>2026-04-08T12:49:46Z</time></trkpt><trkpt lat="42.67408038535968" lon="2.6250585079658024"><ele>144.0</ele><time>2026-04-08T12:49:47Z</time></trkpt><trkpt lat="42.674150367631924" lon="2.6251514013975084"><ele>144.0</ele><time>2026-04-08T12:49:48Z</time></trkpt><trkpt lat="42.674216373271165" lon="2.6252447922889828"><ele>144.0</ele><time>2026-04-08T12:49:49Z</time></trkpt><trkpt lat="42.674288907043426" lon="2.625332736159194"><ele>144.0</ele><time>2026-04-08T12:49:50Z</time></trkpt><trkpt lat="42.67436533876592" lon="2.6254158587905296"><ele>144.0</ele><time>2026-04-08T12:49:51Z</time></trkpt><trkpt lat="42.674421696095315" lon="2.625524122014682"><ele>144.0</ele><time>2026-04-08T12:49:52Z</time></trkpt><trkpt lat="42.67449988949371" lon="2.6256057194039975"><ele>144.0</ele><time>2026-04-08T12:49:53Z</time></trkpt><trkpt lat="42.67456896882995" lon="2.625705073031377"><ele>144.0</ele><time>2026-04-08T12:49:54Z</time></trkpt><trkpt lat="42.674638540299775" lon="2.6258018579030593"><ele>144.0</ele><time>2026-04-08T12:49:55Z</time></trkpt><trkpt lat="42.674710479016774" lon="2.6258953826880758"><ele>144.0</ele><time>2026-04-08T12:49:56Z</time></trkpt><trkpt lat="42.67478108927204" lon="2.6259880376984928"><ele>144.0</ele><time>2026-04-08T12:49:57Z</time></trkpt><trkpt lat="42.67484985558211" lon="2.6260824139697063"><ele>144.0</ele><time>2026-04-08T12:49:58Z</time></trkpt><trkpt lat="42.67490717097576" lon="2.626188921414911"><ele>144.2</ele><time>2026-04-08T12:49:59Z</time></trkpt><trkpt lat="42.67497363723991" lon="2.626295579704743"><ele>144.4</ele><time>2026-04-08T12:50:00Z</time></trkpt><trkpt lat="42.67503326747466" lon="2.62641106961871"><ele>144.6</ele><time>2026-04-08T12:50:00.999Z</time></trkpt><trkpt lat="42.67508701208232" lon="2.626530477667214"><ele>144.8</ele><time>2026-04-08T12:50:01.999Z</time></trkpt><trkpt lat="42.67513339291886" lon="2.626662171017197"><ele>145.0</ele><time>2026-04-08T12:50:02.999Z</time></trkpt><trkpt lat="42.67517779690481" lon="2.6267862513065867"><ele>145.0</ele><time>2026-04-08T12:50:03.999Z</time></trkpt><trkpt lat="42.675229808287575" lon="2.626915479979301"><ele>145.0</ele><time>2026-04-08T12:50:04.999Z</time></trkpt><trkpt lat="42.67528351376492" lon="2.627038453857492"><ele>145.0</ele><time>2026-04-08T12:50:05.999Z</time></trkpt><trkpt lat="42.67534175621717" lon="2.6271924916860154"><ele>145.0</ele><time>2026-04-08T12:50:06.999Z</time></trkpt><trkpt lat="42.67540056065773" lon="2.6273327546646392"><ele>144.8</ele><time>2026-04-08T12:50:07.999Z</time></trkpt><trkpt lat="42.675455984108254" lon="2.627472165178812"><ele>144.6</ele><time>2026-04-08T12:50:08.999Z</time></trkpt><trkpt lat="42.67550854658513" lon="2.627605853975685"><ele>144.4</ele><time>2026-04-08T12:50:09.999Z</time></trkpt><trkpt lat="42.675559503635675" lon="2.6277406471976397"><ele>144.2</ele><time>2026-04-08T12:50:10.999Z</time></trkpt><trkpt lat="42.675604945931646" lon="2.6278578327995694"><ele>144.0</ele><time>2026-04-08T12:50:11.999Z</time></trkpt><trkpt lat="42.67565278391766" lon="2.6279750811959364"><ele>143.83333333333334</ele><time>2026-04-08T12:50:12.999Z</time></trkpt><trkpt lat="42.67569759807579" lon="2.628080391870244"><ele>143.66666666666666</ele><time>2026-04-08T12:50:13.999Z</time></trkpt><trkpt lat="42.67573428996533" lon="2.6281776077030705"><ele>143.5</ele><time>2026-04-08T12:50:14.999Z</time></trkpt><trkpt lat="42.67576353055038" lon="2.6282657909105107"><ele>143.33333333333331</ele><time>2026-04-08T12:50:15.999Z</time></trkpt><trkpt lat="42.6757987551532" lon="2.628395995027256"><ele>143.16666666666666</ele><time>2026-04-08T12:50:17.999Z</time></trkpt><trkpt lat="42.67580202760848" lon="2.628482134991742"><ele>143.0</ele><time>2026-04-08T12:50:20.999Z</time></trkpt><trkpt lat="42.67578632584281" lon="2.628596940276854"><ele>143.33333333333331</ele><time>2026-04-08T12:50:28.999Z</time></trkpt><trkpt lat="42.67580381026189" lon="2.628757601414016"><ele>143.66666666666666</ele><time>2026-04-08T12:50:30.999Z</time></trkpt><trkpt lat="42.67584815993304" lon="2.6288230830679566"><ele>144.0</ele><time>2026-04-08T12:50:31.999Z</time></trkpt><trkpt lat="42.67591193549002" lon="2.628873144520617"><ele>144.33333333333334</ele><time>2026-04-08T12:50:32.999Z</time></trkpt><trkpt lat="42.67597244238371" lon="2.628926687299809"><ele>144.66666666666669</ele><time>2026-04-08T12:50:33.999Z</time></trkpt><trkpt lat="42.67603567064511" lon="2.6289862925222134"><ele>145.0</ele><time>2026-04-08T12:50:34.999Z</time></trkpt><trkpt lat="42.67609467754587" lon="2.629051497156974"><ele>143.8</ele><time>2026-04-08T12:50:35.999Z</time></trkpt><trkpt lat="42.67613228246142" lon="2.629168024009471"><ele>142.6</ele><time>2026-04-08T12:50:36.999Z</time></trkpt><trkpt lat="42.67616839547736" lon="2.629295271967037"><ele>141.4</ele><time>2026-04-08T12:50:37.999Z</time></trkpt><trkpt lat="42.67621241827471" lon="2.6294154353540358"><ele>140.2</ele><time>2026-04-08T12:50:38.999Z</time></trkpt><trkpt lat="42.67626179664734" lon="2.629535784417328"><ele>139.0</ele><time>2026-04-08T12:50:39.999Z</time></trkpt><trkpt lat="42.67631265490757" lon="2.6296592137847483"><ele>139.0</ele><time>2026-04-08T12:50:40.999Z</time></trkpt><trkpt lat="42.676363244694784" lon="2.6297868881387743"><ele>139.0</ele><time>2026-04-08T12:50:41.999Z</time></trkpt><trkpt lat="42.67640504057082" lon="2.6299042827847394"><ele>139.0</ele><time>2026-04-08T12:50:42.999Z</time></trkpt><trkpt lat="42.67645036990304" lon="2.630019188196739"><ele>139.0</ele><time>2026-04-08T12:50:43.999Z</time></trkpt><trkpt lat="42.67649932043388" lon="2.630137086101562"><ele>139.0</ele><time>2026-04-08T12:50:44.999Z</time></trkpt><trkpt lat="42.676554549780256" lon="2.6302731577992264"><ele>139.8</ele><time>2026-04-08T12:50:45.999Z</time></trkpt><trkpt lat="42.67661045723303" lon="2.6304024698514428"><ele>140.60000000000002</ele><time>2026-04-08T12:50:46.999Z</time></trkpt><trkpt lat="42.676661919795286" lon="2.630531819389186"><ele>141.4</ele><time>2026-04-08T12:50:47.999Z</time></trkpt><trkpt lat="42.676715175404674" lon="2.6306639976796564"><ele>142.20000000000002</ele><time>2026-04-08T12:50:48.999Z</time></trkpt><trkpt lat="42.676767172522894" lon="2.6307913275953054"><ele>143.0</ele><time>2026-04-08T12:50:49.999Z</time></trkpt><trkpt lat="42.676816068137654" lon="2.6309167313541812"><ele>143.0</ele><time>2026-04-08T12:50:50.999Z</time></trkpt><trkpt lat="42.676866346597556" lon="2.631046690852478"><ele>143.0</ele><time>2026-04-08T12:50:51.999Z</time></trkpt><trkpt lat="42.67691721626846" lon="2.631171565371755"><ele>143.0</ele><time>2026-04-08T12:50:52.999Z</time></trkpt><trkpt lat="42.676970286165414" lon="2.631298786132856"><ele>143.0</ele><time>2026-04-08T12:50:53.999Z</time></trkpt><trkpt lat="42.67702532427703" lon="2.631425861285117"><ele>143.0</ele><time>2026-04-08T12:50:54.999Z</time></trkpt><trkpt lat="42.677076470813844" lon="2.6315551551409966"><ele>142.0</ele><time>2026-04-08T12:50:55.999Z</time></trkpt><trkpt lat="42.67713224875441" lon="2.6316941537089393"><ele>141.0</ele><time>2026-04-08T12:50:56.999Z</time></trkpt><trkpt lat="42.677185985772994" lon="2.631829924394028"><ele>140.0</ele><time>2026-04-08T12:50:57.999Z</time></trkpt><trkpt lat="42.67723746739645" lon="2.631957675380944"><ele>139.0</ele><time>2026-04-08T12:50:58.999Z</time></trkpt><trkpt lat="42.67728441274306" lon="2.6320691864146006"><ele>138.0</ele><time>2026-04-08T12:50:59.999Z</time></trkpt><trkpt lat="42.6773341191774" lon="2.6321842885332205"><ele>138.0</ele><time>2026-04-08T12:51:00.999Z</time></trkpt><trkpt lat="42.677374028074084" lon="2.632290528712847"><ele>138.0</ele><time>2026-04-08T12:51:01.999Z</time></trkpt><trkpt lat="42.67741042867235" lon="2.632384237159421"><ele>138.0</ele><time>2026-04-08T12:51:02.999Z</time></trkpt><trkpt lat="42.677437503911044" lon="2.6324763004527965"><ele>138.0</ele><time>2026-04-08T12:51:03.999Z</time></trkpt><trkpt lat="42.6774596899316" lon="2.63256194403638"><ele>138.0</ele><time>2026-04-08T12:51:04.999Z</time></trkpt><trkpt lat="42.67746743080841" lon="2.632664106165765"><ele>138.0</ele><time>2026-04-08T12:51:05.999Z</time></trkpt><trkpt lat="42.677456193287576" lon="2.63276887200318"><ele>138.0</ele><time>2026-04-08T12:51:06.999Z</time></trkpt><trkpt lat="42.6774516215073" lon="2.6328742400134146"><ele>138.0</ele><time>2026-04-08T12:51:07.999Z</time></trkpt><trkpt lat="42.67746559735123" lon="2.6329751538773665"><ele>138.0</ele><time>2026-04-08T12:51:08.999Z</time></trkpt><trkpt lat="42.67749835593521" lon="2.6330587899126754"><ele>138.0</ele><time>2026-04-08T12:51:09.999Z</time></trkpt><trkpt lat="42.677551494473114" lon="2.6331192167756066"><ele>138.0</ele><time>2026-04-08T12:51:10.999Z</time></trkpt><trkpt lat="42.67761669756625" lon="2.633155170696188"><ele>138.0</ele><time>2026-04-08T12:51:11.999Z</time></trkpt><trkpt lat="42.677682881703944" lon="2.6331600364000516"><ele>138.0</ele><time>2026-04-08T12:51:12.999Z</time></trkpt><trkpt lat="42.67780806998781" lon="2.6330627068311387"><ele>137.5</ele><time>2026-04-08T12:51:14.999Z</time></trkpt><trkpt lat="42.67785514455923" lon="2.632970644583503"><ele>137.0</ele><time>2026-04-08T12:51:15.999Z</time></trkpt><trkpt lat="42.67789444325593" lon="2.6328683790158443"><ele>136.5</ele><time>2026-04-08T12:51:16.999Z</time></trkpt><trkpt lat="42.677941982550976" lon="2.632762916645151"><ele>136.0</ele><time>2026-04-08T12:51:17.999Z</time></trkpt><trkpt lat="42.6780042763988" lon="2.632675995128253"><ele>135.5</ele><time>2026-04-08T12:51:18.999Z</time></trkpt><trkpt lat="42.67808010988803" lon="2.632615948469192"><ele>135.0</ele><time>2026-04-08T12:51:19.999Z</time></trkpt><trkpt lat="42.67818869094466" lon="2.632546598414412"><ele>134.5</ele><time>2026-04-08T12:51:20.999Z</time></trkpt><trkpt lat="42.67830770711648" lon="2.6324747761326313"><ele>134.0</ele><time>2026-04-08T12:51:21.998Z</time></trkpt><trkpt lat="42.67844533056986" lon="2.6323936305082065"><ele>133.5</ele><time>2026-04-08T12:51:22.998Z</time></trkpt><trkpt lat="42.67859290063469" lon="2.632300667460973"><ele>133.0</ele><time>2026-04-08T12:51:23.998Z</time></trkpt><trkpt lat="42.67874937306565" lon="2.6321982124250307"><ele>133.0</ele><time>2026-04-08T12:51:24.998Z</time></trkpt><trkpt lat="42.678905983093635" lon="2.6320953875006396"><ele>133.0</ele><time>2026-04-08T12:51:25.998Z</time></trkpt><trkpt lat="42.67905831870413" lon="2.632002948443032"><ele>133.0</ele><time>2026-04-08T12:51:27Z</time></trkpt><trkpt lat="42.679204718640065" lon="2.631907809519803"><ele>133.0</ele><time>2026-04-08T12:51:28Z</time></trkpt><trkpt lat="42.67934692157472" lon="2.631802257864224"><ele>133.0</ele><time>2026-04-08T12:51:29Z</time></trkpt><trkpt lat="42.67948352396224" lon="2.631685617929976"><ele>133.0</ele><time>2026-04-08T12:51:30Z</time></trkpt><trkpt lat="42.67960636088787" lon="2.6315564166580416"><ele>132.66666666666669</ele><time>2026-04-08T12:51:31Z</time></trkpt><trkpt lat="42.67971779266978" lon="2.6314089808981347"><ele>132.33333333333334</ele><time>2026-04-08T12:51:32Z</time></trkpt><trkpt lat="42.67981669964864" lon="2.631246416012712"><ele>132.0</ele><time>2026-04-08T12:51:33Z</time></trkpt><trkpt lat="42.67989873426494" lon="2.6310745470487023"><ele>132.0</ele><time>2026-04-08T12:51:34Z</time></trkpt><trkpt lat="42.67996328142123" lon="2.630909864981609"><ele>132.0</ele><time>2026-04-08T12:51:35Z</time></trkpt><trkpt lat="42.680025875886784" lon="2.6307743165286173"><ele>132.0</ele><time>2026-04-08T12:51:36Z</time></trkpt><trkpt lat="42.680076085829235" lon="2.6306316303553583"><ele>132.0</ele><time>2026-04-08T12:51:37Z</time></trkpt><trkpt lat="42.68012025214534" lon="2.630501578713753"><ele>132.0</ele><time>2026-04-08T12:51:38Z</time></trkpt><trkpt lat="42.6801608829751" lon="2.630381937574205"><ele>132.0</ele><time>2026-04-08T12:51:39Z</time></trkpt><trkpt lat="42.680196575126686" lon="2.630276838920983"><ele>132.0</ele><time>2026-04-08T12:51:40Z</time></trkpt><trkpt lat="42.680218896379436" lon="2.6301841141505355"><ele>132.0</ele><time>2026-04-08T12:51:41Z</time></trkpt><trkpt lat="42.680272162711745" lon="2.630124826531598"><ele>132.0</ele><time>2026-04-08T12:51:42Z</time></trkpt><trkpt lat="42.68041007423081" lon="2.6300857515719778"><ele>131.79999999999998</ele><time>2026-04-08T12:51:44Z</time></trkpt><trkpt lat="42.680487666789375" lon="2.6301034881401484"><ele>131.6</ele><time>2026-04-08T12:51:45Z</time></trkpt><trkpt lat="42.680567812924906" lon="2.6301414802423784"><ele>131.39999999999998</ele><time>2026-04-08T12:51:46Z</time></trkpt><trkpt lat="42.6806569436033" lon="2.6301818447479413"><ele>131.2</ele><time>2026-04-08T12:51:47Z</time></trkpt><trkpt lat="42.68075677518512" lon="2.6302147869865244"><ele>131.0</ele><time>2026-04-08T12:51:48Z</time></trkpt><trkpt lat="42.68086128653338" lon="2.630246077049786"><ele>131.0</ele><time>2026-04-08T12:51:49Z</time></trkpt><trkpt lat="42.68096698970016" lon="2.630272386596413"><ele>131.0</ele><time>2026-04-08T12:51:50Z</time></trkpt><trkpt lat="42.681084449199155" lon="2.630304587969737"><ele>131.0</ele><time>2026-04-08T12:51:51Z</time></trkpt><trkpt lat="42.681192030966294" lon="2.6303322787572694"><ele>131.0</ele><time>2026-04-08T12:51:52Z</time></trkpt><trkpt lat="42.68129988234039" lon="2.630356807099776"><ele>131.0</ele><time>2026-04-08T12:51:53Z</time></trkpt><trkpt lat="42.681415330571284" lon="2.6303812237888873"><ele>130.5</ele><time>2026-04-08T12:51:54Z</time></trkpt><trkpt lat="42.68152759397517" lon="2.6304041316873903"><ele>130.0</ele><time>2026-04-08T12:51:55Z</time></trkpt><trkpt lat="42.68168703952236" lon="2.630449459773175"><ele>129.5</ele><time>2026-04-08T12:51:56Z</time></trkpt><trkpt lat="42.681755051880664" lon="2.6304698031041736"><ele>129.0</ele><time>2026-04-08T12:51:57Z</time></trkpt><trkpt lat="42.68190568515264" lon="2.6305234019108323"><ele>129.0</ele><time>2026-04-08T12:51:58Z</time></trkpt><trkpt lat="42.68208175544456" lon="2.6305353889550713"><ele>129.0</ele><time>2026-04-08T12:51:59Z</time></trkpt><trkpt lat="42.68226305490587" lon="2.630575889603136"><ele>129.0</ele><time>2026-04-08T12:52:00Z</time></trkpt><trkpt lat="42.682445916367385" lon="2.6306149435818926"><ele>129.0</ele><time>2026-04-08T12:52:01Z</time></trkpt><trkpt lat="42.68264010219771" lon="2.6306559661012754"><ele>129.0</ele><time>2026-04-08T12:52:02Z</time></trkpt><trkpt lat="42.68284301912925" lon="2.6307040991824713"><ele>129.0</ele><time>2026-04-08T12:52:03Z</time></trkpt><trkpt lat="42.683051957019856" lon="2.6307565178506147"><ele>129.0</ele><time>2026-04-08T12:52:04Z</time></trkpt><trkpt lat="42.68326669257864" lon="2.6308179246615397"><ele>129.0</ele><time>2026-04-08T12:52:05Z</time></trkpt><trkpt lat="42.683485550484725" lon="2.630888808475191"><ele>129.0</ele><time>2026-04-08T12:52:05.999Z</time></trkpt><trkpt lat="42.683702670825745" lon="2.6309565878922236"><ele>128.0</ele><time>2026-04-08T12:52:06.999Z</time></trkpt><trkpt lat="42.68391872407513" lon="2.6310501160619792"><ele>127.0</ele><time>2026-04-08T12:52:07.999Z</time></trkpt><trkpt lat="42.68412418604818" lon="2.6311765673953476"><ele>127.0</ele><time>2026-04-08T12:52:08.999Z</time></trkpt><trkpt lat="42.68432265326842" lon="2.631323331674885"><ele>127.0</ele><time>2026-04-08T12:52:09.999Z</time></trkpt><trkpt lat="42.68452265986995" lon="2.631464871468827"><ele>126.66666666666667</ele><time>2026-04-08T12:52:10.999Z</time></trkpt><trkpt lat="42.68471811843661" lon="2.631614446063389"><ele>126.33333333333334</ele><time>2026-04-08T12:52:11.999Z</time></trkpt><trkpt lat="42.684907278058716" lon="2.6317790784353945"><ele>126.0</ele><time>2026-04-08T12:52:12.999Z</time></trkpt><trkpt lat="42.685085486088504" lon="2.6319612276456654"><ele>126.0</ele><time>2026-04-08T12:52:13.999Z</time></trkpt><trkpt lat="42.68526563774119" lon="2.632139919493067"><ele>126.0</ele><time>2026-04-08T12:52:14.999Z</time></trkpt><trkpt lat="42.68543813129837" lon="2.632331420522691"><ele>126.0</ele><time>2026-04-08T12:52:15.999Z</time></trkpt><trkpt lat="42.68560155302637" lon="2.6325386625294276"><ele>126.0</ele><time>2026-04-08T12:52:16.999Z</time></trkpt><trkpt lat="42.68576044148136" lon="2.632762433863053"><ele>126.0</ele><time>2026-04-08T12:52:17.999Z</time></trkpt><trkpt lat="42.68591231185803" lon="2.633000107016919"><ele>124.5</ele><time>2026-04-08T12:52:18.999Z</time></trkpt><trkpt lat="42.68603607050032" lon="2.6332738138396627"><ele>123.0</ele><time>2026-04-08T12:52:19.999Z</time></trkpt><trkpt lat="42.68617406084274" lon="2.633530437102001"><ele>123.0</ele><time>2026-04-08T12:52:20.999Z</time></trkpt><trkpt lat="42.686312286028304" lon="2.633789391711147"><ele>123.0</ele><time>2026-04-08T12:52:21.999Z</time></trkpt><trkpt lat="42.686451273779156" lon="2.6340491291946195"><ele>123.0</ele><time>2026-04-08T12:52:22.999Z</time></trkpt><trkpt lat="42.686588641743135" lon="2.6343074596699014"><ele>123.0</ele><time>2026-04-08T12:52:23.999Z</time></trkpt><trkpt lat="42.686728615851756" lon="2.6345605617913517"><ele>123.0</ele><time>2026-04-08T12:52:24.999Z</time></trkpt><trkpt lat="42.68687165722281" lon="2.634817726748295"><ele>123.0</ele><time>2026-04-08T12:52:25.999Z</time></trkpt><trkpt lat="42.687012104236125" lon="2.6350722904647577"><ele>122.5</ele><time>2026-04-08T12:52:26.999Z</time></trkpt><trkpt lat="42.68715308370492" lon="2.635333181635485"><ele>122.0</ele><time>2026-04-08T12:52:27.999Z</time></trkpt><trkpt lat="42.687294809426675" lon="2.6355936116395973"><ele>122.0</ele><time>2026-04-08T12:52:28.999Z</time></trkpt><trkpt lat="42.68744059284223" lon="2.635850172076464"><ele>122.0</ele><time>2026-04-08T12:52:29.999Z</time></trkpt><trkpt lat="42.68759299022129" lon="2.636103152258975"><ele>122.0</ele><time>2026-04-08T12:52:30.999Z</time></trkpt><trkpt lat="42.687751474506776" lon="2.6363543478024627"><ele>122.0</ele><time>2026-04-08T12:52:31.999Z</time></trkpt><trkpt lat="42.687910821953714" lon="2.636596752573674"><ele>122.0</ele><time>2026-04-08T12:52:32.999Z</time></trkpt><trkpt lat="42.68807415243706" lon="2.636835764818952"><ele>122.0</ele><time>2026-04-08T12:52:33.999Z</time></trkpt><trkpt lat="42.68824375041003" lon="2.637069265396211"><ele>123.5</ele><time>2026-04-08T12:52:34.999Z</time></trkpt><trkpt lat="42.688415158744014" lon="2.6373045916788898"><ele>125.0</ele><time>2026-04-08T12:52:35.999Z</time></trkpt><trkpt lat="42.68859099777469" lon="2.637533473341798"><ele>124.5</ele><time>2026-04-08T12:52:36.999Z</time></trkpt><trkpt lat="42.688773468069144" lon="2.6377615044790534"><ele>124.0</ele><time>2026-04-08T12:52:37.999Z</time></trkpt><trkpt lat="42.68895858552926" lon="2.6379898751056823"><ele>124.0</ele><time>2026-04-08T12:52:38.999Z</time></trkpt><trkpt lat="42.68914699999561" lon="2.6382260755331584"><ele>124.0</ele><time>2026-04-08T12:52:39.999Z</time></trkpt><trkpt lat="42.68933156363817" lon="2.638460019289922"><ele>122.5</ele><time>2026-04-08T12:52:40.999Z</time></trkpt><trkpt lat="42.68951884341073" lon="2.6386944350341146"><ele>121.0</ele><time>2026-04-08T12:52:41.999Z</time></trkpt><trkpt lat="42.68970340142431" lon="2.638930669946595"><ele>121.0</ele><time>2026-04-08T12:52:42.999Z</time></trkpt><trkpt lat="42.68989092134107" lon="2.639166449772579"><ele>121.0</ele><time>2026-04-08T12:52:43.999Z</time></trkpt><trkpt lat="42.69007613881751" lon="2.639403004424876"><ele>121.0</ele><time>2026-04-08T12:52:44.999Z</time></trkpt><trkpt lat="42.690264183411344" lon="2.6396404652579317"><ele>121.0</ele><time>2026-04-08T12:52:45.999Z</time></trkpt><trkpt lat="42.69045107559097" lon="2.6398748953994153"><ele>121.0</ele><time>2026-04-08T12:52:46.999Z</time></trkpt><trkpt lat="42.69063880623389" lon="2.640110398042332"><ele>121.0</ele><time>2026-04-08T12:52:47.999Z</time></trkpt><trkpt lat="42.69082449782114" lon="2.6403428792958232"><ele>121.0</ele><time>2026-04-08T12:52:48.999Z</time></trkpt><trkpt lat="42.69100897685271" lon="2.640579387521465"><ele>121.0</ele><time>2026-04-08T12:52:49.999Z</time></trkpt><trkpt lat="42.691192336446115" lon="2.640814848555542"><ele>121.0</ele><time>2026-04-08T12:52:50.999Z</time></trkpt><trkpt lat="42.69137661114141" lon="2.6410509477843296"><ele>121.0</ele><time>2026-04-08T12:52:51.999Z</time></trkpt><trkpt lat="42.6915574129532" lon="2.6412862151098824"><ele>121.0</ele><time>2026-04-08T12:52:52.999Z</time></trkpt><trkpt lat="42.69173195717396" lon="2.641534380303345"><ele>121.0</ele><time>2026-04-08T12:52:53.999Z</time></trkpt><trkpt lat="42.691899328700664" lon="2.6417878374119024"><ele>121.5</ele><time>2026-04-08T12:52:54.999Z</time></trkpt><trkpt lat="42.6920593105509" lon="2.642040527015901"><ele>122.0</ele><time>2026-04-08T12:52:55.999Z</time></trkpt><trkpt lat="42.69221138731225" lon="2.6423060162360534"><ele>122.0</ele><time>2026-04-08T12:52:56.999Z</time></trkpt><trkpt lat="42.69235649692292" lon="2.642569729039135"><ele>122.0</ele><time>2026-04-08T12:52:57.999Z</time></trkpt><trkpt lat="42.6924976209968" lon="2.642839817190245"><ele>122.0</ele><time>2026-04-08T12:52:58.999Z</time></trkpt><trkpt lat="42.69263050899703" lon="2.643116367715248"><ele>122.0</ele><time>2026-04-08T12:52:59.999Z</time></trkpt><trkpt lat="42.69275714416426" lon="2.643395211570175"><ele>119.5</ele><time>2026-04-08T12:53:00.999Z</time></trkpt><trkpt lat="42.6928778293653" lon="2.6436852426628854"><ele>117.0</ele><time>2026-04-08T12:53:01.999Z</time></trkpt><trkpt lat="42.692992850120056" lon="2.64397671453729"><ele>117.0</ele><time>2026-04-08T12:53:02.999Z</time></trkpt><trkpt lat="42.69309886378523" lon="2.6442721721719615"><ele>117.0</ele><time>2026-04-08T12:53:03.999Z</time></trkpt><trkpt lat="42.69320030572674" lon="2.6445733743044046"><ele>118.0</ele><time>2026-04-08T12:53:04.999Z</time></trkpt><trkpt lat="42.69329572986959" lon="2.644877455198574"><ele>119.0</ele><time>2026-04-08T12:53:05.999Z</time></trkpt><trkpt lat="42.69338489855539" lon="2.645185379951157"><ele>119.0</ele><time>2026-04-08T12:53:06.999Z</time></trkpt><trkpt lat="42.69346910034101" lon="2.6455029593717043"><ele>119.0</ele><time>2026-04-08T12:53:07.999Z</time></trkpt><trkpt lat="42.69354729796473" lon="2.6458226593939225"><ele>118.0</ele><time>2026-04-08T12:53:08.999Z</time></trkpt><trkpt lat="42.69361503394275" lon="2.646147316512472"><ele>117.0</ele><time>2026-04-08T12:53:09.999Z</time></trkpt><trkpt lat="42.693672148653434" lon="2.646469317091828"><ele>117.0</ele><time>2026-04-08T12:53:10.999Z</time></trkpt><trkpt lat="42.693720553602645" lon="2.6467984156671416"><ele>117.0</ele><time>2026-04-08T12:53:11.999Z</time></trkpt><trkpt lat="42.69375717883303" lon="2.647130299210915"><ele>117.0</ele><time>2026-04-08T12:53:12.999Z</time></trkpt><trkpt lat="42.69379439452731" lon="2.6474592745446204"><ele>117.0</ele><time>2026-04-08T12:53:13.999Z</time></trkpt><trkpt lat="42.693824320882165" lon="2.647794609770383"><ele>117.0</ele><time>2026-04-08T12:53:14.999Z</time></trkpt><trkpt lat="42.693846185947116" lon="2.648125927123684"><ele>117.0</ele><time>2026-04-08T12:53:15.999Z</time></trkpt><trkpt lat="42.6938640211347" lon="2.6484690300773592"><ele>116.0</ele><time>2026-04-08T12:53:16.999Z</time></trkpt><trkpt lat="42.6938684215716" lon="2.64880157885329"><ele>115.0</ele><time>2026-04-08T12:53:17.999Z</time></trkpt><trkpt lat="42.69386917437866" lon="2.649141413780589"><ele>114.0</ele><time>2026-04-08T12:53:18.999Z</time></trkpt><trkpt lat="42.69386036904903" lon="2.6494779759138596"><ele>113.0</ele><time>2026-04-08T12:53:19.999Z</time></trkpt><trkpt lat="42.69384790926109" lon="2.6498185322125183"><ele>113.0</ele><time>2026-04-08T12:53:20.999Z</time></trkpt><trkpt lat="42.69382587402503" lon="2.650154648184946"><ele>113.0</ele><time>2026-04-08T12:53:21.999Z</time></trkpt><trkpt lat="42.693795264328465" lon="2.65048484359466"><ele>113.0</ele><time>2026-04-08T12:53:22.999Z</time></trkpt><trkpt lat="42.69377101266197" lon="2.650827216120778"><ele>113.0</ele><time>2026-04-08T12:53:23.999Z</time></trkpt><trkpt lat="42.69374215211229" lon="2.6511569248765205"><ele>113.5</ele><time>2026-04-08T12:53:24.999Z</time></trkpt><trkpt lat="42.69371225908723" lon="2.6514909406887512"><ele>114.0</ele><time>2026-04-08T12:53:25.999Z</time></trkpt><trkpt lat="42.693684130070174" lon="2.651821186110928"><ele>113.5</ele><time>2026-04-08T12:53:26.999Z</time></trkpt><trkpt lat="42.69365417667311" lon="2.6521488512915115"><ele>113.0</ele><time>2026-04-08T12:53:27.999Z</time></trkpt><trkpt lat="42.693625810363955" lon="2.652483433820111"><ele>114.0</ele><time>2026-04-08T12:53:28.999Z</time></trkpt><trkpt lat="42.69359541561769" lon="2.6528132278811825"><ele>115.0</ele><time>2026-04-08T12:53:29.999Z</time></trkpt><trkpt lat="42.69356476356775" lon="2.653149425511399"><ele>116.5</ele><time>2026-04-08T12:53:30.999Z</time></trkpt><trkpt lat="42.69353456579285" lon="2.653488438398738"><ele>118.0</ele><time>2026-04-08T12:53:31.999Z</time></trkpt><trkpt lat="42.69350141233417" lon="2.6538241746032667"><ele>118.5</ele><time>2026-04-08T12:53:33Z</time></trkpt><trkpt lat="42.6934740819044" lon="2.654159674469648"><ele>119.0</ele><time>2026-04-08T12:53:34Z</time></trkpt><trkpt lat="42.69344473677316" lon="2.654494380709448"><ele>117.5</ele><time>2026-04-08T12:53:35Z</time></trkpt><trkpt lat="42.693418681720864" lon="2.65482732497493"><ele>116.0</ele><time>2026-04-08T12:53:36Z</time></trkpt><trkpt lat="42.693391693253524" lon="2.6551635131481173"><ele>115.5</ele><time>2026-04-08T12:53:37Z</time></trkpt><trkpt lat="42.693364165123974" lon="2.655500304691701"><ele>115.0</ele><time>2026-04-08T12:53:38Z</time></trkpt><trkpt lat="42.69333642436049" lon="2.6558357525978082"><ele>115.0</ele><time>2026-04-08T12:53:39Z</time></trkpt><trkpt lat="42.693307708803935" lon="2.656177547694475"><ele>115.0</ele><time>2026-04-08T12:53:40Z</time></trkpt><trkpt lat="42.69328234608375" lon="2.656517635149225"><ele>115.0</ele><time>2026-04-08T12:53:41Z</time></trkpt><trkpt lat="42.69326458269089" lon="2.6568596523696297"><ele>115.0</ele><time>2026-04-08T12:53:42Z</time></trkpt><trkpt lat="42.693255731742546" lon="2.657201681882252"><ele>114.5</ele><time>2026-04-08T12:53:43Z</time></trkpt><trkpt lat="42.693256826196226" lon="2.6575462368489204"><ele>114.0</ele><time>2026-04-08T12:53:44Z</time></trkpt><trkpt lat="42.693265240014476" lon="2.657887971032743"><ele>114.0</ele><time>2026-04-08T12:53:45Z</time></trkpt><trkpt lat="42.69327927893695" lon="2.6582274479466563"><ele>114.0</ele><time>2026-04-08T12:53:46Z</time></trkpt><trkpt lat="42.69330460237104" lon="2.658571610672942"><ele>113.5</ele><time>2026-04-08T12:53:47Z</time></trkpt><trkpt lat="42.69334088990996" lon="2.658911355255225"><ele>113.0</ele><time>2026-04-08T12:53:48Z</time></trkpt><trkpt lat="42.693383133931995" lon="2.6592494831179474"><ele>114.0</ele><time>2026-04-08T12:53:49Z</time></trkpt><trkpt lat="42.69343426237926" lon="2.6595869229887543"><ele>115.0</ele><time>2026-04-08T12:53:50Z</time></trkpt><trkpt lat="42.69349799662446" lon="2.659920538049712"><ele>115.0</ele><time>2026-04-08T12:53:51Z</time></trkpt><trkpt lat="42.69356894499685" lon="2.660249801402993"><ele>115.0</ele><time>2026-04-08T12:53:52Z</time></trkpt><trkpt lat="42.69364628089228" lon="2.6605785040023084"><ele>112.5</ele><time>2026-04-08T12:53:53Z</time></trkpt><trkpt lat="42.69372990848952" lon="2.6609035524357765"><ele>110.0</ele><time>2026-04-08T12:53:54Z</time></trkpt><trkpt lat="42.69382364672003" lon="2.66122630735318"><ele>109.5</ele><time>2026-04-08T12:53:55Z</time></trkpt><trkpt lat="42.69393031346529" lon="2.6615396743974276"><ele>109.0</ele><time>2026-04-08T12:53:56Z</time></trkpt><trkpt lat="42.694043537391515" lon="2.66184755815057"><ele>110.0</ele><time>2026-04-08T12:53:57Z</time></trkpt><trkpt lat="42.69416421327451" lon="2.662145642148335"><ele>111.0</ele><time>2026-04-08T12:53:58Z</time></trkpt><trkpt lat="42.69428952963919" lon="2.6624439706709646"><ele>111.0</ele><time>2026-04-08T12:53:59Z</time></trkpt><trkpt lat="42.69442017516927" lon="2.662734242232969"><ele>111.0</ele><time>2026-04-08T12:54:00Z</time></trkpt><trkpt lat="42.69455822244769" lon="2.663023765601"><ele>109.5</ele><time>2026-04-08T12:54:01Z</time></trkpt><trkpt lat="42.69469726519144" lon="2.663311570795926"><ele>108.0</ele><time>2026-04-08T12:54:02Z</time></trkpt><trkpt lat="42.69483643908905" lon="2.6635982851245035"><ele>108.5</ele><time>2026-04-08T12:54:03Z</time></trkpt><trkpt lat="42.694975151944824" lon="2.6638826173650925"><ele>109.0</ele><time>2026-04-08T12:54:04Z</time></trkpt><trkpt lat="42.695112823279096" lon="2.6641711114583506"><ele>108.5</ele><time>2026-04-08T12:54:05Z</time></trkpt><trkpt lat="42.69524973237361" lon="2.664458688910187"><ele>108.0</ele><time>2026-04-08T12:54:06Z</time></trkpt><trkpt lat="42.695385410993566" lon="2.6647452126938527"><ele>108.0</ele><time>2026-04-08T12:54:07Z</time></trkpt><trkpt lat="42.69552285697647" lon="2.6650314987347037"><ele>108.0</ele><time>2026-04-08T12:54:08Z</time></trkpt><trkpt lat="42.6956599320132" lon="2.665317103048318"><ele>108.5</ele><time>2026-04-08T12:54:09Z</time></trkpt><trkpt lat="42.69579486112266" lon="2.6655994205185896"><ele>109.0</ele><time>2026-04-08T12:54:10Z</time></trkpt><trkpt lat="42.695931996431085" lon="2.6658815950262893"><ele>109.5</ele><time>2026-04-08T12:54:11Z</time></trkpt><trkpt lat="42.696068517909104" lon="2.66616738065082"><ele>110.0</ele><time>2026-04-08T12:54:12Z</time></trkpt><trkpt lat="42.69620498547332" lon="2.6664501187103857"><ele>109.5</ele><time>2026-04-08T12:54:13Z</time></trkpt><trkpt lat="42.69634103443454" lon="2.6667347670347863"><ele>109.0</ele><time>2026-04-08T12:54:13.999Z</time></trkpt><trkpt lat="42.6964777574106" lon="2.667017612031211"><ele>109.0</ele><time>2026-04-08T12:54:14.999Z</time></trkpt><trkpt lat="42.69661593578677" lon="2.667302345289026"><ele>109.0</ele><time>2026-04-08T12:54:15.999Z</time></trkpt><trkpt lat="42.69675438513798" lon="2.667585328182889"><ele>109.5</ele><time>2026-04-08T12:54:16.999Z</time></trkpt><trkpt lat="42.696890257904734" lon="2.6678757221967486"><ele>110.0</ele><time>2026-04-08T12:54:17.999Z</time></trkpt><trkpt lat="42.69702845379194" lon="2.6681656284750948"><ele>109.0</ele><time>2026-04-08T12:54:18.999Z</time></trkpt><trkpt lat="42.69716589842126" lon="2.668455058695148"><ele>108.0</ele><time>2026-04-08T12:54:19.999Z</time></trkpt><trkpt lat="42.69730473346721" lon="2.6687513662125095"><ele>108.0</ele><time>2026-04-08T12:54:20.999Z</time></trkpt><trkpt lat="42.69743974356321" lon="2.669049446263144"><ele>108.0</ele><time>2026-04-08T12:54:21.999Z</time></trkpt><trkpt lat="42.69757033389983" lon="2.669349475511491"><ele>107.5</ele><time>2026-04-08T12:54:22.999Z</time></trkpt><trkpt lat="42.697691531214154" lon="2.6696457442856483"><ele>107.0</ele><time>2026-04-08T12:54:23.999Z</time></trkpt><trkpt lat="42.69780661478141" lon="2.6699417554996674"><ele>105.5</ele><time>2026-04-08T12:54:24.999Z</time></trkpt><trkpt lat="42.69791450884003" lon="2.6702378019953383"><ele>104.0</ele><time>2026-04-08T12:54:25.999Z</time></trkpt><trkpt lat="42.698016050366746" lon="2.6705338423167606"><ele>104.0</ele><time>2026-04-08T12:54:26.999Z</time></trkpt><trkpt lat="42.69811661315324" lon="2.6708277078691958"><ele>104.0</ele><time>2026-04-08T12:54:27.999Z</time></trkpt><trkpt lat="42.69820982185567" lon="2.671135251061754"><ele>105.0</ele><time>2026-04-08T12:54:28.999Z</time></trkpt><trkpt lat="42.698299455818294" lon="2.671436425681973"><ele>106.0</ele><time>2026-04-08T12:54:29.999Z</time></trkpt><trkpt lat="42.69838593350195" lon="2.671740602223854"><ele>106.0</ele><time>2026-04-08T12:54:30.999Z</time></trkpt><trkpt lat="42.69846920653781" lon="2.6720471556507857"><ele>106.0</ele><time>2026-04-08T12:54:31.999Z</time></trkpt><trkpt lat="42.6985449175973" lon="2.6723558043861497"><ele>105.5</ele><time>2026-04-08T12:54:32.999Z</time></trkpt><trkpt lat="42.698619325325915" lon="2.6726725326201883"><ele>105.0</ele><time>2026-04-08T12:54:33.999Z</time></trkpt><trkpt lat="42.698686681318385" lon="2.6729926728763873"><ele>105.0</ele><time>2026-04-08T12:54:34.999Z</time></trkpt><trkpt lat="42.69874350148101" lon="2.6733057635094175"><ele>105.0</ele><time>2026-04-08T12:54:35.999Z</time></trkpt><trkpt lat="42.698796511947926" lon="2.6736172301536008"><ele>104.0</ele><time>2026-04-08T12:54:36.999Z</time></trkpt><trkpt lat="42.69884429072818" lon="2.6739228016346273"><ele>103.0</ele><time>2026-04-08T12:54:37.999Z</time></trkpt><trkpt lat="42.69888964097956" lon="2.674231098077822"><ele>102.5</ele><time>2026-04-08T12:54:38.999Z</time></trkpt><trkpt lat="42.698926297244576" lon="2.6745394830297435"><ele>102.0</ele><time>2026-04-08T12:54:39.999Z</time></trkpt><trkpt lat="42.69896341709407" lon="2.6748437074886096"><ele>102.0</ele><time>2026-04-08T12:54:40.999Z</time></trkpt><trkpt lat="42.69900363673701" lon="2.675156901799546"><ele>102.0</ele><time>2026-04-08T12:54:41.999Z</time></trkpt><trkpt lat="42.69903815746631" lon="2.6754832353495828"><ele>103.0</ele><time>2026-04-08T12:54:42.999Z</time></trkpt><trkpt lat="42.69906916199965" lon="2.6758036749974736"><ele>104.0</ele><time>2026-04-08T12:54:43.999Z</time></trkpt><trkpt lat="42.69909408820677" lon="2.6761284390189304"><ele>104.5</ele><time>2026-04-08T12:54:44.999Z</time></trkpt><trkpt lat="42.699107931545086" lon="2.676461987789932"><ele>105.0</ele><time>2026-04-08T12:54:45.999Z</time></trkpt><trkpt lat="42.69911685498867" lon="2.676801721788226"><ele>104.5</ele><time>2026-04-08T12:54:46.999Z</time></trkpt><trkpt lat="42.699119988639964" lon="2.677143883055372"><ele>104.0</ele><time>2026-04-08T12:54:47.999Z</time></trkpt><trkpt lat="42.699118277243976" lon="2.677486351684844"><ele>102.5</ele><time>2026-04-08T12:54:48.999Z</time></trkpt><trkpt lat="42.69911101017738" lon="2.6778253830662333"><ele>101.0</ele><time>2026-04-08T12:54:49.999Z</time></trkpt><trkpt lat="42.69909531405731" lon="2.678169096158415"><ele>101.0</ele><time>2026-04-08T12:54:50.999Z</time></trkpt><trkpt lat="42.69907511573125" lon="2.678514714232704"><ele>101.0</ele><time>2026-04-08T12:54:51.999Z</time></trkpt><trkpt lat="42.69904855345408" lon="2.678860214400324"><ele>100.5</ele><time>2026-04-08T12:54:52.999Z</time></trkpt><trkpt lat="42.699017816185766" lon="2.679202310931625"><ele>100.0</ele><time>2026-04-08T12:54:53.999Z</time></trkpt><trkpt lat="42.6989813838302" lon="2.6795424292599677"><ele>99.0</ele><time>2026-04-08T12:54:54.999Z</time></trkpt><trkpt lat="42.69894052344491" lon="2.679885988784593"><ele>98.0</ele><time>2026-04-08T12:54:55.999Z</time></trkpt><trkpt lat="42.698895048853544" lon="2.6802294669665896"><ele>98.5</ele><time>2026-04-08T12:54:56.999Z</time></trkpt><trkpt lat="42.69886188984441" lon="2.6805738155400163"><ele>99.0</ele><time>2026-04-08T12:54:57.999Z</time></trkpt><trkpt lat="42.69882236451861" lon="2.680915435489257"><ele>98.5</ele><time>2026-04-08T12:54:58.999Z</time></trkpt><trkpt lat="42.698783144431964" lon="2.681256500839401"><ele>98.0</ele><time>2026-04-08T12:54:59.999Z</time></trkpt><trkpt lat="42.69874371870986" lon="2.6816014060464823"><ele>97.5</ele><time>2026-04-08T12:55:00.999Z</time></trkpt><trkpt lat="42.698704147230494" lon="2.6819466675536066"><ele>97.0</ele><time>2026-04-08T12:55:01.999Z</time></trkpt><trkpt lat="42.69866611522881" lon="2.6822910682122942"><ele>97.0</ele><time>2026-04-08T12:55:02.999Z</time></trkpt><trkpt lat="42.698628320165795" lon="2.6826323957880573"><ele>97.0</ele><time>2026-04-08T12:55:03.999Z</time></trkpt><trkpt lat="42.69859163175356" lon="2.6829749953710564"><ele>97.0</ele><time>2026-04-08T12:55:04.999Z</time></trkpt><trkpt lat="42.69855103245612" lon="2.68331432180037"><ele>97.0</ele><time>2026-04-08T12:55:05.999Z</time></trkpt><trkpt lat="42.698512531945745" lon="2.6836531958876013"><ele>97.0</ele><time>2026-04-08T12:55:06.999Z</time></trkpt><trkpt lat="42.698477477198196" lon="2.6839929352487966"><ele>97.0</ele><time>2026-04-08T12:55:07.999Z</time></trkpt><trkpt lat="42.698441599741074" lon="2.6843346913019728"><ele>97.5</ele><time>2026-04-08T12:55:08.999Z</time></trkpt><trkpt lat="42.69840196334403" lon="2.684666887513443"><ele>98.0</ele><time>2026-04-08T12:55:09.999Z</time></trkpt><trkpt lat="42.6983602975241" lon="2.6850039586758077"><ele>98.0</ele><time>2026-04-08T12:55:10.999Z</time></trkpt><trkpt lat="42.698323285900294" lon="2.6853480121129043"><ele>98.0</ele><time>2026-04-08T12:55:11.999Z</time></trkpt><trkpt lat="42.69828628511219" lon="2.68568723486963"><ele>98.0</ele><time>2026-04-08T12:55:12.999Z</time></trkpt><trkpt lat="42.69824919822605" lon="2.686029120584746"><ele>98.0</ele><time>2026-04-08T12:55:13.999Z</time></trkpt><trkpt lat="42.698214789849125" lon="2.6863719972102706"><ele>98.0</ele><time>2026-04-08T12:55:14.999Z</time></trkpt><trkpt lat="42.69817840214697" lon="2.6867140397729736"><ele>98.0</ele><time>2026-04-08T12:55:15.999Z</time></trkpt><trkpt lat="42.698140833955264" lon="2.6870500572606937"><ele>97.5</ele><time>2026-04-08T12:55:16.999Z</time></trkpt><trkpt lat="42.698092834011206" lon="2.6873872873235505"><ele>97.0</ele><time>2026-04-08T12:55:17.999Z</time></trkpt><trkpt lat="42.698036306770646" lon="2.6877186931398573"><ele>96.5</ele><time>2026-04-08T12:55:18.999Z</time></trkpt><trkpt lat="42.69797458009378" lon="2.6880510971605274"><ele>96.0</ele><time>2026-04-08T12:55:19.999Z</time></trkpt><trkpt lat="42.697896593337596" lon="2.688375176143545"><ele>95.5</ele><time>2026-04-08T12:55:20.999Z</time></trkpt><trkpt lat="42.69782466357266" lon="2.6887015089633297"><ele>95.0</ele><time>2026-04-08T12:55:21.999Z</time></trkpt><trkpt lat="42.69774541309178" lon="2.6890265990932964"><ele>96.5</ele><time>2026-04-08T12:55:22.999Z</time></trkpt><trkpt lat="42.69766329561077" lon="2.6893474777638113"><ele>98.0</ele><time>2026-04-08T12:55:23.999Z</time></trkpt><trkpt lat="42.69758070144896" lon="2.6896696554003117"><ele>98.0</ele><time>2026-04-08T12:55:24.999Z</time></trkpt><trkpt lat="42.697487899372085" lon="2.6899864671645943"><ele>98.0</ele><time>2026-04-08T12:55:25.999Z</time></trkpt><trkpt lat="42.69739310027035" lon="2.690299181153254"><ele>96.5</ele><time>2026-04-08T12:55:26.999Z</time></trkpt><trkpt lat="42.69729324400386" lon="2.6906089603992895"><ele>95.0</ele><time>2026-04-08T12:55:27.999Z</time></trkpt><trkpt lat="42.69719535616458" lon="2.6909189337367976"><ele>94.0</ele><time>2026-04-08T12:55:28.999Z</time></trkpt><trkpt lat="42.69710086488504" lon="2.6912316873080124"><ele>93.0</ele><time>2026-04-08T12:55:29.999Z</time></trkpt><trkpt lat="42.69700165150485" lon="2.6915356513002555"><ele>95.0</ele><time>2026-04-08T12:55:30.999Z</time></trkpt><trkpt lat="42.696915070313146" lon="2.691851796025393"><ele>97.0</ele><time>2026-04-08T12:55:31.999Z</time></trkpt><trkpt lat="42.69682345877374" lon="2.692159432920791"><ele>97.0</ele><time>2026-04-08T12:55:32.999Z</time></trkpt><trkpt lat="42.69672977022401" lon="2.6924700949246922"><ele>97.0</ele><time>2026-04-08T12:55:33.999Z</time></trkpt><trkpt lat="42.69663499343055" lon="2.69276845571852"><ele>96.5</ele><time>2026-04-08T12:55:34.999Z</time></trkpt><trkpt lat="42.69654788067343" lon="2.6930733755038503"><ele>96.0</ele><time>2026-04-08T12:55:35.999Z</time></trkpt><trkpt lat="42.69645572262" lon="2.6933781199570688"><ele>95.0</ele><time>2026-04-08T12:55:36.999Z</time></trkpt><trkpt lat="42.69636725334826" lon="2.6936861986192415"><ele>94.0</ele><time>2026-04-08T12:55:37.999Z</time></trkpt><trkpt lat="42.696279543325545" lon="2.6939961783504414"><ele>94.0</ele><time>2026-04-08T12:55:38.999Z</time></trkpt><trkpt lat="42.696193971045204" lon="2.6942965606894376"><ele>94.0</ele><time>2026-04-08T12:55:39.999Z</time></trkpt><trkpt lat="42.696111729630395" lon="2.694612813649224"><ele>95.5</ele><time>2026-04-08T12:55:40.999Z</time></trkpt><trkpt lat="42.6960287112921" lon="2.694923224095073"><ele>97.0</ele><time>2026-04-08T12:55:41.999Z</time></trkpt><trkpt lat="42.69594591904727" lon="2.6952341590567017"><ele>96.5</ele><time>2026-04-08T12:55:42.999Z</time></trkpt><trkpt lat="42.69586357695495" lon="2.695556684859378"><ele>96.0</ele><time>2026-04-08T12:55:43.999Z</time></trkpt><trkpt lat="42.69578317082308" lon="2.695876003136284"><ele>96.0</ele><time>2026-04-08T12:55:44.999Z</time></trkpt><trkpt lat="42.69570080691838" lon="2.6962064787875426"><ele>96.0</ele><time>2026-04-08T12:55:46Z</time></trkpt><trkpt lat="42.69562242795788" lon="2.6965321321164266"><ele>96.0</ele><time>2026-04-08T12:55:47Z</time></trkpt><trkpt lat="42.69554522463388" lon="2.6968653149925728"><ele>96.0</ele><time>2026-04-08T12:55:48Z</time></trkpt><trkpt lat="42.69546522592287" lon="2.6971936766601807"><ele>95.5</ele><time>2026-04-08T12:55:49Z</time></trkpt><trkpt lat="42.69539314087774" lon="2.6975246137831093"><ele>95.0</ele><time>2026-04-08T12:55:50Z</time></trkpt><trkpt lat="42.695323999384115" lon="2.6978581760332405"><ele>95.5</ele><time>2026-04-08T12:55:51Z</time></trkpt><trkpt lat="42.69524973138326" lon="2.6981833837500857"><ele>96.0</ele><time>2026-04-08T12:55:52Z</time></trkpt><trkpt lat="42.695181855291274" lon="2.698505177299772"><ele>95.5</ele><time>2026-04-08T12:55:53Z</time></trkpt><trkpt lat="42.69511306488703" lon="2.6988204234729967"><ele>95.0</ele><time>2026-04-08T12:55:54Z</time></trkpt><trkpt lat="42.695043815995916" lon="2.6991469302995927"><ele>94.5</ele><time>2026-04-08T12:55:55Z</time></trkpt><trkpt lat="42.694981510020575" lon="2.6994705462821726"><ele>94.0</ele><time>2026-04-08T12:55:56Z</time></trkpt><trkpt lat="42.69492252505273" lon="2.699786317481423"><ele>94.0</ele><time>2026-04-08T12:55:57Z</time></trkpt><trkpt lat="42.69485662408655" lon="2.7001208712099283"><ele>94.0</ele><time>2026-04-08T12:55:58Z</time></trkpt><trkpt lat="42.69480067466737" lon="2.700456754471744"><ele>93.0</ele><time>2026-04-08T12:55:59Z</time></trkpt><trkpt lat="42.69474280171731" lon="2.7007870921881465"><ele>92.0</ele><time>2026-04-08T12:56:00Z</time></trkpt><trkpt lat="42.694687397231924" lon="2.7011217385390522"><ele>92.0</ele><time>2026-04-08T12:56:01Z</time></trkpt><trkpt lat="42.694632736942125" lon="2.7014587884185963"><ele>92.0</ele><time>2026-04-08T12:56:02Z</time></trkpt><trkpt lat="42.69457278160571" lon="2.701798868678075"><ele>92.0</ele><time>2026-04-08T12:56:03Z</time></trkpt><trkpt lat="42.69449703191888" lon="2.7021383150809872"><ele>92.0</ele><time>2026-04-08T12:56:04Z</time></trkpt><trkpt lat="42.694414192556906" lon="2.7024689447417796"><ele>92.5</ele><time>2026-04-08T12:56:05Z</time></trkpt><trkpt lat="42.69432520396928" lon="2.7027956302047365"><ele>93.0</ele><time>2026-04-08T12:56:06Z</time></trkpt><trkpt lat="42.69423160636174" lon="2.7031237363702663"><ele>93.0</ele><time>2026-04-08T12:56:07Z</time></trkpt><trkpt lat="42.69413748033985" lon="2.7034492885097396"><ele>93.0</ele><time>2026-04-08T12:56:08Z</time></trkpt><trkpt lat="42.694044081715454" lon="2.7037739532331297"><ele>93.0</ele><time>2026-04-08T12:56:09Z</time></trkpt><trkpt lat="42.69394791487741" lon="2.7040949152956206"><ele>93.0</ele><time>2026-04-08T12:56:10Z</time></trkpt><trkpt lat="42.693848292334124" lon="2.704415340500608"><ele>93.0</ele><time>2026-04-08T12:56:11Z</time></trkpt><trkpt lat="42.69375137980737" lon="2.704733108600947"><ele>93.0</ele><time>2026-04-08T12:56:12Z</time></trkpt><trkpt lat="42.69365410078484" lon="2.7050415294364694"><ele>93.0</ele><time>2026-04-08T12:56:13Z</time></trkpt><trkpt lat="42.69355956085476" lon="2.705346876632629"><ele>93.0</ele><time>2026-04-08T12:56:14Z</time></trkpt><trkpt lat="42.69345915576091" lon="2.7056768356991805"><ele>93.0</ele><time>2026-04-08T12:56:15Z</time></trkpt><trkpt lat="42.6933618789991" lon="2.705988129397974"><ele>93.0</ele><time>2026-04-08T12:56:16Z</time></trkpt><trkpt lat="42.6932633202832" lon="2.706298235789687"><ele>92.0</ele><time>2026-04-08T12:56:17Z</time></trkpt><trkpt lat="42.69316408831362" lon="2.7066094265925122"><ele>91.0</ele><time>2026-04-08T12:56:18Z</time></trkpt><trkpt lat="42.693067053973465" lon="2.7069197968951717"><ele>91.0</ele><time>2026-04-08T12:56:19Z</time></trkpt><trkpt lat="42.692971407360304" lon="2.707227990609333"><ele>91.0</ele><time>2026-04-08T12:56:20Z</time></trkpt><trkpt lat="42.69287513037142" lon="2.707537774268264"><ele>91.5</ele><time>2026-04-08T12:56:21Z</time></trkpt><trkpt lat="42.69278141035259" lon="2.707848327834256"><ele>92.0</ele><time>2026-04-08T12:56:22Z</time></trkpt><trkpt lat="42.69268701313018" lon="2.708160417578637"><ele>92.0</ele><time>2026-04-08T12:56:23Z</time></trkpt><trkpt lat="42.69259223047799" lon="2.7084703916696498"><ele>92.0</ele><time>2026-04-08T12:56:24Z</time></trkpt><trkpt lat="42.692497266904034" lon="2.708780571860113"><ele>92.5</ele><time>2026-04-08T12:56:25Z</time></trkpt><trkpt lat="42.69240321395416" lon="2.70908834127565"><ele>93.0</ele><time>2026-04-08T12:56:26Z</time></trkpt><trkpt lat="42.69230785864248" lon="2.709396675864844"><ele>92.5</ele><time>2026-04-08T12:56:27Z</time></trkpt><trkpt lat="42.69221247733599" lon="2.709706381817993"><ele>92.0</ele><time>2026-04-08T12:56:28Z</time></trkpt><trkpt lat="42.69212067048014" lon="2.7100158686850926"><ele>91.5</ele><time>2026-04-08T12:56:29Z</time></trkpt><trkpt lat="42.692035693975264" lon="2.710325352534104"><ele>91.0</ele><time>2026-04-08T12:56:29.999Z</time></trkpt><trkpt lat="42.691958068975055" lon="2.7106371900443422"><ele>91.0</ele><time>2026-04-08T12:56:30.999Z</time></trkpt><trkpt lat="42.69188482733536" lon="2.7109515353985514"><ele>91.0</ele><time>2026-04-08T12:56:31.999Z</time></trkpt><trkpt lat="42.69182165265805" lon="2.7112656330722844"><ele>91.0</ele><time>2026-04-08T12:56:32.999Z</time></trkpt><trkpt lat="42.69175703997016" lon="2.711586989431356"><ele>91.0</ele><time>2026-04-08T12:56:33.999Z</time></trkpt><trkpt lat="42.69170017475164" lon="2.711906166693522"><ele>90.0</ele><time>2026-04-08T12:56:34.999Z</time></trkpt><trkpt lat="42.69161008899064" lon="2.712243206212546"><ele>89.0</ele><time>2026-04-08T12:56:35.999Z</time></trkpt><trkpt lat="42.69159671899189" lon="2.712550248529892"><ele>89.5</ele><time>2026-04-08T12:56:36.999Z</time></trkpt><trkpt lat="42.69154102218536" lon="2.7128757707996582"><ele>90.0</ele><time>2026-04-08T12:56:37.999Z</time></trkpt><trkpt lat="42.69148656099442" lon="2.7131983024084296"><ele>90.0</ele><time>2026-04-08T12:56:38.999Z</time></trkpt><trkpt lat="42.69143222176787" lon="2.713524534340474"><ele>90.0</ele><time>2026-04-08T12:56:39.999Z</time></trkpt><trkpt lat="42.691362293224664" lon="2.7138430073151163"><ele>89.0</ele><time>2026-04-08T12:56:40.999Z</time></trkpt><trkpt lat="42.69132519002024" lon="2.7141812305122928"><ele>88.0</ele><time>2026-04-08T12:56:41.999Z</time></trkpt><trkpt lat="42.691272387527654" lon="2.714506582758905"><ele>88.0</ele><time>2026-04-08T12:56:42.999Z</time></trkpt><trkpt lat="42.69121752965607" lon="2.714835350754976"><ele>88.0</ele><time>2026-04-08T12:56:43.999Z</time></trkpt><trkpt lat="42.691166747201414" lon="2.7151594893521525"><ele>87.5</ele><time>2026-04-08T12:56:44.999Z</time></trkpt><trkpt lat="42.69111414706193" lon="2.715489253585982"><ele>87.0</ele><time>2026-04-08T12:56:45.999Z</time></trkpt><trkpt lat="42.691067101061925" lon="2.7158347354197017"><ele>88.0</ele><time>2026-04-08T12:56:46.999Z</time></trkpt><trkpt lat="42.69101334930939" lon="2.716144030545494"><ele>89.0</ele><time>2026-04-08T12:56:47.999Z</time></trkpt><trkpt lat="42.69095928098531" lon="2.716476237116958"><ele>89.0</ele><time>2026-04-08T12:56:48.999Z</time></trkpt><trkpt lat="42.69090470068451" lon="2.716803926104872"><ele>89.0</ele><time>2026-04-08T12:56:49.999Z</time></trkpt><trkpt lat="42.690853188852" lon="2.717130619881651"><ele>89.0</ele><time>2026-04-08T12:56:50.999Z</time></trkpt><trkpt lat="42.690800465627156" lon="2.7174576754192854"><ele>89.0</ele><time>2026-04-08T12:56:51.999Z</time></trkpt><trkpt lat="42.690745122356866" lon="2.7177841992691425"><ele>88.5</ele><time>2026-04-08T12:56:52.999Z</time></trkpt><trkpt lat="42.690689790757595" lon="2.718109667842171"><ele>88.0</ele><time>2026-04-08T12:56:53.999Z</time></trkpt><trkpt lat="42.6906367470475" lon="2.7184320281603327"><ele>87.0</ele><time>2026-04-08T12:56:54.999Z</time></trkpt><trkpt lat="42.69058597237157" lon="2.7187555086793673"><ele>86.0</ele><time>2026-04-08T12:56:55.999Z</time></trkpt><trkpt lat="42.690534583951745" lon="2.7190834871950393"><ele>84.5</ele><time>2026-04-08T12:56:56.999Z</time></trkpt><trkpt lat="42.690481486804316" lon="2.719404184889877"><ele>83.0</ele><time>2026-04-08T12:56:57.999Z</time></trkpt><trkpt lat="42.6904309549048" lon="2.719725326967659"><ele>83.0</ele><time>2026-04-08T12:56:58.999Z</time></trkpt><trkpt lat="42.69037898785422" lon="2.7200496914060333"><ele>83.0</ele><time>2026-04-08T12:56:59.999Z</time></trkpt><trkpt lat="42.690326309466236" lon="2.72037757969382"><ele>82.5</ele><time>2026-04-08T12:57:00.999Z</time></trkpt><trkpt lat="42.69027313027341" lon="2.7207000377657744"><ele>82.0</ele><time>2026-04-08T12:57:01.999Z</time></trkpt><trkpt lat="42.69021861591569" lon="2.7210214399761647"><ele>82.5</ele><time>2026-04-08T12:57:02.999Z</time></trkpt><trkpt lat="42.69016491138646" lon="2.721352225804916"><ele>83.0</ele><time>2026-04-08T12:57:03.999Z</time></trkpt><trkpt lat="42.69011348609037" lon="2.721665992330748"><ele>83.0</ele><time>2026-04-08T12:57:04.999Z</time></trkpt><trkpt lat="42.69006478617667" lon="2.7219863443932355"><ele>83.0</ele><time>2026-04-08T12:57:05.999Z</time></trkpt><trkpt lat="42.69001236309688" lon="2.722304821893229"><ele>83.0</ele><time>2026-04-08T12:57:06.999Z</time></trkpt><trkpt lat="42.689965307880044" lon="2.722616054525341"><ele>83.0</ele><time>2026-04-08T12:57:07.999Z</time></trkpt><trkpt lat="42.689916066814796" lon="2.722932806796768"><ele>83.0</ele><time>2026-04-08T12:57:08.999Z</time></trkpt><trkpt lat="42.689862668867086" lon="2.7232478118636827"><ele>83.0</ele><time>2026-04-08T12:57:09.999Z</time></trkpt><trkpt lat="42.689810075708614" lon="2.7235685192773245"><ele>84.0</ele><time>2026-04-08T12:57:10.999Z</time></trkpt><trkpt lat="42.68976072683527" lon="2.7239204978639364"><ele>85.0</ele><time>2026-04-08T12:57:11.999Z</time></trkpt><trkpt lat="42.68971167621019" lon="2.724202189588508"><ele>84.5</ele><time>2026-04-08T12:57:12.999Z</time></trkpt><trkpt lat="42.689660058181936" lon="2.7245282655875456"><ele>84.0</ele><time>2026-04-08T12:57:13.999Z</time></trkpt><trkpt lat="42.689608502604685" lon="2.7248412869256615"><ele>84.0</ele><time>2026-04-08T12:57:14.999Z</time></trkpt><trkpt lat="42.68955397711998" lon="2.7251639955693925"><ele>84.0</ele><time>2026-04-08T12:57:15.999Z</time></trkpt><trkpt lat="42.689498954712946" lon="2.725492416116043"><ele>85.0</ele><time>2026-04-08T12:57:16.999Z</time></trkpt><trkpt lat="42.68944548682943" lon="2.7258108105039374"><ele>86.0</ele><time>2026-04-08T12:57:17.999Z</time></trkpt><trkpt lat="42.689388683066156" lon="2.726142371309371"><ele>86.0</ele><time>2026-04-08T12:57:18.999Z</time></trkpt><trkpt lat="42.689327563514894" lon="2.7264697557609554"><ele>86.0</ele><time>2026-04-08T12:57:19.999Z</time></trkpt><trkpt lat="42.689258380002336" lon="2.726793593381783"><ele>85.0</ele><time>2026-04-08T12:57:20.999Z</time></trkpt><trkpt lat="42.68918697589291" lon="2.7271170143253567"><ele>84.0</ele><time>2026-04-08T12:57:21.999Z</time></trkpt><trkpt lat="42.68911268000269" lon="2.727440964035343"><ele>83.5</ele><time>2026-04-08T12:57:22.999Z</time></trkpt><trkpt lat="42.689036879216026" lon="2.727754744509707"><ele>83.0</ele><time>2026-04-08T12:57:23.999Z</time></trkpt><trkpt lat="42.68896184349704" lon="2.7280721351502675"><ele>83.0</ele><time>2026-04-08T12:57:24.999Z</time></trkpt><trkpt lat="42.688884991004414" lon="2.7283911631449964"><ele>83.0</ele><time>2026-04-08T12:57:25.999Z</time></trkpt><trkpt lat="42.68880680162396" lon="2.72869835822377"><ele>82.5</ele><time>2026-04-08T12:57:26.999Z</time></trkpt><trkpt lat="42.688719322290446" lon="2.729009601351728"><ele>82.0</ele><time>2026-04-08T12:57:27.999Z</time></trkpt><trkpt lat="42.688630867088975" lon="2.729314016147454"><ele>82.0</ele><time>2026-04-08T12:57:28.999Z</time></trkpt><trkpt lat="42.68853940909054" lon="2.729619785240727"><ele>82.0</ele><time>2026-04-08T12:57:29.999Z</time></trkpt><trkpt lat="42.688439758840694" lon="2.7299237545104"><ele>82.0</ele><time>2026-04-08T12:57:30.999Z</time></trkpt><trkpt lat="42.68834188108707" lon="2.7302142660291318"><ele>82.0</ele><time>2026-04-08T12:57:31.999Z</time></trkpt><trkpt lat="42.68824090071603" lon="2.730514447822692"><ele>81.0</ele><time>2026-04-08T12:57:32.999Z</time></trkpt><trkpt lat="42.688136919676815" lon="2.7308158956696964"><ele>80.0</ele><time>2026-04-08T12:57:33.999Z</time></trkpt><trkpt lat="42.688029587770686" lon="2.731110024019274"><ele>79.5</ele><time>2026-04-08T12:57:34.999Z</time></trkpt><trkpt lat="42.68791681567559" lon="2.731402560142453"><ele>79.0</ele><time>2026-04-08T12:57:35.999Z</time></trkpt><trkpt lat="42.68780252588649" lon="2.731694089029181"><ele>80.5</ele><time>2026-04-08T12:57:36.999Z</time></trkpt><trkpt lat="42.687687955181474" lon="2.731981821111799"><ele>82.0</ele><time>2026-04-08T12:57:37.999Z</time></trkpt><trkpt lat="42.687570733845604" lon="2.732266128239739"><ele>82.0</ele><time>2026-04-08T12:57:38.999Z</time></trkpt><trkpt lat="42.68745544310172" lon="2.732553555014304"><ele>82.0</ele><time>2026-04-08T12:57:39.999Z</time></trkpt><trkpt lat="42.687338579781546" lon="2.7328414479187675"><ele>81.0</ele><time>2026-04-08T12:57:40.999Z</time></trkpt><trkpt lat="42.68722029820505" lon="2.7331296183032574"><ele>80.0</ele><time>2026-04-08T12:57:41.999Z</time></trkpt><trkpt lat="42.6871047737753" lon="2.7334223265326303"><ele>79.5</ele><time>2026-04-08T12:57:42.999Z</time></trkpt><trkpt lat="42.687001457076285" lon="2.7337207254181832"><ele>79.0</ele><time>2026-04-08T12:57:43.999Z</time></trkpt><trkpt lat="42.68690070563405" lon="2.7340132626125797"><ele>78.5</ele><time>2026-04-08T12:57:45Z</time></trkpt><trkpt lat="42.68679938879295" lon="2.7343095118134215"><ele>78.0</ele><time>2026-04-08T12:57:46Z</time></trkpt><trkpt lat="42.686702800648185" lon="2.7346049516538997"><ele>78.0</ele><time>2026-04-08T12:57:47Z</time></trkpt><trkpt lat="42.68660856332369" lon="2.7348985170224216"><ele>78.0</ele><time>2026-04-08T12:57:48Z</time></trkpt><trkpt lat="42.68651751275913" lon="2.7351929198053937"><ele>77.5</ele><time>2026-04-08T12:57:49Z</time></trkpt><trkpt lat="42.686429785475546" lon="2.7354898536780774"><ele>77.0</ele><time>2026-04-08T12:57:50Z</time></trkpt><trkpt lat="42.68634624486792" lon="2.7357864023795018"><ele>76.5</ele><time>2026-04-08T12:57:51Z</time></trkpt><trkpt lat="42.686262751811846" lon="2.7360818711170953"><ele>76.0</ele><time>2026-04-08T12:57:52Z</time></trkpt><trkpt lat="42.686181773202456" lon="2.7363770279822894"><ele>76.0</ele><time>2026-04-08T12:57:53Z</time></trkpt><trkpt lat="42.68610147181431" lon="2.736675577096689"><ele>76.0</ele><time>2026-04-08T12:57:54Z</time></trkpt><trkpt lat="42.68602257600329" lon="2.7369730383404027"><ele>77.5</ele><time>2026-04-08T12:57:55Z</time></trkpt><trkpt lat="42.6859422572869" lon="2.7372655378130215"><ele>79.0</ele><time>2026-04-08T12:57:56Z</time></trkpt><trkpt lat="42.685861088985824" lon="2.7375661715330133"><ele>79.5</ele><time>2026-04-08T12:57:57Z</time></trkpt><trkpt lat="42.68578357395127" lon="2.7378664708009453"><ele>80.0</ele><time>2026-04-08T12:57:58Z</time></trkpt><trkpt lat="42.685707483280126" lon="2.7381670922742267"><ele>80.0</ele><time>2026-04-08T12:57:59Z</time></trkpt><trkpt lat="42.68563259417895" lon="2.7384745236137418"><ele>80.0</ele><time>2026-04-08T12:58:00Z</time></trkpt><trkpt lat="42.685557261261906" lon="2.738719710633809"><ele>80.0</ele><time>2026-04-08T12:58:01Z</time></trkpt><trkpt lat="42.68548185961904" lon="2.7390091827648755"><ele>78.0</ele><time>2026-04-08T12:58:02Z</time></trkpt><trkpt lat="42.685404026458656" lon="2.7392979528929517"><ele>76.0</ele><time>2026-04-08T12:58:03Z</time></trkpt><trkpt lat="42.68532751978276" lon="2.739587498506707"><ele>77.5</ele><time>2026-04-08T12:58:04Z</time></trkpt><trkpt lat="42.68525050129331" lon="2.739881656671055"><ele>79.0</ele><time>2026-04-08T12:58:05Z</time></trkpt><trkpt lat="42.68517186451219" lon="2.740173938121436"><ele>78.0</ele><time>2026-04-08T12:58:06Z</time></trkpt><trkpt lat="42.68509304706423" lon="2.7404640449104254"><ele>77.0</ele><time>2026-04-08T12:58:07Z</time></trkpt><trkpt lat="42.68501368577918" lon="2.7407594477374024"><ele>77.0</ele><time>2026-04-08T12:58:08Z</time></trkpt><trkpt lat="42.68493254950727" lon="2.741055974123583"><ele>77.0</ele><time>2026-04-08T12:58:09Z</time></trkpt><trkpt lat="42.684850848938325" lon="2.7413577646255014"><ele>77.0</ele><time>2026-04-08T12:58:10Z</time></trkpt><trkpt lat="42.68476566658992" lon="2.7416622518881115"><ele>77.0</ele><time>2026-04-08T12:58:11Z</time></trkpt><trkpt lat="42.68468406015825" lon="2.741956761234558"><ele>76.5</ele><time>2026-04-08T12:58:12Z</time></trkpt><trkpt lat="42.68460519199565" lon="2.742262228718013"><ele>76.0</ele><time>2026-04-08T12:58:13Z</time></trkpt><trkpt lat="42.68452464537446" lon="2.742566899956528"><ele>76.0</ele><time>2026-04-08T12:58:14Z</time></trkpt><trkpt lat="42.6844413079061" lon="2.742870055606627"><ele>76.0</ele><time>2026-04-08T12:58:15Z</time></trkpt><trkpt lat="42.684357662566036" lon="2.7431686396904578"><ele>77.0</ele><time>2026-04-08T12:58:16Z</time></trkpt><trkpt lat="42.6842804952369" lon="2.7434721219412594"><ele>78.0</ele><time>2026-04-08T12:58:17Z</time></trkpt><trkpt lat="42.68419560110416" lon="2.7437747767521907"><ele>78.5</ele><time>2026-04-08T12:58:18Z</time></trkpt><trkpt lat="42.68411001947924" lon="2.7440708293413314"><ele>79.0</ele><time>2026-04-08T12:58:19Z</time></trkpt><trkpt lat="42.684029956140265" lon="2.744370252750458"><ele>78.0</ele><time>2026-04-08T12:58:20Z</time></trkpt><trkpt lat="42.68394914929846" lon="2.7446672399838343"><ele>77.0</ele><time>2026-04-08T12:58:21Z</time></trkpt><trkpt lat="42.683868489405015" lon="2.7449642904334857"><ele>76.66666666666667</ele><time>2026-04-08T12:58:22Z</time></trkpt><trkpt lat="42.68378341460499" lon="2.7452581212349187"><ele>76.33333333333333</ele><time>2026-04-08T12:58:23Z</time></trkpt><trkpt lat="42.68370596035621" lon="2.7455295142726914"><ele>76.0</ele><time>2026-04-08T12:58:24Z</time></trkpt><trkpt lat="42.68363008998488" lon="2.7457765492202704"><ele>76.33333333333333</ele><time>2026-04-08T12:58:25Z</time></trkpt><trkpt lat="42.683559560540445" lon="2.7460127091192823"><ele>76.66666666666667</ele><time>2026-04-08T12:58:26Z</time></trkpt><trkpt lat="42.68349951047319" lon="2.7462377159770917"><ele>77.0</ele><time>2026-04-08T12:58:27Z</time></trkpt><trkpt lat="42.68344499673186" lon="2.746462849475965"><ele>77.0</ele><time>2026-04-08T12:58:28Z</time></trkpt><trkpt lat="42.68338780618201" lon="2.746687275254158"><ele>77.0</ele><time>2026-04-08T12:58:29Z</time></trkpt><trkpt lat="42.683327999308524" lon="2.746902231196098"><ele>77.0</ele><time>2026-04-08T12:58:30Z</time></trkpt><trkpt lat="42.683265353666854" lon="2.747111648647709"><ele>77.0</ele><time>2026-04-08T12:58:31Z</time></trkpt><trkpt lat="42.68320311286648" lon="2.747312081969775"><ele>77.0</ele><time>2026-04-08T12:58:32Z</time></trkpt><trkpt lat="42.68314108125105" lon="2.7475069702771364"><ele>77.0</ele><time>2026-04-08T12:58:33Z</time></trkpt><trkpt lat="42.6830795385692" lon="2.747689918786218"><ele>77.25</ele><time>2026-04-08T12:58:34Z</time></trkpt><trkpt lat="42.68303690728977" lon="2.747876966862258"><ele>77.5</ele><time>2026-04-08T12:58:35Z</time></trkpt><trkpt lat="42.68294142588463" lon="2.748036138758109"><ele>77.75</ele><time>2026-04-08T12:58:36Z</time></trkpt><trkpt lat="42.682870843951335" lon="2.748205060034426"><ele>78.0</ele><time>2026-04-08T12:58:37Z</time></trkpt><trkpt lat="42.6827988297509" lon="2.748370211403455"><ele>78.0</ele><time>2026-04-08T12:58:38Z</time></trkpt><trkpt lat="42.682737575083664" lon="2.7485154364445985"><ele>78.0</ele><time>2026-04-08T12:58:39Z</time></trkpt><trkpt lat="42.68268496979204" lon="2.74863976669858"><ele>78.0</ele><time>2026-04-08T12:58:40Z</time></trkpt><trkpt lat="42.68263848716654" lon="2.7487500030945915"><ele>78.0</ele><time>2026-04-08T12:58:41Z</time></trkpt><trkpt lat="42.68259447587292" lon="2.7488543123805758"><ele>78.0</ele><time>2026-04-08T12:58:42Z</time></trkpt><trkpt lat="42.68255185099374" lon="2.7489600156183616"><ele>78.0</ele><time>2026-04-08T12:58:43Z</time></trkpt><trkpt lat="42.68251207313766" lon="2.7490406061647454"><ele>78.0</ele><time>2026-04-08T12:58:44Z</time></trkpt><trkpt lat="42.68245782409572" lon="2.749142730891674"><ele>78.0</ele><time>2026-04-08T12:58:46Z</time></trkpt><trkpt lat="42.68242856565153" lon="2.7492419154969423"><ele>78.0</ele><time>2026-04-08T12:58:50Z</time></trkpt><trkpt lat="42.68231194325049" lon="2.7491773131351964"><ele>78.0</ele><time>2026-04-08T12:58:51Z</time></trkpt><trkpt lat="42.6822367144886" lon="2.7491495919499673"><ele>78.0</ele><time>2026-04-08T12:58:51.999Z</time></trkpt><trkpt lat="42.68215908058564" lon="2.749120278773663"><ele>78.0</ele><time>2026-04-08T12:58:52.999Z</time></trkpt><trkpt lat="42.68206517864986" lon="2.7490989198654687"><ele>78.0</ele><time>2026-04-08T12:58:53.999Z</time></trkpt><trkpt lat="42.681964303930485" lon="2.749059925793638"><ele>78.0</ele><time>2026-04-08T12:58:54.999Z</time></trkpt><trkpt lat="42.68184756937501" lon="2.7490130346261843"><ele>78.0</ele><time>2026-04-08T12:58:55.999Z</time></trkpt><trkpt lat="42.68173710483389" lon="2.748966613585153"><ele>78.0</ele><time>2026-04-08T12:58:56.999Z</time></trkpt><trkpt lat="42.681622554956945" lon="2.7489239712372413"><ele>78.5</ele><time>2026-04-08T12:58:57.999Z</time></trkpt><trkpt lat="42.68150956803306" lon="2.7488821293730394"><ele>79.0</ele><time>2026-04-08T12:58:58.999Z</time></trkpt><trkpt lat="42.68140073808595" lon="2.7488406356186057"><ele>79.5</ele><time>2026-04-08T12:58:59.999Z</time></trkpt><trkpt lat="42.68128728902836" lon="2.7488002263178744"><ele>80.0</ele><time>2026-04-08T12:59:00.999Z</time></trkpt><trkpt lat="42.681170825624015" lon="2.7487606674839595"><ele>80.8</ele><time>2026-04-08T12:59:01.999Z</time></trkpt><trkpt lat="42.68106916342998" lon="2.748722179748424"><ele>81.6</ele><time>2026-04-08T12:59:02.999Z</time></trkpt><trkpt lat="42.6809681682015" lon="2.748674235635605"><ele>82.4</ele><time>2026-04-08T12:59:03.999Z</time></trkpt><trkpt lat="42.68087728183471" lon="2.748648430489925"><ele>83.2</ele><time>2026-04-08T12:59:04.999Z</time></trkpt><trkpt lat="42.68078373844404" lon="2.748606530838812"><ele>84.0</ele><time>2026-04-08T12:59:05.999Z</time></trkpt><trkpt lat="42.68069536925059" lon="2.748566264789331"><ele>84.5</ele><time>2026-04-08T12:59:06.999Z</time></trkpt><trkpt lat="42.68061716900809" lon="2.7485384319102617"><ele>85.0</ele><time>2026-04-08T12:59:07.999Z</time></trkpt><trkpt lat="42.68055230579452" lon="2.7485146100768607"><ele>85.5</ele><time>2026-04-08T12:59:08.999Z</time></trkpt><trkpt lat="42.680461506221285" lon="2.7484749826410093"><ele>86.0</ele><time>2026-04-08T12:59:10.999Z</time></trkpt><trkpt lat="42.68038467291807" lon="2.7484314855582626"><ele>86.5</ele><time>2026-04-08T12:59:12.999Z</time></trkpt><trkpt lat="42.680323398586076" lon="2.7483354880683746"><ele>87.0</ele><time>2026-04-08T12:59:14.999Z</time></trkpt><trkpt lat="42.68030043060827" lon="2.748249954947878"><ele>87.0</ele><time>2026-04-08T12:59:15.999Z</time></trkpt><trkpt lat="42.6802728744" lon="2.748157127880439"><ele>87.0</ele><time>2026-04-08T12:59:16.999Z</time></trkpt><trkpt lat="42.68021735075705" lon="2.7480717329645183"><ele>87.0</ele><time>2026-04-08T12:59:17.999Z</time></trkpt><trkpt lat="42.68014507170629" lon="2.7480181228594285"><ele>87.0</ele><time>2026-04-08T12:59:18.999Z</time></trkpt><trkpt lat="42.680061237035645" lon="2.7479974922335857"><ele>87.0</ele><time>2026-04-08T12:59:19.999Z</time></trkpt><trkpt lat="42.67997411558465" lon="2.748008641592262"><ele>87.0</ele><time>2026-04-08T12:59:20.999Z</time></trkpt><trkpt lat="42.679899125071884" lon="2.748028186986991"><ele>88.14285714285714</ele><time>2026-04-08T12:59:21.999Z</time></trkpt><trkpt lat="42.67982967750539" lon="2.748024455788765"><ele>89.28571428571429</ele><time>2026-04-08T12:59:22.999Z</time></trkpt><trkpt lat="42.679771742545284" lon="2.747981529321191"><ele>90.42857142857143</ele><time>2026-04-08T12:59:23.999Z</time></trkpt><trkpt lat="42.67972383210838" lon="2.747914541620119"><ele>91.57142857142857</ele><time>2026-04-08T12:59:24.999Z</time></trkpt><trkpt lat="42.67969523662546" lon="2.7478171158331177"><ele>92.71428571428572</ele><time>2026-04-08T12:59:25.999Z</time></trkpt><trkpt lat="42.679670117079354" lon="2.747718896320726"><ele>93.85714285714286</ele><time>2026-04-08T12:59:26.999Z</time></trkpt><trkpt lat="42.67964227856641" lon="2.7476177017396872"><ele>95.0</ele><time>2026-04-08T12:59:27.999Z</time></trkpt><trkpt lat="42.679635400477586" lon="2.7475039104789496"><ele>95.0</ele><time>2026-04-08T12:59:28.999Z</time></trkpt><trkpt lat="42.67963400492225" lon="2.7473993791482414"><ele>95.0</ele><time>2026-04-08T12:59:29.999Z</time></trkpt><trkpt lat="42.67963541082372" lon="2.7472658831036685"><ele>95.0</ele><time>2026-04-08T12:59:30.999Z</time></trkpt><trkpt lat="42.67963686866062" lon="2.7471495347136385"><ele>95.0</ele><time>2026-04-08T12:59:31.999Z</time></trkpt><trkpt lat="42.679637478519936" lon="2.7470281050375767"><ele>95.0</ele><time>2026-04-08T12:59:32.999Z</time></trkpt><trkpt lat="42.67963951734201" lon="2.746889510982953"><ele>95.2</ele><time>2026-04-08T12:59:33.999Z</time></trkpt><trkpt lat="42.67963836674307" lon="2.746749718901072"><ele>95.4</ele><time>2026-04-08T12:59:34.999Z</time></trkpt><trkpt lat="42.679638665142754" lon="2.7466254417077844"><ele>95.6</ele><time>2026-04-08T12:59:35.999Z</time></trkpt><trkpt lat="42.67964123938313" lon="2.746497927178361"><ele>95.8</ele><time>2026-04-08T12:59:36.999Z</time></trkpt><trkpt lat="42.67966264061095" lon="2.746366707456405"><ele>96.0</ele><time>2026-04-08T12:59:37.999Z</time></trkpt><trkpt lat="42.67965198173743" lon="2.7462370124292086"><ele>96.0</ele><time>2026-04-08T12:59:38.999Z</time></trkpt><trkpt lat="42.67965958537587" lon="2.746116592561532"><ele>96.0</ele><time>2026-04-08T12:59:39.999Z</time></trkpt><trkpt lat="42.67967320967543" lon="2.746004735154989"><ele>96.0</ele><time>2026-04-08T12:59:40.999Z</time></trkpt><trkpt lat="42.679680667255134" lon="2.7459026277246634"><ele>96.0</ele><time>2026-04-08T12:59:41.999Z</time></trkpt><trkpt lat="42.67969274907833" lon="2.7457901960601783"><ele>96.0</ele><time>2026-04-08T12:59:42.999Z</time></trkpt><trkpt lat="42.67970728358692" lon="2.7456722068236155"><ele>96.0</ele><time>2026-04-08T12:59:43.999Z</time></trkpt><trkpt lat="42.67972805641182" lon="2.7455516238444404"><ele>96.0</ele><time>2026-04-08T12:59:44.999Z</time></trkpt><trkpt lat="42.67975131348596" lon="2.7454257359278524"><ele>96.0</ele><time>2026-04-08T12:59:45.999Z</time></trkpt><trkpt lat="42.67976697836506" lon="2.7452892165717815"><ele>96.0</ele><time>2026-04-08T12:59:46.999Z</time></trkpt><trkpt lat="42.679778958820414" lon="2.745151423344283"><ele>96.0</ele><time>2026-04-08T12:59:47.999Z</time></trkpt><trkpt lat="42.67978860097732" lon="2.745015817631815"><ele>96.0</ele><time>2026-04-08T12:59:48.999Z</time></trkpt><trkpt lat="42.67979329213146" lon="2.744875409535944"><ele>96.0</ele><time>2026-04-08T12:59:49.999Z</time></trkpt><trkpt lat="42.67978668047489" lon="2.7447366477196886"><ele>96.0</ele><time>2026-04-08T12:59:51Z</time></trkpt><trkpt lat="42.67977478382294" lon="2.7446015038600926"><ele>96.0</ele><time>2026-04-08T12:59:52Z</time></trkpt><trkpt lat="42.67976086812047" lon="2.7444644390606014"><ele>96.0</ele><time>2026-04-08T12:59:53Z</time></trkpt><trkpt lat="42.67974919954659" lon="2.7443344818149416"><ele>96.0</ele><time>2026-04-08T12:59:54Z</time></trkpt><trkpt lat="42.679744222896936" lon="2.744218410297779"><ele>96.16666666666667</ele><time>2026-04-08T12:59:55Z</time></trkpt><trkpt lat="42.6797373737644" lon="2.744103043591143"><ele>96.33333333333334</ele><time>2026-04-08T12:59:56Z</time></trkpt><trkpt lat="42.67973181389799" lon="2.74397863546629"><ele>96.5</ele><time>2026-04-08T12:59:57Z</time></trkpt><trkpt lat="42.67972819655831" lon="2.743849840042951"><ele>96.66666666666667</ele><time>2026-04-08T12:59:58Z</time></trkpt><trkpt lat="42.67972749516555" lon="2.7437291107232604"><ele>96.83333333333334</ele><time>2026-04-08T12:59:59Z</time></trkpt><trkpt lat="42.679723642137034" lon="2.7436248573024122"><ele>97.0</ele><time>2026-04-08T13:00:00Z</time></trkpt><trkpt lat="42.67971509995508" lon="2.7435234223972"><ele>97.00000000000001</ele><time>2026-04-08T13:00:01Z</time></trkpt><trkpt lat="42.6797060067898" lon="2.7434173418934003"><ele>97.0</ele><time>2026-04-08T13:00:02Z</time></trkpt><trkpt lat="42.67970546043241" lon="2.743308680192924"><ele>97.0</ele><time>2026-04-08T13:00:03Z</time></trkpt><trkpt lat="42.67970794643609" lon="2.7431885838004173"><ele>97.0</ele><time>2026-04-08T13:00:04Z</time></trkpt><trkpt lat="42.67970661859559" lon="2.7430671553497548"><ele>97.00000000000001</ele><time>2026-04-08T13:00:05Z</time></trkpt><trkpt lat="42.6796991998756" lon="2.7429369956164806"><ele>97.0</ele><time>2026-04-08T13:00:06Z</time></trkpt><trkpt lat="42.679689957741175" lon="2.7428058054618023"><ele>97.39999999999999</ele><time>2026-04-08T13:00:07Z</time></trkpt><trkpt lat="42.67968167766248" lon="2.742667401776609"><ele>97.8</ele><time>2026-04-08T13:00:08Z</time></trkpt><trkpt lat="42.67967923592477" lon="2.742529389708148"><ele>98.2</ele><time>2026-04-08T13:00:09Z</time></trkpt><trkpt lat="42.6796761081063" lon="2.742386189255127"><ele>98.6</ele><time>2026-04-08T13:00:10Z</time></trkpt><trkpt lat="42.679675278553304" lon="2.7422549269915897"><ele>99.0</ele><time>2026-04-08T13:00:11Z</time></trkpt><trkpt lat="42.67967490881353" lon="2.742130338205022"><ele>99.0</ele><time>2026-04-08T13:00:12Z</time></trkpt><trkpt lat="42.67967939305902" lon="2.7420052771739747"><ele>99.0</ele><time>2026-04-08T13:00:13Z</time></trkpt><trkpt lat="42.679691352449034" lon="2.7418868128336418"><ele>99.0</ele><time>2026-04-08T13:00:14Z</time></trkpt><trkpt lat="42.67970302238925" lon="2.741773449895833"><ele>99.0</ele><time>2026-04-08T13:00:15Z</time></trkpt><trkpt lat="42.67971764503709" lon="2.7416777229258606"><ele>99.0</ele><time>2026-04-08T13:00:16Z</time></trkpt><trkpt lat="42.67973214331188" lon="2.7415923788158505"><ele>99.0</ele><time>2026-04-08T13:00:17Z</time></trkpt><trkpt lat="42.67974899093247" lon="2.7414653395500475"><ele>98.83333333333333</ele><time>2026-04-08T13:00:19Z</time></trkpt><trkpt lat="42.67966333226079" lon="2.741395907545828"><ele>98.66666666666666</ele><time>2026-04-08T13:00:22Z</time></trkpt><trkpt lat="42.67957241607512" lon="2.7414331154385008"><ele>98.5</ele><time>2026-04-08T13:00:24Z</time></trkpt><trkpt lat="42.679493214332226" lon="2.741460377063459"><ele>98.33333333333333</ele><time>2026-04-08T13:00:26Z</time></trkpt><trkpt lat="42.679426146902394" lon="2.7414703660151956"><ele>98.16666666666666</ele><time>2026-04-08T13:00:28Z</time></trkpt><trkpt lat="42.67936406808307" lon="2.741495996990442"><ele>98.0</ele><time>2026-04-08T13:00:30Z</time></trkpt><trkpt lat="42.67927578912129" lon="2.7414984526353168"><ele>97.99999999999999</ele><time>2026-04-08T13:00:32Z</time></trkpt><trkpt lat="42.679163488118725" lon="2.74152819643511"><ele>98.0</ele><time>2026-04-08T13:00:34Z</time></trkpt><trkpt lat="42.679060165850906" lon="2.7415587896118714"><ele>98.0</ele><time>2026-04-08T13:00:36Z</time></trkpt><trkpt lat="42.6789968298767" lon="2.7415797183935537"><ele>98.0</ele><time>2026-04-08T13:00:37Z</time></trkpt><trkpt lat="42.678928953280575" lon="2.7416063961934283"><ele>97.99999999999999</ele><time>2026-04-08T13:00:38Z</time></trkpt><trkpt lat="42.67885341960533" lon="2.7416135401880166"><ele>98.0</ele><time>2026-04-08T13:00:39Z</time></trkpt><trkpt lat="42.67878014437152" lon="2.741683475037212"><ele>98.0</ele><time>2026-04-08T13:00:40Z</time></trkpt><trkpt lat="42.67869728961337" lon="2.741723640412906"><ele>98.0</ele><time>2026-04-08T13:00:41Z</time></trkpt><trkpt lat="42.67859400664495" lon="2.7417868188126833"><ele>98.0</ele><time>2026-04-08T13:00:42Z</time></trkpt><trkpt lat="42.67849064732048" lon="2.741842757829212"><ele>98.0</ele><time>2026-04-08T13:00:43Z</time></trkpt><trkpt lat="42.678383741184234" lon="2.741895967182984"><ele>98.0</ele><time>2026-04-08T13:00:44Z</time></trkpt><trkpt lat="42.678279316890304" lon="2.741921687752052"><ele>98.0</ele><time>2026-04-08T13:00:46Z</time></trkpt><trkpt lat="42.67808236693249" lon="2.742073943999182"><ele>98.0</ele><time>2026-04-08T13:00:47Z</time></trkpt><trkpt lat="42.67797668193994" lon="2.7421275686030997"><ele>98.0</ele><time>2026-04-08T13:00:48Z</time></trkpt><trkpt lat="42.67787337016953" lon="2.742196428154888"><ele>98.0</ele><time>2026-04-08T13:00:49Z</time></trkpt><trkpt lat="42.677769744506136" lon="2.742262711684244"><ele>98.0</ele><time>2026-04-08T13:00:50Z</time></trkpt><trkpt lat="42.67766245508439" lon="2.742322829675489"><ele>98.0</ele><time>2026-04-08T13:00:51Z</time></trkpt><trkpt lat="42.67757479500869" lon="2.742380891789764"><ele>98.0</ele><time>2026-04-08T13:00:52Z</time></trkpt><trkpt lat="42.67747645457222" lon="2.7424225165943708"><ele>98.0</ele><time>2026-04-08T13:00:53Z</time></trkpt><trkpt lat="42.677391658974216" lon="2.7424733848382945"><ele>97.99999999999999</ele><time>2026-04-08T13:00:54Z</time></trkpt><trkpt lat="42.67730871499812" lon="2.742521760066684"><ele>98.0</ele><time>2026-04-08T13:00:55Z</time></trkpt><trkpt lat="42.67723946258158" lon="2.742581826075422"><ele>98.0</ele><time>2026-04-08T13:00:56Z</time></trkpt><trkpt lat="42.677173621030406" lon="2.7425920460744067"><ele>98.0</ele><time>2026-04-08T13:00:57Z</time></trkpt><trkpt lat="42.67704739265002" lon="2.7426324397452846"><ele>97.99999999999999</ele><time>2026-04-08T13:00:59Z</time></trkpt><trkpt lat="42.67698330124454" lon="2.7426067301860533"><ele>98.0</ele><time>2026-04-08T13:01:00Z</time></trkpt><trkpt lat="42.67690936076945" lon="2.742600829845713"><ele>97.83333333333333</ele><time>2026-04-08T13:01:01Z</time></trkpt><trkpt lat="42.676839460111474" lon="2.742593308566857"><ele>97.66666666666666</ele><time>2026-04-08T13:01:02Z</time></trkpt><trkpt lat="42.676776195304015" lon="2.7425996295496287"><ele>97.5</ele><time>2026-04-08T13:01:03Z</time></trkpt><trkpt lat="42.676701745370096" lon="2.7425912402196713"><ele>97.33333333333334</ele><time>2026-04-08T13:01:04Z</time></trkpt><trkpt lat="42.6766172427746" lon="2.7425761590990394"><ele>97.16666666666667</ele><time>2026-04-08T13:01:04.999Z</time></trkpt><trkpt lat="42.676530324998694" lon="2.7425556680367764"><ele>97.0</ele><time>2026-04-08T13:01:05.999Z</time></trkpt><trkpt lat="42.67643948342357" lon="2.7425295438102024"><ele>97.0</ele><time>2026-04-08T13:01:06.999Z</time></trkpt><trkpt lat="42.676343914254716" lon="2.7424835997090424"><ele>97.0</ele><time>2026-04-08T13:01:07.999Z</time></trkpt><trkpt lat="42.67625515895255" lon="2.742451345586001"><ele>97.0</ele><time>2026-04-08T13:01:08.999Z</time></trkpt><trkpt lat="42.67616136760386" lon="2.7424219435009745"><ele>97.0</ele><time>2026-04-08T13:01:09.999Z</time></trkpt><trkpt lat="42.67606550910319" lon="2.7423838702084002"><ele>97.0</ele><time>2026-04-08T13:01:10.999Z</time></trkpt><trkpt lat="42.675968761563716" lon="2.742344196707329"><ele>96.5</ele><time>2026-04-08T13:01:11.999Z</time></trkpt><trkpt lat="42.67585640756575" lon="2.7422946947792357"><ele>96.0</ele><time>2026-04-08T13:01:12.999Z</time></trkpt><trkpt lat="42.675731573686775" lon="2.742236439670778"><ele>95.5</ele><time>2026-04-08T13:01:13.999Z</time></trkpt><trkpt lat="42.675591213119475" lon="2.742167998896217"><ele>95.0</ele><time>2026-04-08T13:01:14.999Z</time></trkpt><trkpt lat="42.67544276123576" lon="2.7420815816549604"><ele>95.0</ele><time>2026-04-08T13:01:15.999Z</time></trkpt><trkpt lat="42.67530206307038" lon="2.7419865754260107"><ele>95.0</ele><time>2026-04-08T13:01:16.999Z</time></trkpt><trkpt lat="42.67516569857184" lon="2.741887905323747"><ele>95.0</ele><time>2026-04-08T13:01:17.999Z</time></trkpt><trkpt lat="42.675033335774756" lon="2.7417951909629372"><ele>95.0</ele><time>2026-04-08T13:01:18.999Z</time></trkpt><trkpt lat="42.67490206289354" lon="2.741710152634752"><ele>95.0</ele><time>2026-04-08T13:01:19.999Z</time></trkpt><trkpt lat="42.67477158432131" lon="2.7416242283596466"><ele>95.0</ele><time>2026-04-08T13:01:20.999Z</time></trkpt><trkpt lat="42.67464149547288" lon="2.7415410108775706"><ele>95.0</ele><time>2026-04-08T13:01:21.999Z</time></trkpt><trkpt lat="42.674516682399634" lon="2.7414602716505203"><ele>95.0</ele><time>2026-04-08T13:01:22.999Z</time></trkpt><trkpt lat="42.67439617454032" lon="2.741382725249487"><ele>95.0</ele><time>2026-04-08T13:01:23.999Z</time></trkpt><trkpt lat="42.674275833513825" lon="2.741275640877244"><ele>95.0</ele><time>2026-04-08T13:01:24.999Z</time></trkpt><trkpt lat="42.67413939960351" lon="2.741208768817372"><ele>95.0</ele><time>2026-04-08T13:01:25.999Z</time></trkpt><trkpt lat="42.67400619323022" lon="2.741120673996439"><ele>95.0</ele><time>2026-04-08T13:01:26.999Z</time></trkpt><trkpt lat="42.67386985140326" lon="2.741039800474992"><ele>95.0</ele><time>2026-04-08T13:01:27.999Z</time></trkpt><trkpt lat="42.673728876988335" lon="2.740970782175397"><ele>95.0</ele><time>2026-04-08T13:01:28.999Z</time></trkpt><trkpt lat="42.673591228261934" lon="2.7409111333238165"><ele>95.0</ele><time>2026-04-08T13:01:29.999Z</time></trkpt><trkpt lat="42.673457579175725" lon="2.7408701210200204"><ele>95.25</ele><time>2026-04-08T13:01:30.999Z</time></trkpt><trkpt lat="42.67331648574288" lon="2.74083019476409"><ele>95.5</ele><time>2026-04-08T13:01:31.999Z</time></trkpt><trkpt lat="42.67318702398627" lon="2.7407967533402395"><ele>95.75</ele><time>2026-04-08T13:01:32.999Z</time></trkpt><trkpt lat="42.67306482048906" lon="2.740768591102115"><ele>96.0</ele><time>2026-04-08T13:01:33.999Z</time></trkpt><trkpt lat="42.672943898240455" lon="2.740741648312386"><ele>96.0</ele><time>2026-04-08T13:01:34.999Z</time></trkpt><trkpt lat="42.67281771925888" lon="2.7407017119321297"><ele>96.0</ele><time>2026-04-08T13:01:35.999Z</time></trkpt><trkpt lat="42.672649834761195" lon="2.7407408044972708"><ele>96.0</ele><time>2026-04-08T13:01:36.999Z</time></trkpt><trkpt lat="42.67252809604506" lon="2.740734708666014"><ele>96.0</ele><time>2026-04-08T13:01:37.999Z</time></trkpt><trkpt lat="42.67237575580169" lon="2.7407385611205886"><ele>96.0</ele><time>2026-04-08T13:01:38.999Z</time></trkpt><trkpt lat="42.67222401858492" lon="2.740759399368395"><ele>96.0</ele><time>2026-04-08T13:01:39.999Z</time></trkpt><trkpt lat="42.6720905651599" lon="2.740732408930367"><ele>96.0</ele><time>2026-04-08T13:01:40.999Z</time></trkpt><trkpt lat="42.67195268960603" lon="2.7407255472156833"><ele>96.0</ele><time>2026-04-08T13:01:41.999Z</time></trkpt><trkpt lat="42.67181062377144" lon="2.740723631969595"><ele>96.5</ele><time>2026-04-08T13:01:42.999Z</time></trkpt><trkpt lat="42.671658423738116" lon="2.740728464513215"><ele>97.0</ele><time>2026-04-08T13:01:43.999Z</time></trkpt><trkpt lat="42.67150745582066" lon="2.7407684942813537"><ele>97.5</ele><time>2026-04-08T13:01:44.999Z</time></trkpt><trkpt lat="42.67137635819542" lon="2.740790646315563"><ele>98.0</ele><time>2026-04-08T13:01:45.999Z</time></trkpt><trkpt lat="42.671263956427005" lon="2.7407961356241826"><ele>97.99999999999999</ele><time>2026-04-08T13:01:46.999Z</time></trkpt><trkpt lat="42.67118417605494" lon="2.7408084711870493"><ele>98.0</ele><time>2026-04-08T13:01:47.999Z</time></trkpt><trkpt lat="42.67106676967954" lon="2.740807257405442"><ele>98.0</ele><time>2026-04-08T13:01:49.999Z</time></trkpt><trkpt lat="42.670997026339954" lon="2.740780474877217"><ele>98.0</ele><time>2026-04-08T13:01:51.999Z</time></trkpt><trkpt lat="42.67093403076356" lon="2.7407921460640736"><ele>97.99999999999999</ele><time>2026-04-08T13:04:01.999Z</time></trkpt><trkpt lat="42.67085284795611" lon="2.7408555306435867"><ele>98.0</ele><time>2026-04-08T13:04:05Z</time></trkpt><trkpt lat="42.67077403256457" lon="2.740863835725936"><ele>97.80000000000001</ele><time>2026-04-08T13:04:06Z</time></trkpt><trkpt lat="42.670699188915194" lon="2.7408951713237317"><ele>97.6</ele><time>2026-04-08T13:04:07Z</time></trkpt><trkpt lat="42.67060700765113" lon="2.7409018930867513"><ele>97.4</ele><time>2026-04-08T13:04:08Z</time></trkpt><trkpt lat="42.670487927490875" lon="2.7409123159829347"><ele>97.19999999999999</ele><time>2026-04-08T13:04:09Z</time></trkpt><trkpt lat="42.67035014655065" lon="2.7409247213663415"><ele>97.0</ele><time>2026-04-08T13:04:10Z</time></trkpt><trkpt lat="42.670204927224965" lon="2.7409391357019586"><ele>97.0</ele><time>2026-04-08T13:04:11Z</time></trkpt><trkpt lat="42.670051030378445" lon="2.7409537033036617"><ele>97.0</ele><time>2026-04-08T13:04:12Z</time></trkpt><trkpt lat="42.669899115195456" lon="2.740942840995911"><ele>97.0</ele><time>2026-04-08T13:04:13Z</time></trkpt><trkpt lat="42.66973335554754" lon="2.740976274682063"><ele>97.0</ele><time>2026-04-08T13:04:14Z</time></trkpt><trkpt lat="42.669558167638684" lon="2.740986272435565"><ele>97.0</ele><time>2026-04-08T13:04:15Z</time></trkpt><trkpt lat="42.66938078826721" lon="2.7410077705469"><ele>97.0</ele><time>2026-04-08T13:04:16Z</time></trkpt><trkpt lat="42.66919990238605" lon="2.741021456099318"><ele>97.33333333333334</ele><time>2026-04-08T13:04:17Z</time></trkpt><trkpt lat="42.66901713317661" lon="2.7410260845129044"><ele>97.66666666666666</ele><time>2026-04-08T13:04:18Z</time></trkpt><trkpt lat="42.668830444342014" lon="2.741035182558485"><ele>98.0</ele><time>2026-04-08T13:04:19Z</time></trkpt><trkpt lat="42.668643030391536" lon="2.741039388668009"><ele>97.66666666666666</ele><time>2026-04-08T13:04:20Z</time></trkpt><trkpt lat="42.66845952437461" lon="2.741040516287926"><ele>97.33333333333334</ele><time>2026-04-08T13:04:21Z</time></trkpt><trkpt lat="42.668286433130824" lon="2.7410415587169425"><ele>97.0</ele><time>2026-04-08T13:04:22Z</time></trkpt><trkpt lat="42.668114943696864" lon="2.7410358275701214"><ele>97.0</ele><time>2026-04-08T13:04:23Z</time></trkpt><trkpt lat="42.66794696079173" lon="2.741042473721496"><ele>97.0</ele><time>2026-04-08T13:04:24Z</time></trkpt><trkpt lat="42.66778607028833" lon="2.741043583514154"><ele>97.0</ele><time>2026-04-08T13:04:25Z</time></trkpt><trkpt lat="42.66762244587627" lon="2.7410505784245993"><ele>96.66666666666667</ele><time>2026-04-08T13:04:26Z</time></trkpt><trkpt lat="42.66745765807092" lon="2.7410565861197234"><ele>96.33333333333334</ele><time>2026-04-08T13:04:27Z</time></trkpt><trkpt lat="42.667291740384435" lon="2.741060260858953"><ele>96.0</ele><time>2026-04-08T13:04:28Z</time></trkpt><trkpt lat="42.66712819089627" lon="2.7410639945335413"><ele>96.0</ele><time>2026-04-08T13:04:29Z</time></trkpt><trkpt lat="42.66697230764668" lon="2.741075391871146"><ele>96.0</ele><time>2026-04-08T13:04:30Z</time></trkpt><trkpt lat="42.666815315655114" lon="2.741078851196886"><ele>96.0</ele><time>2026-04-08T13:04:31Z</time></trkpt><trkpt lat="42.66666595993359" lon="2.7410801023082727"><ele>96.25</ele><time>2026-04-08T13:04:32Z</time></trkpt><trkpt lat="42.6665229407341" lon="2.741081115752487"><ele>96.5</ele><time>2026-04-08T13:04:33Z</time></trkpt><trkpt lat="42.66638530433073" lon="2.7410769024678845"><ele>96.75</ele><time>2026-04-08T13:04:34Z</time></trkpt><trkpt lat="42.66625620582927" lon="2.7410639674194366"><ele>97.0</ele><time>2026-04-08T13:04:35Z</time></trkpt><trkpt lat="42.66614513715859" lon="2.741063978171677"><ele>96.83333333333334</ele><time>2026-04-08T13:04:36Z</time></trkpt><trkpt lat="42.66604698653785" lon="2.7410539846819764"><ele>96.66666666666667</ele><time>2026-04-08T13:04:37Z</time></trkpt><trkpt lat="42.66595656769918" lon="2.7410420685024435"><ele>96.5</ele><time>2026-04-08T13:04:38Z</time></trkpt><trkpt lat="42.66586911254021" lon="2.741031419437327"><ele>96.33333333333334</ele><time>2026-04-08T13:04:39Z</time></trkpt><trkpt lat="42.6657879624042" lon="2.7410234758887437"><ele>96.16666666666667</ele><time>2026-04-08T13:04:40Z</time></trkpt><trkpt lat="42.66571451043638" lon="2.74101439970434"><ele>96.0</ele><time>2026-04-08T13:04:41Z</time></trkpt><trkpt lat="42.66561564950308" lon="2.7410100715483328"><ele>96.19999999999999</ele><time>2026-04-08T13:04:43Z</time></trkpt><trkpt lat="42.66553409199187" lon="2.74100571209365"><ele>96.39999999999999</ele><time>2026-04-08T13:04:46Z</time></trkpt><trkpt lat="42.6654661191105" lon="2.7410037126664486"><ele>96.6</ele><time>2026-04-08T13:04:53Z</time></trkpt><trkpt lat="42.66537184335998" lon="2.741002337064456"><ele>96.8</ele><time>2026-04-08T13:04:56Z</time></trkpt><trkpt lat="42.66527626467753" lon="2.7409939733876554"><ele>97.0</ele><time>2026-04-08T13:04:58Z</time></trkpt><trkpt lat="42.665017091537884" lon="2.740973812606154"><ele>97.0</ele><time>2026-04-08T13:05:01Z</time></trkpt><trkpt lat="42.66490675790464" lon="2.740961500049666"><ele>97.0</ele><time>2026-04-08T13:05:02Z</time></trkpt><trkpt lat="42.66478346879643" lon="2.740946259122273"><ele>97.0</ele><time>2026-04-08T13:05:03Z</time></trkpt><trkpt lat="42.66467967414233" lon="2.740934691651421"><ele>97.0</ele><time>2026-04-08T13:05:04Z</time></trkpt><trkpt lat="42.664587969767716" lon="2.7409268050040754"><ele>97.0</ele><time>2026-04-08T13:05:05Z</time></trkpt><trkpt lat="42.664493767518486" lon="2.740917197423529"><ele>97.25</ele><time>2026-04-08T13:05:06Z</time></trkpt><trkpt lat="42.664395861963335" lon="2.7409062176336128"><ele>97.5</ele><time>2026-04-08T13:05:07Z</time></trkpt><trkpt lat="42.66427954825531" lon="2.7408961991338625"><ele>97.75</ele><time>2026-04-08T13:05:08Z</time></trkpt><trkpt lat="42.664146747810236" lon="2.740887596507177"><ele>98.0</ele><time>2026-04-08T13:05:09Z</time></trkpt><trkpt lat="42.66401651592172" lon="2.7408746961986803"><ele>98.0</ele><time>2026-04-08T13:05:10Z</time></trkpt><trkpt lat="42.66389371754312" lon="2.740865935810263"><ele>98.0</ele><time>2026-04-08T13:05:11Z</time></trkpt><trkpt lat="42.66376645346663" lon="2.7408551368499"><ele>98.0</ele><time>2026-04-08T13:05:12Z</time></trkpt><trkpt lat="42.66363626162423" lon="2.7408452002106194"><ele>98.0</ele><time>2026-04-08T13:05:12.999Z</time></trkpt><trkpt lat="42.66351105794568" lon="2.7408418807211015"><ele>98.25</ele><time>2026-04-08T13:05:13.999Z</time></trkpt><trkpt lat="42.66338729354617" lon="2.7408355726581237"><ele>98.5</ele><time>2026-04-08T13:05:14.999Z</time></trkpt><trkpt lat="42.66326709280875" lon="2.7408249230988972"><ele>98.75</ele><time>2026-04-08T13:05:15.999Z</time></trkpt><trkpt lat="42.66314916155889" lon="2.740811936808854"><ele>99.0</ele><time>2026-04-08T13:05:16.999Z</time></trkpt><trkpt lat="42.66303614505042" lon="2.740800790998635"><ele>99.0</ele><time>2026-04-08T13:05:17.999Z</time></trkpt><trkpt lat="42.66292004296457" lon="2.7407916389073983"><ele>99.0</ele><time>2026-04-08T13:05:18.999Z</time></trkpt><trkpt lat="42.66281264603816" lon="2.740783708572848"><ele>99.0</ele><time>2026-04-08T13:05:19.999Z</time></trkpt><trkpt lat="42.662700612635874" lon="2.7407813866667357"><ele>99.0</ele><time>2026-04-08T13:05:20.999Z</time></trkpt><trkpt lat="42.66258721007648" lon="2.7407813243429153"><ele>99.0</ele><time>2026-04-08T13:05:21.999Z</time></trkpt><trkpt lat="42.66247581885033" lon="2.7408229519413925"><ele>99.0</ele><time>2026-04-08T13:05:22.999Z</time></trkpt><trkpt lat="42.662371736970215" lon="2.740858006916194"><ele>99.0</ele><time>2026-04-08T13:05:23.999Z</time></trkpt><trkpt lat="42.66227343214126" lon="2.7408933755551588"><ele>99.0</ele><time>2026-04-08T13:05:24.999Z</time></trkpt><trkpt lat="42.66218570636641" lon="2.740915999343535"><ele>99.0</ele><time>2026-04-08T13:05:25.999Z</time></trkpt><trkpt lat="42.66210176707083" lon="2.7409371805307807"><ele>99.0</ele><time>2026-04-08T13:05:26.999Z</time></trkpt><trkpt lat="42.6620183450115" lon="2.7409619988201084"><ele>99.33333333333333</ele><time>2026-04-08T13:05:27.999Z</time></trkpt><trkpt lat="42.66194336865419" lon="2.740986673584779"><ele>99.66666666666666</ele><time>2026-04-08T13:05:28.999Z</time></trkpt><trkpt lat="42.66187711288497" lon="2.7410202708096323"><ele>100.0</ele><time>2026-04-08T13:05:29.999Z</time></trkpt><trkpt lat="42.661771670491966" lon="2.741135391415556"><ele>100.33333333333333</ele><time>2026-04-08T13:05:31.999Z</time></trkpt><trkpt lat="42.66173127832272" lon="2.741224754873691"><ele>100.66666666666666</ele><time>2026-04-08T13:05:32.999Z</time></trkpt><trkpt lat="42.661702320683524" lon="2.741329354628528"><ele>101.0</ele><time>2026-04-08T13:05:33.999Z</time></trkpt><trkpt lat="42.66169684400542" lon="2.7414435734099327"><ele>101.0</ele><time>2026-04-08T13:05:34.999Z</time></trkpt><trkpt lat="42.66169955617567" lon="2.741588669093825"><ele>101.0</ele><time>2026-04-08T13:05:35.999Z</time></trkpt><trkpt lat="42.66170084581245" lon="2.7417415234818296"><ele>101.0</ele><time>2026-04-08T13:05:36.999Z</time></trkpt><trkpt lat="42.661701643886914" lon="2.741873975021771"><ele>101.0</ele><time>2026-04-08T13:05:37.999Z</time></trkpt><trkpt lat="42.66170167586198" lon="2.7420002015738203"><ele>101.0</ele><time>2026-04-08T13:05:38.999Z</time></trkpt><trkpt lat="42.66169879331948" lon="2.742129816700868"><ele>100.66666666666666</ele><time>2026-04-08T13:05:39.999Z</time></trkpt><trkpt lat="42.66169418357411" lon="2.742242171794445"><ele>100.33333333333333</ele><time>2026-04-08T13:05:40.999Z</time></trkpt><trkpt lat="42.66167409068949" lon="2.742359347835038"><ele>100.0</ele><time>2026-04-08T13:05:41.999Z</time></trkpt><trkpt lat="42.661637149790636" lon="2.7424580159560876"><ele>99.66666666666666</ele><time>2026-04-08T13:05:42.999Z</time></trkpt><trkpt lat="42.6615659235503" lon="2.742528102662652"><ele>99.33333333333333</ele><time>2026-04-08T13:05:43.999Z</time></trkpt><trkpt lat="42.66147772613293" lon="2.7425549083358853"><ele>99.0</ele><time>2026-04-08T13:05:44.999Z</time></trkpt><trkpt lat="42.6613867295215" lon="2.7425662278380547"><ele>99.0</ele><time>2026-04-08T13:05:45.999Z</time></trkpt><trkpt lat="42.661272732721834" lon="2.7425662570126517"><ele>99.0</ele><time>2026-04-08T13:05:46.999Z</time></trkpt><trkpt lat="42.6611367609258" lon="2.7425799803651194"><ele>99.0</ele><time>2026-04-08T13:05:47.999Z</time></trkpt><trkpt lat="42.660983473238616" lon="2.742571547663733"><ele>99.0</ele><time>2026-04-08T13:05:48.999Z</time></trkpt><trkpt lat="42.66082856548826" lon="2.7425719681908376"><ele>99.33333333333334</ele><time>2026-04-08T13:05:49.999Z</time></trkpt><trkpt lat="42.66066271085328" lon="2.7425693996517038"><ele>99.66666666666667</ele><time>2026-04-08T13:05:50.999Z</time></trkpt><trkpt lat="42.66048416133905" lon="2.742574200206781"><ele>100.0</ele><time>2026-04-08T13:05:51.999Z</time></trkpt><trkpt lat="42.66030815811832" lon="2.742562253350045"><ele>100.66666666666667</ele><time>2026-04-08T13:05:52.999Z</time></trkpt><trkpt lat="42.66012258138067" lon="2.742552698347515"><ele>101.33333333333334</ele><time>2026-04-08T13:05:53.999Z</time></trkpt><trkpt lat="42.6599281892007" lon="2.742555104135563"><ele>102.0</ele><time>2026-04-08T13:05:54.999Z</time></trkpt><trkpt lat="42.659733561609855" lon="2.7425575698589104"><ele>102.0</ele><time>2026-04-08T13:05:55.999Z</time></trkpt><trkpt lat="42.65954016566471" lon="2.7425576177925755"><ele>102.0</ele><time>2026-04-08T13:05:56.999Z</time></trkpt><trkpt lat="42.65935311903074" lon="2.742556070814769"><ele>102.0</ele><time>2026-04-08T13:05:57.999Z</time></trkpt><trkpt lat="42.65916833383214" lon="2.7425533908169433"><ele>102.0</ele><time>2026-04-08T13:05:58.999Z</time></trkpt><trkpt lat="42.65898880468468" lon="2.7425545689813218"><ele>102.0</ele><time>2026-04-08T13:05:59.999Z</time></trkpt><trkpt lat="42.65880841385789" lon="2.742556295707097"><ele>102.0</ele><time>2026-04-08T13:06:00.999Z</time></trkpt><trkpt lat="42.658635736327206" lon="2.742555786086857"><ele>101.66666666666666</ele><time>2026-04-08T13:06:01.999Z</time></trkpt><trkpt lat="42.65846696265951" lon="2.7425584536969554"><ele>101.33333333333333</ele><time>2026-04-08T13:06:02.999Z</time></trkpt><trkpt lat="42.65829507970223" lon="2.742562634946845"><ele>101.0</ele><time>2026-04-08T13:06:03.999Z</time></trkpt><trkpt lat="42.65812571057724" lon="2.7425594851004083"><ele>101.0</ele><time>2026-04-08T13:06:04.999Z</time></trkpt><trkpt lat="42.65796852644713" lon="2.7425538564434406"><ele>101.0</ele><time>2026-04-08T13:06:05.999Z</time></trkpt><trkpt lat="42.65781142979293" lon="2.7425521906662245"><ele>101.0</ele><time>2026-04-08T13:06:06.999Z</time></trkpt><trkpt lat="42.657656161777574" lon="2.7425550359229764"><ele>101.0</ele><time>2026-04-08T13:06:07.999Z</time></trkpt><trkpt lat="42.657509991510665" lon="2.742558335520418"><ele>101.0</ele><time>2026-04-08T13:06:09Z</time></trkpt><trkpt lat="42.65737646441738" lon="2.742563476614753"><ele>101.0</ele><time>2026-04-08T13:06:10Z</time></trkpt><trkpt lat="42.65723989370694" lon="2.742569714484386"><ele>101.0</ele><time>2026-04-08T13:06:11Z</time></trkpt><trkpt lat="42.65710853322267" lon="2.7425891631001926"><ele>101.0</ele><time>2026-04-08T13:06:12Z</time></trkpt><trkpt lat="42.65697147524696" lon="2.742629869447762"><ele>101.0</ele><time>2026-04-08T13:06:13Z</time></trkpt><trkpt lat="42.65683066023769" lon="2.7426842014154604"><ele>101.0</ele><time>2026-04-08T13:06:14Z</time></trkpt><trkpt lat="42.65667910734199" lon="2.7427448839458988"><ele>101.0</ele><time>2026-04-08T13:06:15Z</time></trkpt><trkpt lat="42.65651699560094" lon="2.742810976605356"><ele>101.33333333333333</ele><time>2026-04-08T13:06:16Z</time></trkpt><trkpt lat="42.65634707825777" lon="2.742884050794367"><ele>101.66666666666666</ele><time>2026-04-08T13:06:17Z</time></trkpt><trkpt lat="42.656169051923335" lon="2.742958029672379"><ele>102.0</ele><time>2026-04-08T13:06:18Z</time></trkpt><trkpt lat="42.65598657641154" lon="2.743040951862737"><ele>101.0</ele><time>2026-04-08T13:06:19Z</time></trkpt><trkpt lat="42.65579967765859" lon="2.743132646720983"><ele>100.0</ele><time>2026-04-08T13:06:20Z</time></trkpt><trkpt lat="42.65561311734496" lon="2.7432301748207486"><ele>99.0</ele><time>2026-04-08T13:06:21Z</time></trkpt><trkpt lat="42.65543963940279" lon="2.7433252818800997"><ele>99.0</ele><time>2026-04-08T13:06:22Z</time></trkpt><trkpt lat="42.655277239358085" lon="2.743417786651484"><ele>99.0</ele><time>2026-04-08T13:06:23Z</time></trkpt><trkpt lat="42.655112045166014" lon="2.7435044244215683"><ele>99.0</ele><time>2026-04-08T13:06:24Z</time></trkpt><trkpt lat="42.654944312931846" lon="2.743587725747813"><ele>99.0</ele><time>2026-04-08T13:06:25Z</time></trkpt><trkpt lat="42.654778984562476" lon="2.743672043366637"><ele>99.0</ele><time>2026-04-08T13:06:26Z</time></trkpt><trkpt lat="42.65461260195937" lon="2.743757967205195"><ele>99.0</ele><time>2026-04-08T13:06:27Z</time></trkpt><trkpt lat="42.65444300492375" lon="2.7438462173401073"><ele>99.66666666666666</ele><time>2026-04-08T13:06:28Z</time></trkpt><trkpt lat="42.65427325015851" lon="2.743933220966426"><ele>100.33333333333333</ele><time>2026-04-08T13:06:29Z</time></trkpt><trkpt lat="42.65410371382531" lon="2.744016207140343"><ele>101.0</ele><time>2026-04-08T13:06:30Z</time></trkpt><trkpt lat="42.65393357654132" lon="2.744092721739822"><ele>101.0</ele><time>2026-04-08T13:06:31Z</time></trkpt><trkpt lat="42.653762011688364" lon="2.744164234330196"><ele>101.0</ele><time>2026-04-08T13:06:32Z</time></trkpt><trkpt lat="42.65358507942002" lon="2.7442369648844767"><ele>101.0</ele><time>2026-04-08T13:06:33Z</time></trkpt><trkpt lat="42.65340807610004" lon="2.744310094957264"><ele>100.66666666666666</ele><time>2026-04-08T13:06:34Z</time></trkpt><trkpt lat="42.653235225646235" lon="2.7443856121262646"><ele>100.33333333333334</ele><time>2026-04-08T13:06:35Z</time></trkpt><trkpt lat="42.653060813056626" lon="2.7444586569308886"><ele>100.0</ele><time>2026-04-08T13:06:36Z</time></trkpt><trkpt lat="42.652885635718306" lon="2.744523443384672"><ele>100.66666666666667</ele><time>2026-04-08T13:06:37Z</time></trkpt><trkpt lat="42.652716726324535" lon="2.744576434768976"><ele>101.33333333333334</ele><time>2026-04-08T13:06:38Z</time></trkpt><trkpt lat="42.652560993795866" lon="2.744629470980369"><ele>102.0</ele><time>2026-04-08T13:06:39Z</time></trkpt><trkpt lat="42.652415555532514" lon="2.7446798286654874"><ele>102.0</ele><time>2026-04-08T13:06:40Z</time></trkpt><trkpt lat="42.65228033714868" lon="2.744725770572906"><ele>102.0</ele><time>2026-04-08T13:06:41Z</time></trkpt><trkpt lat="42.652154255129055" lon="2.744770213764029"><ele>102.0</ele><time>2026-04-08T13:06:42Z</time></trkpt><trkpt lat="42.65204309074775" lon="2.7448098823692137"><ele>102.0</ele><time>2026-04-08T13:06:43Z</time></trkpt><trkpt lat="42.651924110243364" lon="2.744853943996397"><ele>102.25</ele><time>2026-04-08T13:06:44Z</time></trkpt><trkpt lat="42.65180868345013" lon="2.7448966204521006"><ele>102.5</ele><time>2026-04-08T13:06:45Z</time></trkpt><trkpt lat="42.651705369152594" lon="2.744942553336983"><ele>102.75</ele><time>2026-04-08T13:06:46Z</time></trkpt><trkpt lat="42.651578347213814" lon="2.7450236086304116"><ele>103.0</ele><time>2026-04-08T13:06:47Z</time></trkpt><trkpt lat="42.651501804926475" lon="2.7451483227032876"><ele>102.25</ele><time>2026-04-08T13:06:48Z</time></trkpt><trkpt lat="42.65140136468121" lon="2.745270854289008"><ele>101.5</ele><time>2026-04-08T13:06:49Z</time></trkpt><trkpt lat="42.651277539400276" lon="2.745384456146141"><ele>100.75</ele><time>2026-04-08T13:06:50Z</time></trkpt><trkpt lat="42.651133458694225" lon="2.7454744812611893"><ele>100.0</ele><time>2026-04-08T13:06:51Z</time></trkpt><trkpt lat="42.65097938602453" lon="2.7455598229444456"><ele>100.0</ele><time>2026-04-08T13:06:52Z</time></trkpt><trkpt lat="42.65083476997326" lon="2.7456457544563446"><ele>100.0</ele><time>2026-04-08T13:06:53Z</time></trkpt><trkpt lat="42.65067837020477" lon="2.7457443010095575"><ele>100.0</ele><time>2026-04-08T13:06:54Z</time></trkpt><trkpt lat="42.650530864173966" lon="2.7458376824966235"><ele>100.0</ele><time>2026-04-08T13:06:55Z</time></trkpt><trkpt lat="42.65040375643199" lon="2.7459202502128153"><ele>100.0</ele><time>2026-04-08T13:06:56Z</time></trkpt><trkpt lat="42.650284686463316" lon="2.745994394837976"><ele>100.0</ele><time>2026-04-08T13:06:57Z</time></trkpt><trkpt lat="42.650167776371035" lon="2.7460705363742868"><ele>100.0</ele><time>2026-04-08T13:06:58Z</time></trkpt><trkpt lat="42.650066878832966" lon="2.7461502729650293"><ele>99.75</ele><time>2026-04-08T13:06:59Z</time></trkpt><trkpt lat="42.649978275898285" lon="2.7462561339827394"><ele>99.5</ele><time>2026-04-08T13:07:00Z</time></trkpt><trkpt lat="42.64989911961599" lon="2.7463813060548907"><ele>99.25</ele><time>2026-04-08T13:07:01Z</time></trkpt><trkpt lat="42.649831608501934" lon="2.746509712548708"><ele>99.0</ele><time>2026-04-08T13:07:02Z</time></trkpt><trkpt lat="42.64973616475812" lon="2.7466226661224833"><ele>99.0</ele><time>2026-04-08T13:07:03Z</time></trkpt><trkpt lat="42.64960868918017" lon="2.746665373098103"><ele>99.0</ele><time>2026-04-08T13:07:04Z</time></trkpt><trkpt lat="42.64948111453918" lon="2.7467189590490415"><ele>99.0</ele><time>2026-04-08T13:07:05Z</time></trkpt><trkpt lat="42.6493511116106" lon="2.7467705628681762"><ele>99.0</ele><time>2026-04-08T13:07:06Z</time></trkpt><trkpt lat="42.64922573129296" lon="2.746819784472733"><ele>98.80000000000001</ele><time>2026-04-08T13:07:07Z</time></trkpt><trkpt lat="42.64911660316315" lon="2.74686262562991"><ele>98.60000000000001</ele><time>2026-04-08T13:07:07.999Z</time></trkpt><trkpt lat="42.64901400650594" lon="2.7468896077747553"><ele>98.4</ele><time>2026-04-08T13:07:08.999Z</time></trkpt><trkpt lat="42.64891481649492" lon="2.746877416324022"><ele>98.2</ele><time>2026-04-08T13:07:09.999Z</time></trkpt><trkpt lat="42.64882414751853" lon="2.7468140418430735"><ele>98.0</ele><time>2026-04-08T13:07:10.999Z</time></trkpt><trkpt lat="42.64871629802641" lon="2.746737865249331"><ele>97.75</ele><time>2026-04-08T13:07:11.999Z</time></trkpt><trkpt lat="42.64859525557328" lon="2.7466510117972835"><ele>97.5</ele><time>2026-04-08T13:07:12.999Z</time></trkpt><trkpt lat="42.64846475756837" lon="2.746557438707649"><ele>97.25</ele><time>2026-04-08T13:07:13.999Z</time></trkpt><trkpt lat="42.648332095776595" lon="2.7464643936273627"><ele>97.0</ele><time>2026-04-08T13:07:14.999Z</time></trkpt><trkpt lat="42.648187322303336" lon="2.74638956156955"><ele>97.0</ele><time>2026-04-08T13:07:15.999Z</time></trkpt><trkpt lat="42.648065826801144" lon="2.7463058002116942"><ele>97.0</ele><time>2026-04-08T13:07:16.999Z</time></trkpt><trkpt lat="42.64795272583505" lon="2.7462215251109376"><ele>97.0</ele><time>2026-04-08T13:07:17.999Z</time></trkpt><trkpt lat="42.647830627290475" lon="2.746134198591966"><ele>97.0</ele><time>2026-04-08T13:07:18.999Z</time></trkpt><trkpt lat="42.647707783280254" lon="2.7460525172578842"><ele>97.5</ele><time>2026-04-08T13:07:19.999Z</time></trkpt><trkpt lat="42.64759817309088" lon="2.745972127658081"><ele>98.0</ele><time>2026-04-08T13:07:20.999Z</time></trkpt><trkpt lat="42.64749287092491" lon="2.745898582910306"><ele>98.5</ele><time>2026-04-08T13:07:21.999Z</time></trkpt><trkpt lat="42.64739416379247" lon="2.745833785963792"><ele>99.0</ele><time>2026-04-08T13:07:22.999Z</time></trkpt><trkpt lat="42.64729850661669" lon="2.745774620018146"><ele>99.0</ele><time>2026-04-08T13:07:23.999Z</time></trkpt><trkpt lat="42.647205098628135" lon="2.745734190793854"><ele>99.0</ele><time>2026-04-08T13:07:24.999Z</time></trkpt><trkpt lat="42.647109102227546" lon="2.7457301440762363"><ele>99.0</ele><time>2026-04-08T13:07:25.999Z</time></trkpt><trkpt lat="42.64701307258813" lon="2.745768636844064"><ele>99.0</ele><time>2026-04-08T13:07:26.999Z</time></trkpt><trkpt lat="42.64693372315159" lon="2.7458586595720456"><ele>99.0</ele><time>2026-04-08T13:07:27.999Z</time></trkpt><trkpt lat="42.64686074764814" lon="2.7459891135304733"><ele>98.66666666666666</ele><time>2026-04-08T13:07:28.999Z</time></trkpt><trkpt lat="42.64679155244274" lon="2.746191734359119"><ele>98.33333333333333</ele><time>2026-04-08T13:07:29.999Z</time></trkpt><trkpt lat="42.646704921445696" lon="2.7463371484602312"><ele>98.0</ele><time>2026-04-08T13:07:30.999Z</time></trkpt><trkpt lat="42.64661197127935" lon="2.74649763632028"><ele>98.0</ele><time>2026-04-08T13:07:31.999Z</time></trkpt><trkpt lat="42.64651656894332" lon="2.7466680869834073"><ele>98.0</ele><time>2026-04-08T13:07:32.999Z</time></trkpt><trkpt lat="42.646414461644135" lon="2.746841265813857"><ele>98.0</ele><time>2026-04-08T13:07:33.999Z</time></trkpt><trkpt lat="42.6463051603693" lon="2.7470150055615217"><ele>98.0</ele><time>2026-04-08T13:07:34.999Z</time></trkpt><trkpt lat="42.64618033061022" lon="2.747218410174576"><ele>98.0</ele><time>2026-04-08T13:07:35.999Z</time></trkpt><trkpt lat="42.64607353808638" lon="2.747365794302104"><ele>98.0</ele><time>2026-04-08T13:07:36.999Z</time></trkpt><trkpt lat="42.64595867008623" lon="2.7475142782009803"><ele>98.0</ele><time>2026-04-08T13:07:37.999Z</time></trkpt><trkpt lat="42.645840920761856" lon="2.7476528515209844"><ele>98.0</ele><time>2026-04-08T13:07:38.999Z</time></trkpt><trkpt lat="42.6457345535111" lon="2.7477826299048296"><ele>98.0</ele><time>2026-04-08T13:07:39.999Z</time></trkpt><trkpt lat="42.645637361801214" lon="2.747901091157244"><ele>98.0</ele><time>2026-04-08T13:07:40.999Z</time></trkpt><trkpt lat="42.64554581528061" lon="2.748021579511516"><ele>98.0</ele><time>2026-04-08T13:07:41.999Z</time></trkpt><trkpt lat="42.6454679259593" lon="2.7481328988411047"><ele>98.0</ele><time>2026-04-08T13:07:42.999Z</time></trkpt><trkpt lat="42.64539437221068" lon="2.748225818585106"><ele>98.0</ele><time>2026-04-08T13:07:43.999Z</time></trkpt><trkpt lat="42.64530107577653" lon="2.7482900891891004"><ele>98.0</ele><time>2026-04-08T13:07:44.999Z</time></trkpt><trkpt lat="42.645222150078894" lon="2.7483236497090027"><ele>98.0</ele><time>2026-04-08T13:07:45.999Z</time></trkpt><trkpt lat="42.645127357782734" lon="2.7483262232106846"><ele>98.0</ele><time>2026-04-08T13:07:46.999Z</time></trkpt><trkpt lat="42.64502266688148" lon="2.7482821537732067"><ele>98.0</ele><time>2026-04-08T13:07:47.999Z</time></trkpt><trkpt lat="42.644900846328184" lon="2.7482204083943627"><ele>98.0</ele><time>2026-04-08T13:07:48.999Z</time></trkpt><trkpt lat="42.64476259540006" lon="2.748162695655038"><ele>98.0</ele><time>2026-04-08T13:07:49.999Z</time></trkpt><trkpt lat="42.64463106818385" lon="2.7481089320657452"><ele>98.0</ele><time>2026-04-08T13:07:50.999Z</time></trkpt><trkpt lat="42.644497743324855" lon="2.748054433640182"><ele>98.0</ele><time>2026-04-08T13:07:51.999Z</time></trkpt><trkpt lat="42.64435257847592" lon="2.748018183311363"><ele>98.0</ele><time>2026-04-08T13:07:52.999Z</time></trkpt><trkpt lat="42.64421437571758" lon="2.747938603463191"><ele>98.0</ele><time>2026-04-08T13:07:53.999Z</time></trkpt><trkpt lat="42.644071467777955" lon="2.747880187885533"><ele>98.0</ele><time>2026-04-08T13:07:54.999Z</time></trkpt><trkpt lat="42.643934558474875" lon="2.747824226060702"><ele>98.0</ele><time>2026-04-08T13:07:55.999Z</time></trkpt><trkpt lat="42.64380688134505" lon="2.747794205059164"><ele>98.0</ele><time>2026-04-08T13:07:56.999Z</time></trkpt><trkpt lat="42.643693411983634" lon="2.7477476835840537"><ele>98.0</ele><time>2026-04-08T13:07:57.999Z</time></trkpt><trkpt lat="42.6435915606855" lon="2.7477050645585086"><ele>98.0</ele><time>2026-04-08T13:07:58.999Z</time></trkpt><trkpt lat="42.643503829147306" lon="2.74766511577093"><ele>98.0</ele><time>2026-04-08T13:07:59.999Z</time></trkpt><trkpt lat="42.643376874226746" lon="2.7476062453236536"><ele>98.0</ele><time>2026-04-08T13:08:01.999Z</time></trkpt><trkpt lat="42.643245836546484" lon="2.7475583007679596"><ele>98.0</ele><time>2026-04-08T13:08:02.999Z</time></trkpt><trkpt lat="42.64315726146485" lon="2.7475579359332127"><ele>98.0</ele><time>2026-04-08T13:08:03.999Z</time></trkpt><trkpt lat="42.64307903709894" lon="2.7475983457189805"><ele>98.0</ele><time>2026-04-08T13:08:04.999Z</time></trkpt><trkpt lat="42.643002239812546" lon="2.74765248096062"><ele>98.0</ele><time>2026-04-08T13:08:05.999Z</time></trkpt><trkpt lat="42.64295398237484" lon="2.747785906529574"><ele>98.0</ele><time>2026-04-08T13:08:06.999Z</time></trkpt><trkpt lat="42.64290071546945" lon="2.7479171732179513"><ele>98.0</ele><time>2026-04-08T13:08:07.999Z</time></trkpt><trkpt lat="42.64283965192808" lon="2.748075327280878"><ele>98.0</ele><time>2026-04-08T13:08:08.999Z</time></trkpt><trkpt lat="42.64277214499939" lon="2.748224735196092"><ele>98.0</ele><time>2026-04-08T13:08:09.999Z</time></trkpt><trkpt lat="42.64271613477704" lon="2.7483662332455734"><ele>98.0</ele><time>2026-04-08T13:08:10.999Z</time></trkpt><trkpt lat="42.64265720846231" lon="2.7484998212161686"><ele>98.0</ele><time>2026-04-08T13:08:11.999Z</time></trkpt><trkpt lat="42.642595752100306" lon="2.7486494561639345"><ele>98.25</ele><time>2026-04-08T13:08:12.999Z</time></trkpt><trkpt lat="42.642532752624255" lon="2.7488229039202974"><ele>98.5</ele><time>2026-04-08T13:08:13.999Z</time></trkpt><trkpt lat="42.642470949600195" lon="2.7489819786117593"><ele>98.75</ele><time>2026-04-08T13:08:15Z</time></trkpt><trkpt lat="42.64241021603681" lon="2.7491311282666038"><ele>99.0</ele><time>2026-04-08T13:08:16Z</time></trkpt><trkpt lat="42.64234700848175" lon="2.749287994529158"><ele>98.6</ele><time>2026-04-08T13:08:17Z</time></trkpt><trkpt lat="42.64228294916891" lon="2.749427937487441"><ele>98.2</ele><time>2026-04-08T13:08:18Z</time></trkpt><trkpt lat="42.64222912380312" lon="2.7495641849267383"><ele>97.8</ele><time>2026-04-08T13:08:19Z</time></trkpt><trkpt lat="42.64218011068805" lon="2.7496866571173304"><ele>97.39999999999999</ele><time>2026-04-08T13:08:20Z</time></trkpt><trkpt lat="42.64213230982297" lon="2.7497932743889524"><ele>97.0</ele><time>2026-04-08T13:08:21Z</time></trkpt><trkpt lat="42.64208260720972" lon="2.7498901173784573"><ele>97.0</ele><time>2026-04-08T13:08:22Z</time></trkpt><trkpt lat="42.6420229709818" lon="2.7499679785421716"><ele>97.0</ele><time>2026-04-08T13:08:23Z</time></trkpt><trkpt lat="42.64194451967602" lon="2.7500177934056684"><ele>97.0</ele><time>2026-04-08T13:08:24Z</time></trkpt><trkpt lat="42.6418604386034" lon="2.750025854180388"><ele>97.0</ele><time>2026-04-08T13:08:25Z</time></trkpt><trkpt lat="42.641764772530344" lon="2.750000758824337"><ele>97.0</ele><time>2026-04-08T13:08:26Z</time></trkpt><trkpt lat="42.64167929431129" lon="2.7499049394232347"><ele>97.0</ele><time>2026-04-08T13:08:27Z</time></trkpt><trkpt lat="42.64156657962194" lon="2.749830769997091"><ele>97.0</ele><time>2026-04-08T13:08:28Z</time></trkpt><trkpt lat="42.64144387584419" lon="2.749768132821116"><ele>97.0</ele><time>2026-04-08T13:08:29Z</time></trkpt><trkpt lat="42.641316982663135" lon="2.7496854356687623"><ele>97.0</ele><time>2026-04-08T13:08:30Z</time></trkpt><trkpt lat="42.64119222324069" lon="2.749609417575993"><ele>96.75</ele><time>2026-04-08T13:08:31Z</time></trkpt><trkpt lat="42.64107179487529" lon="2.7495349833313516"><ele>96.5</ele><time>2026-04-08T13:08:32Z</time></trkpt><trkpt lat="42.64094501632753" lon="2.7494577607340056"><ele>96.25</ele><time>2026-04-08T13:08:33Z</time></trkpt><trkpt lat="42.64082500022815" lon="2.7493799773094207"><ele>96.0</ele><time>2026-04-08T13:08:34Z</time></trkpt><trkpt lat="42.64071397353288" lon="2.7493227575528705"><ele>96.0</ele><time>2026-04-08T13:08:35Z</time></trkpt><trkpt lat="42.640613109634515" lon="2.7492583634166374"><ele>96.0</ele><time>2026-04-08T13:08:36Z</time></trkpt><trkpt lat="42.640514415510246" lon="2.7492165188652318"><ele>96.0</ele><time>2026-04-08T13:08:37Z</time></trkpt><trkpt lat="42.64041434168835" lon="2.7491736870822305"><ele>96.0</ele><time>2026-04-08T13:08:38Z</time></trkpt><trkpt lat="42.640322388464" lon="2.7491452671675645"><ele>96.0</ele><time>2026-04-08T13:08:39Z</time></trkpt><trkpt lat="42.64023824776851" lon="2.7491152632201166"><ele>95.85714285714285</ele><time>2026-04-08T13:08:40Z</time></trkpt><trkpt lat="42.6401563093369" lon="2.7490887969958524"><ele>95.71428571428571</ele><time>2026-04-08T13:08:41Z</time></trkpt><trkpt lat="42.640082466528604" lon="2.7490644910556647"><ele>95.57142857142857</ele><time>2026-04-08T13:08:42Z</time></trkpt><trkpt lat="42.64001369910247" lon="2.7490405868297554"><ele>95.42857142857142</ele><time>2026-04-08T13:08:43Z</time></trkpt><trkpt lat="42.639951720651524" lon="2.7490137286828022"><ele>95.28571428571429</ele><time>2026-04-08T13:08:44Z</time></trkpt><trkpt lat="42.63989065554399" lon="2.748964362146956"><ele>95.14285714285714</ele><time>2026-04-08T13:08:45Z</time></trkpt><trkpt lat="42.6398378617801" lon="2.748910438628504"><ele>95.0</ele><time>2026-04-08T13:08:46Z</time></trkpt><trkpt lat="42.63977698501059" lon="2.7488754936404542"><ele>95.0</ele><time>2026-04-08T13:08:47Z</time></trkpt><trkpt lat="42.63970882831057" lon="2.748873919873288"><ele>95.0</ele><time>2026-04-08T13:08:48Z</time></trkpt><trkpt lat="42.63964071399738" lon="2.7489037099496105"><ele>95.0</ele><time>2026-04-08T13:08:49Z</time></trkpt><trkpt lat="42.639580641643875" lon="2.748969341096513"><ele>95.0</ele><time>2026-04-08T13:08:50Z</time></trkpt><trkpt lat="42.6395294992986" lon="2.749057568508896"><ele>95.0</ele><time>2026-04-08T13:08:51Z</time></trkpt><trkpt lat="42.6394731377608" lon="2.7491402501986113"><ele>95.0</ele><time>2026-04-08T13:08:52Z</time></trkpt><trkpt lat="42.63939736974626" lon="2.74920652413788"><ele>95.2</ele><time>2026-04-08T13:08:53Z</time></trkpt><trkpt lat="42.63932085316992" lon="2.7492403147129534"><ele>95.4</ele><time>2026-04-08T13:08:54Z</time></trkpt><trkpt lat="42.63923925670877" lon="2.749275413873278"><ele>95.6</ele><time>2026-04-08T13:08:55Z</time></trkpt><trkpt lat="42.63914488242964" lon="2.7493079557195426"><ele>95.8</ele><time>2026-04-08T13:08:56Z</time></trkpt><trkpt lat="42.6390420949142" lon="2.749346926529339"><ele>96.0</ele><time>2026-04-08T13:08:57Z</time></trkpt><trkpt lat="42.63891173990352" lon="2.7493959959255108"><ele>95.66666666666667</ele><time>2026-04-08T13:08:58Z</time></trkpt><trkpt lat="42.638768021855164" lon="2.749441869168789"><ele>95.33333333333334</ele><time>2026-04-08T13:08:59Z</time></trkpt><trkpt lat="42.638609741006455" lon="2.7494866057088694"><ele>95.0</ele><time>2026-04-08T13:09:00Z</time></trkpt><trkpt lat="42.6384461591402" lon="2.749523859250654"><ele>95.0</ele><time>2026-04-08T13:09:01Z</time></trkpt><trkpt lat="42.63828034205608" lon="2.749549039885353"><ele>95.0</ele><time>2026-04-08T13:09:02Z</time></trkpt><trkpt lat="42.638117790360596" lon="2.749570673722967"><ele>95.0</ele><time>2026-04-08T13:09:03Z</time></trkpt><trkpt lat="42.63796446658469" lon="2.749596323777908"><ele>95.0</ele><time>2026-04-08T13:09:04Z</time></trkpt><trkpt lat="42.637821239844335" lon="2.749630628098968"><ele>95.0</ele><time>2026-04-08T13:09:05Z</time></trkpt><trkpt lat="42.63768671506611" lon="2.749671868606886"><ele>95.0</ele><time>2026-04-08T13:09:06Z</time></trkpt><trkpt lat="42.63756376999789" lon="2.7497250148843535"><ele>95.0</ele><time>2026-04-08T13:09:07Z</time></trkpt><trkpt lat="42.637458076394736" lon="2.7497806526252035"><ele>95.0</ele><time>2026-04-08T13:09:08Z</time></trkpt><trkpt lat="42.63736398547045" lon="2.749830317174658"><ele>95.0</ele><time>2026-04-08T13:09:09Z</time></trkpt><trkpt lat="42.637290991147516" lon="2.7498670604048816"><ele>95.0</ele><time>2026-04-08T13:09:10Z</time></trkpt><trkpt lat="42.63716557783894" lon="2.749892202260223"><ele>95.0</ele><time>2026-04-08T13:09:11.999Z</time></trkpt><trkpt lat="42.63709503534866" lon="2.7498667093579936"><ele>95.0</ele><time>2026-04-08T13:09:12.999Z</time></trkpt><trkpt lat="42.63702443273883" lon="2.749850818357574"><ele>94.8</ele><time>2026-04-08T13:09:13.999Z</time></trkpt><trkpt lat="42.63694816084365" lon="2.7498757380399366"><ele>94.6</ele><time>2026-04-08T13:09:14.999Z</time></trkpt><trkpt lat="42.63686832574639" lon="2.7499549612763317"><ele>94.4</ele><time>2026-04-08T13:09:15.999Z</time></trkpt><trkpt lat="42.63680996972406" lon="2.750069242794254"><ele>94.2</ele><time>2026-04-08T13:09:16.999Z</time></trkpt><trkpt lat="42.63676518414169" lon="2.7501942076300603"><ele>94.0</ele><time>2026-04-08T13:09:17.999Z</time></trkpt><trkpt lat="42.63670807004095" lon="2.750333053943524"><ele>94.5</ele><time>2026-04-08T13:09:18.999Z</time></trkpt><trkpt lat="42.63663852676458" lon="2.750474167951008"><ele>95.0</ele><time>2026-04-08T13:09:19.999Z</time></trkpt><trkpt lat="42.63657072554843" lon="2.7506152113672915"><ele>95.5</ele><time>2026-04-08T13:09:20.999Z</time></trkpt><trkpt lat="42.63650966995912" lon="2.7507516430014607"><ele>96.0</ele><time>2026-04-08T13:09:21.999Z</time></trkpt><trkpt lat="42.63646024762011" lon="2.7508769695153457"><ele>96.0</ele><time>2026-04-08T13:09:22.999Z</time></trkpt><trkpt lat="42.636399259425886" lon="2.751020492053085"><ele>96.0</ele><time>2026-04-08T13:09:23.999Z</time></trkpt><trkpt lat="42.636332105174255" lon="2.75118582051303"><ele>96.0</ele><time>2026-04-08T13:09:24.999Z</time></trkpt><trkpt lat="42.6362770989969" lon="2.751320135469485"><ele>96.0</ele><time>2026-04-08T13:09:26.999Z</time></trkpt><trkpt lat="42.63622932919774" lon="2.7514101540650038"><ele>96.0</ele><time>2026-04-08T13:09:27.999Z</time></trkpt><trkpt lat="42.63617263915703" lon="2.7515192087209157"><ele>96.0</ele><time>2026-04-08T13:09:28.999Z</time></trkpt><trkpt lat="42.6361235074094" lon="2.7515989869743507"><ele>96.0</ele><time>2026-04-08T13:09:29.999Z</time></trkpt><trkpt lat="42.63605856925018" lon="2.751705681041772"><ele>96.0</ele><time>2026-04-08T13:09:31.999Z</time></trkpt><trkpt lat="42.63600790771787" lon="2.7518012570349053"><ele>96.0</ele><time>2026-04-08T13:09:39.999Z</time></trkpt><trkpt lat="42.635938030972156" lon="2.7519311058609475"><ele>96.0</ele><time>2026-04-08T13:09:41.999Z</time></trkpt><trkpt lat="42.63589605740749" lon="2.7519988526774997"><ele>96.0</ele><time>2026-04-08T13:09:42.999Z</time></trkpt><trkpt lat="42.635853993989954" lon="2.7520797175702607"><ele>96.0</ele><time>2026-04-08T13:09:43.999Z</time></trkpt><trkpt lat="42.635810351249575" lon="2.752155882792901"><ele>96.0</ele><time>2026-04-08T13:09:44.999Z</time></trkpt><trkpt lat="42.63576577372161" lon="2.7522290098156756"><ele>96.0</ele><time>2026-04-08T13:09:45.999Z</time></trkpt><trkpt lat="42.635717410342735" lon="2.7523056714307956"><ele>96.0</ele><time>2026-04-08T13:09:46.999Z</time></trkpt><trkpt lat="42.63563369952405" lon="2.7524565296254875"><ele>96.0</ele><time>2026-04-08T13:09:48.999Z</time></trkpt><trkpt lat="42.63558415941577" lon="2.7525449734437344"><ele>96.0</ele><time>2026-04-08T13:09:49.999Z</time></trkpt><trkpt lat="42.63553168554026" lon="2.7526287419252613"><ele>96.0</ele><time>2026-04-08T13:09:50.999Z</time></trkpt><trkpt lat="42.635483083898464" lon="2.752715328584984"><ele>96.0</ele><time>2026-04-08T13:09:51.999Z</time></trkpt><trkpt lat="42.63543286834506" lon="2.752804619610236"><ele>96.0</ele><time>2026-04-08T13:09:52.999Z</time></trkpt><trkpt lat="42.635386042140965" lon="2.7528941466772356"><ele>96.0</ele><time>2026-04-08T13:09:53.999Z</time></trkpt><trkpt lat="42.63534527780143" lon="2.7529813804273"><ele>96.8</ele><time>2026-04-08T13:09:54.999Z</time></trkpt><trkpt lat="42.635268630065696" lon="2.753100504902582"><ele>97.6</ele><time>2026-04-08T13:09:55.999Z</time></trkpt><trkpt lat="42.63521478670338" lon="2.7531992470531246"><ele>98.4</ele><time>2026-04-08T13:09:56.999Z</time></trkpt><trkpt lat="42.63516084505248" lon="2.753298043516055"><ele>99.2</ele><time>2026-04-08T13:09:57.999Z</time></trkpt><trkpt lat="42.6351095195997" lon="2.753384463697598"><ele>100.0</ele><time>2026-04-08T13:09:58.999Z</time></trkpt><trkpt lat="42.63505127230568" lon="2.7534539077878377"><ele>100.00000000000001</ele><time>2026-04-08T13:09:59.999Z</time></trkpt><trkpt lat="42.6350080709359" lon="2.753529272258888"><ele>100.0</ele><time>2026-04-08T13:10:00.999Z</time></trkpt><trkpt lat="42.63494121378862" lon="2.7536438036895077"><ele>100.0</ele><time>2026-04-08T13:10:02.999Z</time></trkpt><trkpt lat="42.634878875321334" lon="2.753773637957006"><ele>100.0</ele><time>2026-04-08T13:10:04.999Z</time></trkpt><trkpt lat="42.63482428261073" lon="2.7538369520935526"><ele>100.00000000000001</ele><time>2026-04-08T13:10:05.999Z</time></trkpt><trkpt lat="42.63478077176145" lon="2.753906954384626"><ele>100.0</ele><time>2026-04-08T13:10:06.999Z</time></trkpt><trkpt lat="42.63473261120358" lon="2.7539770234689147"><ele>100.14285714285715</ele><time>2026-04-08T13:10:07.999Z</time></trkpt><trkpt lat="42.63468070951404" lon="2.754048950021986"><ele>100.28571428571429</ele><time>2026-04-08T13:10:08.999Z</time></trkpt><trkpt lat="42.63463515647693" lon="2.7541099038102166"><ele>100.42857142857143</ele><time>2026-04-08T13:10:09.999Z</time></trkpt><trkpt lat="42.63458599190569" lon="2.7541756903626107"><ele>100.57142857142858</ele><time>2026-04-08T13:10:10.999Z</time></trkpt><trkpt lat="42.63454068061634" lon="2.7542356831283348"><ele>100.71428571428571</ele><time>2026-04-08T13:10:11.999Z</time></trkpt><trkpt lat="42.63449479769461" lon="2.7542964261262677"><ele>100.85714285714286</ele><time>2026-04-08T13:10:12.999Z</time></trkpt><trkpt lat="42.63442108233484" lon="2.754393769110407"><ele>101.0</ele><time>2026-04-08T13:10:14.999Z</time></trkpt><trkpt lat="42.634360850405834" lon="2.7544719508667614"><ele>101.33333333333333</ele><time>2026-04-08T13:10:16.999Z</time></trkpt><trkpt lat="42.63430042066541" lon="2.7545441546599685"><ele>101.66666666666666</ele><time>2026-04-08T13:10:19.999Z</time></trkpt><trkpt lat="42.63425735346766" lon="2.7546204275300865"><ele>102.0</ele><time>2026-04-08T13:10:21Z</time></trkpt><trkpt lat="42.63416615541523" lon="2.7547133154746173"><ele>102.33333333333334</ele><time>2026-04-08T13:10:23Z</time></trkpt><trkpt lat="42.63410838246735" lon="2.7547636624809058"><ele>102.66666666666667</ele><time>2026-04-08T13:10:25Z</time></trkpt><trkpt lat="42.634039536323385" lon="2.7548358138229565"><ele>103.0</ele><time>2026-04-08T13:10:27Z</time></trkpt><trkpt lat="42.63398516677541" lon="2.7549409089920136"><ele>103.00000000000001</ele><time>2026-04-08T13:10:30Z</time></trkpt><trkpt lat="42.633919543527675" lon="2.7550167345464294"><ele>103.0</ele><time>2026-04-08T13:10:33Z</time></trkpt><trkpt lat="42.63385889933428" lon="2.755086554377802"><ele>103.0</ele><time>2026-04-08T13:10:35Z</time></trkpt><trkpt lat="42.633807914231305" lon="2.755158032273321"><ele>103.0</ele><time>2026-04-08T13:10:37Z</time></trkpt><trkpt lat="42.63377842584737" lon="2.755250649207145"><ele>103.00000000000001</ele><time>2026-04-08T13:10:39Z</time></trkpt><trkpt lat="42.63375611793824" lon="2.755340299540429"><ele>103.0</ele><time>2026-04-08T13:10:41Z</time></trkpt><trkpt lat="42.63372277698754" lon="2.755436443734432"><ele>103.00000000000001</ele><time>2026-04-08T13:10:43Z</time></trkpt><trkpt lat="42.63368456987849" lon="2.75551982880999"><ele>103.0</ele><time>2026-04-08T13:10:45Z</time></trkpt><trkpt lat="42.63363328911845" lon="2.755605294793248"><ele>103.0</ele><time>2026-04-08T13:10:47Z</time></trkpt><trkpt lat="42.633580002723825" lon="2.755681170721674"><ele>103.0</ele><time>2026-04-08T13:10:49Z</time></trkpt><trkpt lat="42.63352702657216" lon="2.7557411774489826"><ele>103.00000000000001</ele><time>2026-04-08T13:10:51Z</time></trkpt><trkpt lat="42.63346182871988" lon="2.7558081857601255"><ele>103.0</ele><time>2026-04-08T13:10:53Z</time></trkpt><trkpt lat="42.6334109116091" lon="2.755889996704382"><ele>103.50000000000001</ele><time>2026-04-08T13:10:55Z</time></trkpt><trkpt lat="42.63333586299611" lon="2.7559330019698747"><ele>104.0</ele><time>2026-04-08T13:10:57Z</time></trkpt><trkpt lat="42.63326322961948" lon="2.7559269712454477"><ele>104.5</ele><time>2026-04-08T13:10:59Z</time></trkpt><trkpt lat="42.63319155643275" lon="2.7559169558905277"><ele>105.0</ele><time>2026-04-08T13:11:01Z</time></trkpt><trkpt lat="42.63311282545237" lon="2.7559150649488444"><ele>105.50000000000001</ele><time>2026-04-08T13:11:03Z</time></trkpt><trkpt lat="42.63302570363374" lon="2.755916829284264"><ele>106.0</ele><time>2026-04-08T13:11:05Z</time></trkpt><trkpt lat="42.63293047374055" lon="2.7559270153128583"><ele>106.0</ele><time>2026-04-08T13:11:07Z</time></trkpt><trkpt lat="42.632822109830514" lon="2.755914507857302"><ele>106.0</ele><time>2026-04-08T13:11:09Z</time></trkpt><trkpt lat="42.63272946705112" lon="2.7558581938102917"><ele>106.0</ele><time>2026-04-08T13:11:11Z</time></trkpt><trkpt lat="42.63261686997169" lon="2.7558517350513605"><ele>106.0</ele><time>2026-04-08T13:11:13Z</time></trkpt><trkpt lat="42.6325119719392" lon="2.7558544457775884"><ele>106.0</ele><time>2026-04-08T13:11:15Z</time></trkpt><trkpt lat="42.63242783990342" lon="2.7558420289382144"><ele>106.00000000000001</ele><time>2026-04-08T13:11:17Z</time></trkpt><trkpt lat="42.632343852380686" lon="2.755831154078524"><ele>106.0</ele><time>2026-04-08T13:11:19Z</time></trkpt><trkpt lat="42.63225144823142" lon="2.755836240085466"><ele>106.0</ele><time>2026-04-08T13:11:21Z</time></trkpt><trkpt lat="42.63214143168302" lon="2.755879313695462"><ele>106.0</ele><time>2026-04-08T13:11:23Z</time></trkpt><trkpt lat="42.632060482410026" lon="2.7559392189640883"><ele>106.00000000000001</ele><time>2026-04-08T13:11:24.999Z</time></trkpt><trkpt lat="42.63199971359399" lon="2.755967637122858"><ele>106.0</ele><time>2026-04-08T13:11:26.999Z</time></trkpt><trkpt lat="42.63194143910229" lon="2.7560002770167067"><ele>105.83333333333334</ele><time>2026-04-08T13:11:27.999Z</time></trkpt><trkpt lat="42.63187715862312" lon="2.7561341634074576"><ele>105.66666666666667</ele><time>2026-04-08T13:11:29.999Z</time></trkpt><trkpt lat="42.63182442614583" lon="2.7561847959121786"><ele>105.5</ele><time>2026-04-08T13:11:30.999Z</time></trkpt><trkpt lat="42.6317755449131" lon="2.756243937349307"><ele>105.33333333333334</ele><time>2026-04-08T13:11:31.999Z</time></trkpt><trkpt lat="42.63172490814809" lon="2.75630672939599"><ele>105.16666666666667</ele><time>2026-04-08T13:11:32.999Z</time></trkpt><trkpt lat="42.63164615301931" lon="2.756402967464491"><ele>105.0</ele><time>2026-04-08T13:11:34.999Z</time></trkpt><trkpt lat="42.63158096377438" lon="2.7564662396533324"><ele>105.0</ele><time>2026-04-08T13:11:36.999Z</time></trkpt><trkpt lat="42.6315396088943" lon="2.7565456053441024"><ele>105.0</ele><time>2026-04-08T13:11:38.999Z</time></trkpt><trkpt lat="42.63148429257213" lon="2.7565957487966117"><ele>105.0</ele><time>2026-04-08T13:11:45.999Z</time></trkpt><trkpt lat="42.63142580468365" lon="2.756645252482"><ele>105.0</ele><time>2026-04-08T13:11:50.999Z</time></trkpt><trkpt lat="42.63134940513709" lon="2.756742385656308"><ele>105.0</ele><time>2026-04-08T13:11:52.999Z</time></trkpt><trkpt lat="42.631274614660555" lon="2.756865127501086"><ele>105.0</ele><time>2026-04-08T13:11:54.999Z</time></trkpt><trkpt lat="42.63120964665645" lon="2.7569800132949376"><ele>104.66666666666667</ele><time>2026-04-08T13:11:56.999Z</time></trkpt><trkpt lat="42.63116834950576" lon="2.7570571349355273"><ele>104.33333333333334</ele><time>2026-04-08T13:11:57.999Z</time></trkpt><trkpt lat="42.63112270890079" lon="2.757142154045567"><ele>104.0</ele><time>2026-04-08T13:11:58.999Z</time></trkpt><trkpt lat="42.63108076176255" lon="2.757216126407713"><ele>103.66666666666667</ele><time>2026-04-08T13:11:59.999Z</time></trkpt><trkpt lat="42.631033615165094" lon="2.7572918596682268"><ele>103.33333333333334</ele><time>2026-04-08T13:12:00.999Z</time></trkpt><trkpt lat="42.63095029544648" lon="2.757403362591707"><ele>103.0</ele><time>2026-04-08T13:12:02.999Z</time></trkpt><trkpt lat="42.63085877470779" lon="2.7575275065876204"><ele>102.85714285714285</ele><time>2026-04-08T13:12:04.999Z</time></trkpt><trkpt lat="42.63081617309714" lon="2.757599082223533"><ele>102.71428571428571</ele><time>2026-04-08T13:12:05.999Z</time></trkpt><trkpt lat="42.63075725673027" lon="2.757657194991133"><ele>102.57142857142857</ele><time>2026-04-08T13:12:06.999Z</time></trkpt><trkpt lat="42.630704160191826" lon="2.7577276982960908"><ele>102.42857142857142</ele><time>2026-04-08T13:12:07.999Z</time></trkpt><trkpt lat="42.630649689737915" lon="2.7578037147808203"><ele>102.28571428571429</ele><time>2026-04-08T13:12:08.999Z</time></trkpt><trkpt lat="42.6305966853885" lon="2.757875797695287"><ele>102.14285714285714</ele><time>2026-04-08T13:12:09.999Z</time></trkpt><trkpt lat="42.630543030642436" lon="2.7579539373035917"><ele>102.0</ele><time>2026-04-08T13:12:10.999Z</time></trkpt><trkpt lat="42.63049909399402" lon="2.758023142938941"><ele>101.8</ele><time>2026-04-08T13:12:11.999Z</time></trkpt><trkpt lat="42.63045232300578" lon="2.7580969019200743"><ele>101.6</ele><time>2026-04-08T13:12:12.999Z</time></trkpt><trkpt lat="42.63038077014418" lon="2.7582272547299835"><ele>101.39999999999999</ele><time>2026-04-08T13:12:14.999Z</time></trkpt><trkpt lat="42.63030676236445" lon="2.758353596246206"><ele>101.19999999999999</ele><time>2026-04-08T13:12:16.999Z</time></trkpt><trkpt lat="42.63025438109445" lon="2.758410086565159"><ele>101.0</ele><time>2026-04-08T13:12:17.999Z</time></trkpt><trkpt lat="42.63017778446369" lon="2.7585293521306022"><ele>101.14285714285714</ele><time>2026-04-08T13:12:19.999Z</time></trkpt><trkpt lat="42.63013325140251" lon="2.758598763652659"><ele>101.28571428571428</ele><time>2026-04-08T13:12:21.999Z</time></trkpt><trkpt lat="42.63008957881574" lon="2.7586665052756967"><ele>101.42857142857143</ele><time>2026-04-08T13:12:27Z</time></trkpt><trkpt lat="42.63003461582623" lon="2.7587487374394244"><ele>101.57142857142857</ele><time>2026-04-08T13:12:31Z</time></trkpt><trkpt lat="42.629983131950404" lon="2.7588257643970864"><ele>101.71428571428572</ele><time>2026-04-08T13:12:33Z</time></trkpt><trkpt lat="42.62993439461373" lon="2.758898506612644"><ele>101.85714285714286</ele><time>2026-04-08T13:12:35Z</time></trkpt><trkpt lat="42.629886636717565" lon="2.758970162578208"><ele>102.0</ele><time>2026-04-08T13:12:37Z</time></trkpt><trkpt lat="42.62983299297162" lon="2.759071538409992"><ele>102.0</ele><time>2026-04-08T13:12:39Z</time></trkpt><trkpt lat="42.629766979192844" lon="2.759189068908998"><ele>102.0</ele><time>2026-04-08T13:12:41Z</time></trkpt><trkpt lat="42.62969675941231" lon="2.7593188979565766"><ele>102.0</ele><time>2026-04-08T13:12:43Z</time></trkpt><trkpt lat="42.629560509793755" lon="2.7595708089695323"><ele>102.0</ele><time>2026-04-08T13:12:47Z</time></trkpt><trkpt lat="42.629515410352965" lon="2.7596911852761257"><ele>102.0</ele><time>2026-04-08T13:12:49Z</time></trkpt><trkpt lat="42.62945795326922" lon="2.7597881986022346"><ele>102.0</ele><time>2026-04-08T13:12:51Z</time></trkpt><trkpt lat="42.629411103774125" lon="2.759880413756147"><ele>102.0</ele><time>2026-04-08T13:12:53Z</time></trkpt><trkpt lat="42.6293943717578" lon="2.759987963783398"><ele>102.0</ele><time>2026-04-08T13:12:55Z</time></trkpt><trkpt lat="42.6293993509598" lon="2.7601014577630325"><ele>102.0</ele><time>2026-04-08T13:12:57Z</time></trkpt><trkpt lat="42.62945152199258" lon="2.7601509192119797"><ele>101.66666666666667</ele><time>2026-04-08T13:12:58Z</time></trkpt><trkpt lat="42.62948750375823" lon="2.7602533506544047"><ele>101.33333333333334</ele><time>2026-04-08T13:13:00Z</time></trkpt><trkpt lat="42.629510325301716" lon="2.7603423331916517"><ele>101.0</ele><time>2026-04-08T13:13:03Z</time></trkpt><trkpt lat="42.62953285354338" lon="2.7604331758359346"><ele>100.66666666666667</ele><time>2026-04-08T13:13:10Z</time></trkpt><trkpt lat="42.62949590438996" lon="2.760546385048974"><ele>100.33333333333334</ele><time>2026-04-08T13:13:15Z</time></trkpt><trkpt lat="42.62944011374907" lon="2.7606046051896524"><ele>100.0</ele><time>2026-04-08T13:13:16Z</time></trkpt><trkpt lat="42.62937518927863" lon="2.7606400964166773"><ele>100.00000000000001</ele><time>2026-04-08T13:13:17Z</time></trkpt><trkpt lat="42.62930549199728" lon="2.760683675728656"><ele>100.0</ele><time>2026-04-08T13:13:18Z</time></trkpt><trkpt lat="42.6292276964417" lon="2.7607413332710995"><ele>100.0</ele><time>2026-04-08T13:13:19Z</time></trkpt><trkpt lat="42.62917569674117" lon="2.760796553090323"><ele>100.0</ele><time>2026-04-08T13:13:21Z</time></trkpt><trkpt lat="42.62907041904019" lon="2.7608897791571625"><ele>100.00000000000001</ele><time>2026-04-08T13:13:23Z</time></trkpt><trkpt lat="42.62901416870028" lon="2.7609416784995404"><ele>100.0</ele><time>2026-04-08T13:13:24Z</time></trkpt><trkpt lat="42.62892718213141" lon="2.761025483995369"><ele>100.0</ele><time>2026-04-08T13:13:26Z</time></trkpt><trkpt lat="42.62882648009943" lon="2.7611308105484"><ele>100.0</ele><time>2026-04-08T13:13:28Z</time></trkpt><trkpt lat="42.62874035560106" lon="2.761200913603154"><ele>100.0</ele><time>2026-04-08T13:13:30Z</time></trkpt><trkpt lat="42.62864510307077" lon="2.7612645578585138"><ele>100.0</ele><time>2026-04-08T13:13:31.999Z</time></trkpt><trkpt lat="42.62858155043974" lon="2.7612807774369617"><ele>100.0</ele><time>2026-04-08T13:13:32.999Z</time></trkpt><trkpt lat="42.62851440531478" lon="2.761303366534285"><ele>99.83333333333334</ele><time>2026-04-08T13:13:33.999Z</time></trkpt><trkpt lat="42.62842799174359" lon="2.7614133457985184"><ele>99.66666666666667</ele><time>2026-04-08T13:13:35.999Z</time></trkpt><trkpt lat="42.62839932755063" lon="2.7615033766658357"><ele>99.5</ele><time>2026-04-08T13:13:36.999Z</time></trkpt><trkpt lat="42.62838573542372" lon="2.7616041819399806"><ele>99.33333333333334</ele><time>2026-04-08T13:13:37.999Z</time></trkpt><trkpt lat="42.62838038341446" lon="2.7617180514451"><ele>99.16666666666667</ele><time>2026-04-08T13:13:38.999Z</time></trkpt><trkpt lat="42.62835234390673" lon="2.76181897420511"><ele>99.0</ele><time>2026-04-08T13:13:39.999Z</time></trkpt><trkpt lat="42.62830322825536" lon="2.7619328112392445"><ele>98.80000000000001</ele><time>2026-04-08T13:13:40.999Z</time></trkpt><trkpt lat="42.62824264128671" lon="2.7620522141272703"><ele>98.60000000000001</ele><time>2026-04-08T13:13:41.999Z</time></trkpt><trkpt lat="42.628185051027145" lon="2.762139053746662"><ele>98.4</ele><time>2026-04-08T13:13:42.999Z</time></trkpt><trkpt lat="42.62813140410746" lon="2.762242032177979"><ele>98.2</ele><time>2026-04-08T13:13:43.999Z</time></trkpt><trkpt lat="42.62807713610703" lon="2.7623423839518586"><ele>98.0</ele><time>2026-04-08T13:13:44.999Z</time></trkpt><trkpt lat="42.628023779544435" lon="2.76244322348643"><ele>97.99999999999999</ele><time>2026-04-08T13:13:45.999Z</time></trkpt><trkpt lat="42.62796835318299" lon="2.7625443292585956"><ele>98.0</ele><time>2026-04-08T13:13:46.999Z</time></trkpt><trkpt lat="42.62791795578371" lon="2.7626392171764245"><ele>98.0</ele><time>2026-04-08T13:13:47.999Z</time></trkpt><trkpt lat="42.627872042577856" lon="2.762730560507357"><ele>98.0</ele><time>2026-04-08T13:13:48.999Z</time></trkpt><trkpt lat="42.627824702603114" lon="2.762818950484646"><ele>97.99999999999999</ele><time>2026-04-08T13:13:49.999Z</time></trkpt><trkpt lat="42.62777589689115" lon="2.762915384909929"><ele>98.0</ele><time>2026-04-08T13:13:50.999Z</time></trkpt><trkpt lat="42.627721641167476" lon="2.7630212313204936"><ele>98.0</ele><time>2026-04-08T13:13:51.999Z</time></trkpt><trkpt lat="42.627661290583646" lon="2.763134063485897"><ele>98.0</ele><time>2026-04-08T13:13:52.999Z</time></trkpt><trkpt lat="42.6275823166137" lon="2.7632588512933656"><ele>98.0</ele><time>2026-04-08T13:13:53.999Z</time></trkpt><trkpt lat="42.62751332192744" lon="2.7633774206950457"><ele>98.0</ele><time>2026-04-08T13:13:54.999Z</time></trkpt><trkpt lat="42.62746548319113" lon="2.7634670099593435"><ele>98.0</ele><time>2026-04-08T13:13:55.999Z</time></trkpt><trkpt lat="42.627412251041676" lon="2.7635718054627723"><ele>98.16666666666666</ele><time>2026-04-08T13:13:56.999Z</time></trkpt><trkpt lat="42.627360573391634" lon="2.763673530811981"><ele>98.33333333333333</ele><time>2026-04-08T13:13:57.999Z</time></trkpt><trkpt lat="42.627309661221005" lon="2.7637664516343943"><ele>98.5</ele><time>2026-04-08T13:13:58.999Z</time></trkpt><trkpt lat="42.62725407098016" lon="2.763860865399817"><ele>98.66666666666666</ele><time>2026-04-08T13:13:59.999Z</time></trkpt><trkpt lat="42.627208476524764" lon="2.7639448772402435"><ele>98.83333333333333</ele><time>2026-04-08T13:14:00.999Z</time></trkpt><trkpt lat="42.627147193347966" lon="2.7640472943844765"><ele>99.0</ele><time>2026-04-08T13:14:02.999Z</time></trkpt><trkpt lat="42.627098615568805" lon="2.7641031833196834"><ele>99.0</ele><time>2026-04-08T13:14:07.999Z</time></trkpt><trkpt lat="42.62702704435338" lon="2.7641876410792117"><ele>99.0</ele><time>2026-04-08T13:14:09.999Z</time></trkpt><trkpt lat="42.62697026633963" lon="2.764325890689994"><ele>99.0</ele><time>2026-04-08T13:14:11.999Z</time></trkpt><trkpt lat="42.62694157500652" lon="2.764411266141534"><ele>99.0</ele><time>2026-04-08T13:14:12.999Z</time></trkpt><trkpt lat="42.626910133261454" lon="2.7644948839489043"><ele>99.0</ele><time>2026-04-08T13:14:13.999Z</time></trkpt><trkpt lat="42.62683728058683" lon="2.7646454064487935"><ele>98.80000000000001</ele><time>2026-04-08T13:14:15.999Z</time></trkpt><trkpt lat="42.626777400091065" lon="2.7647492808746787"><ele>98.60000000000001</ele><time>2026-04-08T13:14:16.999Z</time></trkpt><trkpt lat="42.62672111858531" lon="2.76484190623829"><ele>98.4</ele><time>2026-04-08T13:14:17.999Z</time></trkpt><trkpt lat="42.62666401333774" lon="2.764942207547992"><ele>98.2</ele><time>2026-04-08T13:14:18.999Z</time></trkpt><trkpt lat="42.62660708624679" lon="2.7650554916423213"><ele>98.0</ele><time>2026-04-08T13:14:19.999Z</time></trkpt><trkpt lat="42.62654613360977" lon="2.7651693977287466"><ele>97.80000000000001</ele><time>2026-04-08T13:14:20.999Z</time></trkpt><trkpt lat="42.626484392523324" lon="2.7652868148729257"><ele>97.6</ele><time>2026-04-08T13:14:21.999Z</time></trkpt><trkpt lat="42.62642218931072" lon="2.7654028155471964"><ele>97.4</ele><time>2026-04-08T13:14:22.999Z</time></trkpt><trkpt lat="42.62636180759172" lon="2.765513211934866"><ele>97.19999999999999</ele><time>2026-04-08T13:14:23.999Z</time></trkpt><trkpt lat="42.626305245925394" lon="2.765607383937937"><ele>97.0</ele><time>2026-04-08T13:14:24.999Z</time></trkpt><trkpt lat="42.6262506226594" lon="2.765695292392272"><ele>97.00000000000001</ele><time>2026-04-08T13:14:25.999Z</time></trkpt><trkpt lat="42.62618997497292" lon="2.765770055398798"><ele>97.0</ele><time>2026-04-08T13:14:26.999Z</time></trkpt><trkpt lat="42.62613018739433" lon="2.7658415922389006"><ele>97.0</ele><time>2026-04-08T13:14:27.999Z</time></trkpt><trkpt lat="42.62607743446791" lon="2.7659072610587416"><ele>97.0</ele><time>2026-04-08T13:14:28.999Z</time></trkpt><trkpt lat="42.62602963467911" lon="2.765988976022963"><ele>97.00000000000001</ele><time>2026-04-08T13:14:29.999Z</time></trkpt><trkpt lat="42.62598794878348" lon="2.7660943051343154"><ele>97.0</ele><time>2026-04-08T13:14:30.999Z</time></trkpt><trkpt lat="42.62594403627946" lon="2.7662228511408333"><ele>97.39999999999999</ele><time>2026-04-08T13:14:32Z</time></trkpt><trkpt lat="42.62590044282117" lon="2.766347733741024"><ele>97.8</ele><time>2026-04-08T13:14:33Z</time></trkpt><trkpt lat="42.62584621196452" lon="2.766463644289301"><ele>98.2</ele><time>2026-04-08T13:14:34Z</time></trkpt><trkpt lat="42.625785045010836" lon="2.766575299539339"><ele>98.6</ele><time>2026-04-08T13:14:35Z</time></trkpt><trkpt lat="42.62572173026955" lon="2.766686929375478"><ele>99.0</ele><time>2026-04-08T13:14:36Z</time></trkpt><trkpt lat="42.62565558537018" lon="2.7668012482542514"><ele>99.0</ele><time>2026-04-08T13:14:37Z</time></trkpt><trkpt lat="42.62559416075771" lon="2.76690995303674"><ele>99.0</ele><time>2026-04-08T13:14:38Z</time></trkpt><trkpt lat="42.6255389768206" lon="2.7670206578774654"><ele>99.0</ele><time>2026-04-08T13:14:39Z</time></trkpt><trkpt lat="42.62546339110457" lon="2.767152297554417"><ele>99.0</ele><time>2026-04-08T13:14:40Z</time></trkpt><trkpt lat="42.62539644144167" lon="2.767277211335666"><ele>99.0</ele><time>2026-04-08T13:14:41Z</time></trkpt><trkpt lat="42.625325354687526" lon="2.76740552912051"><ele>99.5</ele><time>2026-04-08T13:14:42Z</time></trkpt><trkpt lat="42.625262077437476" lon="2.7675390983201607"><ele>100.0</ele><time>2026-04-08T13:14:43Z</time></trkpt><trkpt lat="42.62515726913648" lon="2.7676536217273995"><ele>100.5</ele><time>2026-04-08T13:14:44Z</time></trkpt><trkpt lat="42.62511003018879" lon="2.7677736374482347"><ele>101.0</ele><time>2026-04-08T13:14:45Z</time></trkpt><trkpt lat="42.6250499525466" lon="2.767894500324912"><ele>101.0</ele><time>2026-04-08T13:14:46Z</time></trkpt><trkpt lat="42.624990016403224" lon="2.7680120425025354"><ele>101.0</ele><time>2026-04-08T13:14:47Z</time></trkpt><trkpt lat="42.62494199483256" lon="2.768116270100956"><ele>101.0</ele><time>2026-04-08T13:14:48Z</time></trkpt><trkpt lat="42.624894664329524" lon="2.7682085750416703"><ele>101.0</ele><time>2026-04-08T13:14:49Z</time></trkpt><trkpt lat="42.624848920156865" lon="2.768292207141663"><ele>101.0</ele><time>2026-04-08T13:14:50Z</time></trkpt><trkpt lat="42.62476724188415" lon="2.768419546331978"><ele>101.0</ele><time>2026-04-08T13:14:52Z</time></trkpt><trkpt lat="42.6246700921001" lon="2.7685052705649924"><ele>101.0</ele><time>2026-04-08T13:14:54Z</time></trkpt><trkpt lat="42.624641866871414" lon="2.768679334712416"><ele>101.0</ele><time>2026-04-08T13:14:56Z</time></trkpt><trkpt lat="42.6246253944252" lon="2.768794927143842"><ele>101.0</ele><time>2026-04-08T13:14:57Z</time></trkpt><trkpt lat="42.62457353489423" lon="2.7689032735230485"><ele>101.0</ele><time>2026-04-08T13:14:58Z</time></trkpt><trkpt lat="42.62451015050382" lon="2.76901455481095"><ele>101.0</ele><time>2026-04-08T13:14:59Z</time></trkpt><trkpt lat="42.62443911102124" lon="2.7691122859710307"><ele>101.0</ele><time>2026-04-08T13:15:00Z</time></trkpt><trkpt lat="42.62437528452987" lon="2.7692242694362337"><ele>101.0</ele><time>2026-04-08T13:15:01Z</time></trkpt><trkpt lat="42.62430963906384" lon="2.769341008458025"><ele>101.0</ele><time>2026-04-08T13:15:02Z</time></trkpt><trkpt lat="42.62424606576443" lon="2.7694593596883426"><ele>101.0</ele><time>2026-04-08T13:15:03Z</time></trkpt><trkpt lat="42.624179065137135" lon="2.769584694985229"><ele>100.6</ele><time>2026-04-08T13:15:04Z</time></trkpt><trkpt lat="42.62411769868678" lon="2.769702544647731"><ele>100.19999999999999</ele><time>2026-04-08T13:15:05Z</time></trkpt><trkpt lat="42.62405418950493" lon="2.7698182598324377"><ele>99.80000000000001</ele><time>2026-04-08T13:15:06Z</time></trkpt><trkpt lat="42.62399327535312" lon="2.769924607222172"><ele>99.4</ele><time>2026-04-08T13:15:07Z</time></trkpt><trkpt lat="42.623938362089376" lon="2.7700232564563123"><ele>99.0</ele><time>2026-04-08T13:15:08Z</time></trkpt><trkpt lat="42.62389052529131" lon="2.770113112977871"><ele>99.0</ele><time>2026-04-08T13:15:09Z</time></trkpt><trkpt lat="42.62384084287762" lon="2.7701953971181923"><ele>99.0</ele><time>2026-04-08T13:15:10Z</time></trkpt><trkpt lat="42.623796444341444" lon="2.7702649164915076"><ele>99.0</ele><time>2026-04-08T13:15:11Z</time></trkpt><trkpt lat="42.623688877183106" lon="2.770364377169131"><ele>99.0</ele><time>2026-04-08T13:15:13Z</time></trkpt><trkpt lat="42.62362386600182" lon="2.770406177376967"><ele>99.0</ele><time>2026-04-08T13:15:14Z</time></trkpt><trkpt lat="42.62359268732659" lon="2.770521521505617"><ele>99.0</ele><time>2026-04-08T13:15:15Z</time></trkpt><trkpt lat="42.623564165594935" lon="2.7706472111643627"><ele>99.25</ele><time>2026-04-08T13:15:16Z</time></trkpt><trkpt lat="42.62351892040608" lon="2.7707927167759934"><ele>99.5</ele><time>2026-04-08T13:15:17Z</time></trkpt><trkpt lat="42.62345126543969" lon="2.7709382277124375"><ele>99.75</ele><time>2026-04-08T13:15:18Z</time></trkpt><trkpt lat="42.6233590468556" lon="2.7710963299799136"><ele>100.0</ele><time>2026-04-08T13:15:19Z</time></trkpt><trkpt lat="42.623267295431795" lon="2.7712645585799853"><ele>100.0</ele><time>2026-04-08T13:15:20Z</time></trkpt><trkpt lat="42.62316987690406" lon="2.7714416289495976"><ele>100.0</ele><time>2026-04-08T13:15:21Z</time></trkpt><trkpt lat="42.623067433608114" lon="2.771625049185196"><ele>100.0</ele><time>2026-04-08T13:15:22Z</time></trkpt><trkpt lat="42.622964237878335" lon="2.771817561144847"><ele>100.0</ele><time>2026-04-08T13:15:23Z</time></trkpt><trkpt lat="42.62285516138162" lon="2.7720137835879037"><ele>100.0</ele><time>2026-04-08T13:15:24Z</time></trkpt><trkpt lat="42.622746802124794" lon="2.7722111551000235"><ele>100.0</ele><time>2026-04-08T13:15:25Z</time></trkpt><trkpt lat="42.62263865913471" lon="2.772409969745908"><ele>100.0</ele><time>2026-04-08T13:15:26Z</time></trkpt><trkpt lat="42.62253413315294" lon="2.772604103106182"><ele>100.0</ele><time>2026-04-08T13:15:27Z</time></trkpt><trkpt lat="42.622426123258556" lon="2.7728037976994155"><ele>100.0</ele><time>2026-04-08T13:15:27.999Z</time></trkpt><trkpt lat="42.622317589451505" lon="2.7730043951054966"><ele>100.0</ele><time>2026-04-08T13:15:28.999Z</time></trkpt><trkpt lat="42.62220856567677" lon="2.7732075531422633"><ele>100.0</ele><time>2026-04-08T13:15:29.999Z</time></trkpt><trkpt lat="42.62209344629135" lon="2.7734221346501426"><ele>100.0</ele><time>2026-04-08T13:15:30.999Z</time></trkpt><trkpt lat="42.62197723991943" lon="2.7736383490920633"><ele>99.33333333333334</ele><time>2026-04-08T13:15:31.999Z</time></trkpt><trkpt lat="42.62186596440009" lon="2.7738500699449213"><ele>98.66666666666666</ele><time>2026-04-08T13:15:32.999Z</time></trkpt><trkpt lat="42.62175390765373" lon="2.7740629462665547"><ele>98.0</ele><time>2026-04-08T13:15:33.999Z</time></trkpt><trkpt lat="42.621640445740624" lon="2.7742758602265103"><ele>97.66666666666666</ele><time>2026-04-08T13:15:34.999Z</time></trkpt><trkpt lat="42.62152850255536" lon="2.7744843924023903"><ele>97.33333333333334</ele><time>2026-04-08T13:15:35.999Z</time></trkpt><trkpt lat="42.62141593008696" lon="2.7746908980366745"><ele>97.0</ele><time>2026-04-08T13:15:36.999Z</time></trkpt><trkpt lat="42.62130561580771" lon="2.7748930615412806"><ele>97.0</ele><time>2026-04-08T13:15:37.999Z</time></trkpt><trkpt lat="42.62119616202708" lon="2.7750965784359267"><ele>97.0</ele><time>2026-04-08T13:15:38.999Z</time></trkpt><trkpt lat="42.62109008696751" lon="2.775294539927662"><ele>97.0</ele><time>2026-04-08T13:15:39.999Z</time></trkpt><trkpt lat="42.62098296936502" lon="2.775494951770118"><ele>97.0</ele><time>2026-04-08T13:15:40.999Z</time></trkpt><trkpt lat="42.62087535921694" lon="2.775694945051817"><ele>97.0</ele><time>2026-04-08T13:15:41.999Z</time></trkpt><trkpt lat="42.62076971176936" lon="2.775893202421715"><ele>97.0</ele><time>2026-04-08T13:15:42.999Z</time></trkpt><trkpt lat="42.62065814543354" lon="2.7760960637604426"><ele>96.33333333333334</ele><time>2026-04-08T13:15:43.999Z</time></trkpt><trkpt lat="42.62055144703998" lon="2.7762929211790577"><ele>95.66666666666667</ele><time>2026-04-08T13:15:44.999Z</time></trkpt><trkpt lat="42.6204455349058" lon="2.776499833787258"><ele>95.0</ele><time>2026-04-08T13:15:45.999Z</time></trkpt><trkpt lat="42.62033704548756" lon="2.7767020143301067"><ele>95.0</ele><time>2026-04-08T13:15:46.999Z</time></trkpt><trkpt lat="42.62022718182425" lon="2.776902182934584"><ele>95.0</ele><time>2026-04-08T13:15:47.999Z</time></trkpt><trkpt lat="42.62011734627468" lon="2.777099061467746"><ele>95.0</ele><time>2026-04-08T13:15:48.999Z</time></trkpt><trkpt lat="42.62000897572418" lon="2.777295877245131"><ele>95.0</ele><time>2026-04-08T13:15:49.999Z</time></trkpt><trkpt lat="42.61990180617503" lon="2.777498286889801"><ele>95.0</ele><time>2026-04-08T13:15:50.999Z</time></trkpt><trkpt lat="42.61979670576723" lon="2.77769950121374"><ele>95.0</ele><time>2026-04-08T13:15:51.999Z</time></trkpt><trkpt lat="42.619692764222485" lon="2.7778996186056006"><ele>95.0</ele><time>2026-04-08T13:15:52.999Z</time></trkpt><trkpt lat="42.61958724330597" lon="2.7780945974539653"><ele>95.0</ele><time>2026-04-08T13:15:53.999Z</time></trkpt><trkpt lat="42.61948198950148" lon="2.778294572476555"><ele>95.0</ele><time>2026-04-08T13:15:54.999Z</time></trkpt><trkpt lat="42.61938292703417" lon="2.7784970448965893"><ele>95.0</ele><time>2026-04-08T13:15:55.999Z</time></trkpt><trkpt lat="42.619286653991885" lon="2.7787061343382766"><ele>95.0</ele><time>2026-04-08T13:15:56.999Z</time></trkpt><trkpt lat="42.619197079588474" lon="2.77891604635604"><ele>95.0</ele><time>2026-04-08T13:15:57.999Z</time></trkpt><trkpt lat="42.619115076121524" lon="2.779126373715114"><ele>95.0</ele><time>2026-04-08T13:15:58.999Z</time></trkpt><trkpt lat="42.61903716421009" lon="2.7793361852774523"><ele>95.0</ele><time>2026-04-08T13:15:59.999Z</time></trkpt><trkpt lat="42.61896467652256" lon="2.779552586271966"><ele>95.0</ele><time>2026-04-08T13:16:00.999Z</time></trkpt><trkpt lat="42.618900035347615" lon="2.7797750642716177"><ele>95.0</ele><time>2026-04-08T13:16:01.999Z</time></trkpt><trkpt lat="42.618839562864295" lon="2.7800022296765317"><ele>95.0</ele><time>2026-04-08T13:16:02.999Z</time></trkpt><trkpt lat="42.61878400024398" lon="2.7802401710070592"><ele>95.0</ele><time>2026-04-08T13:16:03.999Z</time></trkpt><trkpt lat="42.61873036814051" lon="2.7804803531157125"><ele>94.33333333333334</ele><time>2026-04-08T13:16:04.999Z</time></trkpt><trkpt lat="42.61868246119696" lon="2.7807289950096328"><ele>93.66666666666667</ele><time>2026-04-08T13:16:05.999Z</time></trkpt><trkpt lat="42.61863706498056" lon="2.7809725770311102"><ele>93.0</ele><time>2026-04-08T13:16:06.999Z</time></trkpt><trkpt lat="42.618592700369845" lon="2.7812164453992563"><ele>96.33333333333334</ele><time>2026-04-08T13:16:07.999Z</time></trkpt><trkpt lat="42.61854628840758" lon="2.781454185430946"><ele>99.66666666666667</ele><time>2026-04-08T13:16:08.999Z</time></trkpt><trkpt lat="42.618500808361105" lon="2.7816930370568995"><ele>103.0</ele><time>2026-04-08T13:16:09.999Z</time></trkpt><trkpt lat="42.61845705519752" lon="2.7819304827031908"><ele>103.33333333333334</ele><time>2026-04-08T13:16:10.999Z</time></trkpt><trkpt lat="42.618411646437565" lon="2.7821666280376665"><ele>103.66666666666666</ele><time>2026-04-08T13:16:11.999Z</time></trkpt><trkpt lat="42.61836860338603" lon="2.782402610828193"><ele>104.0</ele><time>2026-04-08T13:16:12.999Z</time></trkpt><trkpt lat="42.618323555824034" lon="2.7826345200410167"><ele>103.33333333333333</ele><time>2026-04-08T13:16:13.999Z</time></trkpt><trkpt lat="42.61827980692759" lon="2.7828645815484987"><ele>102.66666666666666</ele><time>2026-04-08T13:16:14.999Z</time></trkpt><trkpt lat="42.618233727528235" lon="2.7830900762881985"><ele>102.0</ele><time>2026-04-08T13:16:15.999Z</time></trkpt><trkpt lat="42.61819113973032" lon="2.7833200120238013"><ele>102.33333333333334</ele><time>2026-04-08T13:16:16.999Z</time></trkpt><trkpt lat="42.6181515078043" lon="2.7835508650849157"><ele>102.66666666666667</ele><time>2026-04-08T13:16:17.999Z</time></trkpt><trkpt lat="42.61811161594556" lon="2.7837836236314857"><ele>103.0</ele><time>2026-04-08T13:16:18.999Z</time></trkpt><trkpt lat="42.61807702672832" lon="2.784014989228971"><ele>103.0</ele><time>2026-04-08T13:16:19.999Z</time></trkpt><trkpt lat="42.61804727110152" lon="2.784248357859105"><ele>103.0</ele><time>2026-04-08T13:16:20.999Z</time></trkpt><trkpt lat="42.618017436956585" lon="2.784489370391811"><ele>103.0</ele><time>2026-04-08T13:16:21.999Z</time></trkpt><trkpt lat="42.61799549860752" lon="2.7847358270005964"><ele>103.66666666666667</ele><time>2026-04-08T13:16:22.999Z</time></trkpt><trkpt lat="42.61797708271347" lon="2.7849807111189038"><ele>104.33333333333334</ele><time>2026-04-08T13:16:23.999Z</time></trkpt><trkpt lat="42.61796515803022" lon="2.7852211575012027"><ele>105.0</ele><time>2026-04-08T13:16:24.999Z</time></trkpt><trkpt lat="42.61796621404082" lon="2.7854625786168348"><ele>105.66666666666666</ele><time>2026-04-08T13:16:25.999Z</time></trkpt><trkpt lat="42.6179626748146" lon="2.7856995381171616"><ele>106.33333333333333</ele><time>2026-04-08T13:16:26.999Z</time></trkpt><trkpt lat="42.617957841869966" lon="2.7859446539703736"><ele>107.0</ele><time>2026-04-08T13:16:27.999Z</time></trkpt><trkpt lat="42.61794780725875" lon="2.7861860226702166"><ele>109.33333333333333</ele><time>2026-04-08T13:16:28.999Z</time></trkpt><trkpt lat="42.617941416138876" lon="2.786427551636601"><ele>111.66666666666666</ele><time>2026-04-08T13:16:29.999Z</time></trkpt><trkpt lat="42.61793815285232" lon="2.786665946053712"><ele>114.0</ele><time>2026-04-08T13:16:30.999Z</time></trkpt><trkpt lat="42.61793177639696" lon="2.7869053432662"><ele>115.0</ele><time>2026-04-08T13:16:31.999Z</time></trkpt><trkpt lat="42.61792412910042" lon="2.7871408333717027"><ele>116.0</ele><time>2026-04-08T13:16:32.999Z</time></trkpt><trkpt lat="42.617911454206734" lon="2.787379602168485"><ele>117.0</ele><time>2026-04-08T13:16:33.999Z</time></trkpt><trkpt lat="42.617895563280996" lon="2.7876115831683745"><ele>116.33333333333334</ele><time>2026-04-08T13:16:34.999Z</time></trkpt><trkpt lat="42.61787495315252" lon="2.7878468630713864"><ele>115.66666666666667</ele><time>2026-04-08T13:16:35.999Z</time></trkpt><trkpt lat="42.61785590034954" lon="2.7880749376973033"><ele>115.0</ele><time>2026-04-08T13:16:36.999Z</time></trkpt><trkpt lat="42.617836097252784" lon="2.7882955663505475"><ele>114.33333333333334</ele><time>2026-04-08T13:16:38Z</time></trkpt><trkpt lat="42.6178170799476" lon="2.7885158567748025"><ele>113.66666666666666</ele><time>2026-04-08T13:16:39Z</time></trkpt><trkpt lat="42.61780033072979" lon="2.7887285747714254"><ele>113.0</ele><time>2026-04-08T13:16:40Z</time></trkpt><trkpt lat="42.61778424333616" lon="2.788944724309512"><ele>113.0</ele><time>2026-04-08T13:16:41Z</time></trkpt><trkpt lat="42.61777217729859" lon="2.7891657065522053"><ele>113.0</ele><time>2026-04-08T13:16:42Z</time></trkpt><trkpt lat="42.61775756496361" lon="2.7893856147442797"><ele>113.0</ele><time>2026-04-08T13:16:43Z</time></trkpt><trkpt lat="42.617743898971284" lon="2.789609849110485"><ele>112.66666666666666</ele><time>2026-04-08T13:16:44Z</time></trkpt><trkpt lat="42.61772541074045" lon="2.7898367599972707"><ele>112.33333333333334</ele><time>2026-04-08T13:16:45Z</time></trkpt><trkpt lat="42.61770954700837" lon="2.790068432553563"><ele>112.0</ele><time>2026-04-08T13:16:46Z</time></trkpt><trkpt lat="42.61768893613026" lon="2.7902960798822902"><ele>112.0</ele><time>2026-04-08T13:16:47Z</time></trkpt><trkpt lat="42.617668691677544" lon="2.79052322137359"><ele>112.0</ele><time>2026-04-08T13:16:48Z</time></trkpt><trkpt lat="42.61764950826703" lon="2.790754694870801"><ele>112.0</ele><time>2026-04-08T13:16:49Z</time></trkpt><trkpt lat="42.617628278027105" lon="2.790982274292048"><ele>111.66666666666667</ele><time>2026-04-08T13:16:50Z</time></trkpt><trkpt lat="42.61760968083245" lon="2.791212630255876"><ele>111.33333333333334</ele><time>2026-04-08T13:16:51Z</time></trkpt><trkpt lat="42.617589145182535" lon="2.7914431874931758"><ele>111.0</ele><time>2026-04-08T13:16:52Z</time></trkpt><trkpt lat="42.61756758386338" lon="2.791668075679326"><ele>111.33333333333334</ele><time>2026-04-08T13:16:53Z</time></trkpt><trkpt lat="42.617551646246554" lon="2.7918888043844454"><ele>111.66666666666667</ele><time>2026-04-08T13:16:54Z</time></trkpt><trkpt lat="42.61753308069933" lon="2.7921086543670373"><ele>112.0</ele><time>2026-04-08T13:16:55Z</time></trkpt><trkpt lat="42.61751109541935" lon="2.792338907058152"><ele>112.0</ele><time>2026-04-08T13:16:56Z</time></trkpt><trkpt lat="42.617492906236784" lon="2.792578830979718"><ele>112.0</ele><time>2026-04-08T13:16:57Z</time></trkpt><trkpt lat="42.617473079873754" lon="2.79283423887478"><ele>112.0</ele><time>2026-04-08T13:16:58Z</time></trkpt><trkpt lat="42.61745311471715" lon="2.793095273456685"><ele>112.0</ele><time>2026-04-08T13:16:59Z</time></trkpt><trkpt lat="42.61743191727605" lon="2.7933521836541306"><ele>112.0</ele><time>2026-04-08T13:17:00Z</time></trkpt><trkpt lat="42.61741188981064" lon="2.7936150007189204"><ele>112.0</ele><time>2026-04-08T13:17:01Z</time></trkpt><trkpt lat="42.61739174636476" lon="2.793883506716746"><ele>111.66666666666667</ele><time>2026-04-08T13:17:02Z</time></trkpt><trkpt lat="42.61736866837616" lon="2.794145536090629"><ele>111.33333333333334</ele><time>2026-04-08T13:17:03Z</time></trkpt><trkpt lat="42.617348304718895" lon="2.7944017316632506"><ele>111.0</ele><time>2026-04-08T13:17:04Z</time></trkpt><trkpt lat="42.617330337558364" lon="2.794637378454463"><ele>110.0</ele><time>2026-04-08T13:17:05Z</time></trkpt><trkpt lat="42.61730814069827" lon="2.7948881610323544"><ele>109.0</ele><time>2026-04-08T13:17:06Z</time></trkpt><trkpt lat="42.617286997132794" lon="2.795141947911666"><ele>108.0</ele><time>2026-04-08T13:17:07Z</time></trkpt><trkpt lat="42.61726762006675" lon="2.7953918244940232"><ele>108.0</ele><time>2026-04-08T13:17:08Z</time></trkpt><trkpt lat="42.61725157518939" lon="2.795637954168084"><ele>108.0</ele><time>2026-04-08T13:17:09Z</time></trkpt><trkpt lat="42.61722963717299" lon="2.79588097619861"><ele>108.0</ele><time>2026-04-08T13:17:10Z</time></trkpt><trkpt lat="42.61721217577477" lon="2.79612609768358"><ele>108.0</ele><time>2026-04-08T13:17:11Z</time></trkpt><trkpt lat="42.61719165252041" lon="2.7963622931970185"><ele>108.0</ele><time>2026-04-08T13:17:12Z</time></trkpt><trkpt lat="42.61717306806791" lon="2.7965965763411056"><ele>108.0</ele><time>2026-04-08T13:17:13Z</time></trkpt><trkpt lat="42.61715218122085" lon="2.7968220018300904"><ele>107.33333333333334</ele><time>2026-04-08T13:17:14Z</time></trkpt><trkpt lat="42.61713349165297" lon="2.797037937478081"><ele>106.66666666666667</ele><time>2026-04-08T13:17:15Z</time></trkpt><trkpt lat="42.61711661679321" lon="2.7972552066676144"><ele>106.0</ele><time>2026-04-08T13:17:16Z</time></trkpt><trkpt lat="42.617101041285096" lon="2.7974697367795494"><ele>105.66666666666667</ele><time>2026-04-08T13:17:17Z</time></trkpt><trkpt lat="42.617085936522145" lon="2.7976835053146534"><ele>105.33333333333334</ele><time>2026-04-08T13:17:18Z</time></trkpt><trkpt lat="42.61707201932072" lon="2.797897824562906"><ele>105.0</ele><time>2026-04-08T13:17:19Z</time></trkpt><trkpt lat="42.61705543632417" lon="2.798115517584517"><ele>105.0</ele><time>2026-04-08T13:17:20Z</time></trkpt><trkpt lat="42.61703651254227" lon="2.7983367035075704"><ele>105.0</ele><time>2026-04-08T13:17:21Z</time></trkpt><trkpt lat="42.61701626447613" lon="2.7985551279309813"><ele>105.0</ele><time>2026-04-08T13:17:22Z</time></trkpt><trkpt lat="42.61699784519718" lon="2.798774705715849"><ele>105.0</ele><time>2026-04-08T13:17:23Z</time></trkpt><trkpt lat="42.616977069859225" lon="2.799006608695156"><ele>105.0</ele><time>2026-04-08T13:17:24Z</time></trkpt><trkpt lat="42.61695756116818" lon="2.799237351389152"><ele>105.0</ele><time>2026-04-08T13:17:25Z</time></trkpt><trkpt lat="42.61693716986093" lon="2.7994782714305955"><ele>105.0</ele><time>2026-04-08T13:17:26Z</time></trkpt><trkpt lat="42.616916819444064" lon="2.7997200259196386"><ele>105.0</ele><time>2026-04-08T13:17:27Z</time></trkpt><trkpt lat="42.61689736893669" lon="2.7999581707952275"><ele>105.0</ele><time>2026-04-08T13:17:28Z</time></trkpt><trkpt lat="42.61687710739163" lon="2.8001942754835154"><ele>105.33333333333334</ele><time>2026-04-08T13:17:29Z</time></trkpt><trkpt lat="42.616859394597554" lon="2.8004367446479295"><ele>105.66666666666667</ele><time>2026-04-08T13:17:30Z</time></trkpt><trkpt lat="42.616841541566444" lon="2.8006775942359554"><ele>106.0</ele><time>2026-04-08T13:17:31Z</time></trkpt><trkpt lat="42.61682286961752" lon="2.800921923653081"><ele>106.0</ele><time>2026-04-08T13:17:32Z</time></trkpt><trkpt lat="42.616807053544925" lon="2.8011689263132795"><ele>106.0</ele><time>2026-04-08T13:17:33Z</time></trkpt><trkpt lat="42.61678165609424" lon="2.8014078378027327"><ele>106.0</ele><time>2026-04-08T13:17:34Z</time></trkpt><trkpt lat="42.61676311782132" lon="2.8016479761583963"><ele>106.0</ele><time>2026-04-08T13:17:35Z</time></trkpt><trkpt lat="42.616746383075274" lon="2.8018870891546253"><ele>106.0</ele><time>2026-04-08T13:17:35.999Z</time></trkpt><trkpt lat="42.61673255171815" lon="2.8021219495722542"><ele>106.0</ele><time>2026-04-08T13:17:36.999Z</time></trkpt><trkpt lat="42.61670901764134" lon="2.80235208101607"><ele>106.0</ele><time>2026-04-08T13:17:37.999Z</time></trkpt><trkpt lat="42.616685892953726" lon="2.802587246933288"><ele>106.0</ele><time>2026-04-08T13:17:38.999Z</time></trkpt><trkpt lat="42.616662850746245" lon="2.802821955338035"><ele>106.0</ele><time>2026-04-08T13:17:39.999Z</time></trkpt><trkpt lat="42.61663700666765" lon="2.803055875657742"><ele>106.0</ele><time>2026-04-08T13:17:40.999Z</time></trkpt><trkpt lat="42.61659952931113" lon="2.80330870821373"><ele>106.0</ele><time>2026-04-08T13:17:41.999Z</time></trkpt><trkpt lat="42.61660419534264" lon="2.803487892193495"><ele>106.0</ele><time>2026-04-08T13:17:42.999Z</time></trkpt><trkpt lat="42.616593435045765" lon="2.8036942927370485"><ele>106.0</ele><time>2026-04-08T13:17:43.999Z</time></trkpt><trkpt lat="42.61657914842996" lon="2.803890838254034"><ele>106.0</ele><time>2026-04-08T13:17:44.999Z</time></trkpt><trkpt lat="42.61656127921046" lon="2.804116046898316"><ele>106.0</ele><time>2026-04-08T13:17:45.999Z</time></trkpt><trkpt lat="42.61654392709556" lon="2.804333676971587"><ele>105.66666666666667</ele><time>2026-04-08T13:17:46.999Z</time></trkpt><trkpt lat="42.6165274525993" lon="2.8045525623990564"><ele>105.33333333333334</ele><time>2026-04-08T13:17:47.999Z</time></trkpt><trkpt lat="42.616509204897646" lon="2.804775553735001"><ele>105.0</ele><time>2026-04-08T13:17:48.999Z</time></trkpt><trkpt lat="42.616489994370866" lon="2.804999052152071"><ele>105.0</ele><time>2026-04-08T13:17:49.999Z</time></trkpt><trkpt lat="42.616473394067526" lon="2.80522787708779"><ele>105.0</ele><time>2026-04-08T13:17:50.999Z</time></trkpt><trkpt lat="42.61645829936776" lon="2.8054529944412603"><ele>105.0</ele><time>2026-04-08T13:17:51.999Z</time></trkpt><trkpt lat="42.61643837304412" lon="2.8056809148894"><ele>105.0</ele><time>2026-04-08T13:17:52.999Z</time></trkpt><trkpt lat="42.616420622177436" lon="2.80590584826912"><ele>105.0</ele><time>2026-04-08T13:17:53.999Z</time></trkpt><trkpt lat="42.61640507168928" lon="2.806124772827468"><ele>105.0</ele><time>2026-04-08T13:17:54.999Z</time></trkpt><trkpt lat="42.616385302001454" lon="2.806339768292163"><ele>105.66666666666666</ele><time>2026-04-08T13:17:55.999Z</time></trkpt><trkpt lat="42.616367422832795" lon="2.8065569619855473"><ele>106.33333333333333</ele><time>2026-04-08T13:17:56.999Z</time></trkpt><trkpt lat="42.6163509262039" lon="2.8067691004402096"><ele>107.0</ele><time>2026-04-08T13:17:57.999Z</time></trkpt><trkpt lat="42.61633620240408" lon="2.8069792690097115"><ele>107.33333333333333</ele><time>2026-04-08T13:17:58.999Z</time></trkpt><trkpt lat="42.616319020839526" lon="2.807191049584477"><ele>107.66666666666666</ele><time>2026-04-08T13:17:59.999Z</time></trkpt><trkpt lat="42.61630043694282" lon="2.8074061154053984"><ele>108.0</ele><time>2026-04-08T13:18:00.999Z</time></trkpt><trkpt lat="42.61628247587609" lon="2.8076205343889225"><ele>107.0</ele><time>2026-04-08T13:18:01.999Z</time></trkpt><trkpt lat="42.61626448585845" lon="2.807828097150334"><ele>106.0</ele><time>2026-04-08T13:18:02.999Z</time></trkpt><trkpt lat="42.61623812664974" lon="2.8080281230001463"><ele>105.0</ele><time>2026-04-08T13:18:03.999Z</time></trkpt><trkpt lat="42.61620016426989" lon="2.8082310057385493"><ele>105.0</ele><time>2026-04-08T13:18:04.999Z</time></trkpt><trkpt lat="42.61616034130469" lon="2.8084373573873735"><ele>105.0</ele><time>2026-04-08T13:18:05.999Z</time></trkpt><trkpt lat="42.61612468320611" lon="2.8086395150573598"><ele>105.0</ele><time>2026-04-08T13:18:06.999Z</time></trkpt><trkpt lat="42.616090132072756" lon="2.80883954733133"><ele>104.25</ele><time>2026-04-08T13:18:07.999Z</time></trkpt><trkpt lat="42.616057589024464" lon="2.809038904225405"><ele>103.5</ele><time>2026-04-08T13:18:08.999Z</time></trkpt><trkpt lat="42.61602425013615" lon="2.8092276356887713"><ele>102.75</ele><time>2026-04-08T13:18:09.999Z</time></trkpt><trkpt lat="42.615988690622196" lon="2.809419411251051"><ele>102.0</ele><time>2026-04-08T13:18:10.999Z</time></trkpt><trkpt lat="42.61596717994384" lon="2.809580722660952"><ele>101.75</ele><time>2026-04-08T13:18:11.999Z</time></trkpt><trkpt lat="42.61593997206668" lon="2.809738553291008"><ele>101.5</ele><time>2026-04-08T13:18:12.999Z</time></trkpt><trkpt lat="42.61591010707942" lon="2.809890320955645"><ele>101.25</ele><time>2026-04-08T13:18:13.999Z</time></trkpt><trkpt lat="42.61588031945381" lon="2.8100387377514116"><ele>101.0</ele><time>2026-04-08T13:18:14.999Z</time></trkpt><trkpt lat="42.61585328237313" lon="2.810182778144245"><ele>101.0</ele><time>2026-04-08T13:18:15.999Z</time></trkpt><trkpt lat="42.61582441108917" lon="2.8103226693722414"><ele>101.0</ele><time>2026-04-08T13:18:16.999Z</time></trkpt><trkpt lat="42.615791248951375" lon="2.810468862546719"><ele>101.0</ele><time>2026-04-08T13:18:17.999Z</time></trkpt><trkpt lat="42.61574837591332" lon="2.8106039210758147"><ele>101.0</ele><time>2026-04-08T13:18:18.999Z</time></trkpt><trkpt lat="42.61570153809169" lon="2.8107291916529737"><ele>101.0</ele><time>2026-04-08T13:18:19.999Z</time></trkpt><trkpt lat="42.61563474205473" lon="2.8108390934885326"><ele>101.0</ele><time>2026-04-08T13:18:20.999Z</time></trkpt><trkpt lat="42.61555836641519" lon="2.810944073671738"><ele>101.0</ele><time>2026-04-08T13:18:21.999Z</time></trkpt><trkpt lat="42.615471155510704" lon="2.811047899219505"><ele>101.0</ele><time>2026-04-08T13:18:22.999Z</time></trkpt><trkpt lat="42.61537204061372" lon="2.8111416203113277"><ele>101.0</ele><time>2026-04-08T13:18:23.999Z</time></trkpt><trkpt lat="42.61526651593953" lon="2.8112422479541763"><ele>99.25</ele><time>2026-04-08T13:18:24.999Z</time></trkpt><trkpt lat="42.615160669469915" lon="2.8113478377006476"><ele>97.5</ele><time>2026-04-08T13:18:25.999Z</time></trkpt><trkpt lat="42.61506071796266" lon="2.8114574228585405"><ele>95.75</ele><time>2026-04-08T13:18:26.999Z</time></trkpt><trkpt lat="42.61496897057403" lon="2.811566250567524"><ele>94.0</ele><time>2026-04-08T13:18:27.999Z</time></trkpt><trkpt lat="42.61487280103664" lon="2.811673665033632"><ele>94.0</ele><time>2026-04-08T13:18:28.999Z</time></trkpt><trkpt lat="42.614778964605556" lon="2.811785694243815"><ele>94.0</ele><time>2026-04-08T13:18:29.999Z</time></trkpt><trkpt lat="42.614687531664735" lon="2.8119000569757895"><ele>94.0</ele><time>2026-04-08T13:18:30.999Z</time></trkpt><trkpt lat="42.61459771606019" lon="2.8120188734089244"><ele>94.0</ele><time>2026-04-08T13:18:31.999Z</time></trkpt><trkpt lat="42.614502625162714" lon="2.812145896198172"><ele>92.25</ele><time>2026-04-08T13:18:32.999Z</time></trkpt><trkpt lat="42.614394260462205" lon="2.8122489821565755"><ele>90.5</ele><time>2026-04-08T13:18:33.999Z</time></trkpt><trkpt lat="42.614283136161184" lon="2.8123424163924295"><ele>88.75</ele><time>2026-04-08T13:18:34.999Z</time></trkpt><trkpt lat="42.61416822489426" lon="2.8124465450816793"><ele>87.0</ele><time>2026-04-08T13:18:35.999Z</time></trkpt><trkpt lat="42.61405541853602" lon="2.8125645883700088"><ele>86.25</ele><time>2026-04-08T13:18:36.999Z</time></trkpt><trkpt lat="42.61393570464493" lon="2.812690456109741"><ele>85.5</ele><time>2026-04-08T13:18:37.999Z</time></trkpt><trkpt lat="42.61383005971676" lon="2.8127952487577588"><ele>84.75</ele><time>2026-04-08T13:18:38.999Z</time></trkpt><trkpt lat="42.61371674721182" lon="2.8129056627303592"><ele>84.0</ele><time>2026-04-08T13:18:39.999Z</time></trkpt><trkpt lat="42.61360226827731" lon="2.813032973374559"><ele>84.0</ele><time>2026-04-08T13:18:40.999Z</time></trkpt><trkpt lat="42.613485204621085" lon="2.813144846308751"><ele>84.0</ele><time>2026-04-08T13:18:41.999Z</time></trkpt><trkpt lat="42.613362080087505" lon="2.813257199217915"><ele>84.0</ele><time>2026-04-08T13:18:42.999Z</time></trkpt><trkpt lat="42.61323676333245" lon="2.8133746416602734"><ele>84.0</ele><time>2026-04-08T13:18:44Z</time></trkpt><trkpt lat="42.613116703966526" lon="2.813505818875593"><ele>84.0</ele><time>2026-04-08T13:18:45Z</time></trkpt><trkpt lat="42.612999525457695" lon="2.813629442457444"><ele>84.0</ele><time>2026-04-08T13:18:46Z</time></trkpt><trkpt lat="42.61287930422653" lon="2.8137636994585993"><ele>84.0</ele><time>2026-04-08T13:18:47Z</time></trkpt><trkpt lat="42.61275524556789" lon="2.813897455923789"><ele>84.0</ele><time>2026-04-08T13:18:48Z</time></trkpt><trkpt lat="42.612632531008146" lon="2.8140302648641216"><ele>84.0</ele><time>2026-04-08T13:18:49Z</time></trkpt><trkpt lat="42.61251604153058" lon="2.814162646946576"><ele>84.0</ele><time>2026-04-08T13:18:50Z</time></trkpt><trkpt lat="42.612382962948224" lon="2.8142946127441326"><ele>84.66666666666667</ele><time>2026-04-08T13:18:51Z</time></trkpt><trkpt lat="42.61224108974364" lon="2.814431785526108"><ele>85.33333333333334</ele><time>2026-04-08T13:18:52Z</time></trkpt><trkpt lat="42.612117326119865" lon="2.8145741234245194"><ele>86.0</ele><time>2026-04-08T13:18:53Z</time></trkpt><trkpt lat="42.612007163637934" lon="2.8146984533994868"><ele>86.25</ele><time>2026-04-08T13:18:54Z</time></trkpt><trkpt lat="42.611902062314" lon="2.8148580544130044"><ele>86.5</ele><time>2026-04-08T13:18:55Z</time></trkpt><trkpt lat="42.611812244404845" lon="2.8150012311242745"><ele>86.75</ele><time>2026-04-08T13:18:56Z</time></trkpt><trkpt lat="42.61173895115055" lon="2.8150669777127697"><ele>87.0</ele><time>2026-04-08T13:18:57Z</time></trkpt><trkpt lat="42.61167176135567" lon="2.815407684403525"><ele>87.0</ele><time>2026-04-08T13:18:58Z</time></trkpt><trkpt lat="42.61164282634106" lon="2.8156250352514154"><ele>87.0</ele><time>2026-04-08T13:18:59Z</time></trkpt><trkpt lat="42.61164344993254" lon="2.815852958201829"><ele>87.0</ele><time>2026-04-08T13:19:00Z</time></trkpt><trkpt lat="42.611659556617546" lon="2.8160913640970944"><ele>87.33333333333333</ele><time>2026-04-08T13:19:01Z</time></trkpt><trkpt lat="42.61168664159791" lon="2.8163252671012873"><ele>87.66666666666666</ele><time>2026-04-08T13:19:02Z</time></trkpt><trkpt lat="42.61171649620438" lon="2.8165627238436333"><ele>88.0</ele><time>2026-04-08T13:19:03Z</time></trkpt><trkpt lat="42.611745444486964" lon="2.8168105798414755"><ele>87.33333333333333</ele><time>2026-04-08T13:19:04Z</time></trkpt><trkpt lat="42.6117723976128" lon="2.8170589783333044"><ele>86.66666666666667</ele><time>2026-04-08T13:19:05Z</time></trkpt><trkpt lat="42.61179631470458" lon="2.8172997289420425"><ele>86.0</ele><time>2026-04-08T13:19:06Z</time></trkpt><trkpt lat="42.61182072635756" lon="2.8175382532319513"><ele>86.33333333333334</ele><time>2026-04-08T13:19:07Z</time></trkpt><trkpt lat="42.61184500299169" lon="2.8177706663034225"><ele>86.66666666666667</ele><time>2026-04-08T13:19:08Z</time></trkpt><trkpt lat="42.61186357181978" lon="2.818004394249635"><ele>87.0</ele><time>2026-04-08T13:19:09Z</time></trkpt><trkpt lat="42.61188608326814" lon="2.8182362489939683"><ele>87.0</ele><time>2026-04-08T13:19:10Z</time></trkpt><trkpt lat="42.61191215406797" lon="2.8184724049499703"><ele>87.0</ele><time>2026-04-08T13:19:11Z</time></trkpt><trkpt lat="42.61193694486563" lon="2.8187079589617983"><ele>87.0</ele><time>2026-04-08T13:19:12Z</time></trkpt><trkpt lat="42.611958884278714" lon="2.818939505893369"><ele>86.66666666666667</ele><time>2026-04-08T13:19:13Z</time></trkpt><trkpt lat="42.61198141795002" lon="2.8191691854982133"><ele>86.33333333333334</ele><time>2026-04-08T13:19:14Z</time></trkpt><trkpt lat="42.612002122194305" lon="2.8194042585997954"><ele>86.0</ele><time>2026-04-08T13:19:15Z</time></trkpt><trkpt lat="42.612024500006406" lon="2.8196448092592816"><ele>85.66666666666667</ele><time>2026-04-08T13:19:16Z</time></trkpt><trkpt lat="42.61204551152973" lon="2.8198868054681747"><ele>85.33333333333333</ele><time>2026-04-08T13:19:17Z</time></trkpt><trkpt lat="42.612068750059045" lon="2.8201360581248727"><ele>85.0</ele><time>2026-04-08T13:19:18Z</time></trkpt><trkpt lat="42.612094327071006" lon="2.8203812922615397"><ele>85.0</ele><time>2026-04-08T13:19:19Z</time></trkpt><trkpt lat="42.61211547436067" lon="2.820622560813063"><ele>85.0</ele><time>2026-04-08T13:19:20Z</time></trkpt><trkpt lat="42.612140324402205" lon="2.8208637616790315"><ele>85.0</ele><time>2026-04-08T13:19:21Z</time></trkpt><trkpt lat="42.61216283227794" lon="2.8211015233208965"><ele>85.0</ele><time>2026-04-08T13:19:22Z</time></trkpt><trkpt lat="42.6121846712805" lon="2.8213510845568663"><ele>85.0</ele><time>2026-04-08T13:19:23Z</time></trkpt><trkpt lat="42.6122075736481" lon="2.8215890549125042"><ele>85.0</ele><time>2026-04-08T13:19:24Z</time></trkpt><trkpt lat="42.612228744466286" lon="2.8218278390165557"><ele>85.0</ele><time>2026-04-08T13:19:25Z</time></trkpt><trkpt lat="42.61225146464995" lon="2.8220629122346597"><ele>85.0</ele><time>2026-04-08T13:19:26Z</time></trkpt><trkpt lat="42.61227449368132" lon="2.8222906143366195"><ele>85.0</ele><time>2026-04-08T13:19:27Z</time></trkpt><trkpt lat="42.612295126906936" lon="2.8225193769714667"><ele>85.66666666666666</ele><time>2026-04-08T13:19:28Z</time></trkpt><trkpt lat="42.612314175471305" lon="2.8227501352830915"><ele>86.33333333333333</ele><time>2026-04-08T13:19:29Z</time></trkpt><trkpt lat="42.61233482811403" lon="2.8229755696462884"><ele>87.0</ele><time>2026-04-08T13:19:30Z</time></trkpt><trkpt lat="42.61235491484896" lon="2.8231983847225046"><ele>87.0</ele><time>2026-04-08T13:19:31Z</time></trkpt><trkpt lat="42.61237590678997" lon="2.823418981106553"><ele>87.0</ele><time>2026-04-08T13:19:32Z</time></trkpt><trkpt lat="42.61239675107278" lon="2.8236505481834486"><ele>87.0</ele><time>2026-04-08T13:19:33Z</time></trkpt><trkpt lat="42.61241694854629" lon="2.823876992179178"><ele>87.66666666666667</ele><time>2026-04-08T13:19:34Z</time></trkpt><trkpt lat="42.612428915210835" lon="2.8241056956475403"><ele>88.33333333333334</ele><time>2026-04-08T13:19:35Z</time></trkpt><trkpt lat="42.61243058687498" lon="2.824331925208288"><ele>89.0</ele><time>2026-04-08T13:19:36Z</time></trkpt><trkpt lat="42.612424270019645" lon="2.824537166664894"><ele>89.0</ele><time>2026-04-08T13:19:37Z</time></trkpt><trkpt lat="42.61241270332963" lon="2.8247432459882713"><ele>89.0</ele><time>2026-04-08T13:19:38Z</time></trkpt><trkpt lat="42.61240280416197" lon="2.824927330306732"><ele>89.0</ele><time>2026-04-08T13:19:39Z</time></trkpt><trkpt lat="42.61239300214299" lon="2.8251109164578203"><ele>89.0</ele><time>2026-04-08T13:19:40Z</time></trkpt><trkpt lat="42.61237951351949" lon="2.82529097839479"><ele>89.4</ele><time>2026-04-08T13:19:41Z</time></trkpt><trkpt lat="42.612360497418734" lon="2.8254518991539346"><ele>89.80000000000001</ele><time>2026-04-08T13:19:42Z</time></trkpt><trkpt lat="42.612337493183595" lon="2.82558547692246"><ele>90.19999999999999</ele><time>2026-04-08T13:19:43Z</time></trkpt><trkpt lat="42.612312562692054" lon="2.825704609054044"><ele>90.6</ele><time>2026-04-08T13:19:44Z</time></trkpt><trkpt lat="42.61228566869298" lon="2.8257981428235315"><ele>91.0</ele><time>2026-04-08T13:19:45Z</time></trkpt><trkpt lat="42.61221143739827" lon="2.8259228262897564"><ele>91.0</ele><time>2026-04-08T13:19:46.999Z</time></trkpt><trkpt lat="42.61214845835348" lon="2.8259655713874086"><ele>91.0</ele><time>2026-04-08T13:19:47.999Z</time></trkpt><trkpt lat="42.6120774420491" lon="2.8259793893469505"><ele>91.0</ele><time>2026-04-08T13:19:48.999Z</time></trkpt><trkpt lat="42.61199588156482" lon="2.825967029826071"><ele>91.0</ele><time>2026-04-08T13:19:49.999Z</time></trkpt><trkpt lat="42.6118974064956" lon="2.8259180627849467"><ele>91.0</ele><time>2026-04-08T13:19:50.999Z</time></trkpt><trkpt lat="42.611798627205495" lon="2.8258111259266316"><ele>92.33333333333333</ele><time>2026-04-08T13:19:51.999Z</time></trkpt><trkpt lat="42.61167199747515" lon="2.825732254142678"><ele>93.66666666666667</ele><time>2026-04-08T13:19:52.999Z</time></trkpt><trkpt lat="42.611538327999426" lon="2.825642937822389"><ele>95.0</ele><time>2026-04-08T13:19:53.999Z</time></trkpt><trkpt lat="42.61139196486647" lon="2.825537211663176"><ele>95.0</ele><time>2026-04-08T13:19:54.999Z</time></trkpt><trkpt lat="42.611245952131604" lon="2.825411560735167"><ele>95.0</ele><time>2026-04-08T13:19:55.999Z</time></trkpt><trkpt lat="42.61109389859773" lon="2.8252628452202693"><ele>95.0</ele><time>2026-04-08T13:19:56.999Z</time></trkpt><trkpt lat="42.61094606094487" lon="2.8250994982841617"><ele>95.0</ele><time>2026-04-08T13:19:57.999Z</time></trkpt><trkpt lat="42.61080689402946" lon="2.8249204406070283"><ele>95.0</ele><time>2026-04-08T13:19:58.999Z</time></trkpt><trkpt lat="42.610678199389774" lon="2.8247256416585707"><ele>95.0</ele><time>2026-04-08T13:19:59.999Z</time></trkpt><trkpt lat="42.61055249299061" lon="2.824524075924583"><ele>95.0</ele><time>2026-04-08T13:20:00.999Z</time></trkpt><trkpt lat="42.610433751504445" lon="2.8243134862999084"><ele>95.0</ele><time>2026-04-08T13:20:01.999Z</time></trkpt><trkpt lat="42.61033179883561" lon="2.824090874046489"><ele>95.0</ele><time>2026-04-08T13:20:02.999Z</time></trkpt><trkpt lat="42.610236083606495" lon="2.8238594342074523"><ele>95.0</ele><time>2026-04-08T13:20:03.999Z</time></trkpt><trkpt lat="42.610135219717776" lon="2.823636320504773"><ele>95.0</ele><time>2026-04-08T13:20:04.999Z</time></trkpt><trkpt lat="42.61003344519406" lon="2.8234146108311893"><ele>95.0</ele><time>2026-04-08T13:20:05.999Z</time></trkpt><trkpt lat="42.60993278738404" lon="2.823195765306208"><ele>95.0</ele><time>2026-04-08T13:20:06.999Z</time></trkpt><trkpt lat="42.60983327394483" lon="2.8229756140428015"><ele>95.0</ele><time>2026-04-08T13:20:07.999Z</time></trkpt><trkpt lat="42.60973568373933" lon="2.8227552331355823"><ele>95.0</ele><time>2026-04-08T13:20:08.999Z</time></trkpt><trkpt lat="42.609640170239544" lon="2.822541242004484"><ele>95.0</ele><time>2026-04-08T13:20:09.999Z</time></trkpt><trkpt lat="42.60954504693429" lon="2.8223323702304253"><ele>95.0</ele><time>2026-04-08T13:20:10.999Z</time></trkpt><trkpt lat="42.60944948711023" lon="2.8221285742729414"><ele>95.0</ele><time>2026-04-08T13:20:11.999Z</time></trkpt><trkpt lat="42.609353128993064" lon="2.821924389695318"><ele>97.0</ele><time>2026-04-08T13:20:12.999Z</time></trkpt><trkpt lat="42.60925733002143" lon="2.8217211826960678"><ele>99.0</ele><time>2026-04-08T13:20:13.999Z</time></trkpt><trkpt lat="42.60916316099919" lon="2.821521433282538"><ele>101.0</ele><time>2026-04-08T13:20:14.999Z</time></trkpt><trkpt lat="42.6090678646515" lon="2.8213192926190764"><ele>101.0</ele><time>2026-04-08T13:20:15.999Z</time></trkpt><trkpt lat="42.60895701234871" lon="2.821123736254828"><ele>101.0</ele><time>2026-04-08T13:20:16.999Z</time></trkpt><trkpt lat="42.60885441524771" lon="2.8209098865464943"><ele>101.0</ele><time>2026-04-08T13:20:17.999Z</time></trkpt><trkpt lat="42.60875774097735" lon="2.8206892354869897"><ele>101.0</ele><time>2026-04-08T13:20:18.999Z</time></trkpt><trkpt lat="42.60861941815384" lon="2.8205133392342985"><ele>101.0</ele><time>2026-04-08T13:20:19.999Z</time></trkpt><trkpt lat="42.608479752893494" lon="2.8203484339252047"><ele>101.0</ele><time>2026-04-08T13:20:20.999Z</time></trkpt><trkpt lat="42.60833145015983" lon="2.8202009262163132"><ele>99.66666666666666</ele><time>2026-04-08T13:20:21.999Z</time></trkpt><trkpt lat="42.608174821583596" lon="2.82008017022248"><ele>98.33333333333334</ele><time>2026-04-08T13:20:22.999Z</time></trkpt><trkpt lat="42.60801802001286" lon="2.8199889387822554"><ele>97.0</ele><time>2026-04-08T13:20:23.999Z</time></trkpt><trkpt lat="42.60786002061527" lon="2.8199137075398433"><ele>96.75</ele><time>2026-04-08T13:20:24.999Z</time></trkpt><trkpt lat="42.607711540834075" lon="2.8198584652101553"><ele>96.5</ele><time>2026-04-08T13:20:25.999Z</time></trkpt><trkpt lat="42.60757067854988" lon="2.8198324148548863"><ele>96.25</ele><time>2026-04-08T13:20:26.999Z</time></trkpt><trkpt lat="42.60742476456519" lon="2.8198120107841373"><ele>96.0</ele><time>2026-04-08T13:20:27.999Z</time></trkpt><trkpt lat="42.607289590011014" lon="2.819808507115663"><ele>96.0</ele><time>2026-04-08T13:20:28.999Z</time></trkpt><trkpt lat="42.607158735525346" lon="2.819803798433503"><ele>96.0</ele><time>2026-04-08T13:20:29.999Z</time></trkpt><trkpt lat="42.607041250524105" lon="2.819792263949932"><ele>96.0</ele><time>2026-04-08T13:20:30.999Z</time></trkpt><trkpt lat="42.60693650420785" lon="2.819772324103561"><ele>96.0</ele><time>2026-04-08T13:20:31.999Z</time></trkpt><trkpt lat="42.60682819191467" lon="2.819751599574707"><ele>96.83333333333333</ele><time>2026-04-08T13:20:32.999Z</time></trkpt><trkpt lat="42.60674817921845" lon="2.819730582497484"><ele>97.66666666666666</ele><time>2026-04-08T13:20:33.999Z</time></trkpt><trkpt lat="42.606686740203514" lon="2.819710853968814"><ele>98.5</ele><time>2026-04-08T13:20:34.999Z</time></trkpt><trkpt lat="42.60661627455523" lon="2.8196684498952287"><ele>99.33333333333333</ele><time>2026-04-08T13:20:35.999Z</time></trkpt><trkpt lat="42.60655380360318" lon="2.8196218850482753"><ele>100.16666666666666</ele><time>2026-04-08T13:20:36.999Z</time></trkpt><trkpt lat="42.6064328078304" lon="2.8196049036570736"><ele>101.0</ele><time>2026-04-08T13:20:38.999Z</time></trkpt><trkpt lat="42.60639080234874" lon="2.819702852968462"><ele>101.0</ele><time>2026-04-08T13:20:39.999Z</time></trkpt><trkpt lat="42.60636553154654" lon="2.8197936088196203"><ele>101.0</ele><time>2026-04-08T13:20:40.999Z</time></trkpt><trkpt lat="42.6063831826178" lon="2.8199032926317327"><ele>101.0</ele><time>2026-04-08T13:20:41.999Z</time></trkpt><trkpt lat="42.6063292870515" lon="2.8200401069678467"><ele>101.0</ele><time>2026-04-08T13:20:42.999Z</time></trkpt><trkpt lat="42.60627207373453" lon="2.8201842355350952"><ele>101.0</ele><time>2026-04-08T13:20:43.999Z</time></trkpt><trkpt lat="42.60619675807499" lon="2.82033207259882"><ele>103.33333333333333</ele><time>2026-04-08T13:20:44.999Z</time></trkpt><trkpt lat="42.60610565520727" lon="2.82047958305919"><ele>105.66666666666666</ele><time>2026-04-08T13:20:45.999Z</time></trkpt><trkpt lat="42.60600307308062" lon="2.8206317559104908"><ele>108.0</ele><time>2026-04-08T13:20:46.999Z</time></trkpt><trkpt lat="42.60588825446976" lon="2.8207855741325543"><ele>108.0</ele><time>2026-04-08T13:20:47.999Z</time></trkpt><trkpt lat="42.60576516097093" lon="2.820929405453408"><ele>108.0</ele><time>2026-04-08T13:20:48.999Z</time></trkpt><trkpt lat="42.60564235524751" lon="2.8210588079275234"><ele>108.0</ele><time>2026-04-08T13:20:50Z</time></trkpt><trkpt lat="42.60551649583376" lon="2.8211681587003157"><ele>108.0</ele><time>2026-04-08T13:20:51Z</time></trkpt><trkpt lat="42.605389319095934" lon="2.8212712683917145"><ele>108.0</ele><time>2026-04-08T13:20:52Z</time></trkpt><trkpt lat="42.605260843510884" lon="2.821366651569534"><ele>108.0</ele><time>2026-04-08T13:20:53Z</time></trkpt><trkpt lat="42.60512910697189" lon="2.8214681127846575"><ele>108.0</ele><time>2026-04-08T13:20:54Z</time></trkpt><trkpt lat="42.604995971481955" lon="2.8215691158750866"><ele>108.0</ele><time>2026-04-08T13:20:55Z</time></trkpt><trkpt lat="42.60486562313154" lon="2.8216688980872338"><ele>108.0</ele><time>2026-04-08T13:20:56Z</time></trkpt><trkpt lat="42.6047377165876" lon="2.8217694276587273"><ele>108.0</ele><time>2026-04-08T13:20:57Z</time></trkpt><trkpt lat="42.604616327424786" lon="2.821865139804672"><ele>108.0</ele><time>2026-04-08T13:20:58Z</time></trkpt><trkpt lat="42.604492748909315" lon="2.821958532346323"><ele>107.0</ele><time>2026-04-08T13:20:59Z</time></trkpt><trkpt lat="42.60437251128819" lon="2.822047861816879"><ele>106.0</ele><time>2026-04-08T13:21:00Z</time></trkpt><trkpt lat="42.60426045395632" lon="2.822136717628956"><ele>105.0</ele><time>2026-04-08T13:21:01Z</time></trkpt><trkpt lat="42.604162816444585" lon="2.8222120228792456"><ele>104.0</ele><time>2026-04-08T13:21:02Z</time></trkpt><trkpt lat="42.60405531058233" lon="2.822294724747595"><ele>104.0</ele><time>2026-04-08T13:21:03Z</time></trkpt><trkpt lat="42.603949875627826" lon="2.8223867721900198"><ele>104.0</ele><time>2026-04-08T13:21:04Z</time></trkpt><trkpt lat="42.60385828705515" lon="2.822509602683471"><ele>104.0</ele><time>2026-04-08T13:21:05Z</time></trkpt><trkpt lat="42.603797470805894" lon="2.8226635140116323"><ele>104.0</ele><time>2026-04-08T13:21:06Z</time></trkpt><trkpt lat="42.603743860671514" lon="2.822835792831187"><ele>103.5</ele><time>2026-04-08T13:21:07Z</time></trkpt><trkpt lat="42.60368094353699" lon="2.8230174104451993"><ele>103.0</ele><time>2026-04-08T13:21:08Z</time></trkpt><trkpt lat="42.60362121548793" lon="2.823205920323664"><ele>102.5</ele><time>2026-04-08T13:21:09Z</time></trkpt><trkpt lat="42.60356247227272" lon="2.8233800920563707"><ele>102.0</ele><time>2026-04-08T13:21:10Z</time></trkpt><trkpt lat="42.60350541236674" lon="2.823543932753553"><ele>102.0</ele><time>2026-04-08T13:21:11Z</time></trkpt><trkpt lat="42.6034388887068" lon="2.8236885149321616"><ele>102.0</ele><time>2026-04-08T13:21:12Z</time></trkpt><trkpt lat="42.603360032109684" lon="2.823836495010462"><ele>102.0</ele><time>2026-04-08T13:21:13Z</time></trkpt><trkpt lat="42.60328365273622" lon="2.82394897579232"><ele>102.0</ele><time>2026-04-08T13:21:14Z</time></trkpt><trkpt lat="42.60322739154833" lon="2.8240139422666135"><ele>102.0</ele><time>2026-04-08T13:21:15Z</time></trkpt><trkpt lat="42.60295541979444" lon="2.8242636844779163"><ele>101.25</ele><time>2026-04-08T13:21:17Z</time></trkpt><trkpt lat="42.60283644425059" lon="2.824332328018269"><ele>100.5</ele><time>2026-04-08T13:21:18Z</time></trkpt><trkpt lat="42.60271446672262" lon="2.8243816342588097"><ele>99.75</ele><time>2026-04-08T13:21:19Z</time></trkpt><trkpt lat="42.60259739587085" lon="2.824416255212713"><ele>99.0</ele><time>2026-04-08T13:21:20Z</time></trkpt><trkpt lat="42.60249129790727" lon="2.8244334183702167"><ele>98.75</ele><time>2026-04-08T13:21:21Z</time></trkpt><trkpt lat="42.60238128589705" lon="2.8244605558982054"><ele>98.5</ele><time>2026-04-08T13:21:22Z</time></trkpt><trkpt lat="42.602264878877925" lon="2.8244774768137244"><ele>98.25</ele><time>2026-04-08T13:21:23Z</time></trkpt><trkpt lat="42.602148670968496" lon="2.824511174284957"><ele>98.0</ele><time>2026-04-08T13:21:24Z</time></trkpt><trkpt lat="42.60203447617133" lon="2.824560570193507"><ele>98.75</ele><time>2026-04-08T13:21:25Z</time></trkpt><trkpt lat="42.60193315788747" lon="2.824627708819519"><ele>99.5</ele><time>2026-04-08T13:21:26Z</time></trkpt><trkpt lat="42.601835596850634" lon="2.8247162730427062"><ele>100.25</ele><time>2026-04-08T13:21:27Z</time></trkpt><trkpt lat="42.601734997532525" lon="2.824837273153939"><ele>101.0</ele><time>2026-04-08T13:21:28Z</time></trkpt><trkpt lat="42.6016377472465" lon="2.8249756224719738"><ele>101.0</ele><time>2026-04-08T13:21:29Z</time></trkpt><trkpt lat="42.601542443116195" lon="2.8251201784597706"><ele>101.0</ele><time>2026-04-08T13:21:30Z</time></trkpt><trkpt lat="42.601455124940166" lon="2.825253919621026"><ele>101.0</ele><time>2026-04-08T13:21:31Z</time></trkpt><trkpt lat="42.601370624658806" lon="2.825373833624726"><ele>101.0</ele><time>2026-04-08T13:21:32Z</time></trkpt><trkpt lat="42.60127921654805" lon="2.825475848977949"><ele>100.75</ele><time>2026-04-08T13:21:33Z</time></trkpt><trkpt lat="42.601156614535014" lon="2.8255401300683345"><ele>100.5</ele><time>2026-04-08T13:21:34Z</time></trkpt><trkpt lat="42.6010284404684" lon="2.825628794123561"><ele>100.25</ele><time>2026-04-08T13:21:35Z</time></trkpt><trkpt lat="42.60088745347215" lon="2.825715196280042"><ele>100.0</ele><time>2026-04-08T13:21:36Z</time></trkpt><trkpt lat="42.60074739298939" lon="2.8258079001456746"><ele>100.0</ele><time>2026-04-08T13:21:37Z</time></trkpt><trkpt lat="42.600599614995744" lon="2.825908557749666"><ele>100.0</ele><time>2026-04-08T13:21:38Z</time></trkpt><trkpt lat="42.600444315303136" lon="2.8259793885867817"><ele>100.0</ele><time>2026-04-08T13:21:39Z</time></trkpt><trkpt lat="42.600269892446995" lon="2.826057499006951"><ele>99.33333333333334</ele><time>2026-04-08T13:21:40Z</time></trkpt><trkpt lat="42.60009398354694" lon="2.826126278424734"><ele>98.66666666666666</ele><time>2026-04-08T13:21:41Z</time></trkpt><trkpt lat="42.59992774482591" lon="2.8261913687737343"><ele>98.0</ele><time>2026-04-08T13:21:42Z</time></trkpt><trkpt lat="42.59976843771131" lon="2.8262538298234396"><ele>98.0</ele><time>2026-04-08T13:21:43Z</time></trkpt><trkpt lat="42.59960220170586" lon="2.8263171258564923"><ele>98.0</ele><time>2026-04-08T13:21:44Z</time></trkpt><trkpt lat="42.59944037876933" lon="2.826382158350655"><ele>98.0</ele><time>2026-04-08T13:21:45Z</time></trkpt><trkpt lat="42.59927867219174" lon="2.826447170870287"><ele>95.66666666666666</ele><time>2026-04-08T13:21:46Z</time></trkpt><trkpt lat="42.59912241715735" lon="2.8265135491534448"><ele>93.33333333333333</ele><time>2026-04-08T13:21:47Z</time></trkpt><trkpt lat="42.59896849598615" lon="2.826582287910773"><ele>91.0</ele><time>2026-04-08T13:21:48Z</time></trkpt><trkpt lat="42.59883587162805" lon="2.8266382062899646"><ele>91.0</ele><time>2026-04-08T13:21:49Z</time></trkpt><trkpt lat="42.59867722776029" lon="2.8267289037965235"><ele>91.0</ele><time>2026-04-08T13:21:50Z</time></trkpt><trkpt lat="42.5985286638587" lon="2.8268134548657144"><ele>91.0</ele><time>2026-04-08T13:21:51Z</time></trkpt><trkpt lat="42.59838462620484" lon="2.8268965809512863"><ele>89.0</ele><time>2026-04-08T13:21:52Z</time></trkpt><trkpt lat="42.59824800299598" lon="2.826970965332768"><ele>87.0</ele><time>2026-04-08T13:21:53Z</time></trkpt><trkpt lat="42.59811843803365" lon="2.827042030132961"><ele>85.0</ele><time>2026-04-08T13:21:54Z</time></trkpt><trkpt lat="42.59799195189837" lon="2.827125631239551"><ele>83.0</ele><time>2026-04-08T13:21:55Z</time></trkpt><trkpt lat="42.59787457261007" lon="2.8272232576002847"><ele>82.66666666666667</ele><time>2026-04-08T13:21:56Z</time></trkpt><trkpt lat="42.59776007188249" lon="2.827347311664755"><ele>82.33333333333333</ele><time>2026-04-08T13:21:57Z</time></trkpt><trkpt lat="42.597653395761476" lon="2.827493574023003"><ele>82.0</ele><time>2026-04-08T13:21:58Z</time></trkpt><trkpt lat="42.59754640283089" lon="2.8276684558262417"><ele>82.0</ele><time>2026-04-08T13:21:59Z</time></trkpt><trkpt lat="42.59743731411715" lon="2.827851938744581"><ele>82.0</ele><time>2026-04-08T13:22:00Z</time></trkpt><trkpt lat="42.597302156566705" lon="2.8280382205030894"><ele>82.0</ele><time>2026-04-08T13:22:01Z</time></trkpt><trkpt lat="42.597182128797286" lon="2.8282307088043526"><ele>82.0</ele><time>2026-04-08T13:22:01.999Z</time></trkpt><trkpt lat="42.597069716394536" lon="2.828414029890653"><ele>82.0</ele><time>2026-04-08T13:22:02.999Z</time></trkpt><trkpt lat="42.59696623938496" lon="2.8285737293201043"><ele>82.0</ele><time>2026-04-08T13:22:03.999Z</time></trkpt><trkpt lat="42.59687592941764" lon="2.828721572302949"><ele>82.0</ele><time>2026-04-08T13:22:04.999Z</time></trkpt><trkpt lat="42.59678925903533" lon="2.8288590777219547"><ele>82.0</ele><time>2026-04-08T13:22:05.999Z</time></trkpt><trkpt lat="42.59671496156733" lon="2.8289799015906687"><ele>82.0</ele><time>2026-04-08T13:22:06.999Z</time></trkpt><trkpt lat="42.59665089603657" lon="2.8291104534654608"><ele>82.0</ele><time>2026-04-08T13:22:07.999Z</time></trkpt><trkpt lat="42.59658103220226" lon="2.8292203119861465"><ele>82.0</ele><time>2026-04-08T13:22:08.999Z</time></trkpt><trkpt lat="42.59652445350134" lon="2.8293061800970416"><ele>82.0</ele><time>2026-04-08T13:22:09.999Z</time></trkpt><trkpt lat="42.596473172004266" lon="2.8293813163151387"><ele>82.0</ele><time>2026-04-08T13:22:10.999Z</time></trkpt><trkpt lat="42.596428025464405" lon="2.82944872447005"><ele>82.0</ele><time>2026-04-08T13:22:11.999Z</time></trkpt><trkpt lat="42.59633777076118" lon="2.8295850432487817"><ele>82.0</ele><time>2026-04-08T13:22:13.999Z</time></trkpt><trkpt lat="42.59626431194261" lon="2.8296520195349038"><ele>81.75</ele><time>2026-04-08T13:22:14.999Z</time></trkpt><trkpt lat="42.59617118784876" lon="2.8297208908432996"><ele>81.5</ele><time>2026-04-08T13:22:15.999Z</time></trkpt><trkpt lat="42.59607843103422" lon="2.8298067095148807"><ele>81.25</ele><time>2026-04-08T13:22:16.999Z</time></trkpt><trkpt lat="42.59596820752377" lon="2.8299085977125134"><ele>81.0</ele><time>2026-04-08T13:22:17.999Z</time></trkpt><trkpt lat="42.59586614509681" lon="2.8300209624958437"><ele>81.0</ele><time>2026-04-08T13:22:18.999Z</time></trkpt><trkpt lat="42.59577143133109" lon="2.8301566132131546"><ele>81.0</ele><time>2026-04-08T13:22:19.999Z</time></trkpt><trkpt lat="42.595695633750715" lon="2.8303385058498614"><ele>81.0</ele><time>2026-04-08T13:22:20.999Z</time></trkpt><trkpt lat="42.595639477381525" lon="2.8305378579030727"><ele>81.0</ele><time>2026-04-08T13:22:21.999Z</time></trkpt><trkpt lat="42.59557625263883" lon="2.8307477049200007"><ele>81.0</ele><time>2026-04-08T13:22:22.999Z</time></trkpt><trkpt lat="42.59551370093338" lon="2.8309675422611336"><ele>81.0</ele><time>2026-04-08T13:22:23.999Z</time></trkpt><trkpt lat="42.59545100550364" lon="2.83117898304544"><ele>81.0</ele><time>2026-04-08T13:22:24.999Z</time></trkpt><trkpt lat="42.595390256687075" lon="2.831383522978044"><ele>81.33333333333333</ele><time>2026-04-08T13:22:25.999Z</time></trkpt><trkpt lat="42.59533205618897" lon="2.831580056655501"><ele>81.66666666666666</ele><time>2026-04-08T13:22:26.999Z</time></trkpt><trkpt lat="42.595277103969245" lon="2.8317643796582463"><ele>82.0</ele><time>2026-04-08T13:22:27.999Z</time></trkpt><trkpt lat="42.5951946042331" lon="2.8319386964670583"><ele>82.0</ele><time>2026-04-08T13:22:28.999Z</time></trkpt><trkpt lat="42.595109474334656" lon="2.8321160374149077"><ele>82.0</ele><time>2026-04-08T13:22:29.999Z</time></trkpt><trkpt lat="42.59501752568318" lon="2.8323089500901197"><ele>82.0</ele><time>2026-04-08T13:22:30.999Z</time></trkpt><trkpt lat="42.594911921825684" lon="2.832481634375813"><ele>82.0</ele><time>2026-04-08T13:22:31.999Z</time></trkpt><trkpt lat="42.59480164534153" lon="2.832666960912185"><ele>82.0</ele><time>2026-04-08T13:22:32.999Z</time></trkpt><trkpt lat="42.59469331294635" lon="2.8328476100180255"><ele>82.0</ele><time>2026-04-08T13:22:33.999Z</time></trkpt><trkpt lat="42.59458672756569" lon="2.8330369584745467"><ele>82.0</ele><time>2026-04-08T13:22:34.999Z</time></trkpt><trkpt lat="42.59448104364544" lon="2.833219053886217"><ele>82.0</ele><time>2026-04-08T13:22:35.999Z</time></trkpt><trkpt lat="42.59437646583595" lon="2.8333967921240713"><ele>82.0</ele><time>2026-04-08T13:22:36.999Z</time></trkpt><trkpt lat="42.594275632485996" lon="2.8335710518494768"><ele>82.0</ele><time>2026-04-08T13:22:37.999Z</time></trkpt><trkpt lat="42.594177217718475" lon="2.833738969964776"><ele>82.0</ele><time>2026-04-08T13:22:38.999Z</time></trkpt><trkpt lat="42.59408702288778" lon="2.8338913579773117"><ele>82.0</ele><time>2026-04-08T13:22:39.999Z</time></trkpt><trkpt lat="42.59400448003131" lon="2.834032089871698"><ele>82.0</ele><time>2026-04-08T13:22:40.999Z</time></trkpt><trkpt lat="42.593916290744694" lon="2.8341788266844024"><ele>82.0</ele><time>2026-04-08T13:22:41.999Z</time></trkpt><trkpt lat="42.59381331802038" lon="2.834323425756"><ele>82.0</ele><time>2026-04-08T13:22:42.999Z</time></trkpt><trkpt lat="42.59369564033759" lon="2.834453802378122"><ele>82.0</ele><time>2026-04-08T13:22:43.999Z</time></trkpt><trkpt lat="42.593565442951714" lon="2.834572750505685"><ele>83.0</ele><time>2026-04-08T13:22:44.999Z</time></trkpt><trkpt lat="42.59341977534539" lon="2.834693930580324"><ele>84.0</ele><time>2026-04-08T13:22:45.999Z</time></trkpt><trkpt lat="42.59328589281097" lon="2.8348139745303382"><ele>85.0</ele><time>2026-04-08T13:22:46.999Z</time></trkpt><trkpt lat="42.593163115821454" lon="2.834920605487828"><ele>85.0</ele><time>2026-04-08T13:22:47.999Z</time></trkpt><trkpt lat="42.59304616117943" lon="2.835029524474597"><ele>85.0</ele><time>2026-04-08T13:22:48.999Z</time></trkpt><trkpt lat="42.59293223690979" lon="2.835138306716551"><ele>85.0</ele><time>2026-04-08T13:22:49.999Z</time></trkpt><trkpt lat="42.59283075695078" lon="2.835234935126274"><ele>85.0</ele><time>2026-04-08T13:22:50.999Z</time></trkpt><trkpt lat="42.592740485047166" lon="2.835303910525024"><ele>84.5</ele><time>2026-04-08T13:22:51.999Z</time></trkpt><trkpt lat="42.59264817362942" lon="2.8353749581108834"><ele>84.0</ele><time>2026-04-08T13:22:52.999Z</time></trkpt><trkpt lat="42.592517954976486" lon="2.835488723923646"><ele>83.5</ele><time>2026-04-08T13:22:53.999Z</time></trkpt><trkpt lat="42.59239591896996" lon="2.835545091938393"><ele>83.0</ele><time>2026-04-08T13:22:54.999Z</time></trkpt><trkpt lat="42.59223667949849" lon="2.835580990684238"><ele>83.0</ele><time>2026-04-08T13:22:56Z</time></trkpt><trkpt lat="42.59209478690177" lon="2.835597480725222"><ele>83.0</ele><time>2026-04-08T13:22:57Z</time></trkpt><trkpt lat="42.59193354230687" lon="2.8356299761032204"><ele>83.0</ele><time>2026-04-08T13:22:58Z</time></trkpt><trkpt lat="42.59178811475344" lon="2.835664028751871"><ele>82.25</ele><time>2026-04-08T13:22:59Z</time></trkpt><trkpt lat="42.59165362985883" lon="2.835692472437478"><ele>81.5</ele><time>2026-04-08T13:23:00Z</time></trkpt><trkpt lat="42.59153439938412" lon="2.835719093586216"><ele>80.75</ele><time>2026-04-08T13:23:01Z</time></trkpt><trkpt lat="42.59141576280384" lon="2.8357433704100226"><ele>80.0</ele><time>2026-04-08T13:23:02Z</time></trkpt><trkpt lat="42.591297589527095" lon="2.835770948378021"><ele>80.0</ele><time>2026-04-08T13:23:03Z</time></trkpt><trkpt lat="42.591190615278215" lon="2.8358104357317897"><ele>80.0</ele><time>2026-04-08T13:23:04Z</time></trkpt><trkpt lat="42.591088767766514" lon="2.835863280872366"><ele>80.0</ele><time>2026-04-08T13:23:05Z</time></trkpt><trkpt lat="42.590994229644224" lon="2.835936765573066"><ele>80.0</ele><time>2026-04-08T13:23:06Z</time></trkpt><trkpt lat="42.59090042914111" lon="2.836013720093674"><ele>80.0</ele><time>2026-04-08T13:23:07Z</time></trkpt><trkpt lat="42.59080052594903" lon="2.8360888673391265"><ele>79.8</ele><time>2026-04-08T13:23:08Z</time></trkpt><trkpt lat="42.590701247385695" lon="2.836151734763618"><ele>79.6</ele><time>2026-04-08T13:23:09Z</time></trkpt><trkpt lat="42.590611967966716" lon="2.8362096412289732"><ele>79.4</ele><time>2026-04-08T13:23:10Z</time></trkpt><trkpt lat="42.59052659554202" lon="2.836263016307214"><ele>79.2</ele><time>2026-04-08T13:23:11Z</time></trkpt><trkpt lat="42.59045429594666" lon="2.836316835837615"><ele>79.0</ele><time>2026-04-08T13:23:12Z</time></trkpt><trkpt lat="42.59039409606616" lon="2.8363758161725325"><ele>79.2</ele><time>2026-04-08T13:23:13Z</time></trkpt><trkpt lat="42.59033991082304" lon="2.836441991578166"><ele>79.4</ele><time>2026-04-08T13:23:14Z</time></trkpt><trkpt lat="42.590292074022685" lon="2.836500645161463"><ele>79.6</ele><time>2026-04-08T13:23:15Z</time></trkpt><trkpt lat="42.5901799533404" lon="2.8365467586019126"><ele>79.8</ele><time>2026-04-08T13:23:17Z</time></trkpt><trkpt lat="42.59007727574662" lon="2.836563019865146"><ele>80.0</ele><time>2026-04-08T13:23:19Z</time></trkpt><trkpt lat="42.59002830059619" lon="2.8366980179980437"><ele>80.0</ele><time>2026-04-08T13:23:21Z</time></trkpt><trkpt lat="42.59000674542882" lon="2.836794611213844"><ele>80.0</ele><time>2026-04-08T13:23:22Z</time></trkpt><trkpt lat="42.58997856116417" lon="2.8368817549361185"><ele>80.0</ele><time>2026-04-08T13:23:23Z</time></trkpt><trkpt lat="42.589924647051745" lon="2.837014963271794"><ele>80.0</ele><time>2026-04-08T13:23:25Z</time></trkpt><trkpt lat="42.58986974967129" lon="2.8370942362461307"><ele>80.0</ele><time>2026-04-08T13:23:31Z</time></trkpt><trkpt lat="42.58982434295052" lon="2.8371643911968567"><ele>80.0</ele><time>2026-04-08T13:23:32Z</time></trkpt><trkpt lat="42.589772118384694" lon="2.837256061356574"><ele>80.16666666666667</ele><time>2026-04-08T13:23:33Z</time></trkpt><trkpt lat="42.5897179192256" lon="2.837350438039624"><ele>80.33333333333334</ele><time>2026-04-08T13:23:34Z</time></trkpt><trkpt lat="42.58965324282434" lon="2.8374442352180385"><ele>80.5</ele><time>2026-04-08T13:23:35Z</time></trkpt><trkpt lat="42.58959062827144" lon="2.837529856170617"><ele>80.66666666666667</ele><time>2026-04-08T13:23:36Z</time></trkpt><trkpt lat="42.58953459515951" lon="2.837609729994528"><ele>80.83333333333333</ele><time>2026-04-08T13:23:37Z</time></trkpt><trkpt lat="42.58947788313429" lon="2.837687707179852"><ele>81.0</ele><time>2026-04-08T13:23:38Z</time></trkpt><trkpt lat="42.58942796013985" lon="2.8377579557901496"><ele>82.16666666666667</ele><time>2026-04-08T13:23:39Z</time></trkpt><trkpt lat="42.589382360773314" lon="2.837827787806142"><ele>83.33333333333333</ele><time>2026-04-08T13:23:40Z</time></trkpt><trkpt lat="42.58930124993029" lon="2.837941769113402"><ele>84.5</ele><time>2026-04-08T13:23:42Z</time></trkpt><trkpt lat="42.58919974935055" lon="2.8379691116505583"><ele>85.66666666666666</ele><time>2026-04-08T13:23:44Z</time></trkpt><trkpt lat="42.58913063102856" lon="2.8379959761048714"><ele>86.83333333333333</ele><time>2026-04-08T13:23:45Z</time></trkpt><trkpt lat="42.58905930705522" lon="2.8380244788522075"><ele>88.0</ele><time>2026-04-08T13:23:46Z</time></trkpt><trkpt lat="42.588992054155526" lon="2.838047567140291"><ele>88.0</ele><time>2026-04-08T13:23:47Z</time></trkpt><trkpt lat="42.588925371092856" lon="2.8380704598339146"><ele>88.0</ele><time>2026-04-08T13:23:48Z</time></trkpt><trkpt lat="42.588863655758544" lon="2.838134355280719"><ele>88.0</ele><time>2026-04-08T13:23:49Z</time></trkpt><trkpt lat="42.58878517079441" lon="2.8381691826394033"><ele>88.0</ele><time>2026-04-08T13:23:50Z</time></trkpt><trkpt lat="42.58871061120062" lon="2.838205207917721"><ele>88.0</ele><time>2026-04-08T13:23:51Z</time></trkpt><trkpt lat="42.58864002716562" lon="2.8382369901122564"><ele>88.0</ele><time>2026-04-08T13:23:52Z</time></trkpt><trkpt lat="42.58857866359729" lon="2.8382776353913703"><ele>94.0</ele><time>2026-04-08T13:23:53Z</time></trkpt><trkpt lat="42.58850061291142" lon="2.8382826448023812"><ele>94.0</ele><time>2026-04-08T13:23:56Z</time></trkpt></trkseg></trk></gpx>